<?xml version="1.0" encoding="UTF-8" standalone="no" ?>
<gpx xmlns="http://www.topografix.com/GPX/1/1" xmlns:xsi="http://www.w3.org/2001/XMLSchema-instance" xsi:schemaLocation="http://www.topografix.com/GPX/1/1 http://www.topografix.com/GPX/1/1/gpx.xsd" version="1.1" creator="VisuGPX - https://www.visugpx.com">
  <metadata>
    <name>1_Edirne à Tirana_1108km</name>
    <desc><![CDATA[Brouillon Balkans part1]]></desc>
  </metadata>
  <trk>
    <name><![CDATA[1_Edirne à Tirana_1108km]]></name>
    <trkseg>
      <trkpt lat="41.67247" lon="26.55709">
        <ele>39.188791</ele>
        <time>2022-02-21T17:29:33.712Z</time>
      </trkpt>
      <trkpt lat="41.67247" lon="26.55709">
        <ele>39.188791</ele>
        <time>2022-02-21T17:29:33.718Z</time>
      </trkpt>
      <trkpt lat="41.67215" lon="26.55703">
        <ele>39.188791</ele>
        <time>2022-02-21T17:29:41.055Z</time>
      </trkpt>
      <trkpt lat="41.67163" lon="26.55702">
        <ele>39.188791</ele>
        <time>2022-02-21T17:29:52.494Z</time>
      </trkpt>
      <trkpt lat="41.67141" lon="26.55706">
        <ele>38.98225</ele>
        <time>2022-02-21T17:29:57.869Z</time>
      </trkpt>
      <trkpt lat="41.67132" lon="26.55704">
        <ele>38.879319</ele>
        <time>2022-02-21T17:29:59.569Z</time>
      </trkpt>
      <trkpt lat="41.67088" lon="26.55639">
        <ele>38.079773</ele>
        <time>2022-02-21T17:30:14.623Z</time>
      </trkpt>
      <trkpt lat="41.67081" lon="26.55627">
        <ele>37.947017</ele>
        <time>2022-02-21T17:30:17.090Z</time>
      </trkpt>
      <trkpt lat="41.67068" lon="26.55546">
        <ele>37.199699</ele>
        <time>2022-02-21T17:30:32.873Z</time>
      </trkpt>
      <trkpt lat="41.67064" lon="26.55545">
        <ele>37.155704</ele>
        <time>2022-02-21T17:30:33.629Z</time>
      </trkpt>
      <trkpt lat="41.67011" lon="26.55517">
        <ele>36.961207</ele>
        <time>2022-02-21T17:30:48.309Z</time>
      </trkpt>
      <trkpt lat="41.66975" lon="26.55499">
        <ele>36.92177</ele>
        <time>2022-02-21T17:30:57.983Z</time>
      </trkpt>
      <trkpt lat="41.66959" lon="26.55493">
        <ele>36.904568</ele>
        <time>2022-02-21T17:31:02.457Z</time>
      </trkpt>
      <trkpt lat="41.66948" lon="26.55486">
        <ele>36.891334</ele>
        <time>2022-02-21T17:31:05.839Z</time>
      </trkpt>
      <trkpt lat="41.66887" lon="26.55476">
        <ele>36.827298</ele>
        <time>2022-02-21T17:31:22.953Z</time>
      </trkpt>
      <trkpt lat="41.66883" lon="26.55474">
        <ele>36.823467</ele>
        <time>2022-02-21T17:31:23.850Z</time>
      </trkpt>
      <trkpt lat="41.66876" lon="26.55471">
        <ele>36.815447</ele>
        <time>2022-02-21T17:31:26.046Z</time>
      </trkpt>
      <trkpt lat="41.66849" lon="26.55459">
        <ele>36.7863</ele>
        <time>2022-02-21T17:31:33.783Z</time>
      </trkpt>
      <trkpt lat="41.66728" lon="26.55388">
        <ele>36.650783</ele>
        <time>2022-02-21T17:32:07.748Z</time>
      </trkpt>
      <trkpt lat="41.66714" lon="26.55378">
        <ele>36.633267</ele>
        <time>2022-02-21T17:32:11.971Z</time>
      </trkpt>
      <trkpt lat="41.66604" lon="26.55326">
        <ele>36.444194</ele>
        <time>2022-02-21T17:32:43.082Z</time>
      </trkpt>
      <trkpt lat="41.66514" lon="26.55286">
        <ele>36.301131</ele>
        <time>2022-02-21T17:33:06.902Z</time>
      </trkpt>
      <trkpt lat="41.66444" lon="26.55259">
        <ele>36.205086</ele>
        <time>2022-02-21T17:33:25.329Z</time>
      </trkpt>
      <trkpt lat="41.66243" lon="26.55174">
        <ele>36.452197</ele>
        <time>2022-02-21T17:34:22.817Z</time>
      </trkpt>
      <trkpt lat="41.66237" lon="26.55169">
        <ele>36.47162</ele>
        <time>2022-02-21T17:34:25.030Z</time>
      </trkpt>
      <trkpt lat="41.66238" lon="26.55163">
        <ele>36.482611</ele>
        <time>2022-02-21T17:34:26.377Z</time>
      </trkpt>
      <trkpt lat="41.66238" lon="26.55157">
        <ele>36.493686</ele>
        <time>2022-02-21T17:34:27.642Z</time>
      </trkpt>
      <trkpt lat="41.66237" lon="26.55152">
        <ele>36.504677</ele>
        <time>2022-02-21T17:34:28.988Z</time>
      </trkpt>
      <trkpt lat="41.66218" lon="26.55066">
        <ele>36.771328</ele>
        <time>2022-02-21T17:34:48.629Z</time>
      </trkpt>
      <trkpt lat="41.66179" lon="26.54899">
        <ele>37.385201</ele>
        <time>2022-02-21T17:35:26.194Z</time>
      </trkpt>
      <trkpt lat="41.66172" lon="26.54881">
        <ele>37.449792</ele>
        <time>2022-02-21T17:35:30.597Z</time>
      </trkpt>
      <trkpt lat="41.66162" lon="26.54844">
        <ele>37.567106</ele>
        <time>2022-02-21T17:35:39.047Z</time>
      </trkpt>
      <trkpt lat="41.66123" lon="26.54692">
        <ele>38.041433</ele>
        <time>2022-02-21T17:36:13.482Z</time>
      </trkpt>
      <trkpt lat="41.66078" lon="26.54528">
        <ele>38.53849</ele>
        <time>2022-02-21T17:36:49.621Z</time>
      </trkpt>
      <trkpt lat="41.66037" lon="26.54375">
        <ele>39.024577</ele>
        <time>2022-02-21T17:37:25.649Z</time>
      </trkpt>
      <trkpt lat="41.65993" lon="26.54212">
        <ele>39.558548</ele>
        <time>2022-02-21T17:38:03.417Z</time>
      </trkpt>
      <trkpt lat="41.65913" lon="26.53907">
        <ele>38.238035</ele>
        <time>2022-02-21T17:39:03.067Z</time>
      </trkpt>
      <trkpt lat="41.65873" lon="26.53757">
        <ele>37.016714</ele>
        <time>2022-02-21T17:39:29.598Z</time>
      </trkpt>
      <trkpt lat="41.65835" lon="26.53616">
        <ele>36.299481</ele>
        <time>2022-02-21T17:39:55.328Z</time>
      </trkpt>
      <trkpt lat="41.65729" lon="26.53206">
        <ele>36.26504</ele>
        <time>2022-02-21T17:41:23.492Z</time>
      </trkpt>
      <trkpt lat="41.65691" lon="26.53061">
        <ele>36.564629</ele>
        <time>2022-02-21T17:41:56.926Z</time>
      </trkpt>
      <trkpt lat="41.65686" lon="26.53041">
        <ele>36.565343</ele>
        <time>2022-02-21T17:42:01.606Z</time>
      </trkpt>
      <trkpt lat="41.65599" lon="26.52709">
        <ele>36.301327</ele>
        <time>2022-02-21T17:43:09.793Z</time>
      </trkpt>
      <trkpt lat="41.65595" lon="26.52683">
        <ele>36.253262</ele>
        <time>2022-02-21T17:43:14.716Z</time>
      </trkpt>
      <trkpt lat="41.65591" lon="26.52654">
        <ele>36.200779</ele>
        <time>2022-02-21T17:43:20.145Z</time>
      </trkpt>
      <trkpt lat="41.65592" lon="26.5265">
        <ele>36.193203</ele>
        <time>2022-02-21T17:43:20.903Z</time>
      </trkpt>
      <trkpt lat="41.65592" lon="26.52645">
        <ele>36.185678</ele>
        <time>2022-02-21T17:43:21.709Z</time>
      </trkpt>
      <trkpt lat="41.65591" lon="26.52641">
        <ele>36.177972</ele>
        <time>2022-02-21T17:43:22.474Z</time>
      </trkpt>
      <trkpt lat="41.65596" lon="26.52604">
        <ele>36.161037</ele>
        <time>2022-02-21T17:43:29.777Z</time>
      </trkpt>
      <trkpt lat="41.65618" lon="26.52552">
        <ele>36.223948</ele>
        <time>2022-02-21T17:43:41.407Z</time>
      </trkpt>
      <trkpt lat="41.65658" lon="26.52473">
        <ele>36.325658</ele>
        <time>2022-02-21T17:44:00.965Z</time>
      </trkpt>
      <trkpt lat="41.65697" lon="26.52396">
        <ele>36.461159</ele>
        <time>2022-02-21T17:44:21.587Z</time>
      </trkpt>
      <trkpt lat="41.65778" lon="26.52236">
        <ele>36.948177</ele>
        <time>2022-02-21T17:45:03.279Z</time>
      </trkpt>
      <trkpt lat="41.65821" lon="26.52149">
        <ele>36.732435</ele>
        <time>2022-02-21T17:45:23.045Z</time>
      </trkpt>
      <trkpt lat="41.65855" lon="26.52074">
        <ele>36.441014</ele>
        <time>2022-02-21T17:45:39.284Z</time>
      </trkpt>
      <trkpt lat="41.65889" lon="26.52042">
        <ele>36.258851</ele>
        <time>2022-02-21T17:45:49.165Z</time>
      </trkpt>
      <trkpt lat="41.6589" lon="26.52041">
        <ele>36.251465</ele>
        <time>2022-02-21T17:45:49.486Z</time>
      </trkpt>
      <trkpt lat="41.6593" lon="26.52007">
        <ele>36.007456</ele>
        <time>2022-02-21T17:46:00.878Z</time>
      </trkpt>
      <trkpt lat="41.65953" lon="26.51987">
        <ele>35.864796</ele>
        <time>2022-02-21T17:46:07.304Z</time>
      </trkpt>
      <trkpt lat="41.65999" lon="26.51949">
        <ele>35.581642</ele>
        <time>2022-02-21T17:46:20.569Z</time>
      </trkpt>
      <trkpt lat="41.66017" lon="26.51923">
        <ele>35.440748</ele>
        <time>2022-02-21T17:46:27.280Z</time>
      </trkpt>
      <trkpt lat="41.66034" lon="26.51886">
        <ele>35.268984</ele>
        <time>2022-02-21T17:46:35.724Z</time>
      </trkpt>
      <trkpt lat="41.66063" lon="26.51828">
        <ele>35.0455</ele>
        <time>2022-02-21T17:46:48.675Z</time>
      </trkpt>
      <trkpt lat="41.66074" lon="26.51806">
        <ele>34.96118</ele>
        <time>2022-02-21T17:46:53.711Z</time>
      </trkpt>
      <trkpt lat="41.66105" lon="26.51742">
        <ele>34.715378</ele>
        <time>2022-02-21T17:47:07.773Z</time>
      </trkpt>
      <trkpt lat="41.66125" lon="26.51697">
        <ele>34.546689</ele>
        <time>2022-02-21T17:47:17.496Z</time>
      </trkpt>
      <trkpt lat="41.66134" lon="26.51676">
        <ele>34.482562</ele>
        <time>2022-02-21T17:47:21.948Z</time>
      </trkpt>
      <trkpt lat="41.66136" lon="26.51671">
        <ele>34.477818</ele>
        <time>2022-02-21T17:47:22.886Z</time>
      </trkpt>
      <trkpt lat="41.66135" lon="26.51645">
        <ele>34.457705</ele>
        <time>2022-02-21T17:47:27.822Z</time>
      </trkpt>
      <trkpt lat="41.66122" lon="26.516">
        <ele>34.419772</ele>
        <time>2022-02-21T17:47:37.034Z</time>
      </trkpt>
      <trkpt lat="41.6612" lon="26.5157">
        <ele>34.396219</ele>
        <time>2022-02-21T17:47:42.814Z</time>
      </trkpt>
      <trkpt lat="41.66128" lon="26.51523">
        <ele>34.358782</ele>
        <time>2022-02-21T17:47:52.252Z</time>
      </trkpt>
      <trkpt lat="41.66143" lon="26.51477">
        <ele>34.319552</ele>
        <time>2022-02-21T17:48:02.242Z</time>
      </trkpt>
      <trkpt lat="41.66171" lon="26.51411">
        <ele>34.405222</ele>
        <time>2022-02-21T17:48:18.240Z</time>
      </trkpt>
      <trkpt lat="41.66174" lon="26.51404">
        <ele>34.422717</ele>
        <time>2022-02-21T17:48:20.004Z</time>
      </trkpt>
      <trkpt lat="41.66187" lon="26.51373">
        <ele>34.503234</ele>
        <time>2022-02-21T17:48:27.459Z</time>
      </trkpt>
      <trkpt lat="41.66209" lon="26.51256">
        <ele>34.77114</ele>
        <time>2022-02-21T17:48:53.516Z</time>
      </trkpt>
      <trkpt lat="41.66212" lon="26.51223">
        <ele>34.834063</ele>
        <time>2022-02-21T17:49:00.512Z</time>
      </trkpt>
      <trkpt lat="41.66212" lon="26.51218">
        <ele>34.83556</ele>
        <time>2022-02-21T17:49:01.632Z</time>
      </trkpt>
      <trkpt lat="41.66211" lon="26.51192">
        <ele>34.842849</ele>
        <time>2022-02-21T17:49:06.737Z</time>
      </trkpt>
      <trkpt lat="41.66209" lon="26.51046">
        <ele>34.883677</ele>
        <time>2022-02-21T17:49:35.437Z</time>
      </trkpt>
      <trkpt lat="41.66183" lon="26.5091">
        <ele>34.878341</ele>
        <time>2022-02-21T17:50:03.414Z</time>
      </trkpt>
      <trkpt lat="41.66144" lon="26.50745">
        <ele>34.812473</ele>
        <time>2022-02-21T17:50:37.931Z</time>
      </trkpt>
      <trkpt lat="41.66141" lon="26.50737">
        <ele>34.797991</ele>
        <time>2022-02-21T17:50:39.678Z</time>
      </trkpt>
      <trkpt lat="41.66113" lon="26.50655">
        <ele>34.650182</ele>
        <time>2022-02-21T17:50:57.084Z</time>
      </trkpt>
      <trkpt lat="41.66085" lon="26.50571">
        <ele>34.50118</ele>
        <time>2022-02-21T17:51:14.380Z</time>
      </trkpt>
      <trkpt lat="41.66023" lon="26.50424">
        <ele>34.385306</ele>
        <time>2022-02-21T17:51:46.621Z</time>
      </trkpt>
      <trkpt lat="41.65947" lon="26.50276">
        <ele>34.68445</ele>
        <time>2022-02-21T17:52:23.553Z</time>
      </trkpt>
      <trkpt lat="41.65913" lon="26.50185">
        <ele>35.170721</ele>
        <time>2022-02-21T17:52:46.352Z</time>
      </trkpt>
      <trkpt lat="41.65868" lon="26.50056">
        <ele>36.165909</ele>
        <time>2022-02-21T17:53:20.160Z</time>
      </trkpt>
      <trkpt lat="41.65864" lon="26.50047">
        <ele>36.262557</ele>
        <time>2022-02-21T17:53:22.864Z</time>
      </trkpt>
      <trkpt lat="41.65829" lon="26.49941">
        <ele>37.302541</ele>
        <time>2022-02-21T17:53:52.080Z</time>
      </trkpt>
      <trkpt lat="41.65777" lon="26.4978">
        <ele>38.360418</ele>
        <time>2022-02-21T17:54:32.924Z</time>
      </trkpt>
      <trkpt lat="41.65755" lon="26.49711">
        <ele>38.757087</ele>
        <time>2022-02-21T17:54:49.226Z</time>
      </trkpt>
      <trkpt lat="41.65732" lon="26.49666">
        <ele>38.895221</ele>
        <time>2022-02-21T17:55:00.517Z</time>
      </trkpt>
      <trkpt lat="41.65596" lon="26.49452">
        <ele>38.780366</ele>
        <time>2022-02-21T17:55:55.020Z</time>
      </trkpt>
      <trkpt lat="41.6553" lon="26.49289">
        <ele>38.823919</ele>
        <time>2022-02-21T17:56:31.947Z</time>
      </trkpt>
      <trkpt lat="41.65467" lon="26.49112">
        <ele>39.455571</ele>
        <time>2022-02-21T17:57:14.179Z</time>
      </trkpt>
      <trkpt lat="41.65456" lon="26.49083">
        <ele>39.560768</ele>
        <time>2022-02-21T17:57:21.435Z</time>
      </trkpt>
      <trkpt lat="41.65451" lon="26.49071">
        <ele>39.580998</ele>
        <time>2022-02-21T17:57:24.708Z</time>
      </trkpt>
      <trkpt lat="41.65434" lon="26.49029">
        <ele>39.635652</ele>
        <time>2022-02-21T17:57:35.446Z</time>
      </trkpt>
      <trkpt lat="41.65426" lon="26.49006">
        <ele>39.664539</ele>
        <time>2022-02-21T17:57:40.814Z</time>
      </trkpt>
      <trkpt lat="41.65421" lon="26.48991">
        <ele>39.683345</ele>
        <time>2022-02-21T17:57:44.376Z</time>
      </trkpt>
      <trkpt lat="41.65408" lon="26.48945">
        <ele>39.738837</ele>
        <time>2022-02-21T17:57:54.253Z</time>
      </trkpt>
      <trkpt lat="41.65384" lon="26.48865">
        <ele>39.837318</ele>
        <time>2022-02-21T17:58:11.134Z</time>
      </trkpt>
      <trkpt lat="41.65366" lon="26.4881">
        <ele>39.601471</ele>
        <time>2022-02-21T17:58:22.109Z</time>
      </trkpt>
      <trkpt lat="41.65357" lon="26.48784">
        <ele>39.473993</ele>
        <time>2022-02-21T17:58:27.603Z</time>
      </trkpt>
      <trkpt lat="41.65348" lon="26.48761">
        <ele>39.362173</ele>
        <time>2022-02-21T17:58:32.071Z</time>
      </trkpt>
      <trkpt lat="41.65334" lon="26.48733">
        <ele>39.217543</ele>
        <time>2022-02-21T17:58:38.173Z</time>
      </trkpt>
      <trkpt lat="41.65322" lon="26.48712">
        <ele>39.104532</ele>
        <time>2022-02-21T17:58:42.818Z</time>
      </trkpt>
      <trkpt lat="41.65309" lon="26.48693">
        <ele>38.99147</ele>
        <time>2022-02-21T17:58:47.440Z</time>
      </trkpt>
      <trkpt lat="41.653" lon="26.4868">
        <ele>38.916715</ele>
        <time>2022-02-21T17:58:50.460Z</time>
      </trkpt>
      <trkpt lat="41.65255" lon="26.48621">
        <ele>38.591413</ele>
        <time>2022-02-21T17:59:05.809Z</time>
      </trkpt>
      <trkpt lat="41.65201" lon="26.48551">
        <ele>38.228163</ele>
        <time>2022-02-21T17:59:24.325Z</time>
      </trkpt>
      <trkpt lat="41.65161" lon="26.48497">
        <ele>37.953019</ele>
        <time>2022-02-21T17:59:38.801Z</time>
      </trkpt>
      <trkpt lat="41.65138" lon="26.48464">
        <ele>37.956458</ele>
        <time>2022-02-21T17:59:47.151Z</time>
      </trkpt>
      <trkpt lat="41.65047" lon="26.48322">
        <ele>38.071118</ele>
        <time>2022-02-21T18:00:24.253Z</time>
      </trkpt>
      <trkpt lat="41.64993" lon="26.4824">
        <ele>38.7932</ele>
        <time>2022-02-21T18:00:50.142Z</time>
      </trkpt>
      <trkpt lat="41.64982" lon="26.48223">
        <ele>38.955925</ele>
        <time>2022-02-21T18:00:55.607Z</time>
      </trkpt>
      <trkpt lat="41.6498" lon="26.4822">
        <ele>38.991469</ele>
        <time>2022-02-21T18:00:56.705Z</time>
      </trkpt>
      <trkpt lat="41.64976" lon="26.48213">
        <ele>39.057098</ele>
        <time>2022-02-21T18:00:58.745Z</time>
      </trkpt>
      <trkpt lat="41.64978" lon="26.482">
        <ele>39.153762</ele>
        <time>2022-02-21T18:01:01.751Z</time>
      </trkpt>
      <trkpt lat="41.64977" lon="26.48192">
        <ele>39.216178</ele>
        <time>2022-02-21T18:01:03.835Z</time>
      </trkpt>
      <trkpt lat="41.6496" lon="26.48158">
        <ele>39.525264</ele>
        <time>2022-02-21T18:01:13.778Z</time>
      </trkpt>
      <trkpt lat="41.64971" lon="26.48148">
        <ele>39.665091</ele>
        <time>2022-02-21T18:01:18.520Z</time>
      </trkpt>
      <trkpt lat="41.6496" lon="26.48124">
        <ele>39.882032</ele>
        <time>2022-02-21T18:01:25.322Z</time>
      </trkpt>
      <trkpt lat="41.64949" lon="26.48084">
        <ele>40.08453</ele>
        <time>2022-02-21T18:01:35.729Z</time>
      </trkpt>
      <trkpt lat="41.64911" lon="26.47966">
        <ele>40.691775</ele>
        <time>2022-02-21T18:02:05.084Z</time>
      </trkpt>
      <trkpt lat="41.64899" lon="26.47907">
        <ele>40.978666</ele>
        <time>2022-02-21T18:02:17.660Z</time>
      </trkpt>
      <trkpt lat="41.64897" lon="26.47875">
        <ele>40.864174</ele>
        <time>2022-02-21T18:02:24.071Z</time>
      </trkpt>
      <trkpt lat="41.64896" lon="26.47857">
        <ele>40.731898</ele>
        <time>2022-02-21T18:02:27.426Z</time>
      </trkpt>
      <trkpt lat="41.64894" lon="26.47813">
        <ele>40.421129</ele>
        <time>2022-02-21T18:02:35.289Z</time>
      </trkpt>
      <trkpt lat="41.64876" lon="26.47742">
        <ele>39.881679</ele>
        <time>2022-02-21T18:02:48.148Z</time>
      </trkpt>
      <trkpt lat="41.64871" lon="26.47732">
        <ele>39.799677</ele>
        <time>2022-02-21T18:02:50.044Z</time>
      </trkpt>
      <trkpt lat="41.64868" lon="26.47727">
        <ele>39.751576</ele>
        <time>2022-02-21T18:02:51.176Z</time>
      </trkpt>
      <trkpt lat="41.64879" lon="26.47718">
        <ele>39.629234</ele>
        <time>2022-02-21T18:02:53.953Z</time>
      </trkpt>
      <trkpt lat="41.64908" lon="26.47693">
        <ele>39.296672</ele>
        <time>2022-02-21T18:03:01.574Z</time>
      </trkpt>
      <trkpt lat="41.64924" lon="26.47676">
        <ele>39.102205</ele>
        <time>2022-02-21T18:03:05.924Z</time>
      </trkpt>
      <trkpt lat="41.64951" lon="26.47652">
        <ele>38.786059</ele>
        <time>2022-02-21T18:03:13.028Z</time>
      </trkpt>
      <trkpt lat="41.65002" lon="26.47613">
        <ele>38.205757</ele>
        <time>2022-02-21T18:03:26.369Z</time>
      </trkpt>
      <trkpt lat="41.65037" lon="26.47583">
        <ele>37.793021</ele>
        <time>2022-02-21T18:03:36.242Z</time>
      </trkpt>
      <trkpt lat="41.65061" lon="26.47558">
        <ele>37.537135</ele>
        <time>2022-02-21T18:03:43.751Z</time>
      </trkpt>
      <trkpt lat="41.65066" lon="26.4755">
        <ele>37.543011</ele>
        <time>2022-02-21T18:03:45.728Z</time>
      </trkpt>
      <trkpt lat="41.65067" lon="26.47534">
        <ele>37.551715</ele>
        <time>2022-02-21T18:03:49.112Z</time>
      </trkpt>
      <trkpt lat="41.65078" lon="26.474">
        <ele>37.624687</ele>
        <time>2022-02-21T18:04:18.203Z</time>
      </trkpt>
      <trkpt lat="41.65087" lon="26.47255">
        <ele>37.488944</ele>
        <time>2022-02-21T18:04:46.396Z</time>
      </trkpt>
      <trkpt lat="41.65101" lon="26.47257">
        <ele>37.443883</ele>
        <time>2022-02-21T18:04:49.601Z</time>
      </trkpt>
      <trkpt lat="41.65116" lon="26.47261">
        <ele>37.39254</ele>
        <time>2022-02-21T18:04:53.668Z</time>
      </trkpt>
      <trkpt lat="41.65158" lon="26.47272">
        <ele>37.251684</ele>
        <time>2022-02-21T18:05:04.036Z</time>
      </trkpt>
      <trkpt lat="41.65168" lon="26.47275">
        <ele>37.21904</ele>
        <time>2022-02-21T18:05:06.282Z</time>
      </trkpt>
      <trkpt lat="41.65198" lon="26.47283">
        <ele>37.118435</ele>
        <time>2022-02-21T18:05:13.765Z</time>
      </trkpt>
      <trkpt lat="41.65401" lon="26.47336">
        <ele>37.635512</ele>
        <time>2022-02-21T18:06:10.986Z</time>
      </trkpt>
      <trkpt lat="41.65472" lon="26.47346">
        <ele>38.377041</ele>
        <time>2022-02-21T18:06:35.071Z</time>
      </trkpt>
      <trkpt lat="41.65508" lon="26.47345">
        <ele>38.753181</ele>
        <time>2022-02-21T18:06:47.073Z</time>
      </trkpt>
      <trkpt lat="41.65547" lon="26.4733">
        <ele>39.179935</ele>
        <time>2022-02-21T18:07:00.296Z</time>
      </trkpt>
      <trkpt lat="41.65616" lon="26.47288">
        <ele>39.363675</ele>
        <time>2022-02-21T18:07:23.085Z</time>
      </trkpt>
      <trkpt lat="41.65783" lon="26.47206">
        <ele>39.259008</ele>
        <time>2022-02-21T18:08:07.191Z</time>
      </trkpt>
      <trkpt lat="41.65795" lon="26.47201">
        <ele>39.238007</ele>
        <time>2022-02-21T18:08:10.320Z</time>
      </trkpt>
      <trkpt lat="41.65809" lon="26.47199">
        <ele>39.216019</ele>
        <time>2022-02-21T18:08:13.781Z</time>
      </trkpt>
      <trkpt lat="41.65883" lon="26.47229">
        <ele>39.091974</ele>
        <time>2022-02-21T18:08:34.361Z</time>
      </trkpt>
      <trkpt lat="41.65999" lon="26.472">
        <ele>38.818162</ele>
        <time>2022-02-21T18:09:06.848Z</time>
      </trkpt>
      <trkpt lat="41.66057" lon="26.47185">
        <ele>38.670689</ele>
        <time>2022-02-21T18:09:21.887Z</time>
      </trkpt>
      <trkpt lat="41.66116" lon="26.47166">
        <ele>38.145941</ele>
        <time>2022-02-21T18:09:35.715Z</time>
      </trkpt>
      <trkpt lat="41.66197" lon="26.47146">
        <ele>37.102505</ele>
        <time>2022-02-21T18:09:54.182Z</time>
      </trkpt>
      <trkpt lat="41.66236" lon="26.47132">
        <ele>36.59557</ele>
        <time>2022-02-21T18:10:02.754Z</time>
      </trkpt>
      <trkpt lat="41.66284" lon="26.4712">
        <ele>36.106855</ele>
        <time>2022-02-21T18:10:13.835Z</time>
      </trkpt>
      <trkpt lat="41.66324" lon="26.47114">
        <ele>35.780146</ele>
        <time>2022-02-21T18:10:23.276Z</time>
      </trkpt>
      <trkpt lat="41.66353" lon="26.47134">
        <ele>35.520187</ele>
        <time>2022-02-21T18:10:30.937Z</time>
      </trkpt>
      <trkpt lat="41.66384" lon="26.47129">
        <ele>35.271356</ele>
        <time>2022-02-21T18:10:38.480Z</time>
      </trkpt>
      <trkpt lat="41.66451" lon="26.4711">
        <ele>34.909137</ele>
        <time>2022-02-21T18:10:55.759Z</time>
      </trkpt>
      <trkpt lat="41.66498" lon="26.47098">
        <ele>34.939592</ele>
        <time>2022-02-21T18:11:08.077Z</time>
      </trkpt>
      <trkpt lat="41.66605" lon="26.47067">
        <ele>35.008643</ele>
        <time>2022-02-21T18:11:37.243Z</time>
      </trkpt>
      <trkpt lat="41.66617" lon="26.4707">
        <ele>35.219238</ele>
        <time>2022-02-21T18:11:41.192Z</time>
      </trkpt>
      <trkpt lat="41.66644" lon="26.47144">
        <ele>36.331911</ele>
        <time>2022-02-21T18:12:02.069Z</time>
      </trkpt>
      <trkpt lat="41.66668" lon="26.47151">
        <ele>36.779764</ele>
        <time>2022-02-21T18:12:11.666Z</time>
      </trkpt>
      <trkpt lat="41.66679" lon="26.47149">
        <ele>36.986327</ele>
        <time>2022-02-21T18:12:15.623Z</time>
      </trkpt>
      <trkpt lat="41.66693" lon="26.47149">
        <ele>37.228018</ele>
        <time>2022-02-21T18:12:20.437Z</time>
      </trkpt>
      <trkpt lat="41.66714" lon="26.47155">
        <ele>37.633581</ele>
        <time>2022-02-21T18:12:29.012Z</time>
      </trkpt>
      <trkpt lat="41.66721" lon="26.47157">
        <ele>37.760097</ele>
        <time>2022-02-21T18:12:31.509Z</time>
      </trkpt>
      <trkpt lat="41.66727" lon="26.47165">
        <ele>37.91303</ele>
        <time>2022-02-21T18:12:34.542Z</time>
      </trkpt>
      <trkpt lat="41.66734" lon="26.47163">
        <ele>38.039263</ele>
        <time>2022-02-21T18:12:37.924Z</time>
      </trkpt>
      <trkpt lat="41.66775" lon="26.47149">
        <ele>38.923475</ele>
        <time>2022-02-21T18:12:53.847Z</time>
      </trkpt>
      <trkpt lat="41.66822" lon="26.47136">
        <ele>40.00297</ele>
        <time>2022-02-21T18:13:12.309Z</time>
      </trkpt>
      <trkpt lat="41.66822" lon="26.47132">
        <ele>40.066693</ele>
        <time>2022-02-21T18:13:13.239Z</time>
      </trkpt>
      <trkpt lat="41.66821" lon="26.47096">
        <ele>40.670028</ele>
        <time>2022-02-21T18:13:23.858Z</time>
      </trkpt>
      <trkpt lat="41.66821" lon="26.47085">
        <ele>40.853579</ele>
        <time>2022-02-21T18:13:26.819Z</time>
      </trkpt>
      <trkpt lat="41.66857" lon="26.4706">
        <ele>41.776164</ele>
        <time>2022-02-21T18:13:42.740Z</time>
      </trkpt>
      <trkpt lat="41.66877" lon="26.47035">
        <ele>42.366214</ele>
        <time>2022-02-21T18:13:52.808Z</time>
      </trkpt>
      <trkpt lat="41.66888" lon="26.47021">
        <ele>42.609216</ele>
        <time>2022-02-21T18:13:57.960Z</time>
      </trkpt>
      <trkpt lat="41.66872" lon="26.46874">
        <ele>44.373376</ele>
        <time>2022-02-21T18:14:36.871Z</time>
      </trkpt>
      <trkpt lat="41.66871" lon="26.46683">
        <ele>45.965783</ele>
        <time>2022-02-21T18:15:27.085Z</time>
      </trkpt>
      <trkpt lat="41.66908" lon="26.46375">
        <ele>46.604517</ele>
        <time>2022-02-21T18:16:33.477Z</time>
      </trkpt>
      <trkpt lat="41.66909" lon="26.46366">
        <ele>46.599435</ele>
        <time>2022-02-21T18:16:34.980Z</time>
      </trkpt>
      <trkpt lat="41.66924" lon="26.46238">
        <ele>46.395385</ele>
        <time>2022-02-21T18:16:59.455Z</time>
      </trkpt>
      <trkpt lat="41.66924" lon="26.46236">
        <ele>46.390783</ele>
        <time>2022-02-21T18:16:59.778Z</time>
      </trkpt>
      <trkpt lat="41.66964" lon="26.45917">
        <ele>45.996167</ele>
        <time>2022-02-21T18:18:06.772Z</time>
      </trkpt>
      <trkpt lat="41.67009" lon="26.45624">
        <ele>45.444047</ele>
        <time>2022-02-21T18:19:06.699Z</time>
      </trkpt>
      <trkpt lat="41.67038" lon="26.45496">
        <ele>44.983245</ele>
        <time>2022-02-21T18:19:32.282Z</time>
      </trkpt>
      <trkpt lat="41.6707" lon="26.45403">
        <ele>44.627693</ele>
        <time>2022-02-21T18:19:51.744Z</time>
      </trkpt>
      <trkpt lat="41.67348" lon="26.44741">
        <ele>42.516268</ele>
        <time>2022-02-21T18:22:19.951Z</time>
      </trkpt>
      <trkpt lat="41.67474" lon="26.44448">
        <ele>43.175506</ele>
        <time>2022-02-21T18:23:33.768Z</time>
      </trkpt>
      <trkpt lat="41.67487" lon="26.44418">
        <ele>43.278232</ele>
        <time>2022-02-21T18:23:41.813Z</time>
      </trkpt>
      <trkpt lat="41.67508" lon="26.44365">
        <ele>43.456706</ele>
        <time>2022-02-21T18:23:56.157Z</time>
      </trkpt>
      <trkpt lat="41.67588" lon="26.44209">
        <ele>43.517223</ele>
        <time>2022-02-21T18:24:36.231Z</time>
      </trkpt>
      <trkpt lat="41.67611" lon="26.44177">
        <ele>43.516059</ele>
        <time>2022-02-21T18:24:45.031Z</time>
      </trkpt>
      <trkpt lat="41.67653" lon="26.44117">
        <ele>43.343072</ele>
        <time>2022-02-21T18:25:00.640Z</time>
      </trkpt>
      <trkpt lat="41.67815" lon="26.43914">
        <ele>42.9865</ele>
        <time>2022-02-21T18:25:58.425Z</time>
      </trkpt>
      <trkpt lat="41.67892" lon="26.43783">
        <ele>43.590295</ele>
        <time>2022-02-21T18:26:38.062Z</time>
      </trkpt>
      <trkpt lat="41.67915" lon="26.4373">
        <ele>44.097309</ele>
        <time>2022-02-21T18:26:53.355Z</time>
      </trkpt>
      <trkpt lat="41.67923" lon="26.43659">
        <ele>44.698194</ele>
        <time>2022-02-21T18:27:11.548Z</time>
      </trkpt>
      <trkpt lat="41.67936" lon="26.43458">
        <ele>46.26646</ele>
        <time>2022-02-21T18:28:01.549Z</time>
      </trkpt>
      <trkpt lat="41.67984" lon="26.4303">
        <ele>49.082746</ele>
        <time>2022-02-21T18:29:44.574Z</time>
      </trkpt>
      <trkpt lat="41.67995" lon="26.4297">
        <ele>49.452331</ele>
        <time>2022-02-21T18:29:59.034Z</time>
      </trkpt>
      <trkpt lat="41.6803" lon="26.42857">
        <ele>50.181297</ele>
        <time>2022-02-21T18:30:27.904Z</time>
      </trkpt>
      <trkpt lat="41.68043" lon="26.42777">
        <ele>50.638128</ele>
        <time>2022-02-21T18:30:47.064Z</time>
      </trkpt>
      <trkpt lat="41.68062" lon="26.42559">
        <ele>51.724929</ele>
        <time>2022-02-21T18:31:38.687Z</time>
      </trkpt>
      <trkpt lat="41.68088" lon="26.421">
        <ele>52.681491</ele>
        <time>2022-02-21T18:33:20.670Z</time>
      </trkpt>
      <trkpt lat="41.68119" lon="26.41897">
        <ele>51.758563</ele>
        <time>2022-02-21T18:33:58.176Z</time>
      </trkpt>
      <trkpt lat="41.68125" lon="26.4185">
        <ele>51.519175</ele>
        <time>2022-02-21T18:34:06.719Z</time>
      </trkpt>
      <trkpt lat="41.68141" lon="26.41784">
        <ele>51.167975</ele>
        <time>2022-02-21T18:34:19.808Z</time>
      </trkpt>
      <trkpt lat="41.6822" lon="26.41343">
        <ele>49.716925</ele>
        <time>2022-02-21T18:35:47.878Z</time>
      </trkpt>
      <trkpt lat="41.68264" lon="26.41012">
        <ele>49.474328</ele>
        <time>2022-02-21T18:36:57.996Z</time>
      </trkpt>
      <trkpt lat="41.68271" lon="26.40962">
        <ele>49.353923</ele>
        <time>2022-02-21T18:37:08.128Z</time>
      </trkpt>
      <trkpt lat="41.68275" lon="26.40938">
        <ele>49.239139</ele>
        <time>2022-02-21T18:37:12.939Z</time>
      </trkpt>
      <trkpt lat="41.68274" lon="26.40929">
        <ele>49.19538</ele>
        <time>2022-02-21T18:37:14.795Z</time>
      </trkpt>
      <trkpt lat="41.68278" lon="26.40907">
        <ele>49.08601</ele>
        <time>2022-02-21T18:37:19.162Z</time>
      </trkpt>
      <trkpt lat="41.68311" lon="26.40676">
        <ele>47.609995</ele>
        <time>2022-02-21T18:38:02.502Z</time>
      </trkpt>
      <trkpt lat="41.68341" lon="26.40529">
        <ele>46.145788</ele>
        <time>2022-02-21T18:38:28.923Z</time>
      </trkpt>
      <trkpt lat="41.6838" lon="26.40388">
        <ele>44.838614</ele>
        <time>2022-02-21T18:38:54.649Z</time>
      </trkpt>
      <trkpt lat="41.68452" lon="26.4022">
        <ele>44.217887</ele>
        <time>2022-02-21T18:39:31.019Z</time>
      </trkpt>
      <trkpt lat="41.68478" lon="26.40154">
        <ele>44.454166</ele>
        <time>2022-02-21T18:39:48.517Z</time>
      </trkpt>
      <trkpt lat="41.68531" lon="26.40032">
        <ele>45.22218</ele>
        <time>2022-02-21T18:40:24.778Z</time>
      </trkpt>
      <trkpt lat="41.68563" lon="26.3996">
        <ele>45.905292</ele>
        <time>2022-02-21T18:40:46.915Z</time>
      </trkpt>
      <trkpt lat="41.68722" lon="26.39577">
        <ele>47.928831</ele>
        <time>2022-02-21T18:42:26.524Z</time>
      </trkpt>
      <trkpt lat="41.68753" lon="26.395">
        <ele>48.145057</ele>
        <time>2022-02-21T18:42:44.691Z</time>
      </trkpt>
      <trkpt lat="41.68758" lon="26.39487">
        <ele>48.18119</ele>
        <time>2022-02-21T18:42:47.544Z</time>
      </trkpt>
      <trkpt lat="41.68779" lon="26.3942">
        <ele>48.533495</ele>
        <time>2022-02-21T18:43:03.945Z</time>
      </trkpt>
      <trkpt lat="41.68806" lon="26.39348">
        <ele>49.086304</ele>
        <time>2022-02-21T18:43:22.523Z</time>
      </trkpt>
      <trkpt lat="41.68821" lon="26.39292">
        <ele>49.500878</ele>
        <time>2022-02-21T18:43:37.043Z</time>
      </trkpt>
      <trkpt lat="41.68831" lon="26.39214">
        <ele>50.050715</ele>
        <time>2022-02-21T18:43:57.900Z</time>
      </trkpt>
      <trkpt lat="41.6885" lon="26.3912">
        <ele>50.749113</ele>
        <time>2022-02-21T18:44:23.391Z</time>
      </trkpt>
      <trkpt lat="41.68888" lon="26.38946">
        <ele>51.432526</ele>
        <time>2022-02-21T18:45:04.789Z</time>
      </trkpt>
      <trkpt lat="41.69073" lon="26.38443">
        <ele>49.025402</ele>
        <time>2022-02-21T18:46:49.102Z</time>
      </trkpt>
      <trkpt lat="41.69092" lon="26.38392">
        <ele>48.799879</ele>
        <time>2022-02-21T18:46:59.732Z</time>
      </trkpt>
      <trkpt lat="41.69192" lon="26.38129">
        <ele>48.779402</ele>
        <time>2022-02-21T18:48:01.732Z</time>
      </trkpt>
      <trkpt lat="41.69201" lon="26.38102">
        <ele>48.873623</ele>
        <time>2022-02-21T18:48:08.501Z</time>
      </trkpt>
      <trkpt lat="41.69223" lon="26.3804">
        <ele>49.086616</ele>
        <time>2022-02-21T18:48:23.529Z</time>
      </trkpt>
      <trkpt lat="41.69259" lon="26.37949">
        <ele>49.409101</ele>
        <time>2022-02-21T18:48:47.461Z</time>
      </trkpt>
      <trkpt lat="41.69286" lon="26.37873">
        <ele>49.559432</ele>
        <time>2022-02-21T18:49:06.232Z</time>
      </trkpt>
      <trkpt lat="41.69307" lon="26.37808">
        <ele>49.610473</ele>
        <time>2022-02-21T18:49:20.592Z</time>
      </trkpt>
      <trkpt lat="41.6931" lon="26.37795">
        <ele>49.620251</ele>
        <time>2022-02-21T18:49:23.431Z</time>
      </trkpt>
      <trkpt lat="41.69312" lon="26.37785">
        <ele>49.62804</ele>
        <time>2022-02-21T18:49:25.570Z</time>
      </trkpt>
      <trkpt lat="41.69316" lon="26.37776">
        <ele>49.635198</ele>
        <time>2022-02-21T18:49:27.704Z</time>
      </trkpt>
      <trkpt lat="41.69322" lon="26.37767">
        <ele>49.644513</ele>
        <time>2022-02-21T18:49:30.228Z</time>
      </trkpt>
      <trkpt lat="41.69329" lon="26.37753">
        <ele>49.656078</ele>
        <time>2022-02-21T18:49:33.633Z</time>
      </trkpt>
      <trkpt lat="41.6935" lon="26.37697">
        <ele>49.694526</ele>
        <time>2022-02-21T18:49:46.864Z</time>
      </trkpt>
      <trkpt lat="41.69385" lon="26.37606">
        <ele>49.584183</ele>
        <time>2022-02-21T18:50:07.897Z</time>
      </trkpt>
      <trkpt lat="41.6941" lon="26.37535">
        <ele>49.4979</ele>
        <time>2022-02-21T18:50:23.727Z</time>
      </trkpt>
      <trkpt lat="41.69514" lon="26.37263">
        <ele>49.04771</ele>
        <time>2022-02-21T18:51:25.250Z</time>
      </trkpt>
      <trkpt lat="41.69572" lon="26.37144">
        <ele>48.63693</ele>
        <time>2022-02-21T18:51:52.847Z</time>
      </trkpt>
      <trkpt lat="41.69636" lon="26.37038">
        <ele>48.240563</ele>
        <time>2022-02-21T18:52:19.075Z</time>
      </trkpt>
      <trkpt lat="41.69713" lon="26.36938">
        <ele>47.811057</ele>
        <time>2022-02-21T18:52:47.123Z</time>
      </trkpt>
      <trkpt lat="41.70208" lon="26.36382">
        <ele>45.596085</ele>
        <time>2022-02-21T18:55:36.714Z</time>
      </trkpt>
      <trkpt lat="41.70318" lon="26.36246">
        <ele>45.520063</ele>
        <time>2022-02-21T18:56:19.037Z</time>
      </trkpt>
      <trkpt lat="41.70336" lon="26.36214">
        <ele>45.541568</ele>
        <time>2022-02-21T18:56:27.630Z</time>
      </trkpt>
      <trkpt lat="41.7037" lon="26.36167">
        <ele>45.576236</ele>
        <time>2022-02-21T18:56:41.472Z</time>
      </trkpt>
      <trkpt lat="41.70695" lon="26.35611">
        <ele>45.150124</ele>
        <time>2022-02-21T18:59:05.423Z</time>
      </trkpt>
      <trkpt lat="41.70747" lon="26.35496">
        <ele>45.06714</ele>
        <time>2022-02-21T18:59:33.475Z</time>
      </trkpt>
      <trkpt lat="41.70773" lon="26.3542">
        <ele>44.983358</ele>
        <time>2022-02-21T18:59:50.658Z</time>
      </trkpt>
      <trkpt lat="41.70792" lon="26.35348">
        <ele>44.906794</ele>
        <time>2022-02-21T19:00:05.926Z</time>
      </trkpt>
      <trkpt lat="41.70846" lon="26.35134">
        <ele>44.489673</ele>
        <time>2022-02-21T19:00:50.319Z</time>
      </trkpt>
      <trkpt lat="41.70866" lon="26.35052">
        <ele>44.367547</ele>
        <time>2022-02-21T19:01:07.808Z</time>
      </trkpt>
      <trkpt lat="41.70883" lon="26.34974">
        <ele>44.389212</ele>
        <time>2022-02-21T19:01:24.525Z</time>
      </trkpt>
      <trkpt lat="41.70959" lon="26.34665">
        <ele>44.858059</ele>
        <time>2022-02-21T19:02:33.624Z</time>
      </trkpt>
      <trkpt lat="41.70987" lon="26.34526">
        <ele>45.657983</ele>
        <time>2022-02-21T19:03:08.052Z</time>
      </trkpt>
      <trkpt lat="41.70995" lon="26.34474">
        <ele>46.049236</ele>
        <time>2022-02-21T19:03:21.071Z</time>
      </trkpt>
      <trkpt lat="41.71005" lon="26.34392">
        <ele>46.654638</ele>
        <time>2022-02-21T19:03:41.684Z</time>
      </trkpt>
      <trkpt lat="41.71011" lon="26.34292">
        <ele>47.017277</ele>
        <time>2022-02-21T19:04:06.304Z</time>
      </trkpt>
      <trkpt lat="41.71009" lon="26.34237">
        <ele>47.187376</ele>
        <time>2022-02-21T19:04:18.727Z</time>
      </trkpt>
      <trkpt lat="41.71008" lon="26.34189">
        <ele>47.333807</ele>
        <time>2022-02-21T19:04:28.972Z</time>
      </trkpt>
      <trkpt lat="41.71001" lon="26.33813">
        <ele>46.539583</ele>
        <time>2022-02-21T19:05:41.840Z</time>
      </trkpt>
      <trkpt lat="41.70997" lon="26.33739">
        <ele>46.335411</ele>
        <time>2022-02-21T19:05:56.319Z</time>
      </trkpt>
      <trkpt lat="41.70979" lon="26.33621">
        <ele>46.005937</ele>
        <time>2022-02-21T19:06:20.284Z</time>
      </trkpt>
      <trkpt lat="41.70963" lon="26.33561">
        <ele>45.831027</ele>
        <time>2022-02-21T19:06:33.162Z</time>
      </trkpt>
      <trkpt lat="41.70953" lon="26.33529">
        <ele>45.737471</ele>
        <time>2022-02-21T19:06:40.087Z</time>
      </trkpt>
      <trkpt lat="41.70932" lon="26.33445">
        <ele>45.499175</ele>
        <time>2022-02-21T19:06:56.993Z</time>
      </trkpt>
      <trkpt lat="41.70914" lon="26.33326">
        <ele>45.101228</ele>
        <time>2022-02-21T19:07:19.964Z</time>
      </trkpt>
      <trkpt lat="41.70907" lon="26.33275">
        <ele>44.928716</ele>
        <time>2022-02-21T19:07:29.841Z</time>
      </trkpt>
      <trkpt lat="41.70899" lon="26.33204">
        <ele>44.68993</ele>
        <time>2022-02-21T19:07:43.847Z</time>
      </trkpt>
      <trkpt lat="41.70892" lon="26.32939">
        <ele>45.114486</ele>
        <time>2022-02-21T19:08:41.496Z</time>
      </trkpt>
      <trkpt lat="41.70872" lon="26.32642">
        <ele>45.907051</ele>
        <time>2022-02-21T19:09:47.096Z</time>
      </trkpt>
      <trkpt lat="41.70866" lon="26.32572">
        <ele>46.112536</ele>
        <time>2022-02-21T19:10:02.396Z</time>
      </trkpt>
      <trkpt lat="41.70857" lon="26.32504">
        <ele>46.311581</ele>
        <time>2022-02-21T19:10:17.094Z</time>
      </trkpt>
      <trkpt lat="41.7085" lon="26.32466">
        <ele>46.493631</ele>
        <time>2022-02-21T19:10:25.462Z</time>
      </trkpt>
      <trkpt lat="41.70843" lon="26.32431">
        <ele>46.909935</ele>
        <time>2022-02-21T19:10:33.658Z</time>
      </trkpt>
      <trkpt lat="41.70833" lon="26.32389">
        <ele>47.415618</ele>
        <time>2022-02-21T19:10:44.068Z</time>
      </trkpt>
      <trkpt lat="41.70815" lon="26.32315">
        <ele>48.302721</ele>
        <time>2022-02-21T19:11:03.891Z</time>
      </trkpt>
      <trkpt lat="41.70798" lon="26.32274">
        <ele>48.840458</ele>
        <time>2022-02-21T19:11:16.813Z</time>
      </trkpt>
      <trkpt lat="41.70776" lon="26.32243">
        <ele>49.452263</ele>
        <time>2022-02-21T19:11:29.148Z</time>
      </trkpt>
      <trkpt lat="41.70683" lon="26.32167">
        <ele>52.313953</ele>
        <time>2022-02-21T19:12:13.264Z</time>
      </trkpt>
      <trkpt lat="41.70619" lon="26.32058">
        <ele>54.469508</ele>
        <time>2022-02-21T19:12:53.755Z</time>
      </trkpt>
      <trkpt lat="41.70604" lon="26.31995">
        <ele>55.125524</ele>
        <time>2022-02-21T19:13:10.127Z</time>
      </trkpt>
      <trkpt lat="41.70602" lon="26.3198">
        <ele>55.28335</ele>
        <time>2022-02-21T19:13:14.492Z</time>
      </trkpt>
      <trkpt lat="41.706" lon="26.3195">
        <ele>55.583568</ele>
        <time>2022-02-21T19:13:20.975Z</time>
      </trkpt>
      <trkpt lat="41.70583" lon="26.31859">
        <ele>56.227067</ele>
        <time>2022-02-21T19:13:41.303Z</time>
      </trkpt>
      <trkpt lat="41.7058" lon="26.31841">
        <ele>56.177961</ele>
        <time>2022-02-21T19:13:45.351Z</time>
      </trkpt>
      <trkpt lat="41.70557" lon="26.31695">
        <ele>55.77824</ele>
        <time>2022-02-21T19:14:12.416Z</time>
      </trkpt>
      <trkpt lat="41.70545" lon="26.31577">
        <ele>55.285683</ele>
        <time>2022-02-21T19:14:33.971Z</time>
      </trkpt>
      <trkpt lat="41.70542" lon="26.31438">
        <ele>54.55868</ele>
        <time>2022-02-21T19:14:59.044Z</time>
      </trkpt>
      <trkpt lat="41.70545" lon="26.31304">
        <ele>53.742166</ele>
        <time>2022-02-21T19:15:22.507Z</time>
      </trkpt>
      <trkpt lat="41.70556" lon="26.31168">
        <ele>52.867116</ele>
        <time>2022-02-21T19:15:46.370Z</time>
      </trkpt>
      <trkpt lat="41.70563" lon="26.31139">
        <ele>52.798716</ele>
        <time>2022-02-21T19:15:51.624Z</time>
      </trkpt>
      <trkpt lat="41.70563" lon="26.31136">
        <ele>52.792622</ele>
        <time>2022-02-21T19:15:52.149Z</time>
      </trkpt>
      <trkpt lat="41.70591" lon="26.31048">
        <ele>52.606163</ele>
        <time>2022-02-21T19:16:09.734Z</time>
      </trkpt>
      <trkpt lat="41.7061" lon="26.3099">
        <ele>52.484958</ele>
        <time>2022-02-21T19:16:21.923Z</time>
      </trkpt>
      <trkpt lat="41.70614" lon="26.3098">
        <ele>52.46238</ele>
        <time>2022-02-21T19:16:24.073Z</time>
      </trkpt>
      <trkpt lat="41.70617" lon="26.3097">
        <ele>52.4409</ele>
        <time>2022-02-21T19:16:26.441Z</time>
      </trkpt>
      <trkpt lat="41.70647" lon="26.30885">
        <ele>52.841774</ele>
        <time>2022-02-21T19:16:47.523Z</time>
      </trkpt>
      <trkpt lat="41.70664" lon="26.30833">
        <ele>53.247481</ele>
        <time>2022-02-21T19:17:01.240Z</time>
      </trkpt>
      <trkpt lat="41.70676" lon="26.30797">
        <ele>53.523884</ele>
        <time>2022-02-21T19:17:10.662Z</time>
      </trkpt>
      <trkpt lat="41.70679" lon="26.30785">
        <ele>53.611878</ele>
        <time>2022-02-21T19:17:13.854Z</time>
      </trkpt>
      <trkpt lat="41.70683" lon="26.30766">
        <ele>53.750125</ele>
        <time>2022-02-21T19:17:18.750Z</time>
      </trkpt>
      <trkpt lat="41.70689" lon="26.30678">
        <ele>54.066373</ele>
        <time>2022-02-21T19:17:39.531Z</time>
      </trkpt>
      <trkpt lat="41.70687" lon="26.30589">
        <ele>54.021789</ele>
        <time>2022-02-21T19:17:59.214Z</time>
      </trkpt>
      <trkpt lat="41.70637" lon="26.30221">
        <ele>51.978114</ele>
        <time>2022-02-21T19:19:03.564Z</time>
      </trkpt>
      <trkpt lat="41.70633" lon="26.30199">
        <ele>51.875151</ele>
        <time>2022-02-21T19:19:07.106Z</time>
      </trkpt>
      <trkpt lat="41.70626" lon="26.30136">
        <ele>51.584119</ele>
        <time>2022-02-21T19:19:18.218Z</time>
      </trkpt>
      <trkpt lat="41.7061" lon="26.3008">
        <ele>51.314407</ele>
        <time>2022-02-21T19:19:28.907Z</time>
      </trkpt>
      <trkpt lat="41.70595" lon="26.30021">
        <ele>51.02915</ele>
        <time>2022-02-21T19:19:40.315Z</time>
      </trkpt>
      <trkpt lat="41.70578" lon="26.29969">
        <ele>51.551449</ele>
        <time>2022-02-21T19:19:52.923Z</time>
      </trkpt>
      <trkpt lat="41.70565" lon="26.29928">
        <ele>52.111224</ele>
        <time>2022-02-21T19:20:04.632Z</time>
      </trkpt>
      <trkpt lat="41.70542" lon="26.29857">
        <ele>53.070325</ele>
        <time>2022-02-21T19:20:26.590Z</time>
      </trkpt>
      <trkpt lat="41.70493" lon="26.29652">
        <ele>55.339254</ele>
        <time>2022-02-21T19:21:26.150Z</time>
      </trkpt>
      <trkpt lat="41.70457" lon="26.29482">
        <ele>55.551645</ele>
        <time>2022-02-21T19:22:01.847Z</time>
      </trkpt>
      <trkpt lat="41.70452" lon="26.29472">
        <ele>55.438877</ele>
        <time>2022-02-21T19:22:03.731Z</time>
      </trkpt>
      <trkpt lat="41.70453" lon="26.2947">
        <ele>55.413413</ele>
        <time>2022-02-21T19:22:04.122Z</time>
      </trkpt>
      <trkpt lat="41.70457" lon="26.29446">
        <ele>55.187649</ele>
        <time>2022-02-21T19:22:07.943Z</time>
      </trkpt>
      <trkpt lat="41.70463" lon="26.294">
        <ele>54.751608</ele>
        <time>2022-02-21T19:22:14.995Z</time>
      </trkpt>
      <trkpt lat="41.70482" lon="26.29285">
        <ele>54.264098</ele>
        <time>2022-02-21T19:22:33.886Z</time>
      </trkpt>
      <trkpt lat="41.70487" lon="26.2925">
        <ele>54.472426</ele>
        <time>2022-02-21T19:22:40.333Z</time>
      </trkpt>
      <trkpt lat="41.70491" lon="26.29222">
        <ele>54.639758</ele>
        <time>2022-02-21T19:22:46.946Z</time>
      </trkpt>
      <trkpt lat="41.70495" lon="26.29198">
        <ele>54.779204</ele>
        <time>2022-02-21T19:22:51.922Z</time>
      </trkpt>
      <trkpt lat="41.70497" lon="26.29182">
        <ele>54.876472</ele>
        <time>2022-02-21T19:22:56.363Z</time>
      </trkpt>
      <trkpt lat="41.70502" lon="26.29168">
        <ele>54.967017</ele>
        <time>2022-02-21T19:22:59.404Z</time>
      </trkpt>
      <trkpt lat="41.70505" lon="26.29158">
        <ele>55.032359</ele>
        <time>2022-02-21T19:23:02.283Z</time>
      </trkpt>
      <trkpt lat="41.70508" lon="26.2915">
        <ele>55.082228</ele>
        <time>2022-02-21T19:23:04.623Z</time>
      </trkpt>
      <trkpt lat="41.70508" lon="26.2914">
        <ele>55.137236</ele>
        <time>2022-02-21T19:23:08.046Z</time>
      </trkpt>
      <trkpt lat="41.70506" lon="26.29127">
        <ele>55.216023</ele>
        <time>2022-02-21T19:23:11.298Z</time>
      </trkpt>
      <trkpt lat="41.70479" lon="26.2908">
        <ele>56.048269</ele>
        <time>2022-02-21T19:23:28.353Z</time>
      </trkpt>
      <trkpt lat="41.70475" lon="26.29071">
        <ele>56.354742</ele>
        <time>2022-02-21T19:23:32.653Z</time>
      </trkpt>
      <trkpt lat="41.70472" lon="26.2906">
        <ele>56.703746</ele>
        <time>2022-02-21T19:23:37.844Z</time>
      </trkpt>
      <trkpt lat="41.70471" lon="26.29049">
        <ele>57.000818</ele>
        <time>2022-02-21T19:23:41.412Z</time>
      </trkpt>
      <trkpt lat="41.70473" lon="26.28999">
        <ele>58.450639</ele>
        <time>2022-02-21T19:23:59.729Z</time>
      </trkpt>
      <trkpt lat="41.70479" lon="26.28951">
        <ele>59.83952</ele>
        <time>2022-02-21T19:24:17.468Z</time>
      </trkpt>
      <trkpt lat="41.70478" lon="26.28916">
        <ele>60.851203</ele>
        <time>2022-02-21T19:24:29.717Z</time>
      </trkpt>
      <trkpt lat="41.70468" lon="26.28892">
        <ele>61.62835</ele>
        <time>2022-02-21T19:24:38.000Z</time>
      </trkpt>
      <trkpt lat="41.70456" lon="26.2887">
        <ele>62.366933</ele>
        <time>2022-02-21T19:24:48.410Z</time>
      </trkpt>
      <trkpt lat="41.70422" lon="26.28825">
        <ele>63.12078</ele>
        <time>2022-02-21T19:25:06.569Z</time>
      </trkpt>
      <trkpt lat="41.70386" lon="26.28779">
        <ele>63.906806</ele>
        <time>2022-02-21T19:25:24.399Z</time>
      </trkpt>
      <trkpt lat="41.70355" lon="26.28753">
        <ele>64.47839</ele>
        <time>2022-02-21T19:25:36.208Z</time>
      </trkpt>
      <trkpt lat="41.70326" lon="26.2874">
        <ele>64.960315</ele>
        <time>2022-02-21T19:25:45.135Z</time>
      </trkpt>
      <trkpt lat="41.70215" lon="26.28722">
        <ele>63.400595</ele>
        <time>2022-02-21T19:26:11.959Z</time>
      </trkpt>
      <trkpt lat="41.70179" lon="26.28704">
        <ele>62.726593</ele>
        <time>2022-02-21T19:26:19.903Z</time>
      </trkpt>
      <trkpt lat="41.70063" lon="26.28625">
        <ele>58.055427</ele>
        <time>2022-02-21T19:26:44.322Z</time>
      </trkpt>
      <trkpt lat="41.70026" lon="26.28602">
        <ele>56.258643</ele>
        <time>2022-02-21T19:26:51.709Z</time>
      </trkpt>
      <trkpt lat="41.70014" lon="26.28585">
        <ele>55.481186</ele>
        <time>2022-02-21T19:26:54.776Z</time>
      </trkpt>
      <trkpt lat="41.70003" lon="26.28556">
        <ele>54.400985</ele>
        <time>2022-02-21T19:26:59.369Z</time>
      </trkpt>
      <trkpt lat="41.70002" lon="26.28548">
        <ele>54.125742</ele>
        <time>2022-02-21T19:27:00.411Z</time>
      </trkpt>
      <trkpt lat="41.70003" lon="26.28529">
        <ele>53.624753</ele>
        <time>2022-02-21T19:27:03.048Z</time>
      </trkpt>
      <trkpt lat="41.70005" lon="26.2852">
        <ele>53.380858</ele>
        <time>2022-02-21T19:27:04.465Z</time>
      </trkpt>
      <trkpt lat="41.69998" lon="26.28481">
        <ele>52.405598</ele>
        <time>2022-02-21T19:27:09.798Z</time>
      </trkpt>
      <trkpt lat="41.69978" lon="26.28458">
        <ele>51.504985</ele>
        <time>2022-02-21T19:27:14.707Z</time>
      </trkpt>
      <trkpt lat="41.69965" lon="26.28452">
        <ele>51.073201</ele>
        <time>2022-02-21T19:27:17.372Z</time>
      </trkpt>
      <trkpt lat="41.69951" lon="26.28443">
        <ele>50.564547</ele>
        <time>2022-02-21T19:27:20.189Z</time>
      </trkpt>
      <trkpt lat="41.6993" lon="26.28422">
        <ele>49.67726</ele>
        <time>2022-02-21T19:27:25.780Z</time>
      </trkpt>
      <trkpt lat="41.69918" lon="26.28379">
        <ele>48.540845</ele>
        <time>2022-02-21T19:27:32.880Z</time>
      </trkpt>
      <trkpt lat="41.69917" lon="26.28363">
        <ele>48.131378</ele>
        <time>2022-02-21T19:27:35.465Z</time>
      </trkpt>
      <trkpt lat="41.69923" lon="26.28331">
        <ele>47.830933</ele>
        <time>2022-02-21T19:27:41.199Z</time>
      </trkpt>
      <trkpt lat="41.69931" lon="26.28283">
        <ele>47.563781</ele>
        <time>2022-02-21T19:27:49.471Z</time>
      </trkpt>
      <trkpt lat="41.69941" lon="26.28226">
        <ele>47.241061</ele>
        <time>2022-02-21T19:27:59.727Z</time>
      </trkpt>
      <trkpt lat="41.69958" lon="26.28102">
        <ele>46.795228</ele>
        <time>2022-02-21T19:28:23.853Z</time>
      </trkpt>
      <trkpt lat="41.69961" lon="26.28012">
        <ele>47.424136</ele>
        <time>2022-02-21T19:28:43.831Z</time>
      </trkpt>
      <trkpt lat="41.69953" lon="26.27872">
        <ele>48.493529</ele>
        <time>2022-02-21T19:29:18.647Z</time>
      </trkpt>
      <trkpt lat="41.69947" lon="26.27823">
        <ele>49.308602</ele>
        <time>2022-02-21T19:29:31.616Z</time>
      </trkpt>
      <trkpt lat="41.69945" lon="26.27806">
        <ele>49.583296</ele>
        <time>2022-02-21T19:29:36.363Z</time>
      </trkpt>
      <trkpt lat="41.69924" lon="26.27691">
        <ele>51.539116</ele>
        <time>2022-02-21T19:30:09.665Z</time>
      </trkpt>
      <trkpt lat="41.69912" lon="26.27649">
        <ele>52.277875</ele>
        <time>2022-02-21T19:30:23.065Z</time>
      </trkpt>
      <trkpt lat="41.69825" lon="26.2725">
        <ele>60.864515</ele>
        <time>2022-02-21T19:32:28.157Z</time>
      </trkpt>
      <trkpt lat="41.69784" lon="26.27065">
        <ele>64.372044</ele>
        <time>2022-02-21T19:33:24.044Z</time>
      </trkpt>
      <trkpt lat="41.6977" lon="26.27">
        <ele>65.517009</ele>
        <time>2022-02-21T19:33:42.793Z</time>
      </trkpt>
      <trkpt lat="41.69762" lon="26.2696">
        <ele>66.208828</ele>
        <time>2022-02-21T19:33:53.995Z</time>
      </trkpt>
      <trkpt lat="41.69739" lon="26.26794">
        <ele>68.152147</ele>
        <time>2022-02-21T19:34:38.269Z</time>
      </trkpt>
      <trkpt lat="41.69735" lon="26.26673">
        <ele>69.239633</ele>
        <time>2022-02-21T19:35:06.535Z</time>
      </trkpt>
      <trkpt lat="41.69738" lon="26.2657">
        <ele>69.750666</ele>
        <time>2022-02-21T19:35:29.379Z</time>
      </trkpt>
      <trkpt lat="41.69757" lon="26.26398">
        <ele>70.384145</ele>
        <time>2022-02-21T19:36:06.878Z</time>
      </trkpt>
      <trkpt lat="41.69792" lon="26.26246">
        <ele>70.712037</ele>
        <time>2022-02-21T19:36:39.966Z</time>
      </trkpt>
      <trkpt lat="41.69828" lon="26.26136">
        <ele>70.424917</ele>
        <time>2022-02-21T19:37:03.536Z</time>
      </trkpt>
      <trkpt lat="41.6988" lon="26.26015">
        <ele>70.045878</ele>
        <time>2022-02-21T19:37:28.937Z</time>
      </trkpt>
      <trkpt lat="41.69946" lon="26.25897">
        <ele>69.446363</ele>
        <time>2022-02-21T19:37:54.869Z</time>
      </trkpt>
      <trkpt lat="41.69961" lon="26.25871">
        <ele>69.312873</ele>
        <time>2022-02-21T19:38:01.139Z</time>
      </trkpt>
      <trkpt lat="41.69964" lon="26.25866">
        <ele>69.289035</ele>
        <time>2022-02-21T19:38:02.191Z</time>
      </trkpt>
      <trkpt lat="41.6997" lon="26.25857">
        <ele>69.236151</ele>
        <time>2022-02-21T19:38:04.533Z</time>
      </trkpt>
      <trkpt lat="41.70025" lon="26.2578">
        <ele>69.624222</ele>
        <time>2022-02-21T19:38:26.321Z</time>
      </trkpt>
      <trkpt lat="41.70134" lon="26.25639">
        <ele>70.927079</ele>
        <time>2022-02-21T19:39:15.783Z</time>
      </trkpt>
      <trkpt lat="41.70165" lon="26.25603">
        <ele>71.332702</ele>
        <time>2022-02-21T19:39:29.655Z</time>
      </trkpt>
      <trkpt lat="41.70193" lon="26.25565">
        <ele>71.721206</ele>
        <time>2022-02-21T19:39:42.296Z</time>
      </trkpt>
      <trkpt lat="41.70296" lon="26.25404">
        <ele>72.820189</ele>
        <time>2022-02-21T19:40:28.910Z</time>
      </trkpt>
      <trkpt lat="41.70329" lon="26.25341">
        <ele>73.100881</ele>
        <time>2022-02-21T19:40:45.556Z</time>
      </trkpt>
      <trkpt lat="41.70393" lon="26.2521">
        <ele>73.399758</ele>
        <time>2022-02-21T19:41:18.459Z</time>
      </trkpt>
      <trkpt lat="41.7044" lon="26.25096">
        <ele>73.553931</ele>
        <time>2022-02-21T19:41:44.593Z</time>
      </trkpt>
      <trkpt lat="41.70453" lon="26.25062">
        <ele>73.497</ele>
        <time>2022-02-21T19:41:52.171Z</time>
      </trkpt>
      <trkpt lat="41.70503" lon="26.24922">
        <ele>73.261618</ele>
        <time>2022-02-21T19:42:22.194Z</time>
      </trkpt>
      <trkpt lat="41.70516" lon="26.24884">
        <ele>73.199254</ele>
        <time>2022-02-21T19:42:29.849Z</time>
      </trkpt>
      <trkpt lat="41.70554" lon="26.2477">
        <ele>72.454366</ele>
        <time>2022-02-21T19:42:53.024Z</time>
      </trkpt>
      <trkpt lat="41.71047" lon="26.23294">
        <ele>57.81734</ele>
        <time>2022-02-21T19:47:26.561Z</time>
      </trkpt>
      <trkpt lat="41.711" lon="26.23152">
        <ele>55.240272</ele>
        <time>2022-02-21T19:47:50.541Z</time>
      </trkpt>
      <trkpt lat="41.71136" lon="26.23066">
        <ele>54.244208</ele>
        <time>2022-02-21T19:48:05.715Z</time>
      </trkpt>
      <trkpt lat="41.71156" lon="26.23022">
        <ele>53.861743</ele>
        <time>2022-02-21T19:48:14.091Z</time>
      </trkpt>
      <trkpt lat="41.71165" lon="26.23003">
        <ele>53.696012</ele>
        <time>2022-02-21T19:48:17.969Z</time>
      </trkpt>
      <trkpt lat="41.71177" lon="26.22978">
        <ele>53.468466</ele>
        <time>2022-02-21T19:48:23.408Z</time>
      </trkpt>
      <trkpt lat="41.7122" lon="26.22886">
        <ele>53.538122</ele>
        <time>2022-02-21T19:48:45.885Z</time>
      </trkpt>
      <trkpt lat="41.71306" lon="26.22699">
        <ele>56.917236</ele>
        <time>2022-02-21T19:49:47.823Z</time>
      </trkpt>
      <trkpt lat="41.71358" lon="26.22568">
        <ele>60.892605</ele>
        <time>2022-02-21T19:50:37.064Z</time>
      </trkpt>
      <trkpt lat="41.71415" lon="26.22402">
        <ele>65.837154</ele>
        <time>2022-02-21T19:51:40.264Z</time>
      </trkpt>
      <trkpt lat="41.71451" lon="26.22268">
        <ele>69.581728</ele>
        <time>2022-02-21T19:52:26.383Z</time>
      </trkpt>
      <trkpt lat="41.71506" lon="26.2205">
        <ele>73.355911</ele>
        <time>2022-02-21T19:53:31.102Z</time>
      </trkpt>
      <trkpt lat="41.71554" lon="26.21859">
        <ele>73.082986</ele>
        <time>2022-02-21T19:54:11.022Z</time>
      </trkpt>
      <trkpt lat="41.71563" lon="26.2182">
        <ele>73.003816</ele>
        <time>2022-02-21T19:54:17.652Z</time>
      </trkpt>
      <trkpt lat="41.71573" lon="26.21781">
        <ele>72.438874</ele>
        <time>2022-02-21T19:54:24.217Z</time>
      </trkpt>
      <trkpt lat="41.71584" lon="26.21742">
        <ele>71.872782</ele>
        <time>2022-02-21T19:54:30.637Z</time>
      </trkpt>
      <trkpt lat="41.71611" lon="26.21645">
        <ele>70.464993</ele>
        <time>2022-02-21T19:54:46.554Z</time>
      </trkpt>
      <trkpt lat="41.71625" lon="26.2159">
        <ele>69.744393</ele>
        <time>2022-02-21T19:54:55.954Z</time>
      </trkpt>
      <trkpt lat="41.71636" lon="26.21538">
        <ele>69.819371</ele>
        <time>2022-02-21T19:55:05.179Z</time>
      </trkpt>
      <trkpt lat="41.71649" lon="26.21455">
        <ele>69.935676</ele>
        <time>2022-02-21T19:55:22.038Z</time>
      </trkpt>
      <trkpt lat="41.71654" lon="26.21423">
        <ele>69.981139</ele>
        <time>2022-02-21T19:55:29.795Z</time>
      </trkpt>
      <trkpt lat="41.71666" lon="26.21343">
        <ele>70.359458</ele>
        <time>2022-02-21T19:55:50.195Z</time>
      </trkpt>
      <trkpt lat="41.71673" lon="26.21284">
        <ele>71.338375</ele>
        <time>2022-02-21T19:56:06.319Z</time>
      </trkpt>
      <trkpt lat="41.71677" lon="26.2123">
        <ele>72.243331</ele>
        <time>2022-02-21T19:56:21.642Z</time>
      </trkpt>
      <trkpt lat="41.7168" lon="26.21174">
        <ele>73.184518</ele>
        <time>2022-02-21T19:56:37.984Z</time>
      </trkpt>
      <trkpt lat="41.71682" lon="26.21106">
        <ele>74.374895</ele>
        <time>2022-02-21T19:56:58.009Z</time>
      </trkpt>
      <trkpt lat="41.71684" lon="26.21054">
        <ele>75.472351</ele>
        <time>2022-02-21T19:57:13.499Z</time>
      </trkpt>
      <trkpt lat="41.71684" lon="26.21025">
        <ele>76.101209</ele>
        <time>2022-02-21T19:57:22.328Z</time>
      </trkpt>
      <trkpt lat="41.71692" lon="26.20817">
        <ele>80.32264</ele>
        <time>2022-02-21T19:58:25.737Z</time>
      </trkpt>
      <trkpt lat="41.71694" lon="26.20738">
        <ele>81.733085</ele>
        <time>2022-02-21T19:58:49.245Z</time>
      </trkpt>
      <trkpt lat="41.71711" lon="26.20073">
        <ele>89.172062</ele>
        <time>2022-02-21T20:01:43.699Z</time>
      </trkpt>
      <trkpt lat="41.71715" lon="26.19941">
        <ele>88.182571</ele>
        <time>2022-02-21T20:02:04.370Z</time>
      </trkpt>
      <trkpt lat="41.71726" lon="26.19731">
        <ele>82.753244</ele>
        <time>2022-02-21T20:02:34.424Z</time>
      </trkpt>
      <trkpt lat="41.71728" lon="26.1954">
        <ele>77.193297</ele>
        <time>2022-02-21T20:03:00.754Z</time>
      </trkpt>
      <trkpt lat="41.71734" lon="26.19437">
        <ele>74.142316</ele>
        <time>2022-02-21T20:03:15.730Z</time>
      </trkpt>
      <trkpt lat="41.7174" lon="26.19308">
        <ele>72.281662</ele>
        <time>2022-02-21T20:03:34.547Z</time>
      </trkpt>
      <trkpt lat="41.71757" lon="26.18813">
        <ele>69.288796</ele>
        <time>2022-02-21T20:05:06.778Z</time>
      </trkpt>
      <trkpt lat="41.71767" lon="26.1873">
        <ele>68.908839</ele>
        <time>2022-02-21T20:05:21.935Z</time>
      </trkpt>
      <trkpt lat="41.7179" lon="26.18648">
        <ele>68.068422</ele>
        <time>2022-02-21T20:05:36.726Z</time>
      </trkpt>
      <trkpt lat="41.71796" lon="26.18627">
        <ele>67.823325</ele>
        <time>2022-02-21T20:05:40.437Z</time>
      </trkpt>
      <trkpt lat="41.71834" lon="26.18548">
        <ele>66.829737</ele>
        <time>2022-02-21T20:05:55.511Z</time>
      </trkpt>
      <trkpt lat="41.71892" lon="26.18462">
        <ele>65.804143</ele>
        <time>2022-02-21T20:06:14.331Z</time>
      </trkpt>
      <trkpt lat="41.72168" lon="26.18081">
        <ele>62.227201</ele>
        <time>2022-02-21T20:07:50.082Z</time>
      </trkpt>
      <trkpt lat="41.72213" lon="26.1804">
        <ele>61.501014</ele>
        <time>2022-02-21T20:08:01.818Z</time>
      </trkpt>
      <trkpt lat="41.72276" lon="26.18">
        <ele>60.378911</ele>
        <time>2022-02-21T20:08:16.374Z</time>
      </trkpt>
      <trkpt lat="41.72303" lon="26.17988">
        <ele>59.808131</ele>
        <time>2022-02-21T20:08:22.194Z</time>
      </trkpt>
      <trkpt lat="41.72358" lon="26.17977">
        <ele>58.710114</ele>
        <time>2022-02-21T20:08:33.480Z</time>
      </trkpt>
      <trkpt lat="41.72441" lon="26.17976">
        <ele>57.252099</ele>
        <time>2022-02-21T20:08:51.152Z</time>
      </trkpt>
      <trkpt lat="41.72811" lon="26.18">
        <ele>55.972072</ele>
        <time>2022-02-21T20:10:25.269Z</time>
      </trkpt>
      <trkpt lat="41.72876" lon="26.1799">
        <ele>56.470186</ele>
        <time>2022-02-21T20:10:44.009Z</time>
      </trkpt>
      <trkpt lat="41.72916" lon="26.17973">
        <ele>56.796332</ele>
        <time>2022-02-21T20:10:56.882Z</time>
      </trkpt>
      <trkpt lat="41.7295" lon="26.17956">
        <ele>57.07087</ele>
        <time>2022-02-21T20:11:08.821Z</time>
      </trkpt>
      <trkpt lat="41.7296" lon="26.17948">
        <ele>57.20261</ele>
        <time>2022-02-21T20:11:13.111Z</time>
      </trkpt>
      <trkpt lat="41.72975" lon="26.17938">
        <ele>57.734548</ele>
        <time>2022-02-21T20:11:19.008Z</time>
      </trkpt>
      <trkpt lat="41.72994" lon="26.17923">
        <ele>58.456185</ele>
        <time>2022-02-21T20:11:27.261Z</time>
      </trkpt>
      <trkpt lat="41.73018" lon="26.17902">
        <ele>59.420745</ele>
        <time>2022-02-21T20:11:38.680Z</time>
      </trkpt>
      <trkpt lat="41.73043" lon="26.17877">
        <ele>60.434834</ele>
        <time>2022-02-21T20:11:51.468Z</time>
      </trkpt>
      <trkpt lat="41.73209" lon="26.17655">
        <ele>69.673973</ele>
        <time>2022-02-21T20:13:43.990Z</time>
      </trkpt>
      <trkpt lat="41.73268" lon="26.17575">
        <ele>72.148545</ele>
        <time>2022-02-21T20:14:22.228Z</time>
      </trkpt>
      <trkpt lat="41.73428" lon="26.17364">
        <ele>75.54528</ele>
        <time>2022-02-21T20:15:38.096Z</time>
      </trkpt>
      <trkpt lat="41.73519" lon="26.17248">
        <ele>75.40412</ele>
        <time>2022-02-21T20:16:08.569Z</time>
      </trkpt>
      <trkpt lat="41.73643" lon="26.17104">
        <ele>73.948788</ele>
        <time>2022-02-21T20:16:44.745Z</time>
      </trkpt>
      <trkpt lat="41.73714" lon="26.17025">
        <ele>74.037447</ele>
        <time>2022-02-21T20:17:09.688Z</time>
      </trkpt>
      <trkpt lat="41.73736" lon="26.17007">
        <ele>74.061998</ele>
        <time>2022-02-21T20:17:17.834Z</time>
      </trkpt>
      <trkpt lat="41.73753" lon="26.16999">
        <ele>74.079199</ele>
        <time>2022-02-21T20:17:23.284Z</time>
      </trkpt>
      <trkpt lat="41.73761" lon="26.16997">
        <ele>74.087094</ele>
        <time>2022-02-21T20:17:26.296Z</time>
      </trkpt>
      <trkpt lat="41.73803" lon="26.1695">
        <ele>74.96699</ele>
        <time>2022-02-21T20:17:49.834Z</time>
      </trkpt>
      <trkpt lat="41.73953" lon="26.16773">
        <ele>77.724328</ele>
        <time>2022-02-21T20:19:17.110Z</time>
      </trkpt>
      <trkpt lat="41.73961" lon="26.16765">
        <ele>77.817771</ele>
        <time>2022-02-21T20:19:21.238Z</time>
      </trkpt>
      <trkpt lat="41.73967" lon="26.16731">
        <ele>78.045532</ele>
        <time>2022-02-21T20:19:28.928Z</time>
      </trkpt>
      <trkpt lat="41.73972" lon="26.1671">
        <ele>78.188089</ele>
        <time>2022-02-21T20:19:33.604Z</time>
      </trkpt>
      <trkpt lat="41.73999" lon="26.16678">
        <ele>78.51097</ele>
        <time>2022-02-21T20:19:44.030Z</time>
      </trkpt>
      <trkpt lat="41.74064" lon="26.16626">
        <ele>77.705041</ele>
        <time>2022-02-21T20:20:03.188Z</time>
      </trkpt>
      <trkpt lat="41.74118" lon="26.16606">
        <ele>76.772831</ele>
        <time>2022-02-21T20:20:15.372Z</time>
      </trkpt>
      <trkpt lat="41.7415" lon="26.16601">
        <ele>76.220581</ele>
        <time>2022-02-21T20:20:22.255Z</time>
      </trkpt>
      <trkpt lat="41.74174" lon="26.166">
        <ele>75.825733</ele>
        <time>2022-02-21T20:20:27.026Z</time>
      </trkpt>
      <trkpt lat="41.74584" lon="26.16625">
        <ele>59.012373</ele>
        <time>2022-02-21T20:21:42.886Z</time>
      </trkpt>
      <trkpt lat="41.74673" lon="26.1663">
        <ele>56.439416</ele>
        <time>2022-02-21T20:22:00.486Z</time>
      </trkpt>
      <trkpt lat="41.74738" lon="26.16635">
        <ele>54.911925</ele>
        <time>2022-02-21T20:22:14.690Z</time>
      </trkpt>
      <trkpt lat="41.74759" lon="26.16636">
        <ele>54.83235</ele>
        <time>2022-02-21T20:22:19.774Z</time>
      </trkpt>
      <trkpt lat="41.74788" lon="26.16637">
        <ele>54.726248</ele>
        <time>2022-02-21T20:22:26.807Z</time>
      </trkpt>
      <trkpt lat="41.74826" lon="26.16643">
        <ele>54.58461</ele>
        <time>2022-02-21T20:22:37.437Z</time>
      </trkpt>
      <trkpt lat="41.74979" lon="26.16651">
        <ele>54.26207</ele>
        <time>2022-02-21T20:23:21.296Z</time>
      </trkpt>
      <trkpt lat="41.75191" lon="26.16689">
        <ele>54.104832</ele>
        <time>2022-02-21T20:24:18.335Z</time>
      </trkpt>
      <trkpt lat="41.75314" lon="26.16691">
        <ele>54.339425</ele>
        <time>2022-02-21T20:24:53.308Z</time>
      </trkpt>
      <trkpt lat="41.75454" lon="26.16665">
        <ele>55.239427</ele>
        <time>2022-02-21T20:25:37.830Z</time>
      </trkpt>
      <trkpt lat="41.75524" lon="26.16641">
        <ele>56.113006</ele>
        <time>2022-02-21T20:26:01.689Z</time>
      </trkpt>
      <trkpt lat="41.75604" lon="26.16602">
        <ele>57.14767</ele>
        <time>2022-02-21T20:26:31.001Z</time>
      </trkpt>
      <trkpt lat="41.75622" lon="26.16594">
        <ele>57.370041</ele>
        <time>2022-02-21T20:26:37.643Z</time>
      </trkpt>
      <trkpt lat="41.75632" lon="26.16587">
        <ele>57.506697</ele>
        <time>2022-02-21T20:26:41.604Z</time>
      </trkpt>
      <trkpt lat="41.75648" lon="26.16576">
        <ele>57.713096</ele>
        <time>2022-02-21T20:26:48.319Z</time>
      </trkpt>
      <trkpt lat="41.75674" lon="26.16556">
        <ele>58.070632</ele>
        <time>2022-02-21T20:26:58.772Z</time>
      </trkpt>
      <trkpt lat="41.75683" lon="26.16521">
        <ele>58.394272</ele>
        <time>2022-02-21T20:27:07.970Z</time>
      </trkpt>
      <trkpt lat="41.7571" lon="26.16491">
        <ele>58.794809</ele>
        <time>2022-02-21T20:27:19.235Z</time>
      </trkpt>
      <trkpt lat="41.75761" lon="26.16449">
        <ele>59.419034</ele>
        <time>2022-02-21T20:27:38.976Z</time>
      </trkpt>
      <trkpt lat="41.75774" lon="26.16438">
        <ele>59.495926</ele>
        <time>2022-02-21T20:27:43.194Z</time>
      </trkpt>
      <trkpt lat="41.75784" lon="26.16428">
        <ele>59.562854</ele>
        <time>2022-02-21T20:27:46.936Z</time>
      </trkpt>
      <trkpt lat="41.75892" lon="26.16335">
        <ele>60.229834</ele>
        <time>2022-02-21T20:28:24.716Z</time>
      </trkpt>
      <trkpt lat="41.75918" lon="26.16323">
        <ele>60.476557</ele>
        <time>2022-02-21T20:28:33.347Z</time>
      </trkpt>
      <trkpt lat="41.75925" lon="26.16322">
        <ele>60.554242</ele>
        <time>2022-02-21T20:28:35.325Z</time>
      </trkpt>
      <trkpt lat="41.75934" lon="26.16314">
        <ele>60.672261</ele>
        <time>2022-02-21T20:28:38.996Z</time>
      </trkpt>
      <trkpt lat="41.7596" lon="26.16283">
        <ele>61.065364</ele>
        <time>2022-02-21T20:28:50.303Z</time>
      </trkpt>
      <trkpt lat="41.75989" lon="26.16257">
        <ele>61.454848</ele>
        <time>2022-02-21T20:29:01.913Z</time>
      </trkpt>
      <trkpt lat="41.76029" lon="26.16221">
        <ele>61.991726</ele>
        <time>2022-02-21T20:29:18.647Z</time>
      </trkpt>
      <trkpt lat="41.76278" lon="26.15958">
        <ele>65.656306</ele>
        <time>2022-02-21T20:31:08.878Z</time>
      </trkpt>
      <trkpt lat="41.76303" lon="26.15933">
        <ele>65.867104</ele>
        <time>2022-02-21T20:31:17.550Z</time>
      </trkpt>
      <trkpt lat="41.76298" lon="26.15922">
        <ele>65.935712</ele>
        <time>2022-02-21T20:31:20.742Z</time>
      </trkpt>
      <trkpt lat="41.76294" lon="26.15915">
        <ele>65.977533</ele>
        <time>2022-02-21T20:31:22.449Z</time>
      </trkpt>
      <trkpt lat="41.7629" lon="26.15875">
        <ele>66.013526</ele>
        <time>2022-02-21T20:31:29.561Z</time>
      </trkpt>
      <trkpt lat="41.76298" lon="26.15855">
        <ele>65.703457</ele>
        <time>2022-02-21T20:31:33.538Z</time>
      </trkpt>
      <trkpt lat="41.76308" lon="26.15847">
        <ele>65.502127</ele>
        <time>2022-02-21T20:31:36.126Z</time>
      </trkpt>
      <trkpt lat="41.76428" lon="26.15764">
        <ele>63.113477</ele>
        <time>2022-02-21T20:32:04.716Z</time>
      </trkpt>
      <trkpt lat="41.76461" lon="26.15741">
        <ele>62.435821</ele>
        <time>2022-02-21T20:32:12.127Z</time>
      </trkpt>
      <trkpt lat="41.76485" lon="26.1572">
        <ele>61.911613</ele>
        <time>2022-02-21T20:32:17.893Z</time>
      </trkpt>
      <trkpt lat="41.76493" lon="26.1571">
        <ele>61.697704</ele>
        <time>2022-02-21T20:32:20.264Z</time>
      </trkpt>
      <trkpt lat="41.76502" lon="26.15696">
        <ele>61.454111</ele>
        <time>2022-02-21T20:32:22.937Z</time>
      </trkpt>
      <trkpt lat="41.76517" lon="26.15664">
        <ele>60.930117</ele>
        <time>2022-02-21T20:32:28.896Z</time>
      </trkpt>
      <trkpt lat="41.7656" lon="26.15512">
        <ele>59.389756</ele>
        <time>2022-02-21T20:32:56.422Z</time>
      </trkpt>
      <trkpt lat="41.76567" lon="26.15495">
        <ele>59.320761</ele>
        <time>2022-02-21T20:32:59.920Z</time>
      </trkpt>
      <trkpt lat="41.76573" lon="26.15477">
        <ele>59.248826</ele>
        <time>2022-02-21T20:33:03.997Z</time>
      </trkpt>
      <trkpt lat="41.76638" lon="26.1534">
        <ele>58.797038</ele>
        <time>2022-02-21T20:33:35.533Z</time>
      </trkpt>
      <trkpt lat="41.7667" lon="26.15287">
        <ele>58.833686</ele>
        <time>2022-02-21T20:33:49.441Z</time>
      </trkpt>
      <trkpt lat="41.76691" lon="26.15253">
        <ele>58.857398</ele>
        <time>2022-02-21T20:33:58.337Z</time>
      </trkpt>
      <trkpt lat="41.76709" lon="26.15207">
        <ele>58.885242</ele>
        <time>2022-02-21T20:34:08.732Z</time>
      </trkpt>
      <trkpt lat="41.76738" lon="26.15018">
        <ele>59.073922</ele>
        <time>2022-02-21T20:34:48.003Z</time>
      </trkpt>
      <trkpt lat="41.76764" lon="26.14966">
        <ele>59.143537</ele>
        <time>2022-02-21T20:35:01.010Z</time>
      </trkpt>
      <trkpt lat="41.76798" lon="26.14925">
        <ele>59.184869</ele>
        <time>2022-02-21T20:35:13.631Z</time>
      </trkpt>
      <trkpt lat="41.76801" lon="26.14922">
        <ele>59.185612</ele>
        <time>2022-02-21T20:35:14.763Z</time>
      </trkpt>
      <trkpt lat="41.76811" lon="26.14911">
        <ele>59.187816</ele>
        <time>2022-02-21T20:35:18.101Z</time>
      </trkpt>
      <trkpt lat="41.76816" lon="26.14907">
        <ele>59.188852</ele>
        <time>2022-02-21T20:35:19.768Z</time>
      </trkpt>
      <trkpt lat="41.76821" lon="26.14903">
        <ele>59.189838</ele>
        <time>2022-02-21T20:35:21.349Z</time>
      </trkpt>
      <trkpt lat="41.76932" lon="26.14869">
        <ele>59.209837</ele>
        <time>2022-02-21T20:35:51.563Z</time>
      </trkpt>
      <trkpt lat="41.76937" lon="26.14866">
        <ele>59.210906</ele>
        <time>2022-02-21T20:35:53.125Z</time>
      </trkpt>
      <trkpt lat="41.7696" lon="26.14903">
        <ele>59.244261</ele>
        <time>2022-02-21T20:36:03.839Z</time>
      </trkpt>
      <trkpt lat="41.76976" lon="26.14921">
        <ele>59.270193</ele>
        <time>2022-02-21T20:36:09.920Z</time>
      </trkpt>
      <trkpt lat="41.76987" lon="26.14939">
        <ele>59.291638</ele>
        <time>2022-02-21T20:36:14.912Z</time>
      </trkpt>
      <trkpt lat="41.76992" lon="26.14941">
        <ele>59.298616</ele>
        <time>2022-02-21T20:36:16.524Z</time>
      </trkpt>
      <trkpt lat="41.77013" lon="26.14917">
        <ele>59.333515</ele>
        <time>2022-02-21T20:36:24.894Z</time>
      </trkpt>
      <trkpt lat="41.77104" lon="26.14817">
        <ele>59.59889</ele>
        <time>2022-02-21T20:37:01.028Z</time>
      </trkpt>
      <trkpt lat="41.77197" lon="26.14735">
        <ele>60.124518</ele>
        <time>2022-02-21T20:37:37.186Z</time>
      </trkpt>
      <trkpt lat="41.77206" lon="26.14737">
        <ele>60.16779</ele>
        <time>2022-02-21T20:37:40.184Z</time>
      </trkpt>
      <trkpt lat="41.77209" lon="26.14742">
        <ele>60.191521</ele>
        <time>2022-02-21T20:37:41.686Z</time>
      </trkpt>
      <trkpt lat="41.77301" lon="26.14635">
        <ele>60.678445</ele>
        <time>2022-02-21T20:38:18.258Z</time>
      </trkpt>
      <trkpt lat="41.77323" lon="26.14609">
        <ele>60.793126</ele>
        <time>2022-02-21T20:38:27.037Z</time>
      </trkpt>
      <trkpt lat="41.77349" lon="26.1458">
        <ele>60.922503</ele>
        <time>2022-02-21T20:38:36.941Z</time>
      </trkpt>
      <trkpt lat="41.77416" lon="26.14679">
        <ele>60.978296</ele>
        <time>2022-02-21T20:39:05.132Z</time>
      </trkpt>
      <trkpt lat="41.77421" lon="26.14675">
        <ele>60.97796</ele>
        <time>2022-02-21T20:39:06.888Z</time>
      </trkpt>
      <trkpt lat="41.77427" lon="26.14673">
        <ele>60.97764</ele>
        <time>2022-02-21T20:39:08.528Z</time>
      </trkpt>
      <trkpt lat="41.7744" lon="26.14673">
        <ele>60.976947</ele>
        <time>2022-02-21T20:39:12.064Z</time>
      </trkpt>
      <trkpt lat="41.7744" lon="26.1466">
        <ele>60.976397</ele>
        <time>2022-02-21T20:39:14.789Z</time>
      </trkpt>
      <trkpt lat="41.77513" lon="26.14664">
        <ele>60.937394</ele>
        <time>2022-02-21T20:39:34.440Z</time>
      </trkpt>
      <trkpt lat="41.77532" lon="26.14642">
        <ele>60.863015</ele>
        <time>2022-02-21T20:39:41.048Z</time>
      </trkpt>
      <trkpt lat="41.77577" lon="26.1459">
        <ele>60.683408</ele>
        <time>2022-02-21T20:39:56.693Z</time>
      </trkpt>
      <trkpt lat="41.77629" lon="26.14657">
        <ele>60.465411</ele>
        <time>2022-02-21T20:40:15.620Z</time>
      </trkpt>
      <trkpt lat="41.77722" lon="26.14549">
        <ele>59.873378</ele>
        <time>2022-02-21T20:40:47.688Z</time>
      </trkpt>
      <trkpt lat="41.77799" lon="26.14557">
        <ele>59.470471</ele>
        <time>2022-02-21T20:41:07.198Z</time>
      </trkpt>
      <trkpt lat="41.77875" lon="26.14568">
        <ele>58.9577</ele>
        <time>2022-02-21T20:41:26.409Z</time>
      </trkpt>
      <trkpt lat="41.77881" lon="26.1457">
        <ele>58.918219</ele>
        <time>2022-02-21T20:41:27.897Z</time>
      </trkpt>
      <trkpt lat="41.77885" lon="26.14557">
        <ele>58.848698</ele>
        <time>2022-02-21T20:41:30.236Z</time>
      </trkpt>
      <trkpt lat="41.77905" lon="26.14454">
        <ele>58.323578</ele>
        <time>2022-02-21T20:41:49.567Z</time>
      </trkpt>
      <trkpt lat="41.77914" lon="26.1437">
        <ele>58.200237</ele>
        <time>2022-02-21T20:42:05.384Z</time>
      </trkpt>
      <trkpt lat="41.77916" lon="26.1435">
        <ele>58.170347</ele>
        <time>2022-02-21T20:42:09.372Z</time>
      </trkpt>
      <trkpt lat="41.77929" lon="26.14236">
        <ele>58.00374</ele>
        <time>2022-02-21T20:42:32.167Z</time>
      </trkpt>
      <trkpt lat="41.77963" lon="26.13911">
        <ele>57.655048</ele>
        <time>2022-02-21T20:43:36.772Z</time>
      </trkpt>
      <trkpt lat="41.77978" lon="26.13837">
        <ele>57.454802</ele>
        <time>2022-02-21T20:43:51.142Z</time>
      </trkpt>
      <trkpt lat="41.78006" lon="26.13767">
        <ele>57.250339</ele>
        <time>2022-02-21T20:44:05.657Z</time>
      </trkpt>
      <trkpt lat="41.78049" lon="26.13701">
        <ele>56.927319</ele>
        <time>2022-02-21T20:44:21.574Z</time>
      </trkpt>
      <trkpt lat="41.78168" lon="26.13563">
        <ele>56.061954</ele>
        <time>2022-02-21T20:45:00.342Z</time>
      </trkpt>
      <trkpt lat="41.78238" lon="26.13496">
        <ele>55.536499</ele>
        <time>2022-02-21T20:45:21.321Z</time>
      </trkpt>
      <trkpt lat="41.78328" lon="26.13438">
        <ele>54.947486</ele>
        <time>2022-02-21T20:45:45.214Z</time>
      </trkpt>
      <trkpt lat="41.78341" lon="26.13432">
        <ele>54.868857</ele>
        <time>2022-02-21T20:45:48.562Z</time>
      </trkpt>
      <trkpt lat="41.78356" lon="26.13425">
        <ele>54.781861</ele>
        <time>2022-02-21T20:45:52.325Z</time>
      </trkpt>
      <trkpt lat="41.78379" lon="26.13417">
        <ele>54.64883</ele>
        <time>2022-02-21T20:45:57.983Z</time>
      </trkpt>
      <trkpt lat="41.78433" lon="26.13401">
        <ele>54.337289</ele>
        <time>2022-02-21T20:46:11.410Z</time>
      </trkpt>
      <trkpt lat="41.78537" lon="26.13383">
        <ele>54.78623</ele>
        <time>2022-02-21T20:46:38.090Z</time>
      </trkpt>
      <trkpt lat="41.7863" lon="26.13366">
        <ele>55.675634</ele>
        <time>2022-02-21T20:47:09.194Z</time>
      </trkpt>
      <trkpt lat="41.78633" lon="26.13246">
        <ele>57.970257</ele>
        <time>2022-02-21T20:47:46.438Z</time>
      </trkpt>
      <trkpt lat="41.78642" lon="26.13141">
        <ele>60.293629</ele>
        <time>2022-02-21T20:48:20.887Z</time>
      </trkpt>
      <trkpt lat="41.78643" lon="26.13136">
        <ele>60.400958</ele>
        <time>2022-02-21T20:48:23.587Z</time>
      </trkpt>
      <trkpt lat="41.78644" lon="26.13128">
        <ele>60.597823</ele>
        <time>2022-02-21T20:48:26.318Z</time>
      </trkpt>
      <trkpt lat="41.78664" lon="26.13092">
        <ele>61.361492</ele>
        <time>2022-02-21T20:48:40.462Z</time>
      </trkpt>
      <trkpt lat="41.78718" lon="26.12982">
        <ele>62.885205</ele>
        <time>2022-02-21T20:49:16.585Z</time>
      </trkpt>
      <trkpt lat="41.78757" lon="26.12921">
        <ele>63.809294</ele>
        <time>2022-02-21T20:49:35.653Z</time>
      </trkpt>
      <trkpt lat="41.78822" lon="26.12793">
        <ele>63.226796</ele>
        <time>2022-02-21T20:50:05.563Z</time>
      </trkpt>
      <trkpt lat="41.78848" lon="26.12757">
        <ele>62.998399</ele>
        <time>2022-02-21T20:50:14.346Z</time>
      </trkpt>
      <trkpt lat="41.78942" lon="26.12658">
        <ele>61.771991</ele>
        <time>2022-02-21T20:50:42.263Z</time>
      </trkpt>
      <trkpt lat="41.79086" lon="26.12488">
        <ele>60.374839</ele>
        <time>2022-02-21T20:51:28.883Z</time>
      </trkpt>
      <trkpt lat="41.79161" lon="26.12434">
        <ele>60.169445</ele>
        <time>2022-02-21T20:51:53.879Z</time>
      </trkpt>
      <trkpt lat="41.79233" lon="26.1239">
        <ele>61.098109</ele>
        <time>2022-02-21T20:52:19.836Z</time>
      </trkpt>
      <trkpt lat="41.79288" lon="26.12336">
        <ele>61.891403</ele>
        <time>2022-02-21T20:52:43.184Z</time>
      </trkpt>
      <trkpt lat="41.79337" lon="26.12269">
        <ele>62.857367</ele>
        <time>2022-02-21T20:53:08.039Z</time>
      </trkpt>
      <trkpt lat="41.79403" lon="26.12179">
        <ele>64.305517</ele>
        <time>2022-02-21T20:53:41.349Z</time>
      </trkpt>
      <trkpt lat="41.79417" lon="26.1216">
        <ele>64.610533</ele>
        <time>2022-02-21T20:53:48.495Z</time>
      </trkpt>
      <trkpt lat="41.79646" lon="26.11841">
        <ele>68.707673</ele>
        <time>2022-02-21T20:55:41.244Z</time>
      </trkpt>
      <trkpt lat="41.7966" lon="26.11822">
        <ele>68.912581</ele>
        <time>2022-02-21T20:55:47.135Z</time>
      </trkpt>
      <trkpt lat="41.79676" lon="26.11809">
        <ele>69.112821</ele>
        <time>2022-02-21T20:55:53.167Z</time>
      </trkpt>
      <trkpt lat="41.79823" lon="26.11696">
        <ele>69.989535</ele>
        <time>2022-02-21T20:56:43.690Z</time>
      </trkpt>
      <trkpt lat="41.79929" lon="26.11621">
        <ele>70.525844</ele>
        <time>2022-02-21T20:57:19.301Z</time>
      </trkpt>
      <trkpt lat="41.8009" lon="26.11488">
        <ele>71.166503</ele>
        <time>2022-02-21T20:58:16.516Z</time>
      </trkpt>
      <trkpt lat="41.80597" lon="26.11116">
        <ele>70.356948</ele>
        <time>2022-02-21T21:00:55.360Z</time>
      </trkpt>
      <trkpt lat="41.80693" lon="26.11054">
        <ele>68.390857</ele>
        <time>2022-02-21T21:01:18.808Z</time>
      </trkpt>
      <trkpt lat="41.80769" lon="26.11047">
        <ele>66.405695</ele>
        <time>2022-02-21T21:01:34.693Z</time>
      </trkpt>
      <trkpt lat="41.80806" lon="26.11026">
        <ele>65.391915</ele>
        <time>2022-02-21T21:01:42.893Z</time>
      </trkpt>
      <trkpt lat="41.8087" lon="26.10947">
        <ele>63.438942</ele>
        <time>2022-02-21T21:02:01.207Z</time>
      </trkpt>
      <trkpt lat="41.80901" lon="26.10929">
        <ele>62.682939</ele>
        <time>2022-02-21T21:02:08.605Z</time>
      </trkpt>
      <trkpt lat="41.80963" lon="26.1087">
        <ele>61.3165</ele>
        <time>2022-02-21T21:02:26.199Z</time>
      </trkpt>
      <trkpt lat="41.81001" lon="26.10841">
        <ele>61.066379</ele>
        <time>2022-02-21T21:02:36.842Z</time>
      </trkpt>
      <trkpt lat="41.8104" lon="26.10813">
        <ele>60.814377</ele>
        <time>2022-02-21T21:02:48.026Z</time>
      </trkpt>
      <trkpt lat="41.81169" lon="26.10715">
        <ele>61.033018</ele>
        <time>2022-02-21T21:03:29.764Z</time>
      </trkpt>
      <trkpt lat="41.81191" lon="26.1069">
        <ele>61.268707</ele>
        <time>2022-02-21T21:03:39.149Z</time>
      </trkpt>
      <trkpt lat="41.81198" lon="26.10682">
        <ele>61.340763</ele>
        <time>2022-02-21T21:03:42.005Z</time>
      </trkpt>
      <trkpt lat="41.81218" lon="26.1066">
        <ele>61.555682</ele>
        <time>2022-02-21T21:03:50.922Z</time>
      </trkpt>
      <trkpt lat="41.81222" lon="26.10654">
        <ele>61.602459</ele>
        <time>2022-02-21T21:03:52.793Z</time>
      </trkpt>
      <trkpt lat="41.81238" lon="26.10633">
        <ele>61.788881</ele>
        <time>2022-02-21T21:04:00.960Z</time>
      </trkpt>
      <trkpt lat="41.8127" lon="26.106">
        <ele>62.45438</ele>
        <time>2022-02-21T21:04:15.376Z</time>
      </trkpt>
      <trkpt lat="41.81358" lon="26.1054">
        <ele>64.373982</ele>
        <time>2022-02-21T21:04:53.209Z</time>
      </trkpt>
      <trkpt lat="41.8144" lon="26.10494">
        <ele>65.895626</ele>
        <time>2022-02-21T21:05:26.529Z</time>
      </trkpt>
      <trkpt lat="41.81611" lon="26.1041">
        <ele>68.038502</ele>
        <time>2022-02-21T21:06:27.877Z</time>
      </trkpt>
      <trkpt lat="41.81654" lon="26.10378">
        <ele>68.239441</ele>
        <time>2022-02-21T21:06:42.628Z</time>
      </trkpt>
      <trkpt lat="41.81684" lon="26.10369">
        <ele>68.366127</ele>
        <time>2022-02-21T21:06:51.727Z</time>
      </trkpt>
      <trkpt lat="41.81813" lon="26.10298">
        <ele>67.898635</ele>
        <time>2022-02-21T21:07:28.569Z</time>
      </trkpt>
      <trkpt lat="41.81852" lon="26.10259">
        <ele>67.464761</ele>
        <time>2022-02-21T21:07:40.265Z</time>
      </trkpt>
      <trkpt lat="41.81963" lon="26.102">
        <ele>65.769651</ele>
        <time>2022-02-21T21:08:07.530Z</time>
      </trkpt>
      <trkpt lat="41.82023" lon="26.10158">
        <ele>64.528156</ele>
        <time>2022-02-21T21:08:22.515Z</time>
      </trkpt>
      <trkpt lat="41.82053" lon="26.10146">
        <ele>63.959426</ele>
        <time>2022-02-21T21:08:29.385Z</time>
      </trkpt>
      <trkpt lat="41.82232" lon="26.10043">
        <ele>60.878126</ele>
        <time>2022-02-21T21:09:13.475Z</time>
      </trkpt>
      <trkpt lat="41.82268" lon="26.10022">
        <ele>60.789067</ele>
        <time>2022-02-21T21:09:23.344Z</time>
      </trkpt>
      <trkpt lat="41.82405" lon="26.09943">
        <ele>60.517232</ele>
        <time>2022-02-21T21:10:05.093Z</time>
      </trkpt>
      <trkpt lat="41.82694" lon="26.09785">
        <ele>61.888926</ele>
        <time>2022-02-21T21:11:39.386Z</time>
      </trkpt>
      <trkpt lat="41.82773" lon="26.09734">
        <ele>62.037336</ele>
        <time>2022-02-21T21:12:04.824Z</time>
      </trkpt>
      <trkpt lat="41.82825" lon="26.097">
        <ele>62.016782</ele>
        <time>2022-02-21T21:12:20.874Z</time>
      </trkpt>
      <trkpt lat="41.8283" lon="26.09686">
        <ele>62.012647</ele>
        <time>2022-02-21T21:12:24.103Z</time>
      </trkpt>
      <trkpt lat="41.82851" lon="26.09664">
        <ele>62.003097</ele>
        <time>2022-02-21T21:12:31.123Z</time>
      </trkpt>
      <trkpt lat="41.82914" lon="26.09563">
        <ele>61.782645</ele>
        <time>2022-02-21T21:12:57.092Z</time>
      </trkpt>
      <trkpt lat="41.8293" lon="26.09538">
        <ele>61.703309</ele>
        <time>2022-02-21T21:13:03.701Z</time>
      </trkpt>
      <trkpt lat="41.82936" lon="26.09545">
        <ele>61.67633</ele>
        <time>2022-02-21T21:13:05.731Z</time>
      </trkpt>
      <trkpt lat="41.83007" lon="26.09569">
        <ele>61.438008</ele>
        <time>2022-02-21T21:13:24.983Z</time>
      </trkpt>
      <trkpt lat="41.83035" lon="26.09562">
        <ele>61.419333</ele>
        <time>2022-02-21T21:13:32.778Z</time>
      </trkpt>
      <trkpt lat="41.83105" lon="26.09529">
        <ele>61.469118</ele>
        <time>2022-02-21T21:13:52.754Z</time>
      </trkpt>
      <trkpt lat="41.83121" lon="26.0953">
        <ele>61.479969</ele>
        <time>2022-02-21T21:13:57.284Z</time>
      </trkpt>
      <trkpt lat="41.8314" lon="26.09519">
        <ele>61.494482</ele>
        <time>2022-02-21T21:14:03.202Z</time>
      </trkpt>
      <trkpt lat="41.83213" lon="26.09479">
        <ele>61.676869</ele>
        <time>2022-02-21T21:14:25.359Z</time>
      </trkpt>
      <trkpt lat="41.83328" lon="26.09414">
        <ele>62.328188</ele>
        <time>2022-02-21T21:15:02.768Z</time>
      </trkpt>
      <trkpt lat="41.83382" lon="26.09382">
        <ele>62.578307</ele>
        <time>2022-02-21T21:15:19.628Z</time>
      </trkpt>
      <trkpt lat="41.83389" lon="26.09378">
        <ele>62.606825</ele>
        <time>2022-02-21T21:15:21.933Z</time>
      </trkpt>
      <trkpt lat="41.83454" lon="26.0934">
        <ele>62.856482</ele>
        <time>2022-02-21T21:15:41.546Z</time>
      </trkpt>
      <trkpt lat="41.83509" lon="26.0931">
        <ele>63.065723</ele>
        <time>2022-02-21T21:15:58.419Z</time>
      </trkpt>
      <trkpt lat="41.83567" lon="26.09276">
        <ele>63.337541</ele>
        <time>2022-02-21T21:16:16.345Z</time>
      </trkpt>
      <trkpt lat="41.83598" lon="26.09259">
        <ele>63.483949</ele>
        <time>2022-02-21T21:16:25.757Z</time>
      </trkpt>
      <trkpt lat="41.83638" lon="26.09236">
        <ele>63.674645</ele>
        <time>2022-02-21T21:16:38.089Z</time>
      </trkpt>
      <trkpt lat="41.83726" lon="26.09187">
        <ele>64.204618</ele>
        <time>2022-02-21T21:17:06.885Z</time>
      </trkpt>
      <trkpt lat="41.83801" lon="26.09147">
        <ele>64.75362</ele>
        <time>2022-02-21T21:17:31.570Z</time>
      </trkpt>
      <trkpt lat="41.83884" lon="26.091">
        <ele>65.222115</ele>
        <time>2022-02-21T21:17:57.690Z</time>
      </trkpt>
      <trkpt lat="41.83907" lon="26.09087">
        <ele>65.296854</ele>
        <time>2022-02-21T21:18:04.706Z</time>
      </trkpt>
      <trkpt lat="41.8398" lon="26.09045">
        <ele>65.531696</ele>
        <time>2022-02-21T21:18:27.007Z</time>
      </trkpt>
      <trkpt lat="41.83998" lon="26.09035">
        <ele>65.590566</ele>
        <time>2022-02-21T21:18:32.545Z</time>
      </trkpt>
      <trkpt lat="41.8408" lon="26.08988">
        <ele>65.65457</ele>
        <time>2022-02-21T21:18:56.529Z</time>
      </trkpt>
      <trkpt lat="41.84149" lon="26.08948">
        <ele>65.664003</ele>
        <time>2022-02-21T21:19:16.195Z</time>
      </trkpt>
      <trkpt lat="41.84193" lon="26.08919">
        <ele>65.693192</ele>
        <time>2022-02-21T21:19:29.242Z</time>
      </trkpt>
      <trkpt lat="41.84237" lon="26.08889">
        <ele>65.77851</ele>
        <time>2022-02-21T21:19:43.069Z</time>
      </trkpt>
      <trkpt lat="41.84243" lon="26.08885">
        <ele>65.789764</ele>
        <time>2022-02-21T21:19:44.723Z</time>
      </trkpt>
      <trkpt lat="41.84309" lon="26.0884">
        <ele>65.914568</ele>
        <time>2022-02-21T21:20:04.511Z</time>
      </trkpt>
      <trkpt lat="41.84393" lon="26.08782">
        <ele>66.220774</ele>
        <time>2022-02-21T21:20:31.776Z</time>
      </trkpt>
      <trkpt lat="41.84462" lon="26.08733">
        <ele>66.542536</ele>
        <time>2022-02-21T21:20:54.803Z</time>
      </trkpt>
      <trkpt lat="41.84545" lon="26.08679">
        <ele>66.840092</ele>
        <time>2022-02-21T21:21:20.933Z</time>
      </trkpt>
      <trkpt lat="41.84556" lon="26.08673">
        <ele>66.869172</ele>
        <time>2022-02-21T21:21:23.998Z</time>
      </trkpt>
      <trkpt lat="41.84649" lon="26.0862">
        <ele>67.115291</ele>
        <time>2022-02-21T21:21:52.334Z</time>
      </trkpt>
      <trkpt lat="41.84753" lon="26.08559">
        <ele>67.279826</ele>
        <time>2022-02-21T21:22:22.470Z</time>
      </trkpt>
      <trkpt lat="41.84788" lon="26.08538">
        <ele>67.328835</ele>
        <time>2022-02-21T21:22:33.227Z</time>
      </trkpt>
      <trkpt lat="41.84821" lon="26.08517">
        <ele>67.37574</ele>
        <time>2022-02-21T21:22:43.569Z</time>
      </trkpt>
      <trkpt lat="41.84859" lon="26.08484">
        <ele>67.363536</ele>
        <time>2022-02-21T21:22:55.962Z</time>
      </trkpt>
      <trkpt lat="41.84877" lon="26.0847">
        <ele>67.350828</ele>
        <time>2022-02-21T21:23:01.368Z</time>
      </trkpt>
      <trkpt lat="41.84884" lon="26.08464">
        <ele>67.345394</ele>
        <time>2022-02-21T21:23:03.687Z</time>
      </trkpt>
      <trkpt lat="41.84908" lon="26.08447">
        <ele>67.328466</ele>
        <time>2022-02-21T21:23:10.661Z</time>
      </trkpt>
      <trkpt lat="41.84903" lon="26.08435">
        <ele>67.32243</ele>
        <time>2022-02-21T21:23:13.217Z</time>
      </trkpt>
      <trkpt lat="41.85017" lon="26.08372">
        <ele>67.205788</ele>
        <time>2022-02-21T21:23:45.272Z</time>
      </trkpt>
      <trkpt lat="41.85182" lon="26.08279">
        <ele>67.089776</ele>
        <time>2022-02-21T21:24:31.670Z</time>
      </trkpt>
      <trkpt lat="41.85195" lon="26.08272">
        <ele>67.115577</ele>
        <time>2022-02-21T21:24:35.570Z</time>
      </trkpt>
      <trkpt lat="41.85204" lon="26.08265">
        <ele>67.134691</ele>
        <time>2022-02-21T21:24:38.460Z</time>
      </trkpt>
      <trkpt lat="41.85288" lon="26.08198">
        <ele>67.309424</ele>
        <time>2022-02-21T21:25:05.885Z</time>
      </trkpt>
      <trkpt lat="41.85291" lon="26.08209">
        <ele>67.325694</ele>
        <time>2022-02-21T21:25:08.432Z</time>
      </trkpt>
      <trkpt lat="41.85362" lon="26.0814">
        <ele>67.698141</ele>
        <time>2022-02-21T21:25:33.539Z</time>
      </trkpt>
      <trkpt lat="41.85391" lon="26.08113">
        <ele>67.852262</ele>
        <time>2022-02-21T21:25:43.771Z</time>
      </trkpt>
      <trkpt lat="41.85425" lon="26.08083">
        <ele>68.02785</ele>
        <time>2022-02-21T21:25:55.552Z</time>
      </trkpt>
      <trkpt lat="41.85482" lon="26.0803">
        <ele>68.25956</ele>
        <time>2022-02-21T21:26:15.950Z</time>
      </trkpt>
      <trkpt lat="41.8555" lon="26.07963">
        <ele>68.510534</ele>
        <time>2022-02-21T21:26:40.094Z</time>
      </trkpt>
      <trkpt lat="41.85588" lon="26.07926">
        <ele>68.639514</ele>
        <time>2022-02-21T21:26:52.429Z</time>
      </trkpt>
      <trkpt lat="41.85621" lon="26.07894">
        <ele>68.381452</ele>
        <time>2022-02-21T21:27:03.130Z</time>
      </trkpt>
      <trkpt lat="41.85664" lon="26.07851">
        <ele>68.044549</ele>
        <time>2022-02-21T21:27:16.454Z</time>
      </trkpt>
      <trkpt lat="41.85691" lon="26.07824">
        <ele>67.837476</ele>
        <time>2022-02-21T21:27:24.272Z</time>
      </trkpt>
      <trkpt lat="41.85774" lon="26.07716">
        <ele>66.886502</ele>
        <time>2022-02-21T21:27:50.615Z</time>
      </trkpt>
      <trkpt lat="41.85808" lon="26.07664">
        <ele>66.386692</ele>
        <time>2022-02-21T21:28:02.347Z</time>
      </trkpt>
      <trkpt lat="41.8606" lon="26.07266">
        <ele>63.734795</ele>
        <time>2022-02-21T21:29:35.919Z</time>
      </trkpt>
      <trkpt lat="41.86082" lon="26.07231">
        <ele>63.55514</ele>
        <time>2022-02-21T21:29:44.800Z</time>
      </trkpt>
      <trkpt lat="41.86108" lon="26.0719">
        <ele>63.511606</ele>
        <time>2022-02-21T21:29:55.569Z</time>
      </trkpt>
      <trkpt lat="41.86186" lon="26.07066">
        <ele>63.381297</ele>
        <time>2022-02-21T21:30:27.741Z</time>
      </trkpt>
      <trkpt lat="41.86216" lon="26.07019">
        <ele>63.244189</ele>
        <time>2022-02-21T21:30:39.801Z</time>
      </trkpt>
      <trkpt lat="41.86234" lon="26.06992">
        <ele>63.130573</ele>
        <time>2022-02-21T21:30:46.332Z</time>
      </trkpt>
      <trkpt lat="41.86314" lon="26.06865">
        <ele>62.600078</ele>
        <time>2022-02-21T21:31:16.329Z</time>
      </trkpt>
      <trkpt lat="41.86353" lon="26.06803">
        <ele>62.801758</ele>
        <time>2022-02-21T21:31:31.763Z</time>
      </trkpt>
      <trkpt lat="41.86536" lon="26.06511">
        <ele>64.244608</ele>
        <time>2022-02-21T21:32:58.160Z</time>
      </trkpt>
      <trkpt lat="41.86764" lon="26.06142">
        <ele>63.987134</ele>
        <time>2022-02-21T21:34:31.471Z</time>
      </trkpt>
      <trkpt lat="41.86783" lon="26.06103">
        <ele>63.873939</ele>
        <time>2022-02-21T21:34:40.135Z</time>
      </trkpt>
      <trkpt lat="41.86805" lon="26.06036">
        <ele>63.589536</ele>
        <time>2022-02-21T21:34:53.614Z</time>
      </trkpt>
      <trkpt lat="41.86824" lon="26.0592">
        <ele>63.12437</ele>
        <time>2022-02-21T21:35:15.099Z</time>
      </trkpt>
      <trkpt lat="41.8685" lon="26.05685">
        <ele>62.432706</ele>
        <time>2022-02-21T21:35:58.440Z</time>
      </trkpt>
      <trkpt lat="41.86861" lon="26.05583">
        <ele>62.752993</ele>
        <time>2022-02-21T21:36:19.434Z</time>
      </trkpt>
      <trkpt lat="41.86938" lon="26.0482">
        <ele>67.862534</ele>
        <time>2022-02-21T21:39:18.827Z</time>
      </trkpt>
      <trkpt lat="41.86944" lon="26.04714">
        <ele>68.753692</ele>
        <time>2022-02-21T21:39:44.840Z</time>
      </trkpt>
      <trkpt lat="41.8694" lon="26.04546">
        <ele>69.936759</ele>
        <time>2022-02-21T21:40:25.267Z</time>
      </trkpt>
      <trkpt lat="41.8689" lon="26.03859">
        <ele>73.208421</ele>
        <time>2022-02-21T21:42:55.711Z</time>
      </trkpt>
      <trkpt lat="41.86883" lon="26.03758">
        <ele>73.810811</ele>
        <time>2022-02-21T21:43:19.554Z</time>
      </trkpt>
      <trkpt lat="41.86881" lon="26.03723">
        <ele>74.018185</ele>
        <time>2022-02-21T21:43:27.848Z</time>
      </trkpt>
      <trkpt lat="41.86877" lon="26.03621">
        <ele>74.651002</ele>
        <time>2022-02-21T21:43:51.920Z</time>
      </trkpt>
      <trkpt lat="41.86883" lon="26.0355">
        <ele>75.092259</ele>
        <time>2022-02-21T21:44:08.468Z</time>
      </trkpt>
      <trkpt lat="41.87041" lon="26.02591">
        <ele>78.34772</ele>
        <time>2022-02-21T21:47:38.543Z</time>
      </trkpt>
      <trkpt lat="41.87195" lon="26.01569">
        <ele>80.462098</ele>
        <time>2022-02-21T21:51:15.767Z</time>
      </trkpt>
      <trkpt lat="41.87206" lon="26.01452">
        <ele>80.582587</ele>
        <time>2022-02-21T21:51:39.830Z</time>
      </trkpt>
      <trkpt lat="41.87234" lon="26.01018">
        <ele>80.736912</ele>
        <time>2022-02-21T21:53:06.397Z</time>
      </trkpt>
      <trkpt lat="41.87249" lon="26.00776">
        <ele>81.236469</ele>
        <time>2022-02-21T21:53:56.936Z</time>
      </trkpt>
      <trkpt lat="41.87256" lon="26.0067">
        <ele>81.593847</ele>
        <time>2022-02-21T21:54:20.089Z</time>
      </trkpt>
      <trkpt lat="41.87262" lon="26.00561">
        <ele>82.100209</ele>
        <time>2022-02-21T21:54:44.743Z</time>
      </trkpt>
      <trkpt lat="41.87271" lon="26.0042">
        <ele>82.824542</ele>
        <time>2022-02-21T21:55:16.776Z</time>
      </trkpt>
      <trkpt lat="41.87276" lon="26.00324">
        <ele>82.714643</ele>
        <time>2022-02-21T21:55:37.528Z</time>
      </trkpt>
      <trkpt lat="41.87282" lon="26.00222">
        <ele>82.425246</ele>
        <time>2022-02-21T21:55:57.198Z</time>
      </trkpt>
      <trkpt lat="41.87288" lon="26.00138">
        <ele>81.843411</ele>
        <time>2022-02-21T21:56:11.454Z</time>
      </trkpt>
      <trkpt lat="41.87301" lon="26.00099">
        <ele>80.980145</ele>
        <time>2022-02-21T21:56:17.804Z</time>
      </trkpt>
      <trkpt lat="41.87308" lon="26.00044">
        <ele>79.870309</ele>
        <time>2022-02-21T21:56:25.956Z</time>
      </trkpt>
      <trkpt lat="41.87314" lon="26.00016">
        <ele>79.290221</ele>
        <time>2022-02-21T21:56:30.008Z</time>
      </trkpt>
      <trkpt lat="41.87311" lon="25.99989">
        <ele>78.752302</ele>
        <time>2022-02-21T21:56:34.078Z</time>
      </trkpt>
      <trkpt lat="41.87316" lon="25.99974">
        <ele>78.415909</ele>
        <time>2022-02-21T21:56:36.409Z</time>
      </trkpt>
      <trkpt lat="41.87321" lon="25.99959">
        <ele>78.089554</ele>
        <time>2022-02-21T21:56:38.934Z</time>
      </trkpt>
      <trkpt lat="41.87332" lon="25.99924">
        <ele>77.364897</ele>
        <time>2022-02-21T21:56:44.261Z</time>
      </trkpt>
      <trkpt lat="41.8768" lon="25.99094">
        <ele>66.283857</ele>
        <time>2022-02-21T21:59:19.661Z</time>
      </trkpt>
      <trkpt lat="41.88033" lon="25.98253">
        <ele>65.874413</ele>
        <time>2022-02-21T22:02:31.409Z</time>
      </trkpt>
      <trkpt lat="41.8806" lon="25.9822">
        <ele>66.030718</ele>
        <time>2022-02-21T22:02:41.711Z</time>
      </trkpt>
      <trkpt lat="41.88073" lon="25.98207">
        <ele>66.119444</ele>
        <time>2022-02-21T22:02:46.462Z</time>
      </trkpt>
      <trkpt lat="41.88144" lon="25.98126">
        <ele>66.614256</ele>
        <time>2022-02-21T22:03:14.245Z</time>
      </trkpt>
      <trkpt lat="41.88166" lon="25.98079">
        <ele>66.838698</ele>
        <time>2022-02-21T22:03:27.408Z</time>
      </trkpt>
      <trkpt lat="41.88196" lon="25.9797">
        <ele>67.960071</ele>
        <time>2022-02-21T22:03:56.586Z</time>
      </trkpt>
      <trkpt lat="41.88225" lon="25.97817">
        <ele>69.395356</ele>
        <time>2022-02-21T22:04:37.988Z</time>
      </trkpt>
      <trkpt lat="41.88229" lon="25.97787">
        <ele>69.58958</ele>
        <time>2022-02-21T22:04:45.913Z</time>
      </trkpt>
      <trkpt lat="41.88238" lon="25.97764">
        <ele>69.759109</ele>
        <time>2022-02-21T22:04:51.917Z</time>
      </trkpt>
      <trkpt lat="41.88307" lon="25.97597">
        <ele>70.761868</ele>
        <time>2022-02-21T22:05:34.042Z</time>
      </trkpt>
      <trkpt lat="41.88384" lon="25.97421">
        <ele>70.881569</ele>
        <time>2022-02-21T22:06:13.949Z</time>
      </trkpt>
      <trkpt lat="41.88439" lon="25.97329">
        <ele>71.073263</ele>
        <time>2022-02-21T22:06:38.478Z</time>
      </trkpt>
      <trkpt lat="41.89027" lon="25.9663">
        <ele>72.634016</ele>
        <time>2022-02-21T22:10:16.652Z</time>
      </trkpt>
      <trkpt lat="41.89082" lon="25.96567">
        <ele>72.528646</ele>
        <time>2022-02-21T22:10:35.153Z</time>
      </trkpt>
      <trkpt lat="41.89106" lon="25.96557">
        <ele>72.456825</ele>
        <time>2022-02-21T22:10:41.513Z</time>
      </trkpt>
      <trkpt lat="41.89145" lon="25.96539">
        <ele>72.334033</ele>
        <time>2022-02-21T22:10:52.560Z</time>
      </trkpt>
      <trkpt lat="41.8922" lon="25.96505">
        <ele>72.133067</ele>
        <time>2022-02-21T22:11:13.050Z</time>
      </trkpt>
      <trkpt lat="41.89252" lon="25.96478">
        <ele>72.121804</ele>
        <time>2022-02-21T22:11:22.869Z</time>
      </trkpt>
      <trkpt lat="41.8926" lon="25.96465">
        <ele>72.118068</ele>
        <time>2022-02-21T22:11:26.208Z</time>
      </trkpt>
      <trkpt lat="41.89289" lon="25.96418">
        <ele>72.104535</ele>
        <time>2022-02-21T22:11:38.689Z</time>
      </trkpt>
      <trkpt lat="41.89307" lon="25.96393">
        <ele>72.096882</ele>
        <time>2022-02-21T22:11:45.665Z</time>
      </trkpt>
      <trkpt lat="41.89425" lon="25.96205">
        <ele>72.858132</ele>
        <time>2022-02-21T22:12:41.388Z</time>
      </trkpt>
      <trkpt lat="41.89426" lon="25.96199">
        <ele>72.885331</ele>
        <time>2022-02-21T22:12:43.112Z</time>
      </trkpt>
      <trkpt lat="41.89418" lon="25.96178">
        <ele>72.984684</ele>
        <time>2022-02-21T22:12:48.814Z</time>
      </trkpt>
      <trkpt lat="41.89437" lon="25.96145">
        <ele>73.128827</ele>
        <time>2022-02-21T22:12:58.480Z</time>
      </trkpt>
      <trkpt lat="41.8969" lon="25.95614">
        <ele>73.959571</ele>
        <time>2022-02-21T22:15:08.183Z</time>
      </trkpt>
      <trkpt lat="41.89716" lon="25.9555">
        <ele>73.920362</ele>
        <time>2022-02-21T22:15:21.628Z</time>
      </trkpt>
      <trkpt lat="41.89795" lon="25.95317">
        <ele>72.691057</ele>
        <time>2022-02-21T22:16:07.454Z</time>
      </trkpt>
      <trkpt lat="41.8983" lon="25.95241">
        <ele>72.278073</ele>
        <time>2022-02-21T22:16:23.471Z</time>
      </trkpt>
      <trkpt lat="41.89869" lon="25.95188">
        <ele>71.932378</ele>
        <time>2022-02-21T22:16:36.939Z</time>
      </trkpt>
      <trkpt lat="41.89918" lon="25.95137">
        <ele>71.57219</ele>
        <time>2022-02-21T22:16:51.882Z</time>
      </trkpt>
      <trkpt lat="41.90334" lon="25.9471">
        <ele>69.786058</ele>
        <time>2022-02-21T22:19:03.564Z</time>
      </trkpt>
      <trkpt lat="41.90354" lon="25.9469">
        <ele>69.822956</ele>
        <time>2022-02-21T22:19:10.674Z</time>
      </trkpt>
      <trkpt lat="41.9057" lon="25.94469">
        <ele>70.505863</ele>
        <time>2022-02-21T22:20:27.903Z</time>
      </trkpt>
      <trkpt lat="41.90774" lon="25.94261">
        <ele>70.635519</ele>
        <time>2022-02-21T22:21:35.274Z</time>
      </trkpt>
      <trkpt lat="41.90961" lon="25.94071">
        <ele>71.741756</ele>
        <time>2022-02-21T22:22:43.390Z</time>
      </trkpt>
      <trkpt lat="41.90982" lon="25.94049">
        <ele>71.926763</ele>
        <time>2022-02-21T22:22:51.395Z</time>
      </trkpt>
      <trkpt lat="41.91108" lon="25.93921">
        <ele>73.430854</ele>
        <time>2022-02-21T22:23:39.652Z</time>
      </trkpt>
      <trkpt lat="41.91204" lon="25.93823">
        <ele>75.136593</ele>
        <time>2022-02-21T22:24:19.063Z</time>
      </trkpt>
      <trkpt lat="41.91306" lon="25.93719">
        <ele>79.371585</ele>
        <time>2022-02-21T22:25:13.711Z</time>
      </trkpt>
      <trkpt lat="41.91327" lon="25.93697">
        <ele>80.264685</ele>
        <time>2022-02-21T22:25:26.266Z</time>
      </trkpt>
      <trkpt lat="41.91344" lon="25.93679">
        <ele>80.996635</ele>
        <time>2022-02-21T22:25:36.910Z</time>
      </trkpt>
      <trkpt lat="41.91423" lon="25.93599">
        <ele>84.917771</ele>
        <time>2022-02-21T22:26:23.159Z</time>
      </trkpt>
      <trkpt lat="41.91449" lon="25.93572">
        <ele>86.218953</ele>
        <time>2022-02-21T22:26:38.585Z</time>
      </trkpt>
      <trkpt lat="41.91487" lon="25.93534">
        <ele>88.068991</ele>
        <time>2022-02-21T22:26:59.578Z</time>
      </trkpt>
      <trkpt lat="41.91509" lon="25.93509">
        <ele>88.832115</ele>
        <time>2022-02-21T22:27:11.730Z</time>
      </trkpt>
      <trkpt lat="41.9153" lon="25.93484">
        <ele>89.549621</ele>
        <time>2022-02-21T22:27:22.975Z</time>
      </trkpt>
      <trkpt lat="41.91561" lon="25.93442">
        <ele>90.705519</ele>
        <time>2022-02-21T22:27:40.022Z</time>
      </trkpt>
      <trkpt lat="41.9159" lon="25.93404">
        <ele>91.766999</ele>
        <time>2022-02-21T22:27:55.232Z</time>
      </trkpt>
      <trkpt lat="41.91609" lon="25.93378">
        <ele>92.47326</ele>
        <time>2022-02-21T22:28:05.305Z</time>
      </trkpt>
      <trkpt lat="41.9163" lon="25.9335">
        <ele>92.898675</ele>
        <time>2022-02-21T22:28:16.326Z</time>
      </trkpt>
      <trkpt lat="41.91681" lon="25.9328">
        <ele>93.527473</ele>
        <time>2022-02-21T22:28:41.915Z</time>
      </trkpt>
      <trkpt lat="41.91753" lon="25.93159">
        <ele>93.910293</ele>
        <time>2022-02-21T22:29:12.225Z</time>
      </trkpt>
      <trkpt lat="41.91776" lon="25.93118">
        <ele>93.432584</ele>
        <time>2022-02-21T22:29:20.574Z</time>
      </trkpt>
      <trkpt lat="41.91779" lon="25.93113">
        <ele>93.374865</ele>
        <time>2022-02-21T22:29:21.495Z</time>
      </trkpt>
      <trkpt lat="41.9182" lon="25.93039">
        <ele>92.493892</ele>
        <time>2022-02-21T22:29:36.600Z</time>
      </trkpt>
      <trkpt lat="41.91826" lon="25.93027">
        <ele>92.356319</ele>
        <time>2022-02-21T22:29:38.768Z</time>
      </trkpt>
      <trkpt lat="41.91842" lon="25.92996">
        <ele>92.001402</ele>
        <time>2022-02-21T22:29:44.845Z</time>
      </trkpt>
      <trkpt lat="41.91914" lon="25.92824">
        <ele>90.595531</ele>
        <time>2022-02-21T22:30:18.087Z</time>
      </trkpt>
      <trkpt lat="41.91938" lon="25.92765">
        <ele>90.290552</ele>
        <time>2022-02-21T22:30:31.672Z</time>
      </trkpt>
      <trkpt lat="41.91953" lon="25.92729">
        <ele>90.333829</ele>
        <time>2022-02-21T22:30:39.869Z</time>
      </trkpt>
      <trkpt lat="41.91989" lon="25.92645">
        <ele>90.436167</ele>
        <time>2022-02-21T22:30:59.996Z</time>
      </trkpt>
      <trkpt lat="41.92011" lon="25.92593">
        <ele>90.498604</ele>
        <time>2022-02-21T22:31:12.665Z</time>
      </trkpt>
      <trkpt lat="41.92019" lon="25.92573">
        <ele>90.522736</ele>
        <time>2022-02-21T22:31:17.526Z</time>
      </trkpt>
      <trkpt lat="41.92097" lon="25.92385">
        <ele>90.697152</ele>
        <time>2022-02-21T22:32:01.340Z</time>
      </trkpt>
      <trkpt lat="41.92115" lon="25.92343">
        <ele>90.664985</ele>
        <time>2022-02-21T22:32:10.829Z</time>
      </trkpt>
      <trkpt lat="41.92193" lon="25.92153">
        <ele>90.156706</ele>
        <time>2022-02-21T22:32:51.154Z</time>
      </trkpt>
      <trkpt lat="41.92271" lon="25.9196">
        <ele>89.923446</ele>
        <time>2022-02-21T22:33:33.366Z</time>
      </trkpt>
      <trkpt lat="41.92317" lon="25.91851">
        <ele>90.246634</ele>
        <time>2022-02-21T22:33:58.984Z</time>
      </trkpt>
      <trkpt lat="41.92344" lon="25.91785">
        <ele>90.506511</ele>
        <time>2022-02-21T22:34:15.550Z</time>
      </trkpt>
      <trkpt lat="41.92348" lon="25.91773">
        <ele>90.552512</ele>
        <time>2022-02-21T22:34:18.634Z</time>
      </trkpt>
      <trkpt lat="41.92359" lon="25.91733">
        <ele>90.699584</ele>
        <time>2022-02-21T22:34:28.482Z</time>
      </trkpt>
      <trkpt lat="41.92364" lon="25.91721">
        <ele>90.748656</ele>
        <time>2022-02-21T22:34:31.591Z</time>
      </trkpt>
      <trkpt lat="41.92368" lon="25.9171">
        <ele>90.794568</ele>
        <time>2022-02-21T22:34:34.320Z</time>
      </trkpt>
      <trkpt lat="41.92378" lon="25.91687">
        <ele>90.896778</ele>
        <time>2022-02-21T22:34:40.457Z</time>
      </trkpt>
      <trkpt lat="41.92426" lon="25.91575">
        <ele>91.395178</ele>
        <time>2022-02-21T22:35:09.380Z</time>
      </trkpt>
      <trkpt lat="41.92482" lon="25.91439">
        <ele>91.435729</ele>
        <time>2022-02-21T22:35:40.209Z</time>
      </trkpt>
      <trkpt lat="41.92516" lon="25.91358">
        <ele>91.192754</ele>
        <time>2022-02-21T22:35:57.339Z</time>
      </trkpt>
      <trkpt lat="41.92535" lon="25.91319">
        <ele>91.068955</ele>
        <time>2022-02-21T22:36:05.891Z</time>
      </trkpt>
      <trkpt lat="41.92544" lon="25.91306">
        <ele>91.014231</ele>
        <time>2022-02-21T22:36:08.968Z</time>
      </trkpt>
      <trkpt lat="41.92555" lon="25.91296">
        <ele>90.855939</ele>
        <time>2022-02-21T22:36:12.167Z</time>
      </trkpt>
      <trkpt lat="41.92564" lon="25.91288">
        <ele>90.730314</ele>
        <time>2022-02-21T22:36:14.731Z</time>
      </trkpt>
      <trkpt lat="41.92567" lon="25.91288">
        <ele>90.700432</ele>
        <time>2022-02-21T22:36:15.303Z</time>
      </trkpt>
      <trkpt lat="41.92569" lon="25.91286">
        <ele>90.671457</ele>
        <time>2022-02-21T22:36:15.860Z</time>
      </trkpt>
      <trkpt lat="41.92572" lon="25.91284">
        <ele>90.630082</ele>
        <time>2022-02-21T22:36:16.652Z</time>
      </trkpt>
      <trkpt lat="41.92576" lon="25.91272">
        <ele>90.511375</ele>
        <time>2022-02-21T22:36:18.941Z</time>
      </trkpt>
      <trkpt lat="41.92575" lon="25.91267">
        <ele>90.470323</ele>
        <time>2022-02-21T22:36:19.754Z</time>
      </trkpt>
      <trkpt lat="41.92575" lon="25.91264">
        <ele>90.445907</ele>
        <time>2022-02-21T22:36:20.217Z</time>
      </trkpt>
      <trkpt lat="41.9258" lon="25.91248">
        <ele>90.291247</ele>
        <time>2022-02-21T22:36:23.256Z</time>
      </trkpt>
      <trkpt lat="41.92586" lon="25.91234">
        <ele>90.150106</ele>
        <time>2022-02-21T22:36:25.924Z</time>
      </trkpt>
      <trkpt lat="41.92595" lon="25.91212">
        <ele>89.927433</ele>
        <time>2022-02-21T22:36:30.265Z</time>
      </trkpt>
      <trkpt lat="41.92639" lon="25.91133">
        <ele>89.05034</ele>
        <time>2022-02-21T22:36:46.931Z</time>
      </trkpt>
      <trkpt lat="41.92645" lon="25.91124">
        <ele>88.944619</ele>
        <time>2022-02-21T22:36:48.831Z</time>
      </trkpt>
      <trkpt lat="41.92707" lon="25.90986">
        <ele>87.101211</ele>
        <time>2022-02-21T22:37:14.363Z</time>
      </trkpt>
      <trkpt lat="41.92766" lon="25.90855">
        <ele>85.85381</ele>
        <time>2022-02-21T22:37:40.241Z</time>
      </trkpt>
      <trkpt lat="41.92772" lon="25.90843">
        <ele>85.796769</ele>
        <time>2022-02-21T22:37:42.940Z</time>
      </trkpt>
      <trkpt lat="41.9278" lon="25.90826">
        <ele>85.721404</ele>
        <time>2022-02-21T22:37:46.561Z</time>
      </trkpt>
      <trkpt lat="41.92808" lon="25.90765">
        <ele>85.444368</ele>
        <time>2022-02-21T22:37:59.864Z</time>
      </trkpt>
      <trkpt lat="41.92811" lon="25.90756">
        <ele>85.40625</ele>
        <time>2022-02-21T22:38:01.731Z</time>
      </trkpt>
      <trkpt lat="41.92838" lon="25.90698">
        <ele>85.168276</ele>
        <time>2022-02-21T22:38:14.993Z</time>
      </trkpt>
      <trkpt lat="41.92873" lon="25.90621">
        <ele>85.063793</ele>
        <time>2022-02-21T22:38:34.038Z</time>
      </trkpt>
      <trkpt lat="41.92903" lon="25.90557">
        <ele>84.975899</ele>
        <time>2022-02-21T22:38:49.266Z</time>
      </trkpt>
      <trkpt lat="41.92947" lon="25.90463">
        <ele>84.477351</ele>
        <time>2022-02-21T22:39:08.992Z</time>
      </trkpt>
      <trkpt lat="41.92963" lon="25.90434">
        <ele>84.127054</ele>
        <time>2022-02-21T22:39:15.603Z</time>
      </trkpt>
      <trkpt lat="41.92988" lon="25.90393">
        <ele>83.626948</ele>
        <time>2022-02-21T22:39:24.484Z</time>
      </trkpt>
      <trkpt lat="41.93052" lon="25.90284">
        <ele>82.069957</ele>
        <time>2022-02-21T22:39:46.933Z</time>
      </trkpt>
      <trkpt lat="41.9307" lon="25.90266">
        <ele>81.580824</ele>
        <time>2022-02-21T22:39:51.318Z</time>
      </trkpt>
      <trkpt lat="41.93084" lon="25.9026">
        <ele>81.22909</ele>
        <time>2022-02-21T22:39:54.406Z</time>
      </trkpt>
      <trkpt lat="41.93122" lon="25.90242">
        <ele>80.311524</ele>
        <time>2022-02-21T22:40:02.657Z</time>
      </trkpt>
      <trkpt lat="41.93126" lon="25.9024">
        <ele>80.22668</ele>
        <time>2022-02-21T22:40:03.335Z</time>
      </trkpt>
      <trkpt lat="41.93135" lon="25.90234">
        <ele>80.009395</ele>
        <time>2022-02-21T22:40:05.385Z</time>
      </trkpt>
      <trkpt lat="41.93157" lon="25.9022">
        <ele>79.443087</ele>
        <time>2022-02-21T22:40:10.451Z</time>
      </trkpt>
      <trkpt lat="41.93169" lon="25.90213">
        <ele>79.160963</ele>
        <time>2022-02-21T22:40:13.070Z</time>
      </trkpt>
      <trkpt lat="41.93186" lon="25.90201">
        <ele>78.714247</ele>
        <time>2022-02-21T22:40:17.169Z</time>
      </trkpt>
      <trkpt lat="41.93191" lon="25.90198">
        <ele>78.600351</ele>
        <time>2022-02-21T22:40:18.134Z</time>
      </trkpt>
      <trkpt lat="41.93205" lon="25.90189">
        <ele>78.334941</ele>
        <time>2022-02-21T22:40:21.579Z</time>
      </trkpt>
      <trkpt lat="41.93214" lon="25.90186">
        <ele>78.202915</ele>
        <time>2022-02-21T22:40:23.394Z</time>
      </trkpt>
      <trkpt lat="41.9322" lon="25.90184">
        <ele>78.108772</ele>
        <time>2022-02-21T22:40:24.784Z</time>
      </trkpt>
      <trkpt lat="41.93228" lon="25.90185">
        <ele>77.982837</ele>
        <time>2022-02-21T22:40:26.479Z</time>
      </trkpt>
      <trkpt lat="41.93229" lon="25.90186">
        <ele>77.967453</ele>
        <time>2022-02-21T22:40:26.718Z</time>
      </trkpt>
      <trkpt lat="41.93232" lon="25.90187">
        <ele>77.917311</ele>
        <time>2022-02-21T22:40:27.484Z</time>
      </trkpt>
      <trkpt lat="41.93236" lon="25.90188">
        <ele>77.866814</ele>
        <time>2022-02-21T22:40:28.245Z</time>
      </trkpt>
      <trkpt lat="41.93241" lon="25.90193">
        <ele>77.765483</ele>
        <time>2022-02-21T22:40:29.765Z</time>
      </trkpt>
      <trkpt lat="41.93248" lon="25.90197">
        <ele>77.655158</ele>
        <time>2022-02-21T22:40:31.433Z</time>
      </trkpt>
      <trkpt lat="41.93254" lon="25.90198">
        <ele>77.573345</ele>
        <time>2022-02-21T22:40:32.672Z</time>
      </trkpt>
      <trkpt lat="41.93259" lon="25.90199">
        <ele>77.494898</ele>
        <time>2022-02-21T22:40:33.688Z</time>
      </trkpt>
      <trkpt lat="41.9327" lon="25.90181">
        <ele>77.249058</ele>
        <time>2022-02-21T22:40:37.414Z</time>
      </trkpt>
      <trkpt lat="41.93285" lon="25.9016">
        <ele>76.923708</ele>
        <time>2022-02-21T22:40:42.243Z</time>
      </trkpt>
      <trkpt lat="41.93313" lon="25.90134">
        <ele>76.417764</ele>
        <time>2022-02-21T22:40:49.730Z</time>
      </trkpt>
      <trkpt lat="41.93323" lon="25.90126">
        <ele>76.247983</ele>
        <time>2022-02-21T22:40:52.288Z</time>
      </trkpt>
      <trkpt lat="41.93344" lon="25.90112">
        <ele>75.896652</ele>
        <time>2022-02-21T22:40:57.818Z</time>
      </trkpt>
      <trkpt lat="41.93364" lon="25.90098">
        <ele>75.952795</ele>
        <time>2022-02-21T22:41:03.269Z</time>
      </trkpt>
      <trkpt lat="41.93368" lon="25.90095">
        <ele>75.975717</ele>
        <time>2022-02-21T22:41:04.453Z</time>
      </trkpt>
      <trkpt lat="41.9345" lon="25.90041">
        <ele>76.434784</ele>
        <time>2022-02-21T22:41:30.406Z</time>
      </trkpt>
      <trkpt lat="41.93452" lon="25.9004">
        <ele>76.445372</ele>
        <time>2022-02-21T22:41:31.065Z</time>
      </trkpt>
      <trkpt lat="41.93546" lon="25.89978">
        <ele>77.603066</ele>
        <time>2022-02-21T22:42:06.434Z</time>
      </trkpt>
      <trkpt lat="41.93592" lon="25.89947">
        <ele>78.615509</ele>
        <time>2022-02-21T22:42:25.274Z</time>
      </trkpt>
      <trkpt lat="41.93631" lon="25.89921">
        <ele>79.480042</ele>
        <time>2022-02-21T22:42:41.783Z</time>
      </trkpt>
      <trkpt lat="41.9373" lon="25.89856">
        <ele>81.647426</ele>
        <time>2022-02-21T22:43:22.353Z</time>
      </trkpt>
      <trkpt lat="41.93778" lon="25.89824">
        <ele>82.720825</ele>
        <time>2022-02-21T22:43:41.172Z</time>
      </trkpt>
      <trkpt lat="41.93829" lon="25.8979">
        <ele>83.859008</ele>
        <time>2022-02-21T22:44:01.633Z</time>
      </trkpt>
      <trkpt lat="41.93929" lon="25.89724">
        <ele>86.228781</ele>
        <time>2022-02-21T22:44:43.003Z</time>
      </trkpt>
      <trkpt lat="41.9396" lon="25.89704">
        <ele>86.949111</ele>
        <time>2022-02-21T22:44:55.474Z</time>
      </trkpt>
      <trkpt lat="41.93975" lon="25.89694">
        <ele>87.307975</ele>
        <time>2022-02-21T22:45:01.643Z</time>
      </trkpt>
      <trkpt lat="41.94023" lon="25.8966">
        <ele>88.790419</ele>
        <time>2022-02-21T22:45:21.647Z</time>
      </trkpt>
      <trkpt lat="41.9404" lon="25.89647">
        <ele>89.365924</ele>
        <time>2022-02-21T22:45:29.008Z</time>
      </trkpt>
      <trkpt lat="41.9405" lon="25.89639">
        <ele>89.742905</ele>
        <time>2022-02-21T22:45:33.829Z</time>
      </trkpt>
      <trkpt lat="41.94069" lon="25.89621">
        <ele>90.457368</ele>
        <time>2022-02-21T22:45:43.449Z</time>
      </trkpt>
      <trkpt lat="41.94082" lon="25.89607">
        <ele>90.946375</ele>
        <time>2022-02-21T22:45:50.029Z</time>
      </trkpt>
      <trkpt lat="41.94087" lon="25.89601">
        <ele>91.143207</ele>
        <time>2022-02-21T22:45:52.932Z</time>
      </trkpt>
      <trkpt lat="41.94099" lon="25.89587">
        <ele>91.633345</ele>
        <time>2022-02-21T22:45:59.588Z</time>
      </trkpt>
      <trkpt lat="41.94117" lon="25.89557">
        <ele>92.520614</ele>
        <time>2022-02-21T22:46:12.224Z</time>
      </trkpt>
      <trkpt lat="41.94179" lon="25.89474">
        <ele>96.660863</ele>
        <time>2022-02-21T22:46:53.111Z</time>
      </trkpt>
      <trkpt lat="41.94308" lon="25.89296">
        <ele>107.506522</ele>
        <time>2022-02-21T22:48:36.979Z</time>
      </trkpt>
      <trkpt lat="41.94348" lon="25.8921">
        <ele>112.542428</ele>
        <time>2022-02-21T22:49:22.417Z</time>
      </trkpt>
      <trkpt lat="41.9437" lon="25.89114">
        <ele>117.499109</ele>
        <time>2022-02-21T22:50:07.560Z</time>
      </trkpt>
      <trkpt lat="41.94371" lon="25.89041">
        <ele>121.070261</ele>
        <time>2022-02-21T22:50:40.051Z</time>
      </trkpt>
      <trkpt lat="41.94364" lon="25.88971">
        <ele>124.577878</ele>
        <time>2022-02-21T22:51:11.257Z</time>
      </trkpt>
      <trkpt lat="41.94338" lon="25.88804">
        <ele>131.512407</ele>
        <time>2022-02-21T22:52:19.957Z</time>
      </trkpt>
      <trkpt lat="41.94316" lon="25.88669">
        <ele>136.403234</ele>
        <time>2022-02-21T22:53:09.096Z</time>
      </trkpt>
      <trkpt lat="41.94294" lon="25.88549">
        <ele>139.577058</ele>
        <time>2022-02-21T22:53:49.069Z</time>
      </trkpt>
      <trkpt lat="41.9423" lon="25.88313">
        <ele>145.277299</ele>
        <time>2022-02-21T22:55:05.614Z</time>
      </trkpt>
      <trkpt lat="41.94215" lon="25.88234">
        <ele>146.988758</ele>
        <time>2022-02-21T22:55:29.260Z</time>
      </trkpt>
      <trkpt lat="41.94215" lon="25.88176">
        <ele>147.910301</ele>
        <time>2022-02-21T22:55:45.659Z</time>
      </trkpt>
      <trkpt lat="41.94247" lon="25.87718">
        <ele>154.977963</ele>
        <time>2022-02-21T22:57:49.434Z</time>
      </trkpt>
      <trkpt lat="41.94248" lon="25.8768">
        <ele>155.697237</ele>
        <time>2022-02-21T22:58:00.065Z</time>
      </trkpt>
      <trkpt lat="41.94248" lon="25.87672">
        <ele>155.844777</ele>
        <time>2022-02-21T22:58:02.089Z</time>
      </trkpt>
      <trkpt lat="41.94247" lon="25.87557">
        <ele>157.981006</ele>
        <time>2022-02-21T22:58:34.954Z</time>
      </trkpt>
      <trkpt lat="41.94239" lon="25.87444">
        <ele>160.217363</ele>
        <time>2022-02-21T22:59:10.671Z</time>
      </trkpt>
      <trkpt lat="41.94214" lon="25.87273">
        <ele>163.752311</ele>
        <time>2022-02-21T23:00:02.344Z</time>
      </trkpt>
      <trkpt lat="41.94201" lon="25.87208">
        <ele>164.911911</ele>
        <time>2022-02-21T23:00:21.030Z</time>
      </trkpt>
      <trkpt lat="41.94197" lon="25.87186">
        <ele>165.307232</ele>
        <time>2022-02-21T23:00:25.536Z</time>
      </trkpt>
      <trkpt lat="41.94182" lon="25.87116">
        <ele>166.564853</ele>
        <time>2022-02-21T23:00:46.265Z</time>
      </trkpt>
      <trkpt lat="41.94177" lon="25.87093">
        <ele>166.99018</ele>
        <time>2022-02-21T23:00:51.411Z</time>
      </trkpt>
      <trkpt lat="41.9417" lon="25.87064">
        <ele>167.50944</ele>
        <time>2022-02-21T23:01:01.110Z</time>
      </trkpt>
      <trkpt lat="41.9414" lon="25.86954">
        <ele>171.238689</ele>
        <time>2022-02-21T23:01:37.104Z</time>
      </trkpt>
      <trkpt lat="41.94091" lon="25.86817">
        <ele>176.781315</ele>
        <time>2022-02-21T23:02:40.105Z</time>
      </trkpt>
      <trkpt lat="41.94081" lon="25.86783">
        <ele>178.164108</ele>
        <time>2022-02-21T23:02:56.299Z</time>
      </trkpt>
      <trkpt lat="41.94066" lon="25.8668">
        <ele>182.086</ele>
        <time>2022-02-21T23:03:39.371Z</time>
      </trkpt>
      <trkpt lat="41.94067" lon="25.8664">
        <ele>183.59903</ele>
        <time>2022-02-21T23:03:54.711Z</time>
      </trkpt>
      <trkpt lat="41.94078" lon="25.86568">
        <ele>186.000616</ele>
        <time>2022-02-21T23:04:18.647Z</time>
      </trkpt>
      <trkpt lat="41.94099" lon="25.86498">
        <ele>186.495956</ele>
        <time>2022-02-21T23:04:38.855Z</time>
      </trkpt>
      <trkpt lat="41.94181" lon="25.86283">
        <ele>187.328635</ele>
        <time>2022-02-21T23:05:25.307Z</time>
      </trkpt>
      <trkpt lat="41.94197" lon="25.86244">
        <ele>187.24189</ele>
        <time>2022-02-21T23:05:33.099Z</time>
      </trkpt>
      <trkpt lat="41.94215" lon="25.86207">
        <ele>187.154116</ele>
        <time>2022-02-21T23:05:41.176Z</time>
      </trkpt>
      <trkpt lat="41.94237" lon="25.86173">
        <ele>187.064616</ele>
        <time>2022-02-21T23:05:49.626Z</time>
      </trkpt>
      <trkpt lat="41.94285" lon="25.86121">
        <ele>187.607603</ele>
        <time>2022-02-21T23:06:06.649Z</time>
      </trkpt>
      <trkpt lat="41.94394" lon="25.86046">
        <ele>189.146017</ele>
        <time>2022-02-21T23:06:49.297Z</time>
      </trkpt>
      <trkpt lat="41.94406" lon="25.86038">
        <ele>189.298636</ele>
        <time>2022-02-21T23:06:54.236Z</time>
      </trkpt>
      <trkpt lat="41.9445" lon="25.86009">
        <ele>189.713667</ele>
        <time>2022-02-21T23:07:11.840Z</time>
      </trkpt>
      <trkpt lat="41.94496" lon="25.85968">
        <ele>190.171893</ele>
        <time>2022-02-21T23:07:29.887Z</time>
      </trkpt>
      <trkpt lat="41.94534" lon="25.85919">
        <ele>190.61506</ele>
        <time>2022-02-21T23:07:45.452Z</time>
      </trkpt>
      <trkpt lat="41.94562" lon="25.85863">
        <ele>190.236973</ele>
        <time>2022-02-21T23:07:57.194Z</time>
      </trkpt>
      <trkpt lat="41.94584" lon="25.85797">
        <ele>189.212086</ele>
        <time>2022-02-21T23:08:08.706Z</time>
      </trkpt>
      <trkpt lat="41.94596" lon="25.85717">
        <ele>188.056491</ele>
        <time>2022-02-21T23:08:21.017Z</time>
      </trkpt>
      <trkpt lat="41.94627" lon="25.85268">
        <ele>181.140059</ele>
        <time>2022-02-21T23:09:29.822Z</time>
      </trkpt>
      <trkpt lat="41.94629" lon="25.84885">
        <ele>179.824881</ele>
        <time>2022-02-21T23:10:41.798Z</time>
      </trkpt>
      <trkpt lat="41.94621" lon="25.84774">
        <ele>180.392877</ele>
        <time>2022-02-21T23:11:06.477Z</time>
      </trkpt>
      <trkpt lat="41.94476" lon="25.84186">
        <ele>187.188443</ele>
        <time>2022-02-21T23:13:43.998Z</time>
      </trkpt>
      <trkpt lat="41.94465" lon="25.84133">
        <ele>187.890908</ele>
        <time>2022-02-21T23:13:59.159Z</time>
      </trkpt>
      <trkpt lat="41.94456" lon="25.84081">
        <ele>188.556058</ele>
        <time>2022-02-21T23:14:13.460Z</time>
      </trkpt>
      <trkpt lat="41.94384" lon="25.83589">
        <ele>193.809144</ele>
        <time>2022-02-21T23:16:19.100Z</time>
      </trkpt>
      <trkpt lat="41.94351" lon="25.82778">
        <ele>197.098797</ele>
        <time>2022-02-21T23:19:11.413Z</time>
      </trkpt>
      <trkpt lat="41.94326" lon="25.82685">
        <ele>198.546491</ele>
        <time>2022-02-21T23:19:37.761Z</time>
      </trkpt>
      <trkpt lat="41.94261" lon="25.82553">
        <ele>201.051011</ele>
        <time>2022-02-21T23:20:25.288Z</time>
      </trkpt>
      <trkpt lat="41.94204" lon="25.82451">
        <ele>203.363004</ele>
        <time>2022-02-21T23:21:02.658Z</time>
      </trkpt>
      <trkpt lat="41.94201" lon="25.82446">
        <ele>203.467716</ele>
        <time>2022-02-21T23:21:04.176Z</time>
      </trkpt>
      <trkpt lat="41.94152" lon="25.82353">
        <ele>204.902568</ele>
        <time>2022-02-21T23:21:34.810Z</time>
      </trkpt>
      <trkpt lat="41.94113" lon="25.8226">
        <ele>205.661551</ele>
        <time>2022-02-21T23:21:59.945Z</time>
      </trkpt>
      <trkpt lat="41.94096" lon="25.82186">
        <ele>206.203844</ele>
        <time>2022-02-21T23:22:16.027Z</time>
      </trkpt>
      <trkpt lat="41.94092" lon="25.82104">
        <ele>205.378363</ele>
        <time>2022-02-21T23:22:31.468Z</time>
      </trkpt>
      <trkpt lat="41.94096" lon="25.82023">
        <ele>204.572234</ele>
        <time>2022-02-21T23:22:44.954Z</time>
      </trkpt>
      <trkpt lat="41.94111" lon="25.8195">
        <ele>203.809757</ele>
        <time>2022-02-21T23:22:56.802Z</time>
      </trkpt>
      <trkpt lat="41.94212" lon="25.81658">
        <ele>195.532973</ele>
        <time>2022-02-21T23:23:42.494Z</time>
      </trkpt>
      <trkpt lat="41.94231" lon="25.81585">
        <ele>193.469267</ele>
        <time>2022-02-21T23:23:53.435Z</time>
      </trkpt>
      <trkpt lat="41.94349" lon="25.80515">
        <ele>166.714745</ele>
        <time>2022-02-21T23:26:29.813Z</time>
      </trkpt>
      <trkpt lat="41.94346" lon="25.80404">
        <ele>164.536309</ele>
        <time>2022-02-21T23:26:46.282Z</time>
      </trkpt>
      <trkpt lat="41.9433" lon="25.80318">
        <ele>162.796205</ele>
        <time>2022-02-21T23:26:59.792Z</time>
      </trkpt>
      <trkpt lat="41.94309" lon="25.8025">
        <ele>162.107439</ele>
        <time>2022-02-21T23:27:11.321Z</time>
      </trkpt>
      <trkpt lat="41.94261" lon="25.80157">
        <ele>161.325688</ele>
        <time>2022-02-21T23:27:30.646Z</time>
      </trkpt>
      <trkpt lat="41.94207" lon="25.80067">
        <ele>161.408496</ele>
        <time>2022-02-21T23:27:54.379Z</time>
      </trkpt>
      <trkpt lat="41.94138" lon="25.7995">
        <ele>163.233056</ele>
        <time>2022-02-21T23:28:32.796Z</time>
      </trkpt>
      <trkpt lat="41.94109" lon="25.79901">
        <ele>164.247864</ele>
        <time>2022-02-21T23:28:51.809Z</time>
      </trkpt>
      <trkpt lat="41.94073" lon="25.79861">
        <ele>165.988022</ele>
        <time>2022-02-21T23:29:12.244Z</time>
      </trkpt>
      <trkpt lat="41.93956" lon="25.79776">
        <ele>170.916953</ele>
        <time>2022-02-21T23:30:12.813Z</time>
      </trkpt>
      <trkpt lat="41.93938" lon="25.7977">
        <ele>171.679074</ele>
        <time>2022-02-21T23:30:21.743Z</time>
      </trkpt>
      <trkpt lat="41.9389" lon="25.7977">
        <ele>173.663423</ele>
        <time>2022-02-21T23:30:44.901Z</time>
      </trkpt>
      <trkpt lat="41.93788" lon="25.7979">
        <ele>177.813251</ele>
        <time>2022-02-21T23:31:32.594Z</time>
      </trkpt>
      <trkpt lat="41.93763" lon="25.79788">
        <ele>178.424334</ele>
        <time>2022-02-21T23:31:43.758Z</time>
      </trkpt>
      <trkpt lat="41.93716" lon="25.79767">
        <ele>179.623136</ele>
        <time>2022-02-21T23:32:04.524Z</time>
      </trkpt>
      <trkpt lat="41.93692" lon="25.79748">
        <ele>180.298323</ele>
        <time>2022-02-21T23:32:15.721Z</time>
      </trkpt>
      <trkpt lat="41.93669" lon="25.7972">
        <ele>181.030768</ele>
        <time>2022-02-21T23:32:27.359Z</time>
      </trkpt>
      <trkpt lat="41.93571" lon="25.79525">
        <ele>181.698698</ele>
        <time>2022-02-21T23:33:18.376Z</time>
      </trkpt>
      <trkpt lat="41.93536" lon="25.79469">
        <ele>181.371484</ele>
        <time>2022-02-21T23:33:29.664Z</time>
      </trkpt>
      <trkpt lat="41.9349" lon="25.79429">
        <ele>179.280984</ele>
        <time>2022-02-21T23:33:40.549Z</time>
      </trkpt>
      <trkpt lat="41.93461" lon="25.79414">
        <ele>178.091571</ele>
        <time>2022-02-21T23:33:46.476Z</time>
      </trkpt>
      <trkpt lat="41.93404" lon="25.79402">
        <ele>175.91117</ele>
        <time>2022-02-21T23:33:57.059Z</time>
      </trkpt>
      <trkpt lat="41.93226" lon="25.79385">
        <ele>167.450784</ele>
        <time>2022-02-21T23:34:29.591Z</time>
      </trkpt>
      <trkpt lat="41.9317" lon="25.79387">
        <ele>164.661272</ele>
        <time>2022-02-21T23:34:39.652Z</time>
      </trkpt>
      <trkpt lat="41.93122" lon="25.79406">
        <ele>162.062434</ele>
        <time>2022-02-21T23:34:48.705Z</time>
      </trkpt>
      <trkpt lat="41.92893" lon="25.79569">
        <ele>148.428806</ele>
        <time>2022-02-21T23:35:35.307Z</time>
      </trkpt>
      <trkpt lat="41.92849" lon="25.79592">
        <ele>146.124082</ele>
        <time>2022-02-21T23:35:43.706Z</time>
      </trkpt>
      <trkpt lat="41.92822" lon="25.79597">
        <ele>144.923065</ele>
        <time>2022-02-21T23:35:48.612Z</time>
      </trkpt>
      <trkpt lat="41.92779" lon="25.7959">
        <ele>142.99684</ele>
        <time>2022-02-21T23:35:56.572Z</time>
      </trkpt>
      <trkpt lat="41.92738" lon="25.79563">
        <ele>140.993458</ele>
        <time>2022-02-21T23:36:04.986Z</time>
      </trkpt>
      <trkpt lat="41.92723" lon="25.79545">
        <ele>140.087152</ele>
        <time>2022-02-21T23:36:08.867Z</time>
      </trkpt>
      <trkpt lat="41.92709" lon="25.79523">
        <ele>139.137688</ele>
        <time>2022-02-21T23:36:13.003Z</time>
      </trkpt>
      <trkpt lat="41.92691" lon="25.79472">
        <ele>138.328954</ele>
        <time>2022-02-21T23:36:21.278Z</time>
      </trkpt>
      <trkpt lat="41.92682" lon="25.79402">
        <ele>137.374991</ele>
        <time>2022-02-21T23:36:32.280Z</time>
      </trkpt>
      <trkpt lat="41.92679" lon="25.79356">
        <ele>136.756714</ele>
        <time>2022-02-21T23:36:39.789Z</time>
      </trkpt>
      <trkpt lat="41.92677" lon="25.79324">
        <ele>136.320641</ele>
        <time>2022-02-21T23:36:45.293Z</time>
      </trkpt>
      <trkpt lat="41.92623" lon="25.78396">
        <ele>134.814601</ele>
        <time>2022-02-21T23:39:46.948Z</time>
      </trkpt>
      <trkpt lat="41.92608" lon="25.78155">
        <ele>134.132873</ele>
        <time>2022-02-21T23:40:30.893Z</time>
      </trkpt>
      <trkpt lat="41.92604" lon="25.78079">
        <ele>133.889187</ele>
        <time>2022-02-21T23:40:45.507Z</time>
      </trkpt>
      <trkpt lat="41.92604" lon="25.77975">
        <ele>133.939408</ele>
        <time>2022-02-21T23:41:06.074Z</time>
      </trkpt>
      <trkpt lat="41.92618" lon="25.7787">
        <ele>133.991527</ele>
        <time>2022-02-21T23:41:28.276Z</time>
      </trkpt>
      <trkpt lat="41.92717" lon="25.77526">
        <ele>134.194317</ele>
        <time>2022-02-21T23:42:42.530Z</time>
      </trkpt>
      <trkpt lat="41.92728" lon="25.77478">
        <ele>134.182098</ele>
        <time>2022-02-21T23:42:52.457Z</time>
      </trkpt>
      <trkpt lat="41.92737" lon="25.77427">
        <ele>134.169571</ele>
        <time>2022-02-21T23:43:02.545Z</time>
      </trkpt>
      <trkpt lat="41.92769" lon="25.77178">
        <ele>134.120874</ele>
        <time>2022-02-21T23:43:51.986Z</time>
      </trkpt>
      <trkpt lat="41.92779" lon="25.7713">
        <ele>134.158885</ele>
        <time>2022-02-21T23:44:02.365Z</time>
      </trkpt>
      <trkpt lat="41.92806" lon="25.7705">
        <ele>134.362814</ele>
        <time>2022-02-21T23:44:20.891Z</time>
      </trkpt>
      <trkpt lat="41.92856" lon="25.76958">
        <ele>134.625983</ele>
        <time>2022-02-21T23:44:45.245Z</time>
      </trkpt>
      <trkpt lat="41.93041" lon="25.76711">
        <ele>134.862538</ele>
        <time>2022-02-21T23:45:56.551Z</time>
      </trkpt>
      <trkpt lat="41.93089" lon="25.76607">
        <ele>134.685623</ele>
        <time>2022-02-21T23:46:19.454Z</time>
      </trkpt>
      <trkpt lat="41.93117" lon="25.7649">
        <ele>134.517373</ele>
        <time>2022-02-21T23:46:42.280Z</time>
      </trkpt>
      <trkpt lat="41.93166" lon="25.76142">
        <ele>134.347377</ele>
        <time>2022-02-21T23:47:51.797Z</time>
      </trkpt>
      <trkpt lat="41.9322" lon="25.75754">
        <ele>135.435072</ele>
        <time>2022-02-21T23:49:15.612Z</time>
      </trkpt>
      <trkpt lat="41.93267" lon="25.75422">
        <ele>137.067157</ele>
        <time>2022-02-21T23:50:30.544Z</time>
      </trkpt>
      <trkpt lat="41.93283" lon="25.75303">
        <ele>137.881778</ele>
        <time>2022-02-21T23:50:58.693Z</time>
      </trkpt>
      <trkpt lat="41.93305" lon="25.75142">
        <ele>139.05241</ele>
        <time>2022-02-21T23:51:37.058Z</time>
      </trkpt>
      <trkpt lat="41.93307" lon="25.75079">
        <ele>139.517993</ele>
        <time>2022-02-21T23:51:51.848Z</time>
      </trkpt>
      <trkpt lat="41.93303" lon="25.75019">
        <ele>139.96286</ele>
        <time>2022-02-21T23:52:05.960Z</time>
      </trkpt>
      <trkpt lat="41.93285" lon="25.74928">
        <ele>140.649921</ele>
        <time>2022-02-21T23:52:27.899Z</time>
      </trkpt>
      <trkpt lat="41.93263" lon="25.74867">
        <ele>141.229546</ele>
        <time>2022-02-21T23:52:43.936Z</time>
      </trkpt>
      <trkpt lat="41.93227" lon="25.74801">
        <ele>141.953338</ele>
        <time>2022-02-21T23:53:03.571Z</time>
      </trkpt>
      <trkpt lat="41.93084" lon="25.74599">
        <ele>144.186892</ele>
        <time>2022-02-21T23:54:11.262Z</time>
      </trkpt>
      <trkpt lat="41.93044" lon="25.74549">
        <ele>144.672171</ele>
        <time>2022-02-21T23:54:27.548Z</time>
      </trkpt>
      <trkpt lat="41.93038" lon="25.74543">
        <ele>144.636671</ele>
        <time>2022-02-21T23:54:29.955Z</time>
      </trkpt>
      <trkpt lat="41.93022" lon="25.74527">
        <ele>144.542003</ele>
        <time>2022-02-21T23:54:35.485Z</time>
      </trkpt>
      <trkpt lat="41.92973" lon="25.7449">
        <ele>144.27427</ele>
        <time>2022-02-21T23:54:50.949Z</time>
      </trkpt>
      <trkpt lat="41.92639" lon="25.74295">
        <ele>142.37022</ele>
        <time>2022-02-21T23:56:17.625Z</time>
      </trkpt>
      <trkpt lat="41.92593" lon="25.74259">
        <ele>142.013299</ele>
        <time>2022-02-21T23:56:30.546Z</time>
      </trkpt>
      <trkpt lat="41.92547" lon="25.74209">
        <ele>141.769141</ele>
        <time>2022-02-21T23:56:45.132Z</time>
      </trkpt>
      <trkpt lat="41.9251" lon="25.74149">
        <ele>141.72573</ele>
        <time>2022-02-21T23:56:59.942Z</time>
      </trkpt>
      <trkpt lat="41.9248" lon="25.7408">
        <ele>141.680627</ele>
        <time>2022-02-21T23:57:16.028Z</time>
      </trkpt>
      <trkpt lat="41.92363" lon="25.73671">
        <ele>142.377995</ele>
        <time>2022-02-21T23:58:47.987Z</time>
      </trkpt>
      <trkpt lat="41.92356" lon="25.73635">
        <ele>142.414851</ele>
        <time>2022-02-21T23:58:55.273Z</time>
      </trkpt>
      <trkpt lat="41.92353" lon="25.73615">
        <ele>142.434867</ele>
        <time>2022-02-21T23:58:59.299Z</time>
      </trkpt>
      <trkpt lat="41.92351" lon="25.73602">
        <ele>142.448917</ele>
        <time>2022-02-21T23:59:01.991Z</time>
      </trkpt>
      <trkpt lat="41.92346" lon="25.73516">
        <ele>142.327653</ele>
        <time>2022-02-21T23:59:18.590Z</time>
      </trkpt>
      <trkpt lat="41.92346" lon="25.73489">
        <ele>142.264869</ele>
        <time>2022-02-21T23:59:23.576Z</time>
      </trkpt>
      <trkpt lat="41.92347" lon="25.73464">
        <ele>142.207143</ele>
        <time>2022-02-21T23:59:28.239Z</time>
      </trkpt>
      <trkpt lat="41.92362" lon="25.73369">
        <ele>141.981036</ele>
        <time>2022-02-21T23:59:46.315Z</time>
      </trkpt>
      <trkpt lat="41.92423" lon="25.73115">
        <ele>141.23339</ele>
        <time>2022-02-22T00:00:36.128Z</time>
      </trkpt>
      <trkpt lat="41.92432" lon="25.73082">
        <ele>141.176582</ele>
        <time>2022-02-22T00:00:42.953Z</time>
      </trkpt>
      <trkpt lat="41.92437" lon="25.73058">
        <ele>141.144008</ele>
        <time>2022-02-22T00:00:47.193Z</time>
      </trkpt>
      <trkpt lat="41.9244" lon="25.73035">
        <ele>141.112087</ele>
        <time>2022-02-22T00:00:52.073Z</time>
      </trkpt>
      <trkpt lat="41.92444" lon="25.73012">
        <ele>141.079984</ele>
        <time>2022-02-22T00:00:56.261Z</time>
      </trkpt>
      <trkpt lat="41.92446" lon="25.72988">
        <ele>141.047333</ele>
        <time>2022-02-22T00:01:01.334Z</time>
      </trkpt>
      <trkpt lat="41.92447" lon="25.72965">
        <ele>141.015911</ele>
        <time>2022-02-22T00:01:05.458Z</time>
      </trkpt>
      <trkpt lat="41.92447" lon="25.72942">
        <ele>140.984742</ele>
        <time>2022-02-22T00:01:10.355Z</time>
      </trkpt>
      <trkpt lat="41.92445" lon="25.72897">
        <ele>140.924162</ele>
        <time>2022-02-22T00:01:19.056Z</time>
      </trkpt>
      <trkpt lat="41.92443" lon="25.72875">
        <ele>140.894504</ele>
        <time>2022-02-22T00:01:23.224Z</time>
      </trkpt>
      <trkpt lat="41.92438" lon="25.72851">
        <ele>140.906899</ele>
        <time>2022-02-22T00:01:28.269Z</time>
      </trkpt>
      <trkpt lat="41.92433" lon="25.72826">
        <ele>140.926021</ele>
        <time>2022-02-22T00:01:33.226Z</time>
      </trkpt>
      <trkpt lat="41.92413" lon="25.72755">
        <ele>140.983712</ele>
        <time>2022-02-22T00:01:49.064Z</time>
      </trkpt>
      <trkpt lat="41.92404" lon="25.72723">
        <ele>141.009707</ele>
        <time>2022-02-22T00:01:56.300Z</time>
      </trkpt>
      <trkpt lat="41.92387" lon="25.72664">
        <ele>141.05695</ele>
        <time>2022-02-22T00:02:09.104Z</time>
      </trkpt>
      <trkpt lat="41.92376" lon="25.72628">
        <ele>141.081288</ele>
        <time>2022-02-22T00:02:17.013Z</time>
      </trkpt>
      <trkpt lat="41.92358" lon="25.72563">
        <ele>141.113764</ele>
        <time>2022-02-22T00:02:30.517Z</time>
      </trkpt>
      <trkpt lat="41.92302" lon="25.72368">
        <ele>141.252286</ele>
        <time>2022-02-22T00:03:12.769Z</time>
      </trkpt>
      <trkpt lat="41.92242" lon="25.72167">
        <ele>141.425138</ele>
        <time>2022-02-22T00:03:57.314Z</time>
      </trkpt>
      <trkpt lat="41.92235" lon="25.72142">
        <ele>141.378996</ele>
        <time>2022-02-22T00:04:02.528Z</time>
      </trkpt>
      <trkpt lat="41.92222" lon="25.72106">
        <ele>141.310499</ele>
        <time>2022-02-22T00:04:10.189Z</time>
      </trkpt>
      <trkpt lat="41.92209" lon="25.72078">
        <ele>141.253022</ele>
        <time>2022-02-22T00:04:16.566Z</time>
      </trkpt>
      <trkpt lat="41.92177" lon="25.72019">
        <ele>141.126725</ele>
        <time>2022-02-22T00:04:29.945Z</time>
      </trkpt>
      <trkpt lat="41.921" lon="25.71874">
        <ele>140.85751</ele>
        <time>2022-02-22T00:05:02.874Z</time>
      </trkpt>
      <trkpt lat="41.92011" lon="25.71713">
        <ele>140.950786</ele>
        <time>2022-02-22T00:05:43.863Z</time>
      </trkpt>
      <trkpt lat="41.91993" lon="25.71683">
        <ele>141.046019</ele>
        <time>2022-02-22T00:05:51.868Z</time>
      </trkpt>
      <trkpt lat="41.91952" lon="25.71629">
        <ele>141.237452</ele>
        <time>2022-02-22T00:06:07.952Z</time>
      </trkpt>
      <trkpt lat="41.91722" lon="25.71407">
        <ele>144.056623</ele>
        <time>2022-02-22T00:07:33.617Z</time>
      </trkpt>
      <trkpt lat="41.9171" lon="25.71395">
        <ele>144.313011</ele>
        <time>2022-02-22T00:07:38.758Z</time>
      </trkpt>
      <trkpt lat="41.91704" lon="25.71388">
        <ele>144.454634</ele>
        <time>2022-02-22T00:07:41.824Z</time>
      </trkpt>
      <trkpt lat="41.91658" lon="25.71318">
        <ele>145.686606</ele>
        <time>2022-02-22T00:08:09.204Z</time>
      </trkpt>
      <trkpt lat="41.91653" lon="25.7131">
        <ele>145.859907</ele>
        <time>2022-02-22T00:08:12.564Z</time>
      </trkpt>
      <trkpt lat="41.91645" lon="25.71295">
        <ele>146.262035</ele>
        <time>2022-02-22T00:08:18.655Z</time>
      </trkpt>
      <trkpt lat="41.91624" lon="25.71246">
        <ele>147.513749</ele>
        <time>2022-02-22T00:08:36.393Z</time>
      </trkpt>
      <trkpt lat="41.91606" lon="25.71189">
        <ele>148.872927</ele>
        <time>2022-02-22T00:08:56.199Z</time>
      </trkpt>
      <trkpt lat="41.91533" lon="25.70875">
        <ele>155.136646</ele>
        <time>2022-02-22T00:10:32.733Z</time>
      </trkpt>
      <trkpt lat="41.91517" lon="25.70805">
        <ele>155.584415</ele>
        <time>2022-02-22T00:10:49.847Z</time>
      </trkpt>
      <trkpt lat="41.91481" lon="25.70646">
        <ele>156.135895</ele>
        <time>2022-02-22T00:11:23.985Z</time>
      </trkpt>
      <trkpt lat="41.91428" lon="25.70419">
        <ele>155.172231</ele>
        <time>2022-02-22T00:12:06.930Z</time>
      </trkpt>
      <trkpt lat="41.91378" lon="25.70195">
        <ele>153.566208</ele>
        <time>2022-02-22T00:12:46.904Z</time>
      </trkpt>
      <trkpt lat="41.91376" lon="25.70184">
        <ele>153.482838</ele>
        <time>2022-02-22T00:12:49.004Z</time>
      </trkpt>
      <trkpt lat="41.91372" lon="25.70162">
        <ele>153.349846</ele>
        <time>2022-02-22T00:12:53.051Z</time>
      </trkpt>
      <trkpt lat="41.91364" lon="25.70103">
        <ele>153.219335</ele>
        <time>2022-02-22T00:13:03.587Z</time>
      </trkpt>
      <trkpt lat="41.91364" lon="25.70043">
        <ele>153.088006</ele>
        <time>2022-02-22T00:13:14.740Z</time>
      </trkpt>
      <trkpt lat="41.91375" lon="25.69953">
        <ele>152.889206</ele>
        <time>2022-02-22T00:13:32.917Z</time>
      </trkpt>
      <trkpt lat="41.91394" lon="25.69873">
        <ele>153.164672</ele>
        <time>2022-02-22T00:13:50.283Z</time>
      </trkpt>
      <trkpt lat="41.91437" lon="25.69713">
        <ele>154.09705</ele>
        <time>2022-02-22T00:14:29.345Z</time>
      </trkpt>
      <trkpt lat="41.91508" lon="25.69434">
        <ele>156.002623</ele>
        <time>2022-02-22T00:15:40.589Z</time>
      </trkpt>
      <trkpt lat="41.91623" lon="25.68986">
        <ele>154.321394</ele>
        <time>2022-02-22T00:17:06.123Z</time>
      </trkpt>
      <trkpt lat="41.91779" lon="25.6838">
        <ele>149.717215</ele>
        <time>2022-02-22T00:18:55.117Z</time>
      </trkpt>
      <trkpt lat="41.91842" lon="25.68135">
        <ele>150.278729</ele>
        <time>2022-02-22T00:19:51.664Z</time>
      </trkpt>
      <trkpt lat="41.9188" lon="25.67985">
        <ele>150.825244</ele>
        <time>2022-02-22T00:20:27.574Z</time>
      </trkpt>
      <trkpt lat="41.91897" lon="25.67922">
        <ele>151.043827</ele>
        <time>2022-02-22T00:20:41.893Z</time>
      </trkpt>
      <trkpt lat="41.91947" lon="25.67726">
        <ele>150.996398</ele>
        <time>2022-02-22T00:21:21.926Z</time>
      </trkpt>
      <trkpt lat="41.9195" lon="25.67715">
        <ele>150.979031</ele>
        <time>2022-02-22T00:21:24.208Z</time>
      </trkpt>
      <trkpt lat="41.92005" lon="25.67506">
        <ele>150.904062</ele>
        <time>2022-02-22T00:22:06.265Z</time>
      </trkpt>
      <trkpt lat="41.92024" lon="25.67431">
        <ele>150.918302</ele>
        <time>2022-02-22T00:22:23.199Z</time>
      </trkpt>
      <trkpt lat="41.9205" lon="25.67326">
        <ele>151.284168</ele>
        <time>2022-02-22T00:22:47.656Z</time>
      </trkpt>
      <trkpt lat="41.92057" lon="25.67288">
        <ele>151.430688</ele>
        <time>2022-02-22T00:22:56.239Z</time>
      </trkpt>
      <trkpt lat="41.92063" lon="25.67221">
        <ele>151.68927</ele>
        <time>2022-02-22T00:23:11.638Z</time>
      </trkpt>
      <trkpt lat="41.92066" lon="25.66928">
        <ele>151.969467</ele>
        <time>2022-02-22T00:24:10.086Z</time>
      </trkpt>
      <trkpt lat="41.92077" lon="25.66795">
        <ele>151.973539</ele>
        <time>2022-02-22T00:24:36.031Z</time>
      </trkpt>
      <trkpt lat="41.92212" lon="25.66041">
        <ele>152.626818</ele>
        <time>2022-02-22T00:27:13.095Z</time>
      </trkpt>
      <trkpt lat="41.92244" lon="25.65816">
        <ele>153.432499</ele>
        <time>2022-02-22T00:28:02.208Z</time>
      </trkpt>
      <trkpt lat="41.923" lon="25.65218">
        <ele>156.888832</ele>
        <time>2022-02-22T00:30:19.602Z</time>
      </trkpt>
      <trkpt lat="41.92316" lon="25.65065">
        <ele>157.772446</ele>
        <time>2022-02-22T00:30:54.722Z</time>
      </trkpt>
      <trkpt lat="41.9236" lon="25.64567">
        <ele>159.515032</ele>
        <time>2022-02-22T00:32:41.927Z</time>
      </trkpt>
      <trkpt lat="41.9237" lon="25.64484">
        <ele>159.804172</ele>
        <time>2022-02-22T00:33:00.219Z</time>
      </trkpt>
      <trkpt lat="41.92388" lon="25.64392">
        <ele>160.134017</ele>
        <time>2022-02-22T00:33:21.000Z</time>
      </trkpt>
      <trkpt lat="41.92593" lon="25.63605">
        <ele>162.238424</ele>
        <time>2022-02-22T00:36:17.073Z</time>
      </trkpt>
      <trkpt lat="41.92608" lon="25.63556">
        <ele>162.208979</ele>
        <time>2022-02-22T00:36:27.569Z</time>
      </trkpt>
      <trkpt lat="41.9273" lon="25.63336">
        <ele>161.95514</ele>
        <time>2022-02-22T00:37:19.850Z</time>
      </trkpt>
      <trkpt lat="41.92751" lon="25.63287">
        <ele>161.878188</ele>
        <time>2022-02-22T00:37:30.544Z</time>
      </trkpt>
      <trkpt lat="41.92767" lon="25.63219">
        <ele>161.80623</ele>
        <time>2022-02-22T00:37:44.341Z</time>
      </trkpt>
      <trkpt lat="41.92974" lon="25.6212">
        <ele>163.75189</ele>
        <time>2022-02-22T00:41:38.067Z</time>
      </trkpt>
      <trkpt lat="41.93047" lon="25.61823">
        <ele>165.556974</ele>
        <time>2022-02-22T00:42:50.191Z</time>
      </trkpt>
      <trkpt lat="41.931" lon="25.61638">
        <ele>167.18302</ele>
        <time>2022-02-22T00:43:36.838Z</time>
      </trkpt>
      <trkpt lat="41.93158" lon="25.6146">
        <ele>169.261698</ele>
        <time>2022-02-22T00:44:24.674Z</time>
      </trkpt>
      <trkpt lat="41.93396" lon="25.60826">
        <ele>179.419773</ele>
        <time>2022-02-22T00:47:34.223Z</time>
      </trkpt>
      <trkpt lat="41.93473" lon="25.60626">
        <ele>183.661972</ele>
        <time>2022-02-22T00:48:40.016Z</time>
      </trkpt>
      <trkpt lat="41.93545" lon="25.60445">
        <ele>187.69449</ele>
        <time>2022-02-22T00:49:42.700Z</time>
      </trkpt>
      <trkpt lat="41.93614" lon="25.60259">
        <ele>190.788933</ele>
        <time>2022-02-22T00:50:39.854Z</time>
      </trkpt>
      <trkpt lat="41.9363" lon="25.60217">
        <ele>191.079708</ele>
        <time>2022-02-22T00:50:50.665Z</time>
      </trkpt>
      <trkpt lat="41.9374" lon="25.59924">
        <ele>192.765214</ele>
        <time>2022-02-22T00:51:58.873Z</time>
      </trkpt>
      <trkpt lat="41.93789" lon="25.59795">
        <ele>194.263097</ele>
        <time>2022-02-22T00:52:35.137Z</time>
      </trkpt>
      <trkpt lat="41.93863" lon="25.59604">
        <ele>197.230701</ele>
        <time>2022-02-22T00:53:35.243Z</time>
      </trkpt>
      <trkpt lat="41.93953" lon="25.59372">
        <ele>200.715798</ele>
        <time>2022-02-22T00:54:41.573Z</time>
      </trkpt>
      <trkpt lat="41.93995" lon="25.59271">
        <ele>202.307115</ele>
        <time>2022-02-22T00:55:12.885Z</time>
      </trkpt>
      <trkpt lat="41.94032" lon="25.59184">
        <ele>203.329346</ele>
        <time>2022-02-22T00:55:40.313Z</time>
      </trkpt>
      <trkpt lat="41.94005" lon="25.59179">
        <ele>203.596873</ele>
        <time>2022-02-22T00:55:49.507Z</time>
      </trkpt>
      <trkpt lat="41.94" lon="25.59172">
        <ele>203.673353</ele>
        <time>2022-02-22T00:55:52.920Z</time>
      </trkpt>
      <trkpt lat="41.93963" lon="25.58997">
        <ele>204.580241</ele>
        <time>2022-02-22T00:56:32.606Z</time>
      </trkpt>
      <trkpt lat="41.93917" lon="25.58806">
        <ele>204.043021</ele>
        <time>2022-02-22T00:57:10.795Z</time>
      </trkpt>
      <trkpt lat="41.93906" lon="25.58756">
        <ele>203.626212</ele>
        <time>2022-02-22T00:57:20.581Z</time>
      </trkpt>
      <trkpt lat="41.93888" lon="25.58688">
        <ele>203.042793</ele>
        <time>2022-02-22T00:57:34.114Z</time>
      </trkpt>
      <trkpt lat="41.93875" lon="25.5869">
        <ele>202.906076</ele>
        <time>2022-02-22T00:57:37.049Z</time>
      </trkpt>
      <trkpt lat="41.93812" lon="25.58696">
        <ele>202.230583</ele>
        <time>2022-02-22T00:57:52.614Z</time>
      </trkpt>
      <trkpt lat="41.93713" lon="25.58701">
        <ele>199.837506</ele>
        <time>2022-02-22T00:58:13.622Z</time>
      </trkpt>
      <trkpt lat="41.93714" lon="25.58661">
        <ele>199.069187</ele>
        <time>2022-02-22T00:58:19.783Z</time>
      </trkpt>
      <trkpt lat="41.93715" lon="25.58638">
        <ele>198.632927</ele>
        <time>2022-02-22T00:58:23.476Z</time>
      </trkpt>
      <trkpt lat="41.93715" lon="25.5863">
        <ele>198.48842</ele>
        <time>2022-02-22T00:58:24.491Z</time>
      </trkpt>
      <trkpt lat="41.93726" lon="25.58595">
        <ele>197.766834</ele>
        <time>2022-02-22T00:58:30.547Z</time>
      </trkpt>
      <trkpt lat="41.93758" lon="25.58566">
        <ele>197.272261</ele>
        <time>2022-02-22T00:58:38.692Z</time>
      </trkpt>
      <trkpt lat="41.93764" lon="25.5855">
        <ele>197.155102</ele>
        <time>2022-02-22T00:58:41.370Z</time>
      </trkpt>
      <trkpt lat="41.93773" lon="25.58543">
        <ele>197.068388</ele>
        <time>2022-02-22T00:58:43.754Z</time>
      </trkpt>
      <trkpt lat="41.93789" lon="25.5849">
        <ele>196.69082</ele>
        <time>2022-02-22T00:58:54.060Z</time>
      </trkpt>
      <trkpt lat="41.93786" lon="25.58481">
        <ele>196.630263</ele>
        <time>2022-02-22T00:58:55.717Z</time>
      </trkpt>
      <trkpt lat="41.93775" lon="25.58471">
        <ele>196.510958</ele>
        <time>2022-02-22T00:58:58.744Z</time>
      </trkpt>
      <trkpt lat="41.93752" lon="25.58384">
        <ele>196.029199</ele>
        <time>2022-02-22T00:59:20.118Z</time>
      </trkpt>
      <trkpt lat="41.93738" lon="25.58343">
        <ele>196.549343</ele>
        <time>2022-02-22T00:59:31.876Z</time>
      </trkpt>
      <trkpt lat="41.93765" lon="25.5833">
        <ele>197.001262</ele>
        <time>2022-02-22T00:59:42.791Z</time>
      </trkpt>
      <trkpt lat="41.93782" lon="25.58324">
        <ele>197.278323</ele>
        <time>2022-02-22T00:59:48.994Z</time>
      </trkpt>
      <trkpt lat="41.93832" lon="25.58302">
        <ele>198.117763</ele>
        <time>2022-02-22T01:00:08.931Z</time>
      </trkpt>
      <trkpt lat="41.9381" lon="25.58204">
        <ele>198.830039</ele>
        <time>2022-02-22T01:00:36.144Z</time>
      </trkpt>
      <trkpt lat="41.93801" lon="25.58174">
        <ele>198.85529</ele>
        <time>2022-02-22T01:00:43.541Z</time>
      </trkpt>
      <trkpt lat="41.93789" lon="25.58126">
        <ele>198.894573</ele>
        <time>2022-02-22T01:00:54.839Z</time>
      </trkpt>
      <trkpt lat="41.93782" lon="25.58123">
        <ele>198.902585</ele>
        <time>2022-02-22T01:00:57.121Z</time>
      </trkpt>
      <trkpt lat="41.93762" lon="25.58131">
        <ele>198.923824</ele>
        <time>2022-02-22T01:01:02.629Z</time>
      </trkpt>
      <trkpt lat="41.9375" lon="25.58116">
        <ele>198.941518</ele>
        <time>2022-02-22T01:01:07.235Z</time>
      </trkpt>
      <trkpt lat="41.93729" lon="25.58046">
        <ele>198.717055</ele>
        <time>2022-02-22T01:01:19.841Z</time>
      </trkpt>
      <trkpt lat="41.93724" lon="25.5796">
        <ele>197.636557</ele>
        <time>2022-02-22T01:01:34.167Z</time>
      </trkpt>
      <trkpt lat="41.9372" lon="25.57915">
        <ele>197.064536</ele>
        <time>2022-02-22T01:01:41.766Z</time>
      </trkpt>
      <trkpt lat="41.93724" lon="25.57909">
        <ele>196.967169</ele>
        <time>2022-02-22T01:01:42.919Z</time>
      </trkpt>
      <trkpt lat="41.93746" lon="25.5789">
        <ele>196.52403</ele>
        <time>2022-02-22T01:01:49.018Z</time>
      </trkpt>
      <trkpt lat="41.93756" lon="25.57875">
        <ele>196.273637</ele>
        <time>2022-02-22T01:01:52.348Z</time>
      </trkpt>
      <trkpt lat="41.9376" lon="25.57849">
        <ele>195.966003</ele>
        <time>2022-02-22T01:01:56.792Z</time>
      </trkpt>
      <trkpt lat="41.93757" lon="25.57827">
        <ele>195.961783</ele>
        <time>2022-02-22T01:02:00.680Z</time>
      </trkpt>
      <trkpt lat="41.93755" lon="25.57819">
        <ele>195.960114</ele>
        <time>2022-02-22T01:02:01.971Z</time>
      </trkpt>
      <trkpt lat="41.9377" lon="25.57814">
        <ele>195.95613</ele>
        <time>2022-02-22T01:02:06.589Z</time>
      </trkpt>
      <trkpt lat="41.93911" lon="25.57828">
        <ele>195.949761</ele>
        <time>2022-02-22T01:02:46.627Z</time>
      </trkpt>
      <trkpt lat="41.93918" lon="25.5782">
        <ele>196.17742</ele>
        <time>2022-02-22T01:02:50.488Z</time>
      </trkpt>
      <trkpt lat="41.93921" lon="25.57704">
        <ele>198.123935</ele>
        <time>2022-02-22T01:03:24.377Z</time>
      </trkpt>
      <trkpt lat="41.93892" lon="25.57663">
        <ele>199.069562</ele>
        <time>2022-02-22T01:03:42.464Z</time>
      </trkpt>
      <trkpt lat="41.93867" lon="25.57597">
        <ele>200.06366</ele>
        <time>2022-02-22T01:04:05.483Z</time>
      </trkpt>
      <trkpt lat="41.93859" lon="25.57511">
        <ele>200.425849</ele>
        <time>2022-02-22T01:04:27.287Z</time>
      </trkpt>
      <trkpt lat="41.93858" lon="25.57479">
        <ele>200.562432</ele>
        <time>2022-02-22T01:04:34.612Z</time>
      </trkpt>
      <trkpt lat="41.93869" lon="25.57474">
        <ele>200.630601</ele>
        <time>2022-02-22T01:04:37.703Z</time>
      </trkpt>
      <trkpt lat="41.93881" lon="25.57468">
        <ele>200.704937</ele>
        <time>2022-02-22T01:04:41.357Z</time>
      </trkpt>
      <trkpt lat="41.93879" lon="25.57458">
        <ele>200.747114</ele>
        <time>2022-02-22T01:04:43.355Z</time>
      </trkpt>
      <trkpt lat="41.93876" lon="25.57445">
        <ele>200.804103</ele>
        <time>2022-02-22T01:04:45.832Z</time>
      </trkpt>
      <trkpt lat="41.93863" lon="25.57395">
        <ele>200.902733</ele>
        <time>2022-02-22T01:04:58.138Z</time>
      </trkpt>
      <trkpt lat="41.93849" lon="25.57331">
        <ele>200.049763</ele>
        <time>2022-02-22T01:05:13.766Z</time>
      </trkpt>
      <trkpt lat="41.93798" lon="25.57345">
        <ele>199.15655</ele>
        <time>2022-02-22T01:05:25.251Z</time>
      </trkpt>
      <trkpt lat="41.93795" lon="25.57332">
        <ele>198.986636</ele>
        <time>2022-02-22T01:05:27.266Z</time>
      </trkpt>
      <trkpt lat="41.93793" lon="25.57322">
        <ele>198.854599</ele>
        <time>2022-02-22T01:05:28.808Z</time>
      </trkpt>
      <trkpt lat="41.93781" lon="25.57255">
        <ele>197.975611</ele>
        <time>2022-02-22T01:05:39.331Z</time>
      </trkpt>
      <trkpt lat="41.93774" lon="25.57221">
        <ele>198.016248</ele>
        <time>2022-02-22T01:05:45.085Z</time>
      </trkpt>
      <trkpt lat="41.93768" lon="25.572">
        <ele>198.083724</ele>
        <time>2022-02-22T01:05:48.957Z</time>
      </trkpt>
      <trkpt lat="41.93748" lon="25.5714">
        <ele>198.283777</ele>
        <time>2022-02-22T01:06:02.268Z</time>
      </trkpt>
      <trkpt lat="41.93743" lon="25.57126">
        <ele>198.332001</ele>
        <time>2022-02-22T01:06:06.114Z</time>
      </trkpt>
      <trkpt lat="41.93742" lon="25.57113">
        <ele>198.372061</ele>
        <time>2022-02-22T01:06:09.386Z</time>
      </trkpt>
      <trkpt lat="41.93739" lon="25.57095">
        <ele>198.426521</ele>
        <time>2022-02-22T01:06:14.141Z</time>
      </trkpt>
      <trkpt lat="41.9374" lon="25.57076">
        <ele>198.483633</ele>
        <time>2022-02-22T01:06:19.043Z</time>
      </trkpt>
      <trkpt lat="41.9374" lon="25.5706">
        <ele>198.533187</ele>
        <time>2022-02-22T01:06:23.271Z</time>
      </trkpt>
      <trkpt lat="41.93746" lon="25.5699">
        <ele>198.997047</ele>
        <time>2022-02-22T01:06:41.267Z</time>
      </trkpt>
      <trkpt lat="41.93751" lon="25.56864">
        <ele>200.448953</ele>
        <time>2022-02-22T01:07:16.544Z</time>
      </trkpt>
      <trkpt lat="41.93754" lon="25.5679">
        <ele>201.303237</ele>
        <time>2022-02-22T01:07:35.313Z</time>
      </trkpt>
      <trkpt lat="41.93755" lon="25.56765">
        <ele>201.16806</ele>
        <time>2022-02-22T01:07:40.489Z</time>
      </trkpt>
      <trkpt lat="41.93761" lon="25.56702">
        <ele>199.784286</ele>
        <time>2022-02-22T01:07:51.615Z</time>
      </trkpt>
      <trkpt lat="41.93749" lon="25.567">
        <ele>199.423684</ele>
        <time>2022-02-22T01:07:54.317Z</time>
      </trkpt>
      <trkpt lat="41.93557" lon="25.56678">
        <ele>192.265514</ele>
        <time>2022-02-22T01:08:31.520Z</time>
      </trkpt>
      <trkpt lat="41.93547" lon="25.56673">
        <ele>191.753005</ele>
        <time>2022-02-22T01:08:33.527Z</time>
      </trkpt>
      <trkpt lat="41.93528" lon="25.56648">
        <ele>190.488961</ele>
        <time>2022-02-22T01:08:38.537Z</time>
      </trkpt>
      <trkpt lat="41.93506" lon="25.56619">
        <ele>189.035038</ele>
        <time>2022-02-22T01:08:44.304Z</time>
      </trkpt>
      <trkpt lat="41.935" lon="25.56611">
        <ele>188.616786</ele>
        <time>2022-02-22T01:08:46.002Z</time>
      </trkpt>
      <trkpt lat="41.93474" lon="25.56645">
        <ele>187.125352</ele>
        <time>2022-02-22T01:08:52.561Z</time>
      </trkpt>
      <trkpt lat="41.93414" lon="25.56724">
        <ele>184.359227</ele>
        <time>2022-02-22T01:09:08.288Z</time>
      </trkpt>
      <trkpt lat="41.93381" lon="25.56769">
        <ele>182.813003</ele>
        <time>2022-02-22T01:09:17.768Z</time>
      </trkpt>
      <trkpt lat="41.93348" lon="25.56799">
        <ele>181.617676</ele>
        <time>2022-02-22T01:09:26.456Z</time>
      </trkpt>
      <trkpt lat="41.93343" lon="25.56793">
        <ele>181.545546</ele>
        <time>2022-02-22T01:09:28.486Z</time>
      </trkpt>
      <trkpt lat="41.93337" lon="25.56785">
        <ele>181.454563</ele>
        <time>2022-02-22T01:09:31.068Z</time>
      </trkpt>
      <trkpt lat="41.93319" lon="25.56736">
        <ele>181.019377</ele>
        <time>2022-02-22T01:09:43.578Z</time>
      </trkpt>
      <trkpt lat="41.93324" lon="25.56729">
        <ele>180.941673</ele>
        <time>2022-02-22T01:09:45.829Z</time>
      </trkpt>
      <trkpt lat="41.93326" lon="25.5672">
        <ele>180.865053</ele>
        <time>2022-02-22T01:09:48.059Z</time>
      </trkpt>
      <trkpt lat="41.93318" lon="25.56703">
        <ele>180.705466</ele>
        <time>2022-02-22T01:09:52.644Z</time>
      </trkpt>
      <trkpt lat="41.9331" lon="25.567">
        <ele>180.614563</ele>
        <time>2022-02-22T01:09:55.330Z</time>
      </trkpt>
      <trkpt lat="41.93287" lon="25.56714">
        <ele>180.348767</ele>
        <time>2022-02-22T01:10:03.021Z</time>
      </trkpt>
      <trkpt lat="41.93274" lon="25.5671">
        <ele>180.208059</ele>
        <time>2022-02-22T01:10:07.258Z</time>
      </trkpt>
      <trkpt lat="41.93233" lon="25.56608">
        <ele>179.481641</ele>
        <time>2022-02-22T01:10:35.639Z</time>
      </trkpt>
      <trkpt lat="41.93199" lon="25.56633">
        <ele>179.244423</ele>
        <time>2022-02-22T01:10:44.581Z</time>
      </trkpt>
      <trkpt lat="41.93194" lon="25.56637">
        <ele>179.203312</ele>
        <time>2022-02-22T01:10:46.075Z</time>
      </trkpt>
      <trkpt lat="41.93189" lon="25.56641">
        <ele>179.167147</ele>
        <time>2022-02-22T01:10:47.485Z</time>
      </trkpt>
      <trkpt lat="41.93178" lon="25.56616">
        <ele>179.035738</ele>
        <time>2022-02-22T01:10:52.514Z</time>
      </trkpt>
      <trkpt lat="41.9316" lon="25.56564">
        <ele>178.768409</ele>
        <time>2022-02-22T01:11:02.946Z</time>
      </trkpt>
      <trkpt lat="41.93157" lon="25.56537">
        <ele>178.641942</ele>
        <time>2022-02-22T01:11:07.919Z</time>
      </trkpt>
      <trkpt lat="41.93154" lon="25.5653">
        <ele>178.679264</ele>
        <time>2022-02-22T01:11:09.384Z</time>
      </trkpt>
      <trkpt lat="41.93147" lon="25.56524">
        <ele>178.785131</ele>
        <time>2022-02-22T01:11:11.615Z</time>
      </trkpt>
      <trkpt lat="41.93144" lon="25.56528">
        <ele>178.842234</ele>
        <time>2022-02-22T01:11:12.726Z</time>
      </trkpt>
      <trkpt lat="41.93141" lon="25.56537">
        <ele>178.933397</ele>
        <time>2022-02-22T01:11:14.575Z</time>
      </trkpt>
      <trkpt lat="41.93136" lon="25.56543">
        <ele>179.017235</ele>
        <time>2022-02-22T01:11:16.798Z</time>
      </trkpt>
      <trkpt lat="41.93134" lon="25.56547">
        <ele>179.065764</ele>
        <time>2022-02-22T01:11:18.094Z</time>
      </trkpt>
      <trkpt lat="41.93133" lon="25.56557">
        <ele>179.159551</ele>
        <time>2022-02-22T01:11:20.620Z</time>
      </trkpt>
      <trkpt lat="41.93121" lon="25.5656">
        <ele>179.31581</ele>
        <time>2022-02-22T01:11:24.761Z</time>
      </trkpt>
      <trkpt lat="41.93123" lon="25.56574">
        <ele>179.446961</ele>
        <time>2022-02-22T01:11:28.313Z</time>
      </trkpt>
      <trkpt lat="41.93125" lon="25.56588">
        <ele>179.581832</ele>
        <time>2022-02-22T01:11:32.034Z</time>
      </trkpt>
      <trkpt lat="41.93101" lon="25.56595">
        <ele>179.891457</ele>
        <time>2022-02-22T01:11:41.058Z</time>
      </trkpt>
      <trkpt lat="41.93105" lon="25.56619">
        <ele>180.123556</ele>
        <time>2022-02-22T01:11:48.266Z</time>
      </trkpt>
      <trkpt lat="41.92995" lon="25.56653">
        <ele>183.511642</ele>
        <time>2022-02-22T01:12:37.180Z</time>
      </trkpt>
      <trkpt lat="41.9297" lon="25.56669">
        <ele>184.933782</ele>
        <time>2022-02-22T01:12:56.289Z</time>
      </trkpt>
      <trkpt lat="41.92949" lon="25.56669">
        <ele>186.014325</ele>
        <time>2022-02-22T01:13:07.760Z</time>
      </trkpt>
      <trkpt lat="41.92905" lon="25.5667">
        <ele>188.289142</ele>
        <time>2022-02-22T01:13:32.685Z</time>
      </trkpt>
      <trkpt lat="41.92865" lon="25.56666">
        <ele>190.335945</ele>
        <time>2022-02-22T01:13:55.865Z</time>
      </trkpt>
      <trkpt lat="41.92824" lon="25.56665">
        <ele>191.947876</ele>
        <time>2022-02-22T01:14:19.722Z</time>
      </trkpt>
      <trkpt lat="41.92769" lon="25.56664">
        <ele>194.074743</ele>
        <time>2022-02-22T01:14:50.102Z</time>
      </trkpt>
      <trkpt lat="41.92771" lon="25.5657">
        <ele>196.82178</ele>
        <time>2022-02-22T01:15:18.028Z</time>
      </trkpt>
      <trkpt lat="41.92771" lon="25.56543">
        <ele>197.051503</ele>
        <time>2022-02-22T01:15:23.162Z</time>
      </trkpt>
      <trkpt lat="41.92725" lon="25.56509">
        <ele>196.053531</ele>
        <time>2022-02-22T01:15:35.311Z</time>
      </trkpt>
      <trkpt lat="41.92678" lon="25.56477">
        <ele>195.067765</ele>
        <time>2022-02-22T01:15:45.902Z</time>
      </trkpt>
      <trkpt lat="41.92678" lon="25.56494">
        <ele>194.825776</ele>
        <time>2022-02-22T01:15:48.555Z</time>
      </trkpt>
      <trkpt lat="41.92671" lon="25.56493">
        <ele>194.681377</ele>
        <time>2022-02-22T01:15:53.876Z</time>
      </trkpt>
      <trkpt lat="41.92618" lon="25.5649">
        <ele>193.954552</ele>
        <time>2022-02-22T01:16:04.862Z</time>
      </trkpt>
      <trkpt lat="41.92571" lon="25.56487">
        <ele>194.724055</ele>
        <time>2022-02-22T01:16:15.846Z</time>
      </trkpt>
      <trkpt lat="41.92522" lon="25.56483">
        <ele>195.524904</ele>
        <time>2022-02-22T01:16:30.833Z</time>
      </trkpt>
      <trkpt lat="41.92508" lon="25.56482">
        <ele>195.753032</ele>
        <time>2022-02-22T01:16:40.576Z</time>
      </trkpt>
      <trkpt lat="41.92508" lon="25.56482">
        <ele>195.755456</ele>
        <time>2022-02-22T01:16:40.628Z</time>
      </trkpt>
      <trkpt lat="41.92484" lon="25.56483">
        <ele>196.139817</ele>
        <time>2022-02-22T01:16:50.783Z</time>
      </trkpt>
      <trkpt lat="41.92453" lon="25.56483">
        <ele>196.639725</ele>
        <time>2022-02-22T01:17:06.903Z</time>
      </trkpt>
      <trkpt lat="41.92449" lon="25.56481">
        <ele>196.714275</ele>
        <time>2022-02-22T01:17:09.585Z</time>
      </trkpt>
      <trkpt lat="41.92437" lon="25.56476">
        <ele>197.601898</ele>
        <time>2022-02-22T01:17:17.392Z</time>
      </trkpt>
      <trkpt lat="41.9242" lon="25.56466">
        <ele>199.16954</ele>
        <time>2022-02-22T01:17:28.624Z</time>
      </trkpt>
      <trkpt lat="41.92378" lon="25.56442">
        <ele>203.120019</ele>
        <time>2022-02-22T01:18:01.233Z</time>
      </trkpt>
      <trkpt lat="41.92333" lon="25.56413">
        <ele>207.379353</ele>
        <time>2022-02-22T01:18:39.762Z</time>
      </trkpt>
      <trkpt lat="41.923" lon="25.56389">
        <ele>210.645851</ele>
        <time>2022-02-22T01:19:08.248Z</time>
      </trkpt>
      <trkpt lat="41.92291" lon="25.5636">
        <ele>212.538343</ele>
        <time>2022-02-22T01:19:24.054Z</time>
      </trkpt>
      <trkpt lat="41.9229" lon="25.56356">
        <ele>212.7166</ele>
        <time>2022-02-22T01:19:25.884Z</time>
      </trkpt>
      <trkpt lat="41.92285" lon="25.56351">
        <ele>213.136021</ele>
        <time>2022-02-22T01:19:31.853Z</time>
      </trkpt>
      <trkpt lat="41.9228" lon="25.56349">
        <ele>213.479557</ele>
        <time>2022-02-22T01:19:35.303Z</time>
      </trkpt>
      <trkpt lat="41.92202" lon="25.56358">
        <ele>218.376275</ele>
        <time>2022-02-22T01:20:23.545Z</time>
      </trkpt>
      <trkpt lat="41.92181" lon="25.56364">
        <ele>219.726461</ele>
        <time>2022-02-22T01:20:35.422Z</time>
      </trkpt>
      <trkpt lat="41.9217" lon="25.56356">
        <ele>220.566634</ele>
        <time>2022-02-22T01:20:42.512Z</time>
      </trkpt>
      <trkpt lat="41.92165" lon="25.56351">
        <ele>220.947702</ele>
        <time>2022-02-22T01:20:45.459Z</time>
      </trkpt>
      <trkpt lat="41.92132" lon="25.56257">
        <ele>224.635686</ele>
        <time>2022-02-22T01:21:21.366Z</time>
      </trkpt>
      <trkpt lat="41.92126" lon="25.56233">
        <ele>225.190915</ele>
        <time>2022-02-22T01:21:29.186Z</time>
      </trkpt>
      <trkpt lat="41.92105" lon="25.56201">
        <ele>226.142979</ele>
        <time>2022-02-22T01:21:42.536Z</time>
      </trkpt>
      <trkpt lat="41.92053" lon="25.56157">
        <ele>227.990938</ele>
        <time>2022-02-22T01:22:06.188Z</time>
      </trkpt>
      <trkpt lat="41.9201" lon="25.56114">
        <ele>229.672864</ele>
        <time>2022-02-22T01:22:27.718Z</time>
      </trkpt>
      <trkpt lat="41.9201" lon="25.56109">
        <ele>229.797006</ele>
        <time>2022-02-22T01:22:29.253Z</time>
      </trkpt>
      <trkpt lat="41.92011" lon="25.56096">
        <ele>230.137201</ele>
        <time>2022-02-22T01:22:33.500Z</time>
      </trkpt>
      <trkpt lat="41.92002" lon="25.56097">
        <ele>230.446899</ele>
        <time>2022-02-22T01:22:37.616Z</time>
      </trkpt>
      <trkpt lat="41.91953" lon="25.5611">
        <ele>232.161634</ele>
        <time>2022-02-22T01:22:58.976Z</time>
      </trkpt>
      <trkpt lat="41.91944" lon="25.56112">
        <ele>232.469187</ele>
        <time>2022-02-22T01:23:03.248Z</time>
      </trkpt>
      <trkpt lat="41.91875" lon="25.56131">
        <ele>234.872624</ele>
        <time>2022-02-22T01:23:35.545Z</time>
      </trkpt>
      <trkpt lat="41.91863" lon="25.56134">
        <ele>235.213301</ele>
        <time>2022-02-22T01:23:40.995Z</time>
      </trkpt>
      <trkpt lat="41.91774" lon="25.56156">
        <ele>237.367199</ele>
        <time>2022-02-22T01:24:18.754Z</time>
      </trkpt>
      <trkpt lat="41.91738" lon="25.56165">
        <ele>238.235283</ele>
        <time>2022-02-22T01:24:31.858Z</time>
      </trkpt>
      <trkpt lat="41.91691" lon="25.56176">
        <ele>239.333953</ele>
        <time>2022-02-22T01:24:47.164Z</time>
      </trkpt>
      <trkpt lat="41.91681" lon="25.56179">
        <ele>239.356069</ele>
        <time>2022-02-22T01:24:50.436Z</time>
      </trkpt>
      <trkpt lat="41.9166" lon="25.56179">
        <ele>239.399657</ele>
        <time>2022-02-22T01:24:56.647Z</time>
      </trkpt>
      <trkpt lat="41.91637" lon="25.56178">
        <ele>239.447031</ele>
        <time>2022-02-22T01:25:03.073Z</time>
      </trkpt>
      <trkpt lat="41.91617" lon="25.56176">
        <ele>239.487766</ele>
        <time>2022-02-22T01:25:08.224Z</time>
      </trkpt>
      <trkpt lat="41.91605" lon="25.56177">
        <ele>239.51342</ele>
        <time>2022-02-22T01:25:11.505Z</time>
      </trkpt>
      <trkpt lat="41.91601" lon="25.56176">
        <ele>239.521493</ele>
        <time>2022-02-22T01:25:12.517Z</time>
      </trkpt>
      <trkpt lat="41.91598" lon="25.56176">
        <ele>239.529491</ele>
        <time>2022-02-22T01:25:13.540Z</time>
      </trkpt>
      <trkpt lat="41.91594" lon="25.56179">
        <ele>239.537614</ele>
        <time>2022-02-22T01:25:14.563Z</time>
      </trkpt>
      <trkpt lat="41.91579" lon="25.56183">
        <ele>239.569266</ele>
        <time>2022-02-22T01:25:18.390Z</time>
      </trkpt>
      <trkpt lat="41.91556" lon="25.5619">
        <ele>239.618688</ele>
        <time>2022-02-22T01:25:24.509Z</time>
      </trkpt>
      <trkpt lat="41.91549" lon="25.56193">
        <ele>239.634274</ele>
        <time>2022-02-22T01:25:26.376Z</time>
      </trkpt>
      <trkpt lat="41.91475" lon="25.56186">
        <ele>239.967005</ele>
        <time>2022-02-22T01:25:46.084Z</time>
      </trkpt>
      <trkpt lat="41.91458" lon="25.56184">
        <ele>240.078605</ele>
        <time>2022-02-22T01:25:51.028Z</time>
      </trkpt>
      <trkpt lat="41.91378" lon="25.5617">
        <ele>240.606167</ele>
        <time>2022-02-22T01:26:15.424Z</time>
      </trkpt>
      <trkpt lat="41.91285" lon="25.56155">
        <ele>241.738495</ele>
        <time>2022-02-22T01:26:46.157Z</time>
      </trkpt>
      <trkpt lat="41.91231" lon="25.56147">
        <ele>242.630289</ele>
        <time>2022-02-22T01:27:04.455Z</time>
      </trkpt>
      <trkpt lat="41.91194" lon="25.5614">
        <ele>243.250718</ele>
        <time>2022-02-22T01:27:17.717Z</time>
      </trkpt>
      <trkpt lat="41.91147" lon="25.56133">
        <ele>244.094348</ele>
        <time>2022-02-22T01:27:35.320Z</time>
      </trkpt>
      <trkpt lat="41.91107" lon="25.56126">
        <ele>244.992245</ele>
        <time>2022-02-22T01:27:50.825Z</time>
      </trkpt>
      <trkpt lat="41.91083" lon="25.56122">
        <ele>245.522485</ele>
        <time>2022-02-22T01:27:59.993Z</time>
      </trkpt>
      <trkpt lat="41.90994" lon="25.56106">
        <ele>247.505104</ele>
        <time>2022-02-22T01:28:33.711Z</time>
      </trkpt>
      <trkpt lat="41.90947" lon="25.56099">
        <ele>248.156057</ele>
        <time>2022-02-22T01:28:50.853Z</time>
      </trkpt>
      <trkpt lat="41.90885" lon="25.56089">
        <ele>248.765131</ele>
        <time>2022-02-22T01:29:11.984Z</time>
      </trkpt>
      <trkpt lat="41.90828" lon="25.56078">
        <ele>249.330281</ele>
        <time>2022-02-22T01:29:28.992Z</time>
      </trkpt>
      <trkpt lat="41.90818" lon="25.56076">
        <ele>249.422921</ele>
        <time>2022-02-22T01:29:31.497Z</time>
      </trkpt>
      <trkpt lat="41.90803" lon="25.56072">
        <ele>249.574123</ele>
        <time>2022-02-22T01:29:35.586Z</time>
      </trkpt>
      <trkpt lat="41.90721" lon="25.56048">
        <ele>248.798281</ele>
        <time>2022-02-22T01:29:55.960Z</time>
      </trkpt>
      <trkpt lat="41.90688" lon="25.56039">
        <ele>248.456471</ele>
        <time>2022-02-22T01:30:03.852Z</time>
      </trkpt>
      <trkpt lat="41.90627" lon="25.56021">
        <ele>247.84267</ele>
        <time>2022-02-22T01:30:17.437Z</time>
      </trkpt>
      <trkpt lat="41.90577" lon="25.56004">
        <ele>246.493285</ele>
        <time>2022-02-22T01:30:28.388Z</time>
      </trkpt>
      <trkpt lat="41.9053" lon="25.55989">
        <ele>245.200867</ele>
        <time>2022-02-22T01:30:38.261Z</time>
      </trkpt>
      <trkpt lat="41.9049" lon="25.55976">
        <ele>244.087711</ele>
        <time>2022-02-22T01:30:46.541Z</time>
      </trkpt>
      <trkpt lat="41.90436" lon="25.5596">
        <ele>242.309402</ele>
        <time>2022-02-22T01:30:57.133Z</time>
      </trkpt>
      <trkpt lat="41.90394" lon="25.55946">
        <ele>240.2883</ele>
        <time>2022-02-22T01:31:05.092Z</time>
      </trkpt>
      <trkpt lat="41.90324" lon="25.55925">
        <ele>236.92846</ele>
        <time>2022-02-22T01:31:18.082Z</time>
      </trkpt>
      <trkpt lat="41.90294" lon="25.55914">
        <ele>235.466607</ele>
        <time>2022-02-22T01:31:23.705Z</time>
      </trkpt>
      <trkpt lat="41.90278" lon="25.55905">
        <ele>234.638951</ele>
        <time>2022-02-22T01:31:26.808Z</time>
      </trkpt>
      <trkpt lat="41.90259" lon="25.55895">
        <ele>233.62887</ele>
        <time>2022-02-22T01:31:30.547Z</time>
      </trkpt>
      <trkpt lat="41.90256" lon="25.55894">
        <ele>233.473055</ele>
        <time>2022-02-22T01:31:31.101Z</time>
      </trkpt>
      <trkpt lat="41.90253" lon="25.55888">
        <ele>233.216363</ele>
        <time>2022-02-22T01:31:32.002Z</time>
      </trkpt>
      <trkpt lat="41.90239" lon="25.5588">
        <ele>232.474157</ele>
        <time>2022-02-22T01:31:34.727Z</time>
      </trkpt>
      <trkpt lat="41.9023" lon="25.55886">
        <ele>231.966656</ele>
        <time>2022-02-22T01:31:36.590Z</time>
      </trkpt>
      <trkpt lat="41.90227" lon="25.5589">
        <ele>231.767169</ele>
        <time>2022-02-22T01:31:37.294Z</time>
      </trkpt>
      <trkpt lat="41.90219" lon="25.55887">
        <ele>231.329889</ele>
        <time>2022-02-22T01:31:38.867Z</time>
      </trkpt>
      <trkpt lat="41.89929" lon="25.55797">
        <ele>218.143247</ele>
        <time>2022-02-22T01:32:33.750Z</time>
      </trkpt>
      <trkpt lat="41.89091" lon="25.55531">
        <ele>206.546487</ele>
        <time>2022-02-22T01:35:44.652Z</time>
      </trkpt>
      <trkpt lat="41.88953" lon="25.55488">
        <ele>208.974932</ele>
        <time>2022-02-22T01:36:38.533Z</time>
      </trkpt>
      <trkpt lat="41.88901" lon="25.55472">
        <ele>210.297217</ele>
        <time>2022-02-22T01:37:01.346Z</time>
      </trkpt>
      <trkpt lat="41.88471" lon="25.55338">
        <ele>222.810561</ele>
        <time>2022-02-22T01:39:56.760Z</time>
      </trkpt>
      <trkpt lat="41.88415" lon="25.55319">
        <ele>224.844089</ele>
        <time>2022-02-22T01:40:23.240Z</time>
      </trkpt>
      <trkpt lat="41.88346" lon="25.55298">
        <ele>227.253559</ele>
        <time>2022-02-22T01:40:56.153Z</time>
      </trkpt>
      <trkpt lat="41.8823" lon="25.55259">
        <ele>230.500264</ele>
        <time>2022-02-22T01:41:47.272Z</time>
      </trkpt>
      <trkpt lat="41.88184" lon="25.55239">
        <ele>231.82609</ele>
        <time>2022-02-22T01:42:03.667Z</time>
      </trkpt>
      <trkpt lat="41.88144" lon="25.55222">
        <ele>231.396978</ele>
        <time>2022-02-22T01:42:15.690Z</time>
      </trkpt>
      <trkpt lat="41.88074" lon="25.55184">
        <ele>230.462893</ele>
        <time>2022-02-22T01:42:33.351Z</time>
      </trkpt>
      <trkpt lat="41.87975" lon="25.55116">
        <ele>227.928941</ele>
        <time>2022-02-22T01:42:55.061Z</time>
      </trkpt>
      <trkpt lat="41.87835" lon="25.54983">
        <ele>222.219088</ele>
        <time>2022-02-22T01:43:27.261Z</time>
      </trkpt>
      <trkpt lat="41.87788" lon="25.54931">
        <ele>221.1581</ele>
        <time>2022-02-22T01:43:39.462Z</time>
      </trkpt>
      <trkpt lat="41.87783" lon="25.54925">
        <ele>221.039668</ele>
        <time>2022-02-22T01:43:40.857Z</time>
      </trkpt>
      <trkpt lat="41.87532" lon="25.54602">
        <ele>220.789956</ele>
        <time>2022-02-22T01:45:20.719Z</time>
      </trkpt>
      <trkpt lat="41.87501" lon="25.54562">
        <ele>220.926082</ele>
        <time>2022-02-22T01:45:33.921Z</time>
      </trkpt>
      <trkpt lat="41.87426" lon="25.54451">
        <ele>220.553667</ele>
        <time>2022-02-22T01:46:02.651Z</time>
      </trkpt>
      <trkpt lat="41.874" lon="25.54397">
        <ele>220.199949</ele>
        <time>2022-02-22T01:46:13.858Z</time>
      </trkpt>
      <trkpt lat="41.87398" lon="25.5439">
        <ele>220.158735</ele>
        <time>2022-02-22T01:46:15.022Z</time>
      </trkpt>
      <trkpt lat="41.87364" lon="25.54288">
        <ele>219.454437</ele>
        <time>2022-02-22T01:46:33.922Z</time>
      </trkpt>
      <trkpt lat="41.87298" lon="25.54091">
        <ele>217.767335</ele>
        <time>2022-02-22T01:47:10.590Z</time>
      </trkpt>
      <trkpt lat="41.86748" lon="25.5243">
        <ele>211.275228</ele>
        <time>2022-02-22T01:52:46.026Z</time>
      </trkpt>
      <trkpt lat="41.86716" lon="25.52332">
        <ele>210.888017</ele>
        <time>2022-02-22T01:53:05.150Z</time>
      </trkpt>
      <trkpt lat="41.86649" lon="25.52128">
        <ele>210.596262</ele>
        <time>2022-02-22T01:53:47.758Z</time>
      </trkpt>
      <trkpt lat="41.86629" lon="25.52085">
        <ele>210.66385</ele>
        <time>2022-02-22T01:53:58.433Z</time>
      </trkpt>
      <trkpt lat="41.86605" lon="25.52048">
        <ele>210.801042</ele>
        <time>2022-02-22T01:54:08.818Z</time>
      </trkpt>
      <trkpt lat="41.86577" lon="25.52018">
        <ele>210.938026</ele>
        <time>2022-02-22T01:54:19.377Z</time>
      </trkpt>
      <trkpt lat="41.86548" lon="25.51992">
        <ele>211.069614</ele>
        <time>2022-02-22T01:54:29.777Z</time>
      </trkpt>
      <trkpt lat="41.86538" lon="25.51983">
        <ele>211.111606</ele>
        <time>2022-02-22T01:54:33.220Z</time>
      </trkpt>
      <trkpt lat="41.8647" lon="25.5193">
        <ele>210.9357</ele>
        <time>2022-02-22T01:54:55.887Z</time>
      </trkpt>
      <trkpt lat="41.86379" lon="25.51859">
        <ele>210.168349</ele>
        <time>2022-02-22T01:55:21.145Z</time>
      </trkpt>
      <trkpt lat="41.86306" lon="25.51802">
        <ele>208.453996</ele>
        <time>2022-02-22T01:55:38.689Z</time>
      </trkpt>
      <trkpt lat="41.86268" lon="25.51773">
        <ele>207.21038</ele>
        <time>2022-02-22T01:55:47.260Z</time>
      </trkpt>
      <trkpt lat="41.86246" lon="25.51754">
        <ele>206.465785</ele>
        <time>2022-02-22T01:55:52.380Z</time>
      </trkpt>
      <trkpt lat="41.86233" lon="25.51732">
        <ele>205.85939</ele>
        <time>2022-02-22T01:55:56.506Z</time>
      </trkpt>
      <trkpt lat="41.86215" lon="25.51685">
        <ele>204.749293</ele>
        <time>2022-02-22T01:56:04.063Z</time>
      </trkpt>
      <trkpt lat="41.86203" lon="25.51649">
        <ele>203.985727</ele>
        <time>2022-02-22T01:56:09.612Z</time>
      </trkpt>
      <trkpt lat="41.86178" lon="25.51571">
        <ele>202.311692</ele>
        <time>2022-02-22T01:56:22.123Z</time>
      </trkpt>
      <trkpt lat="41.86163" lon="25.51525">
        <ele>201.32125</ele>
        <time>2022-02-22T01:56:29.715Z</time>
      </trkpt>
      <trkpt lat="41.86107" lon="25.51356">
        <ele>198.814218</ele>
        <time>2022-02-22T01:57:00.081Z</time>
      </trkpt>
      <trkpt lat="41.86096" lon="25.51322">
        <ele>198.42987</ele>
        <time>2022-02-22T01:57:06.388Z</time>
      </trkpt>
      <trkpt lat="41.86048" lon="25.51174">
        <ele>196.808175</ele>
        <time>2022-02-22T01:57:33.392Z</time>
      </trkpt>
      <trkpt lat="41.86013" lon="25.51072">
        <ele>195.72039</ele>
        <time>2022-02-22T01:57:51.883Z</time>
      </trkpt>
      <trkpt lat="41.86005" lon="25.51039">
        <ele>195.376713</ele>
        <time>2022-02-22T01:57:57.869Z</time>
      </trkpt>
      <trkpt lat="41.8599" lon="25.51014">
        <ele>195.261982</ele>
        <time>2022-02-22T01:58:03.325Z</time>
      </trkpt>
      <trkpt lat="41.85973" lon="25.50992">
        <ele>195.334472</ele>
        <time>2022-02-22T01:58:08.711Z</time>
      </trkpt>
      <trkpt lat="41.85956" lon="25.50976">
        <ele>195.398219</ele>
        <time>2022-02-22T01:58:13.547Z</time>
      </trkpt>
      <trkpt lat="41.85926" lon="25.50961">
        <ele>195.49962</ele>
        <time>2022-02-22T01:58:21.398Z</time>
      </trkpt>
      <trkpt lat="41.85569" lon="25.50797">
        <ele>198.662868</ele>
        <time>2022-02-22T02:00:14.968Z</time>
      </trkpt>
      <trkpt lat="41.85131" lon="25.50603">
        <ele>217.081926</ele>
        <time>2022-02-22T02:03:52.614Z</time>
      </trkpt>
      <trkpt lat="41.85099" lon="25.5058">
        <ele>218.918096</ele>
        <time>2022-02-22T02:04:11.143Z</time>
      </trkpt>
      <trkpt lat="41.85069" lon="25.50551">
        <ele>220.754192</ele>
        <time>2022-02-22T02:04:29.853Z</time>
      </trkpt>
      <trkpt lat="41.85037" lon="25.50496">
        <ele>223.382187</ele>
        <time>2022-02-22T02:04:56.974Z</time>
      </trkpt>
      <trkpt lat="41.8489" lon="25.50115">
        <ele>241.01835</ele>
        <time>2022-02-22T02:07:47.189Z</time>
      </trkpt>
      <trkpt lat="41.84858" lon="25.50052">
        <ele>244.243349</ele>
        <time>2022-02-22T02:08:18.407Z</time>
      </trkpt>
      <trkpt lat="41.84819" lon="25.49995">
        <ele>247.568443</ele>
        <time>2022-02-22T02:08:50.209Z</time>
      </trkpt>
      <trkpt lat="41.84688" lon="25.49847">
        <ele>257.272206</ele>
        <time>2022-02-22T02:10:23.390Z</time>
      </trkpt>
      <trkpt lat="41.84604" lon="25.49763">
        <ele>262.80652</ele>
        <time>2022-02-22T02:11:17.353Z</time>
      </trkpt>
      <trkpt lat="41.84425" lon="25.49629">
        <ele>273.043253</ele>
        <time>2022-02-22T02:13:00.304Z</time>
      </trkpt>
      <trkpt lat="41.84264" lon="25.49544">
        <ele>281.273172</ele>
        <time>2022-02-22T02:14:28.202Z</time>
      </trkpt>
      <trkpt lat="41.84217" lon="25.49517">
        <ele>282.79124</ele>
        <time>2022-02-22T02:14:51.131Z</time>
      </trkpt>
      <trkpt lat="41.8418" lon="25.49492">
        <ele>283.66438</ele>
        <time>2022-02-22T02:15:08.372Z</time>
      </trkpt>
      <trkpt lat="41.84149" lon="25.49456">
        <ele>284.507952</ele>
        <time>2022-02-22T02:15:23.452Z</time>
      </trkpt>
      <trkpt lat="41.84118" lon="25.4941">
        <ele>285.450307</ele>
        <time>2022-02-22T02:15:37.833Z</time>
      </trkpt>
      <trkpt lat="41.84058" lon="25.493">
        <ele>285.345145</ele>
        <time>2022-02-22T02:16:02.483Z</time>
      </trkpt>
      <trkpt lat="41.83996" lon="25.49197">
        <ele>284.777702</ele>
        <time>2022-02-22T02:16:25.512Z</time>
      </trkpt>
      <trkpt lat="41.83983" lon="25.49165">
        <ele>284.865799</ele>
        <time>2022-02-22T02:16:32.144Z</time>
      </trkpt>
      <trkpt lat="41.83965" lon="25.49125">
        <ele>284.979246</ele>
        <time>2022-02-22T02:16:40.989Z</time>
      </trkpt>
      <trkpt lat="41.83952" lon="25.49087">
        <ele>285.080956</ele>
        <time>2022-02-22T02:16:49.425Z</time>
      </trkpt>
      <trkpt lat="41.83932" lon="25.49008">
        <ele>285.285642</ele>
        <time>2022-02-22T02:17:08.427Z</time>
      </trkpt>
      <trkpt lat="41.83748" lon="25.48354">
        <ele>293.190834</ele>
        <time>2022-02-22T02:20:07.297Z</time>
      </trkpt>
      <trkpt lat="41.83736" lon="25.48294">
        <ele>293.941547</ele>
        <time>2022-02-22T02:20:22.893Z</time>
      </trkpt>
      <trkpt lat="41.83703" lon="25.48041">
        <ele>297.280008</ele>
        <time>2022-02-22T02:21:29.432Z</time>
      </trkpt>
      <trkpt lat="41.83685" lon="25.4795">
        <ele>298.768087</ele>
        <time>2022-02-22T02:21:56.195Z</time>
      </trkpt>
      <trkpt lat="41.83666" lon="25.47903">
        <ele>299.596988</ele>
        <time>2022-02-22T02:22:11.322Z</time>
      </trkpt>
      <trkpt lat="41.8359" lon="25.47756">
        <ele>300.976636</ele>
        <time>2022-02-22T02:22:58.941Z</time>
      </trkpt>
      <trkpt lat="41.83323" lon="25.47199">
        <ele>301.056386</ele>
        <time>2022-02-22T02:25:07.218Z</time>
      </trkpt>
      <trkpt lat="41.83241" lon="25.46964">
        <ele>298.815639</ele>
        <time>2022-02-22T02:25:49.902Z</time>
      </trkpt>
      <trkpt lat="41.83197" lon="25.46829">
        <ele>297.482187</ele>
        <time>2022-02-22T02:26:14.420Z</time>
      </trkpt>
      <trkpt lat="41.83188" lon="25.46801">
        <ele>297.205732</ele>
        <time>2022-02-22T02:26:19.878Z</time>
      </trkpt>
      <trkpt lat="41.83155" lon="25.46702">
        <ele>297.439589</ele>
        <time>2022-02-22T02:26:40.380Z</time>
      </trkpt>
      <trkpt lat="41.83102" lon="25.46539">
        <ele>297.799475</ele>
        <time>2022-02-22T02:27:22.288Z</time>
      </trkpt>
      <trkpt lat="41.83071" lon="25.46441">
        <ele>297.963541</ele>
        <time>2022-02-22T02:27:45.272Z</time>
      </trkpt>
      <trkpt lat="41.83062" lon="25.46413">
        <ele>298.009603</ele>
        <time>2022-02-22T02:27:51.018Z</time>
      </trkpt>
      <trkpt lat="41.83056" lon="25.46393">
        <ele>298.042738</ele>
        <time>2022-02-22T02:27:55.209Z</time>
      </trkpt>
      <trkpt lat="41.83039" lon="25.46341">
        <ele>297.91765</ele>
        <time>2022-02-22T02:28:05.484Z</time>
      </trkpt>
      <trkpt lat="41.83033" lon="25.46324">
        <ele>297.719287</ele>
        <time>2022-02-22T02:28:08.818Z</time>
      </trkpt>
      <trkpt lat="41.83015" lon="25.46269">
        <ele>297.111968</ele>
        <time>2022-02-22T02:28:18.903Z</time>
      </trkpt>
      <trkpt lat="41.82998" lon="25.46214">
        <ele>296.50705</ele>
        <time>2022-02-22T02:28:28.608Z</time>
      </trkpt>
      <trkpt lat="41.82965" lon="25.46113">
        <ele>295.514986</ele>
        <time>2022-02-22T02:28:46.064Z</time>
      </trkpt>
      <trkpt lat="41.82939" lon="25.46021">
        <ele>294.985686</ele>
        <time>2022-02-22T02:29:02.798Z</time>
      </trkpt>
      <trkpt lat="41.82932" lon="25.45984">
        <ele>294.775024</ele>
        <time>2022-02-22T02:29:09.803Z</time>
      </trkpt>
      <trkpt lat="41.82924" lon="25.45936">
        <ele>294.510069</ele>
        <time>2022-02-22T02:29:19.159Z</time>
      </trkpt>
      <trkpt lat="41.8291" lon="25.45816">
        <ele>295.370031</ele>
        <time>2022-02-22T02:29:45.756Z</time>
      </trkpt>
      <trkpt lat="41.82897" lon="25.45765">
        <ele>295.972124</ele>
        <time>2022-02-22T02:29:59.360Z</time>
      </trkpt>
      <trkpt lat="41.82876" lon="25.45715">
        <ele>296.608816</ele>
        <time>2022-02-22T02:30:14.842Z</time>
      </trkpt>
      <trkpt lat="41.82802" lon="25.45579">
        <ele>300.509037</ele>
        <time>2022-02-22T02:31:06.275Z</time>
      </trkpt>
      <trkpt lat="41.8279" lon="25.45547">
        <ele>301.460547</ele>
        <time>2022-02-22T02:31:18.683Z</time>
      </trkpt>
      <trkpt lat="41.82778" lon="25.45498">
        <ele>302.838097</ele>
        <time>2022-02-22T02:31:37.070Z</time>
      </trkpt>
      <trkpt lat="41.82772" lon="25.45446">
        <ele>304.550959</ele>
        <time>2022-02-22T02:31:56.292Z</time>
      </trkpt>
      <trkpt lat="41.82747" lon="25.45445">
        <ele>305.766731</ele>
        <time>2022-02-22T02:32:08.318Z</time>
      </trkpt>
      <trkpt lat="41.82714" lon="25.45436">
        <ele>307.433293</ele>
        <time>2022-02-22T02:32:25.340Z</time>
      </trkpt>
      <trkpt lat="41.82649" lon="25.45425">
        <ele>310.674231</ele>
        <time>2022-02-22T02:32:59.183Z</time>
      </trkpt>
      <trkpt lat="41.82616" lon="25.45431">
        <ele>312.297271</ele>
        <time>2022-02-22T02:33:16.365Z</time>
      </trkpt>
      <trkpt lat="41.82442" lon="25.45573">
        <ele>322.261406</ele>
        <time>2022-02-22T02:34:59.234Z</time>
      </trkpt>
      <trkpt lat="41.82306" lon="25.45591">
        <ele>328.408459</ele>
        <time>2022-02-22T02:36:04.625Z</time>
      </trkpt>
      <trkpt lat="41.82124" lon="25.45628">
        <ele>336.447691</ele>
        <time>2022-02-22T02:37:31.203Z</time>
      </trkpt>
      <trkpt lat="41.82061" lon="25.45618">
        <ele>339.623786</ele>
        <time>2022-02-22T02:38:03.007Z</time>
      </trkpt>
      <trkpt lat="41.8203" lon="25.45586">
        <ele>341.640152</ele>
        <time>2022-02-22T02:38:23.015Z</time>
      </trkpt>
      <trkpt lat="41.82" lon="25.4552">
        <ele>344.583563</ele>
        <time>2022-02-22T02:38:52.956Z</time>
      </trkpt>
      <trkpt lat="41.81986" lon="25.45485">
        <ele>346.157242</ele>
        <time>2022-02-22T02:39:09.161Z</time>
      </trkpt>
      <trkpt lat="41.81966" lon="25.45392">
        <ele>350.222358</ele>
        <time>2022-02-22T02:39:47.930Z</time>
      </trkpt>
      <trkpt lat="41.81957" lon="25.45369">
        <ele>351.317925</ele>
        <time>2022-02-22T02:39:58.379Z</time>
      </trkpt>
      <trkpt lat="41.81943" lon="25.45354">
        <ele>352.313602</ele>
        <time>2022-02-22T02:40:07.805Z</time>
      </trkpt>
      <trkpt lat="41.8193" lon="25.45352">
        <ele>353.060127</ele>
        <time>2022-02-22T02:40:14.951Z</time>
      </trkpt>
      <trkpt lat="41.81833" lon="25.45344">
        <ele>358.7101</ele>
        <time>2022-02-22T02:41:07.011Z</time>
      </trkpt>
      <trkpt lat="41.81656" lon="25.45178">
        <ele>372.730473</ele>
        <time>2022-02-22T02:43:10.028Z</time>
      </trkpt>
      <trkpt lat="41.8163" lon="25.45149">
        <ele>375.115807</ele>
        <time>2022-02-22T02:43:30.746Z</time>
      </trkpt>
      <trkpt lat="41.81529" lon="25.44949">
        <ele>388.499187</ele>
        <time>2022-02-22T02:45:28.055Z</time>
      </trkpt>
      <trkpt lat="41.81442" lon="25.44815">
        <ele>397.227973</ele>
        <time>2022-02-22T02:46:48.902Z</time>
      </trkpt>
      <trkpt lat="41.8141" lon="25.4472">
        <ele>401.263556</ele>
        <time>2022-02-22T02:47:29.295Z</time>
      </trkpt>
      <trkpt lat="41.81386" lon="25.44668">
        <ele>403.60477</ele>
        <time>2022-02-22T02:47:49.973Z</time>
      </trkpt>
      <trkpt lat="41.81289" lon="25.44567">
        <ele>405.069157</ele>
        <time>2022-02-22T02:48:32.658Z</time>
      </trkpt>
      <trkpt lat="41.81239" lon="25.44522">
        <ele>405.706003</ele>
        <time>2022-02-22T02:48:47.523Z</time>
      </trkpt>
      <trkpt lat="41.81039" lon="25.44391">
        <ele>403.129894</ele>
        <time>2022-02-22T02:49:36.594Z</time>
      </trkpt>
      <trkpt lat="41.80931" lon="25.4429">
        <ele>402.248848</ele>
        <time>2022-02-22T02:50:09.758Z</time>
      </trkpt>
      <trkpt lat="41.80913" lon="25.44276">
        <ele>402.077039</ele>
        <time>2022-02-22T02:50:15.287Z</time>
      </trkpt>
      <trkpt lat="41.8089" lon="25.44266">
        <ele>401.868959</ele>
        <time>2022-02-22T02:50:21.236Z</time>
      </trkpt>
      <trkpt lat="41.8088" lon="25.44264">
        <ele>401.776958</ele>
        <time>2022-02-22T02:50:23.867Z</time>
      </trkpt>
      <trkpt lat="41.8084" lon="25.44254">
        <ele>401.421804</ele>
        <time>2022-02-22T02:50:33.288Z</time>
      </trkpt>
      <trkpt lat="41.80758" lon="25.44235">
        <ele>400.694859</ele>
        <time>2022-02-22T02:50:52.153Z</time>
      </trkpt>
      <trkpt lat="41.80745" lon="25.44233">
        <ele>400.68574</ele>
        <time>2022-02-22T02:50:55.031Z</time>
      </trkpt>
      <trkpt lat="41.80735" lon="25.44232">
        <ele>400.711125</ele>
        <time>2022-02-22T02:50:57.062Z</time>
      </trkpt>
      <trkpt lat="41.80719" lon="25.44233">
        <ele>400.751449</ele>
        <time>2022-02-22T02:51:00.606Z</time>
      </trkpt>
      <trkpt lat="41.80613" lon="25.44276">
        <ele>401.032317</ele>
        <time>2022-02-22T02:51:30.480Z</time>
      </trkpt>
      <trkpt lat="41.80595" lon="25.44279">
        <ele>401.078425</ele>
        <time>2022-02-22T02:51:36.729Z</time>
      </trkpt>
      <trkpt lat="41.80563" lon="25.44279">
        <ele>401.754741</ele>
        <time>2022-02-22T02:51:48.906Z</time>
      </trkpt>
      <trkpt lat="41.80538" lon="25.44276">
        <ele>402.778398</ele>
        <time>2022-02-22T02:51:59.155Z</time>
      </trkpt>
      <trkpt lat="41.8051" lon="25.44269">
        <ele>403.967342</ele>
        <time>2022-02-22T02:52:11.159Z</time>
      </trkpt>
      <trkpt lat="41.80499" lon="25.44265">
        <ele>404.393457</ele>
        <time>2022-02-22T02:52:16.592Z</time>
      </trkpt>
      <trkpt lat="41.80409" lon="25.44238">
        <ele>408.176102</ele>
        <time>2022-02-22T02:53:02.849Z</time>
      </trkpt>
      <trkpt lat="41.80305" lon="25.44215">
        <ele>414.540236</ele>
        <time>2022-02-22T02:54:01.588Z</time>
      </trkpt>
      <trkpt lat="41.80294" lon="25.44214">
        <ele>415.230414</ele>
        <time>2022-02-22T02:54:08.730Z</time>
      </trkpt>
      <trkpt lat="41.80261" lon="25.44213">
        <ele>417.279895</ele>
        <time>2022-02-22T02:54:27.499Z</time>
      </trkpt>
      <trkpt lat="41.80205" lon="25.44202">
        <ele>420.831395</ele>
        <time>2022-02-22T02:55:00.928Z</time>
      </trkpt>
      <trkpt lat="41.80085" lon="25.44139">
        <ele>428.861943</ele>
        <time>2022-02-22T02:56:15.941Z</time>
      </trkpt>
      <trkpt lat="41.80042" lon="25.44132">
        <ele>431.356548</ele>
        <time>2022-02-22T02:56:38.685Z</time>
      </trkpt>
      <trkpt lat="41.79994" lon="25.44139">
        <ele>433.500328</ele>
        <time>2022-02-22T02:57:02.858Z</time>
      </trkpt>
      <trkpt lat="41.79885" lon="25.44228">
        <ele>439.241145</ele>
        <time>2022-02-22T02:58:00.533Z</time>
      </trkpt>
      <trkpt lat="41.79834" lon="25.44228">
        <ele>442.114713</ele>
        <time>2022-02-22T02:58:24.651Z</time>
      </trkpt>
      <trkpt lat="41.79783" lon="25.44218">
        <ele>445.059583</ele>
        <time>2022-02-22T02:58:52.081Z</time>
      </trkpt>
      <trkpt lat="41.79763" lon="25.44205">
        <ele>446.321576</ele>
        <time>2022-02-22T02:59:04.738Z</time>
      </trkpt>
      <trkpt lat="41.79752" lon="25.44185">
        <ele>447.354761</ele>
        <time>2022-02-22T02:59:15.535Z</time>
      </trkpt>
      <trkpt lat="41.79746" lon="25.44161">
        <ele>448.418141</ele>
        <time>2022-02-22T02:59:26.946Z</time>
      </trkpt>
      <trkpt lat="41.79726" lon="25.44021">
        <ele>456.087712</ele>
        <time>2022-02-22T03:00:35.978Z</time>
      </trkpt>
      <trkpt lat="41.79713" lon="25.43997">
        <ele>457.702339</ele>
        <time>2022-02-22T03:00:50.364Z</time>
      </trkpt>
      <trkpt lat="41.79698" lon="25.43979">
        <ele>459.20589</ele>
        <time>2022-02-22T03:01:03.486Z</time>
      </trkpt>
      <trkpt lat="41.79684" lon="25.43972">
        <ele>460.266407</ele>
        <time>2022-02-22T03:01:12.495Z</time>
      </trkpt>
      <trkpt lat="41.79593" lon="25.43959">
        <ele>464.7962</ele>
        <time>2022-02-22T03:02:03.506Z</time>
      </trkpt>
      <trkpt lat="41.79564" lon="25.43949">
        <ele>465.98</ele>
        <time>2022-02-22T03:02:17.621Z</time>
      </trkpt>
      <trkpt lat="41.79527" lon="25.43912">
        <ele>467.797549</ele>
        <time>2022-02-22T03:02:36.836Z</time>
      </trkpt>
      <trkpt lat="41.79513" lon="25.43874">
        <ele>469.035163</ele>
        <time>2022-02-22T03:02:48.644Z</time>
      </trkpt>
      <trkpt lat="41.79507" lon="25.43676">
        <ele>469.138061</ele>
        <time>2022-02-22T03:03:28.568Z</time>
      </trkpt>
      <trkpt lat="41.79493" lon="25.43624">
        <ele>469.063885</ele>
        <time>2022-02-22T03:03:37.663Z</time>
      </trkpt>
      <trkpt lat="41.79482" lon="25.43618">
        <ele>468.881471</ele>
        <time>2022-02-22T03:03:40.192Z</time>
      </trkpt>
      <trkpt lat="41.7946" lon="25.43623">
        <ele>468.530851</ele>
        <time>2022-02-22T03:03:44.963Z</time>
      </trkpt>
      <trkpt lat="41.79404" lon="25.43682">
        <ele>467.413336</ele>
        <time>2022-02-22T03:03:59.904Z</time>
      </trkpt>
      <trkpt lat="41.79371" lon="25.43691">
        <ele>466.887121</ele>
        <time>2022-02-22T03:04:07.072Z</time>
      </trkpt>
      <trkpt lat="41.79324" lon="25.43681">
        <ele>466.410443</ele>
        <time>2022-02-22T03:04:17.672Z</time>
      </trkpt>
      <trkpt lat="41.7929" lon="25.43666">
        <ele>466.970151</ele>
        <time>2022-02-22T03:04:27.405Z</time>
      </trkpt>
      <trkpt lat="41.79268" lon="25.43653">
        <ele>467.323883</ele>
        <time>2022-02-22T03:04:34.551Z</time>
      </trkpt>
      <trkpt lat="41.79224" lon="25.43602">
        <ele>468.212036</ele>
        <time>2022-02-22T03:04:55.103Z</time>
      </trkpt>
      <trkpt lat="41.79205" lon="25.43592">
        <ele>468.532392</ele>
        <time>2022-02-22T03:05:03.357Z</time>
      </trkpt>
      <trkpt lat="41.79179" lon="25.43586">
        <ele>468.922296</ele>
        <time>2022-02-22T03:05:14.073Z</time>
      </trkpt>
      <trkpt lat="41.79149" lon="25.43592">
        <ele>470.196665</ele>
        <time>2022-02-22T03:05:27.863Z</time>
      </trkpt>
      <trkpt lat="41.79127" lon="25.43601">
        <ele>471.358567</ele>
        <time>2022-02-22T03:05:39.212Z</time>
      </trkpt>
      <trkpt lat="41.79046" lon="25.43677">
        <ele>476.267183</ele>
        <time>2022-02-22T03:06:30.220Z</time>
      </trkpt>
      <trkpt lat="41.78978" lon="25.43789">
        <ele>483.074643</ele>
        <time>2022-02-22T03:07:29.922Z</time>
      </trkpt>
      <trkpt lat="41.78962" lon="25.43796">
        <ele>484.292715</ele>
        <time>2022-02-22T03:07:40.533Z</time>
      </trkpt>
      <trkpt lat="41.78933" lon="25.4379">
        <ele>486.352153</ele>
        <time>2022-02-22T03:07:58.805Z</time>
      </trkpt>
      <trkpt lat="41.78906" lon="25.43757">
        <ele>488.876479</ele>
        <time>2022-02-22T03:08:22.064Z</time>
      </trkpt>
      <trkpt lat="41.78904" lon="25.43678">
        <ele>492.928166</ele>
        <time>2022-02-22T03:09:01.304Z</time>
      </trkpt>
      <trkpt lat="41.78889" lon="25.43627">
        <ele>495.723182</ele>
        <time>2022-02-22T03:09:28.740Z</time>
      </trkpt>
      <trkpt lat="41.78807" lon="25.43536">
        <ele>502.810078</ele>
        <time>2022-02-22T03:10:30.771Z</time>
      </trkpt>
      <trkpt lat="41.78795" lon="25.43506">
        <ele>502.964316</ele>
        <time>2022-02-22T03:10:41.817Z</time>
      </trkpt>
      <trkpt lat="41.78786" lon="25.43466">
        <ele>503.151627</ele>
        <time>2022-02-22T03:10:53.234Z</time>
      </trkpt>
      <trkpt lat="41.78779" lon="25.43419">
        <ele>503.373216</ele>
        <time>2022-02-22T03:11:04.128Z</time>
      </trkpt>
      <trkpt lat="41.78766" lon="25.43322">
        <ele>503.821186</ele>
        <time>2022-02-22T03:11:20.385Z</time>
      </trkpt>
      <trkpt lat="41.78762" lon="25.43304">
        <ele>503.820792</ele>
        <time>2022-02-22T03:11:23.065Z</time>
      </trkpt>
      <trkpt lat="41.78747" lon="25.43278">
        <ele>503.203872</ele>
        <time>2022-02-22T03:11:27.829Z</time>
      </trkpt>
      <trkpt lat="41.78726" lon="25.43263">
        <ele>502.59452</ele>
        <time>2022-02-22T03:11:32.421Z</time>
      </trkpt>
      <trkpt lat="41.78701" lon="25.43261">
        <ele>501.963917</ele>
        <time>2022-02-22T03:11:37.326Z</time>
      </trkpt>
      <trkpt lat="41.78642" lon="25.43272">
        <ele>500.459324</ele>
        <time>2022-02-22T03:11:48.693Z</time>
      </trkpt>
      <trkpt lat="41.78617" lon="25.43269">
        <ele>499.803567</ele>
        <time>2022-02-22T03:11:54.349Z</time>
      </trkpt>
      <trkpt lat="41.78579" lon="25.43241">
        <ele>499.610519</ele>
        <time>2022-02-22T03:12:04.171Z</time>
      </trkpt>
      <trkpt lat="41.78573" lon="25.43236">
        <ele>499.689303</ele>
        <time>2022-02-22T03:12:06.235Z</time>
      </trkpt>
      <trkpt lat="41.78575" lon="25.43225">
        <ele>499.784256</ele>
        <time>2022-02-22T03:12:10.539Z</time>
      </trkpt>
      <trkpt lat="41.78578" lon="25.43225">
        <ele>499.823544</ele>
        <time>2022-02-22T03:12:12.589Z</time>
      </trkpt>
      <trkpt lat="41.78575" lon="25.43225">
        <ele>499.862832</ele>
        <time>2022-02-22T03:12:13.784Z</time>
      </trkpt>
      <trkpt lat="41.78573" lon="25.43236">
        <ele>499.957786</ele>
        <time>2022-02-22T03:12:16.975Z</time>
      </trkpt>
      <trkpt lat="41.78579" lon="25.43241">
        <ele>500.03657</ele>
        <time>2022-02-22T03:12:18.594Z</time>
      </trkpt>
      <trkpt lat="41.78617" lon="25.43269">
        <ele>500.536166</ele>
        <time>2022-02-22T03:12:32.638Z</time>
      </trkpt>
      <trkpt lat="41.78642" lon="25.43272">
        <ele>500.834722</ele>
        <time>2022-02-22T03:12:41.506Z</time>
      </trkpt>
      <trkpt lat="41.78701" lon="25.43261">
        <ele>501.602693</ele>
        <time>2022-02-22T03:13:07.607Z</time>
      </trkpt>
      <trkpt lat="41.78726" lon="25.43263">
        <ele>502.095574</ele>
        <time>2022-02-22T03:13:17.889Z</time>
      </trkpt>
      <trkpt lat="41.78747" lon="25.43278">
        <ele>502.571846</ele>
        <time>2022-02-22T03:13:28.590Z</time>
      </trkpt>
      <trkpt lat="41.78762" lon="25.43304">
        <ele>503.054032</ele>
        <time>2022-02-22T03:13:38.794Z</time>
      </trkpt>
      <trkpt lat="41.78766" lon="25.43322">
        <ele>503.324791</ele>
        <time>2022-02-22T03:13:44.511Z</time>
      </trkpt>
      <trkpt lat="41.78779" lon="25.43419">
        <ele>504.781093</ele>
        <time>2022-02-22T03:14:09.189Z</time>
      </trkpt>
      <trkpt lat="41.78786" lon="25.43466">
        <ele>503.797086</ele>
        <time>2022-02-22T03:14:17.922Z</time>
      </trkpt>
      <trkpt lat="41.78795" lon="25.43506">
        <ele>502.458254</ele>
        <time>2022-02-22T03:14:24.327Z</time>
      </trkpt>
      <trkpt lat="41.78807" lon="25.43536">
        <ele>501.355818</ele>
        <time>2022-02-22T03:14:29.191Z</time>
      </trkpt>
      <trkpt lat="41.78889" lon="25.43627">
        <ele>496.386191</ele>
        <time>2022-02-22T03:14:47.716Z</time>
      </trkpt>
      <trkpt lat="41.78904" lon="25.43678">
        <ele>493.265812</ele>
        <time>2022-02-22T03:14:54.582Z</time>
      </trkpt>
      <trkpt lat="41.78906" lon="25.43757">
        <ele>488.794402</ele>
        <time>2022-02-22T03:15:04.427Z</time>
      </trkpt>
      <trkpt lat="41.78933" lon="25.4379">
        <ele>486.055194</ele>
        <time>2022-02-22T03:15:10.504Z</time>
      </trkpt>
      <trkpt lat="41.78962" lon="25.43796">
        <ele>483.820447</ele>
        <time>2022-02-22T03:15:15.488Z</time>
      </trkpt>
      <trkpt lat="41.78978" lon="25.43789">
        <ele>482.707059</ele>
        <time>2022-02-22T03:15:18.478Z</time>
      </trkpt>
      <trkpt lat="41.79046" lon="25.43677">
        <ele>476.35354</ele>
        <time>2022-02-22T03:15:37.262Z</time>
      </trkpt>
      <trkpt lat="41.79127" lon="25.43601">
        <ele>471.43938</ele>
        <time>2022-02-22T03:15:55.168Z</time>
      </trkpt>
      <trkpt lat="41.79149" lon="25.43592">
        <ele>470.636172</ele>
        <time>2022-02-22T03:15:59.506Z</time>
      </trkpt>
      <trkpt lat="41.79179" lon="25.43586">
        <ele>469.592874</ele>
        <time>2022-02-22T03:16:05.274Z</time>
      </trkpt>
      <trkpt lat="41.79205" lon="25.43592">
        <ele>468.717324</ele>
        <time>2022-02-22T03:16:10.306Z</time>
      </trkpt>
      <trkpt lat="41.79224" lon="25.43602">
        <ele>467.997948</ele>
        <time>2022-02-22T03:16:14.567Z</time>
      </trkpt>
      <trkpt lat="41.79268" lon="25.43653">
        <ele>466.710168</ele>
        <time>2022-02-22T03:16:27.074Z</time>
      </trkpt>
      <trkpt lat="41.7929" lon="25.43666">
        <ele>466.835911</ele>
        <time>2022-02-22T03:16:32.557Z</time>
      </trkpt>
      <trkpt lat="41.79324" lon="25.43681">
        <ele>467.034872</ele>
        <time>2022-02-22T03:16:42.429Z</time>
      </trkpt>
      <trkpt lat="41.79371" lon="25.43691">
        <ele>467.287765</ele>
        <time>2022-02-22T03:16:57.507Z</time>
      </trkpt>
      <trkpt lat="41.79404" lon="25.43682">
        <ele>467.470821</ele>
        <time>2022-02-22T03:17:09.673Z</time>
      </trkpt>
      <trkpt lat="41.7946" lon="25.43623">
        <ele>468.207858</ele>
        <time>2022-02-22T03:17:36.412Z</time>
      </trkpt>
      <trkpt lat="41.79482" lon="25.43618">
        <ele>468.486038</ele>
        <time>2022-02-22T03:17:44.559Z</time>
      </trkpt>
      <trkpt lat="41.79493" lon="25.43624">
        <ele>468.630764</ele>
        <time>2022-02-22T03:17:48.657Z</time>
      </trkpt>
      <trkpt lat="41.79507" lon="25.43676">
        <ele>469.139924</ele>
        <time>2022-02-22T03:18:02.596Z</time>
      </trkpt>
      <trkpt lat="41.79513" lon="25.43874">
        <ele>468.245042</ele>
        <time>2022-02-22T03:18:41.322Z</time>
      </trkpt>
      <trkpt lat="41.79527" lon="25.43912">
        <ele>467.716923</ele>
        <time>2022-02-22T03:18:47.826Z</time>
      </trkpt>
      <trkpt lat="41.79564" lon="25.43949">
        <ele>466.941331</ele>
        <time>2022-02-22T03:18:56.914Z</time>
      </trkpt>
      <trkpt lat="41.79593" lon="25.43959">
        <ele>465.47812</ele>
        <time>2022-02-22T03:19:02.539Z</time>
      </trkpt>
      <trkpt lat="41.79684" lon="25.43972">
        <ele>459.750216</ele>
        <time>2022-02-22T03:19:18.665Z</time>
      </trkpt>
      <trkpt lat="41.79698" lon="25.43979">
        <ele>458.850797</ele>
        <time>2022-02-22T03:19:21.114Z</time>
      </trkpt>
      <trkpt lat="41.79713" lon="25.43997">
        <ele>457.575644</ele>
        <time>2022-02-22T03:19:24.569Z</time>
      </trkpt>
      <trkpt lat="41.79726" lon="25.44021">
        <ele>456.206287</ele>
        <time>2022-02-22T03:19:28.248Z</time>
      </trkpt>
      <trkpt lat="41.79746" lon="25.44161">
        <ele>448.808858</ele>
        <time>2022-02-22T03:19:46.217Z</time>
      </trkpt>
      <trkpt lat="41.79752" lon="25.44185">
        <ele>447.492299</ele>
        <time>2022-02-22T03:19:49.426Z</time>
      </trkpt>
      <trkpt lat="41.79763" lon="25.44205">
        <ele>446.213123</ele>
        <time>2022-02-22T03:19:52.574Z</time>
      </trkpt>
      <trkpt lat="41.79783" lon="25.44218">
        <ele>444.650662</ele>
        <time>2022-02-22T03:19:56.468Z</time>
      </trkpt>
      <trkpt lat="41.79834" lon="25.44228">
        <ele>441.709596</ele>
        <time>2022-02-22T03:20:05.763Z</time>
      </trkpt>
      <trkpt lat="41.79885" lon="25.44228">
        <ele>439.448301</ele>
        <time>2022-02-22T03:20:15.176Z</time>
      </trkpt>
      <trkpt lat="41.79994" lon="25.44139">
        <ele>433.524777</ele>
        <time>2022-02-22T03:20:39.319Z</time>
      </trkpt>
      <trkpt lat="41.80042" lon="25.44132">
        <ele>430.921878</ele>
        <time>2022-02-22T03:20:48.157Z</time>
      </trkpt>
      <trkpt lat="41.80085" lon="25.44139">
        <ele>428.595583</ele>
        <time>2022-02-22T03:20:55.906Z</time>
      </trkpt>
      <trkpt lat="41.80205" lon="25.44202">
        <ele>420.938365</ele>
        <time>2022-02-22T03:21:18.142Z</time>
      </trkpt>
      <trkpt lat="41.80261" lon="25.44213">
        <ele>417.21694</ele>
        <time>2022-02-22T03:21:28.031Z</time>
      </trkpt>
      <trkpt lat="41.80294" lon="25.44214">
        <ele>415.0633</ele>
        <time>2022-02-22T03:21:33.794Z</time>
      </trkpt>
      <trkpt lat="41.80305" lon="25.44215">
        <ele>414.338045</ele>
        <time>2022-02-22T03:21:35.677Z</time>
      </trkpt>
      <trkpt lat="41.80409" lon="25.44238">
        <ele>408.55858</ele>
        <time>2022-02-22T03:21:54.037Z</time>
      </trkpt>
      <trkpt lat="41.80499" lon="25.44265">
        <ele>403.72044</ele>
        <time>2022-02-22T03:22:11.041Z</time>
      </trkpt>
      <trkpt lat="41.8051" lon="25.44269">
        <ele>403.506084</ele>
        <time>2022-02-22T03:22:12.924Z</time>
      </trkpt>
      <trkpt lat="41.80538" lon="25.44276">
        <ele>402.907991</ele>
        <time>2022-02-22T03:22:18.701Z</time>
      </trkpt>
      <trkpt lat="41.80563" lon="25.44279">
        <ele>402.393045</ele>
        <time>2022-02-22T03:22:23.723Z</time>
      </trkpt>
      <trkpt lat="41.80595" lon="25.44279">
        <ele>401.753433</ele>
        <time>2022-02-22T03:22:30.091Z</time>
      </trkpt>
      <trkpt lat="41.80613" lon="25.44276">
        <ele>401.381762</ele>
        <time>2022-02-22T03:22:34.051Z</time>
      </trkpt>
      <trkpt lat="41.80719" lon="25.44233">
        <ele>400.582884</ele>
        <time>2022-02-22T03:23:03.334Z</time>
      </trkpt>
      <trkpt lat="41.80735" lon="25.44232">
        <ele>400.717863</ele>
        <time>2022-02-22T03:23:08.571Z</time>
      </trkpt>
      <trkpt lat="41.80745" lon="25.44233">
        <ele>400.802837</ele>
        <time>2022-02-22T03:23:12.541Z</time>
      </trkpt>
      <trkpt lat="41.80758" lon="25.44235">
        <ele>400.914027</ele>
        <time>2022-02-22T03:23:16.940Z</time>
      </trkpt>
      <trkpt lat="41.8084" lon="25.44254">
        <ele>401.622465</ele>
        <time>2022-02-22T03:23:44.213Z</time>
      </trkpt>
      <trkpt lat="41.8088" lon="25.44264">
        <ele>401.857433</ele>
        <time>2022-02-22T03:23:57.044Z</time>
      </trkpt>
      <trkpt lat="41.8089" lon="25.44266">
        <ele>401.912645</ele>
        <time>2022-02-22T03:24:00.081Z</time>
      </trkpt>
      <trkpt lat="41.80913" lon="25.44276">
        <ele>402.03752</ele>
        <time>2022-02-22T03:24:06.998Z</time>
      </trkpt>
      <trkpt lat="41.80931" lon="25.4429">
        <ele>402.144354</ele>
        <time>2022-02-22T03:24:12.369Z</time>
      </trkpt>
      <trkpt lat="41.81039" lon="25.44391">
        <ele>403.105843</ele>
        <time>2022-02-22T03:24:49.755Z</time>
      </trkpt>
      <trkpt lat="41.81239" lon="25.44522">
        <ele>405.106835</ele>
        <time>2022-02-22T03:26:04.666Z</time>
      </trkpt>
      <trkpt lat="41.81289" lon="25.44567">
        <ele>405.357184</ele>
        <time>2022-02-22T03:26:22.436Z</time>
      </trkpt>
      <trkpt lat="41.81386" lon="25.44668">
        <ele>402.694172</ele>
        <time>2022-02-22T03:26:49.063Z</time>
      </trkpt>
      <trkpt lat="41.8141" lon="25.4472">
        <ele>401.232118</ele>
        <time>2022-02-22T03:26:57.577Z</time>
      </trkpt>
      <trkpt lat="41.81442" lon="25.44815">
        <ele>397.63645</ele>
        <time>2022-02-22T03:27:11.594Z</time>
      </trkpt>
      <trkpt lat="41.81529" lon="25.44949">
        <ele>388.580166</ele>
        <time>2022-02-22T03:27:34.325Z</time>
      </trkpt>
      <trkpt lat="41.8163" lon="25.45149">
        <ele>374.829945</ele>
        <time>2022-02-22T03:28:04.724Z</time>
      </trkpt>
      <trkpt lat="41.81656" lon="25.45178">
        <ele>372.472379</ele>
        <time>2022-02-22T03:28:10.374Z</time>
      </trkpt>
      <trkpt lat="41.81833" lon="25.45344">
        <ele>358.751243</ele>
        <time>2022-02-22T03:28:48.093Z</time>
      </trkpt>
      <trkpt lat="41.8193" lon="25.45352">
        <ele>353.075669</ele>
        <time>2022-02-22T03:29:05.284Z</time>
      </trkpt>
      <trkpt lat="41.81943" lon="25.45354">
        <ele>352.303567</ele>
        <time>2022-02-22T03:29:07.630Z</time>
      </trkpt>
      <trkpt lat="41.81957" lon="25.45369">
        <ele>351.275254</ele>
        <time>2022-02-22T03:29:10.742Z</time>
      </trkpt>
      <trkpt lat="41.81966" lon="25.45392">
        <ele>350.208887</ele>
        <time>2022-02-22T03:29:14.176Z</time>
      </trkpt>
      <trkpt lat="41.81986" lon="25.45485">
        <ele>346.223227</ele>
        <time>2022-02-22T03:29:27.015Z</time>
      </trkpt>
      <trkpt lat="41.82" lon="25.4552">
        <ele>344.546427</ele>
        <time>2022-02-22T03:29:32.423Z</time>
      </trkpt>
      <trkpt lat="41.8203" lon="25.45586">
        <ele>341.410138</ele>
        <time>2022-02-22T03:29:42.600Z</time>
      </trkpt>
      <trkpt lat="41.82061" lon="25.45618">
        <ele>339.594886</ele>
        <time>2022-02-22T03:29:49.635Z</time>
      </trkpt>
      <trkpt lat="41.82124" lon="25.45628">
        <ele>336.623043</ele>
        <time>2022-02-22T03:30:01.311Z</time>
      </trkpt>
      <trkpt lat="41.82306" lon="25.45591">
        <ele>328.386755</ele>
        <time>2022-02-22T03:30:35.658Z</time>
      </trkpt>
      <trkpt lat="41.82442" lon="25.45573">
        <ele>322.224689</ele>
        <time>2022-02-22T03:31:00.841Z</time>
      </trkpt>
      <trkpt lat="41.82616" lon="25.45431">
        <ele>312.267052</ele>
        <time>2022-02-22T03:31:37.980Z</time>
      </trkpt>
      <trkpt lat="41.82649" lon="25.45425">
        <ele>310.609138</ele>
        <time>2022-02-22T03:31:43.870Z</time>
      </trkpt>
      <trkpt lat="41.82714" lon="25.45436">
        <ele>307.336662</ele>
        <time>2022-02-22T03:31:55.686Z</time>
      </trkpt>
      <trkpt lat="41.82747" lon="25.45445">
        <ele>305.856853</ele>
        <time>2022-02-22T03:32:01.827Z</time>
      </trkpt>
      <trkpt lat="41.82772" lon="25.45446">
        <ele>304.777319</ele>
        <time>2022-02-22T03:32:06.326Z</time>
      </trkpt>
      <trkpt lat="41.82778" lon="25.45498">
        <ele>303.042072</ele>
        <time>2022-02-22T03:32:13.609Z</time>
      </trkpt>
      <trkpt lat="41.8279" lon="25.45547">
        <ele>301.354097</ele>
        <time>2022-02-22T03:32:20.744Z</time>
      </trkpt>
      <trkpt lat="41.82802" lon="25.45579">
        <ele>300.188169</ele>
        <time>2022-02-22T03:32:25.713Z</time>
      </trkpt>
      <trkpt lat="41.82876" lon="25.45715">
        <ele>296.767097</ele>
        <time>2022-02-22T03:32:50.557Z</time>
      </trkpt>
      <trkpt lat="41.82897" lon="25.45765">
        <ele>295.672666</ele>
        <time>2022-02-22T03:32:59.577Z</time>
      </trkpt>
      <trkpt lat="41.8291" lon="25.45816">
        <ele>295.041325</ele>
        <time>2022-02-22T03:33:08.495Z</time>
      </trkpt>
      <trkpt lat="41.82924" lon="25.45936">
        <ele>294.797431</ele>
        <time>2022-02-22T03:33:30.483Z</time>
      </trkpt>
      <trkpt lat="41.82932" lon="25.45984">
        <ele>294.698597</ele>
        <time>2022-02-22T03:33:40.677Z</time>
      </trkpt>
      <trkpt lat="41.82939" lon="25.46021">
        <ele>294.620015</ele>
        <time>2022-02-22T03:33:49.362Z</time>
      </trkpt>
      <trkpt lat="41.82965" lon="25.46113">
        <ele>295.544409</ele>
        <time>2022-02-22T03:34:12.631Z</time>
      </trkpt>
      <trkpt lat="41.82998" lon="25.46214">
        <ele>296.705304</ele>
        <time>2022-02-22T03:34:41.973Z</time>
      </trkpt>
      <trkpt lat="41.83015" lon="25.46269">
        <ele>297.22964</ele>
        <time>2022-02-22T03:34:57.300Z</time>
      </trkpt>
      <trkpt lat="41.83033" lon="25.46324">
        <ele>297.503615</ele>
        <time>2022-02-22T03:35:11.839Z</time>
      </trkpt>
      <trkpt lat="41.83039" lon="25.46341">
        <ele>297.593101</ele>
        <time>2022-02-22T03:35:16.498Z</time>
      </trkpt>
      <trkpt lat="41.83056" lon="25.46393">
        <ele>297.851738</ele>
        <time>2022-02-22T03:35:28.932Z</time>
      </trkpt>
      <trkpt lat="41.83062" lon="25.46413">
        <ele>297.949992</ele>
        <time>2022-02-22T03:35:33.276Z</time>
      </trkpt>
      <trkpt lat="41.83071" lon="25.46441">
        <ele>298.086582</ele>
        <time>2022-02-22T03:35:39.428Z</time>
      </trkpt>
      <trkpt lat="41.83102" lon="25.46539">
        <ele>297.917142</ele>
        <time>2022-02-22T03:35:59.041Z</time>
      </trkpt>
      <trkpt lat="41.83155" lon="25.46702">
        <ele>297.130699</ele>
        <time>2022-02-22T03:36:29.906Z</time>
      </trkpt>
      <trkpt lat="41.83188" lon="25.46801">
        <ele>297.614132</ele>
        <time>2022-02-22T03:36:52.302Z</time>
      </trkpt>
      <trkpt lat="41.83197" lon="25.46829">
        <ele>297.752489</ele>
        <time>2022-02-22T03:36:59.285Z</time>
      </trkpt>
      <trkpt lat="41.83241" lon="25.46964">
        <ele>298.723529</ele>
        <time>2022-02-22T03:37:35.830Z</time>
      </trkpt>
      <trkpt lat="41.83323" lon="25.47199">
        <ele>300.882034</ele>
        <time>2022-02-22T03:38:40.960Z</time>
      </trkpt>
      <trkpt lat="41.8359" lon="25.47756">
        <ele>301.768414</ele>
        <time>2022-02-22T03:40:56.433Z</time>
      </trkpt>
      <trkpt lat="41.83666" lon="25.47903">
        <ele>299.44003</ele>
        <time>2022-02-22T03:41:24.824Z</time>
      </trkpt>
      <trkpt lat="41.83685" lon="25.4795">
        <ele>298.753026</ele>
        <time>2022-02-22T03:41:32.862Z</time>
      </trkpt>
      <trkpt lat="41.83703" lon="25.48041">
        <ele>297.386778</ele>
        <time>2022-02-22T03:41:47.417Z</time>
      </trkpt>
      <trkpt lat="41.83736" lon="25.48294">
        <ele>293.956161</ele>
        <time>2022-02-22T03:42:28.661Z</time>
      </trkpt>
      <trkpt lat="41.83748" lon="25.48354">
        <ele>293.202915</ele>
        <time>2022-02-22T03:42:39.072Z</time>
      </trkpt>
      <trkpt lat="41.83932" lon="25.49008">
        <ele>285.402356</ele>
        <time>2022-02-22T03:44:32.614Z</time>
      </trkpt>
      <trkpt lat="41.83952" lon="25.49087">
        <ele>284.693377</ele>
        <time>2022-02-22T03:44:47.517Z</time>
      </trkpt>
      <trkpt lat="41.83965" lon="25.49125">
        <ele>284.702877</ele>
        <time>2022-02-22T03:44:55.739Z</time>
      </trkpt>
      <trkpt lat="41.83983" lon="25.49165">
        <ele>284.874383</ele>
        <time>2022-02-22T03:45:05.473Z</time>
      </trkpt>
      <trkpt lat="41.83996" lon="25.49197">
        <ele>285.007566</ele>
        <time>2022-02-22T03:45:13.320Z</time>
      </trkpt>
      <trkpt lat="41.84058" lon="25.493">
        <ele>285.469309</ele>
        <time>2022-02-22T03:45:44.294Z</time>
      </trkpt>
      <trkpt lat="41.84118" lon="25.4941">
        <ele>285.086633</ele>
        <time>2022-02-22T03:46:14.348Z</time>
      </trkpt>
      <trkpt lat="41.84149" lon="25.49456">
        <ele>284.914541</ele>
        <time>2022-02-22T03:46:24.892Z</time>
      </trkpt>
      <trkpt lat="41.8418" lon="25.49492">
        <ele>284.372762</ele>
        <time>2022-02-22T03:46:33.438Z</time>
      </trkpt>
      <trkpt lat="41.84217" lon="25.49517">
        <ele>282.741723</ele>
        <time>2022-02-22T03:46:41.818Z</time>
      </trkpt>
      <trkpt lat="41.84264" lon="25.49544">
        <ele>280.79978</ele>
        <time>2022-02-22T03:46:51.319Z</time>
      </trkpt>
      <trkpt lat="41.84425" lon="25.49629">
        <ele>273.073194</ele>
        <time>2022-02-22T03:47:22.639Z</time>
      </trkpt>
      <trkpt lat="41.84604" lon="25.49763">
        <ele>262.814692</ele>
        <time>2022-02-22T03:48:00.108Z</time>
      </trkpt>
      <trkpt lat="41.84688" lon="25.49847">
        <ele>257.288029</ele>
        <time>2022-02-22T03:48:18.907Z</time>
      </trkpt>
      <trkpt lat="41.84819" lon="25.49995">
        <ele>247.603275</ele>
        <time>2022-02-22T03:48:49.167Z</time>
      </trkpt>
      <trkpt lat="41.84858" lon="25.50052">
        <ele>244.277706</ele>
        <time>2022-02-22T03:48:59.346Z</time>
      </trkpt>
      <trkpt lat="41.8489" lon="25.50115">
        <ele>240.98586</ele>
        <time>2022-02-22T03:49:09.445Z</time>
      </trkpt>
      <trkpt lat="41.85037" lon="25.50496">
        <ele>223.391393</ele>
        <time>2022-02-22T03:50:06.405Z</time>
      </trkpt>
      <trkpt lat="41.85069" lon="25.50551">
        <ele>220.579237</ele>
        <time>2022-02-22T03:50:15.829Z</time>
      </trkpt>
      <trkpt lat="41.85099" lon="25.5058">
        <ele>218.824563</ele>
        <time>2022-02-22T03:50:22.441Z</time>
      </trkpt>
      <trkpt lat="41.85131" lon="25.50603">
        <ele>217.212485</ele>
        <time>2022-02-22T03:50:29.079Z</time>
      </trkpt>
      <trkpt lat="41.85569" lon="25.50797">
        <ele>198.159344</ele>
        <time>2022-02-22T03:51:55.008Z</time>
      </trkpt>
      <trkpt lat="41.85926" lon="25.50961">
        <ele>194.745892</ele>
        <time>2022-02-22T03:53:25.256Z</time>
      </trkpt>
      <trkpt lat="41.85956" lon="25.50976">
        <ele>195.009619</ele>
        <time>2022-02-22T03:53:35.052Z</time>
      </trkpt>
      <trkpt lat="41.85973" lon="25.50992">
        <ele>195.200034</ele>
        <time>2022-02-22T03:53:41.323Z</time>
      </trkpt>
      <trkpt lat="41.8599" lon="25.51014">
        <ele>195.416565</ele>
        <time>2022-02-22T03:53:48.706Z</time>
      </trkpt>
      <trkpt lat="41.86005" lon="25.51039">
        <ele>195.638042</ele>
        <time>2022-02-22T03:53:56.348Z</time>
      </trkpt>
      <trkpt lat="41.86013" lon="25.51072">
        <ele>195.882799</ele>
        <time>2022-02-22T03:54:04.912Z</time>
      </trkpt>
      <trkpt lat="41.86048" lon="25.51174">
        <ele>196.771865</ele>
        <time>2022-02-22T03:54:32.908Z</time>
      </trkpt>
      <trkpt lat="41.86096" lon="25.51322">
        <ele>198.385593</ele>
        <time>2022-02-22T03:55:12.390Z</time>
      </trkpt>
      <trkpt lat="41.86107" lon="25.51356">
        <ele>198.756051</ele>
        <time>2022-02-22T03:55:21.204Z</time>
      </trkpt>
      <trkpt lat="41.86163" lon="25.51525">
        <ele>201.284376</ele>
        <time>2022-02-22T03:56:07.766Z</time>
      </trkpt>
      <trkpt lat="41.86178" lon="25.51571">
        <ele>201.980343</ele>
        <time>2022-02-22T03:56:22.567Z</time>
      </trkpt>
      <trkpt lat="41.86203" lon="25.51649">
        <ele>203.865084</ele>
        <time>2022-02-22T03:56:48.899Z</time>
      </trkpt>
      <trkpt lat="41.86215" lon="25.51685">
        <ele>204.778827</ele>
        <time>2022-02-22T03:57:01.583Z</time>
      </trkpt>
      <trkpt lat="41.86233" lon="25.51732">
        <ele>206.014748</ele>
        <time>2022-02-22T03:57:18.589Z</time>
      </trkpt>
      <trkpt lat="41.86246" lon="25.51754">
        <ele>206.686625</ele>
        <time>2022-02-22T03:57:27.812Z</time>
      </trkpt>
      <trkpt lat="41.86268" lon="25.51773">
        <ele>207.511627</ele>
        <time>2022-02-22T03:57:38.765Z</time>
      </trkpt>
      <trkpt lat="41.86306" lon="25.51802">
        <ele>208.442349</ele>
        <time>2022-02-22T03:57:56.939Z</time>
      </trkpt>
      <trkpt lat="41.86379" lon="25.51859">
        <ele>209.978423</ele>
        <time>2022-02-22T03:58:27.879Z</time>
      </trkpt>
      <trkpt lat="41.8647" lon="25.5193">
        <ele>211.059015</ele>
        <time>2022-02-22T03:58:59.456Z</time>
      </trkpt>
      <trkpt lat="41.86538" lon="25.51983">
        <ele>210.949475</ele>
        <time>2022-02-22T03:59:19.331Z</time>
      </trkpt>
      <trkpt lat="41.86548" lon="25.51992">
        <ele>210.934065</ele>
        <time>2022-02-22T03:59:21.976Z</time>
      </trkpt>
      <trkpt lat="41.86577" lon="25.52018">
        <ele>210.885774</ele>
        <time>2022-02-22T03:59:30.451Z</time>
      </trkpt>
      <trkpt lat="41.86605" lon="25.52048">
        <ele>210.831875</ele>
        <time>2022-02-22T03:59:39.448Z</time>
      </trkpt>
      <trkpt lat="41.86629" lon="25.52085">
        <ele>210.776256</ele>
        <time>2022-02-22T03:59:48.618Z</time>
      </trkpt>
      <trkpt lat="41.86649" lon="25.52128">
        <ele>210.718474</ele>
        <time>2022-02-22T03:59:58.222Z</time>
      </trkpt>
      <trkpt lat="41.86716" lon="25.52332">
        <ele>210.951731</ele>
        <time>2022-02-22T04:00:44.297Z</time>
      </trkpt>
      <trkpt lat="41.86748" lon="25.5243">
        <ele>211.281656</ele>
        <time>2022-02-22T04:01:07.983Z</time>
      </trkpt>
      <trkpt lat="41.87298" lon="25.54091">
        <ele>217.893648</ele>
        <time>2022-02-22T04:07:39.566Z</time>
      </trkpt>
      <trkpt lat="41.87364" lon="25.54288">
        <ele>219.38085</ele>
        <time>2022-02-22T04:08:30.935Z</time>
      </trkpt>
      <trkpt lat="41.87398" lon="25.5439">
        <ele>220.289868</ele>
        <time>2022-02-22T04:08:58.151Z</time>
      </trkpt>
      <trkpt lat="41.874" lon="25.54397">
        <ele>220.350362</ele>
        <time>2022-02-22T04:09:00.186Z</time>
      </trkpt>
      <trkpt lat="41.87426" lon="25.54451">
        <ele>220.698054</ele>
        <time>2022-02-22T04:09:14.982Z</time>
      </trkpt>
      <trkpt lat="41.87501" lon="25.54562">
        <ele>220.812649</ele>
        <time>2022-02-22T04:09:45.892Z</time>
      </trkpt>
      <trkpt lat="41.87532" lon="25.54602">
        <ele>220.857183</ele>
        <time>2022-02-22T04:09:56.214Z</time>
      </trkpt>
      <trkpt lat="41.87783" lon="25.54925">
        <ele>220.082809</ele>
        <time>2022-02-22T04:11:22.037Z</time>
      </trkpt>
      <trkpt lat="41.87788" lon="25.54931">
        <ele>220.087008</ele>
        <time>2022-02-22T04:11:24.737Z</time>
      </trkpt>
      <trkpt lat="41.8783" lon="25.54989">
        <ele>221.535721</ele>
        <time>2022-02-22T04:11:47.612Z</time>
      </trkpt>
      <trkpt lat="41.87857" lon="25.5502">
        <ele>222.596275</ele>
        <time>2022-02-22T04:12:02.025Z</time>
      </trkpt>
      <trkpt lat="41.87867" lon="25.55038">
        <ele>223.115768</ele>
        <time>2022-02-22T04:12:09.728Z</time>
      </trkpt>
      <trkpt lat="41.87989" lon="25.55183">
        <ele>228.271736</ele>
        <time>2022-02-22T04:13:23.107Z</time>
      </trkpt>
      <trkpt lat="41.88001" lon="25.55209">
        <ele>229.017817</ele>
        <time>2022-02-22T04:13:32.484Z</time>
      </trkpt>
      <trkpt lat="41.87999" lon="25.5525">
        <ele>230.022789</ele>
        <time>2022-02-22T04:13:45.319Z</time>
      </trkpt>
      <trkpt lat="41.87995" lon="25.55279">
        <ele>230.730439</ele>
        <time>2022-02-22T04:13:54.207Z</time>
      </trkpt>
      <trkpt lat="41.88" lon="25.55293">
        <ele>231.10935</ele>
        <time>2022-02-22T04:13:58.738Z</time>
      </trkpt>
      <trkpt lat="41.88011" lon="25.55306">
        <ele>231.506727</ele>
        <time>2022-02-22T04:14:04.140Z</time>
      </trkpt>
      <trkpt lat="41.88019" lon="25.55304">
        <ele>231.597714</ele>
        <time>2022-02-22T04:14:07.694Z</time>
      </trkpt>
      <trkpt lat="41.88019" lon="25.55312">
        <ele>231.667611</ele>
        <time>2022-02-22T04:14:10.310Z</time>
      </trkpt>
      <trkpt lat="41.8802" lon="25.55321">
        <ele>231.738224</ele>
        <time>2022-02-22T04:14:12.526Z</time>
      </trkpt>
      <trkpt lat="41.8803" lon="25.55329">
        <ele>231.874049</ele>
        <time>2022-02-22T04:14:16.623Z</time>
      </trkpt>
      <trkpt lat="41.88043" lon="25.55327">
        <ele>232.018103</ele>
        <time>2022-02-22T04:14:21.899Z</time>
      </trkpt>
      <trkpt lat="41.88078" lon="25.55311">
        <ele>232.430731</ele>
        <time>2022-02-22T04:14:35.040Z</time>
      </trkpt>
      <trkpt lat="41.88144" lon="25.55291">
        <ele>233.192596</ele>
        <time>2022-02-22T04:14:55.614Z</time>
      </trkpt>
      <trkpt lat="41.88193" lon="25.55292">
        <ele>232.845436</ele>
        <time>2022-02-22T04:15:07.094Z</time>
      </trkpt>
      <trkpt lat="41.88237" lon="25.553">
        <ele>231.649721</ele>
        <time>2022-02-22T04:15:16.724Z</time>
      </trkpt>
      <trkpt lat="41.88343" lon="25.55322">
        <ele>228.786664</ele>
        <time>2022-02-22T04:15:37.596Z</time>
      </trkpt>
      <trkpt lat="41.8839" lon="25.55332">
        <ele>226.452432</ele>
        <time>2022-02-22T04:15:46.321Z</time>
      </trkpt>
      <trkpt lat="41.88419" lon="25.55335">
        <ele>224.98072</ele>
        <time>2022-02-22T04:15:51.498Z</time>
      </trkpt>
      <trkpt lat="41.88555" lon="25.55375">
        <ele>218.293065</ele>
        <time>2022-02-22T04:16:16.182Z</time>
      </trkpt>
      <trkpt lat="41.88691" lon="25.55418">
        <ele>212.852081</ele>
        <time>2022-02-22T04:16:42.459Z</time>
      </trkpt>
      <trkpt lat="41.88954" lon="25.55501">
        <ele>212.185699</ele>
        <time>2022-02-22T04:17:48.884Z</time>
      </trkpt>
      <trkpt lat="41.90205" lon="25.55897">
        <ele>232.4959</ele>
        <time>2022-02-22T04:25:10.860Z</time>
      </trkpt>
      <trkpt lat="41.90225" lon="25.55906">
        <ele>233.105841</ele>
        <time>2022-02-22T04:25:20.628Z</time>
      </trkpt>
      <trkpt lat="41.90227" lon="25.55913">
        <ele>233.251654</ele>
        <time>2022-02-22T04:25:23.019Z</time>
      </trkpt>
      <trkpt lat="41.9024" lon="25.55923">
        <ele>233.670688</ele>
        <time>2022-02-22T04:25:30.635Z</time>
      </trkpt>
      <trkpt lat="41.90249" lon="25.5592">
        <ele>233.960852</ele>
        <time>2022-02-22T04:25:35.265Z</time>
      </trkpt>
      <trkpt lat="41.90253" lon="25.55915">
        <ele>234.106838</ele>
        <time>2022-02-22T04:25:38.003Z</time>
      </trkpt>
      <trkpt lat="41.90254" lon="25.55925">
        <ele>234.311419</ele>
        <time>2022-02-22T04:25:41.420Z</time>
      </trkpt>
      <trkpt lat="41.90259" lon="25.55925">
        <ele>234.435644</ele>
        <time>2022-02-22T04:25:44.610Z</time>
      </trkpt>
      <trkpt lat="41.90287" lon="25.55929">
        <ele>235.643531</ele>
        <time>2022-02-22T04:25:58.117Z</time>
      </trkpt>
      <trkpt lat="41.90395" lon="25.55964">
        <ele>240.645369</ele>
        <time>2022-02-22T04:26:54.232Z</time>
      </trkpt>
      <trkpt lat="41.90419" lon="25.5597">
        <ele>241.744813</ele>
        <time>2022-02-22T04:27:06.143Z</time>
      </trkpt>
      <trkpt lat="41.9049" lon="25.55993">
        <ele>243.935754</ele>
        <time>2022-02-22T04:27:36.221Z</time>
      </trkpt>
      <trkpt lat="41.90588" lon="25.56021">
        <ele>246.390474</ele>
        <time>2022-02-22T04:28:13.448Z</time>
      </trkpt>
      <trkpt lat="41.90624" lon="25.56033">
        <ele>247.171793</ele>
        <time>2022-02-22T04:28:26.292Z</time>
      </trkpt>
      <trkpt lat="41.90724" lon="25.56063">
        <ele>248.462388</ele>
        <time>2022-02-22T04:29:01.033Z</time>
      </trkpt>
      <trkpt lat="41.90779" lon="25.56079">
        <ele>249.169415</ele>
        <time>2022-02-22T04:29:18.972Z</time>
      </trkpt>
      <trkpt lat="41.90866" lon="25.561">
        <ele>248.794647</ele>
        <time>2022-02-22T04:29:43.533Z</time>
      </trkpt>
      <trkpt lat="41.90892" lon="25.56105">
        <ele>248.62685</ele>
        <time>2022-02-22T04:29:49.429Z</time>
      </trkpt>
      <trkpt lat="41.90946" lon="25.56116">
        <ele>248.266485</ele>
        <time>2022-02-22T04:30:01.699Z</time>
      </trkpt>
      <trkpt lat="41.91043" lon="25.56132">
        <ele>246.474724</ele>
        <time>2022-02-22T04:30:22.285Z</time>
      </trkpt>
      <trkpt lat="41.91184" lon="25.56155">
        <ele>243.6285</ele>
        <time>2022-02-22T04:30:51.436Z</time>
      </trkpt>
      <trkpt lat="41.91385" lon="25.56189">
        <ele>240.747765</ele>
        <time>2022-02-22T04:31:36.527Z</time>
      </trkpt>
      <trkpt lat="41.91393" lon="25.56181">
        <ele>240.659712</ele>
        <time>2022-02-22T04:31:38.753Z</time>
      </trkpt>
      <trkpt lat="41.91483" lon="25.56195">
        <ele>239.867832</ele>
        <time>2022-02-22T04:32:00.371Z</time>
      </trkpt>
      <trkpt lat="41.91514" lon="25.56199">
        <ele>239.703906</ele>
        <time>2022-02-22T04:32:08.405Z</time>
      </trkpt>
      <trkpt lat="41.91512" lon="25.56227">
        <ele>239.701307</ele>
        <time>2022-02-22T04:32:13.669Z</time>
      </trkpt>
      <trkpt lat="41.91534" lon="25.5623">
        <ele>239.698539</ele>
        <time>2022-02-22T04:32:19.976Z</time>
      </trkpt>
      <trkpt lat="41.91584" lon="25.56223">
        <ele>239.69221</ele>
        <time>2022-02-22T04:32:34.088Z</time>
      </trkpt>
      <trkpt lat="41.91592" lon="25.5622">
        <ele>239.691118</ele>
        <time>2022-02-22T04:32:36.733Z</time>
      </trkpt>
      <trkpt lat="41.91597" lon="25.56207">
        <ele>239.68973</ele>
        <time>2022-02-22T04:32:39.804Z</time>
      </trkpt>
      <trkpt lat="41.91601" lon="25.56208">
        <ele>239.689231</ele>
        <time>2022-02-22T04:32:40.849Z</time>
      </trkpt>
      <trkpt lat="41.91605" lon="25.56207">
        <ele>239.688748</ele>
        <time>2022-02-22T04:32:41.848Z</time>
      </trkpt>
      <trkpt lat="41.91608" lon="25.56205">
        <ele>239.688253</ele>
        <time>2022-02-22T04:32:42.877Z</time>
      </trkpt>
      <trkpt lat="41.91681" lon="25.56179">
        <ele>239.202718</ele>
        <time>2022-02-22T04:33:02.164Z</time>
      </trkpt>
      <trkpt lat="41.91691" lon="25.56176">
        <ele>239.046033</ele>
        <time>2022-02-22T04:33:05.035Z</time>
      </trkpt>
      <trkpt lat="41.91738" lon="25.56165">
        <ele>238.347853</ele>
        <time>2022-02-22T04:33:16.135Z</time>
      </trkpt>
      <trkpt lat="41.91774" lon="25.56156">
        <ele>237.806928</ele>
        <time>2022-02-22T04:33:24.009Z</time>
      </trkpt>
      <trkpt lat="41.91786" lon="25.56166">
        <ele>237.59553</ele>
        <time>2022-02-22T04:33:26.969Z</time>
      </trkpt>
      <trkpt lat="41.91799" lon="25.56163">
        <ele>237.400679</ele>
        <time>2022-02-22T04:33:29.662Z</time>
      </trkpt>
      <trkpt lat="41.91815" lon="25.56176">
        <ele>237.11793</ele>
        <time>2022-02-22T04:33:33.494Z</time>
      </trkpt>
      <trkpt lat="41.91836" lon="25.56171">
        <ele>236.465141</ele>
        <time>2022-02-22T04:33:37.543Z</time>
      </trkpt>
      <trkpt lat="41.91844" lon="25.56151">
        <ele>235.79845</ele>
        <time>2022-02-22T04:33:40.956Z</time>
      </trkpt>
      <trkpt lat="41.91863" lon="25.56134">
        <ele>234.93504</ele>
        <time>2022-02-22T04:33:45.333Z</time>
      </trkpt>
      <trkpt lat="41.91875" lon="25.56131">
        <ele>234.482702</ele>
        <time>2022-02-22T04:33:47.526Z</time>
      </trkpt>
      <trkpt lat="41.91944" lon="25.56112">
        <ele>231.792027</ele>
        <time>2022-02-22T04:34:00.841Z</time>
      </trkpt>
      <trkpt lat="41.91953" lon="25.5611">
        <ele>231.447717</ele>
        <time>2022-02-22T04:34:02.495Z</time>
      </trkpt>
      <trkpt lat="41.92002" lon="25.56097">
        <ele>229.293708</ele>
        <time>2022-02-22T04:34:11.911Z</time>
      </trkpt>
      <trkpt lat="41.92011" lon="25.56096">
        <ele>228.820903</ele>
        <time>2022-02-22T04:34:13.551Z</time>
      </trkpt>
      <trkpt lat="41.92021" lon="25.56093">
        <ele>228.273273</ele>
        <time>2022-02-22T04:34:15.517Z</time>
      </trkpt>
      <trkpt lat="41.92029" lon="25.5609">
        <ele>227.880279</ele>
        <time>2022-02-22T04:34:16.927Z</time>
      </trkpt>
      <trkpt lat="41.92054" lon="25.56083">
        <ele>226.518822</ele>
        <time>2022-02-22T04:34:21.788Z</time>
      </trkpt>
      <trkpt lat="41.92073" lon="25.56078">
        <ele>225.546095</ele>
        <time>2022-02-22T04:34:25.203Z</time>
      </trkpt>
      <trkpt lat="41.92091" lon="25.5607">
        <ele>224.540318</ele>
        <time>2022-02-22T04:34:28.659Z</time>
      </trkpt>
      <trkpt lat="41.92115" lon="25.56056">
        <ele>223.174562</ele>
        <time>2022-02-22T04:34:33.327Z</time>
      </trkpt>
      <trkpt lat="41.92141" lon="25.56037">
        <ele>221.639467</ele>
        <time>2022-02-22T04:34:38.556Z</time>
      </trkpt>
      <trkpt lat="41.92171" lon="25.56011">
        <ele>219.554005</ele>
        <time>2022-02-22T04:34:44.777Z</time>
      </trkpt>
      <trkpt lat="41.9219" lon="25.56008">
        <ele>218.399111</ele>
        <time>2022-02-22T04:34:48.143Z</time>
      </trkpt>
      <trkpt lat="41.92196" lon="25.56008">
        <ele>218.022947</ele>
        <time>2022-02-22T04:34:49.262Z</time>
      </trkpt>
      <trkpt lat="41.92201" lon="25.56009">
        <ele>217.670454</ele>
        <time>2022-02-22T04:34:50.263Z</time>
      </trkpt>
      <trkpt lat="41.92205" lon="25.56011">
        <ele>217.398845</ele>
        <time>2022-02-22T04:34:51.012Z</time>
      </trkpt>
      <trkpt lat="41.92232" lon="25.56031">
        <ele>215.517511</ele>
        <time>2022-02-22T04:34:56.542Z</time>
      </trkpt>
      <trkpt lat="41.92266" lon="25.56059">
        <ele>212.988038</ele>
        <time>2022-02-22T04:35:03.895Z</time>
      </trkpt>
      <trkpt lat="41.92283" lon="25.56075">
        <ele>211.67937</ele>
        <time>2022-02-22T04:35:07.763Z</time>
      </trkpt>
      <trkpt lat="41.92304" lon="25.56085">
        <ele>210.29854</ele>
        <time>2022-02-22T04:35:11.752Z</time>
      </trkpt>
      <trkpt lat="41.92314" lon="25.56089">
        <ele>209.663012</ele>
        <time>2022-02-22T04:35:13.690Z</time>
      </trkpt>
      <trkpt lat="41.92322" lon="25.56091">
        <ele>209.209463</ele>
        <time>2022-02-22T04:35:15.254Z</time>
      </trkpt>
      <trkpt lat="41.92342" lon="25.56093">
        <ele>208.195592</ele>
        <time>2022-02-22T04:35:18.836Z</time>
      </trkpt>
      <trkpt lat="41.92359" lon="25.56082">
        <ele>207.191978</ele>
        <time>2022-02-22T04:35:22.506Z</time>
      </trkpt>
      <trkpt lat="41.92369" lon="25.56068">
        <ele>206.462749</ele>
        <time>2022-02-22T04:35:25.161Z</time>
      </trkpt>
      <trkpt lat="41.92372" lon="25.56062">
        <ele>206.209025</ele>
        <time>2022-02-22T04:35:26.123Z</time>
      </trkpt>
      <trkpt lat="41.92378" lon="25.5605">
        <ele>205.645266</ele>
        <time>2022-02-22T04:35:28.191Z</time>
      </trkpt>
      <trkpt lat="41.9238" lon="25.56044">
        <ele>205.404792</ele>
        <time>2022-02-22T04:35:29.076Z</time>
      </trkpt>
      <trkpt lat="41.92401" lon="25.55999">
        <ele>203.365287</ele>
        <time>2022-02-22T04:35:36.636Z</time>
      </trkpt>
      <trkpt lat="41.9241" lon="25.55976">
        <ele>202.377931</ele>
        <time>2022-02-22T04:35:40.395Z</time>
      </trkpt>
      <trkpt lat="41.92418" lon="25.55954">
        <ele>201.416621</ele>
        <time>2022-02-22T04:35:43.948Z</time>
      </trkpt>
      <trkpt lat="41.92457" lon="25.5585">
        <ele>198.421324</ele>
        <time>2022-02-22T04:36:00.762Z</time>
      </trkpt>
      <trkpt lat="41.92481" lon="25.55846">
        <ele>197.719432</ele>
        <time>2022-02-22T04:36:05.233Z</time>
      </trkpt>
      <trkpt lat="41.92511" lon="25.55843">
        <ele>196.838114</ele>
        <time>2022-02-22T04:36:11.367Z</time>
      </trkpt>
      <trkpt lat="41.92518" lon="25.55842">
        <ele>196.645441</ele>
        <time>2022-02-22T04:36:12.634Z</time>
      </trkpt>
      <trkpt lat="41.92538" lon="25.5584">
        <ele>196.046959</ele>
        <time>2022-02-22T04:36:17.287Z</time>
      </trkpt>
      <trkpt lat="41.9255" lon="25.55839">
        <ele>195.706344</ele>
        <time>2022-02-22T04:36:20.005Z</time>
      </trkpt>
      <trkpt lat="41.92585" lon="25.55836">
        <ele>195.255626</ele>
        <time>2022-02-22T04:36:28.821Z</time>
      </trkpt>
      <trkpt lat="41.92595" lon="25.55835">
        <ele>195.382505</ele>
        <time>2022-02-22T04:36:31.384Z</time>
      </trkpt>
      <trkpt lat="41.92629" lon="25.5583">
        <ele>195.801852</ele>
        <time>2022-02-22T04:36:40.648Z</time>
      </trkpt>
      <trkpt lat="41.92698" lon="25.5582">
        <ele>196.679738</ele>
        <time>2022-02-22T04:37:03.229Z</time>
      </trkpt>
      <trkpt lat="41.92714" lon="25.55818">
        <ele>196.878283</ele>
        <time>2022-02-22T04:37:09.877Z</time>
      </trkpt>
      <trkpt lat="41.92772" lon="25.5581">
        <ele>197.910874</ele>
        <time>2022-02-22T04:37:33.731Z</time>
      </trkpt>
      <trkpt lat="41.92779" lon="25.5581">
        <ele>198.109584</ele>
        <time>2022-02-22T04:37:36.967Z</time>
      </trkpt>
      <trkpt lat="41.92783" lon="25.55809">
        <ele>198.215781</ele>
        <time>2022-02-22T04:37:38.711Z</time>
      </trkpt>
      <trkpt lat="41.92797" lon="25.55806">
        <ele>198.608999</ele>
        <time>2022-02-22T04:37:44.527Z</time>
      </trkpt>
      <trkpt lat="41.92809" lon="25.55801">
        <ele>198.942149</ele>
        <time>2022-02-22T04:37:49.999Z</time>
      </trkpt>
      <trkpt lat="41.92816" lon="25.55797">
        <ele>199.170577</ele>
        <time>2022-02-22T04:37:53.560Z</time>
      </trkpt>
      <trkpt lat="41.92824" lon="25.55792">
        <ele>199.407104</ele>
        <time>2022-02-22T04:37:57.009Z</time>
      </trkpt>
      <trkpt lat="41.92826" lon="25.55776">
        <ele>199.728326</ele>
        <time>2022-02-22T04:38:02.116Z</time>
      </trkpt>
      <trkpt lat="41.92827" lon="25.55761">
        <ele>200.022413</ele>
        <time>2022-02-22T04:38:06.332Z</time>
      </trkpt>
      <trkpt lat="41.92833" lon="25.55748">
        <ele>200.334604</ele>
        <time>2022-02-22T04:38:10.834Z</time>
      </trkpt>
      <trkpt lat="41.92853" lon="25.55623">
        <ele>202.084141</ele>
        <time>2022-02-22T04:38:47.460Z</time>
      </trkpt>
      <trkpt lat="41.92859" lon="25.55587">
        <ele>201.937561</ele>
        <time>2022-02-22T04:38:58.258Z</time>
      </trkpt>
      <trkpt lat="41.92876" lon="25.55484">
        <ele>201.516284</ele>
        <time>2022-02-22T04:39:16.689Z</time>
      </trkpt>
      <trkpt lat="41.92887" lon="25.55425">
        <ele>201.276567</ele>
        <time>2022-02-22T04:39:25.478Z</time>
      </trkpt>
      <trkpt lat="41.92887" lon="25.55422">
        <ele>201.261855</ele>
        <time>2022-02-22T04:39:26.262Z</time>
      </trkpt>
      <trkpt lat="41.92889" lon="25.55411">
        <ele>200.919729</ele>
        <time>2022-02-22T04:39:27.747Z</time>
      </trkpt>
      <trkpt lat="41.92897" lon="25.55373">
        <ele>199.623355</ele>
        <time>2022-02-22T04:39:33.513Z</time>
      </trkpt>
      <trkpt lat="41.92951" lon="25.55398">
        <ele>197.127382</ele>
        <time>2022-02-22T04:39:44.415Z</time>
      </trkpt>
      <trkpt lat="41.92955" lon="25.55391">
        <ele>196.832784</ele>
        <time>2022-02-22T04:39:45.708Z</time>
      </trkpt>
      <trkpt lat="41.92972" lon="25.55357">
        <ele>195.493162</ele>
        <time>2022-02-22T04:39:51.168Z</time>
      </trkpt>
      <trkpt lat="41.9298" lon="25.55342">
        <ele>194.89029</ele>
        <time>2022-02-22T04:39:53.912Z</time>
      </trkpt>
      <trkpt lat="41.92997" lon="25.55276">
        <ele>192.791702</ele>
        <time>2022-02-22T04:40:03.427Z</time>
      </trkpt>
      <trkpt lat="41.92998" lon="25.55273">
        <ele>192.707904</ele>
        <time>2022-02-22T04:40:03.898Z</time>
      </trkpt>
      <trkpt lat="41.93019" lon="25.55193">
        <ele>190.675702</ele>
        <time>2022-02-22T04:40:16.667Z</time>
      </trkpt>
      <trkpt lat="41.93038" lon="25.5513">
        <ele>189.027872</ele>
        <time>2022-02-22T04:40:27.927Z</time>
      </trkpt>
      <trkpt lat="41.93067" lon="25.55231">
        <ele>186.866587</ele>
        <time>2022-02-22T04:40:44.093Z</time>
      </trkpt>
      <trkpt lat="41.93083" lon="25.55294">
        <ele>185.924773</ele>
        <time>2022-02-22T04:40:54.182Z</time>
      </trkpt>
      <trkpt lat="41.93094" lon="25.55325">
        <ele>185.421714</ele>
        <time>2022-02-22T04:40:59.866Z</time>
      </trkpt>
      <trkpt lat="41.93098" lon="25.55334">
        <ele>185.284369</ele>
        <time>2022-02-22T04:41:01.444Z</time>
      </trkpt>
      <trkpt lat="41.93104" lon="25.55329">
        <ele>185.146676</ele>
        <time>2022-02-22T04:41:03.094Z</time>
      </trkpt>
      <trkpt lat="41.93141" lon="25.55311">
        <ele>184.403496</ele>
        <time>2022-02-22T04:41:11.875Z</time>
      </trkpt>
      <trkpt lat="41.93168" lon="25.55312">
        <ele>184.026427</ele>
        <time>2022-02-22T04:41:18.200Z</time>
      </trkpt>
      <trkpt lat="41.93202" lon="25.55328">
        <ele>183.870665</ele>
        <time>2022-02-22T04:41:26.357Z</time>
      </trkpt>
      <trkpt lat="41.93236" lon="25.55342">
        <ele>183.715508</ele>
        <time>2022-02-22T04:41:34.710Z</time>
      </trkpt>
      <trkpt lat="41.93262" lon="25.5535">
        <ele>183.596547</ele>
        <time>2022-02-22T04:41:41.878Z</time>
      </trkpt>
      <trkpt lat="41.9327" lon="25.55352">
        <ele>183.559882</ele>
        <time>2022-02-22T04:41:44.188Z</time>
      </trkpt>
      <trkpt lat="41.93281" lon="25.5535">
        <ele>183.515421</ele>
        <time>2022-02-22T04:41:46.648Z</time>
      </trkpt>
      <trkpt lat="41.93308" lon="25.55339">
        <ele>183.387847</ele>
        <time>2022-02-22T04:41:54.733Z</time>
      </trkpt>
      <trkpt lat="41.93314" lon="25.55336">
        <ele>183.359816</ele>
        <time>2022-02-22T04:41:56.260Z</time>
      </trkpt>
      <trkpt lat="41.93332" lon="25.55324">
        <ele>183.309196</ele>
        <time>2022-02-22T04:42:02.044Z</time>
      </trkpt>
      <trkpt lat="41.93338" lon="25.55318">
        <ele>183.392675</ele>
        <time>2022-02-22T04:42:04.016Z</time>
      </trkpt>
      <trkpt lat="41.93344" lon="25.55311">
        <ele>183.478967</ele>
        <time>2022-02-22T04:42:05.863Z</time>
      </trkpt>
      <trkpt lat="41.93359" lon="25.55302">
        <ele>183.666721</ele>
        <time>2022-02-22T04:42:10.456Z</time>
      </trkpt>
      <trkpt lat="41.93365" lon="25.55299">
        <ele>183.730907</ele>
        <time>2022-02-22T04:42:12.260Z</time>
      </trkpt>
      <trkpt lat="41.93377" lon="25.55289">
        <ele>183.888819</ele>
        <time>2022-02-22T04:42:15.799Z</time>
      </trkpt>
      <trkpt lat="41.93387" lon="25.55279">
        <ele>184.038679</ele>
        <time>2022-02-22T04:42:19.523Z</time>
      </trkpt>
      <trkpt lat="41.93394" lon="25.55271">
        <ele>184.138691</ele>
        <time>2022-02-22T04:42:22.348Z</time>
      </trkpt>
      <trkpt lat="41.93427" lon="25.55208">
        <ele>184.78643</ele>
        <time>2022-02-22T04:42:40.557Z</time>
      </trkpt>
      <trkpt lat="41.93439" lon="25.55173">
        <ele>185.103839</ele>
        <time>2022-02-22T04:42:50.884Z</time>
      </trkpt>
      <trkpt lat="41.9347" lon="25.551">
        <ele>185.941623</ele>
        <time>2022-02-22T04:43:17.112Z</time>
      </trkpt>
      <trkpt lat="41.93472" lon="25.55096">
        <ele>185.990056</ele>
        <time>2022-02-22T04:43:18.650Z</time>
      </trkpt>
      <trkpt lat="41.93476" lon="25.55085">
        <ele>186.123884</ele>
        <time>2022-02-22T04:43:22.278Z</time>
      </trkpt>
      <trkpt lat="41.93519" lon="25.54986">
        <ele>187.322979</ele>
        <time>2022-02-22T04:43:50.033Z</time>
      </trkpt>
      <trkpt lat="41.93531" lon="25.54959">
        <ele>187.65513</ele>
        <time>2022-02-22T04:43:56.226Z</time>
      </trkpt>
      <trkpt lat="41.93534" lon="25.54961">
        <ele>187.70206</ele>
        <time>2022-02-22T04:43:57.195Z</time>
      </trkpt>
      <trkpt lat="41.93553" lon="25.54975">
        <ele>187.732226</ele>
        <time>2022-02-22T04:44:02.909Z</time>
      </trkpt>
      <trkpt lat="41.93554" lon="25.54976">
        <ele>187.714044</ele>
        <time>2022-02-22T04:44:03.379Z</time>
      </trkpt>
      <trkpt lat="41.93553" lon="25.54975">
        <ele>187.695863</ele>
        <time>2022-02-22T04:44:03.852Z</time>
      </trkpt>
      <trkpt lat="41.93534" lon="25.54961">
        <ele>187.458456</ele>
        <time>2022-02-22T04:44:09.778Z</time>
      </trkpt>
      <trkpt lat="41.93531" lon="25.54959">
        <ele>187.422397</ele>
        <time>2022-02-22T04:44:10.607Z</time>
      </trkpt>
      <trkpt lat="41.93525" lon="25.54959">
        <ele>187.364754</ele>
        <time>2022-02-22T04:44:11.971Z</time>
      </trkpt>
      <trkpt lat="41.93489" lon="25.54955">
        <ele>186.972865</ele>
        <time>2022-02-22T04:44:21.161Z</time>
      </trkpt>
      <trkpt lat="41.93453" lon="25.54939">
        <ele>186.552118</ele>
        <time>2022-02-22T04:44:30.189Z</time>
      </trkpt>
      <trkpt lat="41.93545" lon="25.54807">
        <ele>185.29292</ele>
        <time>2022-02-22T04:44:58.419Z</time>
      </trkpt>
      <trkpt lat="41.9352" lon="25.54782">
        <ele>185.040831</ele>
        <time>2022-02-22T04:45:06.194Z</time>
      </trkpt>
      <trkpt lat="41.9353" lon="25.54745">
        <ele>184.802949</ele>
        <time>2022-02-22T04:45:13.628Z</time>
      </trkpt>
      <trkpt lat="41.93536" lon="25.5473">
        <ele>184.69868</ele>
        <time>2022-02-22T04:45:17.265Z</time>
      </trkpt>
      <trkpt lat="41.93541" lon="25.54719">
        <ele>184.626422</ele>
        <time>2022-02-22T04:45:19.360Z</time>
      </trkpt>
      <trkpt lat="41.93546" lon="25.54705">
        <ele>184.529289</ele>
        <time>2022-02-22T04:45:22.784Z</time>
      </trkpt>
      <trkpt lat="41.93549" lon="25.54699">
        <ele>184.48783</ele>
        <time>2022-02-22T04:45:24.690Z</time>
      </trkpt>
      <trkpt lat="41.93572" lon="25.54658">
        <ele>184.821853</ele>
        <time>2022-02-22T04:45:36.268Z</time>
      </trkpt>
      <trkpt lat="41.93549" lon="25.54641">
        <ele>185.131398</ele>
        <time>2022-02-22T04:45:44.218Z</time>
      </trkpt>
      <trkpt lat="41.93526" lon="25.5462">
        <ele>185.448033</ele>
        <time>2022-02-22T04:45:53.199Z</time>
      </trkpt>
      <trkpt lat="41.93556" lon="25.54558">
        <ele>186.096558</ele>
        <time>2022-02-22T04:46:12.702Z</time>
      </trkpt>
      <trkpt lat="41.9356" lon="25.54548">
        <ele>186.194717</ele>
        <time>2022-02-22T04:46:15.792Z</time>
      </trkpt>
      <trkpt lat="41.93585" lon="25.54467">
        <ele>186.973045</ele>
        <time>2022-02-22T04:46:36.456Z</time>
      </trkpt>
      <trkpt lat="41.9362" lon="25.54359">
        <ele>188.015419</ele>
        <time>2022-02-22T04:47:05.304Z</time>
      </trkpt>
      <trkpt lat="41.9362" lon="25.54351">
        <ele>188.084071</ele>
        <time>2022-02-22T04:47:06.932Z</time>
      </trkpt>
      <trkpt lat="41.93613" lon="25.54281">
        <ele>188.70842</ele>
        <time>2022-02-22T04:47:23.448Z</time>
      </trkpt>
      <trkpt lat="41.93612" lon="25.54257">
        <ele>188.919919</ele>
        <time>2022-02-22T04:47:29.371Z</time>
      </trkpt>
      <trkpt lat="41.93612" lon="25.5425">
        <ele>188.982757</ele>
        <time>2022-02-22T04:47:30.820Z</time>
      </trkpt>
      <trkpt lat="41.93612" lon="25.54243">
        <ele>189.046581</ele>
        <time>2022-02-22T04:47:32.488Z</time>
      </trkpt>
      <trkpt lat="41.93612" lon="25.54235">
        <ele>189.12101</ele>
        <time>2022-02-22T04:47:34.451Z</time>
      </trkpt>
      <trkpt lat="41.93612" lon="25.54228">
        <ele>189.176819</ele>
        <time>2022-02-22T04:47:35.940Z</time>
      </trkpt>
      <trkpt lat="41.93613" lon="25.54219">
        <ele>189.258797</ele>
        <time>2022-02-22T04:47:38.636Z</time>
      </trkpt>
      <trkpt lat="41.93628" lon="25.54162">
        <ele>189.790222</ele>
        <time>2022-02-22T04:47:54.212Z</time>
      </trkpt>
      <trkpt lat="41.93637" lon="25.54144">
        <ele>189.984678</ele>
        <time>2022-02-22T04:47:59.009Z</time>
      </trkpt>
      <trkpt lat="41.9365" lon="25.54123">
        <ele>190.223764</ele>
        <time>2022-02-22T04:48:05.963Z</time>
      </trkpt>
      <trkpt lat="41.93675" lon="25.54092">
        <ele>190.627219</ele>
        <time>2022-02-22T04:48:16.432Z</time>
      </trkpt>
      <trkpt lat="41.937" lon="25.54067">
        <ele>190.85911</ele>
        <time>2022-02-22T04:48:26.209Z</time>
      </trkpt>
      <trkpt lat="41.93709" lon="25.54058">
        <ele>190.873872</ele>
        <time>2022-02-22T04:48:29.949Z</time>
      </trkpt>
      <trkpt lat="41.93723" lon="25.54048">
        <ele>190.894537</ele>
        <time>2022-02-22T04:48:34.758Z</time>
      </trkpt>
      <trkpt lat="41.93746" lon="25.54038">
        <ele>190.925971</ele>
        <time>2022-02-22T04:48:42.959Z</time>
      </trkpt>
      <trkpt lat="41.93745" lon="25.54029">
        <ele>190.935063</ele>
        <time>2022-02-22T04:48:44.502Z</time>
      </trkpt>
      <trkpt lat="41.93743" lon="25.54025">
        <ele>190.940097</ele>
        <time>2022-02-22T04:48:45.857Z</time>
      </trkpt>
      <trkpt lat="41.93715" lon="25.54013">
        <ele>190.978436</ele>
        <time>2022-02-22T04:48:54.392Z</time>
      </trkpt>
      <trkpt lat="41.93711" lon="25.54013">
        <ele>190.983268</ele>
        <time>2022-02-22T04:48:55.189Z</time>
      </trkpt>
      <trkpt lat="41.93701" lon="25.53939">
        <ele>191.05639</ele>
        <time>2022-02-22T04:49:09.741Z</time>
      </trkpt>
      <trkpt lat="41.93693" lon="25.53849">
        <ele>190.400607</ele>
        <time>2022-02-22T04:49:24.615Z</time>
      </trkpt>
      <trkpt lat="41.93684" lon="25.53777">
        <ele>189.69204</ele>
        <time>2022-02-22T04:49:36.786Z</time>
      </trkpt>
      <trkpt lat="41.93669" lon="25.53663">
        <ele>188.59985</ele>
        <time>2022-02-22T04:49:55.881Z</time>
      </trkpt>
      <trkpt lat="41.93663" lon="25.53626">
        <ele>188.275689</ele>
        <time>2022-02-22T04:50:02.039Z</time>
      </trkpt>
      <trkpt lat="41.93656" lon="25.53583">
        <ele>187.893375</ele>
        <time>2022-02-22T04:50:09.199Z</time>
      </trkpt>
      <trkpt lat="41.93657" lon="25.53568">
        <ele>187.763891</ele>
        <time>2022-02-22T04:50:11.573Z</time>
      </trkpt>
      <trkpt lat="41.93654" lon="25.53526">
        <ele>187.400477</ele>
        <time>2022-02-22T04:50:18.501Z</time>
      </trkpt>
      <trkpt lat="41.93651" lon="25.53501">
        <ele>187.184808</ele>
        <time>2022-02-22T04:50:22.674Z</time>
      </trkpt>
      <trkpt lat="41.93645" lon="25.53446">
        <ele>186.704315</ele>
        <time>2022-02-22T04:50:32.695Z</time>
      </trkpt>
      <trkpt lat="41.93634" lon="25.53357">
        <ele>187.190237</ele>
        <time>2022-02-22T04:50:51.816Z</time>
      </trkpt>
      <trkpt lat="41.93622" lon="25.53267">
        <ele>187.743459</ele>
        <time>2022-02-22T04:51:12.972Z</time>
      </trkpt>
      <trkpt lat="41.93615" lon="25.5321">
        <ele>188.095641</ele>
        <time>2022-02-22T04:51:27.712Z</time>
      </trkpt>
      <trkpt lat="41.93611" lon="25.53175">
        <ele>188.48245</ele>
        <time>2022-02-22T04:51:37.006Z</time>
      </trkpt>
      <trkpt lat="41.93589" lon="25.52996">
        <ele>190.660259</ele>
        <time>2022-02-22T04:52:27.053Z</time>
      </trkpt>
      <trkpt lat="41.9358" lon="25.52924">
        <ele>191.130221</ele>
        <time>2022-02-22T04:52:44.099Z</time>
      </trkpt>
      <trkpt lat="41.93576" lon="25.52893">
        <ele>191.200285</ele>
        <time>2022-02-22T04:52:51.307Z</time>
      </trkpt>
      <trkpt lat="41.93574" lon="25.52879">
        <ele>191.229408</ele>
        <time>2022-02-22T04:52:54.307Z</time>
      </trkpt>
      <trkpt lat="41.9357" lon="25.52858">
        <ele>191.277953</ele>
        <time>2022-02-22T04:52:59.109Z</time>
      </trkpt>
      <trkpt lat="41.93563" lon="25.52829">
        <ele>191.344165</ele>
        <time>2022-02-22T04:53:05.582Z</time>
      </trkpt>
      <trkpt lat="41.93556" lon="25.52804">
        <ele>191.402197</ele>
        <time>2022-02-22T04:53:11.309Z</time>
      </trkpt>
      <trkpt lat="41.93546" lon="25.5278">
        <ele>191.462633</ele>
        <time>2022-02-22T04:53:17.037Z</time>
      </trkpt>
      <trkpt lat="41.93491" lon="25.52664">
        <ele>191.41958</ele>
        <time>2022-02-22T04:53:43.831Z</time>
      </trkpt>
      <trkpt lat="41.9348" lon="25.52642">
        <ele>191.376527</ele>
        <time>2022-02-22T04:53:49.003Z</time>
      </trkpt>
      <trkpt lat="41.93457" lon="25.52592">
        <ele>191.277766</ele>
        <time>2022-02-22T04:54:00.628Z</time>
      </trkpt>
      <trkpt lat="41.93331" lon="25.52329">
        <ele>191.332012</ele>
        <time>2022-02-22T04:55:05.776Z</time>
      </trkpt>
      <trkpt lat="41.93235" lon="25.52125">
        <ele>191.704088</ele>
        <time>2022-02-22T04:55:57.762Z</time>
      </trkpt>
      <trkpt lat="41.93203" lon="25.52059">
        <ele>191.92419</ele>
        <time>2022-02-22T04:56:14.720Z</time>
      </trkpt>
      <trkpt lat="41.932" lon="25.52052">
        <ele>191.947592</ele>
        <time>2022-02-22T04:56:16.539Z</time>
      </trkpt>
      <trkpt lat="41.93197" lon="25.52047">
        <ele>191.964899</ele>
        <time>2022-02-22T04:56:17.882Z</time>
      </trkpt>
      <trkpt lat="41.93195" lon="25.52041">
        <ele>191.983788</ele>
        <time>2022-02-22T04:56:19.344Z</time>
      </trkpt>
      <trkpt lat="41.93193" lon="25.52037">
        <ele>191.995707</ele>
        <time>2022-02-22T04:56:20.290Z</time>
      </trkpt>
      <trkpt lat="41.93155" lon="25.51957">
        <ele>192.261972</ele>
        <time>2022-02-22T04:56:41.265Z</time>
      </trkpt>
      <trkpt lat="41.93046" lon="25.51729">
        <ele>193.44625</ele>
        <time>2022-02-22T04:57:42.596Z</time>
      </trkpt>
      <trkpt lat="41.93036" lon="25.51707">
        <ele>193.669498</ele>
        <time>2022-02-22T04:57:48.752Z</time>
      </trkpt>
      <trkpt lat="41.93021" lon="25.51675">
        <ele>194.07754</ele>
        <time>2022-02-22T04:57:58.165Z</time>
      </trkpt>
      <trkpt lat="41.92964" lon="25.51556">
        <ele>195.604472</ele>
        <time>2022-02-22T04:58:35.178Z</time>
      </trkpt>
      <trkpt lat="41.92954" lon="25.51531">
        <ele>195.915465</ele>
        <time>2022-02-22T04:58:42.753Z</time>
      </trkpt>
      <trkpt lat="41.9294" lon="25.51494">
        <ele>196.457963</ele>
        <time>2022-02-22T04:58:54.515Z</time>
      </trkpt>
      <trkpt lat="41.92927" lon="25.51453">
        <ele>197.10914</ele>
        <time>2022-02-22T04:59:07.199Z</time>
      </trkpt>
      <trkpt lat="41.92901" lon="25.51325">
        <ele>199.049819</ele>
        <time>2022-02-22T04:59:44.475Z</time>
      </trkpt>
      <trkpt lat="41.92898" lon="25.51306">
        <ele>199.325879</ele>
        <time>2022-02-22T04:59:49.857Z</time>
      </trkpt>
      <trkpt lat="41.92895" lon="25.51264">
        <ele>199.884332</ele>
        <time>2022-02-22T05:00:01.157Z</time>
      </trkpt>
      <trkpt lat="41.92894" lon="25.51219">
        <ele>200.394937</ele>
        <time>2022-02-22T05:00:12.667Z</time>
      </trkpt>
      <trkpt lat="41.92895" lon="25.51183">
        <ele>200.804253</ele>
        <time>2022-02-22T05:00:22.025Z</time>
      </trkpt>
      <trkpt lat="41.92895" lon="25.51162">
        <ele>201.041843</ele>
        <time>2022-02-22T05:00:27.583Z</time>
      </trkpt>
      <trkpt lat="41.92895" lon="25.51101">
        <ele>201.742106</ele>
        <time>2022-02-22T05:00:43.752Z</time>
      </trkpt>
      <trkpt lat="41.92895" lon="25.51049">
        <ele>202.333246</ele>
        <time>2022-02-22T05:00:57.091Z</time>
      </trkpt>
      <trkpt lat="41.92893" lon="25.51003">
        <ele>202.83685</ele>
        <time>2022-02-22T05:01:08.607Z</time>
      </trkpt>
      <trkpt lat="41.9289" lon="25.50945">
        <ele>203.489888</ele>
        <time>2022-02-22T05:01:23.531Z</time>
      </trkpt>
      <trkpt lat="41.92887" lon="25.50892">
        <ele>204.077595</ele>
        <time>2022-02-22T05:01:37.324Z</time>
      </trkpt>
      <trkpt lat="41.92887" lon="25.50881">
        <ele>204.205783</ele>
        <time>2022-02-22T05:01:40.401Z</time>
      </trkpt>
      <trkpt lat="41.92881" lon="25.50785">
        <ele>205.290327</ele>
        <time>2022-02-22T05:02:05.888Z</time>
      </trkpt>
      <trkpt lat="41.92874" lon="25.50668">
        <ele>206.712338</ele>
        <time>2022-02-22T05:02:36.773Z</time>
      </trkpt>
      <trkpt lat="41.92871" lon="25.50611">
        <ele>207.40252</ele>
        <time>2022-02-22T05:02:51.633Z</time>
      </trkpt>
      <trkpt lat="41.92861" lon="25.50472">
        <ele>209.296564</ele>
        <time>2022-02-22T05:03:29.415Z</time>
      </trkpt>
      <trkpt lat="41.92856" lon="25.50379">
        <ele>210.622404</ele>
        <time>2022-02-22T05:03:55.085Z</time>
      </trkpt>
      <trkpt lat="41.92855" lon="25.50369">
        <ele>210.768561</ele>
        <time>2022-02-22T05:03:58.282Z</time>
      </trkpt>
      <trkpt lat="41.92854" lon="25.50345">
        <ele>211.10975</ele>
        <time>2022-02-22T05:04:04.881Z</time>
      </trkpt>
      <trkpt lat="41.92842" lon="25.50156">
        <ele>213.768239</ele>
        <time>2022-02-22T05:04:58.472Z</time>
      </trkpt>
      <trkpt lat="41.92839" lon="25.50112">
        <ele>214.373307</ele>
        <time>2022-02-22T05:05:10.155Z</time>
      </trkpt>
      <trkpt lat="41.92832" lon="25.5">
        <ele>215.408375</ele>
        <time>2022-02-22T05:05:38.713Z</time>
      </trkpt>
      <trkpt lat="41.92825" lon="25.49888">
        <ele>216.208654</ele>
        <time>2022-02-22T05:06:04.940Z</time>
      </trkpt>
      <trkpt lat="41.92822" lon="25.49771">
        <ele>217.108859</ele>
        <time>2022-02-22T05:06:32.132Z</time>
      </trkpt>
      <trkpt lat="41.92825" lon="25.49744">
        <ele>217.332234</ele>
        <time>2022-02-22T05:06:38.767Z</time>
      </trkpt>
      <trkpt lat="41.92829" lon="25.49699">
        <ele>217.699287</ele>
        <time>2022-02-22T05:06:49.556Z</time>
      </trkpt>
      <trkpt lat="41.92963" lon="25.48966">
        <ele>225.621029</ele>
        <time>2022-02-22T05:10:05.436Z</time>
      </trkpt>
      <trkpt lat="41.92983" lon="25.48802">
        <ele>227.20714</ele>
        <time>2022-02-22T05:10:47.232Z</time>
      </trkpt>
      <trkpt lat="41.93035" lon="25.48551">
        <ele>229.312677</ele>
        <time>2022-02-22T05:11:51.432Z</time>
      </trkpt>
      <trkpt lat="41.93068" lon="25.48221">
        <ele>231.596881</ele>
        <time>2022-02-22T05:13:10.845Z</time>
      </trkpt>
      <trkpt lat="41.93094" lon="25.47948">
        <ele>233.455114</ele>
        <time>2022-02-22T05:14:16.217Z</time>
      </trkpt>
      <trkpt lat="41.93105" lon="25.47889">
        <ele>233.947933</ele>
        <time>2022-02-22T05:14:30.550Z</time>
      </trkpt>
      <trkpt lat="41.93358" lon="25.47118">
        <ele>241.256923</ele>
        <time>2022-02-22T05:17:51.378Z</time>
      </trkpt>
      <trkpt lat="41.93382" lon="25.47038">
        <ele>242.109569</ele>
        <time>2022-02-22T05:18:15.298Z</time>
      </trkpt>
      <trkpt lat="41.93396" lon="25.46959">
        <ele>242.748493</ele>
        <time>2022-02-22T05:18:36.394Z</time>
      </trkpt>
      <trkpt lat="41.93406" lon="25.46888">
        <ele>243.313125</ele>
        <time>2022-02-22T05:18:53.998Z</time>
      </trkpt>
      <trkpt lat="41.93411" lon="25.46775">
        <ele>243.502369</ele>
        <time>2022-02-22T05:19:17.271Z</time>
      </trkpt>
      <trkpt lat="41.93416" lon="25.46608">
        <ele>242.061826</ele>
        <time>2022-02-22T05:19:44.672Z</time>
      </trkpt>
      <trkpt lat="41.93426" lon="25.46541">
        <ele>241.302556</ele>
        <time>2022-02-22T05:19:55.363Z</time>
      </trkpt>
      <trkpt lat="41.93579" lon="25.4615">
        <ele>235.452826</ele>
        <time>2022-02-22T05:21:06.011Z</time>
      </trkpt>
      <trkpt lat="41.9359" lon="25.46113">
        <ele>234.92399</ele>
        <time>2022-02-22T05:21:12.601Z</time>
      </trkpt>
      <trkpt lat="41.93647" lon="25.45807">
        <ele>230.494903</ele>
        <time>2022-02-22T05:22:02.686Z</time>
      </trkpt>
      <trkpt lat="41.9365" lon="25.45782">
        <ele>230.10151</ele>
        <time>2022-02-22T05:22:06.534Z</time>
      </trkpt>
      <trkpt lat="41.93668" lon="25.45705">
        <ele>228.845382</ele>
        <time>2022-02-22T05:22:18.847Z</time>
      </trkpt>
      <trkpt lat="41.93675" lon="25.45649">
        <ele>228.166794</ele>
        <time>2022-02-22T05:22:27.754Z</time>
      </trkpt>
      <trkpt lat="41.93677" lon="25.45572">
        <ele>227.53347</ele>
        <time>2022-02-22T05:22:40.022Z</time>
      </trkpt>
      <trkpt lat="41.93659" lon="25.45475">
        <ele>226.705679</ele>
        <time>2022-02-22T05:22:57.807Z</time>
      </trkpt>
      <trkpt lat="41.9363" lon="25.45396">
        <ele>226.443983</ele>
        <time>2022-02-22T05:23:15.245Z</time>
      </trkpt>
      <trkpt lat="41.93524" lon="25.45102">
        <ele>227.395943</ele>
        <time>2022-02-22T05:24:22.370Z</time>
      </trkpt>
      <trkpt lat="41.93402" lon="25.44767">
        <ele>231.105531</ele>
        <time>2022-02-22T05:25:57.099Z</time>
      </trkpt>
      <trkpt lat="41.93393" lon="25.44734">
        <ele>231.488082</ele>
        <time>2022-02-22T05:26:06.181Z</time>
      </trkpt>
      <trkpt lat="41.93388" lon="25.44692">
        <ele>231.961997</ele>
        <time>2022-02-22T05:26:17.295Z</time>
      </trkpt>
      <trkpt lat="41.93388" lon="25.4463">
        <ele>232.649791</ele>
        <time>2022-02-22T05:26:33.302Z</time>
      </trkpt>
      <trkpt lat="41.93434" lon="25.4385">
        <ele>240.096636</ele>
        <time>2022-02-22T05:29:43.139Z</time>
      </trkpt>
      <trkpt lat="41.93433" lon="25.43805">
        <ele>240.679463</ele>
        <time>2022-02-22T05:29:54.246Z</time>
      </trkpt>
      <trkpt lat="41.93418" lon="25.43735">
        <ele>241.8192</ele>
        <time>2022-02-22T05:30:12.883Z</time>
      </trkpt>
      <trkpt lat="41.93206" lon="25.43124">
        <ele>253.592382</ele>
        <time>2022-02-22T05:33:20.622Z</time>
      </trkpt>
      <trkpt lat="41.9319" lon="25.43046">
        <ele>256.29361</ele>
        <time>2022-02-22T05:33:50.184Z</time>
      </trkpt>
      <trkpt lat="41.93182" lon="25.42954">
        <ele>259.351424</ele>
        <time>2022-02-22T05:34:26.329Z</time>
      </trkpt>
      <trkpt lat="41.93175" lon="25.42863">
        <ele>262.772848</ele>
        <time>2022-02-22T05:35:03.464Z</time>
      </trkpt>
      <trkpt lat="41.93174" lon="25.42849">
        <ele>263.283823</ele>
        <time>2022-02-22T05:35:09.763Z</time>
      </trkpt>
      <trkpt lat="41.93151" lon="25.42616">
        <ele>270.931619</ele>
        <time>2022-02-22T05:36:36.512Z</time>
      </trkpt>
      <trkpt lat="41.93141" lon="25.42578">
        <ele>271.78779</ele>
        <time>2022-02-22T05:36:48.616Z</time>
      </trkpt>
      <trkpt lat="41.93013" lon="25.42228">
        <ele>276.565329</ele>
        <time>2022-02-22T05:38:28.158Z</time>
      </trkpt>
      <trkpt lat="41.93005" lon="25.42189">
        <ele>276.007823</ele>
        <time>2022-02-22T05:38:35.566Z</time>
      </trkpt>
      <trkpt lat="41.93002" lon="25.42163">
        <ele>275.649274</ele>
        <time>2022-02-22T05:38:39.865Z</time>
      </trkpt>
      <trkpt lat="41.93004" lon="25.41719">
        <ele>266.507806</ele>
        <time>2022-02-22T05:39:44.585Z</time>
      </trkpt>
      <trkpt lat="41.93009" lon="25.41502">
        <ele>260.823576</ele>
        <time>2022-02-22T05:40:15.443Z</time>
      </trkpt>
      <trkpt lat="41.93014" lon="25.41107">
        <ele>251.489889</ele>
        <time>2022-02-22T05:41:12.581Z</time>
      </trkpt>
      <trkpt lat="41.93019" lon="25.40962">
        <ele>250.217533</ele>
        <time>2022-02-22T05:41:35.179Z</time>
      </trkpt>
      <trkpt lat="41.93028" lon="25.40318">
        <ele>251.652883</ele>
        <time>2022-02-22T05:43:57.098Z</time>
      </trkpt>
      <trkpt lat="41.93056" lon="25.40013">
        <ele>253.496042</ele>
        <time>2022-02-22T05:45:07.357Z</time>
      </trkpt>
      <trkpt lat="41.93057" lon="25.40001">
        <ele>253.567045</ele>
        <time>2022-02-22T05:45:10.126Z</time>
      </trkpt>
      <trkpt lat="41.93074" lon="25.39798">
        <ele>254.777803</ele>
        <time>2022-02-22T05:45:56.381Z</time>
      </trkpt>
      <trkpt lat="41.93127" lon="25.3916">
        <ele>258.510227</ele>
        <time>2022-02-22T05:48:20.799Z</time>
      </trkpt>
      <trkpt lat="41.93126" lon="25.39125">
        <ele>258.737454</ele>
        <time>2022-02-22T05:48:29.079Z</time>
      </trkpt>
      <trkpt lat="41.93122" lon="25.39071">
        <ele>259.474131</ele>
        <time>2022-02-22T05:48:42.622Z</time>
      </trkpt>
      <trkpt lat="41.93112" lon="25.38994">
        <ele>260.577628</ele>
        <time>2022-02-22T05:49:02.590Z</time>
      </trkpt>
      <trkpt lat="41.93028" lon="25.38472">
        <ele>269.849251</ele>
        <time>2022-02-22T05:51:35.734Z</time>
      </trkpt>
      <trkpt lat="41.93025" lon="25.38456">
        <ele>270.152166</ele>
        <time>2022-02-22T05:51:40.473Z</time>
      </trkpt>
      <trkpt lat="41.92987" lon="25.382">
        <ele>274.78254</ele>
        <time>2022-02-22T05:52:53.736Z</time>
      </trkpt>
      <trkpt lat="41.92979" lon="25.38143">
        <ele>275.917501</ele>
        <time>2022-02-22T05:53:10.662Z</time>
      </trkpt>
      <trkpt lat="41.92974" lon="25.38064">
        <ele>277.584591</ele>
        <time>2022-02-22T05:53:34.136Z</time>
      </trkpt>
      <trkpt lat="41.92952" lon="25.3729">
        <ele>293.04429</ele>
        <time>2022-02-22T05:57:27.153Z</time>
      </trkpt>
      <trkpt lat="41.92951" lon="25.37168">
        <ele>294.384549</ele>
        <time>2022-02-22T05:57:55.457Z</time>
      </trkpt>
      <trkpt lat="41.92958" lon="25.37106">
        <ele>294.4118</ele>
        <time>2022-02-22T05:58:08.225Z</time>
      </trkpt>
      <trkpt lat="41.92967" lon="25.37053">
        <ele>294.435239</ele>
        <time>2022-02-22T05:58:18.452Z</time>
      </trkpt>
      <trkpt lat="41.92997" lon="25.36955">
        <ele>294.431667</ele>
        <time>2022-02-22T05:58:37.994Z</time>
      </trkpt>
      <trkpt lat="41.93152" lon="25.36598">
        <ele>293.555617</ele>
        <time>2022-02-22T05:59:57.038Z</time>
      </trkpt>
      <trkpt lat="41.93244" lon="25.36428">
        <ele>293.397768</ele>
        <time>2022-02-22T06:00:35.822Z</time>
      </trkpt>
      <trkpt lat="41.93339" lon="25.36261">
        <ele>295.066817</ele>
        <time>2022-02-22T06:01:22.271Z</time>
      </trkpt>
      <trkpt lat="41.93494" lon="25.35986">
        <ele>301.190298</ele>
        <time>2022-02-22T06:03:09.520Z</time>
      </trkpt>
      <trkpt lat="41.93513" lon="25.35947">
        <ele>300.791583</ele>
        <time>2022-02-22T06:03:19.757Z</time>
      </trkpt>
      <trkpt lat="41.93528" lon="25.35903">
        <ele>300.016533</ele>
        <time>2022-02-22T06:03:28.659Z</time>
      </trkpt>
      <trkpt lat="41.93641" lon="25.35427">
        <ele>287.295704</ele>
        <time>2022-02-22T06:04:38.812Z</time>
      </trkpt>
      <trkpt lat="41.93663" lon="25.35341">
        <ele>284.522117</ele>
        <time>2022-02-22T06:04:52.021Z</time>
      </trkpt>
      <trkpt lat="41.93673" lon="25.35334">
        <ele>284.066521</ele>
        <time>2022-02-22T06:04:54.085Z</time>
      </trkpt>
      <trkpt lat="41.9369" lon="25.35328">
        <ele>283.359628</ele>
        <time>2022-02-22T06:04:57.375Z</time>
      </trkpt>
      <trkpt lat="41.937" lon="25.35328">
        <ele>282.941261</ele>
        <time>2022-02-22T06:04:59.318Z</time>
      </trkpt>
      <trkpt lat="41.93722" lon="25.35338">
        <ele>282.125262</ele>
        <time>2022-02-22T06:05:04.014Z</time>
      </trkpt>
      <trkpt lat="41.93733" lon="25.35344">
        <ele>281.710676</ele>
        <time>2022-02-22T06:05:06.342Z</time>
      </trkpt>
      <trkpt lat="41.93839" lon="25.35401">
        <ele>277.748532</ele>
        <time>2022-02-22T06:05:29.824Z</time>
      </trkpt>
      <trkpt lat="41.93887" lon="25.35432">
        <ele>275.480452</ele>
        <time>2022-02-22T06:05:40.661Z</time>
      </trkpt>
      <trkpt lat="41.93962" lon="25.35495">
        <ele>270.929212</ele>
        <time>2022-02-22T06:05:57.626Z</time>
      </trkpt>
      <trkpt lat="41.94061" lon="25.35571">
        <ele>264.681428</ele>
        <time>2022-02-22T06:06:18.326Z</time>
      </trkpt>
      <trkpt lat="41.94107" lon="25.35597">
        <ele>261.708358</ele>
        <time>2022-02-22T06:06:27.251Z</time>
      </trkpt>
      <trkpt lat="41.94148" lon="25.35604">
        <ele>259.209505</ele>
        <time>2022-02-22T06:06:34.969Z</time>
      </trkpt>
      <trkpt lat="41.9417" lon="25.35598">
        <ele>257.870105</ele>
        <time>2022-02-22T06:06:39.122Z</time>
      </trkpt>
      <trkpt lat="41.9422" lon="25.35579">
        <ele>256.487544</ele>
        <time>2022-02-22T06:06:49.335Z</time>
      </trkpt>
      <trkpt lat="41.94505" lon="25.35422">
        <ele>255.824111</ele>
        <time>2022-02-22T06:08:19.269Z</time>
      </trkpt>
      <trkpt lat="41.94595" lon="25.3537">
        <ele>256.634657</ele>
        <time>2022-02-22T06:08:50.036Z</time>
      </trkpt>
      <trkpt lat="41.9466" lon="25.35332">
        <ele>257.289322</ele>
        <time>2022-02-22T06:09:12.572Z</time>
      </trkpt>
      <trkpt lat="41.94971" lon="25.3516">
        <ele>261.634454</ele>
        <time>2022-02-22T06:11:12.439Z</time>
      </trkpt>
      <trkpt lat="41.95096" lon="25.35089">
        <ele>260.906703</ele>
        <time>2022-02-22T06:11:47.199Z</time>
      </trkpt>
      <trkpt lat="41.95119" lon="25.35078">
        <ele>260.54335</ele>
        <time>2022-02-22T06:11:52.395Z</time>
      </trkpt>
      <trkpt lat="41.95207" lon="25.35046">
        <ele>259.088362</ele>
        <time>2022-02-22T06:12:12.138Z</time>
      </trkpt>
      <trkpt lat="41.95235" lon="25.35036">
        <ele>258.530701</ele>
        <time>2022-02-22T06:12:18.156Z</time>
      </trkpt>
      <trkpt lat="41.95434" lon="25.34994">
        <ele>255.037897</ele>
        <time>2022-02-22T06:13:03.776Z</time>
      </trkpt>
      <trkpt lat="41.95467" lon="25.34974">
        <ele>254.545053</ele>
        <time>2022-02-22T06:13:12.827Z</time>
      </trkpt>
      <trkpt lat="41.95493" lon="25.34948">
        <ele>254.106463</ele>
        <time>2022-02-22T06:13:20.572Z</time>
      </trkpt>
      <trkpt lat="41.95562" lon="25.34849">
        <ele>252.574934</ele>
        <time>2022-02-22T06:13:44.113Z</time>
      </trkpt>
      <trkpt lat="41.95599" lon="25.34792">
        <ele>251.652937</ele>
        <time>2022-02-22T06:13:56.772Z</time>
      </trkpt>
      <trkpt lat="41.95788" lon="25.34513">
        <ele>247.566844</ele>
        <time>2022-02-22T06:15:00.258Z</time>
      </trkpt>
      <trkpt lat="41.95814" lon="25.34485">
        <ele>247.490288</ele>
        <time>2022-02-22T06:15:09.588Z</time>
      </trkpt>
      <trkpt lat="41.95836" lon="25.3447">
        <ele>247.435666</ele>
        <time>2022-02-22T06:15:16.411Z</time>
      </trkpt>
      <trkpt lat="41.95865" lon="25.3446">
        <ele>247.36915</ele>
        <time>2022-02-22T06:15:25.155Z</time>
      </trkpt>
      <trkpt lat="41.95887" lon="25.34463">
        <ele>247.319056</ele>
        <time>2022-02-22T06:15:32.586Z</time>
      </trkpt>
      <trkpt lat="41.95936" lon="25.34474">
        <ele>246.991012</ele>
        <time>2022-02-22T06:15:47.589Z</time>
      </trkpt>
      <trkpt lat="41.96024" lon="25.34515">
        <ele>245.429674</ele>
        <time>2022-02-22T06:16:11.320Z</time>
      </trkpt>
      <trkpt lat="41.96083" lon="25.34539">
        <ele>244.403132</ele>
        <time>2022-02-22T06:16:23.954Z</time>
      </trkpt>
      <trkpt lat="41.9615" lon="25.34568">
        <ele>241.297902</ele>
        <time>2022-02-22T06:16:37.444Z</time>
      </trkpt>
      <trkpt lat="41.96158" lon="25.3457">
        <ele>240.904105</ele>
        <time>2022-02-22T06:16:38.975Z</time>
      </trkpt>
      <trkpt lat="41.9622" lon="25.34596">
        <ele>237.73006</ele>
        <time>2022-02-22T06:16:51.133Z</time>
      </trkpt>
      <trkpt lat="41.96292" lon="25.34623">
        <ele>235.130159</ele>
        <time>2022-02-22T06:17:05.297Z</time>
      </trkpt>
      <trkpt lat="41.96326" lon="25.34638">
        <ele>234.692659</ele>
        <time>2022-02-22T06:17:12.701Z</time>
      </trkpt>
      <trkpt lat="41.96333" lon="25.34644">
        <ele>234.590206</ele>
        <time>2022-02-22T06:17:14.495Z</time>
      </trkpt>
      <trkpt lat="41.96341" lon="25.34652">
        <ele>234.46834</ele>
        <time>2022-02-22T06:17:16.741Z</time>
      </trkpt>
      <trkpt lat="41.96392" lon="25.34697">
        <ele>233.709927</ele>
        <time>2022-02-22T06:17:33.174Z</time>
      </trkpt>
      <trkpt lat="41.964" lon="25.34702">
        <ele>233.605581</ele>
        <time>2022-02-22T06:17:35.902Z</time>
      </trkpt>
      <trkpt lat="41.96469" lon="25.3475">
        <ele>235.708449</ele>
        <time>2022-02-22T06:18:05.652Z</time>
      </trkpt>
      <trkpt lat="41.96492" lon="25.34765">
        <ele>236.957896</ele>
        <time>2022-02-22T06:18:19.908Z</time>
      </trkpt>
      <trkpt lat="41.96525" lon="25.34783">
        <ele>238.690709</ele>
        <time>2022-02-22T06:18:39.559Z</time>
      </trkpt>
      <trkpt lat="41.96576" lon="25.34812">
        <ele>241.387298</ele>
        <time>2022-02-22T06:19:10.679Z</time>
      </trkpt>
      <trkpt lat="41.96587" lon="25.34815">
        <ele>241.938265</ele>
        <time>2022-02-22T06:19:19.293Z</time>
      </trkpt>
      <trkpt lat="41.96594" lon="25.34815">
        <ele>242.439503</ele>
        <time>2022-02-22T06:19:23.155Z</time>
      </trkpt>
      <trkpt lat="41.9661" lon="25.34812">
        <ele>243.735092</ele>
        <time>2022-02-22T06:19:31.247Z</time>
      </trkpt>
      <trkpt lat="41.96622" lon="25.34809">
        <ele>244.721788</ele>
        <time>2022-02-22T06:19:40.735Z</time>
      </trkpt>
      <trkpt lat="41.96671" lon="25.34805">
        <ele>248.669231</ele>
        <time>2022-02-22T06:20:12.691Z</time>
      </trkpt>
      <trkpt lat="41.96771" lon="25.34865">
        <ele>257.449311</ele>
        <time>2022-02-22T06:21:28.515Z</time>
      </trkpt>
      <trkpt lat="41.96775" lon="25.34867">
        <ele>257.761417</ele>
        <time>2022-02-22T06:21:32.719Z</time>
      </trkpt>
      <trkpt lat="41.96788" lon="25.3487">
        <ele>258.800015</ele>
        <time>2022-02-22T06:21:40.950Z</time>
      </trkpt>
      <trkpt lat="41.9694" lon="25.34896">
        <ele>271.031133</ele>
        <time>2022-02-22T06:23:22.766Z</time>
      </trkpt>
      <trkpt lat="41.9697" lon="25.34907">
        <ele>272.56146</ele>
        <time>2022-02-22T06:23:41.743Z</time>
      </trkpt>
      <trkpt lat="41.9699" lon="25.34921">
        <ele>273.708539</ele>
        <time>2022-02-22T06:23:55.594Z</time>
      </trkpt>
      <trkpt lat="41.97101" lon="25.3503">
        <ele>280.02503</ele>
        <time>2022-02-22T06:25:01.212Z</time>
      </trkpt>
      <trkpt lat="41.9714" lon="25.34997">
        <ele>280.491118</ele>
        <time>2022-02-22T06:25:25.159Z</time>
      </trkpt>
      <trkpt lat="41.97171" lon="25.34973">
        <ele>280.85663</ele>
        <time>2022-02-22T06:25:42.534Z</time>
      </trkpt>
      <trkpt lat="41.97211" lon="25.34941">
        <ele>281.323974</ele>
        <time>2022-02-22T06:26:02.967Z</time>
      </trkpt>
      <trkpt lat="41.97233" lon="25.34914">
        <ele>281.620837</ele>
        <time>2022-02-22T06:26:15.094Z</time>
      </trkpt>
      <trkpt lat="41.97245" lon="25.34868">
        <ele>282.225764</ele>
        <time>2022-02-22T06:26:30.426Z</time>
      </trkpt>
      <trkpt lat="41.97245" lon="25.34829">
        <ele>282.771518</ele>
        <time>2022-02-22T06:26:44.524Z</time>
      </trkpt>
      <trkpt lat="41.97236" lon="25.34748">
        <ele>283.906986</ele>
        <time>2022-02-22T06:27:16.570Z</time>
      </trkpt>
      <trkpt lat="41.9718" lon="25.34512">
        <ele>289.626216</ele>
        <time>2022-02-22T06:29:12.675Z</time>
      </trkpt>
      <trkpt lat="41.97167" lon="25.34443">
        <ele>291.583799</ele>
        <time>2022-02-22T06:29:45.931Z</time>
      </trkpt>
      <trkpt lat="41.97163" lon="25.3437">
        <ele>292.709057</ele>
        <time>2022-02-22T06:30:09.643Z</time>
      </trkpt>
      <trkpt lat="41.97158" lon="25.34031">
        <ele>297.180901</ele>
        <time>2022-02-22T06:31:34.870Z</time>
      </trkpt>
      <trkpt lat="41.97153" lon="25.33801">
        <ele>301.08431</ele>
        <time>2022-02-22T06:32:42.105Z</time>
      </trkpt>
      <trkpt lat="41.97153" lon="25.33743">
        <ele>302.208419</ele>
        <time>2022-02-22T06:33:00.940Z</time>
      </trkpt>
      <trkpt lat="41.97153" lon="25.33706">
        <ele>302.91511</ele>
        <time>2022-02-22T06:33:13.425Z</time>
      </trkpt>
      <trkpt lat="41.97159" lon="25.33363">
        <ele>306.809165</ele>
        <time>2022-02-22T06:34:47.520Z</time>
      </trkpt>
      <trkpt lat="41.97164" lon="25.33259">
        <ele>307.020116</ele>
        <time>2022-02-22T06:35:06.706Z</time>
      </trkpt>
      <trkpt lat="41.97177" lon="25.33151">
        <ele>306.474151</ele>
        <time>2022-02-22T06:35:25.660Z</time>
      </trkpt>
      <trkpt lat="41.97175" lon="25.33061">
        <ele>305.782109</ele>
        <time>2022-02-22T06:35:41.289Z</time>
      </trkpt>
      <trkpt lat="41.97167" lon="25.32979">
        <ele>305.289813</ele>
        <time>2022-02-22T06:35:56.557Z</time>
      </trkpt>
      <trkpt lat="41.97154" lon="25.32905">
        <ele>305.851908</ele>
        <time>2022-02-22T06:36:12.473Z</time>
      </trkpt>
      <trkpt lat="41.97122" lon="25.32785">
        <ele>306.789146</ele>
        <time>2022-02-22T06:36:44.870Z</time>
      </trkpt>
      <trkpt lat="41.97112" lon="25.32727">
        <ele>307.648194</ele>
        <time>2022-02-22T06:37:02.264Z</time>
      </trkpt>
      <trkpt lat="41.97123" lon="25.32583">
        <ele>310.709684</ele>
        <time>2022-02-22T06:37:47.935Z</time>
      </trkpt>
      <trkpt lat="41.97153" lon="25.32358">
        <ele>315.008596</ele>
        <time>2022-02-22T06:38:59.881Z</time>
      </trkpt>
      <trkpt lat="41.97155" lon="25.32343">
        <ele>315.283213</ele>
        <time>2022-02-22T06:39:04.461Z</time>
      </trkpt>
      <trkpt lat="41.97162" lon="25.3229">
        <ele>316.248988</ele>
        <time>2022-02-22T06:39:18.524Z</time>
      </trkpt>
      <trkpt lat="41.97164" lon="25.32229">
        <ele>316.247546</ele>
        <time>2022-02-22T06:39:32.525Z</time>
      </trkpt>
      <trkpt lat="41.97156" lon="25.32106">
        <ele>315.782816</ele>
        <time>2022-02-22T06:39:56.098Z</time>
      </trkpt>
      <trkpt lat="41.97181" lon="25.31977">
        <ele>314.716902</ele>
        <time>2022-02-22T06:40:18.292Z</time>
      </trkpt>
      <trkpt lat="41.97157" lon="25.31737">
        <ele>312.474458</ele>
        <time>2022-02-22T06:40:59.153Z</time>
      </trkpt>
      <trkpt lat="41.97163" lon="25.31708">
        <ele>312.462352</ele>
        <time>2022-02-22T06:41:04.850Z</time>
      </trkpt>
      <trkpt lat="41.97189" lon="25.31649">
        <ele>312.43373</ele>
        <time>2022-02-22T06:41:19.501Z</time>
      </trkpt>
      <trkpt lat="41.97214" lon="25.31575">
        <ele>312.470119</ele>
        <time>2022-02-22T06:41:39.344Z</time>
      </trkpt>
      <trkpt lat="41.97228" lon="25.31513">
        <ele>313.678146</ele>
        <time>2022-02-22T06:41:57.276Z</time>
      </trkpt>
      <trkpt lat="41.97231" lon="25.31483">
        <ele>314.234925</ele>
        <time>2022-02-22T06:42:05.902Z</time>
      </trkpt>
      <trkpt lat="41.97216" lon="25.31283">
        <ele>318.171862</ele>
        <time>2022-02-22T06:43:09.513Z</time>
      </trkpt>
      <trkpt lat="41.9718" lon="25.31129">
        <ele>321.756097</ele>
        <time>2022-02-22T06:44:01.253Z</time>
      </trkpt>
      <trkpt lat="41.97123" lon="25.30816">
        <ele>326.134767</ele>
        <time>2022-02-22T06:45:31.910Z</time>
      </trkpt>
      <trkpt lat="41.97076" lon="25.30478">
        <ele>325.9049</ele>
        <time>2022-02-22T06:46:39.542Z</time>
      </trkpt>
      <trkpt lat="41.97073" lon="25.30436">
        <ele>325.713503</ele>
        <time>2022-02-22T06:46:46.851Z</time>
      </trkpt>
      <trkpt lat="41.9708" lon="25.30406">
        <ele>325.570989</ele>
        <time>2022-02-22T06:46:52.386Z</time>
      </trkpt>
      <trkpt lat="41.97116" lon="25.30305">
        <ele>325.079269</ele>
        <time>2022-02-22T06:47:12.697Z</time>
      </trkpt>
      <trkpt lat="41.97136" lon="25.30245">
        <ele>324.789921</ele>
        <time>2022-02-22T06:47:24.898Z</time>
      </trkpt>
      <trkpt lat="41.97155" lon="25.30251">
        <ele>324.675117</ele>
        <time>2022-02-22T06:47:30.289Z</time>
      </trkpt>
      <trkpt lat="41.97356" lon="25.30313">
        <ele>324.317279</ele>
        <time>2022-02-22T06:48:28.622Z</time>
      </trkpt>
      <trkpt lat="41.97666" lon="25.30487">
        <ele>321.033807</ele>
        <time>2022-02-22T06:49:49.753Z</time>
      </trkpt>
      <trkpt lat="41.97779" lon="25.30541">
        <ele>319.426483</ele>
        <time>2022-02-22T06:50:17.456Z</time>
      </trkpt>
      <trkpt lat="41.98149" lon="25.30452">
        <ele>314.291511</ele>
        <time>2022-02-22T06:51:44.911Z</time>
      </trkpt>
      <trkpt lat="41.98218" lon="25.3043">
        <ele>313.423914</ele>
        <time>2022-02-22T06:52:02.405Z</time>
      </trkpt>
      <trkpt lat="41.98371" lon="25.30362">
        <ele>311.060194</ele>
        <time>2022-02-22T06:52:40.668Z</time>
      </trkpt>
      <trkpt lat="41.98411" lon="25.30343">
        <ele>310.23124</ele>
        <time>2022-02-22T06:52:49.618Z</time>
      </trkpt>
      <trkpt lat="41.98454" lon="25.30323">
        <ele>309.053228</ele>
        <time>2022-02-22T06:52:59.208Z</time>
      </trkpt>
      <trkpt lat="41.98536" lon="25.30283">
        <ele>306.822719</ele>
        <time>2022-02-22T06:53:17.480Z</time>
      </trkpt>
      <trkpt lat="41.98548" lon="25.30278">
        <ele>306.498079</ele>
        <time>2022-02-22T06:53:19.955Z</time>
      </trkpt>
      <trkpt lat="41.98664" lon="25.30229">
        <ele>303.94881</ele>
        <time>2022-02-22T06:53:46.429Z</time>
      </trkpt>
      <trkpt lat="41.98723" lon="25.30202">
        <ele>302.679279</ele>
        <time>2022-02-22T06:54:00.827Z</time>
      </trkpt>
      <trkpt lat="41.98907" lon="25.30161">
        <ele>299.248582</ele>
        <time>2022-02-22T06:54:43.012Z</time>
      </trkpt>
      <trkpt lat="41.98959" lon="25.3016">
        <ele>297.999164</ele>
        <time>2022-02-22T06:54:54.177Z</time>
      </trkpt>
      <trkpt lat="41.99097" lon="25.30171">
        <ele>294.500046</ele>
        <time>2022-02-22T06:55:23.661Z</time>
      </trkpt>
      <trkpt lat="41.99167" lon="25.30146">
        <ele>292.106223</ele>
        <time>2022-02-22T06:55:38.799Z</time>
      </trkpt>
      <trkpt lat="41.9951" lon="25.29993">
        <ele>277.982593</ele>
        <time>2022-02-22T06:56:51.106Z</time>
      </trkpt>
      <trkpt lat="41.99564" lon="25.29984">
        <ele>275.189853</ele>
        <time>2022-02-22T06:57:01.001Z</time>
      </trkpt>
      <trkpt lat="41.99596" lon="25.29993">
        <ele>273.463604</ele>
        <time>2022-02-22T06:57:07.048Z</time>
      </trkpt>
      <trkpt lat="41.99638" lon="25.30028">
        <ele>270.237668</ele>
        <time>2022-02-22T06:57:15.894Z</time>
      </trkpt>
      <trkpt lat="41.99885" lon="25.30375">
        <ele>244.871845</ele>
        <time>2022-02-22T06:58:19.957Z</time>
      </trkpt>
      <trkpt lat="41.99905" lon="25.30398">
        <ele>243.066336</ele>
        <time>2022-02-22T06:58:24.749Z</time>
      </trkpt>
      <trkpt lat="41.99921" lon="25.30409">
        <ele>241.785614</ele>
        <time>2022-02-22T06:58:28.145Z</time>
      </trkpt>
      <trkpt lat="42.00087" lon="25.30431">
        <ele>230.215521</ele>
        <time>2022-02-22T06:58:58.209Z</time>
      </trkpt>
      <trkpt lat="42.00278" lon="25.30472">
        <ele>216.661749</ele>
        <time>2022-02-22T06:59:32.834Z</time>
      </trkpt>
      <trkpt lat="42.0034" lon="25.3048">
        <ele>212.482457</ele>
        <time>2022-02-22T06:59:44.116Z</time>
      </trkpt>
      <trkpt lat="42.004" lon="25.30464">
        <ele>209.144226</ele>
        <time>2022-02-22T06:59:55.428Z</time>
      </trkpt>
      <trkpt lat="42.00442" lon="25.30443">
        <ele>207.650498</ele>
        <time>2022-02-22T07:00:04.064Z</time>
      </trkpt>
      <trkpt lat="42.00978" lon="25.30092">
        <ele>187.428084</ele>
        <time>2022-02-22T07:02:07.662Z</time>
      </trkpt>
      <trkpt lat="42.01047" lon="25.30041">
        <ele>183.982093</ele>
        <time>2022-02-22T07:02:22.592Z</time>
      </trkpt>
      <trkpt lat="42.0111" lon="25.29971">
        <ele>178.868494</ele>
        <time>2022-02-22T07:02:37.627Z</time>
      </trkpt>
      <trkpt lat="42.01175" lon="25.29914">
        <ele>174.018358</ele>
        <time>2022-02-22T07:02:51.544Z</time>
      </trkpt>
      <trkpt lat="42.01347" lon="25.29855">
        <ele>162.624423</ele>
        <time>2022-02-22T07:03:23.792Z</time>
      </trkpt>
      <trkpt lat="42.01438" lon="25.29825">
        <ele>160.049984</ele>
        <time>2022-02-22T07:03:42.313Z</time>
      </trkpt>
      <trkpt lat="42.01522" lon="25.29785">
        <ele>157.691491</ele>
        <time>2022-02-22T07:04:03.709Z</time>
      </trkpt>
      <trkpt lat="42.01582" lon="25.29761">
        <ele>158.088526</ele>
        <time>2022-02-22T07:04:22.352Z</time>
      </trkpt>
      <trkpt lat="42.01588" lon="25.29722">
        <ele>158.278088</ele>
        <time>2022-02-22T07:04:31.844Z</time>
      </trkpt>
      <trkpt lat="42.01599" lon="25.29688">
        <ele>158.455525</ele>
        <time>2022-02-22T07:04:40.782Z</time>
      </trkpt>
      <trkpt lat="42.01603" lon="25.29673">
        <ele>158.531032</ele>
        <time>2022-02-22T07:04:44.757Z</time>
      </trkpt>
      <trkpt lat="42.01646" lon="25.29622">
        <ele>158.958037</ele>
        <time>2022-02-22T07:05:03.734Z</time>
      </trkpt>
      <trkpt lat="42.01627" lon="25.29589">
        <ele>159.340724</ele>
        <time>2022-02-22T07:05:14.028Z</time>
      </trkpt>
      <trkpt lat="42.01602" lon="25.29526">
        <ele>160.01128</ele>
        <time>2022-02-22T07:05:32.340Z</time>
      </trkpt>
      <trkpt lat="42.01595" lon="25.29478">
        <ele>160.465159</ele>
        <time>2022-02-22T07:05:44.274Z</time>
      </trkpt>
      <trkpt lat="42.01594" lon="25.29413">
        <ele>161.071383</ele>
        <time>2022-02-22T07:06:00.330Z</time>
      </trkpt>
      <trkpt lat="42.01589" lon="25.29366">
        <ele>161.797453</ele>
        <time>2022-02-22T07:06:12.708Z</time>
      </trkpt>
      <trkpt lat="42.01599" lon="25.29325">
        <ele>162.459696</ele>
        <time>2022-02-22T07:06:24.026Z</time>
      </trkpt>
      <trkpt lat="42.01613" lon="25.2926">
        <ele>163.507991</ele>
        <time>2022-02-22T07:06:43.015Z</time>
      </trkpt>
      <trkpt lat="42.0163" lon="25.29229">
        <ele>164.106564</ele>
        <time>2022-02-22T07:06:54.548Z</time>
      </trkpt>
      <trkpt lat="42.01658" lon="25.29209">
        <ele>164.781083</ele>
        <time>2022-02-22T07:07:07.868Z</time>
      </trkpt>
      <trkpt lat="42.01686" lon="25.2918">
        <ele>165.785075</ele>
        <time>2022-02-22T07:07:22.308Z</time>
      </trkpt>
      <trkpt lat="42.01703" lon="25.29136">
        <ele>166.893526</ele>
        <time>2022-02-22T07:07:37.762Z</time>
      </trkpt>
      <trkpt lat="42.01716" lon="25.29109">
        <ele>167.596782</ele>
        <time>2022-02-22T07:07:47.758Z</time>
      </trkpt>
      <trkpt lat="42.01784" lon="25.29041">
        <ele>170.118913</ele>
        <time>2022-02-22T07:08:23.717Z</time>
      </trkpt>
      <trkpt lat="42.01795" lon="25.29018">
        <ele>170.9075</ele>
        <time>2022-02-22T07:08:32.630Z</time>
      </trkpt>
      <trkpt lat="42.01804" lon="25.29012">
        <ele>171.304351</ele>
        <time>2022-02-22T07:08:36.992Z</time>
      </trkpt>
      <trkpt lat="42.01812" lon="25.29006">
        <ele>171.684363</ele>
        <time>2022-02-22T07:08:41.325Z</time>
      </trkpt>
      <trkpt lat="42.01859" lon="25.28995">
        <ele>173.577461</ele>
        <time>2022-02-22T07:09:02.306Z</time>
      </trkpt>
      <trkpt lat="42.02295" lon="25.28858">
        <ele>191.508467</ele>
        <time>2022-02-22T07:12:36.187Z</time>
      </trkpt>
      <trkpt lat="42.02363" lon="25.28818">
        <ele>193.708856</ele>
        <time>2022-02-22T07:13:09.400Z</time>
      </trkpt>
      <trkpt lat="42.02651" lon="25.28625">
        <ele>200.952818</ele>
        <time>2022-02-22T07:15:14.220Z</time>
      </trkpt>
      <trkpt lat="42.02766" lon="25.28526">
        <ele>201.584735</ele>
        <time>2022-02-22T07:15:54.572Z</time>
      </trkpt>
      <trkpt lat="42.02884" lon="25.28449">
        <ele>199.759388</ele>
        <time>2022-02-22T07:16:24.978Z</time>
      </trkpt>
      <trkpt lat="42.02935" lon="25.28421">
        <ele>198.878406</ele>
        <time>2022-02-22T07:16:36.727Z</time>
      </trkpt>
      <trkpt lat="42.02999" lon="25.28412">
        <ele>198.02924</ele>
        <time>2022-02-22T07:16:50.743Z</time>
      </trkpt>
      <trkpt lat="42.03025" lon="25.28409">
        <ele>197.698751</ele>
        <time>2022-02-22T07:16:56.446Z</time>
      </trkpt>
      <trkpt lat="42.03098" lon="25.28398">
        <ele>196.756127</ele>
        <time>2022-02-22T07:17:14.073Z</time>
      </trkpt>
      <trkpt lat="42.03255" lon="25.28381">
        <ele>197.866849</ele>
        <time>2022-02-22T07:18:04.294Z</time>
      </trkpt>
      <trkpt lat="42.03344" lon="25.28402">
        <ele>198.843261</ele>
        <time>2022-02-22T07:18:37.831Z</time>
      </trkpt>
      <trkpt lat="42.03384" lon="25.28405">
        <ele>199.294249</ele>
        <time>2022-02-22T07:18:51.928Z</time>
      </trkpt>
      <trkpt lat="42.03516" lon="25.2839">
        <ele>200.346697</ele>
        <time>2022-02-22T07:19:33.036Z</time>
      </trkpt>
      <trkpt lat="42.03691" lon="25.28337">
        <ele>200.277487</ele>
        <time>2022-02-22T07:20:20.675Z</time>
      </trkpt>
      <trkpt lat="42.03996" lon="25.28321">
        <ele>200.27262</ele>
        <time>2022-02-22T07:21:47.430Z</time>
      </trkpt>
      <trkpt lat="42.04181" lon="25.28196">
        <ele>198.161566</ele>
        <time>2022-02-22T07:22:38.034Z</time>
      </trkpt>
      <trkpt lat="42.04414" lon="25.28106">
        <ele>192.049037</ele>
        <time>2022-02-22T07:23:29.349Z</time>
      </trkpt>
      <trkpt lat="42.0453" lon="25.28038">
        <ele>188.52326</ele>
        <time>2022-02-22T07:23:55.452Z</time>
      </trkpt>
      <trkpt lat="42.04553" lon="25.28021">
        <ele>187.829955</ele>
        <time>2022-02-22T07:24:01.144Z</time>
      </trkpt>
      <trkpt lat="42.04568" lon="25.28002">
        <ele>187.317008</ele>
        <time>2022-02-22T07:24:05.344Z</time>
      </trkpt>
      <trkpt lat="42.04746" lon="25.27712">
        <ele>180.47568</ele>
        <time>2022-02-22T07:25:05.586Z</time>
      </trkpt>
      <trkpt lat="42.04808" lon="25.27641">
        <ele>178.343993</ele>
        <time>2022-02-22T07:25:23.114Z</time>
      </trkpt>
      <trkpt lat="42.04824" lon="25.27609">
        <ele>177.564747</ele>
        <time>2022-02-22T07:25:29.341Z</time>
      </trkpt>
      <trkpt lat="42.0491" lon="25.27395">
        <ele>172.403795</ele>
        <time>2022-02-22T07:26:06.782Z</time>
      </trkpt>
      <trkpt lat="42.05042" lon="25.27236">
        <ele>166.751758</ele>
        <time>2022-02-22T07:26:43.132Z</time>
      </trkpt>
      <trkpt lat="42.05166" lon="25.27131">
        <ele>161.777225</ele>
        <time>2022-02-22T07:27:12.799Z</time>
      </trkpt>
      <trkpt lat="42.05172" lon="25.27126">
        <ele>161.519399</ele>
        <time>2022-02-22T07:27:14.225Z</time>
      </trkpt>
      <trkpt lat="42.05196" lon="25.27107">
        <ele>160.581624</ele>
        <time>2022-02-22T07:27:19.749Z</time>
      </trkpt>
      <trkpt lat="42.05222" lon="25.27093">
        <ele>159.578613</ele>
        <time>2022-02-22T07:27:25.535Z</time>
      </trkpt>
      <trkpt lat="42.05255" lon="25.27086">
        <ele>158.429775</ele>
        <time>2022-02-22T07:27:32.181Z</time>
      </trkpt>
      <trkpt lat="42.0532" lon="25.27075">
        <ele>156.369268</ele>
        <time>2022-02-22T07:27:45.487Z</time>
      </trkpt>
      <trkpt lat="42.05378" lon="25.27064">
        <ele>154.668732</ele>
        <time>2022-02-22T07:27:57.554Z</time>
      </trkpt>
      <trkpt lat="42.05456" lon="25.27051">
        <ele>152.359785</ele>
        <time>2022-02-22T07:28:14.189Z</time>
      </trkpt>
      <trkpt lat="42.05466" lon="25.27049">
        <ele>152.128196</ele>
        <time>2022-02-22T07:28:16.484Z</time>
      </trkpt>
      <trkpt lat="42.0547" lon="25.27048">
        <ele>152.052574</ele>
        <time>2022-02-22T07:28:17.211Z</time>
      </trkpt>
      <trkpt lat="42.05476" lon="25.27047">
        <ele>151.920485</ele>
        <time>2022-02-22T07:28:18.529Z</time>
      </trkpt>
      <trkpt lat="42.05486" lon="25.27044">
        <ele>151.702285</ele>
        <time>2022-02-22T07:28:20.640Z</time>
      </trkpt>
      <trkpt lat="42.05559" lon="25.26992">
        <ele>149.928163</ele>
        <time>2022-02-22T07:28:38.873Z</time>
      </trkpt>
      <trkpt lat="42.05568" lon="25.26984">
        <ele>149.714367</ele>
        <time>2022-02-22T07:28:41.053Z</time>
      </trkpt>
      <trkpt lat="42.05574" lon="25.26978">
        <ele>149.543855</ele>
        <time>2022-02-22T07:28:42.786Z</time>
      </trkpt>
      <trkpt lat="42.0559" lon="25.26961">
        <ele>149.109098</ele>
        <time>2022-02-22T07:28:47.391Z</time>
      </trkpt>
      <trkpt lat="42.05616" lon="25.26929">
        <ele>148.416661</ele>
        <time>2022-02-22T07:28:55.306Z</time>
      </trkpt>
      <trkpt lat="42.05642" lon="25.26896">
        <ele>147.974086</ele>
        <time>2022-02-22T07:29:03.513Z</time>
      </trkpt>
      <trkpt lat="42.05657" lon="25.26874">
        <ele>147.693998</ele>
        <time>2022-02-22T07:29:08.686Z</time>
      </trkpt>
      <trkpt lat="42.05662" lon="25.26864">
        <ele>147.587329</ele>
        <time>2022-02-22T07:29:10.736Z</time>
      </trkpt>
      <trkpt lat="42.05665" lon="25.26859">
        <ele>147.526899</ele>
        <time>2022-02-22T07:29:11.833Z</time>
      </trkpt>
      <trkpt lat="42.05713" lon="25.26764">
        <ele>146.461682</ele>
        <time>2022-02-22T07:29:32.247Z</time>
      </trkpt>
      <trkpt lat="42.05766" lon="25.26702">
        <ele>145.95245</ele>
        <time>2022-02-22T07:29:49.660Z</time>
      </trkpt>
      <trkpt lat="42.05787" lon="25.26675">
        <ele>145.788647</ele>
        <time>2022-02-22T07:29:57.198Z</time>
      </trkpt>
      <trkpt lat="42.05799" lon="25.26661">
        <ele>145.697863</ele>
        <time>2022-02-22T07:30:01.337Z</time>
      </trkpt>
      <trkpt lat="42.0582" lon="25.26648">
        <ele>145.573384</ele>
        <time>2022-02-22T07:30:07.156Z</time>
      </trkpt>
      <trkpt lat="42.05832" lon="25.26648">
        <ele>145.506648</ele>
        <time>2022-02-22T07:30:10.207Z</time>
      </trkpt>
      <trkpt lat="42.05831" lon="25.26636">
        <ele>145.456788</ele>
        <time>2022-02-22T07:30:12.526Z</time>
      </trkpt>
      <trkpt lat="42.0583" lon="25.26618">
        <ele>145.382845</ele>
        <time>2022-02-22T07:30:16.005Z</time>
      </trkpt>
      <trkpt lat="42.0583" lon="25.26614">
        <ele>145.365879</ele>
        <time>2022-02-22T07:30:16.787Z</time>
      </trkpt>
      <trkpt lat="42.05826" lon="25.26414">
        <ele>145.536056</ele>
        <time>2022-02-22T07:30:57.268Z</time>
      </trkpt>
      <trkpt lat="42.05841" lon="25.26418">
        <ele>145.572616</ele>
        <time>2022-02-22T07:31:02.224Z</time>
      </trkpt>
      <trkpt lat="42.05874" lon="25.26426">
        <ele>145.648742</ele>
        <time>2022-02-22T07:31:12.892Z</time>
      </trkpt>
      <trkpt lat="42.05874" lon="25.26423">
        <ele>145.653789</ele>
        <time>2022-02-22T07:31:13.600Z</time>
      </trkpt>
      <trkpt lat="42.05874" lon="25.26408">
        <ele>145.793475</ele>
        <time>2022-02-22T07:31:17.131Z</time>
      </trkpt>
      <trkpt lat="42.05869" lon="25.26198">
        <ele>147.835517</ele>
        <time>2022-02-22T07:32:09.789Z</time>
      </trkpt>
      <trkpt lat="42.05867" lon="25.26127">
        <ele>148.35937</ele>
        <time>2022-02-22T07:32:27.524Z</time>
      </trkpt>
      <trkpt lat="42.05862" lon="25.25897">
        <ele>149.944139</ele>
        <time>2022-02-22T07:33:18.847Z</time>
      </trkpt>
      <trkpt lat="42.05859" lon="25.25721">
        <ele>151.364464</ele>
        <time>2022-02-22T07:33:59.871Z</time>
      </trkpt>
      <trkpt lat="42.05858" lon="25.25713">
        <ele>151.426413</ele>
        <time>2022-02-22T07:34:01.757Z</time>
      </trkpt>
      <trkpt lat="42.05855" lon="25.25576">
        <ele>153.382747</ele>
        <time>2022-02-22T07:34:38.386Z</time>
      </trkpt>
      <trkpt lat="42.05855" lon="25.25567">
        <ele>153.51614</ele>
        <time>2022-02-22T07:34:40.782Z</time>
      </trkpt>
      <trkpt lat="42.05849" lon="25.25339">
        <ele>157.005364</ele>
        <time>2022-02-22T07:35:45.177Z</time>
      </trkpt>
      <trkpt lat="42.05846" lon="25.25224">
        <ele>158.778989</ele>
        <time>2022-02-22T07:36:15.866Z</time>
      </trkpt>
      <trkpt lat="42.05846" lon="25.25168">
        <ele>159.350838</ele>
        <time>2022-02-22T07:36:30.208Z</time>
      </trkpt>
      <trkpt lat="42.05849" lon="25.25118">
        <ele>159.795878</ele>
        <time>2022-02-22T07:36:42.609Z</time>
      </trkpt>
      <trkpt lat="42.05852" lon="25.25083">
        <ele>160.112289</ele>
        <time>2022-02-22T07:36:51.234Z</time>
      </trkpt>
      <trkpt lat="42.05857" lon="25.25042">
        <ele>160.480729</ele>
        <time>2022-02-22T07:37:01.024Z</time>
      </trkpt>
      <trkpt lat="42.05859" lon="25.25035">
        <ele>160.544167</ele>
        <time>2022-02-22T07:37:02.685Z</time>
      </trkpt>
      <trkpt lat="42.05865" lon="25.25002">
        <ele>160.846033</ele>
        <time>2022-02-22T07:37:10.531Z</time>
      </trkpt>
      <trkpt lat="42.05883" lon="25.24931">
        <ele>161.185735</ele>
        <time>2022-02-22T07:37:27.506Z</time>
      </trkpt>
      <trkpt lat="42.06021" lon="25.24501">
        <ele>161.102252</ele>
        <time>2022-02-22T07:39:00.388Z</time>
      </trkpt>
      <trkpt lat="42.062" lon="25.23945">
        <ele>156.511191</ele>
        <time>2022-02-22T07:40:42.220Z</time>
      </trkpt>
      <trkpt lat="42.06306" lon="25.23616">
        <ele>155.952262</ele>
        <time>2022-02-22T07:41:52.722Z</time>
      </trkpt>
      <trkpt lat="42.06385" lon="25.23366">
        <ele>156.082627</ele>
        <time>2022-02-22T07:42:47.866Z</time>
      </trkpt>
      <trkpt lat="42.06589" lon="25.22719">
        <ele>155.336366</ele>
        <time>2022-02-22T07:45:04.271Z</time>
      </trkpt>
      <trkpt lat="42.066" lon="25.22684">
        <ele>155.149364</ele>
        <time>2022-02-22T07:45:11.167Z</time>
      </trkpt>
      <trkpt lat="42.0699" lon="25.21464">
        <ele>148.589857</ele>
        <time>2022-02-22T07:49:07.920Z</time>
      </trkpt>
      <trkpt lat="42.06998" lon="25.21439">
        <ele>148.462124</ele>
        <time>2022-02-22T07:49:12.701Z</time>
      </trkpt>
      <trkpt lat="42.07042" lon="25.213">
        <ele>148.067115</ele>
        <time>2022-02-22T07:49:40.706Z</time>
      </trkpt>
      <trkpt lat="42.07081" lon="25.21147">
        <ele>147.769595</ele>
        <time>2022-02-22T07:50:12.171Z</time>
      </trkpt>
      <trkpt lat="42.07116" lon="25.20921">
        <ele>147.507147</ele>
        <time>2022-02-22T07:50:56.778Z</time>
      </trkpt>
      <trkpt lat="42.07126" lon="25.20762">
        <ele>147.334384</ele>
        <time>2022-02-22T07:51:27.288Z</time>
      </trkpt>
      <trkpt lat="42.07131" lon="25.20676">
        <ele>147.298645</ele>
        <time>2022-02-22T07:51:44.079Z</time>
      </trkpt>
      <trkpt lat="42.07164" lon="25.20161">
        <ele>147.954863</ele>
        <time>2022-02-22T07:53:29.411Z</time>
      </trkpt>
      <trkpt lat="42.07174" lon="25.20101">
        <ele>148.159265</ele>
        <time>2022-02-22T07:53:42.642Z</time>
      </trkpt>
      <trkpt lat="42.07202" lon="25.20001">
        <ele>148.516995</ele>
        <time>2022-02-22T07:54:06.492Z</time>
      </trkpt>
      <trkpt lat="42.07217" lon="25.19964">
        <ele>148.593747</ele>
        <time>2022-02-22T07:54:15.559Z</time>
      </trkpt>
      <trkpt lat="42.07231" lon="25.19933">
        <ele>148.644127</ele>
        <time>2022-02-22T07:54:23.188Z</time>
      </trkpt>
      <trkpt lat="42.07237" lon="25.19921">
        <ele>148.662928</ele>
        <time>2022-02-22T07:54:26.190Z</time>
      </trkpt>
      <trkpt lat="42.07248" lon="25.19901">
        <ele>148.698098</ele>
        <time>2022-02-22T07:54:31.503Z</time>
      </trkpt>
      <trkpt lat="42.07281" lon="25.19848">
        <ele>148.792994</ele>
        <time>2022-02-22T07:54:45.670Z</time>
      </trkpt>
      <trkpt lat="42.0729" lon="25.19836">
        <ele>148.815954</ele>
        <time>2022-02-22T07:54:49.283Z</time>
      </trkpt>
      <trkpt lat="42.07299" lon="25.19825">
        <ele>148.83809</ele>
        <time>2022-02-22T07:54:52.234Z</time>
      </trkpt>
      <trkpt lat="42.07324" lon="25.19796">
        <ele>148.854046</ele>
        <time>2022-02-22T07:55:01.002Z</time>
      </trkpt>
      <trkpt lat="42.07408" lon="25.19705">
        <ele>148.55855</ele>
        <time>2022-02-22T07:55:27.079Z</time>
      </trkpt>
      <trkpt lat="42.07418" lon="25.19695">
        <ele>148.52534</ele>
        <time>2022-02-22T07:55:30.013Z</time>
      </trkpt>
      <trkpt lat="42.07494" lon="25.19617">
        <ele>148.613544</ele>
        <time>2022-02-22T07:55:56.207Z</time>
      </trkpt>
      <trkpt lat="42.07534" lon="25.19578">
        <ele>148.85758</ele>
        <time>2022-02-22T07:56:10.265Z</time>
      </trkpt>
      <trkpt lat="42.07582" lon="25.19532">
        <ele>149.150466</ele>
        <time>2022-02-22T07:56:28.026Z</time>
      </trkpt>
      <trkpt lat="42.07591" lon="25.19522">
        <ele>149.213067</ele>
        <time>2022-02-22T07:56:31.927Z</time>
      </trkpt>
      <trkpt lat="42.07532" lon="25.19452">
        <ele>149.659033</ele>
        <time>2022-02-22T07:56:57.582Z</time>
      </trkpt>
      <trkpt lat="42.07513" lon="25.19422">
        <ele>149.828488</ele>
        <time>2022-02-22T07:57:06.766Z</time>
      </trkpt>
      <trkpt lat="42.07503" lon="25.19396">
        <ele>149.950097</ele>
        <time>2022-02-22T07:57:13.368Z</time>
      </trkpt>
      <trkpt lat="42.07497" lon="25.19367">
        <ele>150.0808</ele>
        <time>2022-02-22T07:57:20.044Z</time>
      </trkpt>
      <trkpt lat="42.07481" lon="25.1922">
        <ele>150.496347</ele>
        <time>2022-02-22T07:57:51.031Z</time>
      </trkpt>
      <trkpt lat="42.07499" lon="25.19221">
        <ele>150.543492</ele>
        <time>2022-02-22T07:57:56.413Z</time>
      </trkpt>
      <trkpt lat="42.0748" lon="25.19135">
        <ele>150.715929</ele>
        <time>2022-02-22T07:58:15.679Z</time>
      </trkpt>
      <trkpt lat="42.07472" lon="25.19088">
        <ele>150.837762</ele>
        <time>2022-02-22T07:58:26.326Z</time>
      </trkpt>
      <trkpt lat="42.07466" lon="25.19028">
        <ele>151.095548</ele>
        <time>2022-02-22T07:58:40.027Z</time>
      </trkpt>
      <trkpt lat="42.07463" lon="25.18973">
        <ele>151.331192</ele>
        <time>2022-02-22T07:58:52.478Z</time>
      </trkpt>
      <trkpt lat="42.07466" lon="25.18909">
        <ele>151.608485</ele>
        <time>2022-02-22T07:59:07.292Z</time>
      </trkpt>
      <trkpt lat="42.07475" lon="25.18807">
        <ele>151.975318</ele>
        <time>2022-02-22T07:59:30.871Z</time>
      </trkpt>
      <trkpt lat="42.07483" lon="25.18797">
        <ele>152.020807</ele>
        <time>2022-02-22T07:59:34.299Z</time>
      </trkpt>
      <trkpt lat="42.07477" lon="25.18788">
        <ele>152.054959</ele>
        <time>2022-02-22T07:59:36.788Z</time>
      </trkpt>
      <trkpt lat="42.0747" lon="25.18778">
        <ele>152.095637</ele>
        <time>2022-02-22T07:59:39.712Z</time>
      </trkpt>
      <trkpt lat="42.07341" lon="25.18633">
        <ele>152.75878</ele>
        <time>2022-02-22T08:00:26.666Z</time>
      </trkpt>
      <trkpt lat="42.07256" lon="25.18541">
        <ele>153.185373</ele>
        <time>2022-02-22T08:00:58.181Z</time>
      </trkpt>
      <trkpt lat="42.07243" lon="25.18523">
        <ele>153.260178</ele>
        <time>2022-02-22T08:01:03.365Z</time>
      </trkpt>
      <trkpt lat="42.07233" lon="25.18506">
        <ele>153.338545</ele>
        <time>2022-02-22T08:01:08.334Z</time>
      </trkpt>
      <trkpt lat="42.07154" lon="25.18364">
        <ele>153.962484</ele>
        <time>2022-02-22T08:01:46.796Z</time>
      </trkpt>
      <trkpt lat="42.07142" lon="25.18333">
        <ele>154.085909</ele>
        <time>2022-02-22T08:01:54.285Z</time>
      </trkpt>
      <trkpt lat="42.07099" lon="25.18138">
        <ele>154.782056</ele>
        <time>2022-02-22T08:02:37.495Z</time>
      </trkpt>
      <trkpt lat="42.06756" lon="25.17636">
        <ele>158.22318</ele>
        <time>2022-02-22T08:05:08.286Z</time>
      </trkpt>
      <trkpt lat="42.06684" lon="25.17522">
        <ele>159.323271</ele>
        <time>2022-02-22T08:05:43.933Z</time>
      </trkpt>
      <trkpt lat="42.06644" lon="25.17442">
        <ele>160.183016</ele>
        <time>2022-02-22T08:06:07.782Z</time>
      </trkpt>
      <trkpt lat="42.06391" lon="25.1688">
        <ele>165.401225</ele>
        <time>2022-02-22T08:08:44.859Z</time>
      </trkpt>
      <trkpt lat="42.06368" lon="25.16838">
        <ele>165.578489</ele>
        <time>2022-02-22T08:08:55.989Z</time>
      </trkpt>
      <trkpt lat="42.06206" lon="25.16582">
        <ele>165.802035</ele>
        <time>2022-02-22T08:10:01.320Z</time>
      </trkpt>
      <trkpt lat="42.06159" lon="25.16469">
        <ele>166.474924</ele>
        <time>2022-02-22T08:10:28.129Z</time>
      </trkpt>
      <trkpt lat="42.06054" lon="25.16162">
        <ele>169.424067</ele>
        <time>2022-02-22T08:11:50.759Z</time>
      </trkpt>
      <trkpt lat="42.06032" lon="25.16105">
        <ele>170.23961</ele>
        <time>2022-02-22T08:12:07.929Z</time>
      </trkpt>
      <trkpt lat="42.05955" lon="25.1592">
        <ele>173.115095</ele>
        <time>2022-02-22T08:13:05.102Z</time>
      </trkpt>
      <trkpt lat="42.05915" lon="25.15841">
        <ele>173.902424</ele>
        <time>2022-02-22T08:13:28.985Z</time>
      </trkpt>
      <trkpt lat="42.05843" lon="25.15718">
        <ele>174.979207</ele>
        <time>2022-02-22T08:14:04.557Z</time>
      </trkpt>
      <trkpt lat="42.04971" lon="25.14494">
        <ele>173.429931</ele>
        <time>2022-02-22T08:19:31.283Z</time>
      </trkpt>
      <trkpt lat="42.04496" lon="25.13871">
        <ele>176.794029</ele>
        <time>2022-02-22T08:22:46.444Z</time>
      </trkpt>
      <trkpt lat="42.04467" lon="25.13844">
        <ele>176.941659</ele>
        <time>2022-02-22T08:22:55.942Z</time>
      </trkpt>
      <trkpt lat="42.04303" lon="25.13721">
        <ele>177.071201</ele>
        <time>2022-02-22T08:23:46.054Z</time>
      </trkpt>
      <trkpt lat="42.04264" lon="25.13684">
        <ele>177.252262</ele>
        <time>2022-02-22T08:23:59.151Z</time>
      </trkpt>
      <trkpt lat="42.04096" lon="25.1349">
        <ele>178.339966</ele>
        <time>2022-02-22T08:25:03.519Z</time>
      </trkpt>
      <trkpt lat="42.04058" lon="25.13445">
        <ele>178.673828</ele>
        <time>2022-02-22T08:25:19.067Z</time>
      </trkpt>
      <trkpt lat="42.04024" lon="25.13396">
        <ele>179.026946</ele>
        <time>2022-02-22T08:25:34.149Z</time>
      </trkpt>
      <trkpt lat="42.04004" lon="25.13345">
        <ele>179.4023</ele>
        <time>2022-02-22T08:25:47.326Z</time>
      </trkpt>
      <trkpt lat="42.03995" lon="25.13293">
        <ele>179.754848</ele>
        <time>2022-02-22T08:25:59.736Z</time>
      </trkpt>
      <trkpt lat="42.03987" lon="25.13164">
        <ele>180.59898</ele>
        <time>2022-02-22T08:26:29.491Z</time>
      </trkpt>
      <trkpt lat="42.03976" lon="25.13098">
        <ele>181.042316</ele>
        <time>2022-02-22T08:26:45.164Z</time>
      </trkpt>
      <trkpt lat="42.0388" lon="25.12679">
        <ele>183.764898</ele>
        <time>2022-02-22T08:28:24.970Z</time>
      </trkpt>
      <trkpt lat="42.0386" lon="25.12607">
        <ele>184.198333</ele>
        <time>2022-02-22T08:28:42.467Z</time>
      </trkpt>
      <trkpt lat="42.03829" lon="25.12548">
        <ele>184.603535</ele>
        <time>2022-02-22T08:28:58.729Z</time>
      </trkpt>
      <trkpt lat="42.03779" lon="25.12485">
        <ele>185.099845</ele>
        <time>2022-02-22T08:29:19.231Z</time>
      </trkpt>
      <trkpt lat="42.03717" lon="25.12439">
        <ele>185.580336</ele>
        <time>2022-02-22T08:29:40.088Z</time>
      </trkpt>
      <trkpt lat="42.03629" lon="25.12394">
        <ele>186.226039</ele>
        <time>2022-02-22T08:30:08.615Z</time>
      </trkpt>
      <trkpt lat="42.03592" lon="25.12359">
        <ele>186.567395</ele>
        <time>2022-02-22T08:30:22.249Z</time>
      </trkpt>
      <trkpt lat="42.03576" lon="25.12339">
        <ele>186.735372</ele>
        <time>2022-02-22T08:30:29.085Z</time>
      </trkpt>
      <trkpt lat="42.03553" lon="25.12303">
        <ele>187.000451</ele>
        <time>2022-02-22T08:30:39.809Z</time>
      </trkpt>
      <trkpt lat="42.03365" lon="25.11982">
        <ele>189.025347</ele>
        <time>2022-02-22T08:32:11.966Z</time>
      </trkpt>
      <trkpt lat="42.03341" lon="25.11931">
        <ele>189.168019</ele>
        <time>2022-02-22T08:32:24.148Z</time>
      </trkpt>
      <trkpt lat="42.03286" lon="25.11777">
        <ele>189.591581</ele>
        <time>2022-02-22T08:32:58.201Z</time>
      </trkpt>
      <trkpt lat="42.03281" lon="25.11763">
        <ele>189.633174</ele>
        <time>2022-02-22T08:33:01.294Z</time>
      </trkpt>
      <trkpt lat="42.0327" lon="25.11744">
        <ele>189.696079</ele>
        <time>2022-02-22T08:33:06.277Z</time>
      </trkpt>
      <trkpt lat="42.03261" lon="25.11732">
        <ele>189.743163</ele>
        <time>2022-02-22T08:33:09.936Z</time>
      </trkpt>
      <trkpt lat="42.03209" lon="25.11671">
        <ele>189.98889</ele>
        <time>2022-02-22T08:33:29.922Z</time>
      </trkpt>
      <trkpt lat="42.03105" lon="25.11553">
        <ele>190.958145</ele>
        <time>2022-02-22T08:34:11.034Z</time>
      </trkpt>
      <trkpt lat="42.03086" lon="25.1153">
        <ele>191.156819</ele>
        <time>2022-02-22T08:34:19.083Z</time>
      </trkpt>
      <trkpt lat="42.03002" lon="25.11432">
        <ele>192.032877</ele>
        <time>2022-02-22T08:34:53.597Z</time>
      </trkpt>
      <trkpt lat="42.02934" lon="25.11375">
        <ele>192.669238</ele>
        <time>2022-02-22T08:35:17.701Z</time>
      </trkpt>
      <trkpt lat="42.02907" lon="25.11352">
        <ele>192.927147</ele>
        <time>2022-02-22T08:35:27.375Z</time>
      </trkpt>
      <trkpt lat="42.02895" lon="25.11339">
        <ele>193.048324</ele>
        <time>2022-02-22T08:35:31.917Z</time>
      </trkpt>
      <trkpt lat="42.02887" lon="25.1133">
        <ele>193.130153</ele>
        <time>2022-02-22T08:35:34.952Z</time>
      </trkpt>
      <trkpt lat="42.02781" lon="25.11176">
        <ele>194.413405</ele>
        <time>2022-02-22T08:36:22.667Z</time>
      </trkpt>
      <trkpt lat="42.02735" lon="25.1111">
        <ele>195.192581</ele>
        <time>2022-02-22T08:36:43.985Z</time>
      </trkpt>
      <trkpt lat="42.02729" lon="25.111">
        <ele>195.304438</ele>
        <time>2022-02-22T08:36:47.281Z</time>
      </trkpt>
      <trkpt lat="42.02723" lon="25.11087">
        <ele>195.433608</ele>
        <time>2022-02-22T08:36:50.852Z</time>
      </trkpt>
      <trkpt lat="42.02719" lon="25.11069">
        <ele>195.596276</ele>
        <time>2022-02-22T08:36:55.123Z</time>
      </trkpt>
      <trkpt lat="42.02718" lon="25.11054">
        <ele>195.720776</ele>
        <time>2022-02-22T08:36:58.797Z</time>
      </trkpt>
      <trkpt lat="42.02718" lon="25.11036">
        <ele>195.88383</ele>
        <time>2022-02-22T08:37:03.443Z</time>
      </trkpt>
      <trkpt lat="42.02721" lon="25.11014">
        <ele>196.076273</ele>
        <time>2022-02-22T08:37:08.794Z</time>
      </trkpt>
      <trkpt lat="42.02723" lon="25.10995">
        <ele>196.237979</ele>
        <time>2022-02-22T08:37:13.695Z</time>
      </trkpt>
      <trkpt lat="42.02734" lon="25.1092">
        <ele>196.878157</ele>
        <time>2022-02-22T08:37:32.574Z</time>
      </trkpt>
      <trkpt lat="42.02733" lon="25.10896">
        <ele>197.077934</ele>
        <time>2022-02-22T08:37:38.704Z</time>
      </trkpt>
      <trkpt lat="42.02723" lon="25.10865">
        <ele>197.366002</ele>
        <time>2022-02-22T08:37:46.772Z</time>
      </trkpt>
      <trkpt lat="42.02718" lon="25.10857">
        <ele>197.447</ele>
        <time>2022-02-22T08:37:49.185Z</time>
      </trkpt>
      <trkpt lat="42.02681" lon="25.10802">
        <ele>198.064103</ele>
        <time>2022-02-22T08:38:06.459Z</time>
      </trkpt>
      <trkpt lat="42.02668" lon="25.10777">
        <ele>198.312903</ele>
        <time>2022-02-22T08:38:13.351Z</time>
      </trkpt>
      <trkpt lat="42.02628" lon="25.10703">
        <ele>198.615812</ele>
        <time>2022-02-22T08:38:34.006Z</time>
      </trkpt>
      <trkpt lat="42.02582" lon="25.1063">
        <ele>198.873184</ele>
        <time>2022-02-22T08:38:54.416Z</time>
      </trkpt>
      <trkpt lat="42.02577" lon="25.10623">
        <ele>198.897273</ele>
        <time>2022-02-22T08:38:56.182Z</time>
      </trkpt>
      <trkpt lat="42.02537" lon="25.10563">
        <ele>199.058713</ele>
        <time>2022-02-22T08:39:11.622Z</time>
      </trkpt>
      <trkpt lat="42.02499" lon="25.10505">
        <ele>199.09857</ele>
        <time>2022-02-22T08:39:26.645Z</time>
      </trkpt>
      <trkpt lat="42.02473" lon="25.10464">
        <ele>199.12667</ele>
        <time>2022-02-22T08:39:37.442Z</time>
      </trkpt>
      <trkpt lat="42.02444" lon="25.10418">
        <ele>199.157649</ele>
        <time>2022-02-22T08:39:49.752Z</time>
      </trkpt>
      <trkpt lat="42.0242" lon="25.10379">
        <ele>199.321195</ele>
        <time>2022-02-22T08:40:00.471Z</time>
      </trkpt>
      <trkpt lat="42.02395" lon="25.10339">
        <ele>199.625014</ele>
        <time>2022-02-22T08:40:11.753Z</time>
      </trkpt>
      <trkpt lat="42.02375" lon="25.10309">
        <ele>199.862135</ele>
        <time>2022-02-22T08:40:20.982Z</time>
      </trkpt>
      <trkpt lat="42.02285" lon="25.10205">
        <ele>201.001124</ele>
        <time>2022-02-22T08:40:58.242Z</time>
      </trkpt>
      <trkpt lat="42.02276" lon="25.10187">
        <ele>201.251503</ele>
        <time>2022-02-22T08:41:03.507Z</time>
      </trkpt>
      <trkpt lat="42.02269" lon="25.10172">
        <ele>201.455359</ele>
        <time>2022-02-22T08:41:08.140Z</time>
      </trkpt>
      <trkpt lat="42.02265" lon="25.10128">
        <ele>201.976882</ele>
        <time>2022-02-22T08:41:19.482Z</time>
      </trkpt>
      <trkpt lat="42.02266" lon="25.10093">
        <ele>202.379713</ele>
        <time>2022-02-22T08:41:28.276Z</time>
      </trkpt>
      <trkpt lat="42.02267" lon="25.10076">
        <ele>202.584397</ele>
        <time>2022-02-22T08:41:33.016Z</time>
      </trkpt>
      <trkpt lat="42.0227" lon="25.10037">
        <ele>203.030134</ele>
        <time>2022-02-22T08:41:42.841Z</time>
      </trkpt>
      <trkpt lat="42.02278" lon="25.09933">
        <ele>204.496369</ele>
        <time>2022-02-22T08:42:10.848Z</time>
      </trkpt>
      <trkpt lat="42.02286" lon="25.09818">
        <ele>206.238237</ele>
        <time>2022-02-22T08:42:43.588Z</time>
      </trkpt>
      <trkpt lat="42.0229" lon="25.09777">
        <ele>206.868168</ele>
        <time>2022-02-22T08:42:54.810Z</time>
      </trkpt>
      <trkpt lat="42.02288" lon="25.09744">
        <ele>207.229617</ele>
        <time>2022-02-22T08:43:03.205Z</time>
      </trkpt>
      <trkpt lat="42.02279" lon="25.09693">
        <ele>207.689039</ele>
        <time>2022-02-22T08:43:16.257Z</time>
      </trkpt>
      <trkpt lat="42.02255" lon="25.09558">
        <ele>208.898088</ele>
        <time>2022-02-22T08:43:49.155Z</time>
      </trkpt>
      <trkpt lat="42.02196" lon="25.09232">
        <ele>210.291372</ele>
        <time>2022-02-22T08:45:02.509Z</time>
      </trkpt>
      <trkpt lat="42.02184" lon="25.09164">
        <ele>210.374111</ele>
        <time>2022-02-22T08:45:16.647Z</time>
      </trkpt>
      <trkpt lat="42.02175" lon="25.09126">
        <ele>210.421012</ele>
        <time>2022-02-22T08:45:24.523Z</time>
      </trkpt>
      <trkpt lat="42.02171" lon="25.09109">
        <ele>210.442402</ele>
        <time>2022-02-22T08:45:28.033Z</time>
      </trkpt>
      <trkpt lat="42.02094" lon="25.08952">
        <ele>210.341587</ele>
        <time>2022-02-22T08:46:03.720Z</time>
      </trkpt>
      <trkpt lat="42.01941" lon="25.08486">
        <ele>210.194916</ele>
        <time>2022-02-22T08:47:43.482Z</time>
      </trkpt>
      <trkpt lat="42.01917" lon="25.08349">
        <ele>210.649417</ele>
        <time>2022-02-22T08:48:13.925Z</time>
      </trkpt>
      <trkpt lat="42.01862" lon="25.07966">
        <ele>213.227944</ele>
        <time>2022-02-22T08:49:44.416Z</time>
      </trkpt>
      <trkpt lat="42.01675" lon="25.07532">
        <ele>217.009597</ele>
        <time>2022-02-22T08:51:41.717Z</time>
      </trkpt>
      <trkpt lat="42.01636" lon="25.07375">
        <ele>218.3728</ele>
        <time>2022-02-22T08:52:20.983Z</time>
      </trkpt>
      <trkpt lat="42.01616" lon="25.07264">
        <ele>219.363421</ele>
        <time>2022-02-22T08:52:48.570Z</time>
      </trkpt>
      <trkpt lat="42.01611" lon="25.07059">
        <ele>221.448793</ele>
        <time>2022-02-22T08:53:39.369Z</time>
      </trkpt>
      <trkpt lat="42.01619" lon="25.06903">
        <ele>223.192022</ele>
        <time>2022-02-22T08:54:18.979Z</time>
      </trkpt>
      <trkpt lat="42.01597" lon="25.06689">
        <ele>225.537888</ele>
        <time>2022-02-22T08:55:13.093Z</time>
      </trkpt>
      <trkpt lat="42.01581" lon="25.06537">
        <ele>227.110539</ele>
        <time>2022-02-22T08:55:51.222Z</time>
      </trkpt>
      <trkpt lat="42.01572" lon="25.06467">
        <ele>227.714095</ele>
        <time>2022-02-22T08:56:08.675Z</time>
      </trkpt>
      <trkpt lat="42.01565" lon="25.06414">
        <ele>228.163553</ele>
        <time>2022-02-22T08:56:21.522Z</time>
      </trkpt>
      <trkpt lat="42.01478" lon="25.05926">
        <ele>231.675055</ele>
        <time>2022-02-22T08:58:18.024Z</time>
      </trkpt>
      <trkpt lat="42.01432" lon="25.05818">
        <ele>232.31785</ele>
        <time>2022-02-22T08:58:45.194Z</time>
      </trkpt>
      <trkpt lat="42.01409" lon="25.0577">
        <ele>232.531518</ele>
        <time>2022-02-22T08:58:57.443Z</time>
      </trkpt>
      <trkpt lat="42.01452" lon="25.05754">
        <ele>232.753554</ele>
        <time>2022-02-22T08:59:10.534Z</time>
      </trkpt>
      <trkpt lat="42.01459" lon="25.05746">
        <ele>232.802713</ele>
        <time>2022-02-22T08:59:13.483Z</time>
      </trkpt>
      <trkpt lat="42.0146" lon="25.05736">
        <ele>232.836672</ele>
        <time>2022-02-22T08:59:15.506Z</time>
      </trkpt>
      <trkpt lat="42.01452" lon="25.05617">
        <ele>233.467413</ele>
        <time>2022-02-22T08:59:42.488Z</time>
      </trkpt>
      <trkpt lat="42.01448" lon="25.05572">
        <ele>233.762632</ele>
        <time>2022-02-22T08:59:53.029Z</time>
      </trkpt>
      <trkpt lat="42.01432" lon="25.0536">
        <ele>235.490512</ele>
        <time>2022-02-22T09:00:45.645Z</time>
      </trkpt>
      <trkpt lat="42.01429" lon="25.05347">
        <ele>235.639623</ele>
        <time>2022-02-22T09:00:49.037Z</time>
      </trkpt>
      <trkpt lat="42.01423" lon="25.05333">
        <ele>235.810074</ele>
        <time>2022-02-22T09:00:53.221Z</time>
      </trkpt>
      <trkpt lat="42.01421" lon="25.05319">
        <ele>235.967661</ele>
        <time>2022-02-22T09:00:57.337Z</time>
      </trkpt>
      <trkpt lat="42.01394" lon="25.05142">
        <ele>237.852426</ele>
        <time>2022-02-22T09:01:44.914Z</time>
      </trkpt>
      <trkpt lat="42.01389" lon="25.05121">
        <ele>238.06834</ele>
        <time>2022-02-22T09:01:51.008Z</time>
      </trkpt>
      <trkpt lat="42.01374" lon="25.05062">
        <ele>238.69561</ele>
        <time>2022-02-22T09:02:07.031Z</time>
      </trkpt>
      <trkpt lat="42.01352" lon="25.05008">
        <ele>239.311329</ele>
        <time>2022-02-22T09:02:22.206Z</time>
      </trkpt>
      <trkpt lat="42.01346" lon="25.0497">
        <ele>239.623213</ele>
        <time>2022-02-22T09:02:31.656Z</time>
      </trkpt>
      <trkpt lat="42.01338" lon="25.04931">
        <ele>239.746511</ele>
        <time>2022-02-22T09:02:41.199Z</time>
      </trkpt>
      <trkpt lat="42.01338" lon="25.04862">
        <ele>239.957191</ele>
        <time>2022-02-22T09:02:56.481Z</time>
      </trkpt>
      <trkpt lat="42.01339" lon="25.04797">
        <ele>240.155067</ele>
        <time>2022-02-22T09:03:10.524Z</time>
      </trkpt>
      <trkpt lat="42.01336" lon="25.0476">
        <ele>240.269058</ele>
        <time>2022-02-22T09:03:18.401Z</time>
      </trkpt>
      <trkpt lat="42.01326" lon="25.04738">
        <ele>240.336674</ele>
        <time>2022-02-22T09:03:23.452Z</time>
      </trkpt>
      <trkpt lat="42.01302" lon="25.04673">
        <ele>240.429548</ele>
        <time>2022-02-22T09:03:38.012Z</time>
      </trkpt>
      <trkpt lat="42.0129" lon="25.04653">
        <ele>240.462693</ele>
        <time>2022-02-22T09:03:43.275Z</time>
      </trkpt>
      <trkpt lat="42.01253" lon="25.0462">
        <ele>240.539466</ele>
        <time>2022-02-22T09:03:56.037Z</time>
      </trkpt>
      <trkpt lat="42.01221" lon="25.046">
        <ele>240.600044</ele>
        <time>2022-02-22T09:04:06.665Z</time>
      </trkpt>
      <trkpt lat="42.01199" lon="25.04593">
        <ele>240.640268</ele>
        <time>2022-02-22T09:04:13.770Z</time>
      </trkpt>
      <trkpt lat="42.01169" lon="25.04595">
        <ele>240.827808</ele>
        <time>2022-02-22T09:04:22.949Z</time>
      </trkpt>
      <trkpt lat="42.01165" lon="25.04549">
        <ele>241.041346</ele>
        <time>2022-02-22T09:04:33.138Z</time>
      </trkpt>
      <trkpt lat="42.01169" lon="25.04513">
        <ele>241.211504</ele>
        <time>2022-02-22T09:04:41.200Z</time>
      </trkpt>
      <trkpt lat="42.01177" lon="25.04493">
        <ele>241.318393</ele>
        <time>2022-02-22T09:04:46.490Z</time>
      </trkpt>
      <trkpt lat="42.01187" lon="25.04467">
        <ele>241.456306</ele>
        <time>2022-02-22T09:04:52.996Z</time>
      </trkpt>
      <trkpt lat="42.01273" lon="25.04306">
        <ele>242.138114</ele>
        <time>2022-02-22T09:05:36.305Z</time>
      </trkpt>
      <trkpt lat="42.01362" lon="25.04124">
        <ele>242.481274</ele>
        <time>2022-02-22T09:06:20.455Z</time>
      </trkpt>
      <trkpt lat="42.01528" lon="25.03874">
        <ele>242.306007</ele>
        <time>2022-02-22T09:07:26.300Z</time>
      </trkpt>
      <trkpt lat="42.01585" lon="25.03703">
        <ele>241.87826</ele>
        <time>2022-02-22T09:08:01.376Z</time>
      </trkpt>
      <trkpt lat="42.01629" lon="25.03586">
        <ele>241.594588</ele>
        <time>2022-02-22T09:08:25.440Z</time>
      </trkpt>
      <trkpt lat="42.01658" lon="25.0342">
        <ele>241.446415</ele>
        <time>2022-02-22T09:08:58.259Z</time>
      </trkpt>
      <trkpt lat="42.017" lon="25.03266">
        <ele>242.143049</ele>
        <time>2022-02-22T09:09:33.557Z</time>
      </trkpt>
      <trkpt lat="42.01874" lon="25.02767">
        <ele>246.592541</ele>
        <time>2022-02-22T09:11:45.833Z</time>
      </trkpt>
      <trkpt lat="42.01883" lon="25.02729">
        <ele>246.945143</ele>
        <time>2022-02-22T09:11:55.555Z</time>
      </trkpt>
      <trkpt lat="42.01906" lon="25.02548">
        <ele>248.195767</ele>
        <time>2022-02-22T09:12:38.611Z</time>
      </trkpt>
      <trkpt lat="42.01922" lon="25.02485">
        <ele>248.643011</ele>
        <time>2022-02-22T09:12:53.652Z</time>
      </trkpt>
      <trkpt lat="42.02057" lon="25.02165">
        <ele>249.420368</ele>
        <time>2022-02-22T09:14:12.043Z</time>
      </trkpt>
      <trkpt lat="42.02099" lon="25.02019">
        <ele>248.941528</ele>
        <time>2022-02-22T09:14:40.624Z</time>
      </trkpt>
      <trkpt lat="42.0232" lon="25.01422">
        <ele>242.074031</ele>
        <time>2022-02-22T09:16:29.830Z</time>
      </trkpt>
      <trkpt lat="42.02325" lon="25.01383">
        <ele>241.789048</ele>
        <time>2022-02-22T09:16:36.633Z</time>
      </trkpt>
      <trkpt lat="42.02319" lon="25.01271">
        <ele>241.306906</ele>
        <time>2022-02-22T09:16:56.429Z</time>
      </trkpt>
      <trkpt lat="42.02336" lon="25.00876">
        <ele>240.030858</ele>
        <time>2022-02-22T09:18:12.112Z</time>
      </trkpt>
      <trkpt lat="42.02369" lon="25.00668">
        <ele>238.168591</ele>
        <time>2022-02-22T09:18:48.378Z</time>
      </trkpt>
      <trkpt lat="42.02393" lon="25.0021">
        <ele>229.087794</ele>
        <time>2022-02-22T09:19:56.726Z</time>
      </trkpt>
      <trkpt lat="42.024" lon="25.00067">
        <ele>226.020301</ele>
        <time>2022-02-22T09:20:17.526Z</time>
      </trkpt>
      <trkpt lat="42.02409" lon="24.99916">
        <ele>223.060687</ele>
        <time>2022-02-22T09:20:40.192Z</time>
      </trkpt>
      <trkpt lat="42.02431" lon="24.99541">
        <ele>218.245128</ele>
        <time>2022-02-22T09:21:40.656Z</time>
      </trkpt>
      <trkpt lat="42.02459" lon="24.99392">
        <ele>216.86598</ele>
        <time>2022-02-22T09:22:06.733Z</time>
      </trkpt>
      <trkpt lat="42.02504" lon="24.99183">
        <ele>215.596504</ele>
        <time>2022-02-22T09:22:44.289Z</time>
      </trkpt>
      <trkpt lat="42.02572" lon="24.98872">
        <ele>216.676839</ele>
        <time>2022-02-22T09:23:49.134Z</time>
      </trkpt>
      <trkpt lat="42.02709" lon="24.98982">
        <ele>219.751506</ele>
        <time>2022-02-22T09:24:58.210Z</time>
      </trkpt>
      <trkpt lat="42.02724" lon="24.98997">
        <ele>220.192879</ele>
        <time>2022-02-22T09:25:05.981Z</time>
      </trkpt>
      <trkpt lat="42.02752" lon="24.99051">
        <ele>221.38106</ele>
        <time>2022-02-22T09:25:25.186Z</time>
      </trkpt>
      <trkpt lat="42.02783" lon="24.99093">
        <ele>221.750807</ele>
        <time>2022-02-22T09:25:39.619Z</time>
      </trkpt>
      <trkpt lat="42.02853" lon="24.99125">
        <ele>220.913916</ele>
        <time>2022-02-22T09:25:57.579Z</time>
      </trkpt>
      <trkpt lat="42.02878" lon="24.99159">
        <ele>220.506453</ele>
        <time>2022-02-22T09:26:05.496Z</time>
      </trkpt>
      <trkpt lat="42.02918" lon="24.9932">
        <ele>217.635388</ele>
        <time>2022-02-22T09:26:32.414Z</time>
      </trkpt>
      <trkpt lat="42.02959" lon="24.99418">
        <ele>215.124117</ele>
        <time>2022-02-22T09:26:49.119Z</time>
      </trkpt>
      <trkpt lat="42.03016" lon="24.99458">
        <ele>213.335355</ele>
        <time>2022-02-22T09:27:02.508Z</time>
      </trkpt>
      <trkpt lat="42.03029" lon="24.99465">
        <ele>212.973753</ele>
        <time>2022-02-22T09:27:05.198Z</time>
      </trkpt>
      <trkpt lat="42.03503" lon="24.99714">
        <ele>200.319853</ele>
        <time>2022-02-22T09:28:54.210Z</time>
      </trkpt>
      <trkpt lat="42.03545" lon="24.9973">
        <ele>199.645657</ele>
        <time>2022-02-22T09:29:04.056Z</time>
      </trkpt>
      <trkpt lat="42.03672" lon="24.99758">
        <ele>197.893842</ele>
        <time>2022-02-22T09:29:34.394Z</time>
      </trkpt>
      <trkpt lat="42.03808" lon="24.99788">
        <ele>197.359669</ele>
        <time>2022-02-22T09:30:10.962Z</time>
      </trkpt>
      <trkpt lat="42.03876" lon="24.99798">
        <ele>197.206404</ele>
        <time>2022-02-22T09:30:30.231Z</time>
      </trkpt>
      <trkpt lat="42.03888" lon="24.998">
        <ele>197.190028</ele>
        <time>2022-02-22T09:30:33.551Z</time>
      </trkpt>
      <trkpt lat="42.03895" lon="24.99803">
        <ele>197.179712</ele>
        <time>2022-02-22T09:30:35.727Z</time>
      </trkpt>
      <trkpt lat="42.03904" lon="24.99807">
        <ele>197.166599</ele>
        <time>2022-02-22T09:30:38.358Z</time>
      </trkpt>
      <trkpt lat="42.03913" lon="24.99814">
        <ele>197.152431</ele>
        <time>2022-02-22T09:30:41.178Z</time>
      </trkpt>
      <trkpt lat="42.03998" lon="24.9988">
        <ele>197.003474</ele>
        <time>2022-02-22T09:31:06.855Z</time>
      </trkpt>
      <trkpt lat="42.0407" lon="24.99934">
        <ele>196.489943</ele>
        <time>2022-02-22T09:31:27.055Z</time>
      </trkpt>
      <trkpt lat="42.04097" lon="24.99947">
        <ele>196.310611</ele>
        <time>2022-02-22T09:31:33.982Z</time>
      </trkpt>
      <trkpt lat="42.04111" lon="24.99949">
        <ele>196.225953</ele>
        <time>2022-02-22T09:31:37.258Z</time>
      </trkpt>
      <trkpt lat="42.04125" lon="24.99941">
        <ele>196.130917</ele>
        <time>2022-02-22T09:31:40.791Z</time>
      </trkpt>
      <trkpt lat="42.04171" lon="24.9991">
        <ele>195.736968</ele>
        <time>2022-02-22T09:31:52.850Z</time>
      </trkpt>
      <trkpt lat="42.04182" lon="24.99903">
        <ele>195.597712</ele>
        <time>2022-02-22T09:31:55.662Z</time>
      </trkpt>
      <trkpt lat="42.04234" lon="24.99866">
        <ele>194.926621</ele>
        <time>2022-02-22T09:32:09.081Z</time>
      </trkpt>
      <trkpt lat="42.04265" lon="24.99842">
        <ele>194.512858</ele>
        <time>2022-02-22T09:32:17.204Z</time>
      </trkpt>
      <trkpt lat="42.04306" lon="24.99819">
        <ele>194.006081</ele>
        <time>2022-02-22T09:32:27.220Z</time>
      </trkpt>
      <trkpt lat="42.04415" lon="24.99767">
        <ele>192.801408</ele>
        <time>2022-02-22T09:32:53.405Z</time>
      </trkpt>
      <trkpt lat="42.04474" lon="24.99738">
        <ele>192.15293</ele>
        <time>2022-02-22T09:33:08.196Z</time>
      </trkpt>
      <trkpt lat="42.04498" lon="24.99724">
        <ele>191.940633</ele>
        <time>2022-02-22T09:33:14.334Z</time>
      </trkpt>
      <trkpt lat="42.04517" lon="24.99709">
        <ele>191.831243</ele>
        <time>2022-02-22T09:33:19.361Z</time>
      </trkpt>
      <trkpt lat="42.0453" lon="24.99694">
        <ele>191.741568</ele>
        <time>2022-02-22T09:33:23.632Z</time>
      </trkpt>
      <trkpt lat="42.05852" lon="24.97451">
        <ele>180.674753</ele>
        <time>2022-02-22T09:42:07.599Z</time>
      </trkpt>
      <trkpt lat="42.05869" lon="24.97411">
        <ele>180.255846</ele>
        <time>2022-02-22T09:42:15.492Z</time>
      </trkpt>
      <trkpt lat="42.05885" lon="24.97355">
        <ele>179.718161</ele>
        <time>2022-02-22T09:42:25.457Z</time>
      </trkpt>
      <trkpt lat="42.05928" lon="24.97219">
        <ele>178.411304</ele>
        <time>2022-02-22T09:42:49.882Z</time>
      </trkpt>
      <trkpt lat="42.05947" lon="24.9716">
        <ele>177.882537</ele>
        <time>2022-02-22T09:43:00.448Z</time>
      </trkpt>
      <trkpt lat="42.0599" lon="24.97072">
        <ele>177.008814</ele>
        <time>2022-02-22T09:43:18.413Z</time>
      </trkpt>
      <trkpt lat="42.06389" lon="24.96405">
        <ele>173.415651</ele>
        <time>2022-02-22T09:45:53.158Z</time>
      </trkpt>
      <trkpt lat="42.06392" lon="24.96395">
        <ele>173.406701</ele>
        <time>2022-02-22T09:45:55.025Z</time>
      </trkpt>
      <trkpt lat="42.0641" lon="24.96314">
        <ele>173.331728</ele>
        <time>2022-02-22T09:46:12.199Z</time>
      </trkpt>
      <trkpt lat="42.06446" lon="24.96157">
        <ele>173.858175</ele>
        <time>2022-02-22T09:46:47.083Z</time>
      </trkpt>
      <trkpt lat="42.06447" lon="24.9615">
        <ele>173.895427</ele>
        <time>2022-02-22T09:46:48.674Z</time>
      </trkpt>
      <trkpt lat="42.06452" lon="24.96131">
        <ele>174.002754</ele>
        <time>2022-02-22T09:46:53.316Z</time>
      </trkpt>
      <trkpt lat="42.06455" lon="24.96115">
        <ele>174.086827</ele>
        <time>2022-02-22T09:46:56.899Z</time>
      </trkpt>
      <trkpt lat="42.06461" lon="24.96101">
        <ele>174.172658</ele>
        <time>2022-02-22T09:47:00.550Z</time>
      </trkpt>
      <trkpt lat="42.06462" lon="24.96098">
        <ele>174.191219</ele>
        <time>2022-02-22T09:47:01.271Z</time>
      </trkpt>
      <trkpt lat="42.06468" lon="24.96088">
        <ele>174.257435</ele>
        <time>2022-02-22T09:47:04.266Z</time>
      </trkpt>
      <trkpt lat="42.06546" lon="24.95965">
        <ele>176.215414</ele>
        <time>2022-02-22T09:47:43.535Z</time>
      </trkpt>
      <trkpt lat="42.06549" lon="24.95958">
        <ele>176.337354</ele>
        <time>2022-02-22T09:47:45.583Z</time>
      </trkpt>
      <trkpt lat="42.06552" lon="24.95947">
        <ele>176.518959</ele>
        <time>2022-02-22T09:47:48.463Z</time>
      </trkpt>
      <trkpt lat="42.0655" lon="24.95935">
        <ele>176.717621</ele>
        <time>2022-02-22T09:47:52.130Z</time>
      </trkpt>
      <trkpt lat="42.06538" lon="24.95902">
        <ele>177.298242</ele>
        <time>2022-02-22T09:48:02.328Z</time>
      </trkpt>
      <trkpt lat="42.06565" lon="24.95887">
        <ele>177.910053</ele>
        <time>2022-02-22T09:48:13.750Z</time>
      </trkpt>
      <trkpt lat="42.06686" lon="24.95824">
        <ele>182.666165</ele>
        <time>2022-02-22T09:49:12.038Z</time>
      </trkpt>
      <trkpt lat="42.06772" lon="24.95811">
        <ele>185.98453</ele>
        <time>2022-02-22T09:49:54.117Z</time>
      </trkpt>
      <trkpt lat="42.06785" lon="24.958">
        <ele>186.522303</ele>
        <time>2022-02-22T09:50:01.507Z</time>
      </trkpt>
      <trkpt lat="42.06837" lon="24.95686">
        <ele>189.900377</ele>
        <time>2022-02-22T09:50:45.627Z</time>
      </trkpt>
      <trkpt lat="42.06821" lon="24.95667">
        <ele>190.619267</ele>
        <time>2022-02-22T09:50:54.270Z</time>
      </trkpt>
      <trkpt lat="42.06762" lon="24.95591">
        <ele>192.198455</ele>
        <time>2022-02-22T09:51:25.111Z</time>
      </trkpt>
      <trkpt lat="42.06814" lon="24.95443">
        <ele>193.571914</ele>
        <time>2022-02-22T09:52:01.443Z</time>
      </trkpt>
      <trkpt lat="42.06859" lon="24.95313">
        <ele>193.715664</ele>
        <time>2022-02-22T09:52:31.139Z</time>
      </trkpt>
      <trkpt lat="42.06909" lon="24.95164">
        <ele>193.374668</ele>
        <time>2022-02-22T09:53:02.440Z</time>
      </trkpt>
      <trkpt lat="42.06914" lon="24.9515">
        <ele>193.261966</ele>
        <time>2022-02-22T09:53:05.348Z</time>
      </trkpt>
      <trkpt lat="42.06963" lon="24.95007">
        <ele>192.140798</ele>
        <time>2022-02-22T09:53:31.851Z</time>
      </trkpt>
      <trkpt lat="42.06981" lon="24.94979">
        <ele>191.766084</ele>
        <time>2022-02-22T09:53:37.958Z</time>
      </trkpt>
      <trkpt lat="42.06988" lon="24.94969">
        <ele>191.605195</ele>
        <time>2022-02-22T09:53:40.098Z</time>
      </trkpt>
      <trkpt lat="42.06997" lon="24.94958">
        <ele>191.412744</ele>
        <time>2022-02-22T09:53:42.694Z</time>
      </trkpt>
      <trkpt lat="42.07415" lon="24.94599">
        <ele>183.713926</ele>
        <time>2022-02-22T09:55:31.045Z</time>
      </trkpt>
      <trkpt lat="42.07473" lon="24.94542">
        <ele>183.081166</ele>
        <time>2022-02-22T09:55:47.301Z</time>
      </trkpt>
      <trkpt lat="42.07764" lon="24.94215">
        <ele>180.710279</ele>
        <time>2022-02-22T09:57:19.482Z</time>
      </trkpt>
      <trkpt lat="42.08172" lon="24.93777">
        <ele>179.137896</ele>
        <time>2022-02-22T09:59:32.126Z</time>
      </trkpt>
      <trkpt lat="42.085" lon="24.9337">
        <ele>178.681298</ele>
        <time>2022-02-22T10:01:30.105Z</time>
      </trkpt>
      <trkpt lat="42.08534" lon="24.93317">
        <ele>178.425393</ele>
        <time>2022-02-22T10:01:43.354Z</time>
      </trkpt>
      <trkpt lat="42.08549" lon="24.93286">
        <ele>178.197328</ele>
        <time>2022-02-22T10:01:50.312Z</time>
      </trkpt>
      <trkpt lat="42.09078" lon="24.92154">
        <ele>170.168104</ele>
        <time>2022-02-22T10:05:43.885Z</time>
      </trkpt>
      <trkpt lat="42.09412" lon="24.91465">
        <ele>167.944244</ele>
        <time>2022-02-22T10:08:17.430Z</time>
      </trkpt>
      <trkpt lat="42.09487" lon="24.91316">
        <ele>167.864916</ele>
        <time>2022-02-22T10:08:52.910Z</time>
      </trkpt>
      <trkpt lat="42.09515" lon="24.91247">
        <ele>168.087515</ele>
        <time>2022-02-22T10:09:09.449Z</time>
      </trkpt>
      <trkpt lat="42.09542" lon="24.91161">
        <ele>168.388718</ele>
        <time>2022-02-22T10:09:29.503Z</time>
      </trkpt>
      <trkpt lat="42.09586" lon="24.90963">
        <ele>169.010397</ele>
        <time>2022-02-22T10:10:14.705Z</time>
      </trkpt>
      <trkpt lat="42.09635" lon="24.90726">
        <ele>169.179723</ele>
        <time>2022-02-22T10:11:04.964Z</time>
      </trkpt>
      <trkpt lat="42.09643" lon="24.90697">
        <ele>169.142134</ele>
        <time>2022-02-22T10:11:10.715Z</time>
      </trkpt>
      <trkpt lat="42.09686" lon="24.90592">
        <ele>168.865138</ele>
        <time>2022-02-22T10:11:32.610Z</time>
      </trkpt>
      <trkpt lat="42.09729" lon="24.90476">
        <ele>168.283388</ele>
        <time>2022-02-22T10:11:55.581Z</time>
      </trkpt>
      <trkpt lat="42.09755" lon="24.90395">
        <ele>167.904215</ele>
        <time>2022-02-22T10:12:11.573Z</time>
      </trkpt>
      <trkpt lat="42.09768" lon="24.90351">
        <ele>167.747448</ele>
        <time>2022-02-22T10:12:20.420Z</time>
      </trkpt>
      <trkpt lat="42.09819" lon="24.90171">
        <ele>167.072597</ele>
        <time>2022-02-22T10:12:56.224Z</time>
      </trkpt>
      <trkpt lat="42.09839" lon="24.90102">
        <ele>166.558893</ele>
        <time>2022-02-22T10:13:09.545Z</time>
      </trkpt>
      <trkpt lat="42.0986" lon="24.90014">
        <ele>165.916768</ele>
        <time>2022-02-22T10:13:25.217Z</time>
      </trkpt>
      <trkpt lat="42.09873" lon="24.89946">
        <ele>165.420112</ele>
        <time>2022-02-22T10:13:36.980Z</time>
      </trkpt>
      <trkpt lat="42.099" lon="24.89843">
        <ele>164.579385</ele>
        <time>2022-02-22T10:13:55.367Z</time>
      </trkpt>
      <trkpt lat="42.09932" lon="24.89727">
        <ele>163.635723</ele>
        <time>2022-02-22T10:14:16.557Z</time>
      </trkpt>
      <trkpt lat="42.09941" lon="24.89685">
        <ele>163.52148</ele>
        <time>2022-02-22T10:14:24.533Z</time>
      </trkpt>
      <trkpt lat="42.09989" lon="24.89421">
        <ele>163.031961</ele>
        <time>2022-02-22T10:15:16.847Z</time>
      </trkpt>
      <trkpt lat="42.10016" lon="24.89273">
        <ele>162.927191</ele>
        <time>2022-02-22T10:15:46.829Z</time>
      </trkpt>
      <trkpt lat="42.10054" lon="24.89073">
        <ele>162.927904</ele>
        <time>2022-02-22T10:16:27.400Z</time>
      </trkpt>
      <trkpt lat="42.10058" lon="24.89009">
        <ele>162.955866</ele>
        <time>2022-02-22T10:16:40.115Z</time>
      </trkpt>
      <trkpt lat="42.10055" lon="24.88967">
        <ele>163.078159</ele>
        <time>2022-02-22T10:16:48.730Z</time>
      </trkpt>
      <trkpt lat="42.09982" lon="24.88112">
        <ele>165.526045</ele>
        <time>2022-02-22T10:19:51.794Z</time>
      </trkpt>
      <trkpt lat="42.09963" lon="24.87934">
        <ele>165.861641</ele>
        <time>2022-02-22T10:20:29.073Z</time>
      </trkpt>
      <trkpt lat="42.09963" lon="24.87896">
        <ele>165.916561</ele>
        <time>2022-02-22T10:20:36.788Z</time>
      </trkpt>
      <trkpt lat="42.09982" lon="24.87707">
        <ele>165.95375</ele>
        <time>2022-02-22T10:21:15.022Z</time>
      </trkpt>
      <trkpt lat="42.09986" lon="24.87681">
        <ele>165.933179</ele>
        <time>2022-02-22T10:21:20.380Z</time>
      </trkpt>
      <trkpt lat="42.10014" lon="24.87508">
        <ele>165.665566</ele>
        <time>2022-02-22T10:21:53.579Z</time>
      </trkpt>
      <trkpt lat="42.10019" lon="24.87477">
        <ele>165.57821</ele>
        <time>2022-02-22T10:21:59.593Z</time>
      </trkpt>
      <trkpt lat="42.10052" lon="24.87329">
        <ele>165.199851</ele>
        <time>2022-02-22T10:22:28.206Z</time>
      </trkpt>
      <trkpt lat="42.10075" lon="24.87217">
        <ele>165.200639</ele>
        <time>2022-02-22T10:22:50.653Z</time>
      </trkpt>
      <trkpt lat="42.10075" lon="24.87217">
        <ele>165.200639</ele>
        <time>2022-02-22T10:22:50.700Z</time>
      </trkpt>
      <trkpt lat="42.10021" lon="24.87166">
        <ele>165.201244</ele>
        <time>2022-02-22T10:23:09.417Z</time>
      </trkpt>
      <trkpt lat="42.10016" lon="24.8716">
        <ele>165.201298</ele>
        <time>2022-02-22T10:23:11.328Z</time>
      </trkpt>
      <trkpt lat="42.1" lon="24.87004">
        <ele>165.307575</ele>
        <time>2022-02-22T10:23:46.149Z</time>
      </trkpt>
      <trkpt lat="42.09999" lon="24.86994">
        <ele>165.315057</ele>
        <time>2022-02-22T10:23:48.234Z</time>
      </trkpt>
      <trkpt lat="42.09996" lon="24.86914">
        <ele>165.375193</ele>
        <time>2022-02-22T10:24:04.226Z</time>
      </trkpt>
      <trkpt lat="42.09994" lon="24.86846">
        <ele>165.037638</ele>
        <time>2022-02-22T10:24:17.231Z</time>
      </trkpt>
      <trkpt lat="42.09992" lon="24.86808">
        <ele>164.806769</ele>
        <time>2022-02-22T10:24:24.377Z</time>
      </trkpt>
      <trkpt lat="42.09993" lon="24.86776">
        <ele>164.618994</ele>
        <time>2022-02-22T10:24:29.994Z</time>
      </trkpt>
      <trkpt lat="42.10006" lon="24.86582">
        <ele>163.560719</ele>
        <time>2022-02-22T10:25:04.811Z</time>
      </trkpt>
      <trkpt lat="42.10146" lon="24.86694">
        <ele>162.738739</ele>
        <time>2022-02-22T10:25:46.844Z</time>
      </trkpt>
      <trkpt lat="42.1017" lon="24.8671">
        <ele>162.693251</ele>
        <time>2022-02-22T10:25:54.640Z</time>
      </trkpt>
      <trkpt lat="42.10196" lon="24.86725">
        <ele>162.646964</ele>
        <time>2022-02-22T10:26:02.446Z</time>
      </trkpt>
      <trkpt lat="42.10218" lon="24.86734">
        <ele>162.609659</ele>
        <time>2022-02-22T10:26:08.649Z</time>
      </trkpt>
      <trkpt lat="42.10291" lon="24.8676">
        <ele>162.468445</ele>
        <time>2022-02-22T10:26:29.320Z</time>
      </trkpt>
      <trkpt lat="42.10303" lon="24.8676">
        <ele>162.436393</ele>
        <time>2022-02-22T10:26:32.636Z</time>
      </trkpt>
      <trkpt lat="42.10311" lon="24.86757">
        <ele>162.414269</ele>
        <time>2022-02-22T10:26:34.892Z</time>
      </trkpt>
      <trkpt lat="42.10318" lon="24.86751">
        <ele>162.391915</ele>
        <time>2022-02-22T10:26:37.035Z</time>
      </trkpt>
      <trkpt lat="42.1033" lon="24.86718">
        <ele>162.319766</ele>
        <time>2022-02-22T10:26:44.574Z</time>
      </trkpt>
      <trkpt lat="42.1033" lon="24.86685">
        <ele>162.254649</ele>
        <time>2022-02-22T10:26:51.205Z</time>
      </trkpt>
      <trkpt lat="42.10329" lon="24.86555">
        <ele>161.963619</ele>
        <time>2022-02-22T10:27:16.333Z</time>
      </trkpt>
      <trkpt lat="42.1033" lon="24.86506">
        <ele>161.760961</ele>
        <time>2022-02-22T10:27:25.606Z</time>
      </trkpt>
      <trkpt lat="42.10332" lon="24.86478">
        <ele>161.64229</ele>
        <time>2022-02-22T10:27:31.099Z</time>
      </trkpt>
      <trkpt lat="42.10335" lon="24.86452">
        <ele>161.536139</ele>
        <time>2022-02-22T10:27:35.910Z</time>
      </trkpt>
      <trkpt lat="42.10338" lon="24.86436">
        <ele>161.466291</ele>
        <time>2022-02-22T10:27:39.216Z</time>
      </trkpt>
      <trkpt lat="42.10345" lon="24.86418">
        <ele>161.383517</ele>
        <time>2022-02-22T10:27:42.862Z</time>
      </trkpt>
      <trkpt lat="42.10386" lon="24.86348">
        <ele>161.014655</ele>
        <time>2022-02-22T10:27:59.857Z</time>
      </trkpt>
      <trkpt lat="42.10532" lon="24.86096">
        <ele>159.945535</ele>
        <time>2022-02-22T10:29:00.413Z</time>
      </trkpt>
      <trkpt lat="42.106" lon="24.85976">
        <ele>159.765577</ele>
        <time>2022-02-22T10:29:31.436Z</time>
      </trkpt>
      <trkpt lat="42.10787" lon="24.85647">
        <ele>160.188837</ele>
        <time>2022-02-22T10:30:59.919Z</time>
      </trkpt>
      <trkpt lat="42.10863" lon="24.85519">
        <ele>160.315725</ele>
        <time>2022-02-22T10:31:33.437Z</time>
      </trkpt>
      <trkpt lat="42.10979" lon="24.85307">
        <ele>160.466442</ele>
        <time>2022-02-22T10:32:29.358Z</time>
      </trkpt>
      <trkpt lat="42.11027" lon="24.85154">
        <ele>160.478082</ele>
        <time>2022-02-22T10:33:03.172Z</time>
      </trkpt>
      <trkpt lat="42.11064" lon="24.85029">
        <ele>160.368346</ele>
        <time>2022-02-22T10:33:29.908Z</time>
      </trkpt>
      <trkpt lat="42.11113" lon="24.84873">
        <ele>160.226226</ele>
        <time>2022-02-22T10:34:05.171Z</time>
      </trkpt>
      <trkpt lat="42.11139" lon="24.84785">
        <ele>160.145682</ele>
        <time>2022-02-22T10:34:24.125Z</time>
      </trkpt>
      <trkpt lat="42.11155" lon="24.84723">
        <ele>160.078906</ele>
        <time>2022-02-22T10:34:37.135Z</time>
      </trkpt>
      <trkpt lat="42.11166" lon="24.84684">
        <ele>159.982818</ele>
        <time>2022-02-22T10:34:45.378Z</time>
      </trkpt>
      <trkpt lat="42.11171" lon="24.84667">
        <ele>159.939603</ele>
        <time>2022-02-22T10:34:49.036Z</time>
      </trkpt>
      <trkpt lat="42.11195" lon="24.84587">
        <ele>159.740379</ele>
        <time>2022-02-22T10:35:05.835Z</time>
      </trkpt>
      <trkpt lat="42.11235" lon="24.84455">
        <ele>159.558608</ele>
        <time>2022-02-22T10:35:33.620Z</time>
      </trkpt>
      <trkpt lat="42.11271" lon="24.84338">
        <ele>159.618587</ele>
        <time>2022-02-22T10:36:00.242Z</time>
      </trkpt>
      <trkpt lat="42.11319" lon="24.84176">
        <ele>159.89456</ele>
        <time>2022-02-22T10:36:38.136Z</time>
      </trkpt>
      <trkpt lat="42.11349" lon="24.84078">
        <ele>160.128085</ele>
        <time>2022-02-22T10:37:01.705Z</time>
      </trkpt>
      <trkpt lat="42.11378" lon="24.83982">
        <ele>160.13078</ele>
        <time>2022-02-22T10:37:23.742Z</time>
      </trkpt>
      <trkpt lat="42.11417" lon="24.83855">
        <ele>160.044106</ele>
        <time>2022-02-22T10:37:51.181Z</time>
      </trkpt>
      <trkpt lat="42.11444" lon="24.83764">
        <ele>159.736053</ele>
        <time>2022-02-22T10:38:09.803Z</time>
      </trkpt>
      <trkpt lat="42.11492" lon="24.83607">
        <ele>159.04288</ele>
        <time>2022-02-22T10:38:41.854Z</time>
      </trkpt>
      <trkpt lat="42.11496" lon="24.83594">
        <ele>159.010113</ele>
        <time>2022-02-22T10:38:44.531Z</time>
      </trkpt>
      <trkpt lat="42.11516" lon="24.83568">
        <ele>158.926932</ele>
        <time>2022-02-22T10:38:51.678Z</time>
      </trkpt>
      <trkpt lat="42.11655" lon="24.83404">
        <ele>158.427639</ele>
        <time>2022-02-22T10:39:40.903Z</time>
      </trkpt>
      <trkpt lat="42.11723" lon="24.8333">
        <ele>158.281656</ele>
        <time>2022-02-22T10:40:04.858Z</time>
      </trkpt>
      <trkpt lat="42.11803" lon="24.83242">
        <ele>158.080237</ele>
        <time>2022-02-22T10:40:32.966Z</time>
      </trkpt>
      <trkpt lat="42.11933" lon="24.831">
        <ele>157.719252</ele>
        <time>2022-02-22T10:41:17.398Z</time>
      </trkpt>
      <trkpt lat="42.12173" lon="24.82811">
        <ele>157.220474</ele>
        <time>2022-02-22T10:42:44.247Z</time>
      </trkpt>
      <trkpt lat="42.12625" lon="24.82299">
        <ele>158.438755</ele>
        <time>2022-02-22T10:45:37.463Z</time>
      </trkpt>
      <trkpt lat="42.12661" lon="24.82259">
        <ele>158.142544</ele>
        <time>2022-02-22T10:45:48.879Z</time>
      </trkpt>
      <trkpt lat="42.12792" lon="24.82107">
        <ele>156.930389</ele>
        <time>2022-02-22T10:46:29.894Z</time>
      </trkpt>
      <trkpt lat="42.12971" lon="24.81898">
        <ele>156.008645</ele>
        <time>2022-02-22T10:47:33.263Z</time>
      </trkpt>
      <trkpt lat="42.13041" lon="24.8182">
        <ele>155.855714</ele>
        <time>2022-02-22T10:47:58.650Z</time>
      </trkpt>
      <trkpt lat="42.13054" lon="24.81806">
        <ele>155.828348</ele>
        <time>2022-02-22T10:48:03.194Z</time>
      </trkpt>
      <trkpt lat="42.13341" lon="24.81484">
        <ele>155.435258</ele>
        <time>2022-02-22T10:49:43.502Z</time>
      </trkpt>
      <trkpt lat="42.13544" lon="24.81248">
        <ele>156.07938</ele>
        <time>2022-02-22T10:51:02.424Z</time>
      </trkpt>
      <trkpt lat="42.13559" lon="24.8123">
        <ele>156.099186</ele>
        <time>2022-02-22T10:51:08.417Z</time>
      </trkpt>
      <trkpt lat="42.13655" lon="24.81118">
        <ele>156.220211</ele>
        <time>2022-02-22T10:51:44.379Z</time>
      </trkpt>
      <trkpt lat="42.13712" lon="24.81051">
        <ele>156.268747</ele>
        <time>2022-02-22T10:52:04.866Z</time>
      </trkpt>
      <trkpt lat="42.13883" lon="24.80867">
        <ele>156.464852</ele>
        <time>2022-02-22T10:53:06.548Z</time>
      </trkpt>
      <trkpt lat="42.13893" lon="24.80856">
        <ele>156.487613</ele>
        <time>2022-02-22T10:53:10.433Z</time>
      </trkpt>
      <trkpt lat="42.14083" lon="24.80626">
        <ele>157.170626</ele>
        <time>2022-02-22T10:54:24.786Z</time>
      </trkpt>
      <trkpt lat="42.14092" lon="24.80615">
        <ele>157.205718</ele>
        <time>2022-02-22T10:54:28.287Z</time>
      </trkpt>
      <trkpt lat="42.14142" lon="24.80558">
        <ele>157.359256</ele>
        <time>2022-02-22T10:54:48.054Z</time>
      </trkpt>
      <trkpt lat="42.14161" lon="24.80539">
        <ele>157.414791</ele>
        <time>2022-02-22T10:54:55.030Z</time>
      </trkpt>
      <trkpt lat="42.14223" lon="24.80474">
        <ele>157.598817</ele>
        <time>2022-02-22T10:55:17.567Z</time>
      </trkpt>
      <trkpt lat="42.14236" lon="24.80468">
        <ele>157.607947</ele>
        <time>2022-02-22T10:55:21.159Z</time>
      </trkpt>
      <trkpt lat="42.14265" lon="24.80469">
        <ele>157.47627</ele>
        <time>2022-02-22T10:55:29.317Z</time>
      </trkpt>
      <trkpt lat="42.14635" lon="24.80598">
        <ele>155.809703</ele>
        <time>2022-02-22T10:57:06.586Z</time>
      </trkpt>
      <trkpt lat="42.14659" lon="24.806">
        <ele>155.833917</ele>
        <time>2022-02-22T10:57:13.142Z</time>
      </trkpt>
      <trkpt lat="42.14665" lon="24.80602">
        <ele>155.840477</ele>
        <time>2022-02-22T10:57:14.941Z</time>
      </trkpt>
      <trkpt lat="42.14695" lon="24.80611">
        <ele>155.87154</ele>
        <time>2022-02-22T10:57:23.673Z</time>
      </trkpt>
      <trkpt lat="42.14881" lon="24.80681">
        <ele>156.802617</ele>
        <time>2022-02-22T10:58:23.565Z</time>
      </trkpt>
      <trkpt lat="42.14893" lon="24.80698">
        <ele>156.924241</ele>
        <time>2022-02-22T10:58:29.297Z</time>
      </trkpt>
      <trkpt lat="42.14903" lon="24.80733">
        <ele>157.108186</ele>
        <time>2022-02-22T10:58:37.946Z</time>
      </trkpt>
      <trkpt lat="42.14902" lon="24.80753">
        <ele>157.17306</ele>
        <time>2022-02-22T10:58:42.632Z</time>
      </trkpt>
      <trkpt lat="42.14871" lon="24.80819">
        <ele>157.336923</ele>
        <time>2022-02-22T10:59:00.410Z</time>
      </trkpt>
      <trkpt lat="42.14849" lon="24.80844">
        <ele>157.417032</ele>
        <time>2022-02-22T10:59:08.948Z</time>
      </trkpt>
      <trkpt lat="42.14829" lon="24.80852">
        <ele>157.475385</ele>
        <time>2022-02-22T10:59:15.057Z</time>
      </trkpt>
      <trkpt lat="42.14803" lon="24.80843">
        <ele>157.552039</ele>
        <time>2022-02-22T10:59:22.810Z</time>
      </trkpt>
      <trkpt lat="42.14788" lon="24.80823">
        <ele>157.611237</ele>
        <time>2022-02-22T10:59:28.652Z</time>
      </trkpt>
      <trkpt lat="42.14771" lon="24.80762">
        <ele>157.461412</ele>
        <time>2022-02-22T10:59:41.310Z</time>
      </trkpt>
      <trkpt lat="42.14767" lon="24.80742">
        <ele>157.372592</ele>
        <time>2022-02-22T10:59:45.178Z</time>
      </trkpt>
      <trkpt lat="42.1476" lon="24.80693">
        <ele>157.159718</ele>
        <time>2022-02-22T10:59:53.954Z</time>
      </trkpt>
      <trkpt lat="42.14758" lon="24.80679">
        <ele>157.101599</ele>
        <time>2022-02-22T10:59:56.320Z</time>
      </trkpt>
      <trkpt lat="42.14752" lon="24.80627">
        <ele>156.875777</ele>
        <time>2022-02-22T11:00:05.761Z</time>
      </trkpt>
      <trkpt lat="42.14749" lon="24.80574">
        <ele>156.648485</ele>
        <time>2022-02-22T11:00:15.353Z</time>
      </trkpt>
      <trkpt lat="42.14747" lon="24.80521">
        <ele>156.581455</ele>
        <time>2022-02-22T11:00:24.918Z</time>
      </trkpt>
      <trkpt lat="42.14748" lon="24.80455">
        <ele>156.52605</ele>
        <time>2022-02-22T11:00:37.067Z</time>
      </trkpt>
      <trkpt lat="42.14757" lon="24.803">
        <ele>156.448391</ele>
        <time>2022-02-22T11:01:08.970Z</time>
      </trkpt>
      <trkpt lat="42.14761" lon="24.80258">
        <ele>156.502479</ele>
        <time>2022-02-22T11:01:18.079Z</time>
      </trkpt>
      <trkpt lat="42.14769" lon="24.80155">
        <ele>156.633846</ele>
        <time>2022-02-22T11:01:39.471Z</time>
      </trkpt>
      <trkpt lat="42.14791" lon="24.79804">
        <ele>156.695772</ele>
        <time>2022-02-22T11:02:47.910Z</time>
      </trkpt>
      <trkpt lat="42.14811" lon="24.79469">
        <ele>157.785214</ele>
        <time>2022-02-22T11:03:59.934Z</time>
      </trkpt>
      <trkpt lat="42.14818" lon="24.79374">
        <ele>158.191445</ele>
        <time>2022-02-22T11:04:21.527Z</time>
      </trkpt>
      <trkpt lat="42.14828" lon="24.79244">
        <ele>158.544168</ele>
        <time>2022-02-22T11:04:50.155Z</time>
      </trkpt>
      <trkpt lat="42.14814" lon="24.7924">
        <ele>158.593433</ele>
        <time>2022-02-22T11:04:54.526Z</time>
      </trkpt>
      <trkpt lat="42.14799" lon="24.79237">
        <ele>158.642164</ele>
        <time>2022-02-22T11:04:58.744Z</time>
      </trkpt>
      <trkpt lat="42.14801" lon="24.79215">
        <ele>158.699354</ele>
        <time>2022-02-22T11:05:04.889Z</time>
      </trkpt>
      <trkpt lat="42.14808" lon="24.79184">
        <ele>158.779366</ele>
        <time>2022-02-22T11:05:13.334Z</time>
      </trkpt>
      <trkpt lat="42.1484" lon="24.78669">
        <ele>158.566267</ele>
        <time>2022-02-22T11:07:26.193Z</time>
      </trkpt>
      <trkpt lat="42.14841" lon="24.78657">
        <ele>158.553665</ele>
        <time>2022-02-22T11:07:29.169Z</time>
      </trkpt>
      <trkpt lat="42.14842" lon="24.78637">
        <ele>158.530626</ele>
        <time>2022-02-22T11:07:34.453Z</time>
      </trkpt>
      <trkpt lat="42.14844" lon="24.78612">
        <ele>158.502055</ele>
        <time>2022-02-22T11:07:40.942Z</time>
      </trkpt>
      <trkpt lat="42.1486" lon="24.78361">
        <ele>158.344679</ele>
        <time>2022-02-22T11:08:45.227Z</time>
      </trkpt>
      <trkpt lat="42.14866" lon="24.78169">
        <ele>158.61502</ele>
        <time>2022-02-22T11:09:35.964Z</time>
      </trkpt>
      <trkpt lat="42.14866" lon="24.78155">
        <ele>158.734839</ele>
        <time>2022-02-22T11:09:39.737Z</time>
      </trkpt>
      <trkpt lat="42.14872" lon="24.78057">
        <ele>159.590711</ele>
        <time>2022-02-22T11:10:08.782Z</time>
      </trkpt>
      <trkpt lat="42.14878" lon="24.77956">
        <ele>160.471784</ele>
        <time>2022-02-22T11:10:41.275Z</time>
      </trkpt>
      <trkpt lat="42.14876" lon="24.77935">
        <ele>160.65242</ele>
        <time>2022-02-22T11:10:48.240Z</time>
      </trkpt>
      <trkpt lat="42.14873" lon="24.77906">
        <ele>160.894419</ele>
        <time>2022-02-22T11:10:57.646Z</time>
      </trkpt>
      <trkpt lat="42.14876" lon="24.7786">
        <ele>161.280092</ele>
        <time>2022-02-22T11:11:12.350Z</time>
      </trkpt>
      <trkpt lat="42.14886" lon="24.77747">
        <ele>162.23712</ele>
        <time>2022-02-22T11:11:46.806Z</time>
      </trkpt>
      <trkpt lat="42.14895" lon="24.77738">
        <ele>162.363818</ele>
        <time>2022-02-22T11:11:51.244Z</time>
      </trkpt>
      <trkpt lat="42.14907" lon="24.77731">
        <ele>162.512965</ele>
        <time>2022-02-22T11:11:56.226Z</time>
      </trkpt>
      <trkpt lat="42.14925" lon="24.77714">
        <ele>162.566758</ele>
        <time>2022-02-22T11:12:03.913Z</time>
      </trkpt>
      <trkpt lat="42.14931" lon="24.77711">
        <ele>162.536934</ele>
        <time>2022-02-22T11:12:06.163Z</time>
      </trkpt>
      <trkpt lat="42.14937" lon="24.77709">
        <ele>162.506194</ele>
        <time>2022-02-22T11:12:08.534Z</time>
      </trkpt>
      <trkpt lat="42.14936" lon="24.77688">
        <ele>162.434323</ele>
        <time>2022-02-22T11:12:12.736Z</time>
      </trkpt>
      <trkpt lat="42.14936" lon="24.77627">
        <ele>162.22803</ele>
        <time>2022-02-22T11:12:24.488Z</time>
      </trkpt>
      <trkpt lat="42.14933" lon="24.77589">
        <ele>162.100186</ele>
        <time>2022-02-22T11:12:31.436Z</time>
      </trkpt>
      <trkpt lat="42.14931" lon="24.77556">
        <ele>161.988092</ele>
        <time>2022-02-22T11:12:37.386Z</time>
      </trkpt>
      <trkpt lat="42.14928" lon="24.77527">
        <ele>161.890311</ele>
        <time>2022-02-22T11:12:42.607Z</time>
      </trkpt>
      <trkpt lat="42.1492" lon="24.77472">
        <ele>161.701226</ele>
        <time>2022-02-22T11:12:52.784Z</time>
      </trkpt>
      <trkpt lat="42.14906" lon="24.77399">
        <ele>161.446816</ele>
        <time>2022-02-22T11:13:06.895Z</time>
      </trkpt>
      <trkpt lat="42.14849" lon="24.77089">
        <ele>160.788152</ele>
        <time>2022-02-22T11:14:10.734Z</time>
      </trkpt>
      <trkpt lat="42.14831" lon="24.76994">
        <ele>160.744396</ele>
        <time>2022-02-22T11:14:31.026Z</time>
      </trkpt>
      <trkpt lat="42.14762" lon="24.76619">
        <ele>160.907455</ele>
        <time>2022-02-22T11:15:51.733Z</time>
      </trkpt>
      <trkpt lat="42.14759" lon="24.76609">
        <ele>160.910398</ele>
        <time>2022-02-22T11:15:54.000Z</time>
      </trkpt>
      <trkpt lat="42.14753" lon="24.76573">
        <ele>160.920373</ele>
        <time>2022-02-22T11:16:01.495Z</time>
      </trkpt>
      <trkpt lat="42.14748" lon="24.76547">
        <ele>160.966964</ele>
        <time>2022-02-22T11:16:06.790Z</time>
      </trkpt>
      <trkpt lat="42.14746" lon="24.76541">
        <ele>160.988632</ele>
        <time>2022-02-22T11:16:08.009Z</time>
      </trkpt>
      <trkpt lat="42.14743" lon="24.76532">
        <ele>161.021079</ele>
        <time>2022-02-22T11:16:10.050Z</time>
      </trkpt>
      <trkpt lat="42.14741" lon="24.76525">
        <ele>161.043195</ele>
        <time>2022-02-22T11:16:11.461Z</time>
      </trkpt>
      <trkpt lat="42.14723" lon="24.76405">
        <ele>161.437975</ele>
        <time>2022-02-22T11:16:37.853Z</time>
      </trkpt>
      <trkpt lat="42.14719" lon="24.76377">
        <ele>161.52915</ele>
        <time>2022-02-22T11:16:43.994Z</time>
      </trkpt>
      <trkpt lat="42.14716" lon="24.76355">
        <ele>161.602831</ele>
        <time>2022-02-22T11:16:49.734Z</time>
      </trkpt>
      <trkpt lat="42.14716" lon="24.7635">
        <ele>161.617752</ele>
        <time>2022-02-22T11:16:50.611Z</time>
      </trkpt>
      <trkpt lat="42.14713" lon="24.76322">
        <ele>161.721137</ele>
        <time>2022-02-22T11:16:57.648Z</time>
      </trkpt>
      <trkpt lat="42.14711" lon="24.76309">
        <ele>161.865641</ele>
        <time>2022-02-22T11:17:04.118Z</time>
      </trkpt>
      <trkpt lat="42.1471" lon="24.76295">
        <ele>162.028099</ele>
        <time>2022-02-22T11:17:07.135Z</time>
      </trkpt>
      <trkpt lat="42.14707" lon="24.76285">
        <ele>162.153345</ele>
        <time>2022-02-22T11:17:09.773Z</time>
      </trkpt>
      <trkpt lat="42.147" lon="24.76285">
        <ele>162.249893</ele>
        <time>2022-02-22T11:17:11.826Z</time>
      </trkpt>
      <trkpt lat="42.14698" lon="24.76273">
        <ele>162.389247</ele>
        <time>2022-02-22T11:17:15.324Z</time>
      </trkpt>
      <trkpt lat="42.14656" lon="24.76049">
        <ele>164.983067</ele>
        <time>2022-02-22T11:18:15.015Z</time>
      </trkpt>
      <trkpt lat="42.14653" lon="24.76035">
        <ele>165.135813</ele>
        <time>2022-02-22T11:18:18.952Z</time>
      </trkpt>
      <trkpt lat="42.1462" lon="24.75859">
        <ele>167.00435</ele>
        <time>2022-02-22T11:19:03.630Z</time>
      </trkpt>
      <trkpt lat="42.14619" lon="24.75852">
        <ele>167.022638</ele>
        <time>2022-02-22T11:19:05.485Z</time>
      </trkpt>
      <trkpt lat="42.14615" lon="24.7584">
        <ele>167.053443</ele>
        <time>2022-02-22T11:19:08.221Z</time>
      </trkpt>
      <trkpt lat="42.14594" lon="24.75778">
        <ele>167.222918</ele>
        <time>2022-02-22T11:19:23.198Z</time>
      </trkpt>
      <trkpt lat="42.14492" lon="24.75473">
        <ele>167.633701</ele>
        <time>2022-02-22T11:20:29.440Z</time>
      </trkpt>
      <trkpt lat="42.14487" lon="24.75457">
        <ele>167.636914</ele>
        <time>2022-02-22T11:20:32.834Z</time>
      </trkpt>
      <trkpt lat="42.14485" lon="24.75447">
        <ele>167.638761</ele>
        <time>2022-02-22T11:20:35.451Z</time>
      </trkpt>
      <trkpt lat="42.1448" lon="24.75448">
        <ele>167.640091</ele>
        <time>2022-02-22T11:20:36.968Z</time>
      </trkpt>
      <trkpt lat="42.14471" lon="24.7545">
        <ele>167.642486</ele>
        <time>2022-02-22T11:20:39.552Z</time>
      </trkpt>
      <trkpt lat="42.14463" lon="24.75451">
        <ele>167.644362</ele>
        <time>2022-02-22T11:20:41.530Z</time>
      </trkpt>
      <trkpt lat="42.14456" lon="24.75454">
        <ele>167.646525</ele>
        <time>2022-02-22T11:20:43.580Z</time>
      </trkpt>
      <trkpt lat="42.14432" lon="24.75461">
        <ele>167.653919</ele>
        <time>2022-02-22T11:20:50.358Z</time>
      </trkpt>
      <trkpt lat="42.14417" lon="24.75467">
        <ele>167.658443</ele>
        <time>2022-02-22T11:20:54.396Z</time>
      </trkpt>
      <trkpt lat="42.14413" lon="24.75471">
        <ele>167.659952</ele>
        <time>2022-02-22T11:20:55.854Z</time>
      </trkpt>
      <trkpt lat="42.14407" lon="24.75473">
        <ele>167.661818</ele>
        <time>2022-02-22T11:20:57.593Z</time>
      </trkpt>
      <trkpt lat="42.14366" lon="24.75403">
        <ele>167.681648</ele>
        <time>2022-02-22T11:21:16.398Z</time>
      </trkpt>
      <trkpt lat="42.14339" lon="24.75401">
        <ele>167.689907</ele>
        <time>2022-02-22T11:21:24.113Z</time>
      </trkpt>
      <trkpt lat="42.1432" lon="24.75298">
        <ele>167.520272</ele>
        <time>2022-02-22T11:21:45.165Z</time>
      </trkpt>
      <trkpt lat="42.14304" lon="24.75308">
        <ele>167.45398</ele>
        <time>2022-02-22T11:21:49.851Z</time>
      </trkpt>
      <trkpt lat="42.14218" lon="24.75332">
        <ele>167.13264</ele>
        <time>2022-02-22T11:22:12.528Z</time>
      </trkpt>
      <trkpt lat="42.14217" lon="24.75332">
        <ele>167.128861</ele>
        <time>2022-02-22T11:22:12.799Z</time>
      </trkpt>
      <trkpt lat="42.14216" lon="24.75332">
        <ele>167.123995</ele>
        <time>2022-02-22T11:22:13.135Z</time>
      </trkpt>
      <trkpt lat="42.14182" lon="24.75341">
        <ele>166.97013</ele>
        <time>2022-02-22T11:22:22.097Z</time>
      </trkpt>
      <trkpt lat="42.14137" lon="24.75351">
        <ele>166.699698</ele>
        <time>2022-02-22T11:22:33.540Z</time>
      </trkpt>
      <trkpt lat="42.14114" lon="24.75355">
        <ele>166.559011</ele>
        <time>2022-02-22T11:22:39.429Z</time>
      </trkpt>
      <trkpt lat="42.14111" lon="24.7531">
        <ele>166.359741</ele>
        <time>2022-02-22T11:22:47.785Z</time>
      </trkpt>
      <trkpt lat="42.14014" lon="24.75261">
        <ele>165.792806</ele>
        <time>2022-02-22T11:23:14.057Z</time>
      </trkpt>
      <trkpt lat="42.1402" lon="24.75189">
        <ele>165.556471</ele>
        <time>2022-02-22T11:23:27.123Z</time>
      </trkpt>
      <trkpt lat="42.14019" lon="24.75175">
        <ele>165.50784</ele>
        <time>2022-02-22T11:23:29.834Z</time>
      </trkpt>
      <trkpt lat="42.1401" lon="24.75137">
        <ele>165.380562</ele>
        <time>2022-02-22T11:23:37.015Z</time>
      </trkpt>
      <trkpt lat="42.13947" lon="24.75046">
        <ele>165.127022</ele>
        <time>2022-02-22T11:24:01.169Z</time>
      </trkpt>
      <trkpt lat="42.13856" lon="24.74917">
        <ele>165.023698</ele>
        <time>2022-02-22T11:24:35.972Z</time>
      </trkpt>
      <trkpt lat="42.13816" lon="24.74859">
        <ele>165.09324</ele>
        <time>2022-02-22T11:24:51.902Z</time>
      </trkpt>
      <trkpt lat="42.13757" lon="24.74777">
        <ele>165.208458</ele>
        <time>2022-02-22T11:25:15.020Z</time>
      </trkpt>
      <trkpt lat="42.13662" lon="24.7464">
        <ele>165.709862</ele>
        <time>2022-02-22T11:25:54.163Z</time>
      </trkpt>
      <trkpt lat="42.13606" lon="24.74561">
        <ele>166.080029</ele>
        <time>2022-02-22T11:26:18.653Z</time>
      </trkpt>
      <trkpt lat="42.13568" lon="24.74508">
        <ele>166.036615</ele>
        <time>2022-02-22T11:26:34.318Z</time>
      </trkpt>
      <trkpt lat="42.13558" lon="24.74493">
        <ele>166.023311</ele>
        <time>2022-02-22T11:26:38.251Z</time>
      </trkpt>
      <trkpt lat="42.13537" lon="24.74464">
        <ele>165.995706</ele>
        <time>2022-02-22T11:26:45.985Z</time>
      </trkpt>
      <trkpt lat="42.13536" lon="24.74403">
        <ele>165.953781</ele>
        <time>2022-02-22T11:26:57.225Z</time>
      </trkpt>
      <trkpt lat="42.13535" lon="24.74348">
        <ele>165.896775</ele>
        <time>2022-02-22T11:27:07.084Z</time>
      </trkpt>
      <trkpt lat="42.1353" lon="24.74267">
        <ele>165.570934</ele>
        <time>2022-02-22T11:27:22.211Z</time>
      </trkpt>
      <trkpt lat="42.1353" lon="24.74252">
        <ele>165.509083</ele>
        <time>2022-02-22T11:27:24.986Z</time>
      </trkpt>
      <trkpt lat="42.13517" lon="24.74186">
        <ele>165.23377</ele>
        <time>2022-02-22T11:27:37.172Z</time>
      </trkpt>
      <trkpt lat="42.13503" lon="24.74189">
        <ele>165.156958</ele>
        <time>2022-02-22T11:27:40.593Z</time>
      </trkpt>
      <trkpt lat="42.13487" lon="24.74194">
        <ele>165.065571</ele>
        <time>2022-02-22T11:27:44.598Z</time>
      </trkpt>
      <trkpt lat="42.13485" lon="24.74184">
        <ele>165.025922</ele>
        <time>2022-02-22T11:27:47.033Z</time>
      </trkpt>
      <trkpt lat="42.13466" lon="24.74082">
        <ele>164.837696</ele>
        <time>2022-02-22T11:28:13.188Z</time>
      </trkpt>
      <trkpt lat="42.13466" lon="24.74082">
        <ele>164.837696</ele>
        <time>2022-02-22T11:28:13.193Z</time>
      </trkpt>
      <trkpt lat="42.13477" lon="24.74077">
        <ele>164.81669</ele>
        <time>2022-02-22T11:28:17.512Z</time>
      </trkpt>
      <trkpt lat="42.1348" lon="24.74075">
        <ele>164.811407</ele>
        <time>2022-02-22T11:28:18.639Z</time>
      </trkpt>
      <trkpt lat="42.13493" lon="24.74141">
        <ele>164.725465</ele>
        <time>2022-02-22T11:28:31.974Z</time>
      </trkpt>
      <trkpt lat="42.13497" lon="24.74161">
        <ele>164.698369</ele>
        <time>2022-02-22T11:28:36.134Z</time>
      </trkpt>
      <trkpt lat="42.13503" lon="24.74189">
        <ele>164.66191</ele>
        <time>2022-02-22T11:28:41.753Z</time>
      </trkpt>
      <trkpt lat="42.13514" lon="24.74236">
        <ele>164.67087</ele>
        <time>2022-02-22T11:28:51.557Z</time>
      </trkpt>
      <trkpt lat="42.1352" lon="24.74247">
        <ele>164.684656</ele>
        <time>2022-02-22T11:28:54.105Z</time>
      </trkpt>
      <trkpt lat="42.13525" lon="24.74252">
        <ele>164.694252</ele>
        <time>2022-02-22T11:28:55.788Z</time>
      </trkpt>
      <trkpt lat="42.1353" lon="24.74252">
        <ele>164.70111</ele>
        <time>2022-02-22T11:28:57.097Z</time>
      </trkpt>
      <trkpt lat="42.13517" lon="24.74186">
        <ele>164.77509</ele>
        <time>2022-02-22T11:29:10.894Z</time>
      </trkpt>
      <trkpt lat="42.13511" lon="24.7416">
        <ele>164.80451</ele>
        <time>2022-02-22T11:29:16.572Z</time>
      </trkpt>
      <trkpt lat="42.13505" lon="24.7413">
        <ele>164.837435</ele>
        <time>2022-02-22T11:29:22.956Z</time>
      </trkpt>
      <trkpt lat="42.13491" lon="24.74066">
        <ele>164.901176</ele>
        <time>2022-02-22T11:29:37.140Z</time>
      </trkpt>
      <trkpt lat="42.13465" lon="24.73921">
        <ele>164.928444</ele>
        <time>2022-02-22T11:30:06.792Z</time>
      </trkpt>
      <trkpt lat="42.13473" lon="24.73908">
        <ele>164.9316</ele>
        <time>2022-02-22T11:30:10.403Z</time>
      </trkpt>
      <trkpt lat="42.1347" lon="24.73891">
        <ele>164.934701</ele>
        <time>2022-02-22T11:30:13.775Z</time>
      </trkpt>
      <trkpt lat="42.13448" lon="24.73775">
        <ele>164.845334</ele>
        <time>2022-02-22T11:30:36.856Z</time>
      </trkpt>
      <trkpt lat="42.13411" lon="24.73574">
        <ele>164.627026</ele>
        <time>2022-02-22T11:31:16.310Z</time>
      </trkpt>
      <trkpt lat="42.13408" lon="24.73562">
        <ele>164.635199</ele>
        <time>2022-02-22T11:31:18.652Z</time>
      </trkpt>
      <trkpt lat="42.13407" lon="24.73555">
        <ele>164.639793</ele>
        <time>2022-02-22T11:31:20.198Z</time>
      </trkpt>
      <trkpt lat="42.13399" lon="24.73537">
        <ele>164.65355</ele>
        <time>2022-02-22T11:31:24.213Z</time>
      </trkpt>
      <trkpt lat="42.13388" lon="24.73471">
        <ele>164.699018</ele>
        <time>2022-02-22T11:31:37.901Z</time>
      </trkpt>
      <trkpt lat="42.13387" lon="24.73464">
        <ele>164.703462</ele>
        <time>2022-02-22T11:31:39.382Z</time>
      </trkpt>
      <trkpt lat="42.13386" lon="24.73454">
        <ele>164.710529</ele>
        <time>2022-02-22T11:31:41.552Z</time>
      </trkpt>
      <trkpt lat="42.13384" lon="24.73434">
        <ele>164.723793</ele>
        <time>2022-02-22T11:31:45.678Z</time>
      </trkpt>
      <trkpt lat="42.13382" lon="24.73431">
        <ele>164.726099</ele>
        <time>2022-02-22T11:31:46.296Z</time>
      </trkpt>
      <trkpt lat="42.13381" lon="24.73429">
        <ele>164.728189</ele>
        <time>2022-02-22T11:31:46.952Z</time>
      </trkpt>
      <trkpt lat="42.13379" lon="24.73418">
        <ele>164.735486</ele>
        <time>2022-02-22T11:31:49.284Z</time>
      </trkpt>
      <trkpt lat="42.1336" lon="24.73308">
        <ele>164.857932</ele>
        <time>2022-02-22T11:32:12.546Z</time>
      </trkpt>
      <trkpt lat="42.13363" lon="24.73296">
        <ele>164.874025</ele>
        <time>2022-02-22T11:32:15.084Z</time>
      </trkpt>
      <trkpt lat="42.13363" lon="24.73274">
        <ele>164.904428</ele>
        <time>2022-02-22T11:32:19.476Z</time>
      </trkpt>
      <trkpt lat="42.1335" lon="24.73147">
        <ele>165.077538</ele>
        <time>2022-02-22T11:32:45.772Z</time>
      </trkpt>
      <trkpt lat="42.13341" lon="24.73139">
        <ele>165.097609</ele>
        <time>2022-02-22T11:32:48.744Z</time>
      </trkpt>
      <trkpt lat="42.13342" lon="24.73114">
        <ele>165.132571</ele>
        <time>2022-02-22T11:32:53.708Z</time>
      </trkpt>
      <trkpt lat="42.13343" lon="24.73081">
        <ele>165.181195</ele>
        <time>2022-02-22T11:33:00.732Z</time>
      </trkpt>
      <trkpt lat="42.13344" lon="24.7307">
        <ele>165.195915</ele>
        <time>2022-02-22T11:33:02.736Z</time>
      </trkpt>
      <trkpt lat="42.13345" lon="24.73054">
        <ele>165.219863</ele>
        <time>2022-02-22T11:33:06.221Z</time>
      </trkpt>
      <trkpt lat="42.13345" lon="24.73051">
        <ele>165.223604</ele>
        <time>2022-02-22T11:33:06.736Z</time>
      </trkpt>
      <trkpt lat="42.13346" lon="24.73016">
        <ele>165.274535</ele>
        <time>2022-02-22T11:33:13.797Z</time>
      </trkpt>
      <trkpt lat="42.13346" lon="24.73013">
        <ele>165.279137</ele>
        <time>2022-02-22T11:33:14.620Z</time>
      </trkpt>
      <trkpt lat="42.13348" lon="24.72984">
        <ele>165.320193</ele>
        <time>2022-02-22T11:33:20.308Z</time>
      </trkpt>
      <trkpt lat="42.13349" lon="24.72951">
        <ele>165.368506</ele>
        <time>2022-02-22T11:33:27.091Z</time>
      </trkpt>
      <trkpt lat="42.13337" lon="24.72782">
        <ele>165.888026</ele>
        <time>2022-02-22T11:34:02.614Z</time>
      </trkpt>
      <trkpt lat="42.13348" lon="24.72734">
        <ele>166.078817</ele>
        <time>2022-02-22T11:34:13.708Z</time>
      </trkpt>
      <trkpt lat="42.1335" lon="24.72731">
        <ele>166.094261</ele>
        <time>2022-02-22T11:34:14.732Z</time>
      </trkpt>
      <trkpt lat="42.13362" lon="24.72709">
        <ele>166.198749</ele>
        <time>2022-02-22T11:34:20.870Z</time>
      </trkpt>
      <trkpt lat="42.13388" lon="24.72679">
        <ele>166.382046</ele>
        <time>2022-02-22T11:34:31.125Z</time>
      </trkpt>
      <trkpt lat="42.13428" lon="24.72645">
        <ele>166.767912</ele>
        <time>2022-02-22T11:34:45.308Z</time>
      </trkpt>
      <trkpt lat="42.13431" lon="24.7264">
        <ele>166.80611</ele>
        <time>2022-02-22T11:34:46.825Z</time>
      </trkpt>
      <trkpt lat="42.13443" lon="24.7263">
        <ele>166.920526</ele>
        <time>2022-02-22T11:34:51.273Z</time>
      </trkpt>
      <trkpt lat="42.13457" lon="24.72617">
        <ele>167.060114</ele>
        <time>2022-02-22T11:34:56.315Z</time>
      </trkpt>
      <trkpt lat="42.13499" lon="24.72597">
        <ele>167.423938</ele>
        <time>2022-02-22T11:35:10.356Z</time>
      </trkpt>
      <trkpt lat="42.13554" lon="24.72584">
        <ele>167.864394</ele>
        <time>2022-02-22T11:35:27.135Z</time>
      </trkpt>
      <trkpt lat="42.13601" lon="24.72583">
        <ele>168.134491</ele>
        <time>2022-02-22T11:35:41.432Z</time>
      </trkpt>
      <trkpt lat="42.13608" lon="24.72584">
        <ele>168.176935</ele>
        <time>2022-02-22T11:35:43.798Z</time>
      </trkpt>
      <trkpt lat="42.13622" lon="24.72585">
        <ele>168.2572</ele>
        <time>2022-02-22T11:35:47.871Z</time>
      </trkpt>
      <trkpt lat="42.13623" lon="24.72572">
        <ele>168.312176</ele>
        <time>2022-02-22T11:35:50.746Z</time>
      </trkpt>
      <trkpt lat="42.13624" lon="24.72564">
        <ele>168.34701</ele>
        <time>2022-02-22T11:35:53.013Z</time>
      </trkpt>
      <trkpt lat="42.13624" lon="24.72554">
        <ele>168.38823</ele>
        <time>2022-02-22T11:35:58.010Z</time>
      </trkpt>
      <trkpt lat="42.13624" lon="24.72531">
        <ele>168.486693</ele>
        <time>2022-02-22T11:36:09.983Z</time>
      </trkpt>
      <trkpt lat="42.13623" lon="24.7252">
        <ele>168.530878</ele>
        <time>2022-02-22T11:36:15.338Z</time>
      </trkpt>
      <trkpt lat="42.13645" lon="24.72524">
        <ele>168.656394</ele>
        <time>2022-02-22T11:36:21.760Z</time>
      </trkpt>
      <trkpt lat="42.13649" lon="24.72492">
        <ele>168.792814</ele>
        <time>2022-02-22T11:36:29.015Z</time>
      </trkpt>
      <trkpt lat="42.13648" lon="24.7247">
        <ele>168.859601</ele>
        <time>2022-02-22T11:36:33.807Z</time>
      </trkpt>
      <trkpt lat="42.13647" lon="24.72457">
        <ele>168.863267</ele>
        <time>2022-02-22T11:36:36.703Z</time>
      </trkpt>
      <trkpt lat="42.13645" lon="24.72412">
        <ele>168.875891</ele>
        <time>2022-02-22T11:36:46.292Z</time>
      </trkpt>
      <trkpt lat="42.1366" lon="24.72409">
        <ele>168.881672</ele>
        <time>2022-02-22T11:36:50.411Z</time>
      </trkpt>
      <trkpt lat="42.13657" lon="24.72364">
        <ele>168.894251</ele>
        <time>2022-02-22T11:36:59.688Z</time>
      </trkpt>
      <trkpt lat="42.13736" lon="24.72353">
        <ele>168.924433</ele>
        <time>2022-02-22T11:37:21.450Z</time>
      </trkpt>
      <trkpt lat="42.13737" lon="24.72327">
        <ele>168.897032</ele>
        <time>2022-02-22T11:37:26.662Z</time>
      </trkpt>
      <trkpt lat="42.13733" lon="24.72294">
        <ele>168.851555</ele>
        <time>2022-02-22T11:37:33.417Z</time>
      </trkpt>
      <trkpt lat="42.1373" lon="24.72265">
        <ele>168.812591</ele>
        <time>2022-02-22T11:37:39.188Z</time>
      </trkpt>
      <trkpt lat="42.13721" lon="24.72223">
        <ele>168.753876</ele>
        <time>2022-02-22T11:37:47.692Z</time>
      </trkpt>
      <trkpt lat="42.13706" lon="24.72179">
        <ele>168.689211</ele>
        <time>2022-02-22T11:37:57.119Z</time>
      </trkpt>
      <trkpt lat="42.13741" lon="24.72147">
        <ele>168.611399</ele>
        <time>2022-02-22T11:38:08.675Z</time>
      </trkpt>
      <trkpt lat="42.13727" lon="24.72115">
        <ele>168.608184</ele>
        <time>2022-02-22T11:38:16.400Z</time>
      </trkpt>
      <trkpt lat="42.13715" lon="24.72088">
        <ele>168.617353</ele>
        <time>2022-02-22T11:38:23.251Z</time>
      </trkpt>
      <trkpt lat="42.13687" lon="24.72025">
        <ele>168.638427</ele>
        <time>2022-02-22T11:38:39.165Z</time>
      </trkpt>
      <trkpt lat="42.1367" lon="24.71972">
        <ele>168.655302</ele>
        <time>2022-02-22T11:38:51.066Z</time>
      </trkpt>
      <trkpt lat="42.13664" lon="24.71955">
        <ele>168.660545</ele>
        <time>2022-02-22T11:38:54.593Z</time>
      </trkpt>
      <trkpt lat="42.13639" lon="24.71879">
        <ele>168.682712</ele>
        <time>2022-02-22T11:39:11.475Z</time>
      </trkpt>
      <trkpt lat="42.1362" lon="24.71801">
        <ele>168.703035</ele>
        <time>2022-02-22T11:39:28.530Z</time>
      </trkpt>
      <trkpt lat="42.13617" lon="24.71779">
        <ele>168.708613</ele>
        <time>2022-02-22T11:39:33.399Z</time>
      </trkpt>
      <trkpt lat="42.13613" lon="24.7175">
        <ele>168.715935</ele>
        <time>2022-02-22T11:39:39.613Z</time>
      </trkpt>
      <trkpt lat="42.13607" lon="24.71729">
        <ele>168.721646</ele>
        <time>2022-02-22T11:39:44.518Z</time>
      </trkpt>
      <trkpt lat="42.13601" lon="24.71707">
        <ele>168.72733</ele>
        <time>2022-02-22T11:39:49.184Z</time>
      </trkpt>
      <trkpt lat="42.13575" lon="24.7159">
        <ele>168.91481</ele>
        <time>2022-02-22T11:40:14.766Z</time>
      </trkpt>
      <trkpt lat="42.13551" lon="24.71588">
        <ele>168.969192</ele>
        <time>2022-02-22T11:40:26.062Z</time>
      </trkpt>
      <trkpt lat="42.13477" lon="24.71222">
        <ele>169.638432</ele>
        <time>2022-02-22T11:41:45.199Z</time>
      </trkpt>
      <trkpt lat="42.13467" lon="24.71173">
        <ele>169.620983</ele>
        <time>2022-02-22T11:41:55.013Z</time>
      </trkpt>
      <trkpt lat="42.13471" lon="24.7117">
        <ele>169.618837</ele>
        <time>2022-02-22T11:41:56.213Z</time>
      </trkpt>
      <trkpt lat="42.13479" lon="24.71164">
        <ele>169.614349</ele>
        <time>2022-02-22T11:41:58.868Z</time>
      </trkpt>
      <trkpt lat="42.13431" lon="24.71053">
        <ele>169.569673</ele>
        <time>2022-02-22T11:42:23.946Z</time>
      </trkpt>
      <trkpt lat="42.13429" lon="24.71048">
        <ele>169.567515</ele>
        <time>2022-02-22T11:42:25.088Z</time>
      </trkpt>
      <trkpt lat="42.13411" lon="24.7101">
        <ele>169.522993</ele>
        <time>2022-02-22T11:42:33.625Z</time>
      </trkpt>
      <trkpt lat="42.13375" lon="24.70928">
        <ele>169.427976</ele>
        <time>2022-02-22T11:42:51.829Z</time>
      </trkpt>
      <trkpt lat="42.13359" lon="24.70892">
        <ele>169.386244</ele>
        <time>2022-02-22T11:42:59.967Z</time>
      </trkpt>
      <trkpt lat="42.13344" lon="24.70861">
        <ele>169.349026</ele>
        <time>2022-02-22T11:43:07.266Z</time>
      </trkpt>
      <trkpt lat="42.13329" lon="24.70829">
        <ele>169.28947</ele>
        <time>2022-02-22T11:43:14.846Z</time>
      </trkpt>
      <trkpt lat="42.13314" lon="24.70798">
        <ele>169.196931</ele>
        <time>2022-02-22T11:43:21.874Z</time>
      </trkpt>
      <trkpt lat="42.13303" lon="24.70756">
        <ele>169.083627</ele>
        <time>2022-02-22T11:43:30.338Z</time>
      </trkpt>
      <trkpt lat="42.13292" lon="24.70643">
        <ele>168.7958</ele>
        <time>2022-02-22T11:43:51.652Z</time>
      </trkpt>
      <trkpt lat="42.1329" lon="24.70634">
        <ele>168.772215</ele>
        <time>2022-02-22T11:43:53.254Z</time>
      </trkpt>
      <trkpt lat="42.13267" lon="24.70456">
        <ele>168.395183</ele>
        <time>2022-02-22T11:44:25.959Z</time>
      </trkpt>
      <trkpt lat="42.13254" lon="24.70364">
        <ele>168.249714</ele>
        <time>2022-02-22T11:44:44.372Z</time>
      </trkpt>
      <trkpt lat="42.1325" lon="24.70334">
        <ele>168.365865</ele>
        <time>2022-02-22T11:44:50.948Z</time>
      </trkpt>
      <trkpt lat="42.13246" lon="24.70305">
        <ele>168.475991</ele>
        <time>2022-02-22T11:44:57.399Z</time>
      </trkpt>
      <trkpt lat="42.13244" lon="24.70292">
        <ele>168.526698</ele>
        <time>2022-02-22T11:45:00.391Z</time>
      </trkpt>
      <trkpt lat="42.13243" lon="24.7028">
        <ele>168.571935</ele>
        <time>2022-02-22T11:45:03.118Z</time>
      </trkpt>
      <trkpt lat="42.13238" lon="24.70244">
        <ele>168.712281</ele>
        <time>2022-02-22T11:45:11.446Z</time>
      </trkpt>
      <trkpt lat="42.13231" lon="24.70193">
        <ele>168.905111</ele>
        <time>2022-02-22T11:45:22.952Z</time>
      </trkpt>
      <trkpt lat="42.13218" lon="24.70108">
        <ele>169.049788</ele>
        <time>2022-02-22T11:45:41.927Z</time>
      </trkpt>
      <trkpt lat="42.13214" lon="24.7008">
        <ele>168.954051</ele>
        <time>2022-02-22T11:45:47.897Z</time>
      </trkpt>
      <trkpt lat="42.13199" lon="24.69977">
        <ele>168.59962</ele>
        <time>2022-02-22T11:46:07.645Z</time>
      </trkpt>
      <trkpt lat="42.13186" lon="24.69887">
        <ele>168.270258</ele>
        <time>2022-02-22T11:46:22.999Z</time>
      </trkpt>
      <trkpt lat="42.13174" lon="24.69801">
        <ele>167.755694</ele>
        <time>2022-02-22T11:46:37.398Z</time>
      </trkpt>
      <trkpt lat="42.13162" lon="24.69714">
        <ele>167.238674</ele>
        <time>2022-02-22T11:46:52.512Z</time>
      </trkpt>
      <trkpt lat="42.13161" lon="24.69702">
        <ele>167.164148</ele>
        <time>2022-02-22T11:46:54.662Z</time>
      </trkpt>
      <trkpt lat="42.13096" lon="24.69203">
        <ele>168.460367</ele>
        <time>2022-02-22T11:48:43.406Z</time>
      </trkpt>
      <trkpt lat="42.13092" lon="24.6917">
        <ele>168.597131</ele>
        <time>2022-02-22T11:48:50.819Z</time>
      </trkpt>
      <trkpt lat="42.13082" lon="24.69059">
        <ele>169.129194</ele>
        <time>2022-02-22T11:49:15.683Z</time>
      </trkpt>
      <trkpt lat="42.13098" lon="24.68949">
        <ele>169.662708</ele>
        <time>2022-02-22T11:49:41.628Z</time>
      </trkpt>
      <trkpt lat="42.13122" lon="24.68784">
        <ele>170.140812</ele>
        <time>2022-02-22T11:50:19.475Z</time>
      </trkpt>
      <trkpt lat="42.13136" lon="24.68685">
        <ele>170.315659</ele>
        <time>2022-02-22T11:50:40.880Z</time>
      </trkpt>
      <trkpt lat="42.13181" lon="24.68399">
        <ele>169.357864</ele>
        <time>2022-02-22T11:51:36.414Z</time>
      </trkpt>
      <trkpt lat="42.13189" lon="24.68351">
        <ele>169.150095</ele>
        <time>2022-02-22T11:51:45.284Z</time>
      </trkpt>
      <trkpt lat="42.13201" lon="24.68245">
        <ele>168.70075</ele>
        <time>2022-02-22T11:52:04.664Z</time>
      </trkpt>
      <trkpt lat="42.13203" lon="24.68215">
        <ele>168.615395</ele>
        <time>2022-02-22T11:52:10.075Z</time>
      </trkpt>
      <trkpt lat="42.1321" lon="24.68132">
        <ele>168.580959</ele>
        <time>2022-02-22T11:52:25.581Z</time>
      </trkpt>
      <trkpt lat="42.13214" lon="24.6805">
        <ele>168.547039</ele>
        <time>2022-02-22T11:52:42.088Z</time>
      </trkpt>
      <trkpt lat="42.13214" lon="24.68044">
        <ele>168.544557</ele>
        <time>2022-02-22T11:52:43.387Z</time>
      </trkpt>
      <trkpt lat="42.13242" lon="24.67739">
        <ele>169.311588</ele>
        <time>2022-02-22T11:53:48.641Z</time>
      </trkpt>
      <trkpt lat="42.13249" lon="24.67631">
        <ele>169.631911</ele>
        <time>2022-02-22T11:54:11.994Z</time>
      </trkpt>
      <trkpt lat="42.1325" lon="24.67617">
        <ele>169.674851</ele>
        <time>2022-02-22T11:54:15.178Z</time>
      </trkpt>
      <trkpt lat="42.13252" lon="24.67595">
        <ele>169.739665</ele>
        <time>2022-02-22T11:54:20.050Z</time>
      </trkpt>
      <trkpt lat="42.13253" lon="24.67573">
        <ele>169.806792</ele>
        <time>2022-02-22T11:54:25.068Z</time>
      </trkpt>
      <trkpt lat="42.13261" lon="24.67475">
        <ele>169.978428</ele>
        <time>2022-02-22T11:54:45.183Z</time>
      </trkpt>
      <trkpt lat="42.13267" lon="24.67378">
        <ele>169.844373</ele>
        <time>2022-02-22T11:55:04.020Z</time>
      </trkpt>
      <trkpt lat="42.13274" lon="24.67297">
        <ele>169.732771</ele>
        <time>2022-02-22T11:55:19.254Z</time>
      </trkpt>
      <trkpt lat="42.13279" lon="24.67227">
        <ele>169.573504</ele>
        <time>2022-02-22T11:55:32.274Z</time>
      </trkpt>
      <trkpt lat="42.1328" lon="24.67214">
        <ele>169.531557</ele>
        <time>2022-02-22T11:55:34.709Z</time>
      </trkpt>
      <trkpt lat="42.13282" lon="24.67176">
        <ele>169.410944</ele>
        <time>2022-02-22T11:55:41.770Z</time>
      </trkpt>
      <trkpt lat="42.13313" lon="24.6673">
        <ele>168.419214</ele>
        <time>2022-02-22T11:57:09.243Z</time>
      </trkpt>
      <trkpt lat="42.13377" lon="24.65871">
        <ele>169.415862</ele>
        <time>2022-02-22T12:00:13.693Z</time>
      </trkpt>
      <trkpt lat="42.13385" lon="24.65812">
        <ele>169.476817</ele>
        <time>2022-02-22T12:00:26.071Z</time>
      </trkpt>
      <trkpt lat="42.1342" lon="24.65538">
        <ele>169.500945</ele>
        <time>2022-02-22T12:01:22.700Z</time>
      </trkpt>
      <trkpt lat="42.13439" lon="24.65395">
        <ele>169.748866</ele>
        <time>2022-02-22T12:01:53.827Z</time>
      </trkpt>
      <trkpt lat="42.13461" lon="24.65273">
        <ele>170.041959</ele>
        <time>2022-02-22T12:02:21.819Z</time>
      </trkpt>
      <trkpt lat="42.13526" lon="24.64978">
        <ele>170.625665</ele>
        <time>2022-02-22T12:03:29.062Z</time>
      </trkpt>
      <trkpt lat="42.13564" lon="24.6478">
        <ele>170.536904</ele>
        <time>2022-02-22T12:04:09.762Z</time>
      </trkpt>
      <trkpt lat="42.13589" lon="24.64573">
        <ele>170.322503</ele>
        <time>2022-02-22T12:04:51.516Z</time>
      </trkpt>
      <trkpt lat="42.1359" lon="24.64459">
        <ele>170.359081</ele>
        <time>2022-02-22T12:05:15.258Z</time>
      </trkpt>
      <trkpt lat="42.1354" lon="24.63509">
        <ele>171.415518</ele>
        <time>2022-02-22T12:08:37.186Z</time>
      </trkpt>
      <trkpt lat="42.13539" lon="24.63492">
        <ele>171.437588</ele>
        <time>2022-02-22T12:08:40.980Z</time>
      </trkpt>
      <trkpt lat="42.13511" lon="24.62998">
        <ele>171.780126</ele>
        <time>2022-02-22T12:10:24.614Z</time>
      </trkpt>
      <trkpt lat="42.13485" lon="24.62532">
        <ele>172.139798</ele>
        <time>2022-02-22T12:12:01.279Z</time>
      </trkpt>
      <trkpt lat="42.13484" lon="24.62506">
        <ele>172.182645</ele>
        <time>2022-02-22T12:12:07.061Z</time>
      </trkpt>
      <trkpt lat="42.13462" lon="24.62108">
        <ele>173.765394</ele>
        <time>2022-02-22T12:13:38.542Z</time>
      </trkpt>
      <trkpt lat="42.13455" lon="24.61971">
        <ele>174.244727</ele>
        <time>2022-02-22T12:14:08.738Z</time>
      </trkpt>
      <trkpt lat="42.13419" lon="24.61428">
        <ele>174.817097</ele>
        <time>2022-02-22T12:16:04.388Z</time>
      </trkpt>
      <trkpt lat="42.13409" lon="24.6132">
        <ele>174.814922</ele>
        <time>2022-02-22T12:16:26.389Z</time>
      </trkpt>
      <trkpt lat="42.13403" lon="24.61278">
        <ele>174.814074</ele>
        <time>2022-02-22T12:16:35.040Z</time>
      </trkpt>
      <trkpt lat="42.13401" lon="24.6127">
        <ele>174.813901</ele>
        <time>2022-02-22T12:16:36.816Z</time>
      </trkpt>
      <trkpt lat="42.13389" lon="24.61213">
        <ele>174.92309</ele>
        <time>2022-02-22T12:16:48.912Z</time>
      </trkpt>
      <trkpt lat="42.1338" lon="24.61183">
        <ele>175.018213</ele>
        <time>2022-02-22T12:16:55.510Z</time>
      </trkpt>
      <trkpt lat="42.13361" lon="24.61127">
        <ele>175.203216</ele>
        <time>2022-02-22T12:17:08.651Z</time>
      </trkpt>
      <trkpt lat="42.13304" lon="24.61002">
        <ele>175.997614</ele>
        <time>2022-02-22T12:17:41.717Z</time>
      </trkpt>
      <trkpt lat="42.13163" lon="24.60722">
        <ele>181.960238</ele>
        <time>2022-02-22T12:19:17.138Z</time>
      </trkpt>
      <trkpt lat="42.13109" lon="24.60607">
        <ele>185.363874</ele>
        <time>2022-02-22T12:20:07.767Z</time>
      </trkpt>
      <trkpt lat="42.13089" lon="24.60564">
        <ele>186.809664</ele>
        <time>2022-02-22T12:20:27.769Z</time>
      </trkpt>
      <trkpt lat="42.13004" lon="24.60382">
        <ele>191.650466</ele>
        <time>2022-02-22T12:21:38.603Z</time>
      </trkpt>
      <trkpt lat="42.12936" lon="24.602">
        <ele>192.238984</ele>
        <time>2022-02-22T12:22:19.168Z</time>
      </trkpt>
      <trkpt lat="42.12912" lon="24.601">
        <ele>190.651362</ele>
        <time>2022-02-22T12:22:36.433Z</time>
      </trkpt>
      <trkpt lat="42.12908" lon="24.60076">
        <ele>190.266493</ele>
        <time>2022-02-22T12:22:40.426Z</time>
      </trkpt>
      <trkpt lat="42.12875" lon="24.59895">
        <ele>187.113382</ele>
        <time>2022-02-22T12:23:09.634Z</time>
      </trkpt>
      <trkpt lat="42.12849" lon="24.59755">
        <ele>184.340094</ele>
        <time>2022-02-22T12:23:32.400Z</time>
      </trkpt>
      <trkpt lat="42.12823" lon="24.59618">
        <ele>181.960771</ele>
        <time>2022-02-22T12:23:54.833Z</time>
      </trkpt>
      <trkpt lat="42.12802" lon="24.59538">
        <ele>180.57357</ele>
        <time>2022-02-22T12:24:08.594Z</time>
      </trkpt>
      <trkpt lat="42.12761" lon="24.59414">
        <ele>179.177127</ele>
        <time>2022-02-22T12:24:31.408Z</time>
      </trkpt>
      <trkpt lat="42.12746" lon="24.59378">
        <ele>178.826613</ele>
        <time>2022-02-22T12:24:38.808Z</time>
      </trkpt>
      <trkpt lat="42.12708" lon="24.59273">
        <ele>178.015536</ele>
        <time>2022-02-22T12:25:00.997Z</time>
      </trkpt>
      <trkpt lat="42.12582" lon="24.58927">
        <ele>178.409641</ele>
        <time>2022-02-22T12:26:22.618Z</time>
      </trkpt>
      <trkpt lat="42.12411" lon="24.58458">
        <ele>179.937343</ele>
        <time>2022-02-22T12:28:18.606Z</time>
      </trkpt>
      <trkpt lat="42.1238" lon="24.58373">
        <ele>180.174313</ele>
        <time>2022-02-22T12:28:38.929Z</time>
      </trkpt>
      <trkpt lat="42.12378" lon="24.58369">
        <ele>180.185453</ele>
        <time>2022-02-22T12:28:40.022Z</time>
      </trkpt>
      <trkpt lat="42.12371" lon="24.58349">
        <ele>180.231728</ele>
        <time>2022-02-22T12:28:44.622Z</time>
      </trkpt>
      <trkpt lat="42.12259" lon="24.5804">
        <ele>181.061609</ele>
        <time>2022-02-22T12:29:59.237Z</time>
      </trkpt>
      <trkpt lat="42.12184" lon="24.57836">
        <ele>181.793966</ele>
        <time>2022-02-22T12:30:49.901Z</time>
      </trkpt>
      <trkpt lat="42.12087" lon="24.57569">
        <ele>182.783055</ele>
        <time>2022-02-22T12:31:56.260Z</time>
      </trkpt>
      <trkpt lat="42.11954" lon="24.572">
        <ele>183.817111</ele>
        <time>2022-02-22T12:33:26.382Z</time>
      </trkpt>
      <trkpt lat="42.11926" lon="24.57134">
        <ele>183.942849</ele>
        <time>2022-02-22T12:33:42.004Z</time>
      </trkpt>
      <trkpt lat="42.1201" lon="24.56932">
        <ele>184.039053</ele>
        <time>2022-02-22T12:34:29.601Z</time>
      </trkpt>
      <trkpt lat="42.12008" lon="24.56892">
        <ele>184.072517</ele>
        <time>2022-02-22T12:34:38.169Z</time>
      </trkpt>
      <trkpt lat="42.12003" lon="24.5677">
        <ele>184.444985</ele>
        <time>2022-02-22T12:35:05.372Z</time>
      </trkpt>
      <trkpt lat="42.11996" lon="24.56639">
        <ele>184.755684</ele>
        <time>2022-02-22T12:35:35.387Z</time>
      </trkpt>
      <trkpt lat="42.11987" lon="24.56492">
        <ele>184.536512</ele>
        <time>2022-02-22T12:36:04.485Z</time>
      </trkpt>
      <trkpt lat="42.11998" lon="24.56328">
        <ele>184.210381</ele>
        <time>2022-02-22T12:36:35.474Z</time>
      </trkpt>
      <trkpt lat="42.1201" lon="24.56155">
        <ele>183.878504</ele>
        <time>2022-02-22T12:37:09.966Z</time>
      </trkpt>
      <trkpt lat="42.11887" lon="24.56094">
        <ele>184.199</ele>
        <time>2022-02-22T12:37:49.212Z</time>
      </trkpt>
      <trkpt lat="42.1189" lon="24.56054">
        <ele>184.27197</ele>
        <time>2022-02-22T12:37:57.879Z</time>
      </trkpt>
      <trkpt lat="42.11892" lon="24.56017">
        <ele>184.223298</ele>
        <time>2022-02-22T12:38:05.521Z</time>
      </trkpt>
      <trkpt lat="42.11896" lon="24.55945">
        <ele>184.090568</ele>
        <time>2022-02-22T12:38:20.267Z</time>
      </trkpt>
      <trkpt lat="42.11912" lon="24.55842">
        <ele>183.897404</ele>
        <time>2022-02-22T12:38:40.819Z</time>
      </trkpt>
      <trkpt lat="42.11921" lon="24.558">
        <ele>183.78558</ele>
        <time>2022-02-22T12:38:49.080Z</time>
      </trkpt>
      <trkpt lat="42.11946" lon="24.5568">
        <ele>183.164257</ele>
        <time>2022-02-22T12:39:11.625Z</time>
      </trkpt>
      <trkpt lat="42.11953" lon="24.55645">
        <ele>182.982786</ele>
        <time>2022-02-22T12:39:18.271Z</time>
      </trkpt>
      <trkpt lat="42.1198" lon="24.55513">
        <ele>182.633826</ele>
        <time>2022-02-22T12:39:44.976Z</time>
      </trkpt>
      <trkpt lat="42.12" lon="24.55407">
        <ele>182.651351</ele>
        <time>2022-02-22T12:40:07.218Z</time>
      </trkpt>
      <trkpt lat="42.12008" lon="24.55371">
        <ele>182.657332</ele>
        <time>2022-02-22T12:40:15.262Z</time>
      </trkpt>
      <trkpt lat="42.1201" lon="24.55327">
        <ele>182.722271</ele>
        <time>2022-02-22T12:40:25.141Z</time>
      </trkpt>
      <trkpt lat="42.12004" lon="24.55283">
        <ele>182.920553</ele>
        <time>2022-02-22T12:40:35.799Z</time>
      </trkpt>
      <trkpt lat="42.11993" lon="24.55237">
        <ele>183.135137</ele>
        <time>2022-02-22T12:40:47.307Z</time>
      </trkpt>
      <trkpt lat="42.12016" lon="24.55227">
        <ele>183.278748</ele>
        <time>2022-02-22T12:40:54.599Z</time>
      </trkpt>
      <trkpt lat="42.12072" lon="24.5523">
        <ele>183.612836</ele>
        <time>2022-02-22T12:41:10.936Z</time>
      </trkpt>
      <trkpt lat="42.12101" lon="24.55225">
        <ele>183.764865</ele>
        <time>2022-02-22T12:41:19.294Z</time>
      </trkpt>
      <trkpt lat="42.12122" lon="24.5521">
        <ele>183.845093</ele>
        <time>2022-02-22T12:41:25.955Z</time>
      </trkpt>
      <trkpt lat="42.12167" lon="24.55155">
        <ele>184.053271</ele>
        <time>2022-02-22T12:41:43.027Z</time>
      </trkpt>
      <trkpt lat="42.12514" lon="24.54732">
        <ele>185.84912</ele>
        <time>2022-02-22T12:43:57.012Z</time>
      </trkpt>
      <trkpt lat="42.12625" lon="24.54598">
        <ele>186.228776</ele>
        <time>2022-02-22T12:44:38.530Z</time>
      </trkpt>
      <trkpt lat="42.1276" lon="24.54432">
        <ele>186.336938</ele>
        <time>2022-02-22T12:45:27.295Z</time>
      </trkpt>
      <trkpt lat="42.12813" lon="24.54368">
        <ele>186.493107</ele>
        <time>2022-02-22T12:45:46.781Z</time>
      </trkpt>
      <trkpt lat="42.12833" lon="24.54343">
        <ele>186.558136</ele>
        <time>2022-02-22T12:45:54.492Z</time>
      </trkpt>
      <trkpt lat="42.12855" lon="24.54323">
        <ele>186.620728</ele>
        <time>2022-02-22T12:46:01.968Z</time>
      </trkpt>
      <trkpt lat="42.12858" lon="24.54327">
        <ele>186.629309</ele>
        <time>2022-02-22T12:46:02.989Z</time>
      </trkpt>
      <trkpt lat="42.12861" lon="24.54329">
        <ele>186.63783</ele>
        <time>2022-02-22T12:46:04.005Z</time>
      </trkpt>
      <trkpt lat="42.12864" lon="24.5433">
        <ele>186.6465</ele>
        <time>2022-02-22T12:46:05.037Z</time>
      </trkpt>
      <trkpt lat="42.12874" lon="24.54324">
        <ele>186.671341</ele>
        <time>2022-02-22T12:46:07.983Z</time>
      </trkpt>
      <trkpt lat="42.12875" lon="24.54319">
        <ele>186.679972</ele>
        <time>2022-02-22T12:46:09.050Z</time>
      </trkpt>
      <trkpt lat="42.12876" lon="24.54315">
        <ele>186.687381</ele>
        <time>2022-02-22T12:46:09.966Z</time>
      </trkpt>
      <trkpt lat="42.12874" lon="24.54307">
        <ele>186.702316</ele>
        <time>2022-02-22T12:46:11.783Z</time>
      </trkpt>
      <trkpt lat="42.12872" lon="24.54304">
        <ele>186.709823</ele>
        <time>2022-02-22T12:46:12.691Z</time>
      </trkpt>
      <trkpt lat="42.1289" lon="24.54283">
        <ele>186.76677</ele>
        <time>2022-02-22T12:46:19.804Z</time>
      </trkpt>
      <trkpt lat="42.12929" lon="24.54243">
        <ele>186.900081</ele>
        <time>2022-02-22T12:46:34.168Z</time>
      </trkpt>
      <trkpt lat="42.12987" lon="24.54185">
        <ele>187.095892</ele>
        <time>2022-02-22T12:46:55.026Z</time>
      </trkpt>
      <trkpt lat="42.13054" lon="24.54118">
        <ele>187.320895</ele>
        <time>2022-02-22T12:47:19.393Z</time>
      </trkpt>
      <trkpt lat="42.1314" lon="24.5403">
        <ele>187.607668</ele>
        <time>2022-02-22T12:47:50.957Z</time>
      </trkpt>
      <trkpt lat="42.13124" lon="24.5394">
        <ele>187.7299</ele>
        <time>2022-02-22T12:48:10.738Z</time>
      </trkpt>
      <trkpt lat="42.13065" lon="24.53678">
        <ele>187.726643</ele>
        <time>2022-02-22T12:49:06.858Z</time>
      </trkpt>
      <trkpt lat="42.13058" lon="24.53593">
        <ele>187.728664</ele>
        <time>2022-02-22T12:49:24.341Z</time>
      </trkpt>
      <trkpt lat="42.13053" lon="24.53504">
        <ele>187.730768</ele>
        <time>2022-02-22T12:49:42.772Z</time>
      </trkpt>
      <trkpt lat="42.13039" lon="24.53289">
        <ele>188.049304</ele>
        <time>2022-02-22T12:50:28.419Z</time>
      </trkpt>
      <trkpt lat="42.13041" lon="24.53129">
        <ele>188.4997</ele>
        <time>2022-02-22T12:51:04.368Z</time>
      </trkpt>
      <trkpt lat="42.13044" lon="24.52958">
        <ele>188.899045</ele>
        <time>2022-02-22T12:51:41.829Z</time>
      </trkpt>
      <trkpt lat="42.13059" lon="24.5283">
        <ele>188.983928</ele>
        <time>2022-02-22T12:52:09.270Z</time>
      </trkpt>
      <trkpt lat="42.13064" lon="24.52791">
        <ele>189.009442</ele>
        <time>2022-02-22T12:52:21.970Z</time>
      </trkpt>
      <trkpt lat="42.13094" lon="24.52722">
        <ele>188.861432</ele>
        <time>2022-02-22T12:52:47.384Z</time>
      </trkpt>
      <trkpt lat="42.13094" lon="24.52692">
        <ele>188.783531</ele>
        <time>2022-02-22T12:52:56.967Z</time>
      </trkpt>
      <trkpt lat="42.13099" lon="24.52669">
        <ele>188.722349</ele>
        <time>2022-02-22T12:53:04.473Z</time>
      </trkpt>
      <trkpt lat="42.13168" lon="24.52665">
        <ele>188.482151</ele>
        <time>2022-02-22T12:53:22.618Z</time>
      </trkpt>
      <trkpt lat="42.13261" lon="24.5266">
        <ele>188.132326</ele>
        <time>2022-02-22T12:53:46.936Z</time>
      </trkpt>
      <trkpt lat="42.13292" lon="24.52659">
        <ele>188.013647</ele>
        <time>2022-02-22T12:53:54.980Z</time>
      </trkpt>
      <trkpt lat="42.13425" lon="24.52652">
        <ele>187.546734</ele>
        <time>2022-02-22T12:54:30.125Z</time>
      </trkpt>
      <trkpt lat="42.13475" lon="24.52649">
        <ele>187.398326</ele>
        <time>2022-02-22T12:54:43.313Z</time>
      </trkpt>
      <trkpt lat="42.1348" lon="24.52779">
        <ele>187.127945</ele>
        <time>2022-02-22T12:55:08.789Z</time>
      </trkpt>
      <trkpt lat="42.1332" lon="24.5279">
        <ele>186.794011</ele>
        <time>2022-02-22T12:55:51.616Z</time>
      </trkpt>
      <trkpt lat="42.13303" lon="24.52703">
        <ele>186.986705</ele>
        <time>2022-02-22T12:56:10.819Z</time>
      </trkpt>
      <trkpt lat="42.133" lon="24.52668">
        <ele>187.062802</ele>
        <time>2022-02-22T12:56:18.515Z</time>
      </trkpt>
      <trkpt lat="42.13291" lon="24.52518">
        <ele>187.34557</ele>
        <time>2022-02-22T12:56:51.979Z</time>
      </trkpt>
      <trkpt lat="42.13218" lon="24.50902">
        <ele>188.550253</ele>
        <time>2022-02-22T13:02:31.918Z</time>
      </trkpt>
      <trkpt lat="42.13218" lon="24.50865">
        <ele>188.549456</ele>
        <time>2022-02-22T13:02:39.217Z</time>
      </trkpt>
      <trkpt lat="42.13234" lon="24.50743">
        <ele>187.930778</ele>
        <time>2022-02-22T13:03:03.089Z</time>
      </trkpt>
      <trkpt lat="42.13324" lon="24.50085">
        <ele>184.641963</ele>
        <time>2022-02-22T13:05:05.552Z</time>
      </trkpt>
      <trkpt lat="42.13346" lon="24.49925">
        <ele>184.962836</ele>
        <time>2022-02-22T13:05:42.203Z</time>
      </trkpt>
      <trkpt lat="42.13347" lon="24.49916">
        <ele>184.980763</ele>
        <time>2022-02-22T13:05:44.440Z</time>
      </trkpt>
      <trkpt lat="42.13351" lon="24.49882">
        <ele>185.147956</ele>
        <time>2022-02-22T13:05:52.875Z</time>
      </trkpt>
      <trkpt lat="42.13358" lon="24.49838">
        <ele>185.466159</ele>
        <time>2022-02-22T13:06:04.176Z</time>
      </trkpt>
      <trkpt lat="42.13368" lon="24.49798">
        <ele>185.758391</ele>
        <time>2022-02-22T13:06:14.534Z</time>
      </trkpt>
      <trkpt lat="42.13381" lon="24.49764">
        <ele>186.026073</ele>
        <time>2022-02-22T13:06:23.959Z</time>
      </trkpt>
      <trkpt lat="42.13386" lon="24.49753">
        <ele>186.11233</ele>
        <time>2022-02-22T13:06:27.020Z</time>
      </trkpt>
      <trkpt lat="42.1347" lon="24.49584">
        <ele>187.050858</ele>
        <time>2022-02-22T13:07:14.042Z</time>
      </trkpt>
      <trkpt lat="42.13485" lon="24.4954">
        <ele>187.19367</ele>
        <time>2022-02-22T13:07:24.290Z</time>
      </trkpt>
      <trkpt lat="42.13517" lon="24.49399">
        <ele>187.541353</ele>
        <time>2022-02-22T13:07:55.369Z</time>
      </trkpt>
      <trkpt lat="42.13609" lon="24.48975">
        <ele>188.290419</ele>
        <time>2022-02-22T13:09:30.642Z</time>
      </trkpt>
      <trkpt lat="42.13654" lon="24.48774">
        <ele>188.249552</ele>
        <time>2022-02-22T13:10:13.589Z</time>
      </trkpt>
      <trkpt lat="42.13738" lon="24.48397">
        <ele>187.527032</ele>
        <time>2022-02-22T13:11:31.048Z</time>
      </trkpt>
      <trkpt lat="42.1388" lon="24.47791">
        <ele>186.494777</ele>
        <time>2022-02-22T13:13:37.941Z</time>
      </trkpt>
      <trkpt lat="42.13883" lon="24.47767">
        <ele>186.45517</ele>
        <time>2022-02-22T13:13:42.613Z</time>
      </trkpt>
      <trkpt lat="42.13886" lon="24.47743">
        <ele>186.414572</ele>
        <time>2022-02-22T13:13:47.213Z</time>
      </trkpt>
      <trkpt lat="42.13894" lon="24.47656">
        <ele>186.266616</ele>
        <time>2022-02-22T13:14:04.610Z</time>
      </trkpt>
      <trkpt lat="42.13897" lon="24.47551">
        <ele>186.29192</ele>
        <time>2022-02-22T13:14:25.777Z</time>
      </trkpt>
      <trkpt lat="42.13896" lon="24.47513">
        <ele>186.365574</ele>
        <time>2022-02-22T13:14:33.707Z</time>
      </trkpt>
      <trkpt lat="42.13895" lon="24.47494">
        <ele>186.4049</ele>
        <time>2022-02-22T13:14:38.145Z</time>
      </trkpt>
      <trkpt lat="42.1389" lon="24.47376">
        <ele>186.636889</ele>
        <time>2022-02-22T13:15:04.450Z</time>
      </trkpt>
      <trkpt lat="42.13869" lon="24.47199">
        <ele>187.097205</ele>
        <time>2022-02-22T13:15:44.556Z</time>
      </trkpt>
      <trkpt lat="42.13785" lon="24.47165">
        <ele>187.234471</ele>
        <time>2022-02-22T13:16:09.037Z</time>
      </trkpt>
      <trkpt lat="42.13768" lon="24.47019">
        <ele>187.012132</ele>
        <time>2022-02-22T13:16:37.849Z</time>
      </trkpt>
      <trkpt lat="42.13743" lon="24.46819">
        <ele>187.085284</ele>
        <time>2022-02-22T13:17:19.272Z</time>
      </trkpt>
      <trkpt lat="42.13744" lon="24.46648">
        <ele>187.398649</ele>
        <time>2022-02-22T13:17:56.930Z</time>
      </trkpt>
      <trkpt lat="42.13745" lon="24.46571">
        <ele>187.614428</ele>
        <time>2022-02-22T13:18:14.212Z</time>
      </trkpt>
      <trkpt lat="42.13745" lon="24.46536">
        <ele>187.712659</ele>
        <time>2022-02-22T13:18:22.112Z</time>
      </trkpt>
      <trkpt lat="42.13745" lon="24.46405">
        <ele>187.904335</ele>
        <time>2022-02-22T13:18:50.077Z</time>
      </trkpt>
      <trkpt lat="42.13783" lon="24.46299">
        <ele>187.972934</ele>
        <time>2022-02-22T13:19:14.100Z</time>
      </trkpt>
      <trkpt lat="42.13735" lon="24.46238">
        <ele>188.00211</ele>
        <time>2022-02-22T13:19:32.748Z</time>
      </trkpt>
      <trkpt lat="42.13615" lon="24.46084">
        <ele>188.026205</ele>
        <time>2022-02-22T13:20:18.879Z</time>
      </trkpt>
      <trkpt lat="42.13607" lon="24.46073">
        <ele>188.035529</ele>
        <time>2022-02-22T13:20:22.199Z</time>
      </trkpt>
      <trkpt lat="42.13499" lon="24.4589">
        <ele>188.152583</ele>
        <time>2022-02-22T13:21:11.109Z</time>
      </trkpt>
      <trkpt lat="42.13518" lon="24.45848">
        <ele>188.143631</ele>
        <time>2022-02-22T13:21:21.390Z</time>
      </trkpt>
      <trkpt lat="42.13516" lon="24.45841">
        <ele>188.142374</ele>
        <time>2022-02-22T13:21:22.890Z</time>
      </trkpt>
      <trkpt lat="42.13511" lon="24.45653">
        <ele>188.095582</ele>
        <time>2022-02-22T13:22:01.148Z</time>
      </trkpt>
      <trkpt lat="42.13503" lon="24.45385">
        <ele>188.134406</ele>
        <time>2022-02-22T13:22:55.697Z</time>
      </trkpt>
      <trkpt lat="42.13496" lon="24.45165">
        <ele>188.867931</ele>
        <time>2022-02-22T13:23:44.938Z</time>
      </trkpt>
      <trkpt lat="42.13495" lon="24.4508">
        <ele>189.44649</ele>
        <time>2022-02-22T13:24:05.038Z</time>
      </trkpt>
      <trkpt lat="42.13538" lon="24.44224">
        <ele>196.095465</ele>
        <time>2022-02-22T13:27:35.099Z</time>
      </trkpt>
      <trkpt lat="42.13538" lon="24.4394">
        <ele>197.711108</ele>
        <time>2022-02-22T13:28:40.474Z</time>
      </trkpt>
      <trkpt lat="42.13526" lon="24.43817">
        <ele>198.562638</ele>
        <time>2022-02-22T13:29:10.212Z</time>
      </trkpt>
      <trkpt lat="42.1356" lon="24.43264">
        <ele>203.251442</ele>
        <time>2022-02-22T13:31:28.097Z</time>
      </trkpt>
      <trkpt lat="42.1356" lon="24.43006">
        <ele>204.400869</ele>
        <time>2022-02-22T13:32:26.896Z</time>
      </trkpt>
      <trkpt lat="42.13567" lon="24.42899">
        <ele>204.578737</ele>
        <time>2022-02-22T13:32:49.852Z</time>
      </trkpt>
      <trkpt lat="42.13595" lon="24.42727">
        <ele>204.842906</ele>
        <time>2022-02-22T13:33:26.980Z</time>
      </trkpt>
      <trkpt lat="42.13619" lon="24.42604">
        <ele>204.990058</ele>
        <time>2022-02-22T13:33:53.798Z</time>
      </trkpt>
      <trkpt lat="42.13717" lon="24.42249">
        <ele>205.011262</ele>
        <time>2022-02-22T13:35:13.853Z</time>
      </trkpt>
      <trkpt lat="42.13841" lon="24.41843">
        <ele>202.599401</ele>
        <time>2022-02-22T13:36:34.809Z</time>
      </trkpt>
      <trkpt lat="42.13868" lon="24.41778">
        <ele>201.891736</ele>
        <time>2022-02-22T13:36:47.537Z</time>
      </trkpt>
      <trkpt lat="42.13913" lon="24.41697">
        <ele>200.923509</ele>
        <time>2022-02-22T13:37:04.933Z</time>
      </trkpt>
      <trkpt lat="42.13951" lon="24.41641">
        <ele>200.320542</ele>
        <time>2022-02-22T13:37:18.077Z</time>
      </trkpt>
      <trkpt lat="42.13956" lon="24.41634">
        <ele>200.251634</ele>
        <time>2022-02-22T13:37:19.727Z</time>
      </trkpt>
      <trkpt lat="42.14018" lon="24.41535">
        <ele>199.37104</ele>
        <time>2022-02-22T13:37:43.082Z</time>
      </trkpt>
      <trkpt lat="42.1411" lon="24.41326">
        <ele>198.067895</ele>
        <time>2022-02-22T13:38:30.333Z</time>
      </trkpt>
      <trkpt lat="42.14163" lon="24.41173">
        <ele>196.285086</ele>
        <time>2022-02-22T13:38:59.570Z</time>
      </trkpt>
      <trkpt lat="42.14165" lon="24.41167">
        <ele>196.191733</ele>
        <time>2022-02-22T13:39:00.652Z</time>
      </trkpt>
      <trkpt lat="42.1418" lon="24.41152">
        <ele>195.845406</ele>
        <time>2022-02-22T13:39:04.473Z</time>
      </trkpt>
      <trkpt lat="42.14195" lon="24.41139">
        <ele>195.515692</ele>
        <time>2022-02-22T13:39:08.133Z</time>
      </trkpt>
      <trkpt lat="42.14212" lon="24.41135">
        <ele>195.188149</ele>
        <time>2022-02-22T13:39:11.764Z</time>
      </trkpt>
      <trkpt lat="42.14233" lon="24.41133">
        <ele>194.80871</ele>
        <time>2022-02-22T13:39:15.961Z</time>
      </trkpt>
      <trkpt lat="42.14277" lon="24.41154">
        <ele>194.085516</ele>
        <time>2022-02-22T13:39:25.627Z</time>
      </trkpt>
      <trkpt lat="42.14327" lon="24.41186">
        <ele>193.368375</ele>
        <time>2022-02-22T13:39:36.881Z</time>
      </trkpt>
      <trkpt lat="42.14467" lon="24.4126">
        <ele>192.329658</ele>
        <time>2022-02-22T13:40:14.152Z</time>
      </trkpt>
      <trkpt lat="42.14475" lon="24.41263">
        <ele>192.367996</ele>
        <time>2022-02-22T13:40:16.868Z</time>
      </trkpt>
      <trkpt lat="42.14496" lon="24.41273">
        <ele>192.466552</ele>
        <time>2022-02-22T13:40:23.625Z</time>
      </trkpt>
      <trkpt lat="42.14581" lon="24.41312">
        <ele>192.871597</ele>
        <time>2022-02-22T13:40:51.676Z</time>
      </trkpt>
      <trkpt lat="42.1459" lon="24.4129">
        <ele>192.962444</ele>
        <time>2022-02-22T13:40:57.643Z</time>
      </trkpt>
      <trkpt lat="42.14623" lon="24.4123">
        <ele>193.24266</ele>
        <time>2022-02-22T13:41:15.442Z</time>
      </trkpt>
      <trkpt lat="42.14672" lon="24.41138">
        <ele>193.666636</ele>
        <time>2022-02-22T13:41:40.272Z</time>
      </trkpt>
      <trkpt lat="42.14787" lon="24.40921">
        <ele>193.677293</ele>
        <time>2022-02-22T13:42:34.355Z</time>
      </trkpt>
      <trkpt lat="42.14798" lon="24.40903">
        <ele>193.678504</ele>
        <time>2022-02-22T13:42:39.038Z</time>
      </trkpt>
      <trkpt lat="42.14808" lon="24.40891">
        <ele>193.697532</ele>
        <time>2022-02-22T13:42:42.693Z</time>
      </trkpt>
      <trkpt lat="42.1484" lon="24.40854">
        <ele>193.757567</ele>
        <time>2022-02-22T13:42:53.762Z</time>
      </trkpt>
      <trkpt lat="42.14914" lon="24.4078">
        <ele>193.888148</ele>
        <time>2022-02-22T13:43:19.110Z</time>
      </trkpt>
      <trkpt lat="42.14925" lon="24.40766">
        <ele>193.909521</ele>
        <time>2022-02-22T13:43:23.463Z</time>
      </trkpt>
      <trkpt lat="42.14929" lon="24.4076">
        <ele>193.917474</ele>
        <time>2022-02-22T13:43:25.137Z</time>
      </trkpt>
      <trkpt lat="42.14959" lon="24.40689">
        <ele>194.290035</ele>
        <time>2022-02-22T13:43:43.137Z</time>
      </trkpt>
      <trkpt lat="42.14969" lon="24.40669">
        <ele>194.40325</ele>
        <time>2022-02-22T13:43:48.588Z</time>
      </trkpt>
      <trkpt lat="42.14988" lon="24.40625">
        <ele>194.649979</ele>
        <time>2022-02-22T13:44:00.115Z</time>
      </trkpt>
      <trkpt lat="42.15009" lon="24.40573">
        <ele>194.937642</ele>
        <time>2022-02-22T13:44:13.665Z</time>
      </trkpt>
      <trkpt lat="42.15018" lon="24.40548">
        <ele>195.07229</ele>
        <time>2022-02-22T13:44:20.006Z</time>
      </trkpt>
      <trkpt lat="42.15186" lon="24.40142">
        <ele>195.950006</ele>
        <time>2022-02-22T13:45:56.162Z</time>
      </trkpt>
      <trkpt lat="42.15224" lon="24.40044">
        <ele>195.815633</ele>
        <time>2022-02-22T13:46:17.310Z</time>
      </trkpt>
      <trkpt lat="42.15291" lon="24.3987">
        <ele>195.431515</ele>
        <time>2022-02-22T13:46:53.966Z</time>
      </trkpt>
      <trkpt lat="42.1532" lon="24.39826">
        <ele>195.313638</ele>
        <time>2022-02-22T13:47:04.783Z</time>
      </trkpt>
      <trkpt lat="42.15459" lon="24.3965">
        <ele>194.953888</ele>
        <time>2022-02-22T13:47:54.028Z</time>
      </trkpt>
      <trkpt lat="42.15492" lon="24.39589">
        <ele>194.911067</ele>
        <time>2022-02-22T13:48:08.729Z</time>
      </trkpt>
      <trkpt lat="42.15786" lon="24.38978">
        <ele>195.696291</ele>
        <time>2022-02-22T13:50:37.173Z</time>
      </trkpt>
      <trkpt lat="42.16026" lon="24.38469">
        <ele>196.340651</ele>
        <time>2022-02-22T13:52:39.694Z</time>
      </trkpt>
      <trkpt lat="42.16065" lon="24.38384">
        <ele>196.386731</ele>
        <time>2022-02-22T13:52:59.288Z</time>
      </trkpt>
      <trkpt lat="42.16176" lon="24.3815">
        <ele>196.762757</ele>
        <time>2022-02-22T13:53:55.720Z</time>
      </trkpt>
      <trkpt lat="42.16204" lon="24.38088">
        <ele>196.913823</ele>
        <time>2022-02-22T13:54:11.911Z</time>
      </trkpt>
      <trkpt lat="42.16233" lon="24.3803">
        <ele>197.096043</ele>
        <time>2022-02-22T13:54:27.210Z</time>
      </trkpt>
      <trkpt lat="42.16265" lon="24.37973">
        <ele>197.279382</ele>
        <time>2022-02-22T13:54:43.083Z</time>
      </trkpt>
      <trkpt lat="42.16298" lon="24.37928">
        <ele>197.444577</ele>
        <time>2022-02-22T13:54:57.112Z</time>
      </trkpt>
      <trkpt lat="42.16346" lon="24.37877">
        <ele>197.582093</ele>
        <time>2022-02-22T13:55:14.578Z</time>
      </trkpt>
      <trkpt lat="42.1637" lon="24.37852">
        <ele>197.644778</ele>
        <time>2022-02-22T13:55:23.230Z</time>
      </trkpt>
      <trkpt lat="42.16385" lon="24.3784">
        <ele>197.680533</ele>
        <time>2022-02-22T13:55:28.154Z</time>
      </trkpt>
      <trkpt lat="42.16459" lon="24.37767">
        <ele>197.855912</ele>
        <time>2022-02-22T13:55:54.623Z</time>
      </trkpt>
      <trkpt lat="42.16785" lon="24.3754">
        <ele>198.139962</ele>
        <time>2022-02-22T13:57:37.675Z</time>
      </trkpt>
      <trkpt lat="42.16803" lon="24.37519">
        <ele>198.170929</ele>
        <time>2022-02-22T13:57:44.577Z</time>
      </trkpt>
      <trkpt lat="42.16821" lon="24.37481">
        <ele>198.213354</ele>
        <time>2022-02-22T13:57:54.005Z</time>
      </trkpt>
      <trkpt lat="42.16967" lon="24.37009">
        <ele>198.777858</ele>
        <time>2022-02-22T13:59:41.668Z</time>
      </trkpt>
      <trkpt lat="42.17308" lon="24.36056">
        <ele>201.184259</ele>
        <time>2022-02-22T14:03:31.468Z</time>
      </trkpt>
      <trkpt lat="42.17319" lon="24.36026">
        <ele>201.278302</ele>
        <time>2022-02-22T14:03:38.980Z</time>
      </trkpt>
      <trkpt lat="42.1734" lon="24.35976">
        <ele>201.460182</ele>
        <time>2022-02-22T14:03:51.775Z</time>
      </trkpt>
      <trkpt lat="42.17521" lon="24.35649">
        <ele>202.736154</ele>
        <time>2022-02-22T14:05:21.821Z</time>
      </trkpt>
      <trkpt lat="42.17539" lon="24.35631">
        <ele>202.830293</ele>
        <time>2022-02-22T14:05:28.511Z</time>
      </trkpt>
      <trkpt lat="42.17545" lon="24.35626">
        <ele>202.861122</ele>
        <time>2022-02-22T14:05:30.675Z</time>
      </trkpt>
      <trkpt lat="42.17584" lon="24.35586">
        <ele>203.072206</ele>
        <time>2022-02-22T14:05:45.485Z</time>
      </trkpt>
      <trkpt lat="42.17605" lon="24.35548">
        <ele>203.224485</ele>
        <time>2022-02-22T14:05:56.222Z</time>
      </trkpt>
      <trkpt lat="42.17664" lon="24.35363">
        <ele>203.606736</ele>
        <time>2022-02-22T14:06:40.262Z</time>
      </trkpt>
      <trkpt lat="42.17739" lon="24.35243">
        <ele>203.684938</ele>
        <time>2022-02-22T14:07:12.057Z</time>
      </trkpt>
      <trkpt lat="42.17777" lon="24.35194">
        <ele>203.645051</ele>
        <time>2022-02-22T14:07:25.919Z</time>
      </trkpt>
      <trkpt lat="42.17855" lon="24.35099">
        <ele>203.564192</ele>
        <time>2022-02-22T14:07:54.763Z</time>
      </trkpt>
      <trkpt lat="42.17967" lon="24.34981">
        <ele>203.769131</ele>
        <time>2022-02-22T14:08:35.686Z</time>
      </trkpt>
      <trkpt lat="42.18206" lon="24.34796">
        <ele>204.704259</ele>
        <time>2022-02-22T14:09:56.008Z</time>
      </trkpt>
      <trkpt lat="42.1823" lon="24.34784">
        <ele>204.87255</ele>
        <time>2022-02-22T14:10:03.913Z</time>
      </trkpt>
      <trkpt lat="42.1824" lon="24.34778">
        <ele>204.945482</ele>
        <time>2022-02-22T14:10:07.313Z</time>
      </trkpt>
      <trkpt lat="42.18249" lon="24.34771">
        <ele>205.015412</ele>
        <time>2022-02-22T14:10:10.695Z</time>
      </trkpt>
      <trkpt lat="42.18262" lon="24.34759">
        <ele>205.121988</ele>
        <time>2022-02-22T14:10:15.555Z</time>
      </trkpt>
      <trkpt lat="42.18269" lon="24.34752">
        <ele>205.176332</ele>
        <time>2022-02-22T14:10:18.058Z</time>
      </trkpt>
      <trkpt lat="42.18276" lon="24.34744">
        <ele>205.236771</ele>
        <time>2022-02-22T14:10:20.911Z</time>
      </trkpt>
      <trkpt lat="42.18291" lon="24.34731">
        <ele>205.356936</ele>
        <time>2022-02-22T14:10:26.501Z</time>
      </trkpt>
      <trkpt lat="42.18418" lon="24.34631">
        <ele>206.36616</ele>
        <time>2022-02-22T14:11:11.568Z</time>
      </trkpt>
      <trkpt lat="42.1849" lon="24.34573">
        <ele>206.946244</ele>
        <time>2022-02-22T14:11:35.891Z</time>
      </trkpt>
      <trkpt lat="42.18577" lon="24.34505">
        <ele>207.613567</ele>
        <time>2022-02-22T14:12:05.619Z</time>
      </trkpt>
      <trkpt lat="42.18587" lon="24.34498">
        <ele>207.688719</ele>
        <time>2022-02-22T14:12:08.987Z</time>
      </trkpt>
      <trkpt lat="42.18591" lon="24.34494">
        <ele>207.722678</ele>
        <time>2022-02-22T14:12:10.517Z</time>
      </trkpt>
      <trkpt lat="42.18658" lon="24.34442">
        <ele>208.201127</ele>
        <time>2022-02-22T14:12:34.260Z</time>
      </trkpt>
      <trkpt lat="42.18687" lon="24.34419">
        <ele>208.391951</ele>
        <time>2022-02-22T14:12:44.714Z</time>
      </trkpt>
      <trkpt lat="42.18705" lon="24.34415">
        <ele>208.490998</ele>
        <time>2022-02-22T14:12:49.735Z</time>
      </trkpt>
      <trkpt lat="42.18719" lon="24.34415">
        <ele>208.569618</ele>
        <time>2022-02-22T14:12:54.015Z</time>
      </trkpt>
      <trkpt lat="42.18725" lon="24.34416">
        <ele>208.60362</ele>
        <time>2022-02-22T14:12:55.794Z</time>
      </trkpt>
      <trkpt lat="42.18736" lon="24.34419">
        <ele>208.666746</ele>
        <time>2022-02-22T14:12:58.837Z</time>
      </trkpt>
      <trkpt lat="42.18737" lon="24.34408">
        <ele>208.710219</ele>
        <time>2022-02-22T14:13:01.266Z</time>
      </trkpt>
      <trkpt lat="42.18744" lon="24.34359">
        <ele>208.918765</ele>
        <time>2022-02-22T14:13:11.969Z</time>
      </trkpt>
      <trkpt lat="42.18748" lon="24.34332">
        <ele>209.033523</ele>
        <time>2022-02-22T14:13:17.648Z</time>
      </trkpt>
      <trkpt lat="42.18751" lon="24.34316">
        <ele>209.011509</ele>
        <time>2022-02-22T14:13:21.075Z</time>
      </trkpt>
      <trkpt lat="42.18757" lon="24.34297">
        <ele>208.980894</ele>
        <time>2022-02-22T14:13:25.350Z</time>
      </trkpt>
      <trkpt lat="42.18764" lon="24.34278">
        <ele>208.947514</ele>
        <time>2022-02-22T14:13:29.399Z</time>
      </trkpt>
      <trkpt lat="42.18799" lon="24.34212">
        <ele>208.824267</ele>
        <time>2022-02-22T14:13:45.211Z</time>
      </trkpt>
      <trkpt lat="42.18854" lon="24.34122">
        <ele>208.617443</ele>
        <time>2022-02-22T14:14:06.123Z</time>
      </trkpt>
      <trkpt lat="42.18865" lon="24.34124">
        <ele>208.56202</ele>
        <time>2022-02-22T14:14:08.778Z</time>
      </trkpt>
      <trkpt lat="42.18876" lon="24.34126">
        <ele>208.49954</ele>
        <time>2022-02-22T14:14:11.798Z</time>
      </trkpt>
      <trkpt lat="42.18914" lon="24.34137">
        <ele>208.296966</ele>
        <time>2022-02-22T14:14:21.389Z</time>
      </trkpt>
      <trkpt lat="42.19006" lon="24.34173">
        <ele>207.802492</ele>
        <time>2022-02-22T14:14:44.709Z</time>
      </trkpt>
      <trkpt lat="42.19077" lon="24.34201">
        <ele>207.579086</ele>
        <time>2022-02-22T14:15:02.977Z</time>
      </trkpt>
      <trkpt lat="42.19149" lon="24.34231">
        <ele>207.391891</ele>
        <time>2022-02-22T14:15:22.027Z</time>
      </trkpt>
      <trkpt lat="42.19165" lon="24.34237">
        <ele>207.348398</ele>
        <time>2022-02-22T14:15:26.581Z</time>
      </trkpt>
      <trkpt lat="42.19187" lon="24.34242">
        <ele>207.294777</ele>
        <time>2022-02-22T14:15:32.272Z</time>
      </trkpt>
      <trkpt lat="42.19316" lon="24.34263">
        <ele>208.023371</ele>
        <time>2022-02-22T14:16:10.095Z</time>
      </trkpt>
      <trkpt lat="42.1941" lon="24.34279">
        <ele>208.631972</ele>
        <time>2022-02-22T14:16:40.083Z</time>
      </trkpt>
      <trkpt lat="42.19443" lon="24.34276">
        <ele>208.868092</ele>
        <time>2022-02-22T14:16:50.513Z</time>
      </trkpt>
      <trkpt lat="42.19482" lon="24.34264">
        <ele>209.147626</ele>
        <time>2022-02-22T14:17:02.908Z</time>
      </trkpt>
      <trkpt lat="42.19499" lon="24.34258">
        <ele>209.274267</ele>
        <time>2022-02-22T14:17:08.363Z</time>
      </trkpt>
      <trkpt lat="42.1965" lon="24.34216">
        <ele>209.370893</ele>
        <time>2022-02-22T14:17:50.763Z</time>
      </trkpt>
      <trkpt lat="42.19843" lon="24.34153">
        <ele>208.172774</ele>
        <time>2022-02-22T14:18:37.705Z</time>
      </trkpt>
      <trkpt lat="42.19854" lon="24.3415">
        <ele>208.081308</ele>
        <time>2022-02-22T14:18:40.303Z</time>
      </trkpt>
      <trkpt lat="42.19864" lon="24.34146">
        <ele>207.998463</ele>
        <time>2022-02-22T14:18:42.678Z</time>
      </trkpt>
      <trkpt lat="42.19894" lon="24.34144">
        <ele>207.751138</ele>
        <time>2022-02-22T14:18:49.703Z</time>
      </trkpt>
      <trkpt lat="42.19932" lon="24.34144">
        <ele>207.522711</ele>
        <time>2022-02-22T14:18:58.617Z</time>
      </trkpt>
      <trkpt lat="42.19953" lon="24.34146">
        <ele>207.40524</ele>
        <time>2022-02-22T14:19:03.555Z</time>
      </trkpt>
      <trkpt lat="42.19998" lon="24.34164">
        <ele>207.138946</ele>
        <time>2022-02-22T14:19:14.903Z</time>
      </trkpt>
      <trkpt lat="42.20009" lon="24.3417">
        <ele>207.072674</ele>
        <time>2022-02-22T14:19:17.783Z</time>
      </trkpt>
      <trkpt lat="42.2002" lon="24.34178">
        <ele>207.004562</ele>
        <time>2022-02-22T14:19:20.764Z</time>
      </trkpt>
      <trkpt lat="42.20026" lon="24.34171">
        <ele>206.956577</ele>
        <time>2022-02-22T14:19:22.810Z</time>
      </trkpt>
      <trkpt lat="42.20057" lon="24.34138">
        <ele>206.73952</ele>
        <time>2022-02-22T14:19:32.508Z</time>
      </trkpt>
      <trkpt lat="42.20131" lon="24.34054">
        <ele>206.916903</ele>
        <time>2022-02-22T14:19:58.786Z</time>
      </trkpt>
      <trkpt lat="42.20155" lon="24.34016">
        <ele>207.009223</ele>
        <time>2022-02-22T14:20:09.265Z</time>
      </trkpt>
      <trkpt lat="42.20209" lon="24.33876">
        <ele>207.654193</ele>
        <time>2022-02-22T14:20:44.110Z</time>
      </trkpt>
      <trkpt lat="42.20239" lon="24.33826">
        <ele>208.038775</ele>
        <time>2022-02-22T14:20:58.752Z</time>
      </trkpt>
      <trkpt lat="42.20448" lon="24.33635">
        <ele>210.179338</ele>
        <time>2022-02-22T14:22:16.864Z</time>
      </trkpt>
      <trkpt lat="42.2057" lon="24.33541">
        <ele>211.280257</ele>
        <time>2022-02-22T14:22:59.810Z</time>
      </trkpt>
      <trkpt lat="42.2058" lon="24.33526">
        <ele>211.396825</ele>
        <time>2022-02-22T14:23:04.266Z</time>
      </trkpt>
      <trkpt lat="42.20586" lon="24.33519">
        <ele>211.460857</ele>
        <time>2022-02-22T14:23:06.929Z</time>
      </trkpt>
      <trkpt lat="42.20586" lon="24.33461">
        <ele>211.702373</ele>
        <time>2022-02-22T14:23:19.830Z</time>
      </trkpt>
      <trkpt lat="42.20585" lon="24.33447">
        <ele>211.74869</ele>
        <time>2022-02-22T14:23:22.819Z</time>
      </trkpt>
      <trkpt lat="42.2058" lon="24.3337">
        <ele>212.012751</ele>
        <time>2022-02-22T14:23:39.755Z</time>
      </trkpt>
      <trkpt lat="42.2057" lon="24.33255">
        <ele>212.383138</ele>
        <time>2022-02-22T14:24:04.022Z</time>
      </trkpt>
      <trkpt lat="42.2065" lon="24.33255">
        <ele>212.28107</ele>
        <time>2022-02-22T14:24:26.057Z</time>
      </trkpt>
      <trkpt lat="42.2064" lon="24.33162">
        <ele>212.192793</ele>
        <time>2022-02-22T14:24:44.595Z</time>
      </trkpt>
      <trkpt lat="42.20634" lon="24.33093">
        <ele>212.089682</ele>
        <time>2022-02-22T14:24:58.346Z</time>
      </trkpt>
      <trkpt lat="42.2065" lon="24.33091">
        <ele>212.043156</ele>
        <time>2022-02-22T14:25:02.729Z</time>
      </trkpt>
      <trkpt lat="42.20735" lon="24.33081">
        <ele>211.80686</ele>
        <time>2022-02-22T14:25:25.293Z</time>
      </trkpt>
      <trkpt lat="42.20755" lon="24.33081">
        <ele>211.750587</ele>
        <time>2022-02-22T14:25:32.014Z</time>
      </trkpt>
      <trkpt lat="42.20767" lon="24.33072">
        <ele>211.711074</ele>
        <time>2022-02-22T14:25:36.953Z</time>
      </trkpt>
      <trkpt lat="42.20771" lon="24.33067">
        <ele>211.697029</ele>
        <time>2022-02-22T14:25:38.649Z</time>
      </trkpt>
      <trkpt lat="42.20782" lon="24.33069">
        <ele>211.665227</ele>
        <time>2022-02-22T14:25:41.438Z</time>
      </trkpt>
      <trkpt lat="42.20886" lon="24.33055">
        <ele>211.354458</ele>
        <time>2022-02-22T14:26:07.818Z</time>
      </trkpt>
      <trkpt lat="42.21061" lon="24.3302">
        <ele>211.114552</ele>
        <time>2022-02-22T14:26:53.165Z</time>
      </trkpt>
      <trkpt lat="42.21219" lon="24.32988">
        <ele>211.397148</ele>
        <time>2022-02-22T14:27:37.739Z</time>
      </trkpt>
      <trkpt lat="42.2123" lon="24.32982">
        <ele>211.44101</ele>
        <time>2022-02-22T14:27:41.176Z</time>
      </trkpt>
      <trkpt lat="42.21317" lon="24.32968">
        <ele>211.765894</ele>
        <time>2022-02-22T14:28:06.803Z</time>
      </trkpt>
      <trkpt lat="42.2161" lon="24.32909">
        <ele>212.567517</ele>
        <time>2022-02-22T14:29:30.359Z</time>
      </trkpt>
      <trkpt lat="42.21723" lon="24.32896">
        <ele>212.700498</ele>
        <time>2022-02-22T14:30:00.320Z</time>
      </trkpt>
      <trkpt lat="42.21805" lon="24.32911">
        <ele>212.720199</ele>
        <time>2022-02-22T14:30:21.921Z</time>
      </trkpt>
      <trkpt lat="42.21848" lon="24.32918">
        <ele>212.730702</ele>
        <time>2022-02-22T14:30:33.937Z</time>
      </trkpt>
      <trkpt lat="42.21877" lon="24.32921">
        <ele>212.835189</ele>
        <time>2022-02-22T14:30:42.006Z</time>
      </trkpt>
      <trkpt lat="42.22072" lon="24.3293">
        <ele>213.622731</ele>
        <time>2022-02-22T14:31:38.721Z</time>
      </trkpt>
      <trkpt lat="42.22097" lon="24.32876">
        <ele>213.779501</ele>
        <time>2022-02-22T14:31:52.804Z</time>
      </trkpt>
      <trkpt lat="42.22121" lon="24.32842">
        <ele>213.896927</ele>
        <time>2022-02-22T14:32:03.160Z</time>
      </trkpt>
      <trkpt lat="42.22216" lon="24.32746">
        <ele>214.131853</ele>
        <time>2022-02-22T14:32:36.894Z</time>
      </trkpt>
      <trkpt lat="42.22298" lon="24.3266">
        <ele>214.202075</ele>
        <time>2022-02-22T14:33:05.553Z</time>
      </trkpt>
      <trkpt lat="42.2232" lon="24.32631">
        <ele>214.23029</ele>
        <time>2022-02-22T14:33:13.990Z</time>
      </trkpt>
      <trkpt lat="42.22413" lon="24.32527">
        <ele>214.373057</ele>
        <time>2022-02-22T14:33:47.998Z</time>
      </trkpt>
      <trkpt lat="42.22455" lon="24.3248">
        <ele>214.456692</ele>
        <time>2022-02-22T14:34:03.752Z</time>
      </trkpt>
      <trkpt lat="42.22469" lon="24.32457">
        <ele>214.526679</ele>
        <time>2022-02-22T14:34:10.359Z</time>
      </trkpt>
      <trkpt lat="42.22495" lon="24.3245">
        <ele>214.610701</ele>
        <time>2022-02-22T14:34:18.195Z</time>
      </trkpt>
      <trkpt lat="42.22518" lon="24.32418">
        <ele>214.714597</ele>
        <time>2022-02-22T14:34:27.988Z</time>
      </trkpt>
      <trkpt lat="42.22504" lon="24.32391">
        <ele>214.792878</ele>
        <time>2022-02-22T14:34:39.586Z</time>
      </trkpt>
      <trkpt lat="42.22518" lon="24.32369">
        <ele>214.860134</ele>
        <time>2022-02-22T14:34:46.025Z</time>
      </trkpt>
      <trkpt lat="42.22591" lon="24.32174">
        <ele>215.071348</ele>
        <time>2022-02-22T14:35:32.804Z</time>
      </trkpt>
      <trkpt lat="42.22596" lon="24.32116">
        <ele>215.101122</ele>
        <time>2022-02-22T14:35:44.623Z</time>
      </trkpt>
      <trkpt lat="42.22591" lon="24.32062">
        <ele>214.996946</ele>
        <time>2022-02-22T14:35:55.289Z</time>
      </trkpt>
      <trkpt lat="42.22591" lon="24.32009">
        <ele>214.808689</ele>
        <time>2022-02-22T14:36:05.496Z</time>
      </trkpt>
      <trkpt lat="42.22592" lon="24.31984">
        <ele>214.717829</ele>
        <time>2022-02-22T14:36:10.245Z</time>
      </trkpt>
      <trkpt lat="42.22604" lon="24.31747">
        <ele>214.00553</ele>
        <time>2022-02-22T14:36:55.095Z</time>
      </trkpt>
      <trkpt lat="42.22644" lon="24.3157">
        <ele>213.778352</ele>
        <time>2022-02-22T14:37:32.520Z</time>
      </trkpt>
      <trkpt lat="42.22678" lon="24.31466">
        <ele>213.981163</ele>
        <time>2022-02-22T14:37:56.964Z</time>
      </trkpt>
      <trkpt lat="42.22743" lon="24.31154">
        <ele>214.771053</ele>
        <time>2022-02-22T14:39:08.186Z</time>
      </trkpt>
      <trkpt lat="42.22762" lon="24.31047">
        <ele>214.97107</ele>
        <time>2022-02-22T14:39:31.721Z</time>
      </trkpt>
      <trkpt lat="42.23385" lon="24.31112">
        <ele>216.572307</ele>
        <time>2022-02-22T14:42:32.674Z</time>
      </trkpt>
      <trkpt lat="42.23445" lon="24.31118">
        <ele>216.836502</ele>
        <time>2022-02-22T14:42:50.822Z</time>
      </trkpt>
      <trkpt lat="42.23775" lon="24.31149">
        <ele>218.360241</ele>
        <time>2022-02-22T14:44:30.891Z</time>
      </trkpt>
      <trkpt lat="42.23796" lon="24.31153">
        <ele>218.386235</ele>
        <time>2022-02-22T14:44:36.902Z</time>
      </trkpt>
      <trkpt lat="42.24019" lon="24.31182">
        <ele>218.771435</ele>
        <time>2022-02-22T14:45:39.746Z</time>
      </trkpt>
      <trkpt lat="42.24229" lon="24.3121">
        <ele>219.605598</ele>
        <time>2022-02-22T14:46:42.439Z</time>
      </trkpt>
      <trkpt lat="42.24391" lon="24.31236">
        <ele>220.724161</ele>
        <time>2022-02-22T14:47:33.118Z</time>
      </trkpt>
      <trkpt lat="42.24527" lon="24.31259">
        <ele>221.888146</ele>
        <time>2022-02-22T14:48:17.396Z</time>
      </trkpt>
      <trkpt lat="42.24618" lon="24.3128">
        <ele>222.736441</ele>
        <time>2022-02-22T14:48:47.451Z</time>
      </trkpt>
      <trkpt lat="42.24781" lon="24.3132">
        <ele>223.979615</ele>
        <time>2022-02-22T14:49:39.843Z</time>
      </trkpt>
      <trkpt lat="42.24789" lon="24.31321">
        <ele>224.033958</ele>
        <time>2022-02-22T14:49:42.212Z</time>
      </trkpt>
      <trkpt lat="42.24916" lon="24.31351">
        <ele>224.71985</ele>
        <time>2022-02-22T14:50:21.296Z</time>
      </trkpt>
      <trkpt lat="42.24957" lon="24.31361">
        <ele>224.908777</ele>
        <time>2022-02-22T14:50:33.648Z</time>
      </trkpt>
      <trkpt lat="42.25307" lon="24.31443">
        <ele>226.532713</ele>
        <time>2022-02-22T14:52:19.679Z</time>
      </trkpt>
      <trkpt lat="42.25528" lon="24.31504">
        <ele>227.628591</ele>
        <time>2022-02-22T14:53:28.037Z</time>
      </trkpt>
      <trkpt lat="42.25568" lon="24.31513">
        <ele>227.731909</ele>
        <time>2022-02-22T14:53:39.894Z</time>
      </trkpt>
      <trkpt lat="42.25599" lon="24.31521">
        <ele>227.795651</ele>
        <time>2022-02-22T14:53:48.972Z</time>
      </trkpt>
      <trkpt lat="42.25642" lon="24.31532">
        <ele>227.885504</ele>
        <time>2022-02-22T14:54:01.564Z</time>
      </trkpt>
      <trkpt lat="42.25664" lon="24.31543">
        <ele>227.931613</ele>
        <time>2022-02-22T14:54:07.928Z</time>
      </trkpt>
      <trkpt lat="42.25694" lon="24.31552">
        <ele>227.995333</ele>
        <time>2022-02-22T14:54:16.809Z</time>
      </trkpt>
      <trkpt lat="42.25815" lon="24.31582">
        <ele>228.726647</ele>
        <time>2022-02-22T14:54:53.172Z</time>
      </trkpt>
      <trkpt lat="42.26067" lon="24.31639">
        <ele>231.135332</ele>
        <time>2022-02-22T14:56:17.544Z</time>
      </trkpt>
      <trkpt lat="42.26113" lon="24.3165">
        <ele>231.43523</ele>
        <time>2022-02-22T14:56:32.726Z</time>
      </trkpt>
      <trkpt lat="42.26177" lon="24.31667">
        <ele>231.847444</ele>
        <time>2022-02-22T14:56:52.804Z</time>
      </trkpt>
      <trkpt lat="42.26246" lon="24.31674">
        <ele>232.279134</ele>
        <time>2022-02-22T14:57:13.315Z</time>
      </trkpt>
      <trkpt lat="42.26285" lon="24.31686">
        <ele>232.364816</ele>
        <time>2022-02-22T14:57:24.869Z</time>
      </trkpt>
      <trkpt lat="42.26337" lon="24.31695">
        <ele>232.477373</ele>
        <time>2022-02-22T14:57:39.794Z</time>
      </trkpt>
      <trkpt lat="42.26391" lon="24.31693">
        <ele>232.593975</ele>
        <time>2022-02-22T14:57:55.201Z</time>
      </trkpt>
      <trkpt lat="42.26455" lon="24.31684">
        <ele>232.844496</ele>
        <time>2022-02-22T14:58:13.870Z</time>
      </trkpt>
      <trkpt lat="42.2649" lon="24.31676">
        <ele>233.03508</ele>
        <time>2022-02-22T14:58:24.403Z</time>
      </trkpt>
      <trkpt lat="42.26519" lon="24.31673">
        <ele>233.18749</ele>
        <time>2022-02-22T14:58:33.003Z</time>
      </trkpt>
      <trkpt lat="42.26536" lon="24.31669">
        <ele>233.282155</ele>
        <time>2022-02-22T14:58:38.415Z</time>
      </trkpt>
      <trkpt lat="42.26658" lon="24.3164">
        <ele>234.170031</ele>
        <time>2022-02-22T14:59:17.685Z</time>
      </trkpt>
      <trkpt lat="42.26678" lon="24.31635">
        <ele>234.362066</ele>
        <time>2022-02-22T14:59:24.523Z</time>
      </trkpt>
      <trkpt lat="42.2673" lon="24.31619">
        <ele>234.84916</ele>
        <time>2022-02-22T14:59:41.612Z</time>
      </trkpt>
      <trkpt lat="42.26753" lon="24.31612">
        <ele>235.060016</ele>
        <time>2022-02-22T14:59:49.057Z</time>
      </trkpt>
      <trkpt lat="42.26757" lon="24.31611">
        <ele>235.10207</ele>
        <time>2022-02-22T14:59:50.523Z</time>
      </trkpt>
      <trkpt lat="42.26771" lon="24.31606">
        <ele>235.232239</ele>
        <time>2022-02-22T14:59:55.129Z</time>
      </trkpt>
      <trkpt lat="42.26863" lon="24.31585">
        <ele>236.367207</ele>
        <time>2022-02-22T15:00:25.783Z</time>
      </trkpt>
      <trkpt lat="42.2688" lon="24.31581">
        <ele>236.580961</ele>
        <time>2022-02-22T15:00:31.708Z</time>
      </trkpt>
      <trkpt lat="42.26956" lon="24.31562">
        <ele>237.540878</ele>
        <time>2022-02-22T15:00:58.488Z</time>
      </trkpt>
      <trkpt lat="42.26977" lon="24.31558">
        <ele>237.824827</ele>
        <time>2022-02-22T15:01:06.017Z</time>
      </trkpt>
      <trkpt lat="42.27" lon="24.3156">
        <ele>238.138635</ele>
        <time>2022-02-22T15:01:13.975Z</time>
      </trkpt>
      <trkpt lat="42.27032" lon="24.31569">
        <ele>238.593076</ele>
        <time>2022-02-22T15:01:25.680Z</time>
      </trkpt>
      <trkpt lat="42.27075" lon="24.31585">
        <ele>239.199825</ele>
        <time>2022-02-22T15:01:41.098Z</time>
      </trkpt>
      <trkpt lat="42.2708" lon="24.31587">
        <ele>239.268576</ele>
        <time>2022-02-22T15:01:42.852Z</time>
      </trkpt>
      <trkpt lat="42.27092" lon="24.31592">
        <ele>239.447891</ele>
        <time>2022-02-22T15:01:47.238Z</time>
      </trkpt>
      <trkpt lat="42.27099" lon="24.31594">
        <ele>239.541806</ele>
        <time>2022-02-22T15:01:49.477Z</time>
      </trkpt>
      <trkpt lat="42.2711" lon="24.31599">
        <ele>239.700021</ele>
        <time>2022-02-22T15:01:53.414Z</time>
      </trkpt>
      <trkpt lat="42.27121" lon="24.31604">
        <ele>239.857927</ele>
        <time>2022-02-22T15:01:57.302Z</time>
      </trkpt>
      <trkpt lat="42.27146" lon="24.31608">
        <ele>240.05963</ele>
        <time>2022-02-22T15:02:05.234Z</time>
      </trkpt>
      <trkpt lat="42.27161" lon="24.31607">
        <ele>240.150618</ele>
        <time>2022-02-22T15:02:10.134Z</time>
      </trkpt>
      <trkpt lat="42.27167" lon="24.31606">
        <ele>240.185808</ele>
        <time>2022-02-22T15:02:12.015Z</time>
      </trkpt>
      <trkpt lat="42.27212" lon="24.31598">
        <ele>240.464401</ele>
        <time>2022-02-22T15:02:26.443Z</time>
      </trkpt>
      <trkpt lat="42.27274" lon="24.31582">
        <ele>240.842093</ele>
        <time>2022-02-22T15:02:45.175Z</time>
      </trkpt>
      <trkpt lat="42.27286" lon="24.31579">
        <ele>240.916889</ele>
        <time>2022-02-22T15:02:48.669Z</time>
      </trkpt>
      <trkpt lat="42.27348" lon="24.31562">
        <ele>241.238039</ele>
        <time>2022-02-22T15:03:06.868Z</time>
      </trkpt>
      <trkpt lat="42.27538" lon="24.31509">
        <ele>242.332452</ele>
        <time>2022-02-22T15:04:06.193Z</time>
      </trkpt>
      <trkpt lat="42.27749" lon="24.31458">
        <ele>244.0267</ele>
        <time>2022-02-22T15:05:14.565Z</time>
      </trkpt>
      <trkpt lat="42.28291" lon="24.31316">
        <ele>248.495815</ele>
        <time>2022-02-22T15:08:07.498Z</time>
      </trkpt>
      <trkpt lat="42.2889" lon="24.31159">
        <ele>257.916867</ele>
        <time>2022-02-22T15:11:44.464Z</time>
      </trkpt>
      <trkpt lat="42.2995" lon="24.30883">
        <ele>271.799349</ele>
        <time>2022-02-22T15:17:51.096Z</time>
      </trkpt>
      <trkpt lat="42.30096" lon="24.30841">
        <ele>273.742879</ele>
        <time>2022-02-22T15:18:41.498Z</time>
      </trkpt>
      <trkpt lat="42.30126" lon="24.30833">
        <ele>274.144253</ele>
        <time>2022-02-22T15:18:52.005Z</time>
      </trkpt>
      <trkpt lat="42.30925" lon="24.30622">
        <ele>286.255007</ele>
        <time>2022-02-22T15:23:36.032Z</time>
      </trkpt>
      <trkpt lat="42.30996" lon="24.30586">
        <ele>287.501175</ele>
        <time>2022-02-22T15:24:03.399Z</time>
      </trkpt>
      <trkpt lat="42.31018" lon="24.30567">
        <ele>287.980159</ele>
        <time>2022-02-22T15:24:12.826Z</time>
      </trkpt>
      <trkpt lat="42.31036" lon="24.30547">
        <ele>288.497824</ele>
        <time>2022-02-22T15:24:21.698Z</time>
      </trkpt>
      <trkpt lat="42.31052" lon="24.30531">
        <ele>288.908874</ele>
        <time>2022-02-22T15:24:28.912Z</time>
      </trkpt>
      <trkpt lat="42.31075" lon="24.30506">
        <ele>289.558248</ele>
        <time>2022-02-22T15:24:40.378Z</time>
      </trkpt>
      <trkpt lat="42.31168" lon="24.30414">
        <ele>292.022221</ele>
        <time>2022-02-22T15:25:24.923Z</time>
      </trkpt>
      <trkpt lat="42.31323" lon="24.30269">
        <ele>295.921711</ele>
        <time>2022-02-22T15:26:37.119Z</time>
      </trkpt>
      <trkpt lat="42.31523" lon="24.30073">
        <ele>299.659424</ele>
        <time>2022-02-22T15:28:04.409Z</time>
      </trkpt>
      <trkpt lat="42.31607" lon="24.2999">
        <ele>300.826477</ele>
        <time>2022-02-22T15:28:37.476Z</time>
      </trkpt>
      <trkpt lat="42.31722" lon="24.29878">
        <ele>301.826614</ele>
        <time>2022-02-22T15:29:20.407Z</time>
      </trkpt>
      <trkpt lat="42.32043" lon="24.29567">
        <ele>306.401869</ele>
        <time>2022-02-22T15:31:30.406Z</time>
      </trkpt>
      <trkpt lat="42.3224" lon="24.29377">
        <ele>313.191572</ele>
        <time>2022-02-22T15:33:13.529Z</time>
      </trkpt>
      <trkpt lat="42.32442" lon="24.29183">
        <ele>320.170717</ele>
        <time>2022-02-22T15:34:56.352Z</time>
      </trkpt>
      <trkpt lat="42.3248" lon="24.29146">
        <ele>321.326746</ele>
        <time>2022-02-22T15:35:14.586Z</time>
      </trkpt>
      <trkpt lat="42.32603" lon="24.29029">
        <ele>324.26216</ele>
        <time>2022-02-22T15:36:10.526Z</time>
      </trkpt>
      <trkpt lat="42.32807" lon="24.28835">
        <ele>328.138127</ele>
        <time>2022-02-22T15:37:37.527Z</time>
      </trkpt>
      <trkpt lat="42.32839" lon="24.28808">
        <ele>328.721768</ele>
        <time>2022-02-22T15:37:50.765Z</time>
      </trkpt>
      <trkpt lat="42.32897" lon="24.28771">
        <ele>329.711151</ele>
        <time>2022-02-22T15:38:13.357Z</time>
      </trkpt>
      <trkpt lat="42.32982" lon="24.28741">
        <ele>331.171602</ele>
        <time>2022-02-22T15:38:45.005Z</time>
      </trkpt>
      <trkpt lat="42.3375" lon="24.28519">
        <ele>344.662671</ele>
        <time>2022-02-22T15:43:26.951Z</time>
      </trkpt>
      <trkpt lat="42.33895" lon="24.28478">
        <ele>348.039057</ele>
        <time>2022-02-22T15:44:24.553Z</time>
      </trkpt>
      <trkpt lat="42.33948" lon="24.28471">
        <ele>349.360732</ele>
        <time>2022-02-22T15:44:46.434Z</time>
      </trkpt>
      <trkpt lat="42.34029" lon="24.28469">
        <ele>351.208889</ele>
        <time>2022-02-22T15:45:19.512Z</time>
      </trkpt>
      <trkpt lat="42.34052" lon="24.28469">
        <ele>351.693247</ele>
        <time>2022-02-22T15:45:28.331Z</time>
      </trkpt>
      <trkpt lat="42.3406" lon="24.28469">
        <ele>351.885694</ele>
        <time>2022-02-22T15:45:32.077Z</time>
      </trkpt>
      <trkpt lat="42.34635" lon="24.28475">
        <ele>364.699772</ele>
        <time>2022-02-22T15:49:08.731Z</time>
      </trkpt>
      <trkpt lat="42.34677" lon="24.28471">
        <ele>365.74776</ele>
        <time>2022-02-22T15:49:26.251Z</time>
      </trkpt>
      <trkpt lat="42.34798" lon="24.28444">
        <ele>370.454971</ele>
        <time>2022-02-22T15:50:22.078Z</time>
      </trkpt>
      <trkpt lat="42.35374" lon="24.2831">
        <ele>397.59384</ele>
        <time>2022-02-22T15:55:18.990Z</time>
      </trkpt>
      <trkpt lat="42.35496" lon="24.28281">
        <ele>402.169875</ele>
        <time>2022-02-22T15:56:16.750Z</time>
      </trkpt>
      <trkpt lat="42.35556" lon="24.28261">
        <ele>404.2462</ele>
        <time>2022-02-22T15:56:42.651Z</time>
      </trkpt>
      <trkpt lat="42.35609" lon="24.2822">
        <ele>405.7147</ele>
        <time>2022-02-22T15:57:07.462Z</time>
      </trkpt>
      <trkpt lat="42.3596" lon="24.27811">
        <ele>413.201295</ele>
        <time>2022-02-22T15:59:49.886Z</time>
      </trkpt>
      <trkpt lat="42.36004" lon="24.27779">
        <ele>414.036214</ele>
        <time>2022-02-22T16:00:07.242Z</time>
      </trkpt>
      <trkpt lat="42.36026" lon="24.27776">
        <ele>414.540609</ele>
        <time>2022-02-22T16:00:15.075Z</time>
      </trkpt>
      <trkpt lat="42.36051" lon="24.27773">
        <ele>415.104854</ele>
        <time>2022-02-22T16:00:23.894Z</time>
      </trkpt>
      <trkpt lat="42.36061" lon="24.27772">
        <ele>415.348979</ele>
        <time>2022-02-22T16:00:27.875Z</time>
      </trkpt>
      <trkpt lat="42.36086" lon="24.27769">
        <ele>415.908812</ele>
        <time>2022-02-22T16:00:36.990Z</time>
      </trkpt>
      <trkpt lat="42.36092" lon="24.27768">
        <ele>416.049228</ele>
        <time>2022-02-22T16:00:39.368Z</time>
      </trkpt>
      <trkpt lat="42.36187" lon="24.2776">
        <ele>418.417371</ele>
        <time>2022-02-22T16:01:18.492Z</time>
      </trkpt>
      <trkpt lat="42.36226" lon="24.27756">
        <ele>419.910855</ele>
        <time>2022-02-22T16:01:36.617Z</time>
      </trkpt>
      <trkpt lat="42.36322" lon="24.27747">
        <ele>423.551321</ele>
        <time>2022-02-22T16:02:22.109Z</time>
      </trkpt>
      <trkpt lat="42.36356" lon="24.27739">
        <ele>424.79588</ele>
        <time>2022-02-22T16:02:38.213Z</time>
      </trkpt>
      <trkpt lat="42.36404" lon="24.27723">
        <ele>426.287305</ele>
        <time>2022-02-22T16:03:01.134Z</time>
      </trkpt>
      <trkpt lat="42.36433" lon="24.27713">
        <ele>427.189488</ele>
        <time>2022-02-22T16:03:14.640Z</time>
      </trkpt>
      <trkpt lat="42.36455" lon="24.27702">
        <ele>427.878127</ele>
        <time>2022-02-22T16:03:24.627Z</time>
      </trkpt>
      <trkpt lat="42.36478" lon="24.27688">
        <ele>428.632883</ele>
        <time>2022-02-22T16:03:34.780Z</time>
      </trkpt>
      <trkpt lat="42.3649" lon="24.27679">
        <ele>429.059792</ele>
        <time>2022-02-22T16:03:40.836Z</time>
      </trkpt>
      <trkpt lat="42.36514" lon="24.27661">
        <ele>429.866808</ele>
        <time>2022-02-22T16:03:50.873Z</time>
      </trkpt>
      <trkpt lat="42.36658" lon="24.27552">
        <ele>432.226528</ele>
        <time>2022-02-22T16:04:46.296Z</time>
      </trkpt>
      <trkpt lat="42.36696" lon="24.27534">
        <ele>432.969802</ele>
        <time>2022-02-22T16:04:59.558Z</time>
      </trkpt>
      <trkpt lat="42.36747" lon="24.27518">
        <ele>434.233953</ele>
        <time>2022-02-22T16:05:18.600Z</time>
      </trkpt>
      <trkpt lat="42.36778" lon="24.27509">
        <ele>434.993625</ele>
        <time>2022-02-22T16:05:30.609Z</time>
      </trkpt>
      <trkpt lat="42.36805" lon="24.275">
        <ele>435.674066</ele>
        <time>2022-02-22T16:05:41.907Z</time>
      </trkpt>
      <trkpt lat="42.36853" lon="24.27485">
        <ele>436.872065</ele>
        <time>2022-02-22T16:06:03.139Z</time>
      </trkpt>
      <trkpt lat="42.37016" lon="24.27432">
        <ele>443.987216</ele>
        <time>2022-02-22T16:07:25.806Z</time>
      </trkpt>
      <trkpt lat="42.37042" lon="24.27424">
        <ele>445.087849</ele>
        <time>2022-02-22T16:07:39.334Z</time>
      </trkpt>
      <trkpt lat="42.37453" lon="24.27366">
        <ele>460.03753</ele>
        <time>2022-02-22T16:10:48.185Z</time>
      </trkpt>
      <trkpt lat="42.37503" lon="24.27353">
        <ele>461.435878</ele>
        <time>2022-02-22T16:11:09.277Z</time>
      </trkpt>
      <trkpt lat="42.37599" lon="24.27291">
        <ele>463.161495</ele>
        <time>2022-02-22T16:11:48.198Z</time>
      </trkpt>
      <trkpt lat="42.37845" lon="24.27112">
        <ele>461.148568</ele>
        <time>2022-02-22T16:12:58.761Z</time>
      </trkpt>
      <trkpt lat="42.38061" lon="24.2708">
        <ele>453.50781</ele>
        <time>2022-02-22T16:13:41.656Z</time>
      </trkpt>
      <trkpt lat="42.38096" lon="24.27066">
        <ele>451.613748</ele>
        <time>2022-02-22T16:13:48.589Z</time>
      </trkpt>
      <trkpt lat="42.38111" lon="24.27045">
        <ele>450.486332</ele>
        <time>2022-02-22T16:13:52.703Z</time>
      </trkpt>
      <trkpt lat="42.38176" lon="24.26912">
        <ele>444.403958</ele>
        <time>2022-02-22T16:14:14.728Z</time>
      </trkpt>
      <trkpt lat="42.38194" lon="24.26884">
        <ele>442.963707</ele>
        <time>2022-02-22T16:14:19.933Z</time>
      </trkpt>
      <trkpt lat="42.38377" lon="24.26701">
        <ele>432.550472</ele>
        <time>2022-02-22T16:15:03.126Z</time>
      </trkpt>
      <trkpt lat="42.384" lon="24.26693">
        <ele>431.749395</ele>
        <time>2022-02-22T16:15:07.920Z</time>
      </trkpt>
      <trkpt lat="42.38417" lon="24.26703">
        <ele>431.149569</ele>
        <time>2022-02-22T16:15:11.640Z</time>
      </trkpt>
      <trkpt lat="42.38422" lon="24.26711">
        <ele>430.855332</ele>
        <time>2022-02-22T16:15:13.512Z</time>
      </trkpt>
      <trkpt lat="42.38434" lon="24.26761">
        <ele>429.565216</ele>
        <time>2022-02-22T16:15:22.022Z</time>
      </trkpt>
      <trkpt lat="42.38449" lon="24.26775">
        <ele>428.961976</ele>
        <time>2022-02-22T16:15:26.160Z</time>
      </trkpt>
      <trkpt lat="42.38485" lon="24.26774">
        <ele>429.174696</ele>
        <time>2022-02-22T16:15:35.231Z</time>
      </trkpt>
      <trkpt lat="42.3851" lon="24.26757">
        <ele>429.333286</ele>
        <time>2022-02-22T16:15:42.864Z</time>
      </trkpt>
      <trkpt lat="42.38526" lon="24.26738">
        <ele>429.458852</ele>
        <time>2022-02-22T16:15:49.310Z</time>
      </trkpt>
      <trkpt lat="42.38537" lon="24.26728">
        <ele>429.538724</ele>
        <time>2022-02-22T16:15:53.733Z</time>
      </trkpt>
      <trkpt lat="42.38576" lon="24.26716">
        <ele>429.769285</ele>
        <time>2022-02-22T16:16:07.095Z</time>
      </trkpt>
      <trkpt lat="42.38602" lon="24.26722">
        <ele>429.924273</ele>
        <time>2022-02-22T16:16:16.735Z</time>
      </trkpt>
      <trkpt lat="42.38634" lon="24.26739">
        <ele>430.388801</ele>
        <time>2022-02-22T16:16:30.054Z</time>
      </trkpt>
      <trkpt lat="42.38653" lon="24.26739">
        <ele>430.758542</ele>
        <time>2022-02-22T16:16:37.631Z</time>
      </trkpt>
      <trkpt lat="42.38744" lon="24.26709">
        <ele>432.54915</ele>
        <time>2022-02-22T16:17:13.292Z</time>
      </trkpt>
      <trkpt lat="42.38776" lon="24.26708">
        <ele>433.15651</ele>
        <time>2022-02-22T16:17:25.065Z</time>
      </trkpt>
      <trkpt lat="42.39436" lon="24.26882">
        <ele>440.908319</ele>
        <time>2022-02-22T16:21:09.221Z</time>
      </trkpt>
      <trkpt lat="42.39489" lon="24.26886">
        <ele>441.390896</ele>
        <time>2022-02-22T16:21:25.418Z</time>
      </trkpt>
      <trkpt lat="42.39755" lon="24.26873">
        <ele>442.75514</ele>
        <time>2022-02-22T16:22:43.660Z</time>
      </trkpt>
      <trkpt lat="42.39939" lon="24.26867">
        <ele>444.645158</ele>
        <time>2022-02-22T16:23:45.219Z</time>
      </trkpt>
      <trkpt lat="42.39964" lon="24.26866">
        <ele>444.972101</ele>
        <time>2022-02-22T16:23:53.894Z</time>
      </trkpt>
      <trkpt lat="42.4001" lon="24.26863">
        <ele>445.578836</ele>
        <time>2022-02-22T16:24:10.246Z</time>
      </trkpt>
      <trkpt lat="42.40052" lon="24.26849">
        <ele>446.084952</ele>
        <time>2022-02-22T16:24:25.697Z</time>
      </trkpt>
      <trkpt lat="42.40212" lon="24.26742">
        <ele>447.271943</ele>
        <time>2022-02-22T16:25:22.909Z</time>
      </trkpt>
      <trkpt lat="42.40236" lon="24.26718">
        <ele>446.793565</ele>
        <time>2022-02-22T16:25:31.041Z</time>
      </trkpt>
      <trkpt lat="42.40322" lon="24.26575">
        <ele>444.586816</ele>
        <time>2022-02-22T16:26:00.888Z</time>
      </trkpt>
      <trkpt lat="42.40347" lon="24.26559">
        <ele>443.497791</ele>
        <time>2022-02-22T16:26:06.624Z</time>
      </trkpt>
      <trkpt lat="42.40378" lon="24.26555">
        <ele>442.281743</ele>
        <time>2022-02-22T16:26:12.841Z</time>
      </trkpt>
      <trkpt lat="42.40385" lon="24.26558">
        <ele>441.992108</ele>
        <time>2022-02-22T16:26:14.194Z</time>
      </trkpt>
      <trkpt lat="42.40392" lon="24.26564">
        <ele>441.682217</ele>
        <time>2022-02-22T16:26:15.630Z</time>
      </trkpt>
      <trkpt lat="42.40469" lon="24.26739">
        <ele>436.443432</ele>
        <time>2022-02-22T16:26:45.022Z</time>
      </trkpt>
      <trkpt lat="42.40523" lon="24.27028">
        <ele>431.718163</ele>
        <time>2022-02-22T16:27:34.574Z</time>
      </trkpt>
      <trkpt lat="42.40532" lon="24.27054">
        <ele>431.367072</ele>
        <time>2022-02-22T16:27:39.780Z</time>
      </trkpt>
      <trkpt lat="42.40545" lon="24.27069">
        <ele>431.090627</ele>
        <time>2022-02-22T16:27:43.782Z</time>
      </trkpt>
      <trkpt lat="42.40617" lon="24.27094">
        <ele>429.559951</ele>
        <time>2022-02-22T16:28:00.764Z</time>
      </trkpt>
      <trkpt lat="42.40664" lon="24.27096">
        <ele>427.941498</ele>
        <time>2022-02-22T16:28:11.222Z</time>
      </trkpt>
      <trkpt lat="42.4108" lon="24.26969">
        <ele>412.352662</ele>
        <time>2022-02-22T16:29:36.133Z</time>
      </trkpt>
      <trkpt lat="42.41122" lon="24.26965">
        <ele>410.593922</ele>
        <time>2022-02-22T16:29:44.218Z</time>
      </trkpt>
      <trkpt lat="42.41147" lon="24.26984">
        <ele>409.201559</ele>
        <time>2022-02-22T16:29:49.617Z</time>
      </trkpt>
      <trkpt lat="42.41176" lon="24.27026">
        <ele>407.065363</ele>
        <time>2022-02-22T16:29:57.562Z</time>
      </trkpt>
      <trkpt lat="42.4119" lon="24.27059">
        <ele>405.588568</ele>
        <time>2022-02-22T16:30:03.027Z</time>
      </trkpt>
      <trkpt lat="42.4119" lon="24.27097">
        <ele>404.166105</ele>
        <time>2022-02-22T16:30:08.278Z</time>
      </trkpt>
      <trkpt lat="42.4116" lon="24.27284">
        <ele>397.399356</ele>
        <time>2022-02-22T16:30:35.033Z</time>
      </trkpt>
      <trkpt lat="42.4116" lon="24.27313">
        <ele>396.446976</ele>
        <time>2022-02-22T16:30:39.071Z</time>
      </trkpt>
      <trkpt lat="42.41165" lon="24.27324">
        <ele>395.979039</ele>
        <time>2022-02-22T16:30:41.058Z</time>
      </trkpt>
      <trkpt lat="42.41182" lon="24.27327">
        <ele>395.196705</ele>
        <time>2022-02-22T16:30:44.387Z</time>
      </trkpt>
      <trkpt lat="42.41235" lon="24.27281">
        <ele>392.517079</ele>
        <time>2022-02-22T16:30:56.835Z</time>
      </trkpt>
      <trkpt lat="42.41261" lon="24.27272">
        <ele>391.676441</ele>
        <time>2022-02-22T16:31:02.155Z</time>
      </trkpt>
      <trkpt lat="42.41279" lon="24.27276">
        <ele>391.071495</ele>
        <time>2022-02-22T16:31:06.008Z</time>
      </trkpt>
      <trkpt lat="42.4142" lon="24.27366">
        <ele>386.005121</ele>
        <time>2022-02-22T16:31:38.305Z</time>
      </trkpt>
      <trkpt lat="42.41431" lon="24.27369">
        <ele>385.612319</ele>
        <time>2022-02-22T16:31:40.608Z</time>
      </trkpt>
      <trkpt lat="42.41454" lon="24.27362">
        <ele>384.764383</ele>
        <time>2022-02-22T16:31:45.736Z</time>
      </trkpt>
      <trkpt lat="42.41465" lon="24.27354">
        <ele>384.312227</ele>
        <time>2022-02-22T16:31:48.371Z</time>
      </trkpt>
      <trkpt lat="42.41558" lon="24.27269">
        <ele>380.098263</ele>
        <time>2022-02-22T16:32:10.407Z</time>
      </trkpt>
      <trkpt lat="42.41586" lon="24.27242">
        <ele>378.206335</ele>
        <time>2022-02-22T16:32:17.131Z</time>
      </trkpt>
      <trkpt lat="42.41597" lon="24.27231">
        <ele>377.484852</ele>
        <time>2022-02-22T16:32:19.614Z</time>
      </trkpt>
      <trkpt lat="42.41612" lon="24.27219">
        <ele>376.546877</ele>
        <time>2022-02-22T16:32:23.096Z</time>
      </trkpt>
      <trkpt lat="42.41629" lon="24.27207">
        <ele>375.497122</ele>
        <time>2022-02-22T16:32:26.562Z</time>
      </trkpt>
      <trkpt lat="42.41728" lon="24.27153">
        <ele>369.738385</ele>
        <time>2022-02-22T16:32:46.114Z</time>
      </trkpt>
      <trkpt lat="42.4175" lon="24.27151">
        <ele>368.594285</ele>
        <time>2022-02-22T16:32:50.291Z</time>
      </trkpt>
      <trkpt lat="42.41764" lon="24.27153">
        <ele>367.853711</ele>
        <time>2022-02-22T16:32:52.771Z</time>
      </trkpt>
      <trkpt lat="42.41809" lon="24.27158">
        <ele>365.452027</ele>
        <time>2022-02-22T16:33:01.556Z</time>
      </trkpt>
      <trkpt lat="42.41823" lon="24.27157">
        <ele>364.723173</ele>
        <time>2022-02-22T16:33:04.255Z</time>
      </trkpt>
      <trkpt lat="42.41854" lon="24.27145">
        <ele>363.051147</ele>
        <time>2022-02-22T16:33:10.366Z</time>
      </trkpt>
      <trkpt lat="42.41864" lon="24.27137">
        <ele>362.43008</ele>
        <time>2022-02-22T16:33:12.558Z</time>
      </trkpt>
      <trkpt lat="42.41957" lon="24.2706">
        <ele>358.382438</ele>
        <time>2022-02-22T16:33:34.110Z</time>
      </trkpt>
      <trkpt lat="42.41978" lon="24.27042">
        <ele>357.537352</ele>
        <time>2022-02-22T16:33:39.246Z</time>
      </trkpt>
      <trkpt lat="42.42099" lon="24.2694">
        <ele>353.620991</ele>
        <time>2022-02-22T16:34:09.367Z</time>
      </trkpt>
      <trkpt lat="42.42202" lon="24.26856">
        <ele>351.267575</ele>
        <time>2022-02-22T16:34:35.947Z</time>
      </trkpt>
      <trkpt lat="42.42224" lon="24.26834">
        <ele>351.04556</ele>
        <time>2022-02-22T16:34:42.619Z</time>
      </trkpt>
      <trkpt lat="42.42232" lon="24.26822">
        <ele>350.957698</ele>
        <time>2022-02-22T16:34:45.142Z</time>
      </trkpt>
      <trkpt lat="42.423" lon="24.26708">
        <ele>350.101675</ele>
        <time>2022-02-22T16:35:12.598Z</time>
      </trkpt>
      <trkpt lat="42.42388" lon="24.26546">
        <ele>351.493873</ele>
        <time>2022-02-22T16:35:59.279Z</time>
      </trkpt>
      <trkpt lat="42.42425" lon="24.26463">
        <ele>353.020939</ele>
        <time>2022-02-22T16:36:26.750Z</time>
      </trkpt>
      <trkpt lat="42.42432" lon="24.26432">
        <ele>353.894875</ele>
        <time>2022-02-22T16:36:36.749Z</time>
      </trkpt>
      <trkpt lat="42.42444" lon="24.26287">
        <ele>357.840881</ele>
        <time>2022-02-22T16:37:27.554Z</time>
      </trkpt>
      <trkpt lat="42.42452" lon="24.26085">
        <ele>364.739755</ele>
        <time>2022-02-22T16:38:46.340Z</time>
      </trkpt>
      <trkpt lat="42.42475" lon="24.25939">
        <ele>368.828571</ele>
        <time>2022-02-22T16:39:38.811Z</time>
      </trkpt>
      <trkpt lat="42.42501" lon="24.25772">
        <ele>372.361591</ele>
        <time>2022-02-22T16:40:28.151Z</time>
      </trkpt>
      <trkpt lat="42.42551" lon="24.25456">
        <ele>374.887161</ele>
        <time>2022-02-22T16:41:46.386Z</time>
      </trkpt>
      <trkpt lat="42.42576" lon="24.25289">
        <ele>375.515261</ele>
        <time>2022-02-22T16:42:23.796Z</time>
      </trkpt>
      <trkpt lat="42.42596" lon="24.25204">
        <ele>375.287567</ele>
        <time>2022-02-22T16:42:41.776Z</time>
      </trkpt>
      <trkpt lat="42.42675" lon="24.24978">
        <ele>374.028978</ele>
        <time>2022-02-22T16:43:28.302Z</time>
      </trkpt>
      <trkpt lat="42.42925" lon="24.24315">
        <ele>367.978411</ele>
        <time>2022-02-22T16:45:38.993Z</time>
      </trkpt>
      <trkpt lat="42.42964" lon="24.2423">
        <ele>367.169307</ele>
        <time>2022-02-22T16:45:56.656Z</time>
      </trkpt>
      <trkpt lat="42.43088" lon="24.24">
        <ele>365.726118</ele>
        <time>2022-02-22T16:46:48.717Z</time>
      </trkpt>
      <trkpt lat="42.43115" lon="24.23933">
        <ele>366.193119</ele>
        <time>2022-02-22T16:47:04.241Z</time>
      </trkpt>
      <trkpt lat="42.43323" lon="24.23191">
        <ele>371.125839</ele>
        <time>2022-02-22T16:50:15.903Z</time>
      </trkpt>
      <trkpt lat="42.43405" lon="24.22997">
        <ele>372.250376</ele>
        <time>2022-02-22T16:51:06.452Z</time>
      </trkpt>
      <trkpt lat="42.43626" lon="24.22247">
        <ele>375.525773</ele>
        <time>2022-02-22T16:54:06.353Z</time>
      </trkpt>
      <trkpt lat="42.43649" lon="24.22154">
        <ele>376.348449</ele>
        <time>2022-02-22T16:54:31.195Z</time>
      </trkpt>
      <trkpt lat="42.43682" lon="24.21964">
        <ele>378.042771</ele>
        <time>2022-02-22T16:55:21.504Z</time>
      </trkpt>
      <trkpt lat="42.4369" lon="24.21874">
        <ele>378.236291</ele>
        <time>2022-02-22T16:55:42.140Z</time>
      </trkpt>
      <trkpt lat="42.43695" lon="24.2184">
        <ele>378.31046</ele>
        <time>2022-02-22T16:55:49.210Z</time>
      </trkpt>
      <trkpt lat="42.43716" lon="24.21761">
        <ele>378.490833</ele>
        <time>2022-02-22T16:56:06.054Z</time>
      </trkpt>
      <trkpt lat="42.43829" lon="24.21489">
        <ele>377.177894</ele>
        <time>2022-02-22T16:57:02.921Z</time>
      </trkpt>
      <trkpt lat="42.43863" lon="24.21405">
        <ele>377.157014</ele>
        <time>2022-02-22T16:57:21.752Z</time>
      </trkpt>
      <trkpt lat="42.43863" lon="24.21405">
        <ele>377.157014</ele>
        <time>2022-02-22T16:57:21.755Z</time>
      </trkpt>
      <trkpt lat="42.43875" lon="24.21368">
        <ele>377.14822</ele>
        <time>2022-02-22T16:57:30.452Z</time>
      </trkpt>
      <trkpt lat="42.43884" lon="24.21319">
        <ele>377.158338</ele>
        <time>2022-02-22T16:57:41.999Z</time>
      </trkpt>
      <trkpt lat="42.43885" lon="24.21243">
        <ele>378.558613</ele>
        <time>2022-02-22T16:58:00.846Z</time>
      </trkpt>
      <trkpt lat="42.43884" lon="24.21042">
        <ele>382.353431</ele>
        <time>2022-02-22T16:59:05.480Z</time>
      </trkpt>
      <trkpt lat="42.43884" lon="24.20993">
        <ele>383.371293</ele>
        <time>2022-02-22T16:59:21.860Z</time>
      </trkpt>
      <trkpt lat="42.43886" lon="24.20909">
        <ele>385.108629</ele>
        <time>2022-02-22T16:59:48.725Z</time>
      </trkpt>
      <trkpt lat="42.43893" lon="24.20849">
        <ele>386.363829</ele>
        <time>2022-02-22T17:00:06.766Z</time>
      </trkpt>
      <trkpt lat="42.43921" lon="24.20704">
        <ele>386.834583</ele>
        <time>2022-02-22T17:00:41.557Z</time>
      </trkpt>
      <trkpt lat="42.4394" lon="24.20657">
        <ele>386.894618</ele>
        <time>2022-02-22T17:00:51.208Z</time>
      </trkpt>
      <trkpt lat="42.43978" lon="24.20608">
        <ele>386.884403</ele>
        <time>2022-02-22T17:01:03.698Z</time>
      </trkpt>
      <trkpt lat="42.44005" lon="24.20577">
        <ele>386.662189</ele>
        <time>2022-02-22T17:01:12.169Z</time>
      </trkpt>
      <trkpt lat="42.44164" lon="24.20397">
        <ele>386.122023</ele>
        <time>2022-02-22T17:02:05.986Z</time>
      </trkpt>
      <trkpt lat="42.44275" lon="24.20269">
        <ele>387.000017</ele>
        <time>2022-02-22T17:02:53.360Z</time>
      </trkpt>
      <trkpt lat="42.44291" lon="24.20251">
        <ele>387.243611</ele>
        <time>2022-02-22T17:03:00.558Z</time>
      </trkpt>
      <trkpt lat="42.4432" lon="24.20201">
        <ele>387.773032</ele>
        <time>2022-02-22T17:03:16.027Z</time>
      </trkpt>
      <trkpt lat="42.44339" lon="24.20078">
        <ele>388.806937</ele>
        <time>2022-02-22T17:03:47.353Z</time>
      </trkpt>
      <trkpt lat="42.44376" lon="24.19959">
        <ele>389.740245</ele>
        <time>2022-02-22T17:04:18.509Z</time>
      </trkpt>
      <trkpt lat="42.44394" lon="24.19915">
        <ele>390.109942</ele>
        <time>2022-02-22T17:04:30.778Z</time>
      </trkpt>
      <trkpt lat="42.44537" lon="24.19699">
        <ele>391.488777</ele>
        <time>2022-02-22T17:05:37.338Z</time>
      </trkpt>
      <trkpt lat="42.44634" lon="24.19506">
        <ele>391.366113</ele>
        <time>2022-02-22T17:06:24.452Z</time>
      </trkpt>
      <trkpt lat="42.44656" lon="24.1947">
        <ele>391.533669</ele>
        <time>2022-02-22T17:06:32.560Z</time>
      </trkpt>
      <trkpt lat="42.44687" lon="24.19432">
        <ele>391.74132</ele>
        <time>2022-02-22T17:06:43.463Z</time>
      </trkpt>
      <trkpt lat="42.44702" lon="24.19417">
        <ele>391.8331</ele>
        <time>2022-02-22T17:06:48.568Z</time>
      </trkpt>
      <trkpt lat="42.44724" lon="24.194">
        <ele>391.960174</ele>
        <time>2022-02-22T17:06:55.956Z</time>
      </trkpt>
      <trkpt lat="42.44744" lon="24.19389">
        <ele>392.066035</ele>
        <time>2022-02-22T17:07:02.674Z</time>
      </trkpt>
      <trkpt lat="42.44761" lon="24.19382">
        <ele>392.15178</ele>
        <time>2022-02-22T17:07:08.883Z</time>
      </trkpt>
      <trkpt lat="42.4478" lon="24.19376">
        <ele>392.251655</ele>
        <time>2022-02-22T17:07:16.273Z</time>
      </trkpt>
      <trkpt lat="42.448" lon="24.19372">
        <ele>393.14263</ele>
        <time>2022-02-22T17:07:24.636Z</time>
      </trkpt>
      <trkpt lat="42.44835" lon="24.19371">
        <ele>394.728492</ele>
        <time>2022-02-22T17:07:39.687Z</time>
      </trkpt>
      <trkpt lat="42.44872" lon="24.19375">
        <ele>396.411467</ele>
        <time>2022-02-22T17:07:57.243Z</time>
      </trkpt>
      <trkpt lat="42.44949" lon="24.19385">
        <ele>399.916557</ele>
        <time>2022-02-22T17:08:39.518Z</time>
      </trkpt>
      <trkpt lat="42.45016" lon="24.19386">
        <ele>404.06361</ele>
        <time>2022-02-22T17:09:20.834Z</time>
      </trkpt>
      <trkpt lat="42.45055" lon="24.19379">
        <ele>406.666943</ele>
        <time>2022-02-22T17:09:45.903Z</time>
      </trkpt>
      <trkpt lat="42.45101" lon="24.19361">
        <ele>409.816487</ele>
        <time>2022-02-22T17:10:14.063Z</time>
      </trkpt>
      <trkpt lat="42.45124" lon="24.19348">
        <ele>411.404838</ele>
        <time>2022-02-22T17:10:28.317Z</time>
      </trkpt>
      <trkpt lat="42.45147" lon="24.19333">
        <ele>412.94334</ele>
        <time>2022-02-22T17:10:42.757Z</time>
      </trkpt>
      <trkpt lat="42.45168" lon="24.19319">
        <ele>414.193046</ele>
        <time>2022-02-22T17:10:55.453Z</time>
      </trkpt>
      <trkpt lat="42.45409" lon="24.19145">
        <ele>428.760522</ele>
        <time>2022-02-22T17:13:20.382Z</time>
      </trkpt>
      <trkpt lat="42.45511" lon="24.19071">
        <ele>434.637175</ele>
        <time>2022-02-22T17:14:20.876Z</time>
      </trkpt>
      <trkpt lat="42.45811" lon="24.18853">
        <ele>451.287517</ele>
        <time>2022-02-22T17:17:17.340Z</time>
      </trkpt>
      <trkpt lat="42.45844" lon="24.18822">
        <ele>452.98255</ele>
        <time>2022-02-22T17:17:36.828Z</time>
      </trkpt>
      <trkpt lat="42.459" lon="24.18741">
        <ele>456.398212</ele>
        <time>2022-02-22T17:18:14.686Z</time>
      </trkpt>
      <trkpt lat="42.46151" lon="24.18323">
        <ele>469.91318</ele>
        <time>2022-02-22T17:21:08.421Z</time>
      </trkpt>
      <trkpt lat="42.46177" lon="24.18279">
        <ele>471.409598</ele>
        <time>2022-02-22T17:21:27.346Z</time>
      </trkpt>
      <trkpt lat="42.46181" lon="24.18273">
        <ele>471.646425</ele>
        <time>2022-02-22T17:21:30.300Z</time>
      </trkpt>
      <trkpt lat="42.46194" lon="24.18251">
        <ele>472.380046</ele>
        <time>2022-02-22T17:21:39.523Z</time>
      </trkpt>
      <trkpt lat="42.46372" lon="24.17958">
        <ele>482.388569</ele>
        <time>2022-02-22T17:23:47.566Z</time>
      </trkpt>
      <trkpt lat="42.46647" lon="24.17499">
        <ele>494.186146</ele>
        <time>2022-02-22T17:26:44.177Z</time>
      </trkpt>
      <trkpt lat="42.46697" lon="24.17424">
        <ele>496.083269</ele>
        <time>2022-02-22T17:27:13.647Z</time>
      </trkpt>
      <trkpt lat="42.4675" lon="24.17378">
        <ele>497.678489</ele>
        <time>2022-02-22T17:27:38.401Z</time>
      </trkpt>
      <trkpt lat="42.4699" lon="24.17259">
        <ele>504.424072</ele>
        <time>2022-02-22T17:29:21.092Z</time>
      </trkpt>
      <trkpt lat="42.47039" lon="24.17256">
        <ele>505.790294</ele>
        <time>2022-02-22T17:29:42.048Z</time>
      </trkpt>
      <trkpt lat="42.47076" lon="24.17267">
        <ele>507.171712</ele>
        <time>2022-02-22T17:29:58.501Z</time>
      </trkpt>
      <trkpt lat="42.47098" lon="24.1728">
        <ele>508.075054</ele>
        <time>2022-02-22T17:30:09.154Z</time>
      </trkpt>
      <trkpt lat="42.47119" lon="24.17308">
        <ele>509.191982</ele>
        <time>2022-02-22T17:30:22.505Z</time>
      </trkpt>
      <trkpt lat="42.47146" lon="24.17381">
        <ele>511.45074</ele>
        <time>2022-02-22T17:30:50.234Z</time>
      </trkpt>
      <trkpt lat="42.47186" lon="24.176">
        <ele>519.369505</ele>
        <time>2022-02-22T17:32:13.597Z</time>
      </trkpt>
      <trkpt lat="42.47204" lon="24.17645">
        <ele>521.237668</ele>
        <time>2022-02-22T17:32:34.319Z</time>
      </trkpt>
      <trkpt lat="42.47223" lon="24.17671">
        <ele>522.865922</ele>
        <time>2022-02-22T17:32:49.967Z</time>
      </trkpt>
      <trkpt lat="42.47261" lon="24.17695">
        <ele>525.553577</ele>
        <time>2022-02-22T17:33:14.405Z</time>
      </trkpt>
      <trkpt lat="42.47287" lon="24.17701">
        <ele>527.282887</ele>
        <time>2022-02-22T17:33:30.363Z</time>
      </trkpt>
      <trkpt lat="42.47407" lon="24.17686">
        <ele>534.979298</ele>
        <time>2022-02-22T17:34:42.198Z</time>
      </trkpt>
      <trkpt lat="42.47459" lon="24.17693">
        <ele>538.272522</ele>
        <time>2022-02-22T17:35:12.918Z</time>
      </trkpt>
      <trkpt lat="42.47499" lon="24.17721">
        <ele>541.099016</ele>
        <time>2022-02-22T17:35:38.740Z</time>
      </trkpt>
      <trkpt lat="42.47687" lon="24.17893">
        <ele>555.250011</ele>
        <time>2022-02-22T17:37:48.628Z</time>
      </trkpt>
      <trkpt lat="42.47726" lon="24.17917">
        <ele>557.609205</ele>
        <time>2022-02-22T17:38:14.386Z</time>
      </trkpt>
      <trkpt lat="42.47761" lon="24.17926">
        <ele>559.528371</ele>
        <time>2022-02-22T17:38:35.564Z</time>
      </trkpt>
      <trkpt lat="42.47778" lon="24.17924">
        <ele>560.421137</ele>
        <time>2022-02-22T17:38:45.314Z</time>
      </trkpt>
      <trkpt lat="42.4781" lon="24.1791">
        <ele>562.217754</ele>
        <time>2022-02-22T17:39:04.107Z</time>
      </trkpt>
      <trkpt lat="42.47838" lon="24.17883">
        <ele>564.052573</ele>
        <time>2022-02-22T17:39:22.610Z</time>
      </trkpt>
      <trkpt lat="42.47862" lon="24.17842">
        <ele>565.326821</ele>
        <time>2022-02-22T17:39:42.545Z</time>
      </trkpt>
      <trkpt lat="42.47934" lon="24.17675">
        <ele>563.963777</ele>
        <time>2022-02-22T17:40:16.811Z</time>
      </trkpt>
      <trkpt lat="42.47938" lon="24.17668">
        <ele>563.896704</ele>
        <time>2022-02-22T17:40:18.150Z</time>
      </trkpt>
      <trkpt lat="42.4795" lon="24.17648">
        <ele>563.686037</ele>
        <time>2022-02-22T17:40:21.490Z</time>
      </trkpt>
      <trkpt lat="42.47982" lon="24.17614">
        <ele>561.29615</ele>
        <time>2022-02-22T17:40:29.235Z</time>
      </trkpt>
      <trkpt lat="42.47996" lon="24.17607">
        <ele>560.430656</ele>
        <time>2022-02-22T17:40:31.993Z</time>
      </trkpt>
      <trkpt lat="42.48032" lon="24.17603">
        <ele>558.323704</ele>
        <time>2022-02-22T17:40:38.573Z</time>
      </trkpt>
      <trkpt lat="42.48075" lon="24.17616">
        <ele>555.761271</ele>
        <time>2022-02-22T17:40:46.430Z</time>
      </trkpt>
      <trkpt lat="42.48104" lon="24.1764">
        <ele>553.766672</ele>
        <time>2022-02-22T17:40:52.714Z</time>
      </trkpt>
      <trkpt lat="42.48126" lon="24.17675">
        <ele>551.907682</ele>
        <time>2022-02-22T17:40:59.078Z</time>
      </trkpt>
      <trkpt lat="42.48216" lon="24.17934">
        <ele>540.781785</ele>
        <time>2022-02-22T17:41:38.879Z</time>
      </trkpt>
      <trkpt lat="42.48218" lon="24.17937">
        <ele>540.641619</ele>
        <time>2022-02-22T17:41:39.370Z</time>
      </trkpt>
      <trkpt lat="42.48219" lon="24.17941">
        <ele>540.486477</ele>
        <time>2022-02-22T17:41:39.984Z</time>
      </trkpt>
      <trkpt lat="42.48235" lon="24.1798">
        <ele>538.873637</ele>
        <time>2022-02-22T17:41:46.219Z</time>
      </trkpt>
      <trkpt lat="42.48248" lon="24.18015">
        <ele>537.464654</ele>
        <time>2022-02-22T17:41:51.771Z</time>
      </trkpt>
      <trkpt lat="42.48282" lon="24.18088">
        <ele>534.519345</ele>
        <time>2022-02-22T17:42:03.945Z</time>
      </trkpt>
      <trkpt lat="42.48434" lon="24.18366">
        <ele>528.756911</ele>
        <time>2022-02-22T17:42:58.657Z</time>
      </trkpt>
      <trkpt lat="42.48564" lon="24.18718">
        <ele>527.837923</ele>
        <time>2022-02-22T17:44:18.509Z</time>
      </trkpt>
      <trkpt lat="42.48593" lon="24.18785">
        <ele>528.339443</ele>
        <time>2022-02-22T17:44:37.551Z</time>
      </trkpt>
      <trkpt lat="42.48606" lon="24.18804">
        <ele>528.506131</ele>
        <time>2022-02-22T17:44:43.980Z</time>
      </trkpt>
      <trkpt lat="42.48631" lon="24.18829">
        <ele>528.776821</ele>
        <time>2022-02-22T17:44:54.509Z</time>
      </trkpt>
      <trkpt lat="42.48645" lon="24.18835">
        <ele>528.907744</ele>
        <time>2022-02-22T17:44:59.750Z</time>
      </trkpt>
      <trkpt lat="42.4868" lon="24.18838">
        <ele>529.216211</ele>
        <time>2022-02-22T17:45:12.046Z</time>
      </trkpt>
      <trkpt lat="42.4883" lon="24.18753">
        <ele>528.635159</ele>
        <time>2022-02-22T17:45:57.182Z</time>
      </trkpt>
      <trkpt lat="42.48884" lon="24.18739">
        <ele>527.685495</ele>
        <time>2022-02-22T17:46:08.851Z</time>
      </trkpt>
      <trkpt lat="42.49019" lon="24.18707">
        <ele>523.687007</ele>
        <time>2022-02-22T17:46:36.788Z</time>
      </trkpt>
      <trkpt lat="42.49099" lon="24.18685">
        <ele>521.483369</ele>
        <time>2022-02-22T17:46:53.592Z</time>
      </trkpt>
      <trkpt lat="42.49161" lon="24.18668">
        <ele>519.797399</ele>
        <time>2022-02-22T17:47:07.043Z</time>
      </trkpt>
      <trkpt lat="42.49214" lon="24.18658">
        <ele>518.452314</ele>
        <time>2022-02-22T17:47:18.718Z</time>
      </trkpt>
      <trkpt lat="42.49233" lon="24.18657">
        <ele>518.217684</ele>
        <time>2022-02-22T17:47:22.907Z</time>
      </trkpt>
      <trkpt lat="42.49263" lon="24.1866">
        <ele>517.839084</ele>
        <time>2022-02-22T17:47:29.865Z</time>
      </trkpt>
      <trkpt lat="42.49281" lon="24.18663">
        <ele>517.621811</ele>
        <time>2022-02-22T17:47:33.878Z</time>
      </trkpt>
      <trkpt lat="42.49311" lon="24.18669">
        <ele>517.243369</ele>
        <time>2022-02-22T17:47:41.171Z</time>
      </trkpt>
      <trkpt lat="42.49346" lon="24.18675">
        <ele>516.813196</ele>
        <time>2022-02-22T17:47:49.747Z</time>
      </trkpt>
      <trkpt lat="42.49387" lon="24.18681">
        <ele>516.313801</ele>
        <time>2022-02-22T17:47:59.909Z</time>
      </trkpt>
      <trkpt lat="42.49425" lon="24.18688">
        <ele>516.482021</ele>
        <time>2022-02-22T17:48:10.454Z</time>
      </trkpt>
      <trkpt lat="42.49432" lon="24.18689">
        <ele>516.517298</ele>
        <time>2022-02-22T17:48:12.528Z</time>
      </trkpt>
      <trkpt lat="42.4946" lon="24.18694">
        <ele>516.662611</ele>
        <time>2022-02-22T17:48:21.032Z</time>
      </trkpt>
      <trkpt lat="42.49535" lon="24.18706">
        <ele>517.046481</ele>
        <time>2022-02-22T17:48:44.892Z</time>
      </trkpt>
      <trkpt lat="42.49583" lon="24.18713">
        <ele>517.438182</ele>
        <time>2022-02-22T17:49:00.907Z</time>
      </trkpt>
      <trkpt lat="42.49603" lon="24.18716">
        <ele>517.724922</ele>
        <time>2022-02-22T17:49:07.728Z</time>
      </trkpt>
      <trkpt lat="42.49623" lon="24.18717">
        <ele>517.997976</ele>
        <time>2022-02-22T17:49:14.115Z</time>
      </trkpt>
      <trkpt lat="42.49639" lon="24.18719">
        <ele>518.224389</ele>
        <time>2022-02-22T17:49:19.431Z</time>
      </trkpt>
      <trkpt lat="42.49648" lon="24.1872">
        <ele>518.363097</ele>
        <time>2022-02-22T17:49:22.721Z</time>
      </trkpt>
      <trkpt lat="42.49659" lon="24.18721">
        <ele>518.510259</ele>
        <time>2022-02-22T17:49:26.197Z</time>
      </trkpt>
      <trkpt lat="42.49689" lon="24.18722">
        <ele>518.934032</ele>
        <time>2022-02-22T17:49:36.413Z</time>
      </trkpt>
      <trkpt lat="42.49718" lon="24.18722">
        <ele>519.349251</ele>
        <time>2022-02-22T17:49:47.215Z</time>
      </trkpt>
      <trkpt lat="42.49828" lon="24.18728">
        <ele>521.237235</ele>
        <time>2022-02-22T17:50:27.885Z</time>
      </trkpt>
      <trkpt lat="42.49847" lon="24.18728">
        <ele>521.591947</ele>
        <time>2022-02-22T17:50:35.065Z</time>
      </trkpt>
      <trkpt lat="42.49859" lon="24.18729">
        <ele>521.804546</ele>
        <time>2022-02-22T17:50:39.616Z</time>
      </trkpt>
      <trkpt lat="42.49923" lon="24.18743">
        <ele>522.990734</ele>
        <time>2022-02-22T17:51:03.279Z</time>
      </trkpt>
      <trkpt lat="42.49947" lon="24.18749">
        <ele>523.186341</ele>
        <time>2022-02-22T17:51:11.934Z</time>
      </trkpt>
      <trkpt lat="42.50014" lon="24.18774">
        <ele>523.674199</ele>
        <time>2022-02-22T17:51:35.104Z</time>
      </trkpt>
      <trkpt lat="42.50042" lon="24.18784">
        <ele>523.879588</ele>
        <time>2022-02-22T17:51:43.541Z</time>
      </trkpt>
      <trkpt lat="42.50048" lon="24.18705">
        <ele>524.28865</ele>
        <time>2022-02-22T17:51:59.676Z</time>
      </trkpt>
      <trkpt lat="42.50048" lon="24.18705">
        <ele>524.28865</ele>
        <time>2022-02-22T17:51:59.682Z</time>
      </trkpt>
      <trkpt lat="42.50048" lon="24.18705">
        <ele>524.28865</ele>
        <time>2022-02-22T17:51:59.736Z</time>
      </trkpt>
      <trkpt lat="42.50053" lon="24.18646">
        <ele>524.337067</ele>
        <time>2022-02-22T17:52:11.385Z</time>
      </trkpt>
      <trkpt lat="42.50062" lon="24.18558">
        <ele>524.399716</ele>
        <time>2022-02-22T17:52:28.091Z</time>
      </trkpt>
      <trkpt lat="42.50067" lon="24.1848">
        <ele>524.454892</ele>
        <time>2022-02-22T17:52:44.129Z</time>
      </trkpt>
      <trkpt lat="42.50068" lon="24.18473">
        <ele>524.460268</ele>
        <time>2022-02-22T17:52:45.854Z</time>
      </trkpt>
      <trkpt lat="42.50069" lon="24.18447">
        <ele>524.656416</ele>
        <time>2022-02-22T17:52:51.713Z</time>
      </trkpt>
      <trkpt lat="42.5007" lon="24.18435">
        <ele>524.813775</ele>
        <time>2022-02-22T17:52:54.424Z</time>
      </trkpt>
      <trkpt lat="42.50072" lon="24.18421">
        <ele>525.002052</ele>
        <time>2022-02-22T17:52:57.846Z</time>
      </trkpt>
      <trkpt lat="42.5008" lon="24.18391">
        <ele>525.423299</ele>
        <time>2022-02-22T17:53:05.686Z</time>
      </trkpt>
      <trkpt lat="42.50086" lon="24.18374">
        <ele>525.662579</ele>
        <time>2022-02-22T17:53:10.293Z</time>
      </trkpt>
      <trkpt lat="42.50113" lon="24.18305">
        <ele>526.679869</ele>
        <time>2022-02-22T17:53:31.285Z</time>
      </trkpt>
      <trkpt lat="42.50128" lon="24.1827">
        <ele>527.208012</ele>
        <time>2022-02-22T17:53:42.727Z</time>
      </trkpt>
      <trkpt lat="42.50145" lon="24.18241">
        <ele>527.711164</ele>
        <time>2022-02-22T17:53:53.191Z</time>
      </trkpt>
      <trkpt lat="42.50163" lon="24.18211">
        <ele>528.372394</ele>
        <time>2022-02-22T17:54:03.942Z</time>
      </trkpt>
      <trkpt lat="42.50194" lon="24.18161">
        <ele>529.504555</ele>
        <time>2022-02-22T17:54:23.530Z</time>
      </trkpt>
      <trkpt lat="42.50211" lon="24.18131">
        <ele>530.166545</ele>
        <time>2022-02-22T17:54:34.435Z</time>
      </trkpt>
      <trkpt lat="42.50256" lon="24.18067">
        <ele>531.680293</ele>
        <time>2022-02-22T17:54:57.959Z</time>
      </trkpt>
      <trkpt lat="42.50265" lon="24.18055">
        <ele>531.942438</ele>
        <time>2022-02-22T17:55:02.749Z</time>
      </trkpt>
      <trkpt lat="42.50277" lon="24.18029">
        <ele>532.346311</ele>
        <time>2022-02-22T17:55:10.828Z</time>
      </trkpt>
      <trkpt lat="42.50283" lon="24.18011">
        <ele>532.597371</ele>
        <time>2022-02-22T17:55:16.231Z</time>
      </trkpt>
      <trkpt lat="42.50289" lon="24.17986">
        <ele>532.941244</ele>
        <time>2022-02-22T17:55:22.913Z</time>
      </trkpt>
      <trkpt lat="42.50303" lon="24.17923">
        <ele>533.799881</ele>
        <time>2022-02-22T17:55:40.082Z</time>
      </trkpt>
      <trkpt lat="42.50312" lon="24.17898">
        <ele>534.156171</ele>
        <time>2022-02-22T17:55:46.795Z</time>
      </trkpt>
      <trkpt lat="42.50319" lon="24.17871">
        <ele>534.533407</ele>
        <time>2022-02-22T17:55:54.450Z</time>
      </trkpt>
      <trkpt lat="42.50321" lon="24.17862">
        <ele>534.656234</ele>
        <time>2022-02-22T17:55:56.788Z</time>
      </trkpt>
      <trkpt lat="42.50323" lon="24.1785">
        <ele>534.81302</ele>
        <time>2022-02-22T17:55:59.773Z</time>
      </trkpt>
      <trkpt lat="42.50325" lon="24.17838">
        <ele>534.971098</ele>
        <time>2022-02-22T17:56:03.000Z</time>
      </trkpt>
      <trkpt lat="42.50329" lon="24.17775">
        <ele>535.792694</ele>
        <time>2022-02-22T17:56:18.624Z</time>
      </trkpt>
      <trkpt lat="42.50337" lon="24.17681">
        <ele>537.031805</ele>
        <time>2022-02-22T17:56:43.002Z</time>
      </trkpt>
      <trkpt lat="42.50353" lon="24.17507">
        <ele>539.672633</ele>
        <time>2022-02-22T17:57:29.422Z</time>
      </trkpt>
      <trkpt lat="42.50373" lon="24.17273">
        <ele>543.739371</ele>
        <time>2022-02-22T17:58:37.589Z</time>
      </trkpt>
      <trkpt lat="42.50382" lon="24.17162">
        <ele>545.65466</ele>
        <time>2022-02-22T17:59:08.253Z</time>
      </trkpt>
      <trkpt lat="42.50389" lon="24.17047">
        <ele>547.524742</ele>
        <time>2022-02-22T17:59:39.717Z</time>
      </trkpt>
      <trkpt lat="42.50391" lon="24.17022">
        <ele>547.912666</ele>
        <time>2022-02-22T17:59:46.691Z</time>
      </trkpt>
      <trkpt lat="42.50393" lon="24.16992">
        <ele>548.378026</ele>
        <time>2022-02-22T17:59:54.697Z</time>
      </trkpt>
      <trkpt lat="42.50396" lon="24.16969">
        <ele>548.743046</ele>
        <time>2022-02-22T18:00:01.007Z</time>
      </trkpt>
      <trkpt lat="42.50398" lon="24.1695">
        <ele>549.033105</ele>
        <time>2022-02-22T18:00:05.747Z</time>
      </trkpt>
      <trkpt lat="42.5041" lon="24.16889">
        <ele>550.005055</ele>
        <time>2022-02-22T18:00:22.231Z</time>
      </trkpt>
      <trkpt lat="42.50484" lon="24.16443">
        <ele>558.747027</ele>
        <time>2022-02-22T18:02:33.830Z</time>
      </trkpt>
      <trkpt lat="42.50537" lon="24.16252">
        <ele>563.453544</ele>
        <time>2022-02-22T18:03:37.796Z</time>
      </trkpt>
      <trkpt lat="42.50544" lon="24.16222">
        <ele>564.206531</ele>
        <time>2022-02-22T18:03:47.995Z</time>
      </trkpt>
      <trkpt lat="42.50548" lon="24.16199">
        <ele>564.78699</ele>
        <time>2022-02-22T18:03:55.337Z</time>
      </trkpt>
      <trkpt lat="42.5055" lon="24.16182">
        <ele>565.20234</ele>
        <time>2022-02-22T18:04:00.949Z</time>
      </trkpt>
      <trkpt lat="42.50588" lon="24.15867">
        <ele>572.704639</ele>
        <time>2022-02-22T18:05:38.398Z</time>
      </trkpt>
      <trkpt lat="42.50633" lon="24.15585">
        <ele>580.812354</ele>
        <time>2022-02-22T18:07:11.940Z</time>
      </trkpt>
      <trkpt lat="42.50648" lon="24.15513">
        <ele>583.252096</ele>
        <time>2022-02-22T18:07:39.092Z</time>
      </trkpt>
      <trkpt lat="42.50654" lon="24.15494">
        <ele>583.954518</ele>
        <time>2022-02-22T18:07:47.452Z</time>
      </trkpt>
      <trkpt lat="42.50662" lon="24.15475">
        <ele>584.655912</ele>
        <time>2022-02-22T18:07:55.718Z</time>
      </trkpt>
      <trkpt lat="42.50696" lon="24.15384">
        <ele>588.177397</ele>
        <time>2022-02-22T18:08:34.561Z</time>
      </trkpt>
      <trkpt lat="42.50702" lon="24.15358">
        <ele>589.131656</ele>
        <time>2022-02-22T18:08:45.103Z</time>
      </trkpt>
      <trkpt lat="42.50708" lon="24.15333">
        <ele>590.064367</ele>
        <time>2022-02-22T18:08:55.328Z</time>
      </trkpt>
      <trkpt lat="42.50776" lon="24.15018">
        <ele>600.841633</ele>
        <time>2022-02-22T18:10:49.439Z</time>
      </trkpt>
      <trkpt lat="42.50798" lon="24.1497">
        <ele>602.704245</ele>
        <time>2022-02-22T18:11:09.008Z</time>
      </trkpt>
      <trkpt lat="42.50816" lon="24.14925">
        <ele>604.493176</ele>
        <time>2022-02-22T18:11:27.286Z</time>
      </trkpt>
      <trkpt lat="42.50824" lon="24.14882">
        <ele>606.027028</ele>
        <time>2022-02-22T18:11:43.160Z</time>
      </trkpt>
      <trkpt lat="42.50789" lon="24.14477">
        <ele>620.326289</ele>
        <time>2022-02-22T18:14:15.017Z</time>
      </trkpt>
      <trkpt lat="42.50791" lon="24.14429">
        <ele>621.722634</ele>
        <time>2022-02-22T18:14:32.368Z</time>
      </trkpt>
      <trkpt lat="42.50801" lon="24.14376">
        <ele>623.271754</ele>
        <time>2022-02-22T18:14:50.903Z</time>
      </trkpt>
      <trkpt lat="42.50809" lon="24.14353">
        <ele>623.985086</ele>
        <time>2022-02-22T18:14:59.687Z</time>
      </trkpt>
      <trkpt lat="42.50915" lon="24.14077">
        <ele>630.543785</ele>
        <time>2022-02-22T18:16:30.597Z</time>
      </trkpt>
      <trkpt lat="42.50947" lon="24.13969">
        <ele>631.906674</ele>
        <time>2022-02-22T18:16:58.915Z</time>
      </trkpt>
      <trkpt lat="42.50951" lon="24.13905">
        <ele>632.617443</ele>
        <time>2022-02-22T18:17:14.376Z</time>
      </trkpt>
      <trkpt lat="42.50947" lon="24.13815">
        <ele>633.675965</ele>
        <time>2022-02-22T18:17:36.652Z</time>
      </trkpt>
      <trkpt lat="42.50945" lon="24.13762">
        <ele>634.432556</ele>
        <time>2022-02-22T18:17:49.950Z</time>
      </trkpt>
      <trkpt lat="42.50943" lon="24.13654">
        <ele>635.961576</ele>
        <time>2022-02-22T18:18:18.040Z</time>
      </trkpt>
      <trkpt lat="42.50932" lon="24.13585">
        <ele>637.007814</ele>
        <time>2022-02-22T18:18:37.682Z</time>
      </trkpt>
      <trkpt lat="42.50869" lon="24.13389">
        <ele>641.94363</ele>
        <time>2022-02-22T18:19:42.704Z</time>
      </trkpt>
      <trkpt lat="42.50866" lon="24.13218">
        <ele>646.946699</ele>
        <time>2022-02-22T18:20:41.471Z</time>
      </trkpt>
      <trkpt lat="42.50876" lon="24.13171">
        <ele>648.450305</ele>
        <time>2022-02-22T18:20:59.620Z</time>
      </trkpt>
      <trkpt lat="42.50929" lon="24.12988">
        <ele>652.718542</ele>
        <time>2022-02-22T18:22:05.777Z</time>
      </trkpt>
      <trkpt lat="42.50978" lon="24.12835">
        <ele>653.22586</ele>
        <time>2022-02-22T18:22:41.846Z</time>
      </trkpt>
      <trkpt lat="42.50996" lon="24.12719">
        <ele>651.053648</ele>
        <time>2022-02-22T18:22:59.036Z</time>
      </trkpt>
      <trkpt lat="42.50988" lon="24.12576">
        <ele>646.602666</ele>
        <time>2022-02-22T18:23:18.101Z</time>
      </trkpt>
      <trkpt lat="42.51006" lon="24.12409">
        <ele>640.070751</ele>
        <time>2022-02-22T18:23:40.275Z</time>
      </trkpt>
      <trkpt lat="42.5102" lon="24.12366">
        <ele>638.39909</ele>
        <time>2022-02-22T18:23:46.432Z</time>
      </trkpt>
      <trkpt lat="42.51078" lon="24.12225">
        <ele>632.515253</ele>
        <time>2022-02-22T18:24:08.333Z</time>
      </trkpt>
      <trkpt lat="42.51097" lon="24.12094">
        <ele>627.410206</ele>
        <time>2022-02-22T18:24:26.237Z</time>
      </trkpt>
      <trkpt lat="42.51143" lon="24.11933">
        <ele>620.439962</ele>
        <time>2022-02-22T18:24:48.900Z</time>
      </trkpt>
      <trkpt lat="42.51204" lon="24.11592">
        <ele>604.572976</ele>
        <time>2022-02-22T18:25:34.046Z</time>
      </trkpt>
      <trkpt lat="42.5122" lon="24.11521">
        <ele>601.30638</ele>
        <time>2022-02-22T18:25:43.642Z</time>
      </trkpt>
      <trkpt lat="42.51241" lon="24.11409">
        <ele>597.034805</ele>
        <time>2022-02-22T18:25:59.000Z</time>
      </trkpt>
      <trkpt lat="42.51247" lon="24.11374">
        <ele>595.779808</ele>
        <time>2022-02-22T18:26:03.809Z</time>
      </trkpt>
      <trkpt lat="42.51247" lon="24.11339">
        <ele>594.534745</ele>
        <time>2022-02-22T18:26:08.641Z</time>
      </trkpt>
      <trkpt lat="42.51231" lon="24.11101">
        <ele>587.046687</ele>
        <time>2022-02-22T18:26:41.699Z</time>
      </trkpt>
      <trkpt lat="42.51221" lon="24.11055">
        <ele>585.633684</ele>
        <time>2022-02-22T18:26:48.313Z</time>
      </trkpt>
      <trkpt lat="42.51203" lon="24.11025">
        <ele>584.490444</ele>
        <time>2022-02-22T18:26:53.691Z</time>
      </trkpt>
      <trkpt lat="42.51185" lon="24.11007">
        <ele>583.681357</ele>
        <time>2022-02-22T18:26:57.932Z</time>
      </trkpt>
      <trkpt lat="42.50972" lon="24.10806">
        <ele>575.614737</ele>
        <time>2022-02-22T18:27:47.912Z</time>
      </trkpt>
      <trkpt lat="42.50965" lon="24.10793">
        <ele>575.335989</ele>
        <time>2022-02-22T18:27:50.365Z</time>
      </trkpt>
      <trkpt lat="42.50962" lon="24.10768">
        <ele>574.886987</ele>
        <time>2022-02-22T18:27:54.393Z</time>
      </trkpt>
      <trkpt lat="42.50968" lon="24.10729">
        <ele>574.176271</ele>
        <time>2022-02-22T18:28:00.980Z</time>
      </trkpt>
      <trkpt lat="42.50986" lon="24.1069">
        <ele>573.8908</ele>
        <time>2022-02-22T18:28:08.825Z</time>
      </trkpt>
      <trkpt lat="42.51152" lon="24.10445">
        <ele>577.703108</ele>
        <time>2022-02-22T18:29:28.055Z</time>
      </trkpt>
      <trkpt lat="42.51193" lon="24.10367">
        <ele>579.920432</ele>
        <time>2022-02-22T18:30:01.188Z</time>
      </trkpt>
      <trkpt lat="42.51237" lon="24.1027">
        <ele>584.584126</ele>
        <time>2022-02-22T18:30:46.678Z</time>
      </trkpt>
      <trkpt lat="42.51265" lon="24.10211">
        <ele>588.034706</ele>
        <time>2022-02-22T18:31:17.590Z</time>
      </trkpt>
      <trkpt lat="42.51305" lon="24.10117">
        <ele>593.484502</ele>
        <time>2022-02-22T18:32:08.339Z</time>
      </trkpt>
      <trkpt lat="42.51345" lon="24.0997">
        <ele>602.144753</ele>
        <time>2022-02-22T18:33:20.775Z</time>
      </trkpt>
      <trkpt lat="42.51479" lon="24.09724">
        <ele>618.98159</ele>
        <time>2022-02-22T18:35:41.383Z</time>
      </trkpt>
      <trkpt lat="42.51537" lon="24.0955">
        <ele>629.453732</ele>
        <time>2022-02-22T18:37:11.427Z</time>
      </trkpt>
      <trkpt lat="42.51545" lon="24.09505">
        <ele>631.974697</ele>
        <time>2022-02-22T18:37:32.508Z</time>
      </trkpt>
      <trkpt lat="42.51546" lon="24.09464">
        <ele>633.967776</ele>
        <time>2022-02-22T18:37:50.587Z</time>
      </trkpt>
      <trkpt lat="42.51529" lon="24.09196">
        <ele>645.31879</ele>
        <time>2022-02-22T18:39:38.362Z</time>
      </trkpt>
      <trkpt lat="42.5155" lon="24.08728">
        <ele>661.118724</ele>
        <time>2022-02-22T18:42:22.867Z</time>
      </trkpt>
      <trkpt lat="42.51555" lon="24.08695">
        <ele>662.465833</ele>
        <time>2022-02-22T18:42:35.193Z</time>
      </trkpt>
      <trkpt lat="42.51576" lon="24.08648">
        <ele>664.601803</ele>
        <time>2022-02-22T18:42:57.820Z</time>
      </trkpt>
      <trkpt lat="42.51593" lon="24.08624">
        <ele>665.922919</ele>
        <time>2022-02-22T18:43:09.840Z</time>
      </trkpt>
      <trkpt lat="42.51629" lon="24.08591">
        <ele>668.20091</ele>
        <time>2022-02-22T18:43:32.902Z</time>
      </trkpt>
      <trkpt lat="42.51633" lon="24.08588">
        <ele>668.453752</ele>
        <time>2022-02-22T18:43:37.021Z</time>
      </trkpt>
      <trkpt lat="42.51645" lon="24.08578">
        <ele>669.198637</ele>
        <time>2022-02-22T18:43:44.289Z</time>
      </trkpt>
      <trkpt lat="42.51658" lon="24.08554">
        <ele>670.228316</ele>
        <time>2022-02-22T18:43:56.176Z</time>
      </trkpt>
      <trkpt lat="42.51676" lon="24.08476">
        <ele>672.841101</ele>
        <time>2022-02-22T18:44:26.853Z</time>
      </trkpt>
      <trkpt lat="42.51679" lon="24.08451">
        <ele>673.654866</ele>
        <time>2022-02-22T18:44:37.708Z</time>
      </trkpt>
      <trkpt lat="42.51679" lon="24.08426">
        <ele>674.438608</ele>
        <time>2022-02-22T18:44:45.728Z</time>
      </trkpt>
      <trkpt lat="42.51667" lon="24.08371">
        <ele>676.253377</ele>
        <time>2022-02-22T18:45:05.078Z</time>
      </trkpt>
      <trkpt lat="42.51651" lon="24.08341">
        <ele>677.436428</ele>
        <time>2022-02-22T18:45:15.214Z</time>
      </trkpt>
      <trkpt lat="42.51625" lon="24.08312">
        <ele>677.566071</ele>
        <time>2022-02-22T18:45:27.055Z</time>
      </trkpt>
      <trkpt lat="42.5161" lon="24.08296">
        <ele>677.6397</ele>
        <time>2022-02-22T18:45:33.510Z</time>
      </trkpt>
      <trkpt lat="42.51585" lon="24.08266">
        <ele>677.771048</ele>
        <time>2022-02-22T18:45:43.993Z</time>
      </trkpt>
      <trkpt lat="42.51576" lon="24.08254">
        <ele>677.817562</ele>
        <time>2022-02-22T18:45:47.298Z</time>
      </trkpt>
      <trkpt lat="42.5157" lon="24.08242">
        <ele>677.859507</ele>
        <time>2022-02-22T18:45:50.080Z</time>
      </trkpt>
      <trkpt lat="42.51568" lon="24.08223">
        <ele>677.914007</ele>
        <time>2022-02-22T18:45:53.646Z</time>
      </trkpt>
      <trkpt lat="42.51563" lon="24.0813">
        <ele>677.87771</ele>
        <time>2022-02-22T18:46:09.936Z</time>
      </trkpt>
      <trkpt lat="42.51559" lon="24.08012">
        <ele>676.135337</ele>
        <time>2022-02-22T18:46:27.724Z</time>
      </trkpt>
      <trkpt lat="42.51556" lon="24.07916">
        <ele>674.72191</ele>
        <time>2022-02-22T18:46:42.614Z</time>
      </trkpt>
      <trkpt lat="42.51553" lon="24.07826">
        <ele>672.671449</ele>
        <time>2022-02-22T18:46:56.370Z</time>
      </trkpt>
      <trkpt lat="42.51592" lon="24.07823">
        <ele>671.396284</ele>
        <time>2022-02-22T18:47:04.710Z</time>
      </trkpt>
      <trkpt lat="42.51609" lon="24.07827">
        <ele>670.838292</ele>
        <time>2022-02-22T18:47:08.389Z</time>
      </trkpt>
      <trkpt lat="42.51655" lon="24.07615">
        <ele>663.184582</ele>
        <time>2022-02-22T18:47:39.728Z</time>
      </trkpt>
      <trkpt lat="42.51656" lon="24.07599">
        <ele>662.535871</ele>
        <time>2022-02-22T18:47:41.905Z</time>
      </trkpt>
      <trkpt lat="42.51655" lon="24.07591">
        <ele>662.177441</ele>
        <time>2022-02-22T18:47:42.991Z</time>
      </trkpt>
      <trkpt lat="42.51657" lon="24.07585">
        <ele>661.897123</ele>
        <time>2022-02-22T18:47:43.778Z</time>
      </trkpt>
      <trkpt lat="42.51673" lon="24.07526">
        <ele>659.251642</ele>
        <time>2022-02-22T18:47:51.838Z</time>
      </trkpt>
      <trkpt lat="42.517" lon="24.07411">
        <ele>654.103973</ele>
        <time>2022-02-22T18:48:07.212Z</time>
      </trkpt>
      <trkpt lat="42.51712" lon="24.07362">
        <ele>651.891521</ele>
        <time>2022-02-22T18:48:13.936Z</time>
      </trkpt>
      <trkpt lat="42.51721" lon="24.07322">
        <ele>650.077515</ele>
        <time>2022-02-22T18:48:19.528Z</time>
      </trkpt>
      <trkpt lat="42.51726" lon="24.07305">
        <ele>649.30004</ele>
        <time>2022-02-22T18:48:21.945Z</time>
      </trkpt>
      <trkpt lat="42.51745" lon="24.0726">
        <ele>647.20786</ele>
        <time>2022-02-22T18:48:28.888Z</time>
      </trkpt>
      <trkpt lat="42.51778" lon="24.0719">
        <ele>644.072833</ele>
        <time>2022-02-22T18:48:40.237Z</time>
      </trkpt>
      <trkpt lat="42.51792" lon="24.07166">
        <ele>642.936617</ele>
        <time>2022-02-22T18:48:44.210Z</time>
      </trkpt>
      <trkpt lat="42.51829" lon="24.07107">
        <ele>640.042273</ele>
        <time>2022-02-22T18:48:54.745Z</time>
      </trkpt>
      <trkpt lat="42.51867" lon="24.07071">
        <ele>637.55141</ele>
        <time>2022-02-22T18:49:02.951Z</time>
      </trkpt>
      <trkpt lat="42.5187" lon="24.07066">
        <ele>637.271129</ele>
        <time>2022-02-22T18:49:03.729Z</time>
      </trkpt>
      <trkpt lat="42.51874" lon="24.07054">
        <ele>636.69569</ele>
        <time>2022-02-22T18:49:05.542Z</time>
      </trkpt>
      <trkpt lat="42.51875" lon="24.07034">
        <ele>635.86802</ele>
        <time>2022-02-22T18:49:08.240Z</time>
      </trkpt>
      <trkpt lat="42.51872" lon="24.07028">
        <ele>635.575552</ele>
        <time>2022-02-22T18:49:09.101Z</time>
      </trkpt>
      <trkpt lat="42.51862" lon="24.07017">
        <ele>634.825541</ele>
        <time>2022-02-22T18:49:11.299Z</time>
      </trkpt>
      <trkpt lat="42.51848" lon="24.07004">
        <ele>633.860706</ele>
        <time>2022-02-22T18:49:14.499Z</time>
      </trkpt>
      <trkpt lat="42.51825" lon="24.06983">
        <ele>632.284264</ele>
        <time>2022-02-22T18:49:19.290Z</time>
      </trkpt>
      <trkpt lat="42.51815" lon="24.06975">
        <ele>631.598847</ele>
        <time>2022-02-22T18:49:21.467Z</time>
      </trkpt>
      <trkpt lat="42.51762" lon="24.06959">
        <ele>628.540607</ele>
        <time>2022-02-22T18:49:30.737Z</time>
      </trkpt>
      <trkpt lat="42.51742" lon="24.06947">
        <ele>627.746884</ele>
        <time>2022-02-22T18:49:34.754Z</time>
      </trkpt>
      <trkpt lat="42.5166" lon="24.06868">
        <ele>624.133897</ele>
        <time>2022-02-22T18:49:53.947Z</time>
      </trkpt>
      <trkpt lat="42.51615" lon="24.06813">
        <ele>622.090075</ele>
        <time>2022-02-22T18:50:06.232Z</time>
      </trkpt>
      <trkpt lat="42.51468" lon="24.06575">
        <ele>619.662566</ele>
        <time>2022-02-22T18:51:01.747Z</time>
      </trkpt>
      <trkpt lat="42.51429" lon="24.06504">
        <ele>618.61022</ele>
        <time>2022-02-22T18:51:17.095Z</time>
      </trkpt>
      <trkpt lat="42.51339" lon="24.06315">
        <ele>612.953683</ele>
        <time>2022-02-22T18:51:49.641Z</time>
      </trkpt>
      <trkpt lat="42.51245" lon="24.06154">
        <ele>604.690926</ele>
        <time>2022-02-22T18:52:15.936Z</time>
      </trkpt>
      <trkpt lat="42.51185" lon="24.06085">
        <ele>599.599911</ele>
        <time>2022-02-22T18:52:29.440Z</time>
      </trkpt>
      <trkpt lat="42.51163" lon="24.06044">
        <ele>597.33751</ele>
        <time>2022-02-22T18:52:35.987Z</time>
      </trkpt>
      <trkpt lat="42.51126" lon="24.05835">
        <ele>589.376173</ele>
        <time>2022-02-22T18:53:04.882Z</time>
      </trkpt>
      <trkpt lat="42.51123" lon="24.05647">
        <ele>583.572634</ele>
        <time>2022-02-22T18:53:31.091Z</time>
      </trkpt>
      <trkpt lat="42.51119" lon="24.05602">
        <ele>582.216599</ele>
        <time>2022-02-22T18:53:37.249Z</time>
      </trkpt>
      <trkpt lat="42.51104" lon="24.05555">
        <ele>580.46151</ele>
        <time>2022-02-22T18:53:44.364Z</time>
      </trkpt>
      <trkpt lat="42.5108" lon="24.05502">
        <ele>578.197296</ele>
        <time>2022-02-22T18:53:52.681Z</time>
      </trkpt>
      <trkpt lat="42.51077" lon="24.05479">
        <ele>577.329353</ele>
        <time>2022-02-22T18:53:55.844Z</time>
      </trkpt>
      <trkpt lat="42.51083" lon="24.05448">
        <ele>576.13167</ele>
        <time>2022-02-22T18:54:00.165Z</time>
      </trkpt>
      <trkpt lat="42.51107" lon="24.05399">
        <ele>573.983633</ele>
        <time>2022-02-22T18:54:07.859Z</time>
      </trkpt>
      <trkpt lat="42.51118" lon="24.05362">
        <ele>572.49652</ele>
        <time>2022-02-22T18:54:13.176Z</time>
      </trkpt>
      <trkpt lat="42.51128" lon="24.05216">
        <ele>566.373018</ele>
        <time>2022-02-22T18:54:32.484Z</time>
      </trkpt>
      <trkpt lat="42.5116" lon="24.05123">
        <ele>562.141422</ele>
        <time>2022-02-22T18:54:45.635Z</time>
      </trkpt>
      <trkpt lat="42.5116" lon="24.04997">
        <ele>557.124119</ele>
        <time>2022-02-22T18:55:02.159Z</time>
      </trkpt>
      <trkpt lat="42.51142" lon="24.04963">
        <ele>555.498379</ele>
        <time>2022-02-22T18:55:07.561Z</time>
      </trkpt>
      <trkpt lat="42.51011" lon="24.04782">
        <ele>546.671191</ele>
        <time>2022-02-22T18:55:42.116Z</time>
      </trkpt>
      <trkpt lat="42.50997" lon="24.04742">
        <ele>545.209298</ele>
        <time>2022-02-22T18:55:48.269Z</time>
      </trkpt>
      <trkpt lat="42.5097" lon="24.04626">
        <ele>541.281635</ele>
        <time>2022-02-22T18:56:04.848Z</time>
      </trkpt>
      <trkpt lat="42.50955" lon="24.04594">
        <ele>540.036174</ele>
        <time>2022-02-22T18:56:10.099Z</time>
      </trkpt>
      <trkpt lat="42.50889" lon="24.04502">
        <ele>535.955974</ele>
        <time>2022-02-22T18:56:27.539Z</time>
      </trkpt>
      <trkpt lat="42.50835" lon="24.0436">
        <ele>531.071251</ele>
        <time>2022-02-22T18:56:49.512Z</time>
      </trkpt>
      <trkpt lat="42.50687" lon="24.04238">
        <ele>524.161989</ele>
        <time>2022-02-22T18:57:22.413Z</time>
      </trkpt>
      <trkpt lat="42.50648" lon="24.04201">
        <ele>522.300375</ele>
        <time>2022-02-22T18:57:31.253Z</time>
      </trkpt>
      <trkpt lat="42.50578" lon="24.04087">
        <ele>518.116016</ele>
        <time>2022-02-22T18:57:51.744Z</time>
      </trkpt>
      <trkpt lat="42.5056" lon="24.04039">
        <ele>516.587997</ele>
        <time>2022-02-22T18:57:59.339Z</time>
      </trkpt>
      <trkpt lat="42.50538" lon="24.03922">
        <ele>513.634555</ele>
        <time>2022-02-22T18:58:16.666Z</time>
      </trkpt>
      <trkpt lat="42.50548" lon="24.0377">
        <ele>510.204942</ele>
        <time>2022-02-22T18:58:39.183Z</time>
      </trkpt>
      <trkpt lat="42.5056" lon="24.0372">
        <ele>508.924741</ele>
        <time>2022-02-22T18:58:46.767Z</time>
      </trkpt>
      <trkpt lat="42.50612" lon="24.03579">
        <ele>504.894121</ele>
        <time>2022-02-22T18:59:09.219Z</time>
      </trkpt>
      <trkpt lat="42.50652" lon="24.03448">
        <ele>501.240434</ele>
        <time>2022-02-22T18:59:28.876Z</time>
      </trkpt>
      <trkpt lat="42.50678" lon="24.03274">
        <ele>496.771174</ele>
        <time>2022-02-22T18:59:54.242Z</time>
      </trkpt>
      <trkpt lat="42.50708" lon="24.03125">
        <ele>493.746609</ele>
        <time>2022-02-22T19:00:17.345Z</time>
      </trkpt>
      <trkpt lat="42.50714" lon="24.03022">
        <ele>491.732361</ele>
        <time>2022-02-22T19:00:33.037Z</time>
      </trkpt>
      <trkpt lat="42.50691" lon="24.02919">
        <ele>489.641259</ele>
        <time>2022-02-22T19:00:49.331Z</time>
      </trkpt>
      <trkpt lat="42.50627" lon="24.02819">
        <ele>486.977922</ele>
        <time>2022-02-22T19:01:08.737Z</time>
      </trkpt>
      <trkpt lat="42.50589" lon="24.02642">
        <ele>482.907811</ele>
        <time>2022-02-22T19:01:35.470Z</time>
      </trkpt>
      <trkpt lat="42.50542" lon="24.02497">
        <ele>479.543608</ele>
        <time>2022-02-22T19:01:58.656Z</time>
      </trkpt>
      <trkpt lat="42.50511" lon="24.02257">
        <ele>474.464074</ele>
        <time>2022-02-22T19:02:34.755Z</time>
      </trkpt>
      <trkpt lat="42.50441" lon="24.02085">
        <ele>470.012331</ele>
        <time>2022-02-22T19:03:03.478Z</time>
      </trkpt>
      <trkpt lat="42.50435" lon="24.02053">
        <ele>469.195372</ele>
        <time>2022-02-22T19:03:08.120Z</time>
      </trkpt>
      <trkpt lat="42.50437" lon="24.01987">
        <ele>467.519285</ele>
        <time>2022-02-22T19:03:17.575Z</time>
      </trkpt>
      <trkpt lat="42.50434" lon="24.01957">
        <ele>466.772023</ele>
        <time>2022-02-22T19:03:21.730Z</time>
      </trkpt>
      <trkpt lat="42.50401" lon="24.01886">
        <ele>464.571645</ele>
        <time>2022-02-22T19:03:33.459Z</time>
      </trkpt>
      <trkpt lat="42.50382" lon="24.01831">
        <ele>462.962864</ele>
        <time>2022-02-22T19:03:41.816Z</time>
      </trkpt>
      <trkpt lat="42.50378" lon="24.01781">
        <ele>461.61174</ele>
        <time>2022-02-22T19:03:48.922Z</time>
      </trkpt>
      <trkpt lat="42.50387" lon="24.01627">
        <ele>458.488522</ele>
        <time>2022-02-22T19:04:11.345Z</time>
      </trkpt>
      <trkpt lat="42.50373" lon="24.01493">
        <ele>456.581951</ele>
        <time>2022-02-22T19:04:33.219Z</time>
      </trkpt>
      <trkpt lat="42.50373" lon="24.01439">
        <ele>455.992662</ele>
        <time>2022-02-22T19:04:42.587Z</time>
      </trkpt>
      <trkpt lat="42.50395" lon="24.01225">
        <ele>454.451445</ele>
        <time>2022-02-22T19:05:21.235Z</time>
      </trkpt>
      <trkpt lat="42.50412" lon="24.00974">
        <ele>449.512303</ele>
        <time>2022-02-22T19:05:59.058Z</time>
      </trkpt>
      <trkpt lat="42.50443" lon="24.0077">
        <ele>442.065425</ele>
        <time>2022-02-22T19:06:26.477Z</time>
      </trkpt>
      <trkpt lat="42.50432" lon="24.00732">
        <ele>440.755925</ele>
        <time>2022-02-22T19:06:32.074Z</time>
      </trkpt>
      <trkpt lat="42.50385" lon="24.0066">
        <ele>439.070372</ele>
        <time>2022-02-22T19:06:45.442Z</time>
      </trkpt>
      <trkpt lat="42.50381" lon="24.00651">
        <ele>438.887144</ele>
        <time>2022-02-22T19:06:46.802Z</time>
      </trkpt>
      <trkpt lat="42.5038" lon="24.00582">
        <ele>437.689446</ele>
        <time>2022-02-22T19:06:59.233Z</time>
      </trkpt>
      <trkpt lat="42.50385" lon="24.0051">
        <ele>436.657709</ele>
        <time>2022-02-22T19:07:13.052Z</time>
      </trkpt>
      <trkpt lat="42.50393" lon="24.00467">
        <ele>436.667691</ele>
        <time>2022-02-22T19:07:23.111Z</time>
      </trkpt>
      <trkpt lat="42.50398" lon="24.0045">
        <ele>436.671928</ele>
        <time>2022-02-22T19:07:26.869Z</time>
      </trkpt>
      <trkpt lat="42.50403" lon="24.0042">
        <ele>436.678838</ele>
        <time>2022-02-22T19:07:34.544Z</time>
      </trkpt>
      <trkpt lat="42.50407" lon="24.00398">
        <ele>436.683782</ele>
        <time>2022-02-22T19:07:40.864Z</time>
      </trkpt>
      <trkpt lat="42.50411" lon="24.00377">
        <ele>436.688633</ele>
        <time>2022-02-22T19:07:44.744Z</time>
      </trkpt>
      <trkpt lat="42.5044" lon="24.00238">
        <ele>435.742538</ele>
        <time>2022-02-22T19:08:12.744Z</time>
      </trkpt>
      <trkpt lat="42.50449" lon="24.00211">
        <ele>435.158386</ele>
        <time>2022-02-22T19:08:17.858Z</time>
      </trkpt>
      <trkpt lat="42.50453" lon="24.00202">
        <ele>434.964748</ele>
        <time>2022-02-22T19:08:19.407Z</time>
      </trkpt>
      <trkpt lat="42.50461" lon="24.00192">
        <ele>434.688583</ele>
        <time>2022-02-22T19:08:21.663Z</time>
      </trkpt>
      <trkpt lat="42.50497" lon="24.00153">
        <ele>433.488403</ele>
        <time>2022-02-22T19:08:31.135Z</time>
      </trkpt>
      <trkpt lat="42.50505" lon="24.00144">
        <ele>433.220154</ele>
        <time>2022-02-22T19:08:33.029Z</time>
      </trkpt>
      <trkpt lat="42.5051" lon="24.00145">
        <ele>433.096252</ele>
        <time>2022-02-22T19:08:34.045Z</time>
      </trkpt>
      <trkpt lat="42.50522" lon="24.00163">
        <ele>432.648457</ele>
        <time>2022-02-22T19:08:37.724Z</time>
      </trkpt>
      <trkpt lat="42.50548" lon="24.00153">
        <ele>431.951663</ele>
        <time>2022-02-22T19:08:42.907Z</time>
      </trkpt>
      <trkpt lat="42.50552" lon="24.00148">
        <ele>431.791847</ele>
        <time>2022-02-22T19:08:44.261Z</time>
      </trkpt>
      <trkpt lat="42.50587" lon="24.00103">
        <ele>430.467721</ele>
        <time>2022-02-22T19:08:53.772Z</time>
      </trkpt>
      <trkpt lat="42.50592" lon="24.00107">
        <ele>430.306394</ele>
        <time>2022-02-22T19:08:54.794Z</time>
      </trkpt>
      <trkpt lat="42.50609" lon="24.00102">
        <ele>429.852872</ele>
        <time>2022-02-22T19:08:58.636Z</time>
      </trkpt>
      <trkpt lat="42.50676" lon="24.0003">
        <ele>427.48956</ele>
        <time>2022-02-22T19:09:17.322Z</time>
      </trkpt>
      <trkpt lat="42.50687" lon="24.00021">
        <ele>427.153298</ele>
        <time>2022-02-22T19:09:19.627Z</time>
      </trkpt>
      <trkpt lat="42.507" lon="24.00012">
        <ele>427.289925</ele>
        <time>2022-02-22T19:09:24.199Z</time>
      </trkpt>
      <trkpt lat="42.50724" lon="24.00002">
        <ele>427.578983</ele>
        <time>2022-02-22T19:09:29.803Z</time>
      </trkpt>
      <trkpt lat="42.50843" lon="23.99995">
        <ele>428.954535</ele>
        <time>2022-02-22T19:10:11.611Z</time>
      </trkpt>
      <trkpt lat="42.5092" lon="24.00004">
        <ele>431.075654</ele>
        <time>2022-02-22T19:10:48.827Z</time>
      </trkpt>
      <trkpt lat="42.50984" lon="24.00089">
        <ele>434.068771</ele>
        <time>2022-02-22T19:11:35.986Z</time>
      </trkpt>
      <trkpt lat="42.51076" lon="24.0019">
        <ele>434.143967</ele>
        <time>2022-02-22T19:12:07.033Z</time>
      </trkpt>
      <trkpt lat="42.51081" lon="24.00193">
        <ele>434.075383</ele>
        <time>2022-02-22T19:12:10.280Z</time>
      </trkpt>
      <trkpt lat="42.51099" lon="24.00109">
        <ele>433.244908</ele>
        <time>2022-02-22T19:12:23.470Z</time>
      </trkpt>
      <trkpt lat="42.51103" lon="24.00079">
        <ele>432.959867</ele>
        <time>2022-02-22T19:12:29.891Z</time>
      </trkpt>
      <trkpt lat="42.51104" lon="24.00068">
        <ele>432.864345</ele>
        <time>2022-02-22T19:12:31.218Z</time>
      </trkpt>
      <trkpt lat="42.51179" lon="24.00107">
        <ele>431.999461</ele>
        <time>2022-02-22T19:12:46.853Z</time>
      </trkpt>
      <trkpt lat="42.51389" lon="24.0021">
        <ele>431.038447</ele>
        <time>2022-02-22T19:13:55.694Z</time>
      </trkpt>
      <trkpt lat="42.5143" lon="24.0022">
        <ele>431.064158</ele>
        <time>2022-02-22T19:14:05.804Z</time>
      </trkpt>
      <trkpt lat="42.51469" lon="24.00216">
        <ele>430.076605</ele>
        <time>2022-02-22T19:14:14.127Z</time>
      </trkpt>
      <trkpt lat="42.51592" lon="24.00187">
        <ele>425.756425</ele>
        <time>2022-02-22T19:14:37.634Z</time>
      </trkpt>
      <trkpt lat="42.51638" lon="24.00159">
        <ele>424.1911</ele>
        <time>2022-02-22T19:14:46.791Z</time>
      </trkpt>
      <trkpt lat="42.51672" lon="24.00112">
        <ele>422.830443</ele>
        <time>2022-02-22T19:14:56.067Z</time>
      </trkpt>
      <trkpt lat="42.51741" lon="23.99998">
        <ele>419.888647</ele>
        <time>2022-02-22T19:15:18.564Z</time>
      </trkpt>
      <trkpt lat="42.51775" lon="23.99958">
        <ele>420.123482</ele>
        <time>2022-02-22T19:15:30.289Z</time>
      </trkpt>
      <trkpt lat="42.51807" lon="23.99938">
        <ele>420.304033</ele>
        <time>2022-02-22T19:15:40.592Z</time>
      </trkpt>
      <trkpt lat="42.51842" lon="23.99925">
        <ele>420.493342</ele>
        <time>2022-02-22T19:15:52.195Z</time>
      </trkpt>
      <trkpt lat="42.51962" lon="23.99913">
        <ele>421.060737</ele>
        <time>2022-02-22T19:16:33.084Z</time>
      </trkpt>
      <trkpt lat="42.51992" lon="23.99921">
        <ele>421.191821</ele>
        <time>2022-02-22T19:16:42.266Z</time>
      </trkpt>
      <trkpt lat="42.52014" lon="23.9994">
        <ele>421.30276</ele>
        <time>2022-02-22T19:16:49.304Z</time>
      </trkpt>
      <trkpt lat="42.52043" lon="23.99991">
        <ele>421.506507</ele>
        <time>2022-02-22T19:17:01.604Z</time>
      </trkpt>
      <trkpt lat="42.52111" lon="24.0012">
        <ele>421.033986</ele>
        <time>2022-02-22T19:17:29.371Z</time>
      </trkpt>
      <trkpt lat="42.52185" lon="24.00258">
        <ele>421.167457</ele>
        <time>2022-02-22T19:18:00.428Z</time>
      </trkpt>
      <trkpt lat="42.52204" lon="24.00282">
        <ele>421.501095</ele>
        <time>2022-02-22T19:18:08.359Z</time>
      </trkpt>
      <trkpt lat="42.5223" lon="24.00295">
        <ele>421.843433</ele>
        <time>2022-02-22T19:18:17.270Z</time>
      </trkpt>
      <trkpt lat="42.52327" lon="24.00312">
        <ele>423.592822</ele>
        <time>2022-02-22T19:18:53.678Z</time>
      </trkpt>
      <trkpt lat="42.52361" lon="24.00305">
        <ele>425.080291</ele>
        <time>2022-02-22T19:19:08.140Z</time>
      </trkpt>
      <trkpt lat="42.52536" lon="24.00203">
        <ele>433.974641</ele>
        <time>2022-02-22T19:20:45.457Z</time>
      </trkpt>
      <trkpt lat="42.52553" lon="24.00184">
        <ele>435.1506</ele>
        <time>2022-02-22T19:20:58.161Z</time>
      </trkpt>
      <trkpt lat="42.52635" lon="24.00046">
        <ele>441.303295</ele>
        <time>2022-02-22T19:22:08.705Z</time>
      </trkpt>
      <trkpt lat="42.52782" lon="23.99914">
        <ele>445.440765</ele>
        <time>2022-02-22T19:23:13.639Z</time>
      </trkpt>
      <trkpt lat="42.52804" lon="23.999">
        <ele>445.483923</ele>
        <time>2022-02-22T19:23:19.523Z</time>
      </trkpt>
      <trkpt lat="42.52854" lon="23.99883">
        <ele>445.574589</ele>
        <time>2022-02-22T19:23:31.595Z</time>
      </trkpt>
      <trkpt lat="42.52904" lon="23.99881">
        <ele>445.663102</ele>
        <time>2022-02-22T19:23:44.208Z</time>
      </trkpt>
      <trkpt lat="42.52916" lon="23.99887">
        <ele>445.685939</ele>
        <time>2022-02-22T19:23:47.585Z</time>
      </trkpt>
      <trkpt lat="42.52923" lon="23.99894">
        <ele>445.702492</ele>
        <time>2022-02-22T19:23:49.675Z</time>
      </trkpt>
      <trkpt lat="42.52938" lon="23.99926">
        <ele>446.405304</ele>
        <time>2022-02-22T19:23:57.330Z</time>
      </trkpt>
      <trkpt lat="42.52952" lon="23.99986">
        <ele>447.634012</ele>
        <time>2022-02-22T19:24:12.174Z</time>
      </trkpt>
      <trkpt lat="42.52965" lon="24.00004">
        <ele>448.11307</ele>
        <time>2022-02-22T19:24:19.767Z</time>
      </trkpt>
      <trkpt lat="42.53059" lon="24.00034">
        <ele>450.72667</ele>
        <time>2022-02-22T19:25:05.025Z</time>
      </trkpt>
      <trkpt lat="42.53083" lon="24.0003">
        <ele>451.559124</ele>
        <time>2022-02-22T19:25:17.485Z</time>
      </trkpt>
      <trkpt lat="42.53108" lon="24.00009">
        <ele>452.575805</ele>
        <time>2022-02-22T19:25:32.351Z</time>
      </trkpt>
      <trkpt lat="42.53116" lon="23.99989">
        <ele>453.169326</ele>
        <time>2022-02-22T19:25:41.003Z</time>
      </trkpt>
      <trkpt lat="42.53127" lon="23.9984">
        <ele>456.451205</ele>
        <time>2022-02-22T19:26:27.462Z</time>
      </trkpt>
      <trkpt lat="42.5316" lon="23.99742">
        <ele>454.356529</ele>
        <time>2022-02-22T19:26:45.532Z</time>
      </trkpt>
      <trkpt lat="42.53176" lon="23.99714">
        <ele>453.65215</ele>
        <time>2022-02-22T19:26:50.686Z</time>
      </trkpt>
      <trkpt lat="42.53264" lon="23.99622">
        <ele>448.992676</ele>
        <time>2022-02-22T19:27:10.277Z</time>
      </trkpt>
      <trkpt lat="42.53396" lon="23.9956">
        <ele>440.332533</ele>
        <time>2022-02-22T19:27:34.243Z</time>
      </trkpt>
      <trkpt lat="42.53436" lon="23.99554">
        <ele>439.50263</ele>
        <time>2022-02-22T19:27:41.640Z</time>
      </trkpt>
      <trkpt lat="42.53458" lon="23.99559">
        <ele>439.042678</ele>
        <time>2022-02-22T19:27:45.839Z</time>
      </trkpt>
      <trkpt lat="42.53506" lon="23.99568">
        <ele>438.039651</ele>
        <time>2022-02-22T19:27:56.093Z</time>
      </trkpt>
      <trkpt lat="42.53549" lon="23.99568">
        <ele>437.140006</ele>
        <time>2022-02-22T19:28:06.848Z</time>
      </trkpt>
      <trkpt lat="42.53743" lon="23.99494">
        <ele>441.391303</ele>
        <time>2022-02-22T19:29:26.745Z</time>
      </trkpt>
      <trkpt lat="42.53774" lon="23.99454">
        <ele>442.569908</ele>
        <time>2022-02-22T19:29:46.632Z</time>
      </trkpt>
      <trkpt lat="42.53822" lon="23.99338">
        <ele>445.205656</ele>
        <time>2022-02-22T19:30:25.666Z</time>
      </trkpt>
      <trkpt lat="42.53838" lon="23.99306">
        <ele>445.974527</ele>
        <time>2022-02-22T19:30:36.735Z</time>
      </trkpt>
      <trkpt lat="42.53869" lon="23.9925">
        <ele>446.610772</ele>
        <time>2022-02-22T19:30:54.842Z</time>
      </trkpt>
      <trkpt lat="42.54042" lon="23.98986">
        <ele>448.004299</ele>
        <time>2022-02-22T19:32:10.062Z</time>
      </trkpt>
      <trkpt lat="42.54086" lon="23.98944">
        <ele>448.079832</ele>
        <time>2022-02-22T19:32:23.767Z</time>
      </trkpt>
      <trkpt lat="42.54198" lon="23.98876">
        <ele>446.688561</ele>
        <time>2022-02-22T19:32:52.244Z</time>
      </trkpt>
      <trkpt lat="42.54379" lon="23.98808">
        <ele>443.629099</ele>
        <time>2022-02-22T19:33:32.499Z</time>
      </trkpt>
      <trkpt lat="42.54424" lon="23.98805">
        <ele>442.792594</ele>
        <time>2022-02-22T19:33:42.010Z</time>
      </trkpt>
      <trkpt lat="42.54482" lon="23.98812">
        <ele>441.788432</ele>
        <time>2022-02-22T19:33:54.380Z</time>
      </trkpt>
      <trkpt lat="42.54752" lon="23.98875">
        <ele>437.925582</ele>
        <time>2022-02-22T19:34:54.356Z</time>
      </trkpt>
      <trkpt lat="42.54831" lon="23.98893">
        <ele>437.744638</ele>
        <time>2022-02-22T19:35:15.668Z</time>
      </trkpt>
      <trkpt lat="42.54891" lon="23.98919">
        <ele>438.057015</ele>
        <time>2022-02-22T19:35:34.183Z</time>
      </trkpt>
      <trkpt lat="42.5516" lon="23.99105">
        <ele>440.657707</ele>
        <time>2022-02-22T19:37:09.183Z</time>
      </trkpt>
      <trkpt lat="42.55188" lon="23.99143">
        <ele>441.024003</ele>
        <time>2022-02-22T19:37:21.269Z</time>
      </trkpt>
      <trkpt lat="42.55206" lon="23.99181">
        <ele>441.332748</ele>
        <time>2022-02-22T19:37:31.379Z</time>
      </trkpt>
      <trkpt lat="42.55244" lon="23.99314">
        <ele>442.548894</ele>
        <time>2022-02-22T19:38:04.323Z</time>
      </trkpt>
      <trkpt lat="42.55253" lon="23.9933">
        <ele>442.75097</ele>
        <time>2022-02-22T19:38:09.053Z</time>
      </trkpt>
      <trkpt lat="42.55265" lon="23.99342">
        <ele>442.973615</ele>
        <time>2022-02-22T19:38:14.225Z</time>
      </trkpt>
      <trkpt lat="42.55283" lon="23.99349">
        <ele>443.233048</ele>
        <time>2022-02-22T19:38:20.303Z</time>
      </trkpt>
      <trkpt lat="42.55317" lon="23.99338">
        <ele>443.725728</ele>
        <time>2022-02-22T19:38:32.134Z</time>
      </trkpt>
      <trkpt lat="42.5532" lon="23.99335">
        <ele>443.786802</ele>
        <time>2022-02-22T19:38:33.852Z</time>
      </trkpt>
      <trkpt lat="42.55549" lon="23.99137">
        <ele>447.911042</ele>
        <time>2022-02-22T19:40:10.273Z</time>
      </trkpt>
      <trkpt lat="42.55594" lon="23.99115">
        <ele>448.164104</ele>
        <time>2022-02-22T19:40:24.558Z</time>
      </trkpt>
      <trkpt lat="42.55823" lon="23.99136">
        <ele>448.18121</ele>
        <time>2022-02-22T19:41:22.070Z</time>
      </trkpt>
      <trkpt lat="42.55855" lon="23.9912">
        <ele>448.080155</ele>
        <time>2022-02-22T19:41:30.991Z</time>
      </trkpt>
      <trkpt lat="42.55882" lon="23.99094">
        <ele>448.171655</ele>
        <time>2022-02-22T19:41:39.872Z</time>
      </trkpt>
      <trkpt lat="42.55907" lon="23.99079">
        <ele>448.24738</ele>
        <time>2022-02-22T19:41:47.182Z</time>
      </trkpt>
      <trkpt lat="42.55961" lon="23.99058">
        <ele>448.407513</ele>
        <time>2022-02-22T19:42:03.245Z</time>
      </trkpt>
      <trkpt lat="42.56225" lon="23.99011">
        <ele>449.553817</ele>
        <time>2022-02-22T19:43:21.814Z</time>
      </trkpt>
      <trkpt lat="42.56467" lon="23.98933">
        <ele>449.256048</ele>
        <time>2022-02-22T19:44:25.954Z</time>
      </trkpt>
      <trkpt lat="42.56496" lon="23.98929">
        <ele>449.183798</ele>
        <time>2022-02-22T19:44:33.189Z</time>
      </trkpt>
      <trkpt lat="42.56539" lon="23.98933">
        <ele>449.076348</ele>
        <time>2022-02-22T19:44:44.083Z</time>
      </trkpt>
      <trkpt lat="42.56609" lon="23.98981">
        <ele>449.100706</ele>
        <time>2022-02-22T19:45:04.363Z</time>
      </trkpt>
      <trkpt lat="42.56825" lon="23.9916">
        <ele>449.747665</ele>
        <time>2022-02-22T19:46:15.616Z</time>
      </trkpt>
      <trkpt lat="42.5685" lon="23.99187">
        <ele>449.871328</ele>
        <time>2022-02-22T19:46:25.127Z</time>
      </trkpt>
      <trkpt lat="42.56868" lon="23.99242">
        <ele>450.133586</ele>
        <time>2022-02-22T19:46:38.346Z</time>
      </trkpt>
      <trkpt lat="42.56885" lon="23.99405">
        <ele>450.94948</ele>
        <time>2022-02-22T19:47:14.880Z</time>
      </trkpt>
      <trkpt lat="42.56877" lon="23.99446">
        <ele>451.174841</ele>
        <time>2022-02-22T19:47:23.986Z</time>
      </trkpt>
      <trkpt lat="42.56832" lon="23.9957">
        <ele>452.194156</ele>
        <time>2022-02-22T19:47:53.896Z</time>
      </trkpt>
      <trkpt lat="42.56828" lon="23.99605">
        <ele>452.453151</ele>
        <time>2022-02-22T19:48:02.062Z</time>
      </trkpt>
      <trkpt lat="42.56827" lon="23.99633">
        <ele>452.659785</ele>
        <time>2022-02-22T19:48:09.377Z</time>
      </trkpt>
      <trkpt lat="42.56834" lon="23.99664">
        <ele>452.898162</ele>
        <time>2022-02-22T19:48:17.641Z</time>
      </trkpt>
      <trkpt lat="42.56845" lon="23.99684">
        <ele>453.271465</ele>
        <time>2022-02-22T19:48:23.984Z</time>
      </trkpt>
      <trkpt lat="42.56864" lon="23.99692">
        <ele>453.72016</ele>
        <time>2022-02-22T19:48:31.616Z</time>
      </trkpt>
      <trkpt lat="42.56884" lon="23.99689">
        <ele>454.173326</ele>
        <time>2022-02-22T19:48:38.609Z</time>
      </trkpt>
      <trkpt lat="42.56902" lon="23.99678">
        <ele>454.608398</ele>
        <time>2022-02-22T19:48:46.461Z</time>
      </trkpt>
      <trkpt lat="42.56992" lon="23.99581">
        <ele>457.079384</ele>
        <time>2022-02-22T19:49:30.867Z</time>
      </trkpt>
      <trkpt lat="42.57037" lon="23.99518">
        <ele>457.896118</ele>
        <time>2022-02-22T19:49:54.237Z</time>
      </trkpt>
      <trkpt lat="42.5707" lon="23.99491">
        <ele>458.389907</ele>
        <time>2022-02-22T19:50:06.503Z</time>
      </trkpt>
      <trkpt lat="42.57095" lon="23.99479">
        <ele>458.731592</ele>
        <time>2022-02-22T19:50:14.423Z</time>
      </trkpt>
      <trkpt lat="42.57148" lon="23.9947">
        <ele>459.314971</ele>
        <time>2022-02-22T19:50:29.369Z</time>
      </trkpt>
      <trkpt lat="42.57226" lon="23.99491">
        <ele>459.761964</ele>
        <time>2022-02-22T19:50:51.601Z</time>
      </trkpt>
      <trkpt lat="42.57251" lon="23.99504">
        <ele>459.912022</ele>
        <time>2022-02-22T19:50:59.162Z</time>
      </trkpt>
      <trkpt lat="42.57378" lon="23.99618">
        <ele>460.734281</ele>
        <time>2022-02-22T19:51:47.335Z</time>
      </trkpt>
      <trkpt lat="42.57451" lon="23.99711">
        <ele>460.992552</ele>
        <time>2022-02-22T19:52:15.760Z</time>
      </trkpt>
      <trkpt lat="42.57488" lon="23.99771">
        <ele>460.049042</ele>
        <time>2022-02-22T19:52:28.657Z</time>
      </trkpt>
      <trkpt lat="42.57607" lon="23.99992">
        <ele>457.064472</ele>
        <time>2022-02-22T19:53:10.337Z</time>
      </trkpt>
      <trkpt lat="42.5765" lon="24.00064">
        <ele>456.195249</ele>
        <time>2022-02-22T19:53:26.672Z</time>
      </trkpt>
      <trkpt lat="42.57678" lon="24.00133">
        <ele>456.146526</ele>
        <time>2022-02-22T19:53:43.192Z</time>
      </trkpt>
      <trkpt lat="42.57682" lon="24.00175">
        <ele>456.313347</ele>
        <time>2022-02-22T19:53:52.901Z</time>
      </trkpt>
      <trkpt lat="42.57668" lon="24.00657">
        <ele>458.777962</ele>
        <time>2022-02-22T19:55:39.084Z</time>
      </trkpt>
      <trkpt lat="42.57675" lon="24.00683">
        <ele>458.994837</ele>
        <time>2022-02-22T19:55:45.270Z</time>
      </trkpt>
      <trkpt lat="42.57687" lon="24.00703">
        <ele>459.203559</ele>
        <time>2022-02-22T19:55:51.355Z</time>
      </trkpt>
      <trkpt lat="42.57783" lon="24.00815">
        <ele>461.042465</ele>
        <time>2022-02-22T19:56:33.843Z</time>
      </trkpt>
      <trkpt lat="42.57814" lon="24.00843">
        <ele>461.7983</ele>
        <time>2022-02-22T19:56:47.403Z</time>
      </trkpt>
      <trkpt lat="42.57917" lon="24.00892">
        <ele>464.013596</ele>
        <time>2022-02-22T19:57:28.877Z</time>
      </trkpt>
      <trkpt lat="42.57961" lon="24.0089">
        <ele>464.890881</ele>
        <time>2022-02-22T19:57:45.648Z</time>
      </trkpt>
      <trkpt lat="42.58" lon="24.00869">
        <ele>465.718955</ele>
        <time>2022-02-22T19:58:01.156Z</time>
      </trkpt>
      <trkpt lat="42.58016" lon="24.0085">
        <ele>466.144846</ele>
        <time>2022-02-22T19:58:09.005Z</time>
      </trkpt>
      <trkpt lat="42.58144" lon="24.00606">
        <ele>469.342991</ele>
        <time>2022-02-22T19:59:23.146Z</time>
      </trkpt>
      <trkpt lat="42.582" lon="24.00457">
        <ele>469.771291</ele>
        <time>2022-02-22T19:59:58.854Z</time>
      </trkpt>
      <trkpt lat="42.58226" lon="24.00411">
        <ele>469.867964</ele>
        <time>2022-02-22T20:00:09.992Z</time>
      </trkpt>
      <trkpt lat="42.58307" lon="24.00319">
        <ele>469.357631</ele>
        <time>2022-02-22T20:00:35.508Z</time>
      </trkpt>
      <trkpt lat="42.58324" lon="24.00305">
        <ele>469.210534</ele>
        <time>2022-02-22T20:00:40.056Z</time>
      </trkpt>
      <trkpt lat="42.58342" lon="24.00301">
        <ele>469.070902</ele>
        <time>2022-02-22T20:00:44.388Z</time>
      </trkpt>
      <trkpt lat="42.58434" lon="24.00339">
        <ele>468.464669</ele>
        <time>2022-02-22T20:01:07.033Z</time>
      </trkpt>
      <trkpt lat="42.58452" lon="24.00353">
        <ele>468.385082</ele>
        <time>2022-02-22T20:01:12.074Z</time>
      </trkpt>
      <trkpt lat="42.58589" lon="24.00529">
        <ele>467.841795</ele>
        <time>2022-02-22T20:02:00.734Z</time>
      </trkpt>
      <trkpt lat="42.58639" lon="24.00635">
        <ele>467.755928</ele>
        <time>2022-02-22T20:02:25.139Z</time>
      </trkpt>
      <trkpt lat="42.58658" lon="24.00656">
        <ele>467.733348</ele>
        <time>2022-02-22T20:02:31.597Z</time>
      </trkpt>
      <trkpt lat="42.58705" lon="24.00676">
        <ele>467.984792</ele>
        <time>2022-02-22T20:02:44.706Z</time>
      </trkpt>
      <trkpt lat="42.58756" lon="24.00672">
        <ele>468.254533</ele>
        <time>2022-02-22T20:02:59.179Z</time>
      </trkpt>
      <trkpt lat="42.58778" lon="24.00665">
        <ele>468.373045</ele>
        <time>2022-02-22T20:03:05.461Z</time>
      </trkpt>
      <trkpt lat="42.59039" lon="24.00595">
        <ele>471.422622</ele>
        <time>2022-02-22T20:04:32.874Z</time>
      </trkpt>
      <trkpt lat="42.59092" lon="24.00594">
        <ele>472.285493</ele>
        <time>2022-02-22T20:04:50.888Z</time>
      </trkpt>
      <trkpt lat="42.59197" lon="24.00649">
        <ele>474.219812</ele>
        <time>2022-02-22T20:05:29.951Z</time>
      </trkpt>
      <trkpt lat="42.59366" lon="24.00712">
        <ele>478.427366</ele>
        <time>2022-02-22T20:06:37.160Z</time>
      </trkpt>
      <trkpt lat="42.59434" lon="24.00715">
        <ele>480.166413</ele>
        <time>2022-02-22T20:07:05.280Z</time>
      </trkpt>
      <trkpt lat="42.59463" lon="24.00723">
        <ele>480.946534</ele>
        <time>2022-02-22T20:07:17.852Z</time>
      </trkpt>
      <trkpt lat="42.59486" lon="24.0074">
        <ele>481.609851</ele>
        <time>2022-02-22T20:07:28.398Z</time>
      </trkpt>
      <trkpt lat="42.59502" lon="24.00761">
        <ele>482.180586</ele>
        <time>2022-02-22T20:07:37.178Z</time>
      </trkpt>
      <trkpt lat="42.59569" lon="24.00882">
        <ele>482.755723</ele>
        <time>2022-02-22T20:08:14.021Z</time>
      </trkpt>
      <trkpt lat="42.59593" lon="24.00913">
        <ele>482.726062</ele>
        <time>2022-02-22T20:08:22.279Z</time>
      </trkpt>
      <trkpt lat="42.59647" lon="24.00965">
        <ele>482.563205</ele>
        <time>2022-02-22T20:08:36.316Z</time>
      </trkpt>
      <trkpt lat="42.59709" lon="24.00995">
        <ele>481.064199</ele>
        <time>2022-02-22T20:08:49.566Z</time>
      </trkpt>
      <trkpt lat="42.59768" lon="24.01012">
        <ele>479.684422</ele>
        <time>2022-02-22T20:09:01.697Z</time>
      </trkpt>
      <trkpt lat="42.59785" lon="24.01014">
        <ele>479.300949</ele>
        <time>2022-02-22T20:09:05.192Z</time>
      </trkpt>
      <trkpt lat="42.59844" lon="24.00983">
        <ele>478.635648</ele>
        <time>2022-02-22T20:09:18.911Z</time>
      </trkpt>
      <trkpt lat="42.59872" lon="24.00978">
        <ele>478.668285</ele>
        <time>2022-02-22T20:09:26.156Z</time>
      </trkpt>
      <trkpt lat="42.59949" lon="24.00972">
        <ele>478.755167</ele>
        <time>2022-02-22T20:09:49.068Z</time>
      </trkpt>
      <trkpt lat="42.59968" lon="24.00961">
        <ele>478.777772</ele>
        <time>2022-02-22T20:09:56.333Z</time>
      </trkpt>
      <trkpt lat="42.59978" lon="24.00951">
        <ele>478.792577</ele>
        <time>2022-02-22T20:10:00.168Z</time>
      </trkpt>
      <trkpt lat="42.60032" lon="24.00876">
        <ele>479.357612</ele>
        <time>2022-02-22T20:10:25.451Z</time>
      </trkpt>
      <trkpt lat="42.60055" lon="24.00856">
        <ele>479.584813</ele>
        <time>2022-02-22T20:10:34.432Z</time>
      </trkpt>
      <trkpt lat="42.60058" lon="24.00853">
        <ele>479.612327</ele>
        <time>2022-02-22T20:10:35.366Z</time>
      </trkpt>
      <trkpt lat="42.60066" lon="24.0084">
        <ele>479.714377</ele>
        <time>2022-02-22T20:10:39.937Z</time>
      </trkpt>
      <trkpt lat="42.6007" lon="24.00838">
        <ele>479.746772</ele>
        <time>2022-02-22T20:10:41.925Z</time>
      </trkpt>
      <trkpt lat="42.60079" lon="24.00835">
        <ele>479.826813</ele>
        <time>2022-02-22T20:10:46.547Z</time>
      </trkpt>
      <trkpt lat="42.60092" lon="24.00837">
        <ele>479.929033</ele>
        <time>2022-02-22T20:10:51.938Z</time>
      </trkpt>
      <trkpt lat="42.60101" lon="24.00846">
        <ele>480.026814</ele>
        <time>2022-02-22T20:10:58.023Z</time>
      </trkpt>
      <trkpt lat="42.60108" lon="24.00864">
        <ele>480.148874</ele>
        <time>2022-02-22T20:11:04.584Z</time>
      </trkpt>
      <trkpt lat="42.60111" lon="24.00876">
        <ele>480.222618</ele>
        <time>2022-02-22T20:11:08.455Z</time>
      </trkpt>
      <trkpt lat="42.60102" lon="24.00994">
        <ele>480.96572</ele>
        <time>2022-02-22T20:11:49.837Z</time>
      </trkpt>
      <trkpt lat="42.60107" lon="24.01004">
        <ele>481.041625</ele>
        <time>2022-02-22T20:11:53.988Z</time>
      </trkpt>
      <trkpt lat="42.60164" lon="24.01023">
        <ele>481.539538</ele>
        <time>2022-02-22T20:12:22.251Z</time>
      </trkpt>
      <trkpt lat="42.6019" lon="24.01044">
        <ele>481.80411</ele>
        <time>2022-02-22T20:12:38.446Z</time>
      </trkpt>
      <trkpt lat="42.60263" lon="24.01105">
        <ele>482.811168</ele>
        <time>2022-02-22T20:13:22.058Z</time>
      </trkpt>
      <trkpt lat="42.60274" lon="24.01117">
        <ele>482.976608</ele>
        <time>2022-02-22T20:13:29.585Z</time>
      </trkpt>
      <trkpt lat="42.60281" lon="24.01136">
        <ele>483.165973</ele>
        <time>2022-02-22T20:13:37.303Z</time>
      </trkpt>
      <trkpt lat="42.60295" lon="24.01176">
        <ele>483.549413</ele>
        <time>2022-02-22T20:13:53.870Z</time>
      </trkpt>
      <trkpt lat="42.60298" lon="24.01185">
        <ele>483.632019</ele>
        <time>2022-02-22T20:13:57.185Z</time>
      </trkpt>
      <trkpt lat="42.60326" lon="24.01274">
        <ele>484.348709</ele>
        <time>2022-02-22T20:14:31.697Z</time>
      </trkpt>
      <trkpt lat="42.60336" lon="24.01292">
        <ele>484.494529</ele>
        <time>2022-02-22T20:14:39.746Z</time>
      </trkpt>
      <trkpt lat="42.60351" lon="24.01304">
        <ele>484.650942</ele>
        <time>2022-02-22T20:14:47.689Z</time>
      </trkpt>
      <trkpt lat="42.60371" lon="24.01307">
        <ele>484.831977</ele>
        <time>2022-02-22T20:14:57.145Z</time>
      </trkpt>
      <trkpt lat="42.60709" lon="24.01289">
        <ele>488.520552</ele>
        <time>2022-02-22T20:17:45.185Z</time>
      </trkpt>
      <trkpt lat="42.60741" lon="24.0128">
        <ele>488.955645</ele>
        <time>2022-02-22T20:18:02.036Z</time>
      </trkpt>
      <trkpt lat="42.60776" lon="24.01257">
        <ele>489.482759</ele>
        <time>2022-02-22T20:18:22.485Z</time>
      </trkpt>
      <trkpt lat="42.60866" lon="24.01178">
        <ele>490.961719</ele>
        <time>2022-02-22T20:19:18.076Z</time>
      </trkpt>
      <trkpt lat="42.60965" lon="24.01092">
        <ele>492.546907</ele>
        <time>2022-02-22T20:20:17.977Z</time>
      </trkpt>
      <trkpt lat="42.61079" lon="24.01038">
        <ele>493.611899</ele>
        <time>2022-02-22T20:21:16.601Z</time>
      </trkpt>
      <trkpt lat="42.61262" lon="24.00885">
        <ele>495.264464</ele>
        <time>2022-02-22T20:22:59.347Z</time>
      </trkpt>
      <trkpt lat="42.6129" lon="24.00856">
        <ele>495.610429</ele>
        <time>2022-02-22T20:23:16.531Z</time>
      </trkpt>
      <trkpt lat="42.61352" lon="24.00746">
        <ele>496.716472</ele>
        <time>2022-02-22T20:24:07.294Z</time>
      </trkpt>
      <trkpt lat="42.61535" lon="24.00471">
        <ele>500.400984</ele>
        <time>2022-02-22T20:26:24.815Z</time>
      </trkpt>
      <trkpt lat="42.61622" lon="24.00235">
        <ele>503.982238</ele>
        <time>2022-02-22T20:28:11.291Z</time>
      </trkpt>
      <trkpt lat="42.61652" lon="24.00176">
        <ele>504.886474</ele>
        <time>2022-02-22T20:28:40.560Z</time>
      </trkpt>
      <trkpt lat="42.61707" lon="24.001">
        <ele>506.037683</ele>
        <time>2022-02-22T20:29:20.848Z</time>
      </trkpt>
      <trkpt lat="42.61748" lon="23.99989">
        <ele>505.058122</ele>
        <time>2022-02-22T20:30:00.680Z</time>
      </trkpt>
      <trkpt lat="42.61771" lon="23.99958">
        <ele>504.712229</ele>
        <time>2022-02-22T20:30:12.991Z</time>
      </trkpt>
      <trkpt lat="42.61797" lon="23.99934">
        <ele>504.372893</ele>
        <time>2022-02-22T20:30:24.491Z</time>
      </trkpt>
      <trkpt lat="42.61829" lon="23.99922">
        <ele>503.734904</ele>
        <time>2022-02-22T20:30:36.133Z</time>
      </trkpt>
      <trkpt lat="42.61941" lon="23.99926">
        <ele>500.313757</ele>
        <time>2022-02-22T20:31:15.110Z</time>
      </trkpt>
      <trkpt lat="42.62006" lon="23.99882">
        <ele>498.972007</ele>
        <time>2022-02-22T20:31:41.307Z</time>
      </trkpt>
      <trkpt lat="42.62076" lon="23.99834">
        <ele>500.024842</ele>
        <time>2022-02-22T20:32:17.152Z</time>
      </trkpt>
      <trkpt lat="42.6209" lon="23.99827">
        <ele>500.232346</ele>
        <time>2022-02-22T20:32:25.549Z</time>
      </trkpt>
      <trkpt lat="42.6212" lon="23.9982">
        <ele>500.640271</ele>
        <time>2022-02-22T20:32:42.884Z</time>
      </trkpt>
      <trkpt lat="42.62121" lon="23.99762">
        <ele>501.535549</ele>
        <time>2022-02-22T20:33:03.569Z</time>
      </trkpt>
      <trkpt lat="42.62105" lon="23.9958">
        <ele>509.436682</ele>
        <time>2022-02-22T20:34:20.953Z</time>
      </trkpt>
      <trkpt lat="42.62107" lon="23.99529">
        <ele>511.644787</ele>
        <time>2022-02-22T20:34:43.450Z</time>
      </trkpt>
      <trkpt lat="42.62127" lon="23.99389">
        <ele>517.878833</ele>
        <time>2022-02-22T20:35:43.996Z</time>
      </trkpt>
      <trkpt lat="42.62121" lon="23.99237">
        <ele>523.822764</ele>
        <time>2022-02-22T20:36:46.201Z</time>
      </trkpt>
      <trkpt lat="42.62104" lon="23.99053">
        <ele>529.081461</ele>
        <time>2022-02-22T20:37:47.927Z</time>
      </trkpt>
      <trkpt lat="42.62106" lon="23.98978">
        <ele>529.646323</ele>
        <time>2022-02-22T20:38:07.801Z</time>
      </trkpt>
      <trkpt lat="42.62109" lon="23.98942">
        <ele>529.812821</ele>
        <time>2022-02-22T20:38:16.481Z</time>
      </trkpt>
      <trkpt lat="42.62121" lon="23.98876">
        <ele>530.128452</ele>
        <time>2022-02-22T20:38:31.154Z</time>
      </trkpt>
      <trkpt lat="42.62285" lon="23.98156">
        <ele>526.296469</ele>
        <time>2022-02-22T20:40:47.158Z</time>
      </trkpt>
      <trkpt lat="42.6238" lon="23.97827">
        <ele>525.718999</ele>
        <time>2022-02-22T20:41:55.771Z</time>
      </trkpt>
      <trkpt lat="42.62452" lon="23.97609">
        <ele>527.367798</ele>
        <time>2022-02-22T20:42:52.977Z</time>
      </trkpt>
      <trkpt lat="42.62526" lon="23.97371">
        <ele>531.28296</ele>
        <time>2022-02-22T20:44:04.880Z</time>
      </trkpt>
      <trkpt lat="42.62538" lon="23.97325">
        <ele>532.283888</ele>
        <time>2022-02-22T20:44:19.757Z</time>
      </trkpt>
      <trkpt lat="42.62584" lon="23.9705">
        <ele>537.961974</ele>
        <time>2022-02-22T20:45:49.076Z</time>
      </trkpt>
      <trkpt lat="42.62601" lon="23.96998">
        <ele>539.088355</ele>
        <time>2022-02-22T20:46:05.593Z</time>
      </trkpt>
      <trkpt lat="42.62646" lon="23.96903">
        <ele>540.322663</ele>
        <time>2022-02-22T20:46:35.207Z</time>
      </trkpt>
      <trkpt lat="42.6276" lon="23.96731">
        <ele>541.652569</ele>
        <time>2022-02-22T20:47:25.901Z</time>
      </trkpt>
      <trkpt lat="42.6279" lon="23.96674">
        <ele>541.93943</ele>
        <time>2022-02-22T20:47:40.835Z</time>
      </trkpt>
      <trkpt lat="42.62925" lon="23.96371">
        <ele>544.075743</ele>
        <time>2022-02-22T20:49:03.877Z</time>
      </trkpt>
      <trkpt lat="42.62973" lon="23.96271">
        <ele>545.870325</ele>
        <time>2022-02-22T20:49:35.027Z</time>
      </trkpt>
      <trkpt lat="42.63127" lon="23.95959">
        <ele>553.062082</ele>
        <time>2022-02-22T20:51:27.545Z</time>
      </trkpt>
      <trkpt lat="42.63284" lon="23.95646">
        <ele>564.347154</ele>
        <time>2022-02-22T20:53:41.751Z</time>
      </trkpt>
      <trkpt lat="42.63335" lon="23.95542">
        <ele>567.928533</ele>
        <time>2022-02-22T20:54:24.878Z</time>
      </trkpt>
      <trkpt lat="42.63365" lon="23.95492">
        <ele>569.314454</ele>
        <time>2022-02-22T20:54:45.778Z</time>
      </trkpt>
      <trkpt lat="42.6339" lon="23.95468">
        <ele>570.222974</ele>
        <time>2022-02-22T20:54:58.980Z</time>
      </trkpt>
      <trkpt lat="42.63455" lon="23.95419">
        <ele>572.377912</ele>
        <time>2022-02-22T20:55:28.529Z</time>
      </trkpt>
      <trkpt lat="42.63498" lon="23.95393">
        <ele>573.388644</ele>
        <time>2022-02-22T20:55:46.482Z</time>
      </trkpt>
      <trkpt lat="42.63648" lon="23.95335">
        <ele>576.244622</ele>
        <time>2022-02-22T20:56:42.120Z</time>
      </trkpt>
      <trkpt lat="42.637" lon="23.95307">
        <ele>577.311949</ele>
        <time>2022-02-22T20:57:02.395Z</time>
      </trkpt>
      <trkpt lat="42.63747" lon="23.95268">
        <ele>578.362747</ele>
        <time>2022-02-22T20:57:22.771Z</time>
      </trkpt>
      <trkpt lat="42.63794" lon="23.95217">
        <ele>579.512183</ele>
        <time>2022-02-22T20:57:45.593Z</time>
      </trkpt>
      <trkpt lat="42.6383" lon="23.95161">
        <ele>580.749069</ele>
        <time>2022-02-22T20:58:06.379Z</time>
      </trkpt>
      <trkpt lat="42.63865" lon="23.9509">
        <ele>582.170522</ele>
        <time>2022-02-22T20:58:30.495Z</time>
      </trkpt>
      <trkpt lat="42.63921" lon="23.94946">
        <ele>585.039188</ele>
        <time>2022-02-22T20:59:17.780Z</time>
      </trkpt>
      <trkpt lat="42.63936" lon="23.94906">
        <ele>585.893825</ele>
        <time>2022-02-22T20:59:31.336Z</time>
      </trkpt>
      <trkpt lat="42.63946" lon="23.9488">
        <ele>586.452107</ele>
        <time>2022-02-22T20:59:40.302Z</time>
      </trkpt>
      <trkpt lat="42.64046" lon="23.9463">
        <ele>591.168091</ele>
        <time>2022-02-22T21:01:03.588Z</time>
      </trkpt>
      <trkpt lat="42.64077" lon="23.94571">
        <ele>592.061388</ele>
        <time>2022-02-22T21:01:21.699Z</time>
      </trkpt>
      <trkpt lat="42.64157" lon="23.94447">
        <ele>592.787435</ele>
        <time>2022-02-22T21:01:57.929Z</time>
      </trkpt>
      <trkpt lat="42.64165" lon="23.94434">
        <ele>592.860196</ele>
        <time>2022-02-22T21:02:01.569Z</time>
      </trkpt>
      <trkpt lat="42.64179" lon="23.94414">
        <ele>592.984977</ele>
        <time>2022-02-22T21:02:07.591Z</time>
      </trkpt>
      <trkpt lat="42.64201" lon="23.94382">
        <ele>593.130728</ele>
        <time>2022-02-22T21:02:16.775Z</time>
      </trkpt>
      <trkpt lat="42.64219" lon="23.94352">
        <ele>593.246724</ele>
        <time>2022-02-22T21:02:25.329Z</time>
      </trkpt>
      <trkpt lat="42.64257" lon="23.94288">
        <ele>593.489287</ele>
        <time>2022-02-22T21:02:43.644Z</time>
      </trkpt>
      <trkpt lat="42.64384" lon="23.94024">
        <ele>593.980403</ele>
        <time>2022-02-22T21:03:52.331Z</time>
      </trkpt>
      <trkpt lat="42.64485" lon="23.93876">
        <ele>592.856045</ele>
        <time>2022-02-22T21:04:27.971Z</time>
      </trkpt>
      <trkpt lat="42.64543" lon="23.93796">
        <ele>592.194177</ele>
        <time>2022-02-22T21:04:48.438Z</time>
      </trkpt>
      <trkpt lat="42.6457" lon="23.93744">
        <ele>591.859463</ele>
        <time>2022-02-22T21:05:00.661Z</time>
      </trkpt>
      <trkpt lat="42.64588" lon="23.93708">
        <ele>591.632815</ele>
        <time>2022-02-22T21:05:08.575Z</time>
      </trkpt>
      <trkpt lat="42.64678" lon="23.93395">
        <ele>589.796651</ele>
        <time>2022-02-22T21:06:10.048Z</time>
      </trkpt>
      <trkpt lat="42.64699" lon="23.93342">
        <ele>589.89701</ele>
        <time>2022-02-22T21:06:21.116Z</time>
      </trkpt>
      <trkpt lat="42.64781" lon="23.93193">
        <ele>590.248851</ele>
        <time>2022-02-22T21:07:01.592Z</time>
      </trkpt>
      <trkpt lat="42.64809" lon="23.93131">
        <ele>591.36837</ele>
        <time>2022-02-22T21:07:20.760Z</time>
      </trkpt>
      <trkpt lat="42.64869" lon="23.92953">
        <ele>594.343751</ele>
        <time>2022-02-22T21:08:18.512Z</time>
      </trkpt>
      <trkpt lat="42.64923" lon="23.92812">
        <ele>596.569256</ele>
        <time>2022-02-22T21:09:04.302Z</time>
      </trkpt>
      <trkpt lat="42.64987" lon="23.92668">
        <ele>597.103339</ele>
        <time>2022-02-22T21:09:41.791Z</time>
      </trkpt>
      <trkpt lat="42.65015" lon="23.92627">
        <ele>596.957927</ele>
        <time>2022-02-22T21:09:51.761Z</time>
      </trkpt>
      <trkpt lat="42.65107" lon="23.92528">
        <ele>596.624501</ele>
        <time>2022-02-22T21:10:19.326Z</time>
      </trkpt>
      <trkpt lat="42.65131" lon="23.92494">
        <ele>596.549451</ele>
        <time>2022-02-22T21:10:27.731Z</time>
      </trkpt>
      <trkpt lat="42.65148" lon="23.92447">
        <ele>596.46604</ele>
        <time>2022-02-22T21:10:38.466Z</time>
      </trkpt>
      <trkpt lat="42.65174" lon="23.9229">
        <ele>597.810404</ele>
        <time>2022-02-22T21:11:19.296Z</time>
      </trkpt>
      <trkpt lat="42.65184" lon="23.92254">
        <ele>598.386512</ele>
        <time>2022-02-22T21:11:30.516Z</time>
      </trkpt>
      <trkpt lat="42.65195" lon="23.92215">
        <ele>599.013244</ele>
        <time>2022-02-22T21:11:42.805Z</time>
      </trkpt>
      <trkpt lat="42.6526" lon="23.92026">
        <ele>602.577054</ele>
        <time>2022-02-22T21:12:44.037Z</time>
      </trkpt>
      <trkpt lat="42.65279" lon="23.91985">
        <ele>603.453574</ele>
        <time>2022-02-22T21:12:57.454Z</time>
      </trkpt>
      <trkpt lat="42.653" lon="23.91958">
        <ele>604.16436</ele>
        <time>2022-02-22T21:13:08.454Z</time>
      </trkpt>
      <trkpt lat="42.65562" lon="23.91754">
        <ele>613.213965</ele>
        <time>2022-02-22T21:15:13.957Z</time>
      </trkpt>
      <trkpt lat="42.65605" lon="23.91715">
        <ele>614.973881</ele>
        <time>2022-02-22T21:15:38.639Z</time>
      </trkpt>
      <trkpt lat="42.65635" lon="23.91672">
        <ele>616.775843</ele>
        <time>2022-02-22T21:15:59.499Z</time>
      </trkpt>
      <trkpt lat="42.65654" lon="23.91627">
        <ele>618.545998</ele>
        <time>2022-02-22T21:16:18.237Z</time>
      </trkpt>
      <trkpt lat="42.65663" lon="23.91582">
        <ele>620.136894</ele>
        <time>2022-02-22T21:16:35.934Z</time>
      </trkpt>
      <trkpt lat="42.65665" lon="23.91528">
        <ele>621.975074</ele>
        <time>2022-02-22T21:16:56.477Z</time>
      </trkpt>
      <trkpt lat="42.65658" lon="23.9148">
        <ele>623.646742</ele>
        <time>2022-02-22T21:17:15.016Z</time>
      </trkpt>
      <trkpt lat="42.65643" lon="23.91432">
        <ele>625.176346</ele>
        <time>2022-02-22T21:17:34.491Z</time>
      </trkpt>
      <trkpt lat="42.65635" lon="23.9141">
        <ele>625.845771</ele>
        <time>2022-02-22T21:17:42.895Z</time>
      </trkpt>
      <trkpt lat="42.65513" lon="23.91172">
        <ele>632.897045</ele>
        <time>2022-02-22T21:19:17.905Z</time>
      </trkpt>
      <trkpt lat="42.65496" lon="23.91117">
        <ele>634.008676</ele>
        <time>2022-02-22T21:19:34.571Z</time>
      </trkpt>
      <trkpt lat="42.65491" lon="23.91052">
        <ele>635.209047</ele>
        <time>2022-02-22T21:19:51.490Z</time>
      </trkpt>
      <trkpt lat="42.65492" lon="23.90982">
        <ele>635.628278</ele>
        <time>2022-02-22T21:20:08.512Z</time>
      </trkpt>
      <trkpt lat="42.65504" lon="23.90831">
        <ele>636.368856</ele>
        <time>2022-02-22T21:20:41.644Z</time>
      </trkpt>
      <trkpt lat="42.65504" lon="23.90788">
        <ele>636.639215</ele>
        <time>2022-02-22T21:20:50.951Z</time>
      </trkpt>
      <trkpt lat="42.655" lon="23.90747">
        <ele>637.010962</ele>
        <time>2022-02-22T21:21:00.056Z</time>
      </trkpt>
      <trkpt lat="42.65481" lon="23.90655">
        <ele>637.86987</ele>
        <time>2022-02-22T21:21:22.575Z</time>
      </trkpt>
      <trkpt lat="42.65465" lon="23.90531">
        <ele>639.464522</ele>
        <time>2022-02-22T21:21:56.700Z</time>
      </trkpt>
      <trkpt lat="42.65463" lon="23.90475">
        <ele>640.753818</ele>
        <time>2022-02-22T21:22:13.651Z</time>
      </trkpt>
      <trkpt lat="42.65481" lon="23.9031">
        <ele>644.636626</ele>
        <time>2022-02-22T21:23:09.242Z</time>
      </trkpt>
      <trkpt lat="42.65532" lon="23.90084">
        <ele>651.037129</ele>
        <time>2022-02-22T21:24:28.469Z</time>
      </trkpt>
      <trkpt lat="42.65566" lon="23.90004">
        <ele>653.192588</ele>
        <time>2022-02-22T21:24:58.891Z</time>
      </trkpt>
      <trkpt lat="42.65581" lon="23.89955">
        <ele>654.445237</ele>
        <time>2022-02-22T21:25:15.886Z</time>
      </trkpt>
      <trkpt lat="42.65588" lon="23.89919">
        <ele>655.29926</ele>
        <time>2022-02-22T21:25:27.279Z</time>
      </trkpt>
      <trkpt lat="42.6559" lon="23.89863">
        <ele>656.606902</ele>
        <time>2022-02-22T21:25:44.311Z</time>
      </trkpt>
      <trkpt lat="42.65586" lon="23.89666">
        <ele>660.163882</ele>
        <time>2022-02-22T21:26:42.643Z</time>
      </trkpt>
      <trkpt lat="42.65553" lon="23.89544">
        <ele>662.579859</ele>
        <time>2022-02-22T21:27:17.698Z</time>
      </trkpt>
      <trkpt lat="42.65532" lon="23.89348">
        <ele>666.907429</ele>
        <time>2022-02-22T21:28:17.226Z</time>
      </trkpt>
      <trkpt lat="42.65521" lon="23.89284">
        <ele>669.276335</ele>
        <time>2022-02-22T21:28:40.315Z</time>
      </trkpt>
      <trkpt lat="42.65483" lon="23.89142">
        <ele>674.795611</ele>
        <time>2022-02-22T21:29:41.627Z</time>
      </trkpt>
      <trkpt lat="42.65468" lon="23.8911">
        <ele>676.647733</ele>
        <time>2022-02-22T21:29:58.515Z</time>
      </trkpt>
      <trkpt lat="42.65384" lon="23.88997">
        <ele>684.463921</ele>
        <time>2022-02-22T21:31:11.156Z</time>
      </trkpt>
      <trkpt lat="42.65292" lon="23.88911">
        <ele>690.615769</ele>
        <time>2022-02-22T21:32:15.297Z</time>
      </trkpt>
      <trkpt lat="42.65075" lon="23.8861">
        <ele>704.131728</ele>
        <time>2022-02-22T21:34:42.206Z</time>
      </trkpt>
      <trkpt lat="42.65032" lon="23.88565">
        <ele>706.224415</ele>
        <time>2022-02-22T21:35:07.635Z</time>
      </trkpt>
      <trkpt lat="42.65004" lon="23.88546">
        <ele>707.431278</ele>
        <time>2022-02-22T21:35:22.234Z</time>
      </trkpt>
      <trkpt lat="42.6491" lon="23.88505">
        <ele>710.828807</ele>
        <time>2022-02-22T21:36:07.217Z</time>
      </trkpt>
      <trkpt lat="42.64869" lon="23.88475">
        <ele>712.105537</ele>
        <time>2022-02-22T21:36:27.138Z</time>
      </trkpt>
      <trkpt lat="42.64783" lon="23.88389">
        <ele>714.936035</ele>
        <time>2022-02-22T21:37:08.236Z</time>
      </trkpt>
      <trkpt lat="42.64687" lon="23.88346">
        <ele>716.74839</ele>
        <time>2022-02-22T21:37:44.001Z</time>
      </trkpt>
      <trkpt lat="42.64639" lon="23.88306">
        <ele>717.76217</ele>
        <time>2022-02-22T21:38:03.949Z</time>
      </trkpt>
      <trkpt lat="42.6447" lon="23.88138">
        <ele>723.008238</ele>
        <time>2022-02-22T21:39:26.605Z</time>
      </trkpt>
      <trkpt lat="42.64443" lon="23.88093">
        <ele>724.520656</ele>
        <time>2022-02-22T21:39:45.184Z</time>
      </trkpt>
      <trkpt lat="42.64422" lon="23.88042">
        <ele>726.060959</ele>
        <time>2022-02-22T21:40:04.478Z</time>
      </trkpt>
      <trkpt lat="42.64307" lon="23.87707">
        <ele>737.236996</ele>
        <time>2022-02-22T21:42:14.501Z</time>
      </trkpt>
      <trkpt lat="42.6429" lon="23.87668">
        <ele>739.033651</ele>
        <time>2022-02-22T21:42:31.730Z</time>
      </trkpt>
      <trkpt lat="42.64268" lon="23.87642">
        <ele>740.604251</ele>
        <time>2022-02-22T21:42:47.107Z</time>
      </trkpt>
      <trkpt lat="42.64189" lon="23.87574">
        <ele>745.642089</ele>
        <time>2022-02-22T21:43:38.646Z</time>
      </trkpt>
      <trkpt lat="42.64163" lon="23.87539">
        <ele>748.074153</ele>
        <time>2022-02-22T21:44:00.100Z</time>
      </trkpt>
      <trkpt lat="42.6415" lon="23.87507">
        <ele>749.968307</ele>
        <time>2022-02-22T21:44:16.177Z</time>
      </trkpt>
      <trkpt lat="42.64139" lon="23.87462">
        <ele>752.425382</ele>
        <time>2022-02-22T21:44:37.475Z</time>
      </trkpt>
      <trkpt lat="42.64103" lon="23.8723">
        <ele>765.332982</ele>
        <time>2022-02-22T21:46:29.797Z</time>
      </trkpt>
      <trkpt lat="42.64088" lon="23.87175">
        <ele>768.691292</ele>
        <time>2022-02-22T21:46:58.408Z</time>
      </trkpt>
      <trkpt lat="42.64015" lon="23.86971">
        <ele>781.441436</ele>
        <time>2022-02-22T21:48:47.381Z</time>
      </trkpt>
      <trkpt lat="42.64004" lon="23.8693">
        <ele>783.87322</ele>
        <time>2022-02-22T21:49:07.810Z</time>
      </trkpt>
      <trkpt lat="42.63996" lon="23.86853">
        <ele>787.89015</ele>
        <time>2022-02-22T21:49:43.858Z</time>
      </trkpt>
      <trkpt lat="42.63998" lon="23.86638">
        <ele>797.689302</ele>
        <time>2022-02-22T21:51:15.419Z</time>
      </trkpt>
      <trkpt lat="42.63989" lon="23.86595">
        <ele>798.527886</ele>
        <time>2022-02-22T21:51:31.981Z</time>
      </trkpt>
      <trkpt lat="42.63978" lon="23.86557">
        <ele>799.293873</ele>
        <time>2022-02-22T21:51:46.305Z</time>
      </trkpt>
      <trkpt lat="42.63906" lon="23.86404">
        <ele>801.859686</ele>
        <time>2022-02-22T21:52:32.744Z</time>
      </trkpt>
      <trkpt lat="42.63891" lon="23.86357">
        <ele>801.128397</ele>
        <time>2022-02-22T21:52:41.613Z</time>
      </trkpt>
      <trkpt lat="42.63886" lon="23.86318">
        <ele>800.563322</ele>
        <time>2022-02-22T21:52:48.065Z</time>
      </trkpt>
      <trkpt lat="42.63884" lon="23.86263">
        <ele>799.777296</ele>
        <time>2022-02-22T21:52:56.683Z</time>
      </trkpt>
      <trkpt lat="42.6391" lon="23.85859">
        <ele>789.975938</ele>
        <time>2022-02-22T21:53:56.274Z</time>
      </trkpt>
      <trkpt lat="42.63919" lon="23.85821">
        <ele>789.047165</ele>
        <time>2022-02-22T21:54:02.241Z</time>
      </trkpt>
      <trkpt lat="42.63934" lon="23.85782">
        <ele>788.004002</ele>
        <time>2022-02-22T21:54:08.979Z</time>
      </trkpt>
      <trkpt lat="42.64018" lon="23.85612">
        <ele>784.002557</ele>
        <time>2022-02-22T21:54:40.958Z</time>
      </trkpt>
      <trkpt lat="42.64047" lon="23.85576">
        <ele>783.085615</ele>
        <time>2022-02-22T21:54:49.494Z</time>
      </trkpt>
      <trkpt lat="42.64172" lon="23.85494">
        <ele>780.103817</ele>
        <time>2022-02-22T21:55:20.313Z</time>
      </trkpt>
      <trkpt lat="42.64195" lon="23.85488">
        <ele>779.622752</ele>
        <time>2022-02-22T21:55:25.558Z</time>
      </trkpt>
      <trkpt lat="42.6422" lon="23.85489">
        <ele>779.111137</ele>
        <time>2022-02-22T21:55:31.071Z</time>
      </trkpt>
      <trkpt lat="42.64239" lon="23.85499">
        <ele>778.684613</ele>
        <time>2022-02-22T21:55:35.623Z</time>
      </trkpt>
      <trkpt lat="42.64322" lon="23.85565">
        <ele>776.357976</ele>
        <time>2022-02-22T21:55:56.314Z</time>
      </trkpt>
      <trkpt lat="42.64335" lon="23.8557">
        <ele>776.021003</ele>
        <time>2022-02-22T21:55:59.164Z</time>
      </trkpt>
      <trkpt lat="42.64354" lon="23.8557">
        <ele>775.547104</ele>
        <time>2022-02-22T21:56:03.181Z</time>
      </trkpt>
      <trkpt lat="42.64384" lon="23.85546">
        <ele>774.678899</ele>
        <time>2022-02-22T21:56:10.506Z</time>
      </trkpt>
      <trkpt lat="42.64395" lon="23.85525">
        <ele>774.20591</ele>
        <time>2022-02-22T21:56:14.490Z</time>
      </trkpt>
      <trkpt lat="42.64399" lon="23.85497">
        <ele>773.681297</ele>
        <time>2022-02-22T21:56:18.912Z</time>
      </trkpt>
      <trkpt lat="42.64406" lon="23.85245">
        <ele>768.969933</ele>
        <time>2022-02-22T21:56:58.716Z</time>
      </trkpt>
      <trkpt lat="42.64408" lon="23.85218">
        <ele>768.409379</ele>
        <time>2022-02-22T21:57:03.012Z</time>
      </trkpt>
      <trkpt lat="42.64416" lon="23.8519">
        <ele>767.783665</ele>
        <time>2022-02-22T21:57:07.757Z</time>
      </trkpt>
      <trkpt lat="42.64429" lon="23.8517">
        <ele>767.227247</ele>
        <time>2022-02-22T21:57:11.941Z</time>
      </trkpt>
      <trkpt lat="42.64442" lon="23.8516">
        <ele>766.803911</ele>
        <time>2022-02-22T21:57:15.102Z</time>
      </trkpt>
      <trkpt lat="42.64528" lon="23.85113">
        <ele>764.150298</ele>
        <time>2022-02-22T21:57:34.244Z</time>
      </trkpt>
      <trkpt lat="42.64549" lon="23.85095">
        <ele>763.232888</ele>
        <time>2022-02-22T21:57:39.295Z</time>
      </trkpt>
      <trkpt lat="42.64573" lon="23.85054">
        <ele>761.843642</ele>
        <time>2022-02-22T21:57:46.860Z</time>
      </trkpt>
      <trkpt lat="42.64631" lon="23.84911">
        <ele>757.501944</ele>
        <time>2022-02-22T21:58:10.693Z</time>
      </trkpt>
      <trkpt lat="42.64681" lon="23.84602">
        <ele>751.559595</ele>
        <time>2022-02-22T21:58:59.718Z</time>
      </trkpt>
      <trkpt lat="42.64676" lon="23.84359">
        <ele>748.882399</ele>
        <time>2022-02-22T21:59:42.489Z</time>
      </trkpt>
      <trkpt lat="42.64693" lon="23.84293">
        <ele>748.292211</ele>
        <time>2022-02-22T21:59:54.912Z</time>
      </trkpt>
      <trkpt lat="42.64738" lon="23.84205">
        <ele>747.420722</ele>
        <time>2022-02-22T22:00:13.622Z</time>
      </trkpt>
      <trkpt lat="42.64745" lon="23.8414">
        <ele>747.045738</ele>
        <time>2022-02-22T22:00:25.005Z</time>
      </trkpt>
      <trkpt lat="42.64738" lon="23.84102">
        <ele>746.82213</ele>
        <time>2022-02-22T22:00:31.924Z</time>
      </trkpt>
      <trkpt lat="42.64695" lon="23.83967">
        <ele>746.108027</ele>
        <time>2022-02-22T22:00:59.573Z</time>
      </trkpt>
      <trkpt lat="42.64682" lon="23.83885">
        <ele>746.168406</ele>
        <time>2022-02-22T22:01:17.162Z</time>
      </trkpt>
      <trkpt lat="42.64721" lon="23.83523">
        <ele>746.130395</ele>
        <time>2022-02-22T22:02:35.560Z</time>
      </trkpt>
      <trkpt lat="42.64734" lon="23.83471">
        <ele>745.451183</ele>
        <time>2022-02-22T22:02:44.923Z</time>
      </trkpt>
      <trkpt lat="42.64753" lon="23.83439">
        <ele>744.670838</ele>
        <time>2022-02-22T22:02:51.604Z</time>
      </trkpt>
      <trkpt lat="42.64828" lon="23.83351">
        <ele>742.115127</ele>
        <time>2022-02-22T22:03:12.094Z</time>
      </trkpt>
      <trkpt lat="42.64848" lon="23.83319">
        <ele>741.272815</ele>
        <time>2022-02-22T22:03:18.271Z</time>
      </trkpt>
      <trkpt lat="42.64867" lon="23.83269">
        <ele>739.900678</ele>
        <time>2022-02-22T22:03:26.493Z</time>
      </trkpt>
      <trkpt lat="42.64924" lon="23.82916">
        <ele>732.389715</ele>
        <time>2022-02-22T22:04:20.974Z</time>
      </trkpt>
      <trkpt lat="42.65018" lon="23.82562">
        <ele>731.056009</ele>
        <time>2022-02-22T22:05:34.393Z</time>
      </trkpt>
      <trkpt lat="42.65048" lon="23.82456">
        <ele>731.764269</ele>
        <time>2022-02-22T22:06:02.092Z</time>
      </trkpt>
      <trkpt lat="42.65096" lon="23.82285">
        <ele>733.562505</ele>
        <time>2022-02-22T22:06:50.670Z</time>
      </trkpt>
      <trkpt lat="42.65109" lon="23.82257">
        <ele>733.942048</ele>
        <time>2022-02-22T22:06:59.130Z</time>
      </trkpt>
      <trkpt lat="42.65116" lon="23.82249">
        <ele>734.09801</ele>
        <time>2022-02-22T22:07:02.668Z</time>
      </trkpt>
      <trkpt lat="42.65139" lon="23.82241">
        <ele>734.469344</ele>
        <time>2022-02-22T22:07:10.535Z</time>
      </trkpt>
      <trkpt lat="42.65161" lon="23.82248">
        <ele>734.827959</ele>
        <time>2022-02-22T22:07:18.168Z</time>
      </trkpt>
      <trkpt lat="42.6517" lon="23.82252">
        <ele>734.969976</ele>
        <time>2022-02-22T22:07:21.425Z</time>
      </trkpt>
      <trkpt lat="42.65257" lon="23.82289">
        <ele>735.3793</ele>
        <time>2022-02-22T22:07:50.553Z</time>
      </trkpt>
      <trkpt lat="42.65331" lon="23.82322">
        <ele>735.709468</ele>
        <time>2022-02-22T22:08:11.645Z</time>
      </trkpt>
      <trkpt lat="42.65342" lon="23.82324">
        <ele>735.755788</ele>
        <time>2022-02-22T22:08:14.710Z</time>
      </trkpt>
      <trkpt lat="42.65353" lon="23.8232">
        <ele>735.501726</ele>
        <time>2022-02-22T22:08:17.292Z</time>
      </trkpt>
      <trkpt lat="42.65382" lon="23.82294">
        <ele>734.639109</ele>
        <time>2022-02-22T22:08:25.173Z</time>
      </trkpt>
      <trkpt lat="42.65389" lon="23.82288">
        <ele>734.430244</ele>
        <time>2022-02-22T22:08:26.723Z</time>
      </trkpt>
      <trkpt lat="42.65408" lon="23.82279">
        <ele>733.908977</ele>
        <time>2022-02-22T22:08:31.166Z</time>
      </trkpt>
      <trkpt lat="42.65425" lon="23.8228">
        <ele>733.474036</ele>
        <time>2022-02-22T22:08:34.270Z</time>
      </trkpt>
      <trkpt lat="42.65451" lon="23.82291">
        <ele>732.794716</ele>
        <time>2022-02-22T22:08:39.490Z</time>
      </trkpt>
      <trkpt lat="42.65489" lon="23.82322">
        <ele>731.686857</ele>
        <time>2022-02-22T22:08:47.760Z</time>
      </trkpt>
      <trkpt lat="42.65503" lon="23.82325">
        <ele>731.32056</ele>
        <time>2022-02-22T22:08:50.781Z</time>
      </trkpt>
      <trkpt lat="42.65517" lon="23.8232">
        <ele>731.055026</ele>
        <time>2022-02-22T22:08:53.614Z</time>
      </trkpt>
      <trkpt lat="42.65524" lon="23.8231">
        <ele>730.893024</ele>
        <time>2022-02-22T22:08:55.507Z</time>
      </trkpt>
      <trkpt lat="42.65532" lon="23.82295">
        <ele>730.67967</ele>
        <time>2022-02-22T22:08:59.181Z</time>
      </trkpt>
      <trkpt lat="42.65535" lon="23.82272">
        <ele>730.405053</ele>
        <time>2022-02-22T22:09:02.696Z</time>
      </trkpt>
      <trkpt lat="42.65542" lon="23.82239">
        <ele>730.008167</ele>
        <time>2022-02-22T22:09:08.481Z</time>
      </trkpt>
      <trkpt lat="42.65564" lon="23.82187">
        <ele>729.319116</ele>
        <time>2022-02-22T22:09:18.338Z</time>
      </trkpt>
      <trkpt lat="42.65591" lon="23.82138">
        <ele>728.612526</ele>
        <time>2022-02-22T22:09:28.144Z</time>
      </trkpt>
      <trkpt lat="42.65602" lon="23.82127">
        <ele>728.392884</ele>
        <time>2022-02-22T22:09:32.449Z</time>
      </trkpt>
      <trkpt lat="42.6565" lon="23.82076">
        <ele>727.272139</ele>
        <time>2022-02-22T22:09:47.684Z</time>
      </trkpt>
      <trkpt lat="42.65658" lon="23.82058">
        <ele>726.982101</ele>
        <time>2022-02-22T22:09:52.787Z</time>
      </trkpt>
      <trkpt lat="42.65659" lon="23.8204">
        <ele>726.74165</ele>
        <time>2022-02-22T22:09:55.600Z</time>
      </trkpt>
      <trkpt lat="42.65658" lon="23.81976">
        <ele>725.864823</ele>
        <time>2022-02-22T22:10:05.470Z</time>
      </trkpt>
      <trkpt lat="42.65656" lon="23.8197">
        <ele>725.777144</ele>
        <time>2022-02-22T22:10:06.498Z</time>
      </trkpt>
      <trkpt lat="42.65646" lon="23.81951">
        <ele>725.449236</ele>
        <time>2022-02-22T22:10:09.975Z</time>
      </trkpt>
      <trkpt lat="42.65633" lon="23.81939">
        <ele>725.172109</ele>
        <time>2022-02-22T22:10:12.757Z</time>
      </trkpt>
      <trkpt lat="42.65623" lon="23.81925">
        <ele>724.536155</ele>
        <time>2022-02-22T22:10:15.566Z</time>
      </trkpt>
      <trkpt lat="42.65618" lon="23.81914">
        <ele>723.938911</ele>
        <time>2022-02-22T22:10:17.297Z</time>
      </trkpt>
      <trkpt lat="42.65608" lon="23.81874">
        <ele>722.072243</ele>
        <time>2022-02-22T22:10:22.926Z</time>
      </trkpt>
      <trkpt lat="42.65599" lon="23.81819">
        <ele>719.557843</ele>
        <time>2022-02-22T22:10:30.144Z</time>
      </trkpt>
      <trkpt lat="42.65563" lon="23.8167">
        <ele>712.588316</ele>
        <time>2022-02-22T22:10:49.837Z</time>
      </trkpt>
      <trkpt lat="42.65543" lon="23.81599">
        <ele>709.244407</ele>
        <time>2022-02-22T22:10:59.529Z</time>
      </trkpt>
      <trkpt lat="42.65536" lon="23.81572">
        <ele>707.961301</ele>
        <time>2022-02-22T22:11:03.323Z</time>
      </trkpt>
      <trkpt lat="42.65532" lon="23.81557">
        <ele>707.278484</ele>
        <time>2022-02-22T22:11:05.334Z</time>
      </trkpt>
      <trkpt lat="42.65425" lon="23.81196">
        <ele>692.714909</ele>
        <time>2022-02-22T22:11:57.316Z</time>
      </trkpt>
      <trkpt lat="42.65402" lon="23.81083">
        <ele>688.984696</ele>
        <time>2022-02-22T22:12:13.486Z</time>
      </trkpt>
      <trkpt lat="42.65391" lon="23.81047">
        <ele>687.744505</ele>
        <time>2022-02-22T22:12:18.881Z</time>
      </trkpt>
      <trkpt lat="42.65371" lon="23.81003">
        <ele>686.233068</ele>
        <time>2022-02-22T22:12:25.984Z</time>
      </trkpt>
      <trkpt lat="42.65279" lon="23.80852">
        <ele>681.094622</ele>
        <time>2022-02-22T22:12:53.769Z</time>
      </trkpt>
      <trkpt lat="42.65257" lon="23.80799">
        <ele>679.599825</ele>
        <time>2022-02-22T22:13:02.459Z</time>
      </trkpt>
      <trkpt lat="42.6521" lon="23.80643">
        <ele>675.62892</ele>
        <time>2022-02-22T22:13:26.818Z</time>
      </trkpt>
      <trkpt lat="42.65159" lon="23.80542">
        <ele>672.606878</ele>
        <time>2022-02-22T22:13:44.381Z</time>
      </trkpt>
      <trkpt lat="42.65054" lon="23.8037">
        <ele>667.013954</ele>
        <time>2022-02-22T22:14:16.007Z</time>
      </trkpt>
      <trkpt lat="42.65034" lon="23.80323">
        <ele>665.703178</ele>
        <time>2022-02-22T22:14:23.695Z</time>
      </trkpt>
      <trkpt lat="42.6502" lon="23.8027">
        <ele>664.333176</ele>
        <time>2022-02-22T22:14:31.799Z</time>
      </trkpt>
      <trkpt lat="42.6501" lon="23.8021">
        <ele>662.835237</ele>
        <time>2022-02-22T22:14:40.693Z</time>
      </trkpt>
      <trkpt lat="42.65009" lon="23.80154">
        <ele>661.615408</ele>
        <time>2022-02-22T22:14:48.823Z</time>
      </trkpt>
      <trkpt lat="42.65021" lon="23.80034">
        <ele>659.092485</ele>
        <time>2022-02-22T22:15:06.478Z</time>
      </trkpt>
      <trkpt lat="42.65027" lon="23.79896">
        <ele>656.620509</ele>
        <time>2022-02-22T22:15:27.104Z</time>
      </trkpt>
      <trkpt lat="42.65035" lon="23.79839">
        <ele>655.838915</ele>
        <time>2022-02-22T22:15:35.883Z</time>
      </trkpt>
      <trkpt lat="42.65172" lon="23.79177">
        <ele>646.973357</ele>
        <time>2022-02-22T22:17:25.771Z</time>
      </trkpt>
      <trkpt lat="42.65255" lon="23.78905">
        <ele>643.445749</ele>
        <time>2022-02-22T22:18:12.696Z</time>
      </trkpt>
      <trkpt lat="42.65281" lon="23.7884">
        <ele>642.614197</ele>
        <time>2022-02-22T22:18:24.597Z</time>
      </trkpt>
      <trkpt lat="42.65456" lon="23.7857">
        <ele>638.992853</ele>
        <time>2022-02-22T22:19:23.965Z</time>
      </trkpt>
      <trkpt lat="42.65584" lon="23.78388">
        <ele>636.160221</ele>
        <time>2022-02-22T22:20:04.658Z</time>
      </trkpt>
      <trkpt lat="42.65735" lon="23.78073">
        <ele>631.581739</ele>
        <time>2022-02-22T22:21:04.605Z</time>
      </trkpt>
      <trkpt lat="42.65841" lon="23.77961">
        <ele>629.102602</ele>
        <time>2022-02-22T22:21:33.549Z</time>
      </trkpt>
      <trkpt lat="42.65871" lon="23.77918">
        <ele>628.272992</ele>
        <time>2022-02-22T22:21:42.781Z</time>
      </trkpt>
      <trkpt lat="42.65897" lon="23.77862">
        <ele>627.277144</ele>
        <time>2022-02-22T22:21:52.959Z</time>
      </trkpt>
      <trkpt lat="42.6595" lon="23.77701">
        <ele>624.220249</ele>
        <time>2022-02-22T22:22:19.428Z</time>
      </trkpt>
      <trkpt lat="42.66019" lon="23.77579">
        <ele>622.040816</ele>
        <time>2022-02-22T22:22:43.100Z</time>
      </trkpt>
      <trkpt lat="42.66047" lon="23.77543">
        <ele>621.370453</ele>
        <time>2022-02-22T22:22:51.409Z</time>
      </trkpt>
      <trkpt lat="42.66064" lon="23.77521">
        <ele>620.964217</ele>
        <time>2022-02-22T22:22:56.580Z</time>
      </trkpt>
      <trkpt lat="42.66078" lon="23.77505">
        <ele>620.651338</ele>
        <time>2022-02-22T22:23:00.573Z</time>
      </trkpt>
      <trkpt lat="42.66091" lon="23.77486">
        <ele>620.314321</ele>
        <time>2022-02-22T22:23:04.836Z</time>
      </trkpt>
      <trkpt lat="42.66179" lon="23.7732">
        <ele>618.674383</ele>
        <time>2022-02-22T22:23:39.693Z</time>
      </trkpt>
      <trkpt lat="42.66206" lon="23.77291">
        <ele>618.31267</ele>
        <time>2022-02-22T22:23:47.405Z</time>
      </trkpt>
      <trkpt lat="42.66236" lon="23.77277">
        <ele>618.033348</ele>
        <time>2022-02-22T22:23:54.879Z</time>
      </trkpt>
      <trkpt lat="42.66296" lon="23.77266">
        <ele>617.515299</ele>
        <time>2022-02-22T22:24:08.910Z</time>
      </trkpt>
      <trkpt lat="42.66311" lon="23.77259">
        <ele>617.382674</ele>
        <time>2022-02-22T22:24:12.456Z</time>
      </trkpt>
      <trkpt lat="42.6633" lon="23.77244">
        <ele>617.193492</ele>
        <time>2022-02-22T22:24:17.736Z</time>
      </trkpt>
      <trkpt lat="42.66442" lon="23.77142">
        <ele>616.258663</ele>
        <time>2022-02-22T22:24:50.529Z</time>
      </trkpt>
      <trkpt lat="42.66473" lon="23.77111">
        <ele>616.031723</ele>
        <time>2022-02-22T22:24:59.903Z</time>
      </trkpt>
      <trkpt lat="42.66502" lon="23.77078">
        <ele>615.808137</ele>
        <time>2022-02-22T22:25:09.136Z</time>
      </trkpt>
      <trkpt lat="42.6652" lon="23.77059">
        <ele>615.647708</ele>
        <time>2022-02-22T22:25:14.918Z</time>
      </trkpt>
      <trkpt lat="42.66546" lon="23.7703">
        <ele>615.354174</ele>
        <time>2022-02-22T22:25:23.074Z</time>
      </trkpt>
      <trkpt lat="42.66571" lon="23.77004">
        <ele>615.074611</ele>
        <time>2022-02-22T22:25:30.834Z</time>
      </trkpt>
      <trkpt lat="42.66597" lon="23.76986">
        <ele>614.817364</ele>
        <time>2022-02-22T22:25:37.839Z</time>
      </trkpt>
      <trkpt lat="42.66658" lon="23.76955">
        <ele>614.24821</ele>
        <time>2022-02-22T22:25:52.838Z</time>
      </trkpt>
      <trkpt lat="42.66709" lon="23.76927">
        <ele>613.336477</ele>
        <time>2022-02-22T22:26:04.920Z</time>
      </trkpt>
      <trkpt lat="42.66722" lon="23.7692">
        <ele>613.066611</ele>
        <time>2022-02-22T22:26:07.871Z</time>
      </trkpt>
      <trkpt lat="42.6679" lon="23.76884">
        <ele>611.687607</ele>
        <time>2022-02-22T22:26:22.929Z</time>
      </trkpt>
      <trkpt lat="42.66811" lon="23.7687">
        <ele>611.23406</ele>
        <time>2022-02-22T22:26:27.935Z</time>
      </trkpt>
      <trkpt lat="42.66825" lon="23.7685">
        <ele>610.849433</ele>
        <time>2022-02-22T22:26:32.103Z</time>
      </trkpt>
      <trkpt lat="42.66859" lon="23.76792">
        <ele>610.008125</ele>
        <time>2022-02-22T22:26:43.768Z</time>
      </trkpt>
      <trkpt lat="42.6686" lon="23.76789">
        <ele>609.968589</ele>
        <time>2022-02-22T22:26:44.330Z</time>
      </trkpt>
      <trkpt lat="42.66886" lon="23.76682">
        <ele>608.729071</ele>
        <time>2022-02-22T22:27:02.543Z</time>
      </trkpt>
      <trkpt lat="42.66898" lon="23.76648">
        <ele>608.322689</ele>
        <time>2022-02-22T22:27:08.709Z</time>
      </trkpt>
      <trkpt lat="42.66908" lon="23.76632">
        <ele>608.094387</ele>
        <time>2022-02-22T22:27:12.354Z</time>
      </trkpt>
      <trkpt lat="42.6693" lon="23.76603">
        <ele>607.742456</ele>
        <time>2022-02-22T22:27:19.641Z</time>
      </trkpt>
      <trkpt lat="42.66953" lon="23.76585">
        <ele>607.454144</ele>
        <time>2022-02-22T22:27:25.998Z</time>
      </trkpt>
      <trkpt lat="42.66974" lon="23.76563">
        <ele>607.163238</ele>
        <time>2022-02-22T22:27:32.354Z</time>
      </trkpt>
      <trkpt lat="42.67016" lon="23.76507">
        <ele>606.521328</ele>
        <time>2022-02-22T22:27:45.890Z</time>
      </trkpt>
      <trkpt lat="42.67111" lon="23.76362">
        <ele>604.822663</ele>
        <time>2022-02-22T22:28:17.259Z</time>
      </trkpt>
      <trkpt lat="42.67139" lon="23.76311">
        <ele>604.243636</ele>
        <time>2022-02-22T22:28:27.941Z</time>
      </trkpt>
      <trkpt lat="42.67172" lon="23.76238">
        <ele>603.767989</ele>
        <time>2022-02-22T22:28:42.728Z</time>
      </trkpt>
      <trkpt lat="42.67493" lon="23.75341">
        <ele>602.026086</ele>
        <time>2022-02-22T22:31:51.890Z</time>
      </trkpt>
      <trkpt lat="42.68154" lon="23.73474">
        <ele>600.09488</ele>
        <time>2022-02-22T22:38:27.987Z</time>
      </trkpt>
      <trkpt lat="42.68386" lon="23.72825">
        <ele>604.666908</ele>
        <time>2022-02-22T22:41:10.999Z</time>
      </trkpt>
      <trkpt lat="42.68477" lon="23.7257">
        <ele>608.037007</ele>
        <time>2022-02-22T22:42:26.372Z</time>
      </trkpt>
      <trkpt lat="42.68487" lon="23.72519">
        <ele>608.639008</ele>
        <time>2022-02-22T22:42:39.564Z</time>
      </trkpt>
      <trkpt lat="42.68489" lon="23.72489">
        <ele>608.758652</ele>
        <time>2022-02-22T22:42:46.933Z</time>
      </trkpt>
      <trkpt lat="42.68487" lon="23.72158">
        <ele>609.689254</ele>
        <time>2022-02-22T22:43:54.678Z</time>
      </trkpt>
      <trkpt lat="42.68489" lon="23.72069">
        <ele>609.772513</ele>
        <time>2022-02-22T22:44:12.333Z</time>
      </trkpt>
      <trkpt lat="42.68494" lon="23.71983">
        <ele>609.687323</ele>
        <time>2022-02-22T22:44:29.333Z</time>
      </trkpt>
      <trkpt lat="42.68505" lon="23.71905">
        <ele>609.531051</ele>
        <time>2022-02-22T22:44:44.780Z</time>
      </trkpt>
      <trkpt lat="42.68555" lon="23.71574">
        <ele>608.260743</ele>
        <time>2022-02-22T22:45:45.213Z</time>
      </trkpt>
      <trkpt lat="42.6858" lon="23.71479">
        <ele>608.219581</ele>
        <time>2022-02-22T22:46:02.831Z</time>
      </trkpt>
      <trkpt lat="42.68603" lon="23.71422">
        <ele>608.239494</ele>
        <time>2022-02-22T22:46:15.266Z</time>
      </trkpt>
      <trkpt lat="42.68635" lon="23.71358">
        <ele>608.26377</ele>
        <time>2022-02-22T22:46:31.626Z</time>
      </trkpt>
      <trkpt lat="42.68604" lon="23.71327">
        <ele>608.75856</ele>
        <time>2022-02-22T22:46:44.051Z</time>
      </trkpt>
      <trkpt lat="42.68413" lon="23.71181">
        <ele>613.062014</ele>
        <time>2022-02-22T22:48:07.550Z</time>
      </trkpt>
      <trkpt lat="42.68357" lon="23.71133">
        <ele>614.544444</ele>
        <time>2022-02-22T22:48:33.582Z</time>
      </trkpt>
      <trkpt lat="42.68278" lon="23.71039">
        <ele>616.485559</ele>
        <time>2022-02-22T22:49:13.902Z</time>
      </trkpt>
      <trkpt lat="42.68014" lon="23.70681">
        <ele>618.819971</ele>
        <time>2022-02-22T22:51:19.294Z</time>
      </trkpt>
      <trkpt lat="42.67763" lon="23.70449">
        <ele>606.578495</ele>
        <time>2022-02-22T22:52:17.568Z</time>
      </trkpt>
      <trkpt lat="42.67692" lon="23.70375">
        <ele>601.274075</ele>
        <time>2022-02-22T22:52:33.900Z</time>
      </trkpt>
      <trkpt lat="42.6761" lon="23.7027">
        <ele>594.668656</ele>
        <time>2022-02-22T22:52:54.645Z</time>
      </trkpt>
      <trkpt lat="42.67533" lon="23.70138">
        <ele>587.782466</ele>
        <time>2022-02-22T22:53:17.741Z</time>
      </trkpt>
      <trkpt lat="42.67334" lon="23.69724">
        <ele>571.655926</ele>
        <time>2022-02-22T22:54:28.179Z</time>
      </trkpt>
      <trkpt lat="42.67263" lon="23.69589">
        <ele>568.439136</ele>
        <time>2022-02-22T22:54:53.873Z</time>
      </trkpt>
      <trkpt lat="42.67137" lon="23.69389">
        <ele>565.427426</ele>
        <time>2022-02-22T22:55:38.750Z</time>
      </trkpt>
      <trkpt lat="42.67112" lon="23.6934">
        <ele>564.969048</ele>
        <time>2022-02-22T22:55:49.748Z</time>
      </trkpt>
      <trkpt lat="42.67047" lon="23.69188">
        <ele>565.006969</ele>
        <time>2022-02-22T22:56:25.614Z</time>
      </trkpt>
      <trkpt lat="42.67018" lon="23.69134">
        <ele>565.097203</ele>
        <time>2022-02-22T22:56:40.482Z</time>
      </trkpt>
      <trkpt lat="42.66915" lon="23.68938">
        <ele>566.353105</ele>
        <time>2022-02-22T22:57:37.697Z</time>
      </trkpt>
      <trkpt lat="42.66874" lon="23.68861">
        <ele>566.30063</ele>
        <time>2022-02-22T22:57:57.906Z</time>
      </trkpt>
      <trkpt lat="42.66858" lon="23.68835">
        <ele>566.19524</ele>
        <time>2022-02-22T22:58:04.722Z</time>
      </trkpt>
      <trkpt lat="42.66866" lon="23.68789">
        <ele>566.049857</ele>
        <time>2022-02-22T22:58:13.276Z</time>
      </trkpt>
      <trkpt lat="42.6687" lon="23.68772">
        <ele>565.993764</ele>
        <time>2022-02-22T22:58:16.430Z</time>
      </trkpt>
      <trkpt lat="42.66874" lon="23.6872">
        <ele>565.833789</ele>
        <time>2022-02-22T22:58:25.367Z</time>
      </trkpt>
      <trkpt lat="42.66876" lon="23.68688">
        <ele>565.684545</ele>
        <time>2022-02-22T22:58:30.847Z</time>
      </trkpt>
      <trkpt lat="42.6688" lon="23.68638">
        <ele>565.12664</ele>
        <time>2022-02-22T22:58:39.198Z</time>
      </trkpt>
      <trkpt lat="42.66888" lon="23.68548">
        <ele>564.136862</ele>
        <time>2022-02-22T22:58:53.617Z</time>
      </trkpt>
      <trkpt lat="42.66898" lon="23.68427">
        <ele>562.835045</ele>
        <time>2022-02-22T22:59:13.051Z</time>
      </trkpt>
      <trkpt lat="42.669" lon="23.68394">
        <ele>562.519761</ele>
        <time>2022-02-22T22:59:18.494Z</time>
      </trkpt>
      <trkpt lat="42.66906" lon="23.68337">
        <ele>561.97185</ele>
        <time>2022-02-22T22:59:28.093Z</time>
      </trkpt>
      <trkpt lat="42.66911" lon="23.68311">
        <ele>561.716824</ele>
        <time>2022-02-22T22:59:32.462Z</time>
      </trkpt>
      <trkpt lat="42.66916" lon="23.68296">
        <ele>561.557664</ele>
        <time>2022-02-22T22:59:35.355Z</time>
      </trkpt>
      <trkpt lat="42.66927" lon="23.68284">
        <ele>561.378648</ele>
        <time>2022-02-22T22:59:38.393Z</time>
      </trkpt>
      <trkpt lat="42.6696" lon="23.68273">
        <ele>560.937288</ele>
        <time>2022-02-22T22:59:46.152Z</time>
      </trkpt>
      <trkpt lat="42.67003" lon="23.68256">
        <ele>560.458661</ele>
        <time>2022-02-22T22:59:56.208Z</time>
      </trkpt>
      <trkpt lat="42.67022" lon="23.68248">
        <ele>560.273154</ele>
        <time>2022-02-22T23:00:00.754Z</time>
      </trkpt>
      <trkpt lat="42.67054" lon="23.68232">
        <ele>559.947017</ele>
        <time>2022-02-22T23:00:08.807Z</time>
      </trkpt>
      <trkpt lat="42.67067" lon="23.68224">
        <ele>559.815171</ele>
        <time>2022-02-22T23:00:12.091Z</time>
      </trkpt>
      <trkpt lat="42.67088" lon="23.68193">
        <ele>559.517587</ele>
        <time>2022-02-22T23:00:19.682Z</time>
      </trkpt>
      <trkpt lat="42.67094" lon="23.68162">
        <ele>559.297248</ele>
        <time>2022-02-22T23:00:25.176Z</time>
      </trkpt>
      <trkpt lat="42.671" lon="23.68112">
        <ele>558.916433</ele>
        <time>2022-02-22T23:00:34.067Z</time>
      </trkpt>
      <trkpt lat="42.67107" lon="23.68035">
        <ele>558.250999</ele>
        <time>2022-02-22T23:00:47.039Z</time>
      </trkpt>
      <trkpt lat="42.67115" lon="23.67976">
        <ele>557.744397</ele>
        <time>2022-02-22T23:00:56.729Z</time>
      </trkpt>
      <trkpt lat="42.67123" lon="23.67947">
        <ele>557.474383</ele>
        <time>2022-02-22T23:01:01.963Z</time>
      </trkpt>
      <trkpt lat="42.67137" lon="23.67913">
        <ele>557.146844</ele>
        <time>2022-02-22T23:01:08.318Z</time>
      </trkpt>
      <trkpt lat="42.67147" lon="23.67893">
        <ele>556.941431</ele>
        <time>2022-02-22T23:01:12.352Z</time>
      </trkpt>
      <trkpt lat="42.67158" lon="23.6787">
        <ele>556.835399</ele>
        <time>2022-02-22T23:01:17.119Z</time>
      </trkpt>
      <trkpt lat="42.67185" lon="23.67824">
        <ele>556.620686</ele>
        <time>2022-02-22T23:01:27.051Z</time>
      </trkpt>
      <trkpt lat="42.67197" lon="23.67803">
        <ele>556.522425</ele>
        <time>2022-02-22T23:01:35.105Z</time>
      </trkpt>
      <trkpt lat="42.6721" lon="23.67779">
        <ele>556.413482</ele>
        <time>2022-02-22T23:01:44.159Z</time>
      </trkpt>
      <trkpt lat="42.6734" lon="23.67525">
        <ele>556.369785</ele>
        <time>2022-02-22T23:03:26.893Z</time>
      </trkpt>
      <trkpt lat="42.67362" lon="23.67487">
        <ele>556.463485</ele>
        <time>2022-02-22T23:03:43.421Z</time>
      </trkpt>
      <trkpt lat="42.67376" lon="23.6747">
        <ele>556.548753</ele>
        <time>2022-02-22T23:03:52.566Z</time>
      </trkpt>
      <trkpt lat="42.67394" lon="23.67458">
        <ele>556.635833</ele>
        <time>2022-02-22T23:04:01.902Z</time>
      </trkpt>
      <trkpt lat="42.67659" lon="23.67333">
        <ele>557.887967</ele>
        <time>2022-02-22T23:06:12.617Z</time>
      </trkpt>
      <trkpt lat="42.67701" lon="23.67302">
        <ele>558.070128</ele>
        <time>2022-02-22T23:06:35.025Z</time>
      </trkpt>
      <trkpt lat="42.67721" lon="23.67277">
        <ele>558.130603</ele>
        <time>2022-02-22T23:06:47.528Z</time>
      </trkpt>
      <trkpt lat="42.67736" lon="23.67238">
        <ele>558.202881</ele>
        <time>2022-02-22T23:07:02.454Z</time>
      </trkpt>
      <trkpt lat="42.67737" lon="23.67234">
        <ele>558.209543</ele>
        <time>2022-02-22T23:07:03.823Z</time>
      </trkpt>
      <trkpt lat="42.67751" lon="23.672">
        <ele>558.273953</ele>
        <time>2022-02-22T23:07:16.805Z</time>
      </trkpt>
      <trkpt lat="42.67759" lon="23.67178">
        <ele>558.313998</ele>
        <time>2022-02-22T23:07:24.951Z</time>
      </trkpt>
      <trkpt lat="42.67746" lon="23.67167">
        <ele>558.348185</ele>
        <time>2022-02-22T23:07:29.017Z</time>
      </trkpt>
      <trkpt lat="42.6767" lon="23.67111">
        <ele>558.372649</ele>
        <time>2022-02-22T23:07:52.272Z</time>
      </trkpt>
      <trkpt lat="42.67665" lon="23.67103">
        <ele>558.361162</ele>
        <time>2022-02-22T23:07:54.271Z</time>
      </trkpt>
      <trkpt lat="42.67661" lon="23.67094">
        <ele>558.349559</ele>
        <time>2022-02-22T23:07:56.295Z</time>
      </trkpt>
      <trkpt lat="42.67657" lon="23.6707">
        <ele>558.32429</ele>
        <time>2022-02-22T23:08:00.977Z</time>
      </trkpt>
      <trkpt lat="42.67659" lon="23.6704">
        <ele>558.29222</ele>
        <time>2022-02-22T23:08:06.576Z</time>
      </trkpt>
      <trkpt lat="42.67672" lon="23.66948">
        <ele>558.193074</ele>
        <time>2022-02-22T23:08:24.378Z</time>
      </trkpt>
      <trkpt lat="42.67675" lon="23.66929">
        <ele>558.164485</ele>
        <time>2022-02-22T23:08:30.537Z</time>
      </trkpt>
      <trkpt lat="42.67674" lon="23.6688">
        <ele>558.054475</ele>
        <time>2022-02-22T23:08:46.369Z</time>
      </trkpt>
      <trkpt lat="42.67645" lon="23.66803">
        <ele>557.86267</ele>
        <time>2022-02-22T23:09:14.398Z</time>
      </trkpt>
      <trkpt lat="42.67639" lon="23.66788">
        <ele>557.825072</ele>
        <time>2022-02-22T23:09:19.768Z</time>
      </trkpt>
      <trkpt lat="42.67615" lon="23.66722">
        <ele>557.663222</ele>
        <time>2022-02-22T23:09:42.483Z</time>
      </trkpt>
      <trkpt lat="42.67583" lon="23.66634">
        <ele>557.144409</ele>
        <time>2022-02-22T23:10:12.509Z</time>
      </trkpt>
      <trkpt lat="42.67551" lon="23.66544">
        <ele>556.587128</ele>
        <time>2022-02-22T23:10:42.286Z</time>
      </trkpt>
      <trkpt lat="42.6753" lon="23.66486">
        <ele>556.240955</ele>
        <time>2022-02-22T23:11:01.872Z</time>
      </trkpt>
      <trkpt lat="42.67366" lon="23.6602">
        <ele>555.054756</ele>
        <time>2022-02-22T23:13:45.665Z</time>
      </trkpt>
      <trkpt lat="42.67357" lon="23.65985">
        <ele>555.029498</ele>
        <time>2022-02-22T23:13:57.523Z</time>
      </trkpt>
      <trkpt lat="42.67338" lon="23.65881">
        <ele>554.955169</ele>
        <time>2022-02-22T23:14:32.610Z</time>
      </trkpt>
      <trkpt lat="42.67318" lon="23.65783">
        <ele>554.935592</ele>
        <time>2022-02-22T23:15:05.725Z</time>
      </trkpt>
      <trkpt lat="42.6728" lon="23.65638">
        <ele>555.046545</ele>
        <time>2022-02-22T23:15:56.442Z</time>
      </trkpt>
      <trkpt lat="42.67271" lon="23.65608">
        <ele>555.070301</ele>
        <time>2022-02-22T23:16:07.499Z</time>
      </trkpt>
      <trkpt lat="42.67263" lon="23.65591">
        <ele>555.084938</ele>
        <time>2022-02-22T23:16:14.317Z</time>
      </trkpt>
      <trkpt lat="42.67214" lon="23.65538">
        <ele>555.121774</ele>
        <time>2022-02-22T23:16:42.738Z</time>
      </trkpt>
      <trkpt lat="42.67168" lon="23.65488">
        <ele>555.155827</ele>
        <time>2022-02-22T23:17:09.086Z</time>
      </trkpt>
      <trkpt lat="42.67143" lon="23.65459">
        <ele>555.174935</ele>
        <time>2022-02-22T23:17:23.458Z</time>
      </trkpt>
      <trkpt lat="42.67131" lon="23.65442">
        <ele>555.184956</ele>
        <time>2022-02-22T23:17:31.015Z</time>
      </trkpt>
      <trkpt lat="42.67081" lon="23.65342">
        <ele>555.010299</ele>
        <time>2022-02-22T23:18:10.372Z</time>
      </trkpt>
      <trkpt lat="42.67062" lon="23.65307">
        <ele>554.937085</ele>
        <time>2022-02-22T23:18:24.292Z</time>
      </trkpt>
      <trkpt lat="42.6702" lon="23.6522">
        <ele>554.737946</ele>
        <time>2022-02-22T23:18:57.122Z</time>
      </trkpt>
      <trkpt lat="42.66996" lon="23.65169">
        <ele>554.498415</ele>
        <time>2022-02-22T23:19:15.891Z</time>
      </trkpt>
      <trkpt lat="42.66975" lon="23.65122">
        <ele>554.283854</ele>
        <time>2022-02-22T23:19:32.756Z</time>
      </trkpt>
      <trkpt lat="42.66935" lon="23.65038">
        <ele>553.885943</ele>
        <time>2022-02-22T23:20:04.132Z</time>
      </trkpt>
      <trkpt lat="42.66927" lon="23.65022">
        <ele>553.812382</ele>
        <time>2022-02-22T23:20:09.857Z</time>
      </trkpt>
      <trkpt lat="42.66917" lon="23.65012">
        <ele>553.742982</ele>
        <time>2022-02-22T23:20:15.179Z</time>
      </trkpt>
      <trkpt lat="42.66857" lon="23.64969">
        <ele>553.369437</ele>
        <time>2022-02-22T23:20:43.455Z</time>
      </trkpt>
      <trkpt lat="42.66851" lon="23.64964">
        <ele>553.330668</ele>
        <time>2022-02-22T23:20:46.419Z</time>
      </trkpt>
      <trkpt lat="42.66771" lon="23.64908">
        <ele>552.835104</ele>
        <time>2022-02-22T23:21:24.057Z</time>
      </trkpt>
      <trkpt lat="42.66735" lon="23.64853">
        <ele>552.497709</ele>
        <time>2022-02-22T23:21:47.414Z</time>
      </trkpt>
      <trkpt lat="42.66727" lon="23.64839">
        <ele>552.418283</ele>
        <time>2022-02-22T23:21:52.891Z</time>
      </trkpt>
      <trkpt lat="42.66722" lon="23.64825">
        <ele>552.348201</ele>
        <time>2022-02-22T23:21:57.798Z</time>
      </trkpt>
      <trkpt lat="42.66719" lon="23.64819">
        <ele>552.314317</ele>
        <time>2022-02-22T23:22:00.052Z</time>
      </trkpt>
      <trkpt lat="42.66715" lon="23.6479">
        <ele>552.180123</ele>
        <time>2022-02-22T23:22:09.225Z</time>
      </trkpt>
      <trkpt lat="42.66717" lon="23.6463">
        <ele>551.341088</ele>
        <time>2022-02-22T23:22:57.955Z</time>
      </trkpt>
      <trkpt lat="42.66721" lon="23.64319">
        <ele>549.636166</ele>
        <time>2022-02-22T23:23:51.308Z</time>
      </trkpt>
      <trkpt lat="42.66724" lon="23.64">
        <ele>548.910024</ele>
        <time>2022-02-22T23:24:52.019Z</time>
      </trkpt>
      <trkpt lat="42.66726" lon="23.6389">
        <ele>548.727233</ele>
        <time>2022-02-22T23:25:13.190Z</time>
      </trkpt>
      <trkpt lat="42.66736" lon="23.63029">
        <ele>547.180786</ele>
        <time>2022-02-22T23:27:54.215Z</time>
      </trkpt>
      <trkpt lat="42.66736" lon="23.63018">
        <ele>547.167581</ele>
        <time>2022-02-22T23:27:56.415Z</time>
      </trkpt>
      <trkpt lat="42.66742" lon="23.62505">
        <ele>547.883835</ele>
        <time>2022-02-22T23:29:41.796Z</time>
      </trkpt>
      <trkpt lat="42.66749" lon="23.61978">
        <ele>548.601841</ele>
        <time>2022-02-22T23:31:28.339Z</time>
      </trkpt>
      <trkpt lat="42.66759" lon="23.61179">
        <ele>549.464314</ele>
        <time>2022-02-22T23:34:10.236Z</time>
      </trkpt>
      <trkpt lat="42.66761" lon="23.60926">
        <ele>549.038124</ele>
        <time>2022-02-22T23:34:57.118Z</time>
      </trkpt>
      <trkpt lat="42.66769" lon="23.60709">
        <ele>548.739672</ele>
        <time>2022-02-22T23:35:37.751Z</time>
      </trkpt>
      <trkpt lat="42.66768" lon="23.60506">
        <ele>549.012844</ele>
        <time>2022-02-22T23:36:19.418Z</time>
      </trkpt>
      <trkpt lat="42.66768" lon="23.60482">
        <ele>549.11494</ele>
        <time>2022-02-22T23:36:24.560Z</time>
      </trkpt>
      <trkpt lat="42.66771" lon="23.60482">
        <ele>549.130629</ele>
        <time>2022-02-22T23:36:25.397Z</time>
      </trkpt>
      <trkpt lat="42.66773" lon="23.6048">
        <ele>549.148366</ele>
        <time>2022-02-22T23:36:26.298Z</time>
      </trkpt>
      <trkpt lat="42.66776" lon="23.60478">
        <ele>549.165421</ele>
        <time>2022-02-22T23:36:27.195Z</time>
      </trkpt>
      <trkpt lat="42.66779" lon="23.60474">
        <ele>549.193694</ele>
        <time>2022-02-22T23:36:28.681Z</time>
      </trkpt>
      <trkpt lat="42.66785" lon="23.60455">
        <ele>549.281462</ele>
        <time>2022-02-22T23:36:33.031Z</time>
      </trkpt>
      <trkpt lat="42.66785" lon="23.60451">
        <ele>549.296512</ele>
        <time>2022-02-22T23:36:33.888Z</time>
      </trkpt>
      <trkpt lat="42.66793" lon="23.60448">
        <ele>549.342363</ele>
        <time>2022-02-22T23:36:36.351Z</time>
      </trkpt>
      <trkpt lat="42.66945" lon="23.60424">
        <ele>549.991325</ele>
        <time>2022-02-22T23:37:22.074Z</time>
      </trkpt>
      <trkpt lat="42.66957" lon="23.60403">
        <ele>550.004642</ele>
        <time>2022-02-22T23:37:27.551Z</time>
      </trkpt>
      <trkpt lat="42.66967" lon="23.60385">
        <ele>550.016453</ele>
        <time>2022-02-22T23:37:32.147Z</time>
      </trkpt>
      <trkpt lat="42.67" lon="23.60323">
        <ele>550.055261</ele>
        <time>2022-02-22T23:37:46.996Z</time>
      </trkpt>
      <trkpt lat="42.67007" lon="23.6028">
        <ele>550.077265</ele>
        <time>2022-02-22T23:37:55.057Z</time>
      </trkpt>
      <trkpt lat="42.67007" lon="23.60267">
        <ele>550.073974</ele>
        <time>2022-02-22T23:37:57.367Z</time>
      </trkpt>
      <trkpt lat="42.67007" lon="23.60255">
        <ele>550.038847</ele>
        <time>2022-02-22T23:37:59.524Z</time>
      </trkpt>
      <trkpt lat="42.67006" lon="23.60238">
        <ele>549.987186</ele>
        <time>2022-02-22T23:38:02.681Z</time>
      </trkpt>
      <trkpt lat="42.67004" lon="23.6019">
        <ele>549.842598</ele>
        <time>2022-02-22T23:38:11.340Z</time>
      </trkpt>
      <trkpt lat="42.67003" lon="23.60177">
        <ele>549.802295</ele>
        <time>2022-02-22T23:38:13.740Z</time>
      </trkpt>
      <trkpt lat="42.67006" lon="23.60159">
        <ele>549.745819</ele>
        <time>2022-02-22T23:38:17.187Z</time>
      </trkpt>
      <trkpt lat="42.67012" lon="23.60145">
        <ele>549.69888</ele>
        <time>2022-02-22T23:38:20.040Z</time>
      </trkpt>
      <trkpt lat="42.67028" lon="23.60114">
        <ele>549.583944</ele>
        <time>2022-02-22T23:38:27.026Z</time>
      </trkpt>
      <trkpt lat="42.67041" lon="23.60088">
        <ele>549.490009</ele>
        <time>2022-02-22T23:38:32.742Z</time>
      </trkpt>
      <trkpt lat="42.67049" lon="23.60069">
        <ele>549.424223</ele>
        <time>2022-02-22T23:38:36.845Z</time>
      </trkpt>
      <trkpt lat="42.67083" lon="23.59985">
        <ele>549.187496</ele>
        <time>2022-02-22T23:38:54.722Z</time>
      </trkpt>
      <trkpt lat="42.67104" lon="23.59918">
        <ele>549.024371</ele>
        <time>2022-02-22T23:39:08.175Z</time>
      </trkpt>
      <trkpt lat="42.67106" lon="23.59919">
        <ele>549.015515</ele>
        <time>2022-02-22T23:39:08.922Z</time>
      </trkpt>
      <trkpt lat="42.67112" lon="23.59917">
        <ele>548.997949</ele>
        <time>2022-02-22T23:39:10.385Z</time>
      </trkpt>
      <trkpt lat="42.67121" lon="23.59915">
        <ele>548.967982</ele>
        <time>2022-02-22T23:39:12.957Z</time>
      </trkpt>
      <trkpt lat="42.67116" lon="23.59912">
        <ele>548.949479</ele>
        <time>2022-02-22T23:39:14.449Z</time>
      </trkpt>
      <trkpt lat="42.67115" lon="23.59898">
        <ele>548.917167</ele>
        <time>2022-02-22T23:39:17.156Z</time>
      </trkpt>
      <trkpt lat="42.67113" lon="23.59895">
        <ele>548.908577</ele>
        <time>2022-02-22T23:39:17.838Z</time>
      </trkpt>
      <trkpt lat="42.67126" lon="23.59859">
        <ele>548.817328</ele>
        <time>2022-02-22T23:39:25.405Z</time>
      </trkpt>
      <trkpt lat="42.6713" lon="23.59849">
        <ele>548.792966</ele>
        <time>2022-02-22T23:39:27.522Z</time>
      </trkpt>
      <trkpt lat="42.67158" lon="23.59773">
        <ele>548.693556</ele>
        <time>2022-02-22T23:39:43.463Z</time>
      </trkpt>
      <trkpt lat="42.67202" lon="23.59657">
        <ele>548.542142</ele>
        <time>2022-02-22T23:40:08.489Z</time>
      </trkpt>
      <trkpt lat="42.67244" lon="23.59544">
        <ele>548.336089</ele>
        <time>2022-02-22T23:40:33.244Z</time>
      </trkpt>
      <trkpt lat="42.67274" lon="23.5947">
        <ele>548.188684</ele>
        <time>2022-02-22T23:40:48.678Z</time>
      </trkpt>
      <trkpt lat="42.67276" lon="23.59464">
        <ele>548.17687</ele>
        <time>2022-02-22T23:40:49.928Z</time>
      </trkpt>
      <trkpt lat="42.67339" lon="23.59311">
        <ele>547.695246</ele>
        <time>2022-02-22T23:41:22.800Z</time>
      </trkpt>
      <trkpt lat="42.6735" lon="23.59283">
        <ele>547.593215</ele>
        <time>2022-02-22T23:41:28.531Z</time>
      </trkpt>
      <trkpt lat="42.67359" lon="23.59259">
        <ele>547.508338</ele>
        <time>2022-02-22T23:41:33.264Z</time>
      </trkpt>
      <trkpt lat="42.67394" lon="23.5917">
        <ele>547.149908</ele>
        <time>2022-02-22T23:41:51.410Z</time>
      </trkpt>
      <trkpt lat="42.67441" lon="23.59049">
        <ele>546.583986</ele>
        <time>2022-02-22T23:42:16.449Z</time>
      </trkpt>
      <trkpt lat="42.67481" lon="23.58949">
        <ele>546.095181</ele>
        <time>2022-02-22T23:42:36.255Z</time>
      </trkpt>
      <trkpt lat="42.675" lon="23.589">
        <ele>545.839593</ele>
        <time>2022-02-22T23:42:45.975Z</time>
      </trkpt>
      <trkpt lat="42.6753" lon="23.58824">
        <ele>545.445386</ele>
        <time>2022-02-22T23:43:01.224Z</time>
      </trkpt>
      <trkpt lat="42.67656" lon="23.58503">
        <ele>544.472409</ele>
        <time>2022-02-22T23:44:08.663Z</time>
      </trkpt>
      <trkpt lat="42.67721" lon="23.58338">
        <ele>544.221102</ele>
        <time>2022-02-22T23:44:44.411Z</time>
      </trkpt>
      <trkpt lat="42.67735" lon="23.58304">
        <ele>544.278197</ele>
        <time>2022-02-22T23:44:52.102Z</time>
      </trkpt>
      <trkpt lat="42.67818" lon="23.58087">
        <ele>544.522275</ele>
        <time>2022-02-22T23:45:42.637Z</time>
      </trkpt>
      <trkpt lat="42.6787" lon="23.57963">
        <ele>544.317483</ele>
        <time>2022-02-22T23:46:10.372Z</time>
      </trkpt>
      <trkpt lat="42.67922" lon="23.57835">
        <ele>543.813149</ele>
        <time>2022-02-22T23:46:36.144Z</time>
      </trkpt>
      <trkpt lat="42.67944" lon="23.57777">
        <ele>543.491693</ele>
        <time>2022-02-22T23:46:47.510Z</time>
      </trkpt>
      <trkpt lat="42.67947" lon="23.5777">
        <ele>543.455581</ele>
        <time>2022-02-22T23:46:48.768Z</time>
      </trkpt>
      <trkpt lat="42.68016" lon="23.57589">
        <ele>542.828308</ele>
        <time>2022-02-22T23:47:25.456Z</time>
      </trkpt>
      <trkpt lat="42.6805" lon="23.57503">
        <ele>542.66581</ele>
        <time>2022-02-22T23:47:44.900Z</time>
      </trkpt>
      <trkpt lat="42.68055" lon="23.57489">
        <ele>542.639538</ele>
        <time>2022-02-22T23:47:48.086Z</time>
      </trkpt>
      <trkpt lat="42.68134" lon="23.57285">
        <ele>542.732076</ele>
        <time>2022-02-22T23:48:34.305Z</time>
      </trkpt>
      <trkpt lat="42.68144" lon="23.57261">
        <ele>542.746785</ele>
        <time>2022-02-22T23:48:39.603Z</time>
      </trkpt>
      <trkpt lat="42.68203" lon="23.57111">
        <ele>542.562403</ele>
        <time>2022-02-22T23:49:11.723Z</time>
      </trkpt>
      <trkpt lat="42.6822" lon="23.57073">
        <ele>542.513667</ele>
        <time>2022-02-22T23:49:20.039Z</time>
      </trkpt>
      <trkpt lat="42.68236" lon="23.57038">
        <ele>542.485253</ele>
        <time>2022-02-22T23:49:28.030Z</time>
      </trkpt>
      <trkpt lat="42.68252" lon="23.57007">
        <ele>542.509935</ele>
        <time>2022-02-22T23:49:35.266Z</time>
      </trkpt>
      <trkpt lat="42.68286" lon="23.56942">
        <ele>542.562097</ele>
        <time>2022-02-22T23:49:51.506Z</time>
      </trkpt>
      <trkpt lat="42.68334" lon="23.5685">
        <ele>542.63578</ele>
        <time>2022-02-22T23:50:15.541Z</time>
      </trkpt>
      <trkpt lat="42.68391" lon="23.56724">
        <ele>542.762411</ele>
        <time>2022-02-22T23:50:47.979Z</time>
      </trkpt>
      <trkpt lat="42.68417" lon="23.56665">
        <ele>542.822</ele>
        <time>2022-02-22T23:51:02.096Z</time>
      </trkpt>
      <trkpt lat="42.68438" lon="23.56617">
        <ele>542.654171</ele>
        <time>2022-02-22T23:51:12.887Z</time>
      </trkpt>
      <trkpt lat="42.6847" lon="23.56545">
        <ele>541.968123</ele>
        <time>2022-02-22T23:51:27.996Z</time>
      </trkpt>
      <trkpt lat="42.68504" lon="23.56466">
        <ele>541.208019</ele>
        <time>2022-02-22T23:51:43.846Z</time>
      </trkpt>
      <trkpt lat="42.68593" lon="23.56259">
        <ele>538.776126</ele>
        <time>2022-02-22T23:52:23.825Z</time>
      </trkpt>
      <trkpt lat="42.68669" lon="23.56083">
        <ele>537.567226</ele>
        <time>2022-02-22T23:53:00.711Z</time>
      </trkpt>
      <trkpt lat="42.68688" lon="23.56038">
        <ele>537.337844</ele>
        <time>2022-02-22T23:53:10.954Z</time>
      </trkpt>
      <trkpt lat="42.68747" lon="23.55891">
        <ele>537.347992</ele>
        <time>2022-02-22T23:53:45.683Z</time>
      </trkpt>
      <trkpt lat="42.68825" lon="23.55695">
        <ele>537.515877</ele>
        <time>2022-02-22T23:54:33.681Z</time>
      </trkpt>
      <trkpt lat="42.69004" lon="23.55261">
        <ele>536.731974</ele>
        <time>2022-02-22T23:56:11.368Z</time>
      </trkpt>
      <trkpt lat="42.69185" lon="23.54925">
        <ele>535.64899</ele>
        <time>2022-02-22T23:57:30.830Z</time>
      </trkpt>
      <trkpt lat="42.69442" lon="23.54443">
        <ele>535.390955</ele>
        <time>2022-02-22T23:59:32.077Z</time>
      </trkpt>
      <trkpt lat="42.69463" lon="23.54401">
        <ele>535.379329</ele>
        <time>2022-02-22T23:59:42.377Z</time>
      </trkpt>
      <trkpt lat="42.69622" lon="23.54103">
        <ele>535.099661</ele>
        <time>2022-02-23T00:00:56.636Z</time>
      </trkpt>
      <trkpt lat="42.70299" lon="23.52823">
        <ele>532.377348</ele>
        <time>2022-02-23T00:06:06.105Z</time>
      </trkpt>
      <trkpt lat="42.70321" lon="23.52785">
        <ele>532.308366</ele>
        <time>2022-02-23T00:06:15.903Z</time>
      </trkpt>
      <trkpt lat="42.70345" lon="23.52755">
        <ele>532.24599</ele>
        <time>2022-02-23T00:06:24.866Z</time>
      </trkpt>
      <trkpt lat="42.70483" lon="23.5263">
        <ele>531.907439</ele>
        <time>2022-02-23T00:07:09.943Z</time>
      </trkpt>
      <trkpt lat="42.70511" lon="23.52607">
        <ele>531.786697</ele>
        <time>2022-02-23T00:07:18.271Z</time>
      </trkpt>
      <trkpt lat="42.70525" lon="23.52601">
        <ele>531.732026</ele>
        <time>2022-02-23T00:07:21.948Z</time>
      </trkpt>
      <trkpt lat="42.70544" lon="23.526">
        <ele>531.665904</ele>
        <time>2022-02-23T00:07:26.708Z</time>
      </trkpt>
      <trkpt lat="42.70544" lon="23.52593">
        <ele>531.648117</ele>
        <time>2022-02-23T00:07:27.830Z</time>
      </trkpt>
      <trkpt lat="42.70552" lon="23.52471">
        <ele>531.318126</ele>
        <time>2022-02-23T00:07:50.155Z</time>
      </trkpt>
      <trkpt lat="42.70573" lon="23.52138">
        <ele>531.773285</ele>
        <time>2022-02-23T00:08:59.297Z</time>
      </trkpt>
      <trkpt lat="42.70577" lon="23.52096">
        <ele>531.807044</ele>
        <time>2022-02-23T00:09:08.289Z</time>
      </trkpt>
      <trkpt lat="42.70579" lon="23.52042">
        <ele>531.849785</ele>
        <time>2022-02-23T00:09:19.239Z</time>
      </trkpt>
      <trkpt lat="42.70584" lon="23.51975">
        <ele>531.902702</ele>
        <time>2022-02-23T00:09:31.915Z</time>
      </trkpt>
      <trkpt lat="42.70594" lon="23.51955">
        <ele>531.810182</ele>
        <time>2022-02-23T00:09:36.367Z</time>
      </trkpt>
      <trkpt lat="42.70596" lon="23.5195">
        <ele>531.782776</ele>
        <time>2022-02-23T00:09:37.431Z</time>
      </trkpt>
      <trkpt lat="42.70613" lon="23.51924">
        <ele>531.63404</ele>
        <time>2022-02-23T00:09:43.658Z</time>
      </trkpt>
      <trkpt lat="42.70625" lon="23.519">
        <ele>531.504712</ele>
        <time>2022-02-23T00:09:48.882Z</time>
      </trkpt>
      <trkpt lat="42.70633" lon="23.51888">
        <ele>531.437601</ele>
        <time>2022-02-23T00:09:51.650Z</time>
      </trkpt>
      <trkpt lat="42.7063" lon="23.51885">
        <ele>531.414155</ele>
        <time>2022-02-23T00:09:52.615Z</time>
      </trkpt>
      <trkpt lat="42.70628" lon="23.51881">
        <ele>531.393389</ele>
        <time>2022-02-23T00:09:53.437Z</time>
      </trkpt>
      <trkpt lat="42.70616" lon="23.51855">
        <ele>531.260997</ele>
        <time>2022-02-23T00:09:58.805Z</time>
      </trkpt>
      <trkpt lat="42.70608" lon="23.51829">
        <ele>531.137562</ele>
        <time>2022-02-23T00:10:03.766Z</time>
      </trkpt>
      <trkpt lat="42.706" lon="23.51793">
        <ele>530.972736</ele>
        <time>2022-02-23T00:10:10.506Z</time>
      </trkpt>
      <trkpt lat="42.706" lon="23.51719">
        <ele>530.612729</ele>
        <time>2022-02-23T00:10:23.486Z</time>
      </trkpt>
      <trkpt lat="42.70613" lon="23.51532">
        <ele>529.639259</ele>
        <time>2022-02-23T00:10:56.399Z</time>
      </trkpt>
      <trkpt lat="42.70653" lon="23.50876">
        <ele>527.01301</ele>
        <time>2022-02-23T00:12:54.502Z</time>
      </trkpt>
      <trkpt lat="42.7071" lon="23.50034">
        <ele>526.350812</ele>
        <time>2022-02-23T00:15:38.013Z</time>
      </trkpt>
      <trkpt lat="42.70723" lon="23.49839">
        <ele>526.488739</ele>
        <time>2022-02-23T00:16:16.970Z</time>
      </trkpt>
      <trkpt lat="42.70729" lon="23.49756">
        <ele>526.698375</ele>
        <time>2022-02-23T00:16:34.013Z</time>
      </trkpt>
      <trkpt lat="42.7073" lon="23.49719">
        <ele>526.822056</ele>
        <time>2022-02-23T00:16:41.835Z</time>
      </trkpt>
      <trkpt lat="42.70732" lon="23.49662">
        <ele>527.017846</ele>
        <time>2022-02-23T00:16:54.778Z</time>
      </trkpt>
      <trkpt lat="42.70729" lon="23.49565">
        <ele>527.336549</ele>
        <time>2022-02-23T00:17:15.398Z</time>
      </trkpt>
      <trkpt lat="42.70722" lon="23.49501">
        <ele>527.246294</ele>
        <time>2022-02-23T00:17:29.092Z</time>
      </trkpt>
      <trkpt lat="42.70714" lon="23.49453">
        <ele>527.178058</ele>
        <time>2022-02-23T00:17:38.505Z</time>
      </trkpt>
      <trkpt lat="42.70706" lon="23.4942">
        <ele>527.130015</ele>
        <time>2022-02-23T00:17:44.642Z</time>
      </trkpt>
      <trkpt lat="42.70686" lon="23.49337">
        <ele>527.007656</ele>
        <time>2022-02-23T00:18:00.802Z</time>
      </trkpt>
      <trkpt lat="42.70662" lon="23.49223">
        <ele>526.741085</ele>
        <time>2022-02-23T00:18:21.482Z</time>
      </trkpt>
      <trkpt lat="42.70589" lon="23.48887">
        <ele>526.533132</ele>
        <time>2022-02-23T00:19:30.193Z</time>
      </trkpt>
      <trkpt lat="42.7057" lon="23.48787">
        <ele>526.623906</ele>
        <time>2022-02-23T00:19:51.304Z</time>
      </trkpt>
      <trkpt lat="42.70564" lon="23.48747">
        <ele>526.665194</ele>
        <time>2022-02-23T00:19:59.735Z</time>
      </trkpt>
      <trkpt lat="42.70563" lon="23.48735">
        <ele>526.677442</ele>
        <time>2022-02-23T00:20:01.902Z</time>
      </trkpt>
      <trkpt lat="42.70561" lon="23.48721">
        <ele>526.692217</ele>
        <time>2022-02-23T00:20:04.777Z</time>
      </trkpt>
      <trkpt lat="42.7056" lon="23.48707">
        <ele>526.70656</ele>
        <time>2022-02-23T00:20:07.936Z</time>
      </trkpt>
      <trkpt lat="42.70556" lon="23.48631">
        <ele>526.784857</ele>
        <time>2022-02-23T00:20:22.757Z</time>
      </trkpt>
      <trkpt lat="42.70556" lon="23.4861">
        <ele>526.806556</ele>
        <time>2022-02-23T00:20:27.307Z</time>
      </trkpt>
      <trkpt lat="42.70556" lon="23.48575">
        <ele>526.843559</ele>
        <time>2022-02-23T00:20:34.092Z</time>
      </trkpt>
      <trkpt lat="42.7056" lon="23.48486">
        <ele>526.936928</ele>
        <time>2022-02-23T00:20:52.364Z</time>
      </trkpt>
      <trkpt lat="42.70572" lon="23.48282">
        <ele>527.106122</ele>
        <time>2022-02-23T00:21:33.257Z</time>
      </trkpt>
      <trkpt lat="42.70584" lon="23.48075">
        <ele>527.29201</ele>
        <time>2022-02-23T00:22:14.391Z</time>
      </trkpt>
      <trkpt lat="42.7059" lon="23.47996">
        <ele>527.433072</ele>
        <time>2022-02-23T00:22:30.728Z</time>
      </trkpt>
      <trkpt lat="42.70601" lon="23.47946">
        <ele>527.526467</ele>
        <time>2022-02-23T00:22:44.846Z</time>
      </trkpt>
      <trkpt lat="42.70605" lon="23.4792">
        <ele>527.573806</ele>
        <time>2022-02-23T00:22:52.024Z</time>
      </trkpt>
      <trkpt lat="42.70608" lon="23.47877">
        <ele>527.633691</ele>
        <time>2022-02-23T00:23:03.632Z</time>
      </trkpt>
      <trkpt lat="42.7062" lon="23.47668">
        <ele>527.738583</ele>
        <time>2022-02-23T00:23:58.562Z</time>
      </trkpt>
      <trkpt lat="42.70618" lon="23.47643">
        <ele>527.744012</ele>
        <time>2022-02-23T00:24:04.950Z</time>
      </trkpt>
      <trkpt lat="42.70619" lon="23.47609">
        <ele>527.68463</ele>
        <time>2022-02-23T00:24:13.386Z</time>
      </trkpt>
      <trkpt lat="42.70621" lon="23.47573">
        <ele>527.62333</ele>
        <time>2022-02-23T00:24:22.108Z</time>
      </trkpt>
      <trkpt lat="42.70628" lon="23.4751">
        <ele>527.511318</ele>
        <time>2022-02-23T00:24:38.056Z</time>
      </trkpt>
      <trkpt lat="42.70631" lon="23.47472">
        <ele>527.4466</ele>
        <time>2022-02-23T00:24:47.317Z</time>
      </trkpt>
      <trkpt lat="42.70632" lon="23.47463">
        <ele>527.429655</ele>
        <time>2022-02-23T00:24:49.707Z</time>
      </trkpt>
      <trkpt lat="42.70634" lon="23.47417">
        <ele>527.350536</ele>
        <time>2022-02-23T00:25:01.072Z</time>
      </trkpt>
      <trkpt lat="42.70636" lon="23.4739">
        <ele>527.334075</ele>
        <time>2022-02-23T00:25:07.909Z</time>
      </trkpt>
      <trkpt lat="42.70641" lon="23.47301">
        <ele>527.395225</ele>
        <time>2022-02-23T00:25:31.240Z</time>
      </trkpt>
      <trkpt lat="42.70643" lon="23.47276">
        <ele>527.412357</ele>
        <time>2022-02-23T00:25:37.845Z</time>
      </trkpt>
      <trkpt lat="42.70631" lon="23.47281">
        <ele>527.424383</ele>
        <time>2022-02-23T00:25:42.412Z</time>
      </trkpt>
      <trkpt lat="42.70638" lon="23.47163">
        <ele>527.531456</ele>
        <time>2022-02-23T00:26:06.725Z</time>
      </trkpt>
      <trkpt lat="42.70645" lon="23.47086">
        <ele>527.693449</ele>
        <time>2022-02-23T00:26:22.867Z</time>
      </trkpt>
      <trkpt lat="42.70653" lon="23.4704">
        <ele>527.793047</ele>
        <time>2022-02-23T00:26:32.831Z</time>
      </trkpt>
      <trkpt lat="42.70679" lon="23.46966">
        <ele>527.966498</ele>
        <time>2022-02-23T00:26:49.695Z</time>
      </trkpt>
      <trkpt lat="42.70681" lon="23.46963">
        <ele>527.973428</ele>
        <time>2022-02-23T00:26:50.439Z</time>
      </trkpt>
      <trkpt lat="42.70689" lon="23.4695">
        <ele>528.004103</ele>
        <time>2022-02-23T00:26:53.753Z</time>
      </trkpt>
      <trkpt lat="42.70696" lon="23.46938">
        <ele>527.9851</ele>
        <time>2022-02-23T00:26:56.882Z</time>
      </trkpt>
      <trkpt lat="42.70716" lon="23.46909">
        <ele>527.936774</ele>
        <time>2022-02-23T00:27:04.888Z</time>
      </trkpt>
      <trkpt lat="42.70753" lon="23.4687">
        <ele>527.860088</ele>
        <time>2022-02-23T00:27:17.514Z</time>
      </trkpt>
      <trkpt lat="42.70822" lon="23.46807">
        <ele>527.723649</ele>
        <time>2022-02-23T00:27:38.653Z</time>
      </trkpt>
      <trkpt lat="42.70871" lon="23.46762">
        <ele>527.326594</ele>
        <time>2022-02-23T00:27:52.584Z</time>
      </trkpt>
      <trkpt lat="42.70918" lon="23.46715">
        <ele>526.886809</ele>
        <time>2022-02-23T00:28:06.225Z</time>
      </trkpt>
      <trkpt lat="42.70926" lon="23.46704">
        <ele>526.797849</ele>
        <time>2022-02-23T00:28:09.037Z</time>
      </trkpt>
      <trkpt lat="42.7095" lon="23.46668">
        <ele>526.530935</ele>
        <time>2022-02-23T00:28:17.467Z</time>
      </trkpt>
      <trkpt lat="42.70959" lon="23.46649">
        <ele>526.408076</ele>
        <time>2022-02-23T00:28:21.323Z</time>
      </trkpt>
      <trkpt lat="42.70966" lon="23.46632">
        <ele>526.352575</ele>
        <time>2022-02-23T00:28:24.916Z</time>
      </trkpt>
      <trkpt lat="42.70982" lon="23.46574">
        <ele>526.34423</ele>
        <time>2022-02-23T00:28:36.144Z</time>
      </trkpt>
      <trkpt lat="42.70988" lon="23.46512">
        <ele>526.33592</ele>
        <time>2022-02-23T00:28:47.839Z</time>
      </trkpt>
      <trkpt lat="42.70983" lon="23.46446">
        <ele>526.327026</ele>
        <time>2022-02-23T00:29:01.545Z</time>
      </trkpt>
      <trkpt lat="42.70972" lon="23.46403">
        <ele>526.327543</ele>
        <time>2022-02-23T00:29:11.566Z</time>
      </trkpt>
      <trkpt lat="42.70938" lon="23.46329">
        <ele>526.689889</ele>
        <time>2022-02-23T00:29:30.803Z</time>
      </trkpt>
      <trkpt lat="42.70912" lon="23.46293">
        <ele>526.898022</ele>
        <time>2022-02-23T00:29:41.809Z</time>
      </trkpt>
      <trkpt lat="42.70842" lon="23.46216">
        <ele>527.323146</ele>
        <time>2022-02-23T00:30:08.074Z</time>
      </trkpt>
      <trkpt lat="42.70819" lon="23.46181">
        <ele>527.27933</ele>
        <time>2022-02-23T00:30:17.982Z</time>
      </trkpt>
      <trkpt lat="42.70791" lon="23.46113">
        <ele>527.209087</ele>
        <time>2022-02-23T00:30:32.989Z</time>
      </trkpt>
      <trkpt lat="42.70777" lon="23.46058">
        <ele>527.15674</ele>
        <time>2022-02-23T00:30:43.711Z</time>
      </trkpt>
      <trkpt lat="42.70763" lon="23.45993">
        <ele>527.012318</ele>
        <time>2022-02-23T00:30:55.717Z</time>
      </trkpt>
      <trkpt lat="42.70762" lon="23.45943">
        <ele>526.784278</ele>
        <time>2022-02-23T00:31:07.645Z</time>
      </trkpt>
      <trkpt lat="42.70761" lon="23.45904">
        <ele>526.611146</ele>
        <time>2022-02-23T00:31:16.749Z</time>
      </trkpt>
      <trkpt lat="42.70758" lon="23.45792">
        <ele>526.10538</ele>
        <time>2022-02-23T00:31:43.417Z</time>
      </trkpt>
      <trkpt lat="42.70758" lon="23.4577">
        <ele>526.009119</ele>
        <time>2022-02-23T00:31:48.877Z</time>
      </trkpt>
      <trkpt lat="42.70756" lon="23.45645">
        <ele>525.832676</ele>
        <time>2022-02-23T00:32:20.206Z</time>
      </trkpt>
      <trkpt lat="42.70761" lon="23.45628">
        <ele>525.80798</ele>
        <time>2022-02-23T00:32:24.714Z</time>
      </trkpt>
      <trkpt lat="42.70774" lon="23.45618">
        <ele>525.778966</ele>
        <time>2022-02-23T00:32:30.050Z</time>
      </trkpt>
      <trkpt lat="42.70853" lon="23.45613">
        <ele>525.638438</ele>
        <time>2022-02-23T00:32:57.798Z</time>
      </trkpt>
      <trkpt lat="42.70855" lon="23.45618">
        <ele>525.631778</ele>
        <time>2022-02-23T00:32:59.415Z</time>
      </trkpt>
      <trkpt lat="42.70863" lon="23.45626">
        <ele>525.618255</ele>
        <time>2022-02-23T00:33:02.770Z</time>
      </trkpt>
      <trkpt lat="42.70867" lon="23.45628">
        <ele>525.612582</ele>
        <time>2022-02-23T00:33:04.175Z</time>
      </trkpt>
      <trkpt lat="42.70872" lon="23.45627">
        <ele>525.606787</ele>
        <time>2022-02-23T00:33:05.631Z</time>
      </trkpt>
      <trkpt lat="42.70883" lon="23.45618">
        <ele>525.587652</ele>
        <time>2022-02-23T00:33:10.479Z</time>
      </trkpt>
      <trkpt lat="42.70886" lon="23.45611">
        <ele>525.579762</ele>
        <time>2022-02-23T00:33:12.393Z</time>
      </trkpt>
      <trkpt lat="42.70887" lon="23.45605">
        <ele>525.574304</ele>
        <time>2022-02-23T00:33:13.729Z</time>
      </trkpt>
      <trkpt lat="42.70886" lon="23.456">
        <ele>525.568621</ele>
        <time>2022-02-23T00:33:15.136Z</time>
      </trkpt>
      <trkpt lat="42.70885" lon="23.45594">
        <ele>525.562667</ele>
        <time>2022-02-23T00:33:16.603Z</time>
      </trkpt>
      <trkpt lat="42.70883" lon="23.45589">
        <ele>525.557005</ele>
        <time>2022-02-23T00:33:18.045Z</time>
      </trkpt>
      <trkpt lat="42.70877" lon="23.45583">
        <ele>525.545849</ele>
        <time>2022-02-23T00:33:20.863Z</time>
      </trkpt>
      <trkpt lat="42.70874" lon="23.45581">
        <ele>525.541239</ele>
        <time>2022-02-23T00:33:22.052Z</time>
      </trkpt>
      <trkpt lat="42.70875" lon="23.45561">
        <ele>525.520696</ele>
        <time>2022-02-23T00:33:26.000Z</time>
      </trkpt>
      <trkpt lat="42.70881" lon="23.45463">
        <ele>525.421102</ele>
        <time>2022-02-23T00:33:45.424Z</time>
      </trkpt>
      <trkpt lat="42.70873" lon="23.45462">
        <ele>525.413058</ele>
        <time>2022-02-23T00:33:48.180Z</time>
      </trkpt>
      <trkpt lat="42.70874" lon="23.4544">
        <ele>525.39805</ele>
        <time>2022-02-23T00:33:53.898Z</time>
      </trkpt>
      <trkpt lat="42.70876" lon="23.45418">
        <ele>525.383041</ele>
        <time>2022-02-23T00:33:59.561Z</time>
      </trkpt>
      <trkpt lat="42.70877" lon="23.45396">
        <ele>525.368242</ele>
        <time>2022-02-23T00:34:05.254Z</time>
      </trkpt>
      <trkpt lat="42.70879" lon="23.45374">
        <ele>525.353503</ele>
        <time>2022-02-23T00:34:10.656Z</time>
      </trkpt>
      <trkpt lat="42.7088" lon="23.45352">
        <ele>525.338434</ele>
        <time>2022-02-23T00:34:16.279Z</time>
      </trkpt>
      <trkpt lat="42.70881" lon="23.4533">
        <ele>525.323628</ele>
        <time>2022-02-23T00:34:21.800Z</time>
      </trkpt>
      <trkpt lat="42.70883" lon="23.45308">
        <ele>525.308762</ele>
        <time>2022-02-23T00:34:27.373Z</time>
      </trkpt>
      <trkpt lat="42.70884" lon="23.45286">
        <ele>525.29382</ele>
        <time>2022-02-23T00:34:32.913Z</time>
      </trkpt>
      <trkpt lat="42.70885" lon="23.45264">
        <ele>525.279022</ele>
        <time>2022-02-23T00:34:38.515Z</time>
      </trkpt>
      <trkpt lat="42.70887" lon="23.45243">
        <ele>525.264215</ele>
        <time>2022-02-23T00:34:44.121Z</time>
      </trkpt>
      <trkpt lat="42.70888" lon="23.45221">
        <ele>525.253211</ele>
        <time>2022-02-23T00:34:49.831Z</time>
      </trkpt>
      <trkpt lat="42.70889" lon="23.4521">
        <ele>525.253142</ele>
        <time>2022-02-23T00:34:52.797Z</time>
      </trkpt>
      <trkpt lat="42.7089" lon="23.45202">
        <ele>525.253095</ele>
        <time>2022-02-23T00:34:54.865Z</time>
      </trkpt>
      <trkpt lat="42.70892" lon="23.45199">
        <ele>525.253075</ele>
        <time>2022-02-23T00:34:55.735Z</time>
      </trkpt>
      <trkpt lat="42.70908" lon="23.45178">
        <ele>525.252892</ele>
        <time>2022-02-23T00:35:03.650Z</time>
      </trkpt>
      <trkpt lat="42.70921" lon="23.45162">
        <ele>525.252749</ele>
        <time>2022-02-23T00:35:09.826Z</time>
      </trkpt>
      <trkpt lat="42.70929" lon="23.45159">
        <ele>525.252677</ele>
        <time>2022-02-23T00:35:12.954Z</time>
      </trkpt>
      <trkpt lat="42.70972" lon="23.45164">
        <ele>525.25232</ele>
        <time>2022-02-23T00:35:28.474Z</time>
      </trkpt>
      <trkpt lat="42.70976" lon="23.45097">
        <ele>525.25192</ele>
        <time>2022-02-23T00:35:45.557Z</time>
      </trkpt>
      <trkpt lat="42.7098" lon="23.45078">
        <ele>525.251799</ele>
        <time>2022-02-23T00:35:50.584Z</time>
      </trkpt>
      <trkpt lat="42.70989" lon="23.45066">
        <ele>525.25147</ele>
        <time>2022-02-23T00:35:54.789Z</time>
      </trkpt>
      <trkpt lat="42.71049" lon="23.4502">
        <ele>525.249148</ele>
        <time>2022-02-23T00:36:19.011Z</time>
      </trkpt>
      <trkpt lat="42.71269" lon="23.4498">
        <ele>525.300758</ele>
        <time>2022-02-23T00:37:37.661Z</time>
      </trkpt>
      <trkpt lat="42.71272" lon="23.4494">
        <ele>525.314185</ele>
        <time>2022-02-23T00:37:47.941Z</time>
      </trkpt>
      <trkpt lat="42.71275" lon="23.44926">
        <ele>525.319216</ele>
        <time>2022-02-23T00:37:52.029Z</time>
      </trkpt>
      <trkpt lat="42.71282" lon="23.44902">
        <ele>525.327581</ele>
        <time>2022-02-23T00:37:58.523Z</time>
      </trkpt>
      <trkpt lat="42.71291" lon="23.44889">
        <ele>525.310213</ele>
        <time>2022-02-23T00:38:03.397Z</time>
      </trkpt>
      <trkpt lat="42.71733" lon="23.44811">
        <ele>524.927703</ele>
        <time>2022-02-23T00:39:59.315Z</time>
      </trkpt>
      <trkpt lat="42.71725" lon="23.44792">
        <ele>524.939208</ele>
        <time>2022-02-23T00:40:06.598Z</time>
      </trkpt>
      <trkpt lat="42.71082" lon="23.44902">
        <ele>526.637164</ele>
        <time>2022-02-23T00:43:08.875Z</time>
      </trkpt>
      <trkpt lat="42.7104" lon="23.44899">
        <ele>526.702379</ele>
        <time>2022-02-23T00:43:20.574Z</time>
      </trkpt>
      <trkpt lat="42.70998" lon="23.44887">
        <ele>526.770571</ele>
        <time>2022-02-23T00:43:32.604Z</time>
      </trkpt>
      <trkpt lat="42.7097" lon="23.44867">
        <ele>526.819758</ele>
        <time>2022-02-23T00:43:41.121Z</time>
      </trkpt>
      <trkpt lat="42.7088" lon="23.44755">
        <ele>526.391008</ele>
        <time>2022-02-23T00:44:12.086Z</time>
      </trkpt>
      <trkpt lat="42.70832" lon="23.44681">
        <ele>526.064369</ele>
        <time>2022-02-23T00:44:29.558Z</time>
      </trkpt>
      <trkpt lat="42.70821" lon="23.44644">
        <ele>525.897543</ele>
        <time>2022-02-23T00:44:36.593Z</time>
      </trkpt>
      <trkpt lat="42.70817" lon="23.44615">
        <ele>525.773427</ele>
        <time>2022-02-23T00:44:41.598Z</time>
      </trkpt>
      <trkpt lat="42.70812" lon="23.44532">
        <ele>525.411755</ele>
        <time>2022-02-23T00:44:56.128Z</time>
      </trkpt>
      <trkpt lat="42.70821" lon="23.44375">
        <ele>525.03935</ele>
        <time>2022-02-23T00:45:25.025Z</time>
      </trkpt>
      <trkpt lat="42.70827" lon="23.44289">
        <ele>525.123094</ele>
        <time>2022-02-23T00:45:42.500Z</time>
      </trkpt>
      <trkpt lat="42.70845" lon="23.44257">
        <ele>525.162059</ele>
        <time>2022-02-23T00:45:51.010Z</time>
      </trkpt>
      <trkpt lat="42.70854" lon="23.44224">
        <ele>525.196384</ele>
        <time>2022-02-23T00:45:58.267Z</time>
      </trkpt>
      <trkpt lat="42.70854" lon="23.44218">
        <ele>525.202426</ele>
        <time>2022-02-23T00:45:59.889Z</time>
      </trkpt>
      <trkpt lat="42.70832" lon="23.44212">
        <ele>525.266394</ele>
        <time>2022-02-23T00:46:06.391Z</time>
      </trkpt>
      <trkpt lat="42.7084" lon="23.44061">
        <ele>525.794762</ele>
        <time>2022-02-23T00:46:39.658Z</time>
      </trkpt>
      <trkpt lat="42.70851" lon="23.43896">
        <ele>526.024846</ele>
        <time>2022-02-23T00:47:13.243Z</time>
      </trkpt>
      <trkpt lat="42.70857" lon="23.43802">
        <ele>525.968491</ele>
        <time>2022-02-23T00:47:31.531Z</time>
      </trkpt>
      <trkpt lat="42.70869" lon="23.43643">
        <ele>525.77543</ele>
        <time>2022-02-23T00:48:01.057Z</time>
      </trkpt>
      <trkpt lat="42.70876" lon="23.43556">
        <ele>525.632285</ele>
        <time>2022-02-23T00:48:17.679Z</time>
      </trkpt>
      <trkpt lat="42.7088" lon="23.4349">
        <ele>525.531214</ele>
        <time>2022-02-23T00:48:30.251Z</time>
      </trkpt>
      <trkpt lat="42.70893" lon="23.43308">
        <ele>525.565207</ele>
        <time>2022-02-23T00:49:05.381Z</time>
      </trkpt>
      <trkpt lat="42.709" lon="23.43314">
        <ele>525.567061</ele>
        <time>2022-02-23T00:49:07.372Z</time>
      </trkpt>
      <trkpt lat="42.70902" lon="23.43316">
        <ele>525.567786</ele>
        <time>2022-02-23T00:49:08.139Z</time>
      </trkpt>
      <trkpt lat="42.70905" lon="23.43274">
        <ele>525.575482</ele>
        <time>2022-02-23T00:49:16.905Z</time>
      </trkpt>
      <trkpt lat="42.70898" lon="23.43243">
        <ele>525.660423</ele>
        <time>2022-02-23T00:49:23.905Z</time>
      </trkpt>
      <trkpt lat="42.70899" lon="23.43224">
        <ele>525.714764</ele>
        <time>2022-02-23T00:49:27.986Z</time>
      </trkpt>
      <trkpt lat="42.70901" lon="23.43195">
        <ele>525.797391</ele>
        <time>2022-02-23T00:49:34.047Z</time>
      </trkpt>
      <trkpt lat="42.70907" lon="23.43104">
        <ele>526.057473</ele>
        <time>2022-02-23T00:49:53.141Z</time>
      </trkpt>
      <trkpt lat="42.70912" lon="23.43026">
        <ele>526.273306</ele>
        <time>2022-02-23T00:50:09.758Z</time>
      </trkpt>
      <trkpt lat="42.70916" lon="23.42975">
        <ele>526.276942</ele>
        <time>2022-02-23T00:50:20.762Z</time>
      </trkpt>
      <trkpt lat="42.70917" lon="23.42953">
        <ele>526.278553</ele>
        <time>2022-02-23T00:50:25.448Z</time>
      </trkpt>
      <trkpt lat="42.7092" lon="23.42912">
        <ele>526.281458</ele>
        <time>2022-02-23T00:50:33.767Z</time>
      </trkpt>
      <trkpt lat="42.70927" lon="23.42887">
        <ele>526.283341</ele>
        <time>2022-02-23T00:50:38.768Z</time>
      </trkpt>
      <trkpt lat="42.70932" lon="23.42874">
        <ele>526.284399</ele>
        <time>2022-02-23T00:50:41.614Z</time>
      </trkpt>
      <trkpt lat="42.70944" lon="23.42847">
        <ele>526.286616</ele>
        <time>2022-02-23T00:50:47.374Z</time>
      </trkpt>
      <trkpt lat="42.70945" lon="23.42831">
        <ele>526.287793</ele>
        <time>2022-02-23T00:50:50.426Z</time>
      </trkpt>
      <trkpt lat="42.70945" lon="23.42817">
        <ele>526.288782</ele>
        <time>2022-02-23T00:50:52.961Z</time>
      </trkpt>
      <trkpt lat="42.70945" lon="23.42815">
        <ele>526.288948</ele>
        <time>2022-02-23T00:50:53.331Z</time>
      </trkpt>
      <trkpt lat="42.7094" lon="23.42808">
        <ele>526.289584</ele>
        <time>2022-02-23T00:50:54.950Z</time>
      </trkpt>
      <trkpt lat="42.70942" lon="23.42777">
        <ele>526.272499</ele>
        <time>2022-02-23T00:51:00.809Z</time>
      </trkpt>
      <trkpt lat="42.70944" lon="23.42754">
        <ele>526.249797</ele>
        <time>2022-02-23T00:51:05.015Z</time>
      </trkpt>
      <trkpt lat="42.7094" lon="23.42745">
        <ele>526.239538</ele>
        <time>2022-02-23T00:51:06.934Z</time>
      </trkpt>
      <trkpt lat="42.70938" lon="23.42738">
        <ele>526.232101</ele>
        <time>2022-02-23T00:51:08.435Z</time>
      </trkpt>
      <trkpt lat="42.70935" lon="23.42712">
        <ele>526.205244</ele>
        <time>2022-02-23T00:51:13.487Z</time>
      </trkpt>
      <trkpt lat="42.70943" lon="23.42604">
        <ele>526.097462</ele>
        <time>2022-02-23T00:51:34.321Z</time>
      </trkpt>
      <trkpt lat="42.70946" lon="23.42548">
        <ele>526.047621</ele>
        <time>2022-02-23T00:51:45.526Z</time>
      </trkpt>
      <trkpt lat="42.70949" lon="23.42495">
        <ele>526.058155</ele>
        <time>2022-02-23T00:51:56.091Z</time>
      </trkpt>
      <trkpt lat="42.70952" lon="23.4244">
        <ele>526.068993</ele>
        <time>2022-02-23T00:52:06.958Z</time>
      </trkpt>
      <trkpt lat="42.70947" lon="23.4244">
        <ele>526.070123</ele>
        <time>2022-02-23T00:52:09.897Z</time>
      </trkpt>
      <trkpt lat="42.70943" lon="23.4244">
        <ele>526.071254</ele>
        <time>2022-02-23T00:52:12.835Z</time>
      </trkpt>
      <trkpt lat="42.70943" lon="23.42423">
        <ele>526.074657</ele>
        <time>2022-02-23T00:52:21.598Z</time>
      </trkpt>
      <trkpt lat="42.70937" lon="23.42423">
        <ele>526.076272</ele>
        <time>2022-02-23T00:52:25.792Z</time>
      </trkpt>
      <trkpt lat="42.70931" lon="23.42423">
        <ele>526.077887</ele>
        <time>2022-02-23T00:52:30.000Z</time>
      </trkpt>
      <trkpt lat="42.70931" lon="23.42468">
        <ele>526.08669</ele>
        <time>2022-02-23T00:52:38.726Z</time>
      </trkpt>
      <trkpt lat="42.70931" lon="23.42513">
        <ele>526.094853</ele>
        <time>2022-02-23T00:52:47.582Z</time>
      </trkpt>
      <trkpt lat="42.7093" lon="23.42555">
        <ele>526.093089</ele>
        <time>2022-02-23T00:52:55.966Z</time>
      </trkpt>
      <trkpt lat="42.70929" lon="23.4259">
        <ele>526.09167</ele>
        <time>2022-02-23T00:53:02.493Z</time>
      </trkpt>
      <trkpt lat="42.70924" lon="23.42663">
        <ele>526.088612</ele>
        <time>2022-02-23T00:53:16.764Z</time>
      </trkpt>
      <trkpt lat="42.70922" lon="23.42692">
        <ele>526.087383</ele>
        <time>2022-02-23T00:53:22.488Z</time>
      </trkpt>
      <trkpt lat="42.70917" lon="23.4272">
        <ele>526.086201</ele>
        <time>2022-02-23T00:53:28.141Z</time>
      </trkpt>
      <trkpt lat="42.70898" lon="23.42786">
        <ele>526.114811</ele>
        <time>2022-02-23T00:53:42.347Z</time>
      </trkpt>
      <trkpt lat="42.70896" lon="23.42836">
        <ele>526.154269</ele>
        <time>2022-02-23T00:53:52.846Z</time>
      </trkpt>
      <trkpt lat="42.70908" lon="23.42887">
        <ele>526.196034</ele>
        <time>2022-02-23T00:54:03.984Z</time>
      </trkpt>
      <trkpt lat="42.70904" lon="23.42939">
        <ele>526.237469</ele>
        <time>2022-02-23T00:54:14.438Z</time>
      </trkpt>
      <trkpt lat="42.70902" lon="23.42975">
        <ele>526.265693</ele>
        <time>2022-02-23T00:54:21.290Z</time>
      </trkpt>
      <trkpt lat="42.70895" lon="23.43066">
        <ele>526.061509</ele>
        <time>2022-02-23T00:54:38.388Z</time>
      </trkpt>
      <trkpt lat="42.7089" lon="23.43157">
        <ele>525.804012</ele>
        <time>2022-02-23T00:54:54.900Z</time>
      </trkpt>
      <trkpt lat="42.70884" lon="23.4325">
        <ele>525.579575</ele>
        <time>2022-02-23T00:55:11.869Z</time>
      </trkpt>
      <trkpt lat="42.70812" lon="23.43278">
        <ele>525.545622</ele>
        <time>2022-02-23T00:55:30.702Z</time>
      </trkpt>
      <trkpt lat="42.70777" lon="23.43292">
        <ele>525.528865</ele>
        <time>2022-02-23T00:55:40.569Z</time>
      </trkpt>
      <trkpt lat="42.70766" lon="23.43296">
        <ele>525.523838</ele>
        <time>2022-02-23T00:55:43.506Z</time>
      </trkpt>
      <trkpt lat="42.70731" lon="23.4331">
        <ele>525.506991</ele>
        <time>2022-02-23T00:55:53.721Z</time>
      </trkpt>
      <trkpt lat="42.707" lon="23.43323">
        <ele>525.673509</ele>
        <time>2022-02-23T00:56:02.881Z</time>
      </trkpt>
      <trkpt lat="42.70609" lon="23.43359">
        <ele>526.367821</ele>
        <time>2022-02-23T00:56:31.335Z</time>
      </trkpt>
      <trkpt lat="42.70583" lon="23.43383">
        <ele>526.601933</ele>
        <time>2022-02-23T00:56:41.351Z</time>
      </trkpt>
      <trkpt lat="42.70464" lon="23.43539">
        <ele>528.120129</ele>
        <time>2022-02-23T00:57:33.997Z</time>
      </trkpt>
      <trkpt lat="42.70394" lon="23.43651">
        <ele>528.843311</ele>
        <time>2022-02-23T00:58:07.110Z</time>
      </trkpt>
      <trkpt lat="42.70213" lon="23.43957">
        <ele>529.758371</ele>
        <time>2022-02-23T00:59:27.508Z</time>
      </trkpt>
      <trkpt lat="42.70134" lon="23.44092">
        <ele>529.922386</ele>
        <time>2022-02-23T01:00:01.641Z</time>
      </trkpt>
      <trkpt lat="42.70107" lon="23.44136">
        <ele>529.974442</ele>
        <time>2022-02-23T01:00:13.093Z</time>
      </trkpt>
      <trkpt lat="42.70076" lon="23.44165">
        <ele>530.030295</ele>
        <time>2022-02-23T01:00:23.393Z</time>
      </trkpt>
      <trkpt lat="42.69803" lon="23.44362">
        <ele>530.591927</ele>
        <time>2022-02-23T01:01:48.816Z</time>
      </trkpt>
      <trkpt lat="42.6974" lon="23.44408">
        <ele>530.756712</ele>
        <time>2022-02-23T01:02:08.126Z</time>
      </trkpt>
      <trkpt lat="42.69484" lon="23.44597">
        <ele>531.567027</ele>
        <time>2022-02-23T01:03:30.426Z</time>
      </trkpt>
      <trkpt lat="42.69447" lon="23.44623">
        <ele>531.662209</ele>
        <time>2022-02-23T01:03:41.863Z</time>
      </trkpt>
      <trkpt lat="42.69433" lon="23.4463">
        <ele>531.678226</ele>
        <time>2022-02-23T01:03:46.042Z</time>
      </trkpt>
      <trkpt lat="42.69406" lon="23.4464">
        <ele>531.706717</ele>
        <time>2022-02-23T01:03:53.574Z</time>
      </trkpt>
      <trkpt lat="42.69367" lon="23.44649">
        <ele>531.748023</ele>
        <time>2022-02-23T01:04:04.374Z</time>
      </trkpt>
      <trkpt lat="42.69284" lon="23.44665">
        <ele>531.835723</ele>
        <time>2022-02-23T01:04:27.125Z</time>
      </trkpt>
      <trkpt lat="42.69233" lon="23.44677">
        <ele>531.893936</ele>
        <time>2022-02-23T01:04:40.845Z</time>
      </trkpt>
      <trkpt lat="42.69227" lon="23.4468">
        <ele>531.901933</ele>
        <time>2022-02-23T01:04:42.758Z</time>
      </trkpt>
      <trkpt lat="42.69219" lon="23.44683">
        <ele>531.910689</ele>
        <time>2022-02-23T01:04:44.842Z</time>
      </trkpt>
      <trkpt lat="42.69214" lon="23.44689">
        <ele>531.918711</ele>
        <time>2022-02-23T01:04:46.770Z</time>
      </trkpt>
      <trkpt lat="42.69203" lon="23.44701">
        <ele>531.934526</ele>
        <time>2022-02-23T01:04:50.519Z</time>
      </trkpt>
      <trkpt lat="42.69173" lon="23.44742">
        <ele>531.983407</ele>
        <time>2022-02-23T01:05:02.258Z</time>
      </trkpt>
      <trkpt lat="42.69145" lon="23.44779">
        <ele>532.027914</ele>
        <time>2022-02-23T01:05:12.964Z</time>
      </trkpt>
      <trkpt lat="42.68865" lon="23.45154">
        <ele>532.717974</ele>
        <time>2022-02-23T01:07:01.075Z</time>
      </trkpt>
      <trkpt lat="42.6886" lon="23.4516">
        <ele>532.732118</ele>
        <time>2022-02-23T01:07:03.037Z</time>
      </trkpt>
      <trkpt lat="42.68852" lon="23.45168">
        <ele>532.751812</ele>
        <time>2022-02-23T01:07:05.805Z</time>
      </trkpt>
      <trkpt lat="42.68827" lon="23.45178">
        <ele>532.803291</ele>
        <time>2022-02-23T01:07:12.874Z</time>
      </trkpt>
      <trkpt lat="42.68755" lon="23.45188">
        <ele>532.947984</ele>
        <time>2022-02-23T01:07:32.812Z</time>
      </trkpt>
      <trkpt lat="42.68734" lon="23.45196">
        <ele>532.992371</ele>
        <time>2022-02-23T01:07:39.005Z</time>
      </trkpt>
      <trkpt lat="42.68704" lon="23.45222">
        <ele>533.049599</ele>
        <time>2022-02-23T01:07:48.821Z</time>
      </trkpt>
      <trkpt lat="42.68679" lon="23.4527">
        <ele>533.092279</ele>
        <time>2022-02-23T01:08:00.414Z</time>
      </trkpt>
      <trkpt lat="42.68675" lon="23.45282">
        <ele>533.101218</ele>
        <time>2022-02-23T01:08:02.786Z</time>
      </trkpt>
      <trkpt lat="42.68668" lon="23.45307">
        <ele>533.12092</ele>
        <time>2022-02-23T01:08:08.451Z</time>
      </trkpt>
      <trkpt lat="42.68659" lon="23.4534">
        <ele>533.145914</ele>
        <time>2022-02-23T01:08:15.504Z</time>
      </trkpt>
      <trkpt lat="42.68647" lon="23.45392">
        <ele>533.185607</ele>
        <time>2022-02-23T01:08:26.835Z</time>
      </trkpt>
      <trkpt lat="42.68639" lon="23.4542">
        <ele>533.207475</ele>
        <time>2022-02-23T01:08:33.176Z</time>
      </trkpt>
      <trkpt lat="42.68618" lon="23.45472">
        <ele>533.399994</ele>
        <time>2022-02-23T01:08:45.917Z</time>
      </trkpt>
      <trkpt lat="42.68571" lon="23.45548">
        <ele>533.762348</ele>
        <time>2022-02-23T01:09:07.999Z</time>
      </trkpt>
      <trkpt lat="42.68556" lon="23.45567">
        <ele>533.862968</ele>
        <time>2022-02-23T01:09:14.246Z</time>
      </trkpt>
      <trkpt lat="42.68468" lon="23.45685">
        <ele>534.420194</ele>
        <time>2022-02-23T01:09:52.558Z</time>
      </trkpt>
      <trkpt lat="42.68391" lon="23.45789">
        <ele>534.852973</ele>
        <time>2022-02-23T01:10:24.812Z</time>
      </trkpt>
      <trkpt lat="42.68366" lon="23.4584">
        <ele>534.760386</ele>
        <time>2022-02-23T01:10:36.839Z</time>
      </trkpt>
      <trkpt lat="42.68364" lon="23.45847">
        <ele>534.74849</ele>
        <time>2022-02-23T01:10:38.370Z</time>
      </trkpt>
      <trkpt lat="42.68355" lon="23.45877">
        <ele>534.698391</ele>
        <time>2022-02-23T01:10:44.676Z</time>
      </trkpt>
      <trkpt lat="42.6835" lon="23.45895">
        <ele>534.669385</ele>
        <time>2022-02-23T01:10:48.468Z</time>
      </trkpt>
      <trkpt lat="42.68317" lon="23.46011">
        <ele>534.480795</ele>
        <time>2022-02-23T01:11:12.513Z</time>
      </trkpt>
      <trkpt lat="42.68317" lon="23.46011">
        <ele>534.480795</ele>
        <time>2022-02-23T01:11:12.524Z</time>
      </trkpt>
      <trkpt lat="42.68298" lon="23.46076">
        <ele>534.384965</ele>
        <time>2022-02-23T01:11:26.271Z</time>
      </trkpt>
      <trkpt lat="42.68287" lon="23.46114">
        <ele>534.330113</ele>
        <time>2022-02-23T01:11:34.033Z</time>
      </trkpt>
      <trkpt lat="42.68259" lon="23.46212">
        <ele>534.186571</ele>
        <time>2022-02-23T01:11:55.040Z</time>
      </trkpt>
      <trkpt lat="42.68251" lon="23.46228">
        <ele>534.15945</ele>
        <time>2022-02-23T01:11:59.178Z</time>
      </trkpt>
      <trkpt lat="42.68242" lon="23.46237">
        <ele>534.169078</ele>
        <time>2022-02-23T01:12:02.315Z</time>
      </trkpt>
      <trkpt lat="42.68232" lon="23.46245">
        <ele>534.188437</ele>
        <time>2022-02-23T01:12:05.563Z</time>
      </trkpt>
      <trkpt lat="42.68103" lon="23.46359">
        <ele>534.454948</ele>
        <time>2022-02-23T01:12:50.238Z</time>
      </trkpt>
      <trkpt lat="42.68089" lon="23.46371">
        <ele>534.471559</ele>
        <time>2022-02-23T01:12:54.990Z</time>
      </trkpt>
      <trkpt lat="42.68081" lon="23.4638">
        <ele>534.47767</ele>
        <time>2022-02-23T01:12:57.895Z</time>
      </trkpt>
      <trkpt lat="42.68019" lon="23.46456">
        <ele>534.528803</ele>
        <time>2022-02-23T01:13:21.452Z</time>
      </trkpt>
      <trkpt lat="42.68007" lon="23.46466">
        <ele>534.537292</ele>
        <time>2022-02-23T01:13:25.359Z</time>
      </trkpt>
      <trkpt lat="42.67994" lon="23.46473">
        <ele>534.545819</ele>
        <time>2022-02-23T01:13:29.199Z</time>
      </trkpt>
      <trkpt lat="42.67965" lon="23.4648">
        <ele>534.56396</ele>
        <time>2022-02-23T01:13:37.387Z</time>
      </trkpt>
      <trkpt lat="42.67953" lon="23.46481">
        <ele>534.571293</ele>
        <time>2022-02-23T01:13:40.630Z</time>
      </trkpt>
      <trkpt lat="42.67942" lon="23.46481">
        <ele>534.584638</ele>
        <time>2022-02-23T01:13:43.658Z</time>
      </trkpt>
      <trkpt lat="42.67916" lon="23.4648">
        <ele>534.633414</ele>
        <time>2022-02-23T01:13:50.767Z</time>
      </trkpt>
      <trkpt lat="42.67793" lon="23.46471">
        <ele>534.866621</ele>
        <time>2022-02-23T01:14:25.730Z</time>
      </trkpt>
      <trkpt lat="42.67774" lon="23.4647">
        <ele>534.903132</ele>
        <time>2022-02-23T01:14:31.486Z</time>
      </trkpt>
      <trkpt lat="42.67671" lon="23.46462">
        <ele>535.583986</ele>
        <time>2022-02-23T01:15:03.504Z</time>
      </trkpt>
      <trkpt lat="42.6763" lon="23.46464">
        <ele>535.864754</ele>
        <time>2022-02-23T01:15:16.509Z</time>
      </trkpt>
      <trkpt lat="42.67616" lon="23.46466">
        <ele>535.966101</ele>
        <time>2022-02-23T01:15:21.262Z</time>
      </trkpt>
      <trkpt lat="42.67596" lon="23.46469">
        <ele>536.100708</ele>
        <time>2022-02-23T01:15:27.550Z</time>
      </trkpt>
      <trkpt lat="42.67559" lon="23.46481">
        <ele>536.370915</ele>
        <time>2022-02-23T01:15:39.685Z</time>
      </trkpt>
      <trkpt lat="42.67482" lon="23.46518">
        <ele>536.945503</ele>
        <time>2022-02-23T01:16:05.083Z</time>
      </trkpt>
      <trkpt lat="42.6747" lon="23.46524">
        <ele>537.038225</ele>
        <time>2022-02-23T01:16:09.392Z</time>
      </trkpt>
      <trkpt lat="42.67443" lon="23.46538">
        <ele>537.238619</ele>
        <time>2022-02-23T01:16:18.001Z</time>
      </trkpt>
      <trkpt lat="42.67354" lon="23.46579">
        <ele>537.708989</ele>
        <time>2022-02-23T01:16:46.274Z</time>
      </trkpt>
      <trkpt lat="42.67341" lon="23.46586">
        <ele>537.770997</ele>
        <time>2022-02-23T01:16:50.638Z</time>
      </trkpt>
      <trkpt lat="42.67334" lon="23.46588">
        <ele>537.798721</ele>
        <time>2022-02-23T01:16:52.716Z</time>
      </trkpt>
      <trkpt lat="42.67325" lon="23.46591">
        <ele>537.837963</ele>
        <time>2022-02-23T01:16:55.479Z</time>
      </trkpt>
      <trkpt lat="42.67293" lon="23.46581">
        <ele>537.975762</ele>
        <time>2022-02-23T01:17:05.069Z</time>
      </trkpt>
      <trkpt lat="42.67167" lon="23.46504">
        <ele>538.478734</ele>
        <time>2022-02-23T01:17:45.726Z</time>
      </trkpt>
      <trkpt lat="42.67133" lon="23.46482">
        <ele>538.602941</ele>
        <time>2022-02-23T01:17:56.605Z</time>
      </trkpt>
      <trkpt lat="42.67122" lon="23.46476">
        <ele>538.642721</ele>
        <time>2022-02-23T01:18:00.124Z</time>
      </trkpt>
      <trkpt lat="42.67097" lon="23.46462">
        <ele>538.732315</ele>
        <time>2022-02-23T01:18:08.022Z</time>
      </trkpt>
      <trkpt lat="42.67068" lon="23.46451">
        <ele>538.854362</ele>
        <time>2022-02-23T01:18:17.050Z</time>
      </trkpt>
      <trkpt lat="42.6685" lon="23.46405">
        <ele>539.776186</ele>
        <time>2022-02-23T01:19:23.618Z</time>
      </trkpt>
      <trkpt lat="42.66806" lon="23.46385">
        <ele>539.913384</ele>
        <time>2022-02-23T01:19:36.996Z</time>
      </trkpt>
      <trkpt lat="42.66791" lon="23.46374">
        <ele>539.963322</ele>
        <time>2022-02-23T01:19:42.079Z</time>
      </trkpt>
      <trkpt lat="42.66682" lon="23.46287">
        <ele>540.308508</ele>
        <time>2022-02-23T01:20:17.550Z</time>
      </trkpt>
      <trkpt lat="42.66657" lon="23.46265">
        <ele>540.385118</ele>
        <time>2022-02-23T01:20:26.476Z</time>
      </trkpt>
      <trkpt lat="42.66634" lon="23.46247">
        <ele>540.450061</ele>
        <time>2022-02-23T01:20:33.923Z</time>
      </trkpt>
      <trkpt lat="42.66621" lon="23.46238">
        <ele>540.489019</ele>
        <time>2022-02-23T01:20:38.219Z</time>
      </trkpt>
      <trkpt lat="42.6661" lon="23.46233">
        <ele>540.517127</ele>
        <time>2022-02-23T01:20:41.756Z</time>
      </trkpt>
      <trkpt lat="42.66542" lon="23.4621">
        <ele>540.786102</ele>
        <time>2022-02-23T01:21:02.823Z</time>
      </trkpt>
      <trkpt lat="42.66461" lon="23.46185">
        <ele>541.188945</ele>
        <time>2022-02-23T01:21:28.182Z</time>
      </trkpt>
      <trkpt lat="42.6644" lon="23.46179">
        <ele>541.296204</ele>
        <time>2022-02-23T01:21:34.799Z</time>
      </trkpt>
      <trkpt lat="42.6643" lon="23.46176">
        <ele>541.344184</ele>
        <time>2022-02-23T01:21:37.816Z</time>
      </trkpt>
      <trkpt lat="42.66422" lon="23.46171">
        <ele>541.388827</ele>
        <time>2022-02-23T01:21:40.587Z</time>
      </trkpt>
      <trkpt lat="42.66441" lon="23.46123">
        <ele>541.52929</ele>
        <time>2022-02-23T01:21:52.241Z</time>
      </trkpt>
      <trkpt lat="42.66454" lon="23.46089">
        <ele>541.597547</ele>
        <time>2022-02-23T01:22:00.192Z</time>
      </trkpt>
      <trkpt lat="42.66466" lon="23.46056">
        <ele>541.664405</ele>
        <time>2022-02-23T01:22:07.754Z</time>
      </trkpt>
      <trkpt lat="42.66475" lon="23.46032">
        <ele>541.713711</ele>
        <time>2022-02-23T01:22:13.303Z</time>
      </trkpt>
      <trkpt lat="42.66482" lon="23.46007">
        <ele>541.76217</ele>
        <time>2022-02-23T01:22:18.601Z</time>
      </trkpt>
      <trkpt lat="42.66486" lon="23.45983">
        <ele>541.807507</ele>
        <time>2022-02-23T01:22:23.643Z</time>
      </trkpt>
      <trkpt lat="42.66492" lon="23.45938">
        <ele>541.889022</ele>
        <time>2022-02-23T01:22:32.615Z</time>
      </trkpt>
      <trkpt lat="42.66499" lon="23.45886">
        <ele>541.95769</ele>
        <time>2022-02-23T01:22:43.033Z</time>
      </trkpt>
      <trkpt lat="42.66506" lon="23.45797">
        <ele>542.05744</ele>
        <time>2022-02-23T01:23:01.261Z</time>
      </trkpt>
      <trkpt lat="42.66506" lon="23.45765">
        <ele>542.093029</ele>
        <time>2022-02-23T01:23:07.716Z</time>
      </trkpt>
      <trkpt lat="42.66506" lon="23.45736">
        <ele>542.125071</ele>
        <time>2022-02-23T01:23:13.611Z</time>
      </trkpt>
      <trkpt lat="42.66504" lon="23.45702">
        <ele>542.162314</ele>
        <time>2022-02-23T01:23:20.405Z</time>
      </trkpt>
      <trkpt lat="42.66501" lon="23.45668">
        <ele>542.196601</ele>
        <time>2022-02-23T01:23:27.153Z</time>
      </trkpt>
      <trkpt lat="42.66487" lon="23.45503">
        <ele>542.336723</ele>
        <time>2022-02-23T01:24:00.624Z</time>
      </trkpt>
      <trkpt lat="42.66481" lon="23.45408">
        <ele>542.39336</ele>
        <time>2022-02-23T01:24:19.638Z</time>
      </trkpt>
      <trkpt lat="42.66482" lon="23.45393">
        <ele>542.393995</ele>
        <time>2022-02-23T01:24:22.692Z</time>
      </trkpt>
      <trkpt lat="42.66483" lon="23.45374">
        <ele>542.39477</ele>
        <time>2022-02-23T01:24:26.368Z</time>
      </trkpt>
      <trkpt lat="42.66486" lon="23.45351">
        <ele>542.395718</ele>
        <time>2022-02-23T01:24:30.928Z</time>
      </trkpt>
      <trkpt lat="42.66491" lon="23.45327">
        <ele>542.396757</ele>
        <time>2022-02-23T01:24:35.795Z</time>
      </trkpt>
      <trkpt lat="42.665" lon="23.45297">
        <ele>542.398046</ele>
        <time>2022-02-23T01:24:41.933Z</time>
      </trkpt>
      <trkpt lat="42.6653" lon="23.45207">
        <ele>542.402122</ele>
        <time>2022-02-23T01:25:01.253Z</time>
      </trkpt>
      <trkpt lat="42.66544" lon="23.45167">
        <ele>542.467399</ele>
        <time>2022-02-23T01:25:09.965Z</time>
      </trkpt>
      <trkpt lat="42.66562" lon="23.45117">
        <ele>542.551632</ele>
        <time>2022-02-23T01:25:20.877Z</time>
      </trkpt>
      <trkpt lat="42.66584" lon="23.45071">
        <ele>542.634926</ele>
        <time>2022-02-23T01:25:32.017Z</time>
      </trkpt>
      <trkpt lat="42.66684" lon="23.44921">
        <ele>543.268312</ele>
        <time>2022-02-23T01:26:41.149Z</time>
      </trkpt>
      <trkpt lat="42.66701" lon="23.44895">
        <ele>543.42522</ele>
        <time>2022-02-23T01:26:53.815Z</time>
      </trkpt>
      <trkpt lat="42.66716" lon="23.44872">
        <ele>543.559707</ele>
        <time>2022-02-23T01:27:04.369Z</time>
      </trkpt>
      <trkpt lat="42.66728" lon="23.44851">
        <ele>543.678882</ele>
        <time>2022-02-23T01:27:14.146Z</time>
      </trkpt>
      <trkpt lat="42.66739" lon="23.44829">
        <ele>543.800905</ele>
        <time>2022-02-23T01:27:23.610Z</time>
      </trkpt>
      <trkpt lat="42.66741" lon="23.44825">
        <ele>543.823152</ele>
        <time>2022-02-23T01:27:25.762Z</time>
      </trkpt>
      <trkpt lat="42.66799" lon="23.44711">
        <ele>544.378926</ele>
        <time>2022-02-23T01:28:14.042Z</time>
      </trkpt>
      <trkpt lat="42.66881" lon="23.44558">
        <ele>544.772121</ele>
        <time>2022-02-23T01:29:18.528Z</time>
      </trkpt>
      <trkpt lat="42.67064" lon="23.44208">
        <ele>543.94879</ele>
        <time>2022-02-23T01:31:33.643Z</time>
      </trkpt>
      <trkpt lat="42.67166" lon="23.44017">
        <ele>543.479641</ele>
        <time>2022-02-23T01:32:49.713Z</time>
      </trkpt>
      <trkpt lat="42.67192" lon="23.43968">
        <ele>543.234592</ele>
        <time>2022-02-23T01:33:08.334Z</time>
      </trkpt>
      <trkpt lat="42.67234" lon="23.43889">
        <ele>542.840157</ele>
        <time>2022-02-23T01:33:38.095Z</time>
      </trkpt>
      <trkpt lat="42.6728" lon="23.43802">
        <ele>542.449941</ele>
        <time>2022-02-23T01:34:11.327Z</time>
      </trkpt>
      <trkpt lat="42.67331" lon="23.43704">
        <ele>542.179638</ele>
        <time>2022-02-23T01:34:48.557Z</time>
      </trkpt>
      <trkpt lat="42.67366" lon="23.43635">
        <ele>541.988324</ele>
        <time>2022-02-23T01:35:15.579Z</time>
      </trkpt>
      <trkpt lat="42.67393" lon="23.43585">
        <ele>542.121662</ele>
        <time>2022-02-23T01:35:36.288Z</time>
      </trkpt>
      <trkpt lat="42.67406" lon="23.43562">
        <ele>542.222742</ele>
        <time>2022-02-23T01:35:46.230Z</time>
      </trkpt>
      <trkpt lat="42.67409" lon="23.43556">
        <ele>542.249658</ele>
        <time>2022-02-23T01:35:47.872Z</time>
      </trkpt>
      <trkpt lat="42.67444" lon="23.43503">
        <ele>542.497808</ele>
        <time>2022-02-23T01:36:03.806Z</time>
      </trkpt>
      <trkpt lat="42.67467" lon="23.43473">
        <ele>542.652966</ele>
        <time>2022-02-23T01:36:13.798Z</time>
      </trkpt>
      <trkpt lat="42.67476" lon="23.43462">
        <ele>542.708358</ele>
        <time>2022-02-23T01:36:17.463Z</time>
      </trkpt>
      <trkpt lat="42.67525" lon="23.43396">
        <ele>543.01784</ele>
        <time>2022-02-23T01:36:38.919Z</time>
      </trkpt>
      <trkpt lat="42.6755" lon="23.43364">
        <ele>543.16698</ele>
        <time>2022-02-23T01:36:49.488Z</time>
      </trkpt>
      <trkpt lat="42.67575" lon="23.43333">
        <ele>543.311742</ele>
        <time>2022-02-23T01:36:59.590Z</time>
      </trkpt>
      <trkpt lat="42.67597" lon="23.43302">
        <ele>543.449106</ele>
        <time>2022-02-23T01:37:09.076Z</time>
      </trkpt>
      <trkpt lat="42.67558" lon="23.43258">
        <ele>543.562725</ele>
        <time>2022-02-23T01:37:23.334Z</time>
      </trkpt>
      <trkpt lat="42.6748" lon="23.4317">
        <ele>543.381847</ele>
        <time>2022-02-23T01:37:50.855Z</time>
      </trkpt>
      <trkpt lat="42.67431" lon="23.43114">
        <ele>543.270162</ele>
        <time>2022-02-23T01:38:07.488Z</time>
      </trkpt>
      <trkpt lat="42.67383" lon="23.43057">
        <ele>543.179814</ele>
        <time>2022-02-23T01:38:24.356Z</time>
      </trkpt>
      <trkpt lat="42.67302" lon="23.42963">
        <ele>543.027498</ele>
        <time>2022-02-23T01:38:53.571Z</time>
      </trkpt>
      <trkpt lat="42.67292" lon="23.42951">
        <ele>543.026824</ele>
        <time>2022-02-23T01:38:57.104Z</time>
      </trkpt>
      <trkpt lat="42.67279" lon="23.42935">
        <ele>543.052574</ele>
        <time>2022-02-23T01:39:01.815Z</time>
      </trkpt>
      <trkpt lat="42.67205" lon="23.42854">
        <ele>543.190437</ele>
        <time>2022-02-23T01:39:27.721Z</time>
      </trkpt>
      <trkpt lat="42.66986" lon="23.42634">
        <ele>544.343963</ele>
        <time>2022-02-23T01:40:45.957Z</time>
      </trkpt>
      <trkpt lat="42.66939" lon="23.42587">
        <ele>544.797634</ele>
        <time>2022-02-23T01:41:03.668Z</time>
      </trkpt>
      <trkpt lat="42.66879" lon="23.42527">
        <ele>545.376216</ele>
        <time>2022-02-23T01:41:26.555Z</time>
      </trkpt>
      <trkpt lat="42.66816" lon="23.42463">
        <ele>546.164746</ele>
        <time>2022-02-23T01:41:51.486Z</time>
      </trkpt>
      <trkpt lat="42.66783" lon="23.42431">
        <ele>546.598634</ele>
        <time>2022-02-23T01:42:04.395Z</time>
      </trkpt>
      <trkpt lat="42.66751" lon="23.424">
        <ele>547.021247</ele>
        <time>2022-02-23T01:42:17.196Z</time>
      </trkpt>
      <trkpt lat="42.667" lon="23.42355">
        <ele>547.558615</ele>
        <time>2022-02-23T01:42:36.594Z</time>
      </trkpt>
      <trkpt lat="42.66682" lon="23.42342">
        <ele>547.683687</ele>
        <time>2022-02-23T01:42:43.026Z</time>
      </trkpt>
      <trkpt lat="42.66627" lon="23.42299">
        <ele>548.074132</ele>
        <time>2022-02-23T01:43:02.569Z</time>
      </trkpt>
      <trkpt lat="42.66572" lon="23.42253">
        <ele>548.476026</ele>
        <time>2022-02-23T01:43:21.051Z</time>
      </trkpt>
      <trkpt lat="42.6656" lon="23.42242">
        <ele>548.506402</ele>
        <time>2022-02-23T01:43:24.591Z</time>
      </trkpt>
      <trkpt lat="42.66548" lon="23.42229">
        <ele>548.471274</ele>
        <time>2022-02-23T01:43:28.499Z</time>
      </trkpt>
      <trkpt lat="42.6654" lon="23.42218">
        <ele>548.447513</ele>
        <time>2022-02-23T01:43:31.162Z</time>
      </trkpt>
      <trkpt lat="42.66533" lon="23.42205">
        <ele>548.421087</ele>
        <time>2022-02-23T01:43:34.056Z</time>
      </trkpt>
      <trkpt lat="42.66527" lon="23.4219">
        <ele>548.394696</ele>
        <time>2022-02-23T01:43:37.102Z</time>
      </trkpt>
      <trkpt lat="42.66519" lon="23.42156">
        <ele>548.337113</ele>
        <time>2022-02-23T01:43:43.687Z</time>
      </trkpt>
      <trkpt lat="42.66518" lon="23.42135">
        <ele>548.3037</ele>
        <time>2022-02-23T01:43:47.629Z</time>
      </trkpt>
      <trkpt lat="42.66511" lon="23.42017">
        <ele>548.162755</ele>
        <time>2022-02-23T01:44:10.212Z</time>
      </trkpt>
      <trkpt lat="42.6651" lon="23.41993">
        <ele>548.245849</ele>
        <time>2022-02-23T01:44:15.046Z</time>
      </trkpt>
      <trkpt lat="42.66509" lon="23.4197">
        <ele>548.331295</ele>
        <time>2022-02-23T01:44:19.737Z</time>
      </trkpt>
      <trkpt lat="42.66484" lon="23.41973">
        <ele>548.455286</ele>
        <time>2022-02-23T01:44:26.971Z</time>
      </trkpt>
      <trkpt lat="42.66415" lon="23.41987">
        <ele>548.796897</ele>
        <time>2022-02-23T01:44:47.384Z</time>
      </trkpt>
      <trkpt lat="42.66375" lon="23.41991">
        <ele>548.98935</ele>
        <time>2022-02-23T01:45:00.100Z</time>
      </trkpt>
      <trkpt lat="42.66326" lon="23.41987">
        <ele>549.306193</ele>
        <time>2022-02-23T01:45:15.528Z</time>
      </trkpt>
      <trkpt lat="42.66219" lon="23.41958">
        <ele>550.00974</ele>
        <time>2022-02-23T01:45:47.552Z</time>
      </trkpt>
      <trkpt lat="42.66207" lon="23.41951">
        <ele>550.09453</ele>
        <time>2022-02-23T01:45:51.277Z</time>
      </trkpt>
      <trkpt lat="42.66204" lon="23.41944">
        <ele>550.131494</ele>
        <time>2022-02-23T01:45:52.809Z</time>
      </trkpt>
      <trkpt lat="42.66203" lon="23.41937">
        <ele>550.167849</ele>
        <time>2022-02-23T01:45:54.455Z</time>
      </trkpt>
      <trkpt lat="42.66223" lon="23.41859">
        <ele>550.447381</ele>
        <time>2022-02-23T01:46:11.838Z</time>
      </trkpt>
      <trkpt lat="42.66226" lon="23.41838">
        <ele>550.519085</ele>
        <time>2022-02-23T01:46:16.395Z</time>
      </trkpt>
      <trkpt lat="42.66229" lon="23.41819">
        <ele>550.584735</ele>
        <time>2022-02-23T01:46:20.615Z</time>
      </trkpt>
      <trkpt lat="42.66234" lon="23.41753">
        <ele>550.809302</ele>
        <time>2022-02-23T01:46:34.940Z</time>
      </trkpt>
      <trkpt lat="42.66242" lon="23.41716">
        <ele>550.940572</ele>
        <time>2022-02-23T01:46:43.033Z</time>
      </trkpt>
      <trkpt lat="42.66247" lon="23.41699">
        <ele>550.996926</ele>
        <time>2022-02-23T01:46:46.803Z</time>
      </trkpt>
      <trkpt lat="42.66262" lon="23.41644">
        <ele>550.942835</ele>
        <time>2022-02-23T01:46:59.054Z</time>
      </trkpt>
      <trkpt lat="42.66269" lon="23.41621">
        <ele>550.920368</ele>
        <time>2022-02-23T01:47:04.234Z</time>
      </trkpt>
      <trkpt lat="42.66283" lon="23.41569">
        <ele>550.870257</ele>
        <time>2022-02-23T01:47:15.106Z</time>
      </trkpt>
      <trkpt lat="42.66282" lon="23.41564">
        <ele>550.865217</ele>
        <time>2022-02-23T01:47:16.055Z</time>
      </trkpt>
      <trkpt lat="42.66281" lon="23.41547">
        <ele>550.850392</ele>
        <time>2022-02-23T01:47:19.189Z</time>
      </trkpt>
      <trkpt lat="42.66332" lon="23.41358">
        <ele>550.160497</ele>
        <time>2022-02-23T01:47:55.034Z</time>
      </trkpt>
      <trkpt lat="42.66388" lon="23.41154">
        <ele>549.236763</ele>
        <time>2022-02-23T01:48:33.082Z</time>
      </trkpt>
      <trkpt lat="42.6639" lon="23.41144">
        <ele>549.204407</ele>
        <time>2022-02-23T01:48:35.011Z</time>
      </trkpt>
      <trkpt lat="42.66407" lon="23.41083">
        <ele>549.004859</ele>
        <time>2022-02-23T01:48:47.225Z</time>
      </trkpt>
      <trkpt lat="42.66436" lon="23.40982">
        <ele>548.756954</ele>
        <time>2022-02-23T01:49:08.048Z</time>
      </trkpt>
      <trkpt lat="42.66465" lon="23.409">
        <ele>548.713224</ele>
        <time>2022-02-23T01:49:26.132Z</time>
      </trkpt>
      <trkpt lat="42.66534" lon="23.4075">
        <ele>548.555793</ele>
        <time>2022-02-23T01:50:00.072Z</time>
      </trkpt>
      <trkpt lat="42.66536" lon="23.40735">
        <ele>548.529658</ele>
        <time>2022-02-23T01:50:02.820Z</time>
      </trkpt>
      <trkpt lat="42.66551" lon="23.40715">
        <ele>548.478934</ele>
        <time>2022-02-23T01:50:08.131Z</time>
      </trkpt>
      <trkpt lat="42.66568" lon="23.40682">
        <ele>548.406792</ele>
        <time>2022-02-23T01:50:15.647Z</time>
      </trkpt>
      <trkpt lat="42.66573" lon="23.40673">
        <ele>548.387719</ele>
        <time>2022-02-23T01:50:17.636Z</time>
      </trkpt>
      <trkpt lat="42.66793" lon="23.40239">
        <ele>547.536547</ele>
        <time>2022-02-23T01:51:57.160Z</time>
      </trkpt>
      <trkpt lat="42.668" lon="23.40227">
        <ele>547.519674</ele>
        <time>2022-02-23T01:52:00.125Z</time>
      </trkpt>
      <trkpt lat="42.66801" lon="23.40225">
        <ele>547.516561</ele>
        <time>2022-02-23T01:52:00.689Z</time>
      </trkpt>
      <trkpt lat="42.66825" lon="23.40178">
        <ele>547.473368</ele>
        <time>2022-02-23T01:52:12.717Z</time>
      </trkpt>
      <trkpt lat="42.6697" lon="23.39897">
        <ele>547.430684</ele>
        <time>2022-02-23T01:53:22.595Z</time>
      </trkpt>
      <trkpt lat="42.67027" lon="23.39774">
        <ele>547.351261</ele>
        <time>2022-02-23T01:53:51.422Z</time>
      </trkpt>
      <trkpt lat="42.67125" lon="23.39575">
        <ele>547.282202</ele>
        <time>2022-02-23T01:54:40.763Z</time>
      </trkpt>
      <trkpt lat="42.67137" lon="23.39541">
        <ele>547.231646</ele>
        <time>2022-02-23T01:54:48.493Z</time>
      </trkpt>
      <trkpt lat="42.67156" lon="23.39457">
        <ele>547.112587</ele>
        <time>2022-02-23T01:55:06.162Z</time>
      </trkpt>
      <trkpt lat="42.67166" lon="23.39404">
        <ele>547.039645</ele>
        <time>2022-02-23T01:55:16.776Z</time>
      </trkpt>
      <trkpt lat="42.67174" lon="23.39364">
        <ele>546.98308</ele>
        <time>2022-02-23T01:55:24.809Z</time>
      </trkpt>
      <trkpt lat="42.67185" lon="23.39298">
        <ele>546.669504</ele>
        <time>2022-02-23T01:55:37.574Z</time>
      </trkpt>
      <trkpt lat="42.67198" lon="23.3926">
        <ele>546.450182</ele>
        <time>2022-02-23T01:55:45.399Z</time>
      </trkpt>
      <trkpt lat="42.67277" lon="23.38809">
        <ele>543.782248</ele>
        <time>2022-02-23T01:57:09.469Z</time>
      </trkpt>
      <trkpt lat="42.67286" lon="23.38778">
        <ele>543.609178</ele>
        <time>2022-02-23T01:57:15.607Z</time>
      </trkpt>
      <trkpt lat="42.67293" lon="23.38735">
        <ele>543.384549</ele>
        <time>2022-02-23T01:57:23.554Z</time>
      </trkpt>
      <trkpt lat="42.67318" lon="23.38585">
        <ele>542.784607</ele>
        <time>2022-02-23T01:57:52.223Z</time>
      </trkpt>
      <trkpt lat="42.67349" lon="23.38419">
        <ele>542.45237</ele>
        <time>2022-02-23T01:58:26.765Z</time>
      </trkpt>
      <trkpt lat="42.6737" lon="23.38297">
        <ele>542.296766</ele>
        <time>2022-02-23T01:58:52.361Z</time>
      </trkpt>
      <trkpt lat="42.67386" lon="23.38186">
        <ele>542.165049</ele>
        <time>2022-02-23T01:59:14.397Z</time>
      </trkpt>
      <trkpt lat="42.67392" lon="23.3818">
        <ele>542.152971</ele>
        <time>2022-02-23T01:59:16.609Z</time>
      </trkpt>
      <trkpt lat="42.67403" lon="23.38184">
        <ele>542.12932</ele>
        <time>2022-02-23T01:59:19.278Z</time>
      </trkpt>
      <trkpt lat="42.67414" lon="23.38186">
        <ele>542.097525</ele>
        <time>2022-02-23T01:59:22.087Z</time>
      </trkpt>
      <trkpt lat="42.67419" lon="23.38165">
        <ele>542.050293</ele>
        <time>2022-02-23T01:59:26.597Z</time>
      </trkpt>
      <trkpt lat="42.67433" lon="23.38169">
        <ele>542.007328</ele>
        <time>2022-02-23T01:59:30.150Z</time>
      </trkpt>
      <trkpt lat="42.67497" lon="23.38188">
        <ele>541.821395</ele>
        <time>2022-02-23T01:59:46.369Z</time>
      </trkpt>
      <trkpt lat="42.67508" lon="23.38191">
        <ele>541.78702</ele>
        <time>2022-02-23T01:59:49.349Z</time>
      </trkpt>
      <trkpt lat="42.67589" lon="23.38214">
        <ele>541.676873</ele>
        <time>2022-02-23T02:00:10.431Z</time>
      </trkpt>
      <trkpt lat="42.67591" lon="23.382">
        <ele>541.697132</ele>
        <time>2022-02-23T02:00:13.404Z</time>
      </trkpt>
      <trkpt lat="42.67595" lon="23.38175">
        <ele>541.734075</ele>
        <time>2022-02-23T02:00:18.803Z</time>
      </trkpt>
      <trkpt lat="42.67607" lon="23.38103">
        <ele>541.840722</ele>
        <time>2022-02-23T02:00:34.521Z</time>
      </trkpt>
      <trkpt lat="42.676" lon="23.38025">
        <ele>541.952136</ele>
        <time>2022-02-23T02:00:50.423Z</time>
      </trkpt>
      <trkpt lat="42.67606" lon="23.38008">
        <ele>541.975003</ele>
        <time>2022-02-23T02:00:54.297Z</time>
      </trkpt>
      <trkpt lat="42.67614" lon="23.38">
        <ele>541.965106</ele>
        <time>2022-02-23T02:00:57.115Z</time>
      </trkpt>
      <trkpt lat="42.67623" lon="23.37995">
        <ele>541.955408</ele>
        <time>2022-02-23T02:00:59.857Z</time>
      </trkpt>
      <trkpt lat="42.67634" lon="23.37988">
        <ele>541.943834</ele>
        <time>2022-02-23T02:01:03.135Z</time>
      </trkpt>
      <trkpt lat="42.67689" lon="23.37954">
        <ele>541.88513</ele>
        <time>2022-02-23T02:01:19.093Z</time>
      </trkpt>
      <trkpt lat="42.677" lon="23.37947">
        <ele>541.872811</ele>
        <time>2022-02-23T02:01:22.466Z</time>
      </trkpt>
      <trkpt lat="42.67725" lon="23.37932">
        <ele>541.846293</ele>
        <time>2022-02-23T02:01:29.358Z</time>
      </trkpt>
      <trkpt lat="42.6778" lon="23.37898">
        <ele>541.781134</ele>
        <time>2022-02-23T02:01:44.529Z</time>
      </trkpt>
      <trkpt lat="42.67787" lon="23.37893">
        <ele>541.770315</ele>
        <time>2022-02-23T02:01:46.350Z</time>
      </trkpt>
      <trkpt lat="42.6785" lon="23.37852">
        <ele>541.670919</ele>
        <time>2022-02-23T02:02:03.733Z</time>
      </trkpt>
      <trkpt lat="42.67859" lon="23.3785">
        <ele>541.658144</ele>
        <time>2022-02-23T02:02:05.947Z</time>
      </trkpt>
      <trkpt lat="42.67872" lon="23.37851">
        <ele>541.639488</ele>
        <time>2022-02-23T02:02:09.365Z</time>
      </trkpt>
      <trkpt lat="42.6792" lon="23.37865">
        <ele>541.569927</ele>
        <time>2022-02-23T02:02:22.664Z</time>
      </trkpt>
      <trkpt lat="42.67955" lon="23.37875">
        <ele>541.697102</ele>
        <time>2022-02-23T02:02:33.161Z</time>
      </trkpt>
      <trkpt lat="42.67964" lon="23.37874">
        <ele>541.774472</ele>
        <time>2022-02-23T02:02:35.742Z</time>
      </trkpt>
      <trkpt lat="42.67972" lon="23.3787">
        <ele>541.846081</ele>
        <time>2022-02-23T02:02:38.281Z</time>
      </trkpt>
      <trkpt lat="42.6798" lon="23.37862">
        <ele>541.933754</ele>
        <time>2022-02-23T02:02:41.503Z</time>
      </trkpt>
      <trkpt lat="42.67985" lon="23.37848">
        <ele>542.028155</ele>
        <time>2022-02-23T02:02:44.996Z</time>
      </trkpt>
      <trkpt lat="42.67993" lon="23.37795">
        <ele>542.367767</ele>
        <time>2022-02-23T02:02:57.306Z</time>
      </trkpt>
      <trkpt lat="42.67995" lon="23.37785">
        <ele>542.430132</ele>
        <time>2022-02-23T02:02:59.598Z</time>
      </trkpt>
      <trkpt lat="42.68007" lon="23.37704">
        <ele>542.94621</ele>
        <time>2022-02-23T02:03:19.223Z</time>
      </trkpt>
      <trkpt lat="42.68013" lon="23.37665">
        <ele>543.118713</ele>
        <time>2022-02-23T02:03:28.489Z</time>
      </trkpt>
      <trkpt lat="42.68032" lon="23.37519">
        <ele>543.489686</ele>
        <time>2022-02-23T02:04:00.987Z</time>
      </trkpt>
      <trkpt lat="42.68033" lon="23.37513">
        <ele>543.503353</ele>
        <time>2022-02-23T02:04:02.011Z</time>
      </trkpt>
      <trkpt lat="42.68034" lon="23.37486">
        <ele>543.572168</ele>
        <time>2022-02-23T02:04:06.805Z</time>
      </trkpt>
      <trkpt lat="42.68034" lon="23.37481">
        <ele>543.583888</ele>
        <time>2022-02-23T02:04:07.638Z</time>
      </trkpt>
      <trkpt lat="42.68034" lon="23.3744">
        <ele>543.690288</ele>
        <time>2022-02-23T02:04:15.022Z</time>
      </trkpt>
      <trkpt lat="42.68035" lon="23.3739">
        <ele>543.879747</ele>
        <time>2022-02-23T02:04:24.209Z</time>
      </trkpt>
      <trkpt lat="42.68036" lon="23.37359">
        <ele>543.999677</ele>
        <time>2022-02-23T02:04:30.325Z</time>
      </trkpt>
      <trkpt lat="42.6804" lon="23.37296">
        <ele>544.23938</ele>
        <time>2022-02-23T02:04:42.788Z</time>
      </trkpt>
      <trkpt lat="42.68044" lon="23.37275">
        <ele>544.322984</ele>
        <time>2022-02-23T02:04:47.534Z</time>
      </trkpt>
      <trkpt lat="42.68047" lon="23.37259">
        <ele>544.386513</ele>
        <time>2022-02-23T02:04:51.220Z</time>
      </trkpt>
      <trkpt lat="42.68061" lon="23.37206">
        <ele>544.60103</ele>
        <time>2022-02-23T02:05:04.585Z</time>
      </trkpt>
      <trkpt lat="42.68075" lon="23.37171">
        <ele>545.654808</ele>
        <time>2022-02-23T02:05:15.594Z</time>
      </trkpt>
      <trkpt lat="42.6809" lon="23.37133">
        <ele>546.853371</ele>
        <time>2022-02-23T02:05:28.420Z</time>
      </trkpt>
      <trkpt lat="42.68102" lon="23.371">
        <ele>547.90997</ele>
        <time>2022-02-23T02:05:41.022Z</time>
      </trkpt>
      <trkpt lat="42.6812" lon="23.37054">
        <ele>549.386751</ele>
        <time>2022-02-23T02:06:00.347Z</time>
      </trkpt>
      <trkpt lat="42.68132" lon="23.37024">
        <ele>550.354416</ele>
        <time>2022-02-23T02:06:13.077Z</time>
      </trkpt>
      <trkpt lat="42.68155" lon="23.36963">
        <ele>552.321196</ele>
        <time>2022-02-23T02:06:39.238Z</time>
      </trkpt>
      <trkpt lat="42.68184" lon="23.36887">
        <ele>554.775666</ele>
        <time>2022-02-23T02:07:10.331Z</time>
      </trkpt>
      <trkpt lat="42.68187" lon="23.3688">
        <ele>555.014549</ele>
        <time>2022-02-23T02:07:13.364Z</time>
      </trkpt>
      <trkpt lat="42.6819" lon="23.36873">
        <ele>555.232005</ele>
        <time>2022-02-23T02:07:16.062Z</time>
      </trkpt>
      <trkpt lat="42.68198" lon="23.3685">
        <ele>555.985666</ele>
        <time>2022-02-23T02:07:24.778Z</time>
      </trkpt>
      <trkpt lat="42.6821" lon="23.3682">
        <ele>556.928458</ele>
        <time>2022-02-23T02:07:35.545Z</time>
      </trkpt>
      <trkpt lat="42.6822" lon="23.36794">
        <ele>557.772507</ele>
        <time>2022-02-23T02:07:44.661Z</time>
      </trkpt>
      <trkpt lat="42.68223" lon="23.36786">
        <ele>558.058613</ele>
        <time>2022-02-23T02:07:47.675Z</time>
      </trkpt>
      <trkpt lat="42.68229" lon="23.36769">
        <ele>558.575933</ele>
        <time>2022-02-23T02:07:52.799Z</time>
      </trkpt>
      <trkpt lat="42.68233" lon="23.36753">
        <ele>558.702438</ele>
        <time>2022-02-23T02:07:57.693Z</time>
      </trkpt>
      <trkpt lat="42.68268" lon="23.36526">
        <ele>560.37254</ele>
        <time>2022-02-23T02:08:49.045Z</time>
      </trkpt>
      <trkpt lat="42.68278" lon="23.36467">
        <ele>560.48511</ele>
        <time>2022-02-23T02:09:00.548Z</time>
      </trkpt>
      <trkpt lat="42.68285" lon="23.36429">
        <ele>560.556903</ele>
        <time>2022-02-23T02:09:07.988Z</time>
      </trkpt>
      <trkpt lat="42.68291" lon="23.36393">
        <ele>560.625287</ele>
        <time>2022-02-23T02:09:15.238Z</time>
      </trkpt>
      <trkpt lat="42.68295" lon="23.36374">
        <ele>560.662381</ele>
        <time>2022-02-23T02:09:19.587Z</time>
      </trkpt>
      <trkpt lat="42.68309" lon="23.36297">
        <ele>560.808181</ele>
        <time>2022-02-23T02:09:36.082Z</time>
      </trkpt>
      <trkpt lat="42.68315" lon="23.36271">
        <ele>561.01907</ele>
        <time>2022-02-23T02:09:42.172Z</time>
      </trkpt>
      <trkpt lat="42.68333" lon="23.36207">
        <ele>561.603488</ele>
        <time>2022-02-23T02:09:56.975Z</time>
      </trkpt>
      <trkpt lat="42.68336" lon="23.36197">
        <ele>561.694589</ele>
        <time>2022-02-23T02:09:59.756Z</time>
      </trkpt>
      <trkpt lat="42.68382" lon="23.36055">
        <ele>563.028229</ele>
        <time>2022-02-23T02:10:38.548Z</time>
      </trkpt>
      <trkpt lat="42.68392" lon="23.36023">
        <ele>563.308453</ele>
        <time>2022-02-23T02:10:47.303Z</time>
      </trkpt>
      <trkpt lat="42.68397" lon="23.36007">
        <ele>563.454778</ele>
        <time>2022-02-23T02:10:52.020Z</time>
      </trkpt>
      <trkpt lat="42.68416" lon="23.35949">
        <ele>563.96571</ele>
        <time>2022-02-23T02:11:07.058Z</time>
      </trkpt>
      <trkpt lat="42.68437" lon="23.35886">
        <ele>564.521867</ele>
        <time>2022-02-23T02:11:22.990Z</time>
      </trkpt>
      <trkpt lat="42.68497" lon="23.35698">
        <ele>565.384101</ele>
        <time>2022-02-23T02:12:07.661Z</time>
      </trkpt>
      <trkpt lat="42.685" lon="23.3569">
        <ele>565.412374</ele>
        <time>2022-02-23T02:12:09.518Z</time>
      </trkpt>
      <trkpt lat="42.68503" lon="23.35681">
        <ele>565.44273</ele>
        <time>2022-02-23T02:12:11.592Z</time>
      </trkpt>
      <trkpt lat="42.6855" lon="23.35561">
        <ele>565.051034</ele>
        <time>2022-02-23T02:12:38.298Z</time>
      </trkpt>
      <trkpt lat="42.68579" lon="23.35492">
        <ele>564.354762</ele>
        <time>2022-02-23T02:12:52.079Z</time>
      </trkpt>
      <trkpt lat="42.68614" lon="23.35404">
        <ele>563.415388</ele>
        <time>2022-02-23T02:13:07.713Z</time>
      </trkpt>
      <trkpt lat="42.68648" lon="23.35326">
        <ele>561.276371</ele>
        <time>2022-02-23T02:13:20.539Z</time>
      </trkpt>
      <trkpt lat="42.6865" lon="23.35321">
        <ele>561.148039</ele>
        <time>2022-02-23T02:13:21.319Z</time>
      </trkpt>
      <trkpt lat="42.68661" lon="23.35298">
        <ele>560.490717</ele>
        <time>2022-02-23T02:13:25.111Z</time>
      </trkpt>
      <trkpt lat="42.68667" lon="23.35287">
        <ele>560.176412</ele>
        <time>2022-02-23T02:13:26.932Z</time>
      </trkpt>
      <trkpt lat="42.68686" lon="23.35246">
        <ele>559.026541</ele>
        <time>2022-02-23T02:13:33.706Z</time>
      </trkpt>
      <trkpt lat="42.687" lon="23.35216">
        <ele>558.185869</ele>
        <time>2022-02-23T02:13:38.791Z</time>
      </trkpt>
      <trkpt lat="42.687" lon="23.3521">
        <ele>558.035957</ele>
        <time>2022-02-23T02:13:39.643Z</time>
      </trkpt>
      <trkpt lat="42.68693" lon="23.35184">
        <ele>557.514638</ele>
        <time>2022-02-23T02:13:43.911Z</time>
      </trkpt>
      <trkpt lat="42.6869" lon="23.3518">
        <ele>557.442191</ele>
        <time>2022-02-23T02:13:44.668Z</time>
      </trkpt>
      <trkpt lat="42.68659" lon="23.35151">
        <ele>556.766447</ele>
        <time>2022-02-23T02:13:52.399Z</time>
      </trkpt>
      <trkpt lat="42.68637" lon="23.35124">
        <ele>556.236433</ele>
        <time>2022-02-23T02:13:58.686Z</time>
      </trkpt>
      <trkpt lat="42.68569" lon="23.35036">
        <ele>554.564226</ele>
        <time>2022-02-23T02:14:19.661Z</time>
      </trkpt>
      <trkpt lat="42.68582" lon="23.35013">
        <ele>554.274259</ele>
        <time>2022-02-23T02:14:24.722Z</time>
      </trkpt>
      <trkpt lat="42.68609" lon="23.34968">
        <ele>553.75157</ele>
        <time>2022-02-23T02:14:35.164Z</time>
      </trkpt>
      <trkpt lat="42.68648" lon="23.34903">
        <ele>552.981848</ele>
        <time>2022-02-23T02:14:49.641Z</time>
      </trkpt>
      <trkpt lat="42.68685" lon="23.34842">
        <ele>552.256182</ele>
        <time>2022-02-23T02:15:02.616Z</time>
      </trkpt>
      <trkpt lat="42.68694" lon="23.34827">
        <ele>552.014948</ele>
        <time>2022-02-23T02:15:05.662Z</time>
      </trkpt>
      <trkpt lat="42.68723" lon="23.34777">
        <ele>551.184167</ele>
        <time>2022-02-23T02:15:16.177Z</time>
      </trkpt>
      <trkpt lat="42.68736" lon="23.34756">
        <ele>550.832328</ele>
        <time>2022-02-23T02:15:20.683Z</time>
      </trkpt>
      <trkpt lat="42.68739" lon="23.3475">
        <ele>550.735781</ele>
        <time>2022-02-23T02:15:21.919Z</time>
      </trkpt>
      <trkpt lat="42.68759" lon="23.34715">
        <ele>550.148839</ele>
        <time>2022-02-23T02:15:29.395Z</time>
      </trkpt>
      <trkpt lat="42.68785" lon="23.34669">
        <ele>549.39732</ele>
        <time>2022-02-23T02:15:38.905Z</time>
      </trkpt>
      <trkpt lat="42.68788" lon="23.34664">
        <ele>549.315463</ele>
        <time>2022-02-23T02:15:39.965Z</time>
      </trkpt>
      <trkpt lat="42.68836" lon="23.34575">
        <ele>548.213081</ele>
        <time>2022-02-23T02:15:58.359Z</time>
      </trkpt>
      <trkpt lat="42.68861" lon="23.34528">
        <ele>547.666334</ele>
        <time>2022-02-23T02:16:08.468Z</time>
      </trkpt>
      <trkpt lat="42.68867" lon="23.34515">
        <ele>547.522999</ele>
        <time>2022-02-23T02:16:11.069Z</time>
      </trkpt>
      <trkpt lat="42.68905" lon="23.34434">
        <ele>546.678254</ele>
        <time>2022-02-23T02:16:28.693Z</time>
      </trkpt>
      <trkpt lat="42.68918" lon="23.34402">
        <ele>546.46384</ele>
        <time>2022-02-23T02:16:35.459Z</time>
      </trkpt>
      <trkpt lat="42.68942" lon="23.34335">
        <ele>546.02744</ele>
        <time>2022-02-23T02:16:48.529Z</time>
      </trkpt>
      <trkpt lat="42.68971" lon="23.34237">
        <ele>545.403094</ele>
        <time>2022-02-23T02:17:07.984Z</time>
      </trkpt>
      <trkpt lat="42.68984" lon="23.34188">
        <ele>545.123857</ele>
        <time>2022-02-23T02:17:17.939Z</time>
      </trkpt>
      <trkpt lat="42.68999" lon="23.34131">
        <ele>544.815948</ele>
        <time>2022-02-23T02:17:29.255Z</time>
      </trkpt>
      <trkpt lat="42.69003" lon="23.34114">
        <ele>544.722959</ele>
        <time>2022-02-23T02:17:32.703Z</time>
      </trkpt>
      <trkpt lat="42.69023" lon="23.34025">
        <ele>544.240538</ele>
        <time>2022-02-23T02:17:49.628Z</time>
      </trkpt>
      <trkpt lat="42.69033" lon="23.33961">
        <ele>543.97481</ele>
        <time>2022-02-23T02:18:01.063Z</time>
      </trkpt>
      <trkpt lat="42.69048" lon="23.33844">
        <ele>543.632185</ele>
        <time>2022-02-23T02:18:23.232Z</time>
      </trkpt>
      <trkpt lat="42.69048" lon="23.33834">
        <ele>543.603257</ele>
        <time>2022-02-23T02:18:24.921Z</time>
      </trkpt>
      <trkpt lat="42.69049" lon="23.33819">
        <ele>543.560327</ele>
        <time>2022-02-23T02:18:28.182Z</time>
      </trkpt>
      <trkpt lat="42.69051" lon="23.33811">
        <ele>543.534045</ele>
        <time>2022-02-23T02:18:29.768Z</time>
      </trkpt>
      <trkpt lat="42.69053" lon="23.33801">
        <ele>543.504837</ele>
        <time>2022-02-23T02:18:31.724Z</time>
      </trkpt>
      <trkpt lat="42.69055" lon="23.33793">
        <ele>543.480299</ele>
        <time>2022-02-23T02:18:33.256Z</time>
      </trkpt>
      <trkpt lat="42.69057" lon="23.3379">
        <ele>543.47003</ele>
        <time>2022-02-23T02:18:33.894Z</time>
      </trkpt>
      <trkpt lat="42.69061" lon="23.33783">
        <ele>543.443426</ele>
        <time>2022-02-23T02:18:35.868Z</time>
      </trkpt>
      <trkpt lat="42.69077" lon="23.33758">
        <ele>543.407705</ele>
        <time>2022-02-23T02:18:42.585Z</time>
      </trkpt>
      <trkpt lat="42.69077" lon="23.33757">
        <ele>543.42383</ele>
        <time>2022-02-23T02:18:42.786Z</time>
      </trkpt>
      <trkpt lat="42.69079" lon="23.33754">
        <ele>543.483945</ele>
        <time>2022-02-23T02:18:43.599Z</time>
      </trkpt>
      <trkpt lat="42.69093" lon="23.33728">
        <ele>543.912761</ele>
        <time>2022-02-23T02:18:51.015Z</time>
      </trkpt>
      <trkpt lat="42.69105" lon="23.33713">
        <ele>544.19839</ele>
        <time>2022-02-23T02:18:55.832Z</time>
      </trkpt>
      <trkpt lat="42.69131" lon="23.33681">
        <ele>544.832508</ele>
        <time>2022-02-23T02:19:07.739Z</time>
      </trkpt>
      <trkpt lat="42.69199" lon="23.33602">
        <ele>546.449808</ele>
        <time>2022-02-23T02:19:44.678Z</time>
      </trkpt>
      <trkpt lat="42.69264" lon="23.33524">
        <ele>548.280609</ele>
        <time>2022-02-23T02:20:19.530Z</time>
      </trkpt>
      <trkpt lat="42.693" lon="23.33482">
        <ele>549.314164</ele>
        <time>2022-02-23T02:20:40.900Z</time>
      </trkpt>
      <trkpt lat="42.6931" lon="23.33469">
        <ele>549.619472</ele>
        <time>2022-02-23T02:20:47.271Z</time>
      </trkpt>
      <trkpt lat="42.6931" lon="23.33466">
        <ele>549.665748</ele>
        <time>2022-02-23T02:20:48.187Z</time>
      </trkpt>
      <trkpt lat="42.6931" lon="23.3346">
        <ele>549.761295</ele>
        <time>2022-02-23T02:20:50.048Z</time>
      </trkpt>
      <trkpt lat="42.69308" lon="23.33431">
        <ele>550.232387</ele>
        <time>2022-02-23T02:20:59.316Z</time>
      </trkpt>
      <trkpt lat="42.69306" lon="23.33412">
        <ele>550.513523</ele>
        <time>2022-02-23T02:21:05.355Z</time>
      </trkpt>
      <trkpt lat="42.6931" lon="23.33398">
        <ele>550.638545</ele>
        <time>2022-02-23T02:21:10.130Z</time>
      </trkpt>
      <trkpt lat="42.69312" lon="23.33394">
        <ele>550.674909</ele>
        <time>2022-02-23T02:21:11.487Z</time>
      </trkpt>
      <trkpt lat="42.6932" lon="23.3339">
        <ele>550.767677</ele>
        <time>2022-02-23T02:21:17.357Z</time>
      </trkpt>
      <trkpt lat="42.69364" lon="23.33286">
        <ele>551.733748</ele>
        <time>2022-02-23T02:21:46.652Z</time>
      </trkpt>
      <trkpt lat="42.69372" lon="23.33296">
        <ele>551.856723</ele>
        <time>2022-02-23T02:21:50.602Z</time>
      </trkpt>
      <trkpt lat="42.69377" lon="23.33284">
        <ele>551.966095</ele>
        <time>2022-02-23T02:21:53.527Z</time>
      </trkpt>
      <trkpt lat="42.69393" lon="23.33245">
        <ele>552.325882</ele>
        <time>2022-02-23T02:22:03.758Z</time>
      </trkpt>
      <trkpt lat="42.69408" lon="23.33207">
        <ele>552.690464</ele>
        <time>2022-02-23T02:22:14.110Z</time>
      </trkpt>
      <trkpt lat="42.69415" lon="23.3319">
        <ele>552.866604</ele>
        <time>2022-02-23T02:22:18.939Z</time>
      </trkpt>
      <trkpt lat="42.69432" lon="23.33145">
        <ele>553.312373</ele>
        <time>2022-02-23T02:22:31.565Z</time>
      </trkpt>
      <trkpt lat="42.69434" lon="23.33142">
        <ele>553.344697</ele>
        <time>2022-02-23T02:22:32.497Z</time>
      </trkpt>
      <trkpt lat="42.69446" lon="23.3311">
        <ele>553.66543</ele>
        <time>2022-02-23T02:22:41.902Z</time>
      </trkpt>
      <trkpt lat="42.69452" lon="23.33096">
        <ele>553.809457</ele>
        <time>2022-02-23T02:22:46.211Z</time>
      </trkpt>
      <trkpt lat="42.69467" lon="23.33058">
        <ele>554.194058</ele>
        <time>2022-02-23T02:22:57.210Z</time>
      </trkpt>
      <trkpt lat="42.6947" lon="23.3305">
        <ele>554.266642</ele>
        <time>2022-02-23T02:22:59.224Z</time>
      </trkpt>
      <trkpt lat="42.69492" lon="23.32996">
        <ele>554.783684</ele>
        <time>2022-02-23T02:23:13.678Z</time>
      </trkpt>
      <trkpt lat="42.69517" lon="23.32933">
        <ele>555.321206</ele>
        <time>2022-02-23T02:23:30.756Z</time>
      </trkpt>
      <trkpt lat="42.6954" lon="23.3295">
        <ele>555.585553</ele>
        <time>2022-02-23T02:23:39.488Z</time>
      </trkpt>
      <trkpt lat="42.69546" lon="23.32954">
        <ele>555.653923</ele>
        <time>2022-02-23T02:23:41.776Z</time>
      </trkpt>
      <trkpt lat="42.69552" lon="23.32959">
        <ele>555.729114</ele>
        <time>2022-02-23T02:23:44.211Z</time>
      </trkpt>
      <trkpt lat="42.69559" lon="23.32964">
        <ele>555.811838</ele>
        <time>2022-02-23T02:23:46.882Z</time>
      </trkpt>
      <trkpt lat="42.69566" lon="23.32969">
        <ele>555.893503</ele>
        <time>2022-02-23T02:23:49.547Z</time>
      </trkpt>
      <trkpt lat="42.69586" lon="23.32983">
        <ele>556.117121</ele>
        <time>2022-02-23T02:23:56.562Z</time>
      </trkpt>
      <trkpt lat="42.69597" lon="23.32991">
        <ele>556.240767</ele>
        <time>2022-02-23T02:24:00.370Z</time>
      </trkpt>
      <trkpt lat="42.69617" lon="23.33005">
        <ele>556.461707</ele>
        <time>2022-02-23T02:24:07.432Z</time>
      </trkpt>
      <trkpt lat="42.69623" lon="23.33009">
        <ele>556.4433</ele>
        <time>2022-02-23T02:24:09.475Z</time>
      </trkpt>
      <trkpt lat="42.69647" lon="23.32947">
        <ele>556.30568</ele>
        <time>2022-02-23T02:24:24.735Z</time>
      </trkpt>
      <trkpt lat="42.69653" lon="23.3293">
        <ele>556.269139</ele>
        <time>2022-02-23T02:24:28.466Z</time>
      </trkpt>
      <trkpt lat="42.69653" lon="23.32925">
        <ele>556.258615</ele>
        <time>2022-02-23T02:24:29.546Z</time>
      </trkpt>
      <trkpt lat="42.69654" lon="23.32919">
        <ele>556.247496</ele>
        <time>2022-02-23T02:24:30.724Z</time>
      </trkpt>
      <trkpt lat="42.69802" lon="23.3289">
        <ele>555.781719</ele>
        <time>2022-02-23T02:25:07.456Z</time>
      </trkpt>
      <trkpt lat="42.69806" lon="23.32889">
        <ele>555.76596</ele>
        <time>2022-02-23T02:25:08.264Z</time>
      </trkpt>
      <trkpt lat="42.69797" lon="23.32796">
        <ele>555.490414</ele>
        <time>2022-02-23T02:25:26.063Z</time>
      </trkpt>
      <trkpt lat="42.69796" lon="23.32792">
        <ele>555.477944</ele>
        <time>2022-02-23T02:25:26.714Z</time>
      </trkpt>
      <trkpt lat="42.69787" lon="23.32694">
        <ele>555.438564</ele>
        <time>2022-02-23T02:25:47.586Z</time>
      </trkpt>
      <trkpt lat="42.69786" lon="23.32684">
        <ele>555.502934</ele>
        <time>2022-02-23T02:25:49.894Z</time>
      </trkpt>
      <trkpt lat="42.69783" lon="23.32654">
        <ele>555.701497</ele>
        <time>2022-02-23T02:25:57.270Z</time>
      </trkpt>
      <trkpt lat="42.69778" lon="23.326">
        <ele>556.057654</ele>
        <time>2022-02-23T02:26:10.464Z</time>
      </trkpt>
      <trkpt lat="42.69778" lon="23.32594">
        <ele>556.102209</ele>
        <time>2022-02-23T02:26:12.116Z</time>
      </trkpt>
      <trkpt lat="42.69785" lon="23.32592">
        <ele>556.169939</ele>
        <time>2022-02-23T02:26:14.647Z</time>
      </trkpt>
      <trkpt lat="42.69789" lon="23.32592">
        <ele>556.206956</ele>
        <time>2022-02-23T02:26:16.016Z</time>
      </trkpt>
      <trkpt lat="42.69779" lon="23.32484">
        <ele>556.843364</ele>
        <time>2022-02-23T02:26:48.363Z</time>
      </trkpt>
      <trkpt lat="42.69868" lon="23.32466">
        <ele>556.289831</ele>
        <time>2022-02-23T02:27:15.587Z</time>
      </trkpt>
      <trkpt lat="42.69892" lon="23.32336">
        <ele>555.475725</ele>
        <time>2022-02-23T02:27:36.275Z</time>
      </trkpt>
      <trkpt lat="42.69892" lon="23.32334">
        <ele>555.457279</ele>
        <time>2022-02-23T02:27:36.457Z</time>
      </trkpt>
      <trkpt lat="42.69895" lon="23.32324">
        <ele>555.295594</ele>
        <time>2022-02-23T02:27:38.076Z</time>
      </trkpt>
      <trkpt lat="42.69905" lon="23.32272">
        <ele>554.489813</ele>
        <time>2022-02-23T02:27:45.969Z</time>
      </trkpt>
      <trkpt lat="42.69906" lon="23.32267">
        <ele>554.406331</ele>
        <time>2022-02-23T02:27:46.736Z</time>
      </trkpt>
      <trkpt lat="42.69907" lon="23.32259">
        <ele>554.286375</ele>
        <time>2022-02-23T02:27:50.813Z</time>
      </trkpt>
      <trkpt lat="42.69915" lon="23.32261">
        <ele>554.129875</ele>
        <time>2022-02-23T02:27:52.253Z</time>
      </trkpt>
      <trkpt lat="42.69924" lon="23.32258">
        <ele>553.928719</ele>
        <time>2022-02-23T02:27:54.377Z</time>
      </trkpt>
      <trkpt lat="42.69945" lon="23.32229">
        <ele>553.3341</ele>
        <time>2022-02-23T02:28:00.261Z</time>
      </trkpt>
      <trkpt lat="42.70006" lon="23.32248">
        <ele>552.105639</ele>
        <time>2022-02-23T02:28:14.410Z</time>
      </trkpt>
      <trkpt lat="42.70009" lon="23.32249">
        <ele>552.11511</ele>
        <time>2022-02-23T02:28:14.912Z</time>
      </trkpt>
      <trkpt lat="42.70013" lon="23.3225">
        <ele>552.131268</ele>
        <time>2022-02-23T02:28:16.042Z</time>
      </trkpt>
      <trkpt lat="42.70016" lon="23.32251">
        <ele>552.139347</ele>
        <time>2022-02-23T02:28:16.666Z</time>
      </trkpt>
      <trkpt lat="42.70016" lon="23.32248">
        <ele>552.147666</ele>
        <time>2022-02-23T02:28:17.371Z</time>
      </trkpt>
      <trkpt lat="42.70017" lon="23.32244">
        <ele>552.157535</ele>
        <time>2022-02-23T02:28:18.268Z</time>
      </trkpt>
      <trkpt lat="42.70018" lon="23.3224">
        <ele>552.167978</ele>
        <time>2022-02-23T02:28:19.096Z</time>
      </trkpt>
      <trkpt lat="42.70015" lon="23.32239">
        <ele>552.176448</ele>
        <time>2022-02-23T02:28:19.749Z</time>
      </trkpt>
      <trkpt lat="42.70011" lon="23.32238">
        <ele>552.192552</ele>
        <time>2022-02-23T02:28:20.894Z</time>
      </trkpt>
      <trkpt lat="42.69965" lon="23.32225">
        <ele>552.352976</ele>
        <time>2022-02-23T02:28:32.045Z</time>
      </trkpt>
      <trkpt lat="42.6995" lon="23.3222">
        <ele>552.4039</ele>
        <time>2022-02-23T02:28:36.044Z</time>
      </trkpt>
      <trkpt lat="42.69931" lon="23.32215">
        <ele>552.471208</ele>
        <time>2022-02-23T02:28:41.823Z</time>
      </trkpt>
      <trkpt lat="42.69879" lon="23.322">
        <ele>552.654578</ele>
        <time>2022-02-23T02:28:58.957Z</time>
      </trkpt>
      <trkpt lat="42.69838" lon="23.32187">
        <ele>552.867734</ele>
        <time>2022-02-23T02:29:15.409Z</time>
      </trkpt>
      <trkpt lat="42.69828" lon="23.32184">
        <ele>552.930109</ele>
        <time>2022-02-23T02:29:18.549Z</time>
      </trkpt>
      <trkpt lat="42.69814" lon="23.32181">
        <ele>553.01659</ele>
        <time>2022-02-23T02:29:24.726Z</time>
      </trkpt>
      <trkpt lat="42.69818" lon="23.3216">
        <ele>553.116503</ele>
        <time>2022-02-23T02:29:35.861Z</time>
      </trkpt>
      <trkpt lat="42.69811" lon="23.32158">
        <ele>553.162887</ele>
        <time>2022-02-23T02:29:41.077Z</time>
      </trkpt>
      <trkpt lat="42.69811" lon="23.32112">
        <ele>553.372111</ele>
        <time>2022-02-23T02:29:54.586Z</time>
      </trkpt>
      <trkpt lat="42.69811" lon="23.32107">
        <ele>553.393179</ele>
        <time>2022-02-23T02:29:55.944Z</time>
      </trkpt>
      <trkpt lat="42.6981" lon="23.3207">
        <ele>553.563036</ele>
        <time>2022-02-23T02:30:05.245Z</time>
      </trkpt>
      <trkpt lat="42.6981" lon="23.32062">
        <ele>553.598308</ele>
        <time>2022-02-23T02:30:06.785Z</time>
      </trkpt>
      <trkpt lat="42.69812" lon="23.32046">
        <ele>553.673765</ele>
        <time>2022-02-23T02:30:10.814Z</time>
      </trkpt>
      <trkpt lat="42.69804" lon="23.32043">
        <ele>553.725455</ele>
        <time>2022-02-23T02:30:12.756Z</time>
      </trkpt>
      <trkpt lat="42.69824" lon="23.31932">
        <ele>552.725927</ele>
        <time>2022-02-23T02:30:31.374Z</time>
      </trkpt>
      <trkpt lat="42.69844" lon="23.31821">
        <ele>551.317832</ele>
        <time>2022-02-23T02:30:49.804Z</time>
      </trkpt>
      <trkpt lat="42.69864" lon="23.31718">
        <ele>549.975534</ele>
        <time>2022-02-23T02:31:05.515Z</time>
      </trkpt>
      <trkpt lat="42.69889" lon="23.31588">
        <ele>548.239852</ele>
        <time>2022-02-23T02:31:26.471Z</time>
      </trkpt>
      <trkpt lat="42.69889" lon="23.31587">
        <ele>548.218496</ele>
        <time>2022-02-23T02:31:26.723Z</time>
      </trkpt>
      <trkpt lat="42.69891" lon="23.31577">
        <ele>548.089106</ele>
        <time>2022-02-23T02:31:28.402Z</time>
      </trkpt>
      <trkpt lat="42.69892" lon="23.31572">
        <ele>548.02797</ele>
        <time>2022-02-23T02:31:29.194Z</time>
      </trkpt>
      <trkpt lat="42.69892" lon="23.31569">
        <ele>547.985257</ele>
        <time>2022-02-23T02:31:29.799Z</time>
      </trkpt>
      <trkpt lat="42.69893" lon="23.31565">
        <ele>547.926188</ele>
        <time>2022-02-23T02:31:30.565Z</time>
      </trkpt>
      <trkpt lat="42.69895" lon="23.31552">
        <ele>547.759532</ele>
        <time>2022-02-23T02:31:32.897Z</time>
      </trkpt>
      <trkpt lat="42.69911" lon="23.31467">
        <ele>547.382283</ele>
        <time>2022-02-23T02:31:49.392Z</time>
      </trkpt>
      <trkpt lat="42.69929" lon="23.31376">
        <ele>547.046823</ele>
        <time>2022-02-23T02:32:06.613Z</time>
      </trkpt>
      <trkpt lat="42.69946" lon="23.31284">
        <ele>546.731512</ele>
        <time>2022-02-23T02:32:23.730Z</time>
      </trkpt>
      <trkpt lat="42.69963" lon="23.31193">
        <ele>546.474991</ele>
        <time>2022-02-23T02:32:41.648Z</time>
      </trkpt>
      <trkpt lat="42.6998" lon="23.31102">
        <ele>546.217476</ele>
        <time>2022-02-23T02:32:59.308Z</time>
      </trkpt>
      <trkpt lat="42.69991" lon="23.3104">
        <ele>546.023625</ele>
        <time>2022-02-23T02:33:10.404Z</time>
      </trkpt>
      <trkpt lat="42.69995" lon="23.31022">
        <ele>545.960172</ele>
        <time>2022-02-23T02:33:13.736Z</time>
      </trkpt>
      <trkpt lat="42.69997" lon="23.31008">
        <ele>545.911031</ele>
        <time>2022-02-23T02:33:16.303Z</time>
      </trkpt>
      <trkpt lat="42.70013" lon="23.30916">
        <ele>545.595042</ele>
        <time>2022-02-23T02:33:33.135Z</time>
      </trkpt>
      <trkpt lat="42.70029" lon="23.30821">
        <ele>545.340721</ele>
        <time>2022-02-23T02:33:51.713Z</time>
      </trkpt>
      <trkpt lat="42.70043" lon="23.30732">
        <ele>545.556477</ele>
        <time>2022-02-23T02:34:09.742Z</time>
      </trkpt>
      <trkpt lat="42.70059" lon="23.30639">
        <ele>545.782703</ele>
        <time>2022-02-23T02:34:29.550Z</time>
      </trkpt>
      <trkpt lat="42.70074" lon="23.30549">
        <ele>546.136799</ele>
        <time>2022-02-23T02:34:50.855Z</time>
      </trkpt>
      <trkpt lat="42.70088" lon="23.30465">
        <ele>546.585368</ele>
        <time>2022-02-23T02:35:10.049Z</time>
      </trkpt>
      <trkpt lat="42.7009" lon="23.30455">
        <ele>546.642814</ele>
        <time>2022-02-23T02:35:12.425Z</time>
      </trkpt>
      <trkpt lat="42.70092" lon="23.30444">
        <ele>546.69924</ele>
        <time>2022-02-23T02:35:14.807Z</time>
      </trkpt>
      <trkpt lat="42.70104" lon="23.30368">
        <ele>547.105995</ele>
        <time>2022-02-23T02:35:31.897Z</time>
      </trkpt>
      <trkpt lat="42.70106" lon="23.3036">
        <ele>547.149033</ele>
        <time>2022-02-23T02:35:33.646Z</time>
      </trkpt>
      <trkpt lat="42.70112" lon="23.30323">
        <ele>547.321811</ele>
        <time>2022-02-23T02:35:41.816Z</time>
      </trkpt>
      <trkpt lat="42.70113" lon="23.30317">
        <ele>547.350819</ele>
        <time>2022-02-23T02:35:43.153Z</time>
      </trkpt>
      <trkpt lat="42.7012" lon="23.30271">
        <ele>547.556685</ele>
        <time>2022-02-23T02:35:52.932Z</time>
      </trkpt>
      <trkpt lat="42.70135" lon="23.30178">
        <ele>547.979063</ele>
        <time>2022-02-23T02:36:13.111Z</time>
      </trkpt>
      <trkpt lat="42.70149" lon="23.30097">
        <ele>548.408519</ele>
        <time>2022-02-23T02:36:31.542Z</time>
      </trkpt>
      <trkpt lat="42.70151" lon="23.30085">
        <ele>548.506932</ele>
        <time>2022-02-23T02:36:34.732Z</time>
      </trkpt>
      <trkpt lat="42.70154" lon="23.30066">
        <ele>548.64961</ele>
        <time>2022-02-23T02:36:39.379Z</time>
      </trkpt>
      <trkpt lat="42.70144" lon="23.30063">
        <ele>548.75417</ele>
        <time>2022-02-23T02:36:42.967Z</time>
      </trkpt>
      <trkpt lat="42.70138" lon="23.30061">
        <ele>548.816749</ele>
        <time>2022-02-23T02:36:45.006Z</time>
      </trkpt>
      <trkpt lat="42.70135" lon="23.3006">
        <ele>548.856418</ele>
        <time>2022-02-23T02:36:46.362Z</time>
      </trkpt>
      <trkpt lat="42.70113" lon="23.30054">
        <ele>549.078219</ele>
        <time>2022-02-23T02:36:53.583Z</time>
      </trkpt>
      <trkpt lat="42.70017" lon="23.30027">
        <ele>550.085475</ele>
        <time>2022-02-23T02:37:24.839Z</time>
      </trkpt>
      <trkpt lat="42.70006" lon="23.30024">
        <ele>550.134916</ele>
        <time>2022-02-23T02:37:28.087Z</time>
      </trkpt>
      <trkpt lat="42.70007" lon="23.30018">
        <ele>550.156253</ele>
        <time>2022-02-23T02:37:29.570Z</time>
      </trkpt>
      <trkpt lat="42.70021" lon="23.2993">
        <ele>550.432597</ele>
        <time>2022-02-23T02:37:48.483Z</time>
      </trkpt>
      <trkpt lat="42.70022" lon="23.29922">
        <ele>550.458021</ele>
        <time>2022-02-23T02:37:50.138Z</time>
      </trkpt>
      <trkpt lat="42.70035" lon="23.29838">
        <ele>550.721456</ele>
        <time>2022-02-23T02:38:07.585Z</time>
      </trkpt>
      <trkpt lat="42.70041" lon="23.29802">
        <ele>550.835153</ele>
        <time>2022-02-23T02:38:15.087Z</time>
      </trkpt>
      <trkpt lat="42.70044" lon="23.29783">
        <ele>550.920248</ele>
        <time>2022-02-23T02:38:19.061Z</time>
      </trkpt>
      <trkpt lat="42.70049" lon="23.29753">
        <ele>551.071104</ele>
        <time>2022-02-23T02:38:25.515Z</time>
      </trkpt>
      <trkpt lat="42.7005" lon="23.29746">
        <ele>551.103022</ele>
        <time>2022-02-23T02:38:26.935Z</time>
      </trkpt>
      <trkpt lat="42.70051" lon="23.29741">
        <ele>551.129594</ele>
        <time>2022-02-23T02:38:28.112Z</time>
      </trkpt>
      <trkpt lat="42.70052" lon="23.29735">
        <ele>551.15758</ele>
        <time>2022-02-23T02:38:29.336Z</time>
      </trkpt>
      <trkpt lat="42.70052" lon="23.29733">
        <ele>551.167645</ele>
        <time>2022-02-23T02:38:29.773Z</time>
      </trkpt>
      <trkpt lat="42.70053" lon="23.29732">
        <ele>551.176135</ele>
        <time>2022-02-23T02:38:30.139Z</time>
      </trkpt>
      <trkpt lat="42.70053" lon="23.29728">
        <ele>551.194688</ele>
        <time>2022-02-23T02:38:30.942Z</time>
      </trkpt>
      <trkpt lat="42.70053" lon="23.29727">
        <ele>551.201138</ele>
        <time>2022-02-23T02:38:31.226Z</time>
      </trkpt>
      <trkpt lat="42.70054" lon="23.29723">
        <ele>551.221578</ele>
        <time>2022-02-23T02:38:32.100Z</time>
      </trkpt>
      <trkpt lat="42.70056" lon="23.29713">
        <ele>551.267961</ele>
        <time>2022-02-23T02:38:34.078Z</time>
      </trkpt>
      <trkpt lat="42.70064" lon="23.29662">
        <ele>551.521954</ele>
        <time>2022-02-23T02:38:45.525Z</time>
      </trkpt>
      <trkpt lat="42.70072" lon="23.296">
        <ele>551.830507</ele>
        <time>2022-02-23T02:39:00.022Z</time>
      </trkpt>
      <trkpt lat="42.70082" lon="23.29584">
        <ele>551.932932</ele>
        <time>2022-02-23T02:39:05.141Z</time>
      </trkpt>
      <trkpt lat="42.70135" lon="23.29244">
        <ele>554.025528</ele>
        <time>2022-02-23T02:40:27.724Z</time>
      </trkpt>
      <trkpt lat="42.70137" lon="23.29227">
        <ele>554.087915</ele>
        <time>2022-02-23T02:40:31.270Z</time>
      </trkpt>
      <trkpt lat="42.7014" lon="23.29211">
        <ele>554.151873</ele>
        <time>2022-02-23T02:40:34.935Z</time>
      </trkpt>
      <trkpt lat="42.70165" lon="23.2905">
        <ele>554.842682</ele>
        <time>2022-02-23T02:41:09.182Z</time>
      </trkpt>
      <trkpt lat="42.70197" lon="23.28846">
        <ele>556.10059</ele>
        <time>2022-02-23T02:41:58.307Z</time>
      </trkpt>
      <trkpt lat="42.70224" lon="23.28667">
        <ele>558.317462</ele>
        <time>2022-02-23T02:42:46.696Z</time>
      </trkpt>
      <trkpt lat="42.70234" lon="23.28603">
        <ele>559.12519</ele>
        <time>2022-02-23T02:43:04.420Z</time>
      </trkpt>
      <trkpt lat="42.70228" lon="23.28602">
        <ele>559.245909</ele>
        <time>2022-02-23T02:43:08.505Z</time>
      </trkpt>
      <trkpt lat="42.70232" lon="23.2858">
        <ele>559.593748</ele>
        <time>2022-02-23T02:43:14.697Z</time>
      </trkpt>
      <trkpt lat="42.70232" lon="23.28556">
        <ele>559.953476</ele>
        <time>2022-02-23T02:43:20.920Z</time>
      </trkpt>
      <trkpt lat="42.70231" lon="23.28538">
        <ele>560.23609</ele>
        <time>2022-02-23T02:43:25.855Z</time>
      </trkpt>
      <trkpt lat="42.70231" lon="23.28529">
        <ele>560.363571</ele>
        <time>2022-02-23T02:43:28.245Z</time>
      </trkpt>
      <trkpt lat="42.70223" lon="23.28532">
        <ele>560.522168</ele>
        <time>2022-02-23T02:43:31.007Z</time>
      </trkpt>
      <trkpt lat="42.7022" lon="23.28533">
        <ele>560.5927</ele>
        <time>2022-02-23T02:43:32.239Z</time>
      </trkpt>
      <trkpt lat="42.70217" lon="23.28534">
        <ele>560.667614</ele>
        <time>2022-02-23T02:43:33.513Z</time>
      </trkpt>
      <trkpt lat="42.7021" lon="23.28537">
        <ele>560.817642</ele>
        <time>2022-02-23T02:43:36.013Z</time>
      </trkpt>
      <trkpt lat="42.70196" lon="23.2854">
        <ele>561.094217</ele>
        <time>2022-02-23T02:43:41.082Z</time>
      </trkpt>
      <trkpt lat="42.70174" lon="23.28546">
        <ele>561.56157</ele>
        <time>2022-02-23T02:43:49.080Z</time>
      </trkpt>
      <trkpt lat="42.70172" lon="23.28526">
        <ele>561.882086</ele>
        <time>2022-02-23T02:43:54.931Z</time>
      </trkpt>
      <trkpt lat="42.70168" lon="23.28497">
        <ele>562.325741</ele>
        <time>2022-02-23T02:44:02.670Z</time>
      </trkpt>
      <trkpt lat="42.70158" lon="23.2842">
        <ele>563.718988</ele>
        <time>2022-02-23T02:44:24.438Z</time>
      </trkpt>
      <trkpt lat="42.70158" lon="23.28416">
        <ele>563.811735</ele>
        <time>2022-02-23T02:44:25.733Z</time>
      </trkpt>
      <trkpt lat="42.70147" lon="23.28334">
        <ele>565.458281</ele>
        <time>2022-02-23T02:44:50.151Z</time>
      </trkpt>
      <trkpt lat="42.70138" lon="23.28262">
        <ele>566.913004</ele>
        <time>2022-02-23T02:45:12.586Z</time>
      </trkpt>
      <trkpt lat="42.7013" lon="23.28199">
        <ele>568.016527</ele>
        <time>2022-02-23T02:45:31.354Z</time>
      </trkpt>
      <trkpt lat="42.70129" lon="23.28193">
        <ele>568.091666</ele>
        <time>2022-02-23T02:45:32.941Z</time>
      </trkpt>
      <trkpt lat="42.70125" lon="23.28162">
        <ele>568.524632</ele>
        <time>2022-02-23T02:45:41.932Z</time>
      </trkpt>
      <trkpt lat="42.70121" lon="23.28127">
        <ele>569.000282</ele>
        <time>2022-02-23T02:45:51.454Z</time>
      </trkpt>
      <trkpt lat="42.70116" lon="23.28093">
        <ele>569.467347</ele>
        <time>2022-02-23T02:46:00.525Z</time>
      </trkpt>
      <trkpt lat="42.70112" lon="23.28058">
        <ele>569.945648</ele>
        <time>2022-02-23T02:46:09.504Z</time>
      </trkpt>
      <trkpt lat="42.70104" lon="23.28">
        <ele>570.734105</ele>
        <time>2022-02-23T02:46:23.595Z</time>
      </trkpt>
      <trkpt lat="42.70113" lon="23.27998">
        <ele>570.893916</ele>
        <time>2022-02-23T02:46:26.422Z</time>
      </trkpt>
      <trkpt lat="42.70109" lon="23.27967">
        <ele>571.100629</ele>
        <time>2022-02-23T02:46:33.635Z</time>
      </trkpt>
      <trkpt lat="42.70079" lon="23.27942">
        <ele>571.351201</ele>
        <time>2022-02-23T02:46:44.443Z</time>
      </trkpt>
      <trkpt lat="42.70071" lon="23.27875">
        <ele>571.70244</ele>
        <time>2022-02-23T02:46:58.960Z</time>
      </trkpt>
      <trkpt lat="42.70062" lon="23.27865">
        <ele>571.783449</ele>
        <time>2022-02-23T02:47:02.238Z</time>
      </trkpt>
      <trkpt lat="42.70052" lon="23.27866">
        <ele>571.854522</ele>
        <time>2022-02-23T02:47:05.009Z</time>
      </trkpt>
      <trkpt lat="42.70009" lon="23.27867">
        <ele>572.15639</ele>
        <time>2022-02-23T02:47:17.388Z</time>
      </trkpt>
      <trkpt lat="42.69989" lon="23.27867">
        <ele>572.353144</ele>
        <time>2022-02-23T02:47:23.436Z</time>
      </trkpt>
      <trkpt lat="42.69965" lon="23.2787">
        <ele>572.672926</ele>
        <time>2022-02-23T02:47:30.911Z</time>
      </trkpt>
      <trkpt lat="42.69959" lon="23.27822">
        <ele>573.155849</ele>
        <time>2022-02-23T02:47:42.952Z</time>
      </trkpt>
      <trkpt lat="42.69943" lon="23.27744">
        <ele>573.939749</ele>
        <time>2022-02-23T02:48:02.669Z</time>
      </trkpt>
      <trkpt lat="42.69931" lon="23.27682">
        <ele>574.561261</ele>
        <time>2022-02-23T02:48:18.821Z</time>
      </trkpt>
      <trkpt lat="42.69927" lon="23.27662">
        <ele>574.869961</ele>
        <time>2022-02-23T02:48:24.471Z</time>
      </trkpt>
      <trkpt lat="42.69925" lon="23.27646">
        <ele>575.122966</ele>
        <time>2022-02-23T02:48:28.507Z</time>
      </trkpt>
      <trkpt lat="42.69925" lon="23.27632">
        <ele>575.346479</ele>
        <time>2022-02-23T02:48:32.281Z</time>
      </trkpt>
      <trkpt lat="42.69927" lon="23.27625">
        <ele>575.471138</ele>
        <time>2022-02-23T02:48:34.444Z</time>
      </trkpt>
      <trkpt lat="42.69924" lon="23.27622">
        <ele>575.539491</ele>
        <time>2022-02-23T02:48:35.583Z</time>
      </trkpt>
      <trkpt lat="42.69918" lon="23.27616">
        <ele>575.712823</ele>
        <time>2022-02-23T02:48:38.425Z</time>
      </trkpt>
      <trkpt lat="42.699" lon="23.27555">
        <ele>576.752041</ele>
        <time>2022-02-23T02:48:55.920Z</time>
      </trkpt>
      <trkpt lat="42.69885" lon="23.27507">
        <ele>577.591973</ele>
        <time>2022-02-23T02:49:10.839Z</time>
      </trkpt>
      <trkpt lat="42.69881" lon="23.27496">
        <ele>577.789803</ele>
        <time>2022-02-23T02:49:14.454Z</time>
      </trkpt>
      <trkpt lat="42.69865" lon="23.27451">
        <ele>578.609189</ele>
        <time>2022-02-23T02:49:28.834Z</time>
      </trkpt>
      <trkpt lat="42.69857" lon="23.27425">
        <ele>579.16766</ele>
        <time>2022-02-23T02:49:36.714Z</time>
      </trkpt>
      <trkpt lat="42.69851" lon="23.27401">
        <ele>579.667824</ele>
        <time>2022-02-23T02:49:43.690Z</time>
      </trkpt>
      <trkpt lat="42.69846" lon="23.27378">
        <ele>580.142185</ele>
        <time>2022-02-23T02:49:50.616Z</time>
      </trkpt>
      <trkpt lat="42.69844" lon="23.27365">
        <ele>580.411228</ele>
        <time>2022-02-23T02:49:54.431Z</time>
      </trkpt>
      <trkpt lat="42.69841" lon="23.27348">
        <ele>580.755018</ele>
        <time>2022-02-23T02:49:59.518Z</time>
      </trkpt>
      <trkpt lat="42.69836" lon="23.27316">
        <ele>581.403968</ele>
        <time>2022-02-23T02:50:08.986Z</time>
      </trkpt>
      <trkpt lat="42.69832" lon="23.27296">
        <ele>581.814585</ele>
        <time>2022-02-23T02:50:15.174Z</time>
      </trkpt>
      <trkpt lat="42.69823" lon="23.27243">
        <ele>582.900317</ele>
        <time>2022-02-23T02:50:31.587Z</time>
      </trkpt>
      <trkpt lat="42.69819" lon="23.27218">
        <ele>583.414774</ele>
        <time>2022-02-23T02:50:39.001Z</time>
      </trkpt>
      <trkpt lat="42.69815" lon="23.272">
        <ele>583.869802</ele>
        <time>2022-02-23T02:50:44.821Z</time>
      </trkpt>
      <trkpt lat="42.69814" lon="23.27191">
        <ele>584.079633</ele>
        <time>2022-02-23T02:50:47.356Z</time>
      </trkpt>
      <trkpt lat="42.69802" lon="23.27122">
        <ele>585.80703</ele>
        <time>2022-02-23T02:51:08.731Z</time>
      </trkpt>
      <trkpt lat="42.69797" lon="23.27094">
        <ele>586.504112</ele>
        <time>2022-02-23T02:51:17.566Z</time>
      </trkpt>
      <trkpt lat="42.69793" lon="23.27075">
        <ele>586.988227</ele>
        <time>2022-02-23T02:51:23.562Z</time>
      </trkpt>
      <trkpt lat="42.6979" lon="23.27056">
        <ele>587.469982</ele>
        <time>2022-02-23T02:51:29.951Z</time>
      </trkpt>
      <trkpt lat="42.69779" lon="23.26996">
        <ele>588.948247</ele>
        <time>2022-02-23T02:51:49.891Z</time>
      </trkpt>
      <trkpt lat="42.69764" lon="23.26914">
        <ele>591.441912</ele>
        <time>2022-02-23T02:52:18.325Z</time>
      </trkpt>
      <trkpt lat="42.69741" lon="23.26793">
        <ele>595.242368</ele>
        <time>2022-02-23T02:53:00.732Z</time>
      </trkpt>
      <trkpt lat="42.6973" lon="23.26735">
        <ele>597.121706</ele>
        <time>2022-02-23T02:53:21.784Z</time>
      </trkpt>
      <trkpt lat="42.69724" lon="23.26706">
        <ele>598.171676</ele>
        <time>2022-02-23T02:53:32.963Z</time>
      </trkpt>
      <trkpt lat="42.69724" lon="23.26703">
        <ele>598.278292</ele>
        <time>2022-02-23T02:53:34.118Z</time>
      </trkpt>
      <trkpt lat="42.69714" lon="23.26652">
        <ele>600.177701</ele>
        <time>2022-02-23T02:53:54.011Z</time>
      </trkpt>
      <trkpt lat="42.69712" lon="23.26638">
        <ele>600.688761</ele>
        <time>2022-02-23T02:53:59.038Z</time>
      </trkpt>
      <trkpt lat="42.69701" lon="23.26577">
        <ele>602.944976</ele>
        <time>2022-02-23T02:54:22.537Z</time>
      </trkpt>
      <trkpt lat="42.69698" lon="23.26565">
        <ele>603.37377</ele>
        <time>2022-02-23T02:54:26.455Z</time>
      </trkpt>
      <trkpt lat="42.69695" lon="23.26548">
        <ele>604.000692</ele>
        <time>2022-02-23T02:54:32.529Z</time>
      </trkpt>
      <trkpt lat="42.69693" lon="23.26538">
        <ele>604.384262</ele>
        <time>2022-02-23T02:54:36.297Z</time>
      </trkpt>
      <trkpt lat="42.69693" lon="23.26534">
        <ele>604.543025</ele>
        <time>2022-02-23T02:54:38.836Z</time>
      </trkpt>
      <trkpt lat="42.69688" lon="23.26505">
        <ele>605.597723</ele>
        <time>2022-02-23T02:54:48.912Z</time>
      </trkpt>
      <trkpt lat="42.69679" lon="23.26456">
        <ele>607.657675</ele>
        <time>2022-02-23T02:55:08.582Z</time>
      </trkpt>
      <trkpt lat="42.69671" lon="23.26418">
        <ele>609.241197</ele>
        <time>2022-02-23T02:55:24.347Z</time>
      </trkpt>
      <trkpt lat="42.69647" lon="23.26319">
        <ele>613.510159</ele>
        <time>2022-02-23T02:56:07.042Z</time>
      </trkpt>
      <trkpt lat="42.69643" lon="23.26304">
        <ele>614.149982</ele>
        <time>2022-02-23T02:56:13.382Z</time>
      </trkpt>
      <trkpt lat="42.69618" lon="23.26205">
        <ele>617.453809</ele>
        <time>2022-02-23T02:56:52.860Z</time>
      </trkpt>
      <trkpt lat="42.69607" lon="23.26164">
        <ele>618.640706</ele>
        <time>2022-02-23T02:57:07.992Z</time>
      </trkpt>
      <trkpt lat="42.69594" lon="23.26112">
        <ele>620.154649</ele>
        <time>2022-02-23T02:57:25.724Z</time>
      </trkpt>
      <trkpt lat="42.69587" lon="23.26088">
        <ele>620.86795</ele>
        <time>2022-02-23T02:57:33.790Z</time>
      </trkpt>
      <trkpt lat="42.69559" lon="23.26022">
        <ele>622.254503</ele>
        <time>2022-02-23T02:57:54.016Z</time>
      </trkpt>
      <trkpt lat="42.6955" lon="23.26003">
        <ele>622.306796</ele>
        <time>2022-02-23T02:57:59.520Z</time>
      </trkpt>
      <trkpt lat="42.69548" lon="23.25997">
        <ele>622.322969</ele>
        <time>2022-02-23T02:58:00.980Z</time>
      </trkpt>
      <trkpt lat="42.69539" lon="23.25976">
        <ele>622.377896</ele>
        <time>2022-02-23T02:58:05.771Z</time>
      </trkpt>
      <trkpt lat="42.69527" lon="23.25934">
        <ele>622.484171</ele>
        <time>2022-02-23T02:58:14.668Z</time>
      </trkpt>
      <trkpt lat="42.6952" lon="23.25889">
        <ele>622.593</ele>
        <time>2022-02-23T02:58:23.039Z</time>
      </trkpt>
      <trkpt lat="42.69517" lon="23.25854">
        <ele>622.676238</ele>
        <time>2022-02-23T02:58:29.438Z</time>
      </trkpt>
      <trkpt lat="42.69514" lon="23.2581">
        <ele>622.783033</ele>
        <time>2022-02-23T02:58:37.399Z</time>
      </trkpt>
      <trkpt lat="42.69515" lon="23.25766">
        <ele>622.908511</ele>
        <time>2022-02-23T02:58:45.277Z</time>
      </trkpt>
      <trkpt lat="42.6952" lon="23.25706">
        <ele>623.082557</ele>
        <time>2022-02-23T02:58:57.173Z</time>
      </trkpt>
      <trkpt lat="42.69523" lon="23.25673">
        <ele>623.176858</ele>
        <time>2022-02-23T02:59:04.303Z</time>
      </trkpt>
      <trkpt lat="42.69539" lon="23.25506">
        <ele>623.718637</ele>
        <time>2022-02-23T02:59:43.663Z</time>
      </trkpt>
      <trkpt lat="42.69545" lon="23.25439">
        <ele>623.971053</ele>
        <time>2022-02-23T02:59:58.812Z</time>
      </trkpt>
      <trkpt lat="42.6955" lon="23.25377">
        <ele>624.203151</ele>
        <time>2022-02-23T03:00:11.178Z</time>
      </trkpt>
      <trkpt lat="42.69551" lon="23.25339">
        <ele>624.345292</ele>
        <time>2022-02-23T03:00:18.935Z</time>
      </trkpt>
      <trkpt lat="42.6955" lon="23.25321">
        <ele>624.352</ele>
        <time>2022-02-23T03:00:22.264Z</time>
      </trkpt>
      <trkpt lat="42.69549" lon="23.25298">
        <ele>624.297814</ele>
        <time>2022-02-23T03:00:26.919Z</time>
      </trkpt>
      <trkpt lat="42.69547" lon="23.25289">
        <ele>624.275566</ele>
        <time>2022-02-23T03:00:28.780Z</time>
      </trkpt>
      <trkpt lat="42.69539" lon="23.25228">
        <ele>624.127601</ele>
        <time>2022-02-23T03:00:40.335Z</time>
      </trkpt>
      <trkpt lat="42.69505" lon="23.24982">
        <ele>623.093646</ele>
        <time>2022-02-23T03:01:25.658Z</time>
      </trkpt>
      <trkpt lat="42.69504" lon="23.24958">
        <ele>622.941952</ele>
        <time>2022-02-23T03:01:29.942Z</time>
      </trkpt>
      <trkpt lat="42.69505" lon="23.24948">
        <ele>622.873368</ele>
        <time>2022-02-23T03:01:31.892Z</time>
      </trkpt>
      <trkpt lat="42.69506" lon="23.24917">
        <ele>622.675018</ele>
        <time>2022-02-23T03:01:37.304Z</time>
      </trkpt>
      <trkpt lat="42.69513" lon="23.24847">
        <ele>622.215815</ele>
        <time>2022-02-23T03:01:48.797Z</time>
      </trkpt>
      <trkpt lat="42.69515" lon="23.24819">
        <ele>621.878655</ele>
        <time>2022-02-23T03:01:53.148Z</time>
      </trkpt>
      <trkpt lat="42.69523" lon="23.24722">
        <ele>620.668227</ele>
        <time>2022-02-23T03:02:08.517Z</time>
      </trkpt>
      <trkpt lat="42.69524" lon="23.24715">
        <ele>620.584994</ele>
        <time>2022-02-23T03:02:09.451Z</time>
      </trkpt>
      <trkpt lat="42.69531" lon="23.24639">
        <ele>619.628947</ele>
        <time>2022-02-23T03:02:21.750Z</time>
      </trkpt>
      <trkpt lat="42.69533" lon="23.24608">
        <ele>619.251722</ele>
        <time>2022-02-23T03:02:26.543Z</time>
      </trkpt>
      <trkpt lat="42.69538" lon="23.24552">
        <ele>618.991663</ele>
        <time>2022-02-23T03:02:36.139Z</time>
      </trkpt>
      <trkpt lat="42.69543" lon="23.24497">
        <ele>618.767764</ele>
        <time>2022-02-23T03:02:45.762Z</time>
      </trkpt>
      <trkpt lat="42.69547" lon="23.24439">
        <ele>618.535198</ele>
        <time>2022-02-23T03:02:56.561Z</time>
      </trkpt>
      <trkpt lat="42.69553" lon="23.24372">
        <ele>618.264685</ele>
        <time>2022-02-23T03:03:10.133Z</time>
      </trkpt>
      <trkpt lat="42.69555" lon="23.24347">
        <ele>618.214855</ele>
        <time>2022-02-23T03:03:15.297Z</time>
      </trkpt>
      <trkpt lat="42.69558" lon="23.24318">
        <ele>618.203588</ele>
        <time>2022-02-23T03:03:21.257Z</time>
      </trkpt>
      <trkpt lat="42.69589" lon="23.23973">
        <ele>617.81486</ele>
        <time>2022-02-23T03:04:27.979Z</time>
      </trkpt>
      <trkpt lat="42.69589" lon="23.23953">
        <ele>617.771589</ele>
        <time>2022-02-23T03:04:31.619Z</time>
      </trkpt>
      <trkpt lat="42.69584" lon="23.2388">
        <ele>617.615516</ele>
        <time>2022-02-23T03:04:44.530Z</time>
      </trkpt>
      <trkpt lat="42.69571" lon="23.23723">
        <ele>617.889247</ele>
        <time>2022-02-23T03:05:14.393Z</time>
      </trkpt>
      <trkpt lat="42.69565" lon="23.23677">
        <ele>617.976747</ele>
        <time>2022-02-23T03:05:24.502Z</time>
      </trkpt>
      <trkpt lat="42.69566" lon="23.23609">
        <ele>618.453518</ele>
        <time>2022-02-23T03:05:40.905Z</time>
      </trkpt>
      <trkpt lat="42.69568" lon="23.23548">
        <ele>619.471717</ele>
        <time>2022-02-23T03:05:56.782Z</time>
      </trkpt>
      <trkpt lat="42.69572" lon="23.23442">
        <ele>621.233975</ele>
        <time>2022-02-23T03:06:26.601Z</time>
      </trkpt>
      <trkpt lat="42.69573" lon="23.23417">
        <ele>621.663426</ele>
        <time>2022-02-23T03:06:34.334Z</time>
      </trkpt>
      <trkpt lat="42.69578" lon="23.23274">
        <ele>624.611675</ele>
        <time>2022-02-23T03:07:18.791Z</time>
      </trkpt>
      <trkpt lat="42.69579" lon="23.23247">
        <ele>625.189839</ele>
        <time>2022-02-23T03:07:26.952Z</time>
      </trkpt>
      <trkpt lat="42.69586" lon="23.23112">
        <ele>627.953328</ele>
        <time>2022-02-23T03:08:06.419Z</time>
      </trkpt>
      <trkpt lat="42.69588" lon="23.23056">
        <ele>628.887654</ele>
        <time>2022-02-23T03:08:22.403Z</time>
      </trkpt>
      <trkpt lat="42.6959" lon="23.2303">
        <ele>629.319341</ele>
        <time>2022-02-23T03:08:29.678Z</time>
      </trkpt>
      <trkpt lat="42.6959" lon="23.23009">
        <ele>629.67109</ele>
        <time>2022-02-23T03:08:35.563Z</time>
      </trkpt>
      <trkpt lat="42.69591" lon="23.22993">
        <ele>629.935587</ele>
        <time>2022-02-23T03:08:39.897Z</time>
      </trkpt>
      <trkpt lat="42.69592" lon="23.2297">
        <ele>630.314147</ele>
        <time>2022-02-23T03:08:46.100Z</time>
      </trkpt>
      <trkpt lat="42.69596" lon="23.22872">
        <ele>631.80383</ele>
        <time>2022-02-23T03:09:11.793Z</time>
      </trkpt>
      <trkpt lat="42.69604" lon="23.22739">
        <ele>633.376306</ele>
        <time>2022-02-23T03:09:46.059Z</time>
      </trkpt>
      <trkpt lat="42.69604" lon="23.2273">
        <ele>633.480441</ele>
        <time>2022-02-23T03:09:48.222Z</time>
      </trkpt>
      <trkpt lat="42.69606" lon="23.22723">
        <ele>633.575536</ele>
        <time>2022-02-23T03:09:50.255Z</time>
      </trkpt>
      <trkpt lat="42.69611" lon="23.22707">
        <ele>633.781178</ele>
        <time>2022-02-23T03:09:54.669Z</time>
      </trkpt>
      <trkpt lat="42.69618" lon="23.22687">
        <ele>634.047422</ele>
        <time>2022-02-23T03:10:00.075Z</time>
      </trkpt>
      <trkpt lat="42.69629" lon="23.22661">
        <ele>634.380167</ele>
        <time>2022-02-23T03:10:07.500Z</time>
      </trkpt>
      <trkpt lat="42.69643" lon="23.22629">
        <ele>634.474242</ele>
        <time>2022-02-23T03:10:15.999Z</time>
      </trkpt>
      <trkpt lat="42.69648" lon="23.22618">
        <ele>634.506085</ele>
        <time>2022-02-23T03:10:19.033Z</time>
      </trkpt>
      <trkpt lat="42.69671" lon="23.22564">
        <ele>634.667146</ele>
        <time>2022-02-23T03:10:33.134Z</time>
      </trkpt>
      <trkpt lat="42.69675" lon="23.22554">
        <ele>634.695951</ele>
        <time>2022-02-23T03:10:35.536Z</time>
      </trkpt>
      <trkpt lat="42.69678" lon="23.22546">
        <ele>634.717657</ele>
        <time>2022-02-23T03:10:37.175Z</time>
      </trkpt>
      <trkpt lat="42.69682" lon="23.22499">
        <ele>634.838814</ele>
        <time>2022-02-23T03:10:46.839Z</time>
      </trkpt>
      <trkpt lat="42.69677" lon="23.22448">
        <ele>634.97041</ele>
        <time>2022-02-23T03:10:56.760Z</time>
      </trkpt>
      <trkpt lat="42.69673" lon="23.22413">
        <ele>634.676273</ele>
        <time>2022-02-23T03:11:03.340Z</time>
      </trkpt>
      <trkpt lat="42.6967" lon="23.22371">
        <ele>634.128226</ele>
        <time>2022-02-23T03:11:10.082Z</time>
      </trkpt>
      <trkpt lat="42.6967" lon="23.22354">
        <ele>633.908575</ele>
        <time>2022-02-23T03:11:12.725Z</time>
      </trkpt>
      <trkpt lat="42.69672" lon="23.22261">
        <ele>632.677209</ele>
        <time>2022-02-23T03:11:26.770Z</time>
      </trkpt>
      <trkpt lat="42.69672" lon="23.22252">
        <ele>632.56279</ele>
        <time>2022-02-23T03:11:28.109Z</time>
      </trkpt>
      <trkpt lat="42.69674" lon="23.22235">
        <ele>632.340873</ele>
        <time>2022-02-23T03:11:30.679Z</time>
      </trkpt>
      <trkpt lat="42.69679" lon="23.22217">
        <ele>632.08067</ele>
        <time>2022-02-23T03:11:33.555Z</time>
      </trkpt>
      <trkpt lat="42.69686" lon="23.22201">
        <ele>631.837338</ele>
        <time>2022-02-23T03:11:36.599Z</time>
      </trkpt>
      <trkpt lat="42.69691" lon="23.22189">
        <ele>631.747816</ele>
        <time>2022-02-23T03:11:38.676Z</time>
      </trkpt>
      <trkpt lat="42.69698" lon="23.22177">
        <ele>631.689049</ele>
        <time>2022-02-23T03:11:40.891Z</time>
      </trkpt>
      <trkpt lat="42.69716" lon="23.22155">
        <ele>631.563719</ele>
        <time>2022-02-23T03:11:46.385Z</time>
      </trkpt>
      <trkpt lat="42.6972" lon="23.2215">
        <ele>631.535493</ele>
        <time>2022-02-23T03:11:47.382Z</time>
      </trkpt>
      <trkpt lat="42.69739" lon="23.2213">
        <ele>631.411627</ele>
        <time>2022-02-23T03:11:53.150Z</time>
      </trkpt>
      <trkpt lat="42.69749" lon="23.2212">
        <ele>631.346884</ele>
        <time>2022-02-23T03:11:55.628Z</time>
      </trkpt>
      <trkpt lat="42.69763" lon="23.22089">
        <ele>631.209658</ele>
        <time>2022-02-23T03:12:02.019Z</time>
      </trkpt>
      <trkpt lat="42.69763" lon="23.22073">
        <ele>631.146611</ele>
        <time>2022-02-23T03:12:04.450Z</time>
      </trkpt>
      <trkpt lat="42.69761" lon="23.22056">
        <ele>631.083195</ele>
        <time>2022-02-23T03:12:08.487Z</time>
      </trkpt>
      <trkpt lat="42.69757" lon="23.2204">
        <ele>631.016721</ele>
        <time>2022-02-23T03:12:12.110Z</time>
      </trkpt>
      <trkpt lat="42.69738" lon="23.2199">
        <ele>631.192944</ele>
        <time>2022-02-23T03:12:25.723Z</time>
      </trkpt>
      <trkpt lat="42.69728" lon="23.21962">
        <ele>632.110758</ele>
        <time>2022-02-23T03:12:35.829Z</time>
      </trkpt>
      <trkpt lat="42.69708" lon="23.21893">
        <ele>634.221871</ele>
        <time>2022-02-23T03:13:00.138Z</time>
      </trkpt>
      <trkpt lat="42.69703" lon="23.21876">
        <ele>634.738184</ele>
        <time>2022-02-23T03:13:07.887Z</time>
      </trkpt>
      <trkpt lat="42.69696" lon="23.21848">
        <ele>635.580588</ele>
        <time>2022-02-23T03:13:17.749Z</time>
      </trkpt>
      <trkpt lat="42.69694" lon="23.21838">
        <ele>635.89054</ele>
        <time>2022-02-23T03:13:22.606Z</time>
      </trkpt>
      <trkpt lat="42.69665" lon="23.21716">
        <ele>639.800966</ele>
        <time>2022-02-23T03:14:08.474Z</time>
      </trkpt>
      <trkpt lat="42.6963" lon="23.21572">
        <ele>644.811842</ele>
        <time>2022-02-23T03:15:04.021Z</time>
      </trkpt>
      <trkpt lat="42.69621" lon="23.21539">
        <ele>645.951177</ele>
        <time>2022-02-23T03:15:15.775Z</time>
      </trkpt>
      <trkpt lat="42.69618" lon="23.21511">
        <ele>646.437894</ele>
        <time>2022-02-23T03:15:24.497Z</time>
      </trkpt>
      <trkpt lat="42.69617" lon="23.21494">
        <ele>646.740587</ele>
        <time>2022-02-23T03:15:30.169Z</time>
      </trkpt>
      <trkpt lat="42.69623" lon="23.21447">
        <ele>647.56363</ele>
        <time>2022-02-23T03:15:44.379Z</time>
      </trkpt>
      <trkpt lat="42.69637" lon="23.21405">
        <ele>648.374096</ele>
        <time>2022-02-23T03:15:57.578Z</time>
      </trkpt>
      <trkpt lat="42.69651" lon="23.21379">
        <ele>648.920735</ele>
        <time>2022-02-23T03:16:06.080Z</time>
      </trkpt>
      <trkpt lat="42.6969" lon="23.21333">
        <ele>650.142911</ele>
        <time>2022-02-23T03:16:23.759Z</time>
      </trkpt>
      <trkpt lat="42.69713" lon="23.21307">
        <ele>649.899498</ele>
        <time>2022-02-23T03:16:32.209Z</time>
      </trkpt>
      <trkpt lat="42.69725" lon="23.21293">
        <ele>649.744461</ele>
        <time>2022-02-23T03:16:36.655Z</time>
      </trkpt>
      <trkpt lat="42.69806" lon="23.21204">
        <ele>648.748521</ele>
        <time>2022-02-23T03:17:00.180Z</time>
      </trkpt>
      <trkpt lat="42.69839" lon="23.21162">
        <ele>647.977864</ele>
        <time>2022-02-23T03:17:09.443Z</time>
      </trkpt>
      <trkpt lat="42.69864" lon="23.21128">
        <ele>646.760886</ele>
        <time>2022-02-23T03:17:16.595Z</time>
      </trkpt>
      <trkpt lat="42.6992" lon="23.21044">
        <ele>643.937818</ele>
        <time>2022-02-23T03:17:32.435Z</time>
      </trkpt>
      <trkpt lat="42.69978" lon="23.20951">
        <ele>641.455454</ele>
        <time>2022-02-23T03:17:49.177Z</time>
      </trkpt>
      <trkpt lat="42.69985" lon="23.20938">
        <ele>641.198708</ele>
        <time>2022-02-23T03:17:51.496Z</time>
      </trkpt>
      <trkpt lat="42.70025" lon="23.20874">
        <ele>639.914248</ele>
        <time>2022-02-23T03:18:03.913Z</time>
      </trkpt>
      <trkpt lat="42.70054" lon="23.20816">
        <ele>638.821665</ele>
        <time>2022-02-23T03:18:16.351Z</time>
      </trkpt>
      <trkpt lat="42.70065" lon="23.20784">
        <ele>638.863379</ele>
        <time>2022-02-23T03:18:23.244Z</time>
      </trkpt>
      <trkpt lat="42.70083" lon="23.20719">
        <ele>639.993411</ele>
        <time>2022-02-23T03:18:39.774Z</time>
      </trkpt>
      <trkpt lat="42.7009" lon="23.20693">
        <ele>640.438785</ele>
        <time>2022-02-23T03:18:47.053Z</time>
      </trkpt>
      <trkpt lat="42.70097" lon="23.20659">
        <ele>641.013935</ele>
        <time>2022-02-23T03:18:57.550Z</time>
      </trkpt>
      <trkpt lat="42.7011" lon="23.20556">
        <ele>642.904425</ele>
        <time>2022-02-23T03:19:30.652Z</time>
      </trkpt>
      <trkpt lat="42.70124" lon="23.20319">
        <ele>651.249742</ele>
        <time>2022-02-23T03:20:58.460Z</time>
      </trkpt>
      <trkpt lat="42.70127" lon="23.20298">
        <ele>652.082028</ele>
        <time>2022-02-23T03:21:07.105Z</time>
      </trkpt>
      <trkpt lat="42.7013" lon="23.20281">
        <ele>652.777236</ele>
        <time>2022-02-23T03:21:14.506Z</time>
      </trkpt>
      <trkpt lat="42.70141" lon="23.20223">
        <ele>655.04531</ele>
        <time>2022-02-23T03:21:37.125Z</time>
      </trkpt>
      <trkpt lat="42.70139" lon="23.20185">
        <ele>656.539522</ele>
        <time>2022-02-23T03:21:52.938Z</time>
      </trkpt>
      <trkpt lat="42.70132" lon="23.20141">
        <ele>658.238541</ele>
        <time>2022-02-23T03:22:10.298Z</time>
      </trkpt>
      <trkpt lat="42.70114" lon="23.20095">
        <ele>660.244777</ele>
        <time>2022-02-23T03:22:30.990Z</time>
      </trkpt>
      <trkpt lat="42.70047" lon="23.19934">
        <ele>664.832551</ele>
        <time>2022-02-23T03:23:29.408Z</time>
      </trkpt>
      <trkpt lat="42.69892" lon="23.19566">
        <ele>672.092545</ele>
        <time>2022-02-23T03:25:26.081Z</time>
      </trkpt>
      <trkpt lat="42.69842" lon="23.19446">
        <ele>673.976783</ele>
        <time>2022-02-23T03:26:00.982Z</time>
      </trkpt>
      <trkpt lat="42.69717" lon="23.19142">
        <ele>678.622645</ele>
        <time>2022-02-23T03:27:27.410Z</time>
      </trkpt>
      <trkpt lat="42.69366" lon="23.18272">
        <ele>697.079244</ele>
        <time>2022-02-23T03:32:14.238Z</time>
      </trkpt>
      <trkpt lat="42.69342" lon="23.18212">
        <ele>698.447089</ele>
        <time>2022-02-23T03:32:34.052Z</time>
      </trkpt>
      <trkpt lat="42.69323" lon="23.18194">
        <ele>699.075998</ele>
        <time>2022-02-23T03:32:44.216Z</time>
      </trkpt>
      <trkpt lat="42.69307" lon="23.18188">
        <ele>699.542492</ele>
        <time>2022-02-23T03:32:50.911Z</time>
      </trkpt>
      <trkpt lat="42.69291" lon="23.18189">
        <ele>700.068553</ele>
        <time>2022-02-23T03:32:57.948Z</time>
      </trkpt>
      <trkpt lat="42.69202" lon="23.18193">
        <ele>703.088322</ele>
        <time>2022-02-23T03:33:36.115Z</time>
      </trkpt>
      <trkpt lat="42.69181" lon="23.18193">
        <ele>703.797149</ele>
        <time>2022-02-23T03:33:45.970Z</time>
      </trkpt>
      <trkpt lat="42.69167" lon="23.1819">
        <ele>704.275714</ele>
        <time>2022-02-23T03:33:51.915Z</time>
      </trkpt>
      <trkpt lat="42.69149" lon="23.1817">
        <ele>705.065044</ele>
        <time>2022-02-23T03:34:03.170Z</time>
      </trkpt>
      <trkpt lat="42.69144" lon="23.18138">
        <ele>705.916114</ele>
        <time>2022-02-23T03:34:14.222Z</time>
      </trkpt>
      <trkpt lat="42.69205" lon="23.1782">
        <ele>714.823638</ele>
        <time>2022-02-23T03:36:06.034Z</time>
      </trkpt>
      <trkpt lat="42.69205" lon="23.1779">
        <ele>715.57179</ele>
        <time>2022-02-23T03:36:15.813Z</time>
      </trkpt>
      <trkpt lat="42.69198" lon="23.17762">
        <ele>716.281004</ele>
        <time>2022-02-23T03:36:24.901Z</time>
      </trkpt>
      <trkpt lat="42.69185" lon="23.17736">
        <ele>717.054902</ele>
        <time>2022-02-23T03:36:34.921Z</time>
      </trkpt>
      <trkpt lat="42.68999" lon="23.17518">
        <ele>723.928905</ele>
        <time>2022-02-23T03:38:14.066Z</time>
      </trkpt>
      <trkpt lat="42.68807" lon="23.17344">
        <ele>730.368571</ele>
        <time>2022-02-23T03:39:51.922Z</time>
      </trkpt>
      <trkpt lat="42.68786" lon="23.17313">
        <ele>731.114808</ele>
        <time>2022-02-23T03:40:04.261Z</time>
      </trkpt>
      <trkpt lat="42.68769" lon="23.1727">
        <ele>731.998948</ele>
        <time>2022-02-23T03:40:18.375Z</time>
      </trkpt>
      <trkpt lat="42.68762" lon="23.17233">
        <ele>732.68932</ele>
        <time>2022-02-23T03:40:28.915Z</time>
      </trkpt>
      <trkpt lat="42.68762" lon="23.17085">
        <ele>733.969116</ele>
        <time>2022-02-23T03:41:05.200Z</time>
      </trkpt>
      <trkpt lat="42.68756" lon="23.16992">
        <ele>734.68064</ele>
        <time>2022-02-23T03:41:26.281Z</time>
      </trkpt>
      <trkpt lat="42.6875" lon="23.16932">
        <ele>735.269754</ele>
        <time>2022-02-23T03:41:40.244Z</time>
      </trkpt>
      <trkpt lat="42.68742" lon="23.16897">
        <ele>735.658858</ele>
        <time>2022-02-23T03:41:48.802Z</time>
      </trkpt>
      <trkpt lat="42.68732" lon="23.1686">
        <ele>736.074936</ele>
        <time>2022-02-23T03:41:58.051Z</time>
      </trkpt>
      <trkpt lat="42.68654" lon="23.1664">
        <ele>739.801839</ele>
        <time>2022-02-23T03:43:05.519Z</time>
      </trkpt>
      <trkpt lat="42.68637" lon="23.16602">
        <ele>740.7271</ele>
        <time>2022-02-23T03:43:19.885Z</time>
      </trkpt>
      <trkpt lat="42.68613" lon="23.1656">
        <ele>741.803482</ele>
        <time>2022-02-23T03:43:36.769Z</time>
      </trkpt>
      <trkpt lat="42.68589" lon="23.16535">
        <ele>742.749286</ele>
        <time>2022-02-23T03:43:50.396Z</time>
      </trkpt>
      <trkpt lat="42.685" lon="23.16466">
        <ele>746.893439</ele>
        <time>2022-02-23T03:44:38.642Z</time>
      </trkpt>
      <trkpt lat="42.68423" lon="23.16386">
        <ele>750.833611</ele>
        <time>2022-02-23T03:45:25.749Z</time>
      </trkpt>
      <trkpt lat="42.68294" lon="23.16249">
        <ele>757.315855</ele>
        <time>2022-02-23T03:46:45.093Z</time>
      </trkpt>
      <trkpt lat="42.68279" lon="23.16232">
        <ele>757.725725</ele>
        <time>2022-02-23T03:46:52.433Z</time>
      </trkpt>
      <trkpt lat="42.6827" lon="23.16219">
        <ele>757.996264</ele>
        <time>2022-02-23T03:46:58.369Z</time>
      </trkpt>
      <trkpt lat="42.68264" lon="23.16201">
        <ele>758.315246</ele>
        <time>2022-02-23T03:47:03.566Z</time>
      </trkpt>
      <trkpt lat="42.68246" lon="23.16122">
        <ele>759.617962</ele>
        <time>2022-02-23T03:47:24.174Z</time>
      </trkpt>
      <trkpt lat="42.68213" lon="23.16025">
        <ele>761.39044</ele>
        <time>2022-02-23T03:47:53.372Z</time>
      </trkpt>
      <trkpt lat="42.68204" lon="23.15999">
        <ele>761.927616</ele>
        <time>2022-02-23T03:47:59.983Z</time>
      </trkpt>
      <trkpt lat="42.68197" lon="23.15978">
        <ele>762.351733</ele>
        <time>2022-02-23T03:48:06.450Z</time>
      </trkpt>
      <trkpt lat="42.68189" lon="23.1596">
        <ele>762.744548</ele>
        <time>2022-02-23T03:48:11.581Z</time>
      </trkpt>
      <trkpt lat="42.68179" lon="23.15937">
        <ele>763.260221</ele>
        <time>2022-02-23T03:48:19.841Z</time>
      </trkpt>
      <trkpt lat="42.68168" lon="23.15917">
        <ele>763.731962</ele>
        <time>2022-02-23T03:48:26.349Z</time>
      </trkpt>
      <trkpt lat="42.68157" lon="23.15906">
        <ele>764.093409</ele>
        <time>2022-02-23T03:48:33.113Z</time>
      </trkpt>
      <trkpt lat="42.68043" lon="23.15825">
        <ele>768.032298</ele>
        <time>2022-02-23T03:49:30.737Z</time>
      </trkpt>
      <trkpt lat="42.6803" lon="23.15806">
        <ele>768.696921</ele>
        <time>2022-02-23T03:49:41.041Z</time>
      </trkpt>
      <trkpt lat="42.68024" lon="23.1578">
        <ele>769.381297</ele>
        <time>2022-02-23T03:49:49.018Z</time>
      </trkpt>
      <trkpt lat="42.6802" lon="23.15754">
        <ele>770.07469</ele>
        <time>2022-02-23T03:49:58.051Z</time>
      </trkpt>
      <trkpt lat="42.68018" lon="23.15715">
        <ele>771.07139</ele>
        <time>2022-02-23T03:50:09.775Z</time>
      </trkpt>
      <trkpt lat="42.68015" lon="23.15679">
        <ele>771.977798</ele>
        <time>2022-02-23T03:50:20.787Z</time>
      </trkpt>
      <trkpt lat="42.68009" lon="23.15653">
        <ele>772.629965</ele>
        <time>2022-02-23T03:50:29.549Z</time>
      </trkpt>
      <trkpt lat="42.67998" lon="23.15622">
        <ele>773.484922</ele>
        <time>2022-02-23T03:50:40.148Z</time>
      </trkpt>
      <trkpt lat="42.67888" lon="23.15441">
        <ele>779.688237</ele>
        <time>2022-02-23T03:51:56.314Z</time>
      </trkpt>
      <trkpt lat="42.67864" lon="23.15408">
        <ele>781.204837</ele>
        <time>2022-02-23T03:52:12.801Z</time>
      </trkpt>
      <trkpt lat="42.67817" lon="23.15365">
        <ele>783.705887</ele>
        <time>2022-02-23T03:52:39.902Z</time>
      </trkpt>
      <trkpt lat="42.67644" lon="23.15268">
        <ele>795.067146</ele>
        <time>2022-02-23T03:54:24.497Z</time>
      </trkpt>
      <trkpt lat="42.67629" lon="23.15263">
        <ele>796.054913</ele>
        <time>2022-02-23T03:54:34.778Z</time>
      </trkpt>
      <trkpt lat="42.67584" lon="23.15256">
        <ele>799.769644</ele>
        <time>2022-02-23T03:55:05.715Z</time>
      </trkpt>
      <trkpt lat="42.67475" lon="23.15281">
        <ele>810.772569</ele>
        <time>2022-02-23T03:56:31.461Z</time>
      </trkpt>
      <trkpt lat="42.67397" lon="23.15314">
        <ele>818.594806</ele>
        <time>2022-02-23T03:57:36.349Z</time>
      </trkpt>
      <trkpt lat="42.6738" lon="23.15314">
        <ele>820.171672</ele>
        <time>2022-02-23T03:57:49.299Z</time>
      </trkpt>
      <trkpt lat="42.67334" lon="23.153">
        <ele>824.428295</ele>
        <time>2022-02-23T03:58:23.686Z</time>
      </trkpt>
      <trkpt lat="42.67297" lon="23.15269">
        <ele>828.439518</ele>
        <time>2022-02-23T03:58:54.646Z</time>
      </trkpt>
      <trkpt lat="42.67178" lon="23.15129">
        <ele>839.878946</ele>
        <time>2022-02-23T04:00:32.553Z</time>
      </trkpt>
      <trkpt lat="42.67118" lon="23.15087">
        <ele>844.335449</ele>
        <time>2022-02-23T04:01:09.635Z</time>
      </trkpt>
      <trkpt lat="42.67098" lon="23.15057">
        <ele>846.038234</ele>
        <time>2022-02-23T04:01:25.924Z</time>
      </trkpt>
      <trkpt lat="42.67093" lon="23.15031">
        <ele>847.199687</ele>
        <time>2022-02-23T04:01:36.958Z</time>
      </trkpt>
      <trkpt lat="42.6708" lon="23.1502">
        <ele>848.103173</ele>
        <time>2022-02-23T04:01:45.728Z</time>
      </trkpt>
      <trkpt lat="42.67006" lon="23.15009">
        <ele>852.37799</ele>
        <time>2022-02-23T04:02:26.813Z</time>
      </trkpt>
      <trkpt lat="42.66925" lon="23.14965">
        <ele>857.78016</ele>
        <time>2022-02-23T04:03:15.406Z</time>
      </trkpt>
      <trkpt lat="42.66814" lon="23.14939">
        <ele>864.926851</ele>
        <time>2022-02-23T04:04:21.646Z</time>
      </trkpt>
      <trkpt lat="42.66793" lon="23.14922">
        <ele>866.594044</ele>
        <time>2022-02-23T04:04:36.093Z</time>
      </trkpt>
      <trkpt lat="42.66771" lon="23.14888">
        <ele>869.280832</ele>
        <time>2022-02-23T04:04:57.667Z</time>
      </trkpt>
      <trkpt lat="42.66707" lon="23.14822">
        <ele>875.524113</ele>
        <time>2022-02-23T04:05:50.102Z</time>
      </trkpt>
      <trkpt lat="42.66687" lon="23.1481">
        <ele>877.237501</ele>
        <time>2022-02-23T04:06:04.894Z</time>
      </trkpt>
      <trkpt lat="42.66623" lon="23.14791">
        <ele>882.298089</ele>
        <time>2022-02-23T04:06:50.501Z</time>
      </trkpt>
      <trkpt lat="42.66572" lon="23.1476">
        <ele>886.55721</ele>
        <time>2022-02-23T04:07:29.387Z</time>
      </trkpt>
      <trkpt lat="42.66466" lon="23.14656">
        <ele>894.969894</ele>
        <time>2022-02-23T04:08:48.492Z</time>
      </trkpt>
      <trkpt lat="42.66404" lon="23.14576">
        <ele>898.169721</ele>
        <time>2022-02-23T04:09:27.861Z</time>
      </trkpt>
      <trkpt lat="42.66387" lon="23.14547">
        <ele>899.176959</ele>
        <time>2022-02-23T04:09:38.394Z</time>
      </trkpt>
      <trkpt lat="42.66327" lon="23.14387">
        <ele>900.905985</ele>
        <time>2022-02-23T04:10:19.150Z</time>
      </trkpt>
      <trkpt lat="42.66306" lon="23.14249">
        <ele>901.866647</ele>
        <time>2022-02-23T04:10:49.428Z</time>
      </trkpt>
      <trkpt lat="42.66295" lon="23.14212">
        <ele>902.343527</ele>
        <time>2022-02-23T04:10:58.984Z</time>
      </trkpt>
      <trkpt lat="42.66281" lon="23.1418">
        <ele>902.796698</ele>
        <time>2022-02-23T04:11:08.594Z</time>
      </trkpt>
      <trkpt lat="42.66244" lon="23.14125">
        <ele>903.682852</ele>
        <time>2022-02-23T04:11:28.781Z</time>
      </trkpt>
      <trkpt lat="42.66223" lon="23.1407">
        <ele>904.505783</ele>
        <time>2022-02-23T04:11:47.377Z</time>
      </trkpt>
      <trkpt lat="42.66177" lon="23.13726">
        <ele>910.791797</ele>
        <time>2022-02-23T04:13:36.090Z</time>
      </trkpt>
      <trkpt lat="42.66168" lon="23.13685">
        <ele>911.240281</ele>
        <time>2022-02-23T04:13:46.177Z</time>
      </trkpt>
      <trkpt lat="42.66155" lon="23.13652">
        <ele>911.63167</ele>
        <time>2022-02-23T04:13:53.879Z</time>
      </trkpt>
      <trkpt lat="42.66138" lon="23.13627">
        <ele>911.982704</ele>
        <time>2022-02-23T04:14:00.576Z</time>
      </trkpt>
      <trkpt lat="42.661" lon="23.13603">
        <ele>912.071162</ele>
        <time>2022-02-23T04:14:11.576Z</time>
      </trkpt>
      <trkpt lat="42.66077" lon="23.13595">
        <ele>911.994933</ele>
        <time>2022-02-23T04:14:17.239Z</time>
      </trkpt>
      <trkpt lat="42.66025" lon="23.136">
        <ele>911.825423</ele>
        <time>2022-02-23T04:14:31.257Z</time>
      </trkpt>
      <trkpt lat="42.66021" lon="23.13601">
        <ele>911.813083</ele>
        <time>2022-02-23T04:14:31.974Z</time>
      </trkpt>
      <trkpt lat="42.65994" lon="23.13609">
        <ele>911.722572</ele>
        <time>2022-02-23T04:14:40.305Z</time>
      </trkpt>
      <trkpt lat="42.65968" lon="23.1361">
        <ele>911.63715</ele>
        <time>2022-02-23T04:14:47.080Z</time>
      </trkpt>
      <trkpt lat="42.65939" lon="23.13602">
        <ele>911.48046</ele>
        <time>2022-02-23T04:14:54.884Z</time>
      </trkpt>
      <trkpt lat="42.65908" lon="23.13588">
        <ele>911.220875</ele>
        <time>2022-02-23T04:15:03.686Z</time>
      </trkpt>
      <trkpt lat="42.65889" lon="23.13571">
        <ele>911.037344</ele>
        <time>2022-02-23T04:15:10.818Z</time>
      </trkpt>
      <trkpt lat="42.6587" lon="23.13551">
        <ele>910.846213</ele>
        <time>2022-02-23T04:15:16.944Z</time>
      </trkpt>
      <trkpt lat="42.65795" lon="23.13418">
        <ele>908.642561</ele>
        <time>2022-02-23T04:15:46.139Z</time>
      </trkpt>
      <trkpt lat="42.65776" lon="23.13392">
        <ele>907.527972</ele>
        <time>2022-02-23T04:15:51.466Z</time>
      </trkpt>
      <trkpt lat="42.65694" lon="23.13339">
        <ele>903.740577</ele>
        <time>2022-02-23T04:16:08.815Z</time>
      </trkpt>
      <trkpt lat="42.65598" lon="23.13294">
        <ele>897.030882</ele>
        <time>2022-02-23T04:16:27.304Z</time>
      </trkpt>
      <trkpt lat="42.65547" lon="23.13222">
        <ele>891.511293</ele>
        <time>2022-02-23T04:16:40.373Z</time>
      </trkpt>
      <trkpt lat="42.65477" lon="23.13108">
        <ele>881.931423</ele>
        <time>2022-02-23T04:16:59.248Z</time>
      </trkpt>
      <trkpt lat="42.65446" lon="23.13083">
        <ele>878.566489</ele>
        <time>2022-02-23T04:17:05.446Z</time>
      </trkpt>
      <trkpt lat="42.65415" lon="23.1307">
        <ele>875.567429</ele>
        <time>2022-02-23T04:17:10.944Z</time>
      </trkpt>
      <trkpt lat="42.65359" lon="23.1307">
        <ele>870.418335</ele>
        <time>2022-02-23T04:17:20.636Z</time>
      </trkpt>
      <trkpt lat="42.65251" lon="23.13105">
        <ele>860.679078</ele>
        <time>2022-02-23T04:17:39.856Z</time>
      </trkpt>
      <trkpt lat="42.65142" lon="23.13166">
        <ele>851.58547</ele>
        <time>2022-02-23T04:18:00.816Z</time>
      </trkpt>
      <trkpt lat="42.6511" lon="23.13177">
        <ele>849.299296</ele>
        <time>2022-02-23T04:18:06.727Z</time>
      </trkpt>
      <trkpt lat="42.65064" lon="23.13178">
        <ele>846.092347</ele>
        <time>2022-02-23T04:18:15.102Z</time>
      </trkpt>
      <trkpt lat="42.64962" lon="23.1313">
        <ele>839.079154</ele>
        <time>2022-02-23T04:18:34.956Z</time>
      </trkpt>
      <trkpt lat="42.64941" lon="23.13127">
        <ele>837.784485</ele>
        <time>2022-02-23T04:18:38.745Z</time>
      </trkpt>
      <trkpt lat="42.64876" lon="23.13155">
        <ele>833.501101</ele>
        <time>2022-02-23T04:18:51.339Z</time>
      </trkpt>
      <trkpt lat="42.64857" lon="23.13158">
        <ele>832.344794</ele>
        <time>2022-02-23T04:18:54.828Z</time>
      </trkpt>
      <trkpt lat="42.64838" lon="23.13152">
        <ele>831.211487</ele>
        <time>2022-02-23T04:18:58.404Z</time>
      </trkpt>
      <trkpt lat="42.6482" lon="23.13135">
        <ele>829.971118</ele>
        <time>2022-02-23T04:19:02.326Z</time>
      </trkpt>
      <trkpt lat="42.64796" lon="23.13059">
        <ele>826.432562</ele>
        <time>2022-02-23T04:19:13.561Z</time>
      </trkpt>
      <trkpt lat="42.64754" lon="23.12992">
        <ele>822.679069</ele>
        <time>2022-02-23T04:19:25.597Z</time>
      </trkpt>
      <trkpt lat="42.64725" lon="23.12903">
        <ele>819.572547</ele>
        <time>2022-02-23T04:19:39.325Z</time>
      </trkpt>
      <trkpt lat="42.6471" lon="23.12875">
        <ele>818.521127</ele>
        <time>2022-02-23T04:19:44.219Z</time>
      </trkpt>
      <trkpt lat="42.64688" lon="23.12849">
        <ele>817.326619</ele>
        <time>2022-02-23T04:19:49.808Z</time>
      </trkpt>
      <trkpt lat="42.64429" lon="23.12675">
        <ele>808.507088</ele>
        <time>2022-02-23T04:20:49.728Z</time>
      </trkpt>
      <trkpt lat="42.64395" lon="23.12664">
        <ele>807.838026</ele>
        <time>2022-02-23T04:20:57.830Z</time>
      </trkpt>
      <trkpt lat="42.64253" lon="23.12635">
        <ele>805.052359</ele>
        <time>2022-02-23T04:21:31.339Z</time>
      </trkpt>
      <trkpt lat="42.64225" lon="23.12623">
        <ele>804.454885</ele>
        <time>2022-02-23T04:21:38.127Z</time>
      </trkpt>
      <trkpt lat="42.64202" lon="23.12601">
        <ele>803.881193</ele>
        <time>2022-02-23T04:21:44.463Z</time>
      </trkpt>
      <trkpt lat="42.64184" lon="23.12572">
        <ele>803.295127</ele>
        <time>2022-02-23T04:21:50.749Z</time>
      </trkpt>
      <trkpt lat="42.64171" lon="23.12532">
        <ele>802.634502</ele>
        <time>2022-02-23T04:21:57.567Z</time>
      </trkpt>
      <trkpt lat="42.64153" lon="23.12497">
        <ele>801.738277</ele>
        <time>2022-02-23T04:22:03.864Z</time>
      </trkpt>
      <trkpt lat="42.64102" lon="23.1242">
        <ele>798.94677</ele>
        <time>2022-02-23T04:22:18.951Z</time>
      </trkpt>
      <trkpt lat="42.64043" lon="23.12368">
        <ele>796.391642</ele>
        <time>2022-02-23T04:22:32.867Z</time>
      </trkpt>
      <trkpt lat="42.64047" lon="23.12356">
        <ele>796.036123</ele>
        <time>2022-02-23T04:22:34.709Z</time>
      </trkpt>
      <trkpt lat="42.64047" lon="23.12344">
        <ele>795.725564</ele>
        <time>2022-02-23T04:22:36.617Z</time>
      </trkpt>
      <trkpt lat="42.64041" lon="23.12331">
        <ele>795.461017</ele>
        <time>2022-02-23T04:22:38.886Z</time>
      </trkpt>
      <trkpt lat="42.64007" lon="23.12307">
        <ele>794.544091</ele>
        <time>2022-02-23T04:22:46.631Z</time>
      </trkpt>
      <trkpt lat="42.63957" lon="23.12305">
        <ele>793.32328</ele>
        <time>2022-02-23T04:22:57.078Z</time>
      </trkpt>
      <trkpt lat="42.63834" lon="23.12274">
        <ele>790.844043</ele>
        <time>2022-02-23T04:23:26.362Z</time>
      </trkpt>
      <trkpt lat="42.63779" lon="23.12255">
        <ele>790.135036</ele>
        <time>2022-02-23T04:23:40.320Z</time>
      </trkpt>
      <trkpt lat="42.6367" lon="23.12198">
        <ele>788.116862</ele>
        <time>2022-02-23T04:24:07.655Z</time>
      </trkpt>
      <trkpt lat="42.63619" lon="23.12162">
        <ele>786.628699</ele>
        <time>2022-02-23T04:24:19.879Z</time>
      </trkpt>
      <trkpt lat="42.63584" lon="23.12124">
        <ele>785.445813</ele>
        <time>2022-02-23T04:24:29.252Z</time>
      </trkpt>
      <trkpt lat="42.63497" lon="23.11993">
        <ele>781.295052</ele>
        <time>2022-02-23T04:24:55.091Z</time>
      </trkpt>
      <trkpt lat="42.63397" lon="23.11936">
        <ele>778.158048</ele>
        <time>2022-02-23T04:25:17.090Z</time>
      </trkpt>
      <trkpt lat="42.63387" lon="23.11944">
        <ele>778.088134</ele>
        <time>2022-02-23T04:25:19.567Z</time>
      </trkpt>
      <trkpt lat="42.63373" lon="23.11952">
        <ele>777.995311</ele>
        <time>2022-02-23T04:25:23.018Z</time>
      </trkpt>
      <trkpt lat="42.63351" lon="23.11955">
        <ele>777.865287</ele>
        <time>2022-02-23T04:25:27.938Z</time>
      </trkpt>
      <trkpt lat="42.63302" lon="23.11959">
        <ele>777.571932</ele>
        <time>2022-02-23T04:25:40.371Z</time>
      </trkpt>
      <trkpt lat="42.63298" lon="23.11934">
        <ele>777.462501</ele>
        <time>2022-02-23T04:25:45.765Z</time>
      </trkpt>
      <trkpt lat="42.63284" lon="23.11906">
        <ele>777.311988</ele>
        <time>2022-02-23T04:25:54.185Z</time>
      </trkpt>
      <trkpt lat="42.63242" lon="23.11856">
        <ele>778.669755</ele>
        <time>2022-02-23T04:26:16.071Z</time>
      </trkpt>
      <trkpt lat="42.63227" lon="23.11793">
        <ele>780.543337</ele>
        <time>2022-02-23T04:26:38.645Z</time>
      </trkpt>
      <trkpt lat="42.63227" lon="23.11767">
        <ele>781.297227</ele>
        <time>2022-02-23T04:26:48.617Z</time>
      </trkpt>
      <trkpt lat="42.633" lon="23.11537">
        <ele>787.590294</ele>
        <time>2022-02-23T04:28:21.988Z</time>
      </trkpt>
      <trkpt lat="42.63424" lon="23.11107">
        <ele>789.850126</ele>
        <time>2022-02-23T04:30:06.504Z</time>
      </trkpt>
      <trkpt lat="42.63452" lon="23.10991">
        <ele>788.748547</ele>
        <time>2022-02-23T04:30:25.457Z</time>
      </trkpt>
      <trkpt lat="42.63453" lon="23.10963">
        <ele>787.749858</ele>
        <time>2022-02-23T04:30:29.845Z</time>
      </trkpt>
      <trkpt lat="42.63452" lon="23.10943">
        <ele>787.059401</ele>
        <time>2022-02-23T04:30:32.642Z</time>
      </trkpt>
      <trkpt lat="42.63436" lon="23.10886">
        <ele>784.94279</ele>
        <time>2022-02-23T04:30:41.344Z</time>
      </trkpt>
      <trkpt lat="42.63411" lon="23.10848">
        <ele>783.179893</ele>
        <time>2022-02-23T04:30:48.397Z</time>
      </trkpt>
      <trkpt lat="42.63303" lon="23.10734">
        <ele>776.180473</ele>
        <time>2022-02-23T04:31:13.810Z</time>
      </trkpt>
      <trkpt lat="42.62996" lon="23.10287">
        <ele>752.145803</ele>
        <time>2022-02-23T04:32:38.356Z</time>
      </trkpt>
      <trkpt lat="42.62828" lon="23.10033">
        <ele>742.729089</ele>
        <time>2022-02-23T04:33:28.337Z</time>
      </trkpt>
      <trkpt lat="42.62803" lon="23.10004">
        <ele>741.773935</ele>
        <time>2022-02-23T04:33:35.279Z</time>
      </trkpt>
      <trkpt lat="42.62761" lon="23.09975">
        <ele>740.382345</ele>
        <time>2022-02-23T04:33:45.472Z</time>
      </trkpt>
      <trkpt lat="42.62664" lon="23.09932">
        <ele>737.740781</ele>
        <time>2022-02-23T04:34:07.389Z</time>
      </trkpt>
      <trkpt lat="42.62639" lon="23.09918">
        <ele>737.080828</ele>
        <time>2022-02-23T04:34:13.368Z</time>
      </trkpt>
      <trkpt lat="42.626" lon="23.099">
        <ele>736.10867</ele>
        <time>2022-02-23T04:34:22.142Z</time>
      </trkpt>
      <trkpt lat="42.62583" lon="23.09888">
        <ele>735.641174</ele>
        <time>2022-02-23T04:34:26.377Z</time>
      </trkpt>
      <trkpt lat="42.62556" lon="23.09858">
        <ele>734.831451</ele>
        <time>2022-02-23T04:34:33.679Z</time>
      </trkpt>
      <trkpt lat="42.62511" lon="23.09783">
        <ele>733.365519</ele>
        <time>2022-02-23T04:34:49.050Z</time>
      </trkpt>
      <trkpt lat="42.62397" lon="23.09621">
        <ele>730.420556</ele>
        <time>2022-02-23T04:35:26.166Z</time>
      </trkpt>
      <trkpt lat="42.62362" lon="23.09585">
        <ele>729.856686</ele>
        <time>2022-02-23T04:35:36.630Z</time>
      </trkpt>
      <trkpt lat="42.62324" lon="23.09567">
        <ele>729.333788</ele>
        <time>2022-02-23T04:35:46.444Z</time>
      </trkpt>
      <trkpt lat="42.62282" lon="23.0956">
        <ele>728.78992</ele>
        <time>2022-02-23T04:35:56.619Z</time>
      </trkpt>
      <trkpt lat="42.6225" lon="23.09566">
        <ele>728.322498</ele>
        <time>2022-02-23T04:36:04.659Z</time>
      </trkpt>
      <trkpt lat="42.62211" lon="23.09582">
        <ele>727.739666</ele>
        <time>2022-02-23T04:36:14.293Z</time>
      </trkpt>
      <trkpt lat="42.62175" lon="23.09598">
        <ele>727.206293</ele>
        <time>2022-02-23T04:36:22.879Z</time>
      </trkpt>
      <trkpt lat="42.62145" lon="23.09597">
        <ele>726.773667</ele>
        <time>2022-02-23T04:36:29.765Z</time>
      </trkpt>
      <trkpt lat="42.62101" lon="23.09572">
        <ele>726.017979</ele>
        <time>2022-02-23T04:36:40.440Z</time>
      </trkpt>
      <trkpt lat="42.62075" lon="23.09545">
        <ele>725.349045</ele>
        <time>2022-02-23T04:36:47.754Z</time>
      </trkpt>
      <trkpt lat="42.6204" lon="23.09505">
        <ele>724.447618</ele>
        <time>2022-02-23T04:36:57.619Z</time>
      </trkpt>
      <trkpt lat="42.61999" lon="23.09459">
        <ele>723.384556</ele>
        <time>2022-02-23T04:37:09.220Z</time>
      </trkpt>
      <trkpt lat="42.61985" lon="23.09436">
        <ele>722.937286</ele>
        <time>2022-02-23T04:37:14.123Z</time>
      </trkpt>
      <trkpt lat="42.61962" lon="23.09397">
        <ele>722.435544</ele>
        <time>2022-02-23T04:37:22.395Z</time>
      </trkpt>
      <trkpt lat="42.61945" lon="23.09363">
        <ele>722.131435</ele>
        <time>2022-02-23T04:37:29.537Z</time>
      </trkpt>
      <trkpt lat="42.61929" lon="23.09332">
        <ele>721.852218</ele>
        <time>2022-02-23T04:37:36.151Z</time>
      </trkpt>
      <trkpt lat="42.61884" lon="23.09163">
        <ele>720.539539</ele>
        <time>2022-02-23T04:38:10.022Z</time>
      </trkpt>
      <trkpt lat="42.61874" lon="23.09134">
        <ele>720.310038</ele>
        <time>2022-02-23T04:38:16.038Z</time>
      </trkpt>
      <trkpt lat="42.61861" lon="23.09112">
        <ele>720.101339</ele>
        <time>2022-02-23T04:38:21.315Z</time>
      </trkpt>
      <trkpt lat="42.61844" lon="23.09097">
        <ele>719.908804</ele>
        <time>2022-02-23T04:38:26.084Z</time>
      </trkpt>
      <trkpt lat="42.61796" lon="23.09065">
        <ele>719.382255</ele>
        <time>2022-02-23T04:38:38.810Z</time>
      </trkpt>
      <trkpt lat="42.61786" lon="23.09059">
        <ele>719.277551</ele>
        <time>2022-02-23T04:38:41.203Z</time>
      </trkpt>
      <trkpt lat="42.61776" lon="23.09053">
        <ele>719.171325</ele>
        <time>2022-02-23T04:38:43.749Z</time>
      </trkpt>
      <trkpt lat="42.61766" lon="23.09049">
        <ele>719.033341</ele>
        <time>2022-02-23T04:38:46.273Z</time>
      </trkpt>
      <trkpt lat="42.61744" lon="23.09036">
        <ele>718.613544</ele>
        <time>2022-02-23T04:38:51.864Z</time>
      </trkpt>
      <trkpt lat="42.61719" lon="23.09028">
        <ele>718.185963</ele>
        <time>2022-02-23T04:38:57.600Z</time>
      </trkpt>
      <trkpt lat="42.61697" lon="23.09026">
        <ele>717.796736</ele>
        <time>2022-02-23T04:39:02.951Z</time>
      </trkpt>
      <trkpt lat="42.61644" lon="23.09023">
        <ele>716.882502</ele>
        <time>2022-02-23T04:39:14.819Z</time>
      </trkpt>
      <trkpt lat="42.61588" lon="23.09018">
        <ele>715.965721</ele>
        <time>2022-02-23T04:39:26.986Z</time>
      </trkpt>
      <trkpt lat="42.61567" lon="23.09017">
        <ele>715.75589</ele>
        <time>2022-02-23T04:39:31.721Z</time>
      </trkpt>
      <trkpt lat="42.61529" lon="23.09014">
        <ele>715.376041</ele>
        <time>2022-02-23T04:39:40.579Z</time>
      </trkpt>
      <trkpt lat="42.61502" lon="23.09012">
        <ele>715.105587</ele>
        <time>2022-02-23T04:39:46.995Z</time>
      </trkpt>
      <trkpt lat="42.61469" lon="23.09009">
        <ele>714.786403</ele>
        <time>2022-02-23T04:39:55.238Z</time>
      </trkpt>
      <trkpt lat="42.61431" lon="23.09006">
        <ele>714.399574</ele>
        <time>2022-02-23T04:40:05.469Z</time>
      </trkpt>
      <trkpt lat="42.61405" lon="23.09004">
        <ele>714.245078</ele>
        <time>2022-02-23T04:40:12.325Z</time>
      </trkpt>
      <trkpt lat="42.61372" lon="23.09002">
        <ele>714.285957</ele>
        <time>2022-02-23T04:40:21.185Z</time>
      </trkpt>
      <trkpt lat="42.61346" lon="23.08999">
        <ele>714.318912</ele>
        <time>2022-02-23T04:40:28.479Z</time>
      </trkpt>
      <trkpt lat="42.61337" lon="23.08999">
        <ele>714.329938</ele>
        <time>2022-02-23T04:40:30.969Z</time>
      </trkpt>
      <trkpt lat="42.61333" lon="23.08998">
        <ele>714.334523</ele>
        <time>2022-02-23T04:40:32.256Z</time>
      </trkpt>
      <trkpt lat="42.61324" lon="23.08998">
        <ele>714.345678</ele>
        <time>2022-02-23T04:40:34.730Z</time>
      </trkpt>
      <trkpt lat="42.61234" lon="23.08991">
        <ele>714.457545</ele>
        <time>2022-02-23T04:41:01.332Z</time>
      </trkpt>
      <trkpt lat="42.61227" lon="23.0899">
        <ele>714.464267</ele>
        <time>2022-02-23T04:41:03.320Z</time>
      </trkpt>
      <trkpt lat="42.61163" lon="23.08985">
        <ele>714.533914</ele>
        <time>2022-02-23T04:41:22.584Z</time>
      </trkpt>
      <trkpt lat="42.61092" lon="23.0898">
        <ele>714.611585</ele>
        <time>2022-02-23T04:41:42.511Z</time>
      </trkpt>
      <trkpt lat="42.6108" lon="23.08979">
        <ele>714.623839</ele>
        <time>2022-02-23T04:41:45.574Z</time>
      </trkpt>
      <trkpt lat="42.61082" lon="23.08934">
        <ele>714.621506</ele>
        <time>2022-02-23T04:41:54.239Z</time>
      </trkpt>
      <trkpt lat="42.61085" lon="23.08839">
        <ele>714.328485</ele>
        <time>2022-02-23T04:42:12.806Z</time>
      </trkpt>
      <trkpt lat="42.6109" lon="23.08664">
        <ele>713.743349</ele>
        <time>2022-02-23T04:42:46.023Z</time>
      </trkpt>
      <trkpt lat="42.61101" lon="23.08242">
        <ele>711.725478</ele>
        <time>2022-02-23T04:44:04.489Z</time>
      </trkpt>
      <trkpt lat="42.61104" lon="23.08133">
        <ele>711.02463</ele>
        <time>2022-02-23T04:44:24.426Z</time>
      </trkpt>
      <trkpt lat="42.61108" lon="23.0792">
        <ele>709.571032</ele>
        <time>2022-02-23T04:45:02.281Z</time>
      </trkpt>
      <trkpt lat="42.61111" lon="23.07754">
        <ele>708.510402</ele>
        <time>2022-02-23T04:45:32.420Z</time>
      </trkpt>
      <trkpt lat="42.61112" lon="23.07709">
        <ele>708.252047</ele>
        <time>2022-02-23T04:45:40.626Z</time>
      </trkpt>
      <trkpt lat="42.61112" lon="23.07637">
        <ele>707.960795</ele>
        <time>2022-02-23T04:45:53.738Z</time>
      </trkpt>
      <trkpt lat="42.61113" lon="23.07618">
        <ele>707.88493</ele>
        <time>2022-02-23T04:45:57.176Z</time>
      </trkpt>
      <trkpt lat="42.61112" lon="23.0756">
        <ele>707.650012</ele>
        <time>2022-02-23T04:46:08.240Z</time>
      </trkpt>
      <trkpt lat="42.61109" lon="23.07539">
        <ele>707.564054</ele>
        <time>2022-02-23T04:46:12.368Z</time>
      </trkpt>
      <trkpt lat="42.61107" lon="23.07511">
        <ele>707.447835</ele>
        <time>2022-02-23T04:46:18.042Z</time>
      </trkpt>
      <trkpt lat="42.61103" lon="23.07491">
        <ele>707.365092</ele>
        <time>2022-02-23T04:46:22.014Z</time>
      </trkpt>
      <trkpt lat="42.61098" lon="23.07465">
        <ele>707.30043</ele>
        <time>2022-02-23T04:46:27.326Z</time>
      </trkpt>
      <trkpt lat="42.61076" lon="23.07389">
        <ele>707.204861</ele>
        <time>2022-02-23T04:46:43.015Z</time>
      </trkpt>
      <trkpt lat="42.61006" lon="23.07219">
        <ele>706.968181</ele>
        <time>2022-02-23T04:47:22.650Z</time>
      </trkpt>
      <trkpt lat="42.60959" lon="23.07119">
        <ele>706.811118</ele>
        <time>2022-02-23T04:47:46.582Z</time>
      </trkpt>
      <trkpt lat="42.60853" lon="23.06845">
        <ele>705.806402</ele>
        <time>2022-02-23T04:48:45.660Z</time>
      </trkpt>
      <trkpt lat="42.60836" lon="23.06768">
        <ele>705.404833</ele>
        <time>2022-02-23T04:49:00.062Z</time>
      </trkpt>
      <trkpt lat="42.60828" lon="23.06682">
        <ele>704.950412</ele>
        <time>2022-02-23T04:49:15.907Z</time>
      </trkpt>
      <trkpt lat="42.60828" lon="23.0664">
        <ele>704.731284</ele>
        <time>2022-02-23T04:49:23.603Z</time>
      </trkpt>
      <trkpt lat="42.60829" lon="23.06598">
        <ele>704.510511</ele>
        <time>2022-02-23T04:49:31.387Z</time>
      </trkpt>
      <trkpt lat="42.60829" lon="23.06582">
        <ele>704.445858</ele>
        <time>2022-02-23T04:49:34.378Z</time>
      </trkpt>
      <trkpt lat="42.6083" lon="23.06562">
        <ele>704.386448</ele>
        <time>2022-02-23T04:49:38.173Z</time>
      </trkpt>
      <trkpt lat="42.6084" lon="23.0618">
        <ele>703.349474</ele>
        <time>2022-02-23T04:50:52.228Z</time>
      </trkpt>
      <trkpt lat="42.60828" lon="23.06004">
        <ele>702.886007</ele>
        <time>2022-02-23T04:51:26.968Z</time>
      </trkpt>
      <trkpt lat="42.6082" lon="23.05908">
        <ele>702.606674</ele>
        <time>2022-02-23T04:51:45.632Z</time>
      </trkpt>
      <trkpt lat="42.60818" lon="23.05892">
        <ele>702.560733</ele>
        <time>2022-02-23T04:51:48.640Z</time>
      </trkpt>
      <trkpt lat="42.60814" lon="23.05846">
        <ele>702.443465</ele>
        <time>2022-02-23T04:51:57.130Z</time>
      </trkpt>
      <trkpt lat="42.60811" lon="23.05803">
        <ele>702.362189</ele>
        <time>2022-02-23T04:52:05.336Z</time>
      </trkpt>
      <trkpt lat="42.60799" lon="23.05686">
        <ele>702.143357</ele>
        <time>2022-02-23T04:52:28.123Z</time>
      </trkpt>
      <trkpt lat="42.60797" lon="23.05661">
        <ele>702.096088</ele>
        <time>2022-02-23T04:52:33.258Z</time>
      </trkpt>
      <trkpt lat="42.60795" lon="23.05645">
        <ele>702.065755</ele>
        <time>2022-02-23T04:52:36.496Z</time>
      </trkpt>
      <trkpt lat="42.60787" lon="23.05569">
        <ele>702.156597</ele>
        <time>2022-02-23T04:52:52.998Z</time>
      </trkpt>
      <trkpt lat="42.60782" lon="23.05415">
        <ele>702.590446</ele>
        <time>2022-02-23T04:53:27.968Z</time>
      </trkpt>
      <trkpt lat="42.60785" lon="23.05304">
        <ele>702.362606</ele>
        <time>2022-02-23T04:53:50.704Z</time>
      </trkpt>
      <trkpt lat="42.60789" lon="23.05191">
        <ele>701.81091</ele>
        <time>2022-02-23T04:54:11.808Z</time>
      </trkpt>
      <trkpt lat="42.60793" lon="23.05034">
        <ele>701.029444</ele>
        <time>2022-02-23T04:54:38.368Z</time>
      </trkpt>
      <trkpt lat="42.60784" lon="23.05033">
        <ele>700.969417</ele>
        <time>2022-02-23T04:54:40.483Z</time>
      </trkpt>
      <trkpt lat="42.60775" lon="23.05033">
        <ele>700.905337</ele>
        <time>2022-02-23T04:54:42.780Z</time>
      </trkpt>
      <trkpt lat="42.60748" lon="23.05032">
        <ele>700.719895</ele>
        <time>2022-02-23T04:54:50.222Z</time>
      </trkpt>
      <trkpt lat="42.60704" lon="23.05031">
        <ele>700.422656</ele>
        <time>2022-02-23T04:55:02.345Z</time>
      </trkpt>
      <trkpt lat="42.60704" lon="23.0501">
        <ele>700.319324</ele>
        <time>2022-02-23T04:55:06.873Z</time>
      </trkpt>
      <trkpt lat="42.60705" lon="23.0498">
        <ele>700.312349</ele>
        <time>2022-02-23T04:55:13.078Z</time>
      </trkpt>
      <trkpt lat="42.60709" lon="23.04896">
        <ele>700.400295</ele>
        <time>2022-02-23T04:55:30.555Z</time>
      </trkpt>
      <trkpt lat="42.60714" lon="23.04792">
        <ele>700.509198</ele>
        <time>2022-02-23T04:55:52.678Z</time>
      </trkpt>
      <trkpt lat="42.6068" lon="23.04789">
        <ele>700.518198</ele>
        <time>2022-02-23T04:56:02.734Z</time>
      </trkpt>
      <trkpt lat="42.6068" lon="23.0478">
        <ele>700.50161</ele>
        <time>2022-02-23T04:56:04.385Z</time>
      </trkpt>
      <trkpt lat="42.60675" lon="23.04761">
        <ele>700.464779</ele>
        <time>2022-02-23T04:56:08.686Z</time>
      </trkpt>
      <trkpt lat="42.60665" lon="23.04735">
        <ele>700.411356</ele>
        <time>2022-02-23T04:56:14.499Z</time>
      </trkpt>
      <trkpt lat="42.60657" lon="23.04716">
        <ele>700.370661</ele>
        <time>2022-02-23T04:56:18.903Z</time>
      </trkpt>
      <trkpt lat="42.60623" lon="23.04655">
        <ele>700.232654</ele>
        <time>2022-02-23T04:56:33.320Z</time>
      </trkpt>
      <trkpt lat="42.60609" lon="23.04609">
        <ele>700.140972</ele>
        <time>2022-02-23T04:56:42.809Z</time>
      </trkpt>
      <trkpt lat="42.60608" lon="23.04579">
        <ele>700.096524</ele>
        <time>2022-02-23T04:56:48.633Z</time>
      </trkpt>
      <trkpt lat="42.60609" lon="23.04572">
        <ele>700.095262</ele>
        <time>2022-02-23T04:56:50.006Z</time>
      </trkpt>
      <trkpt lat="42.60604" lon="23.04571">
        <ele>700.094128</ele>
        <time>2022-02-23T04:56:51.387Z</time>
      </trkpt>
      <trkpt lat="42.6061" lon="23.04536">
        <ele>700.087711</ele>
        <time>2022-02-23T04:56:58.520Z</time>
      </trkpt>
      <trkpt lat="42.60651" lon="23.04418">
        <ele>700.064574</ele>
        <time>2022-02-23T04:57:25.654Z</time>
      </trkpt>
      <trkpt lat="42.60696" lon="23.04324">
        <ele>700.071551</ele>
        <time>2022-02-23T04:57:48.994Z</time>
      </trkpt>
      <trkpt lat="42.607" lon="23.04294">
        <ele>700.081018</ele>
        <time>2022-02-23T04:57:55.322Z</time>
      </trkpt>
      <trkpt lat="42.60699" lon="23.04271">
        <ele>700.088071</ele>
        <time>2022-02-23T04:58:00.256Z</time>
      </trkpt>
      <trkpt lat="42.60679" lon="23.04101">
        <ele>699.91322</ele>
        <time>2022-02-23T04:58:35.294Z</time>
      </trkpt>
      <trkpt lat="42.60684" lon="23.04052">
        <ele>699.610274</ele>
        <time>2022-02-23T04:58:44.664Z</time>
      </trkpt>
      <trkpt lat="42.607" lon="23.0398">
        <ele>699.149244</ele>
        <time>2022-02-23T04:58:58.239Z</time>
      </trkpt>
      <trkpt lat="42.60791" lon="23.0384">
        <ele>698.128366</ele>
        <time>2022-02-23T04:59:30.405Z</time>
      </trkpt>
      <trkpt lat="42.60806" lon="23.03829">
        <ele>698.010851</ele>
        <time>2022-02-23T04:59:34.453Z</time>
      </trkpt>
      <trkpt lat="42.60806" lon="23.03814">
        <ele>697.936533</ele>
        <time>2022-02-23T04:59:37.410Z</time>
      </trkpt>
      <trkpt lat="42.60802" lon="23.03759">
        <ele>697.660035</ele>
        <time>2022-02-23T04:59:48.561Z</time>
      </trkpt>
      <trkpt lat="42.60788" lon="23.03697">
        <ele>697.474496</ele>
        <time>2022-02-23T05:00:01.995Z</time>
      </trkpt>
      <trkpt lat="42.60774" lon="23.03637">
        <ele>697.644419</ele>
        <time>2022-02-23T05:00:15.893Z</time>
      </trkpt>
      <trkpt lat="42.6076" lon="23.03579">
        <ele>697.809005</ele>
        <time>2022-02-23T05:00:30.259Z</time>
      </trkpt>
      <trkpt lat="42.60758" lon="23.03572">
        <ele>697.828669</ele>
        <time>2022-02-23T05:00:31.924Z</time>
      </trkpt>
      <trkpt lat="42.60729" lon="23.03452">
        <ele>698.029318</ele>
        <time>2022-02-23T05:00:59.010Z</time>
      </trkpt>
      <trkpt lat="42.60718" lon="23.03417">
        <ele>697.957428</ele>
        <time>2022-02-23T05:01:06.601Z</time>
      </trkpt>
      <trkpt lat="42.60702" lon="23.03378">
        <ele>697.873007</ele>
        <time>2022-02-23T05:01:15.028Z</time>
      </trkpt>
      <trkpt lat="42.60667" lon="23.03306">
        <ele>697.710328</ele>
        <time>2022-02-23T05:01:31.125Z</time>
      </trkpt>
      <trkpt lat="42.60637" lon="23.03254">
        <ele>697.580664</ele>
        <time>2022-02-23T05:01:44.353Z</time>
      </trkpt>
      <trkpt lat="42.60625" lon="23.03232">
        <ele>697.524169</ele>
        <time>2022-02-23T05:01:50.062Z</time>
      </trkpt>
      <trkpt lat="42.60612" lon="23.03163">
        <ele>697.375435</ele>
        <time>2022-02-23T05:02:03.887Z</time>
      </trkpt>
      <trkpt lat="42.60611" lon="23.03162">
        <ele>697.370079</ele>
        <time>2022-02-23T05:02:04.432Z</time>
      </trkpt>
      <trkpt lat="42.60607" lon="23.03161">
        <ele>697.359217</ele>
        <time>2022-02-23T05:02:06.144Z</time>
      </trkpt>
      <trkpt lat="42.6058" lon="23.03164">
        <ele>697.282432</ele>
        <time>2022-02-23T05:02:12.727Z</time>
      </trkpt>
      <trkpt lat="42.60564" lon="23.03166">
        <ele>697.236757</ele>
        <time>2022-02-23T05:02:17.484Z</time>
      </trkpt>
      <trkpt lat="42.60552" lon="23.03167">
        <ele>697.201714</ele>
        <time>2022-02-23T05:02:20.433Z</time>
      </trkpt>
      <trkpt lat="42.60544" lon="23.03146">
        <ele>697.152961</ele>
        <time>2022-02-23T05:02:25.011Z</time>
      </trkpt>
      <trkpt lat="42.60544" lon="23.03145">
        <ele>697.149588</ele>
        <time>2022-02-23T05:02:25.272Z</time>
      </trkpt>
      <trkpt lat="42.60534" lon="23.03127">
        <ele>697.089117</ele>
        <time>2022-02-23T05:02:29.096Z</time>
      </trkpt>
      <trkpt lat="42.60519" lon="23.03099">
        <ele>696.924932</ele>
        <time>2022-02-23T05:02:35.688Z</time>
      </trkpt>
      <trkpt lat="42.60508" lon="23.03079">
        <ele>696.811068</ele>
        <time>2022-02-23T05:02:39.721Z</time>
      </trkpt>
      <trkpt lat="42.60504" lon="23.03071">
        <ele>696.762887</ele>
        <time>2022-02-23T05:02:41.855Z</time>
      </trkpt>
      <trkpt lat="42.60501" lon="23.0306">
        <ele>696.710721</ele>
        <time>2022-02-23T05:02:44.298Z</time>
      </trkpt>
      <trkpt lat="42.60496" lon="23.02997">
        <ele>696.411727</ele>
        <time>2022-02-23T05:02:55.546Z</time>
      </trkpt>
      <trkpt lat="42.60493" lon="23.02939">
        <ele>696.138223</ele>
        <time>2022-02-23T05:03:05.289Z</time>
      </trkpt>
      <trkpt lat="42.60461" lon="23.02916">
        <ele>695.973731</ele>
        <time>2022-02-23T05:03:13.831Z</time>
      </trkpt>
      <trkpt lat="42.60399" lon="23.0287">
        <ele>696.032613</ele>
        <time>2022-02-23T05:03:31.932Z</time>
      </trkpt>
      <trkpt lat="42.6028" lon="23.02783">
        <ele>696.04667</ele>
        <time>2022-02-23T05:04:12.049Z</time>
      </trkpt>
      <trkpt lat="42.60173" lon="23.02698">
        <ele>695.798596</ele>
        <time>2022-02-23T05:04:43.204Z</time>
      </trkpt>
      <trkpt lat="42.6012" lon="23.02657">
        <ele>695.498534</ele>
        <time>2022-02-23T05:04:57.531Z</time>
      </trkpt>
      <trkpt lat="42.60071" lon="23.02619">
        <ele>695.127251</ele>
        <time>2022-02-23T05:05:10.962Z</time>
      </trkpt>
      <trkpt lat="42.59979" lon="23.02553">
        <ele>694.490418</ele>
        <time>2022-02-23T05:05:36.219Z</time>
      </trkpt>
      <trkpt lat="42.59905" lon="23.02489">
        <ele>694.109608</ele>
        <time>2022-02-23T05:05:59.281Z</time>
      </trkpt>
      <trkpt lat="42.59834" lon="23.02428">
        <ele>693.634024</ele>
        <time>2022-02-23T05:06:20.150Z</time>
      </trkpt>
      <trkpt lat="42.59733" lon="23.0234">
        <ele>692.051774</ele>
        <time>2022-02-23T05:06:46.771Z</time>
      </trkpt>
      <trkpt lat="42.59714" lon="23.02323">
        <ele>691.74843</ele>
        <time>2022-02-23T05:06:51.877Z</time>
      </trkpt>
      <trkpt lat="42.59705" lon="23.02309">
        <ele>691.56993</ele>
        <time>2022-02-23T05:06:55.039Z</time>
      </trkpt>
      <trkpt lat="42.59702" lon="23.02291">
        <ele>691.443074</ele>
        <time>2022-02-23T05:06:57.926Z</time>
      </trkpt>
      <trkpt lat="42.59704" lon="23.02276">
        <ele>691.538786</ele>
        <time>2022-02-23T05:07:02.332Z</time>
      </trkpt>
      <trkpt lat="42.59711" lon="23.022">
        <ele>692.017183</ele>
        <time>2022-02-23T05:07:24.687Z</time>
      </trkpt>
      <trkpt lat="42.59712" lon="23.02191">
        <ele>692.072571</ele>
        <time>2022-02-23T05:07:27.339Z</time>
      </trkpt>
      <trkpt lat="42.59716" lon="23.0215">
        <ele>692.332531</ele>
        <time>2022-02-23T05:07:40.467Z</time>
      </trkpt>
      <trkpt lat="42.59708" lon="23.02037">
        <ele>693.853926</ele>
        <time>2022-02-23T05:08:28.500Z</time>
      </trkpt>
      <trkpt lat="42.59704" lon="23.01945">
        <ele>699.663105</ele>
        <time>2022-02-23T05:09:20.949Z</time>
      </trkpt>
      <trkpt lat="42.59707" lon="23.01865">
        <ele>704.700313</ele>
        <time>2022-02-23T05:10:17.573Z</time>
      </trkpt>
      <trkpt lat="42.59704" lon="23.01838">
        <ele>706.39472</ele>
        <time>2022-02-23T05:10:37.601Z</time>
      </trkpt>
      <trkpt lat="42.59682" lon="23.01787">
        <ele>709.48293</ele>
        <time>2022-02-23T05:11:23.589Z</time>
      </trkpt>
      <trkpt lat="42.59665" lon="23.0176">
        <ele>710.907414</ele>
        <time>2022-02-23T05:11:47.582Z</time>
      </trkpt>
      <trkpt lat="42.5965" lon="23.01738">
        <ele>712.101592</ele>
        <time>2022-02-23T05:12:08.153Z</time>
      </trkpt>
      <trkpt lat="42.59614" lon="23.01681">
        <ele>715.106052</ele>
        <time>2022-02-23T05:12:47.091Z</time>
      </trkpt>
      <trkpt lat="42.59594" lon="23.01624">
        <ele>717.606148</ele>
        <time>2022-02-23T05:13:11.585Z</time>
      </trkpt>
      <trkpt lat="42.59588" lon="23.01603">
        <ele>717.509572</ele>
        <time>2022-02-23T05:13:15.061Z</time>
      </trkpt>
      <trkpt lat="42.59583" lon="23.0155">
        <ele>714.877418</ele>
        <time>2022-02-23T05:13:22.648Z</time>
      </trkpt>
      <trkpt lat="42.59565" lon="23.01435">
        <ele>709.038913</ele>
        <time>2022-02-23T05:13:37.860Z</time>
      </trkpt>
      <trkpt lat="42.59563" lon="23.01425">
        <ele>708.534576</ele>
        <time>2022-02-23T05:13:39.078Z</time>
      </trkpt>
      <trkpt lat="42.59459" lon="23.01183">
        <ele>692.064641</ele>
        <time>2022-02-23T05:14:14.958Z</time>
      </trkpt>
      <trkpt lat="42.59454" lon="23.01173">
        <ele>691.307403</ele>
        <time>2022-02-23T05:14:21.362Z</time>
      </trkpt>
      <trkpt lat="42.59449" lon="23.01161">
        <ele>690.793894</ele>
        <time>2022-02-23T05:14:28.242Z</time>
      </trkpt>
      <trkpt lat="42.59397" lon="23.01051">
        <ele>686.968644</ele>
        <time>2022-02-23T05:14:46.895Z</time>
      </trkpt>
      <trkpt lat="42.59379" lon="23.00996">
        <ele>685.200394</ele>
        <time>2022-02-23T05:14:56.141Z</time>
      </trkpt>
      <trkpt lat="42.59334" lon="23.0089">
        <ele>684.456076</ele>
        <time>2022-02-23T05:15:16.677Z</time>
      </trkpt>
      <trkpt lat="42.59331" lon="23.00853">
        <ele>684.703275</ele>
        <time>2022-02-23T05:15:23.727Z</time>
      </trkpt>
      <trkpt lat="42.59366" lon="23.00684">
        <ele>687.658945</ele>
        <time>2022-02-23T05:16:15.977Z</time>
      </trkpt>
      <trkpt lat="42.59367" lon="23.00658">
        <ele>688.789367</ele>
        <time>2022-02-23T05:16:27.994Z</time>
      </trkpt>
      <trkpt lat="42.5935" lon="23.00631">
        <ele>690.368311</ele>
        <time>2022-02-23T05:16:43.467Z</time>
      </trkpt>
      <trkpt lat="42.5934" lon="23.00627">
        <ele>691.002355</ele>
        <time>2022-02-23T05:16:50.634Z</time>
      </trkpt>
      <trkpt lat="42.59323" lon="23.00629">
        <ele>692.033031</ele>
        <time>2022-02-23T05:17:00.218Z</time>
      </trkpt>
      <trkpt lat="42.59311" lon="23.00629">
        <ele>692.736764</ele>
        <time>2022-02-23T05:17:07.851Z</time>
      </trkpt>
      <trkpt lat="42.59294" lon="23.00629">
        <ele>693.741278</ele>
        <time>2022-02-23T05:17:17.478Z</time>
      </trkpt>
      <trkpt lat="42.59266" lon="23.0063">
        <ele>695.437664</ele>
        <time>2022-02-23T05:17:36.542Z</time>
      </trkpt>
      <trkpt lat="42.59267" lon="23.00533">
        <ele>698.897895</ele>
        <time>2022-02-23T05:18:19.735Z</time>
      </trkpt>
      <trkpt lat="42.59274" lon="23.00507">
        <ele>699.821276</ele>
        <time>2022-02-23T05:18:32.965Z</time>
      </trkpt>
      <trkpt lat="42.59275" lon="23.00472">
        <ele>700.992062</ele>
        <time>2022-02-23T05:18:48.976Z</time>
      </trkpt>
      <trkpt lat="42.59269" lon="23.00457">
        <ele>701.570506</ele>
        <time>2022-02-23T05:18:57.573Z</time>
      </trkpt>
      <trkpt lat="42.5927" lon="23.00419">
        <ele>702.848377</ele>
        <time>2022-02-23T05:19:09.654Z</time>
      </trkpt>
      <trkpt lat="42.59274" lon="23.00156">
        <ele>704.516111</ele>
        <time>2022-02-23T05:19:59.653Z</time>
      </trkpt>
      <trkpt lat="42.5928" lon="23.00093">
        <ele>704.556322</ele>
        <time>2022-02-23T05:20:11.527Z</time>
      </trkpt>
      <trkpt lat="42.59293" lon="23.00026">
        <ele>704.672043</ele>
        <time>2022-02-23T05:20:24.701Z</time>
      </trkpt>
      <trkpt lat="42.59365" lon="22.99786">
        <ele>705.688196</ele>
        <time>2022-02-23T05:21:20.487Z</time>
      </trkpt>
      <trkpt lat="42.59388" lon="22.99728">
        <ele>706.130878</ele>
        <time>2022-02-23T05:21:36.063Z</time>
      </trkpt>
      <trkpt lat="42.59423" lon="22.99671">
        <ele>706.681481</ele>
        <time>2022-02-23T05:21:54.067Z</time>
      </trkpt>
      <trkpt lat="42.59535" lon="22.99538">
        <ele>708.938203</ele>
        <time>2022-02-23T05:22:44.811Z</time>
      </trkpt>
      <trkpt lat="42.59567" lon="22.9948">
        <ele>709.549178</ele>
        <time>2022-02-23T05:23:03.384Z</time>
      </trkpt>
      <trkpt lat="42.59579" lon="22.99448">
        <ele>709.776618</ele>
        <time>2022-02-23T05:23:12.425Z</time>
      </trkpt>
      <trkpt lat="42.5959" lon="22.99413">
        <ele>710.020694</ele>
        <time>2022-02-23T05:23:21.866Z</time>
      </trkpt>
      <trkpt lat="42.59599" lon="22.9934">
        <ele>710.487004</ele>
        <time>2022-02-23T05:23:38.399Z</time>
      </trkpt>
      <trkpt lat="42.59599" lon="22.993">
        <ele>710.742281</ele>
        <time>2022-02-23T05:23:46.630Z</time>
      </trkpt>
      <trkpt lat="42.5959" lon="22.99228">
        <ele>709.933961</ele>
        <time>2022-02-23T05:24:00.356Z</time>
      </trkpt>
      <trkpt lat="42.5949" lon="22.98685">
        <ele>702.038034</ele>
        <time>2022-02-23T05:25:24.491Z</time>
      </trkpt>
      <trkpt lat="42.59477" lon="22.98618">
        <ele>701.449867</ele>
        <time>2022-02-23T05:25:35.509Z</time>
      </trkpt>
      <trkpt lat="42.59387" lon="22.98117">
        <ele>708.709595</ele>
        <time>2022-02-23T05:27:55.204Z</time>
      </trkpt>
      <trkpt lat="42.5938" lon="22.98079">
        <ele>709.743358</ele>
        <time>2022-02-23T05:28:09.082Z</time>
      </trkpt>
      <trkpt lat="42.59362" lon="22.97989">
        <ele>712.875031</ele>
        <time>2022-02-23T05:28:43.207Z</time>
      </trkpt>
      <trkpt lat="42.5935" lon="22.97944">
        <ele>714.487776</ele>
        <time>2022-02-23T05:29:01.340Z</time>
      </trkpt>
      <trkpt lat="42.59318" lon="22.9786">
        <ele>717.53771</ele>
        <time>2022-02-23T05:29:37.718Z</time>
      </trkpt>
      <trkpt lat="42.59246" lon="22.97696">
        <ele>721.862593</ele>
        <time>2022-02-23T05:30:37.532Z</time>
      </trkpt>
      <trkpt lat="42.59172" lon="22.97531">
        <ele>724.239419</ele>
        <time>2022-02-23T05:31:22.634Z</time>
      </trkpt>
      <trkpt lat="42.59121" lon="22.97417">
        <ele>726.048054</ele>
        <time>2022-02-23T05:31:54.199Z</time>
      </trkpt>
      <trkpt lat="42.59104" lon="22.97377">
        <ele>727.12132</ele>
        <time>2022-02-23T05:32:07.175Z</time>
      </trkpt>
      <trkpt lat="42.59018" lon="22.97183">
        <ele>733.178341</ele>
        <time>2022-02-23T05:33:23.317Z</time>
      </trkpt>
      <trkpt lat="42.58979" lon="22.97059">
        <ele>737.919703</ele>
        <time>2022-02-23T05:34:14.636Z</time>
      </trkpt>
      <trkpt lat="42.58959" lon="22.96981">
        <ele>740.722283</ele>
        <time>2022-02-23T05:34:46.373Z</time>
      </trkpt>
      <trkpt lat="42.58869" lon="22.96667">
        <ele>749.628965</ele>
        <time>2022-02-23T05:36:41.641Z</time>
      </trkpt>
      <trkpt lat="42.58838" lon="22.96551">
        <ele>751.495354</ele>
        <time>2022-02-23T05:37:09.001Z</time>
      </trkpt>
      <trkpt lat="42.58809" lon="22.96469">
        <ele>750.828928</ele>
        <time>2022-02-23T05:37:24.645Z</time>
      </trkpt>
      <trkpt lat="42.58759" lon="22.96369">
        <ele>749.955074</ele>
        <time>2022-02-23T05:37:43.499Z</time>
      </trkpt>
      <trkpt lat="42.58664" lon="22.96244">
        <ele>750.324462</ele>
        <time>2022-02-23T05:38:16.861Z</time>
      </trkpt>
      <trkpt lat="42.58516" lon="22.96064">
        <ele>753.234187</ele>
        <time>2022-02-23T05:39:30.526Z</time>
      </trkpt>
      <trkpt lat="42.58431" lon="22.95968">
        <ele>754.800555</ele>
        <time>2022-02-23T05:40:07.795Z</time>
      </trkpt>
      <trkpt lat="42.58373" lon="22.95933">
        <ele>755.496439</ele>
        <time>2022-02-23T05:40:26.921Z</time>
      </trkpt>
      <trkpt lat="42.58339" lon="22.95923">
        <ele>755.871415</ele>
        <time>2022-02-23T05:40:37.405Z</time>
      </trkpt>
      <trkpt lat="42.58293" lon="22.95922">
        <ele>756.582854</ele>
        <time>2022-02-23T05:40:52.120Z</time>
      </trkpt>
      <trkpt lat="42.58249" lon="22.95933">
        <ele>757.353947</ele>
        <time>2022-02-23T05:41:06.840Z</time>
      </trkpt>
      <trkpt lat="42.58134" lon="22.95993">
        <ele>759.681877</ele>
        <time>2022-02-23T05:41:51.765Z</time>
      </trkpt>
      <trkpt lat="42.58083" lon="22.96012">
        <ele>761.144883</ele>
        <time>2022-02-23T05:42:13.294Z</time>
      </trkpt>
      <trkpt lat="42.5802" lon="22.9601">
        <ele>762.89799</ele>
        <time>2022-02-23T05:42:39.575Z</time>
      </trkpt>
      <trkpt lat="42.57951" lon="22.9598">
        <ele>764.459308</ele>
        <time>2022-02-23T05:43:08.993Z</time>
      </trkpt>
      <trkpt lat="42.57917" lon="22.9595">
        <ele>764.9488</ele>
        <time>2022-02-23T05:43:24.784Z</time>
      </trkpt>
      <trkpt lat="42.57888" lon="22.95917">
        <ele>765.401061</ele>
        <time>2022-02-23T05:43:38.465Z</time>
      </trkpt>
      <trkpt lat="42.57866" lon="22.95882">
        <ele>765.805552</ele>
        <time>2022-02-23T05:43:49.853Z</time>
      </trkpt>
      <trkpt lat="42.5779" lon="22.9572">
        <ele>762.505449</ele>
        <time>2022-02-23T05:44:19.757Z</time>
      </trkpt>
      <trkpt lat="42.57766" lon="22.95684">
        <ele>761.175267</ele>
        <time>2022-02-23T05:44:26.219Z</time>
      </trkpt>
      <trkpt lat="42.57735" lon="22.95653">
        <ele>759.749176</ele>
        <time>2022-02-23T05:44:32.976Z</time>
      </trkpt>
      <trkpt lat="42.577" lon="22.95627">
        <ele>757.188215</ele>
        <time>2022-02-23T05:44:39.767Z</time>
      </trkpt>
      <trkpt lat="42.57629" lon="22.95598">
        <ele>752.247672</ele>
        <time>2022-02-23T05:44:52.352Z</time>
      </trkpt>
      <trkpt lat="42.57571" lon="22.95595">
        <ele>748.374212</ele>
        <time>2022-02-23T05:45:02.402Z</time>
      </trkpt>
      <trkpt lat="42.57536" lon="22.95602">
        <ele>746.782373</ele>
        <time>2022-02-23T05:45:08.577Z</time>
      </trkpt>
      <trkpt lat="42.57303" lon="22.95713">
        <ele>738.760503</ele>
        <time>2022-02-23T05:45:57.389Z</time>
      </trkpt>
      <trkpt lat="42.57173" lon="22.95788">
        <ele>735.783648</ele>
        <time>2022-02-23T05:46:27.168Z</time>
      </trkpt>
      <trkpt lat="42.57045" lon="22.95866">
        <ele>734.055756</ele>
        <time>2022-02-23T05:46:58.548Z</time>
      </trkpt>
      <trkpt lat="42.56853" lon="22.95997">
        <ele>734.701815</ele>
        <time>2022-02-23T05:47:59.633Z</time>
      </trkpt>
      <trkpt lat="42.5664" lon="22.9616">
        <ele>737.09789</ele>
        <time>2022-02-23T05:49:18.315Z</time>
      </trkpt>
      <trkpt lat="42.56591" lon="22.96199">
        <ele>737.696008</ele>
        <time>2022-02-23T05:49:35.761Z</time>
      </trkpt>
      <trkpt lat="42.56578" lon="22.96204">
        <ele>737.82798</ele>
        <time>2022-02-23T05:49:41.428Z</time>
      </trkpt>
      <trkpt lat="42.5657" lon="22.96208">
        <ele>737.889778</ele>
        <time>2022-02-23T05:49:45.272Z</time>
      </trkpt>
      <trkpt lat="42.56554" lon="22.96219">
        <ele>738.005742</ele>
        <time>2022-02-23T05:49:51.606Z</time>
      </trkpt>
      <trkpt lat="42.56547" lon="22.96224">
        <ele>738.05929</ele>
        <time>2022-02-23T05:49:55.186Z</time>
      </trkpt>
      <trkpt lat="42.56536" lon="22.96233">
        <ele>738.14576</ele>
        <time>2022-02-23T05:50:00.463Z</time>
      </trkpt>
      <trkpt lat="42.56522" lon="22.96251">
        <ele>738.268358</ele>
        <time>2022-02-23T05:50:07.028Z</time>
      </trkpt>
      <trkpt lat="42.56515" lon="22.96256">
        <ele>738.323078</ele>
        <time>2022-02-23T05:50:10.255Z</time>
      </trkpt>
      <trkpt lat="42.56455" lon="22.96294">
        <ele>738.764371</ele>
        <time>2022-02-23T05:50:29.362Z</time>
      </trkpt>
      <trkpt lat="42.56408" lon="22.96314">
        <ele>738.968657</ele>
        <time>2022-02-23T05:50:44.893Z</time>
      </trkpt>
      <trkpt lat="42.55827" lon="22.96463">
        <ele>736.451853</ele>
        <time>2022-02-23T05:53:13.804Z</time>
      </trkpt>
      <trkpt lat="42.55589" lon="22.96504">
        <ele>731.386101</ele>
        <time>2022-02-23T05:54:03.276Z</time>
      </trkpt>
      <trkpt lat="42.5541" lon="22.96534">
        <ele>726.018258</ele>
        <time>2022-02-23T05:54:38.780Z</time>
      </trkpt>
      <trkpt lat="42.55354" lon="22.96543">
        <ele>724.209583</ele>
        <time>2022-02-23T05:54:49.853Z</time>
      </trkpt>
      <trkpt lat="42.55304" lon="22.96552">
        <ele>722.258719</ele>
        <time>2022-02-23T05:54:59.647Z</time>
      </trkpt>
      <trkpt lat="42.55284" lon="22.96555">
        <ele>721.499159</ele>
        <time>2022-02-23T05:55:03.340Z</time>
      </trkpt>
      <trkpt lat="42.55185" lon="22.96571">
        <ele>717.639979</ele>
        <time>2022-02-23T05:55:22.037Z</time>
      </trkpt>
      <trkpt lat="42.55182" lon="22.96571">
        <ele>717.51629</ele>
        <time>2022-02-23T05:55:22.589Z</time>
      </trkpt>
      <trkpt lat="42.5517" lon="22.96571">
        <ele>717.014045</ele>
        <time>2022-02-23T05:55:24.804Z</time>
      </trkpt>
      <trkpt lat="42.55135" lon="22.96571">
        <ele>715.512105</ele>
        <time>2022-02-23T05:55:31.366Z</time>
      </trkpt>
      <trkpt lat="42.55115" lon="22.96566">
        <ele>714.629586</ele>
        <time>2022-02-23T05:55:35.380Z</time>
      </trkpt>
      <trkpt lat="42.55101" lon="22.96563">
        <ele>714.002971</ele>
        <time>2022-02-23T05:55:37.984Z</time>
      </trkpt>
      <trkpt lat="42.55061" lon="22.96547">
        <ele>712.164974</ele>
        <time>2022-02-23T05:55:45.969Z</time>
      </trkpt>
      <trkpt lat="42.54899" lon="22.9642">
        <ele>702.733563</ele>
        <time>2022-02-23T05:56:19.769Z</time>
      </trkpt>
      <trkpt lat="42.5489" lon="22.96414">
        <ele>702.199966</ele>
        <time>2022-02-23T05:56:21.489Z</time>
      </trkpt>
      <trkpt lat="42.54877" lon="22.96406">
        <ele>701.464446</ele>
        <time>2022-02-23T05:56:23.954Z</time>
      </trkpt>
      <trkpt lat="42.54848" lon="22.96395">
        <ele>699.800078</ele>
        <time>2022-02-23T05:56:29.364Z</time>
      </trkpt>
      <trkpt lat="42.54831" lon="22.96392">
        <ele>698.823589</ele>
        <time>2022-02-23T05:56:32.203Z</time>
      </trkpt>
      <trkpt lat="42.54771" lon="22.9637">
        <ele>695.10857</ele>
        <time>2022-02-23T05:56:43.163Z</time>
      </trkpt>
      <trkpt lat="42.54768" lon="22.96369">
        <ele>694.936469</ele>
        <time>2022-02-23T05:56:43.630Z</time>
      </trkpt>
      <trkpt lat="42.5471" lon="22.96342">
        <ele>691.273457</ele>
        <time>2022-02-23T05:56:54.427Z</time>
      </trkpt>
      <trkpt lat="42.54648" lon="22.96304">
        <ele>687.77066</ele>
        <time>2022-02-23T05:57:06.699Z</time>
      </trkpt>
      <trkpt lat="42.54638" lon="22.96311">
        <ele>687.275855</ele>
        <time>2022-02-23T05:57:09.632Z</time>
      </trkpt>
      <trkpt lat="42.54633" lon="22.96319">
        <ele>686.952486</ele>
        <time>2022-02-23T05:57:11.470Z</time>
      </trkpt>
      <trkpt lat="42.54631" lon="22.96347">
        <ele>686.069675</ele>
        <time>2022-02-23T05:57:17.051Z</time>
      </trkpt>
      <trkpt lat="42.54627" lon="22.96447">
        <ele>682.909812</ele>
        <time>2022-02-23T05:57:36.234Z</time>
      </trkpt>
      <trkpt lat="42.545" lon="22.96424">
        <ele>678.012701</ele>
        <time>2022-02-23T05:58:01.525Z</time>
      </trkpt>
      <trkpt lat="42.54488" lon="22.96422">
        <ele>677.596124</ele>
        <time>2022-02-23T05:58:03.660Z</time>
      </trkpt>
      <trkpt lat="42.54488" lon="22.96434">
        <ele>677.269942</ele>
        <time>2022-02-23T05:58:05.564Z</time>
      </trkpt>
      <trkpt lat="42.54488" lon="22.96438">
        <ele>677.165162</ele>
        <time>2022-02-23T05:58:06.187Z</time>
      </trkpt>
      <trkpt lat="42.54487" lon="22.96442">
        <ele>677.057296</ele>
        <time>2022-02-23T05:58:06.826Z</time>
      </trkpt>
      <trkpt lat="42.54475" lon="22.96435">
        <ele>676.581436</ele>
        <time>2022-02-23T05:58:09.438Z</time>
      </trkpt>
      <trkpt lat="42.54445" lon="22.96425">
        <ele>675.462285</ele>
        <time>2022-02-23T05:58:15.886Z</time>
      </trkpt>
      <trkpt lat="42.54437" lon="22.96423">
        <ele>675.161584</ele>
        <time>2022-02-23T05:58:17.489Z</time>
      </trkpt>
      <trkpt lat="42.54435" lon="22.96432">
        <ele>674.926397</ele>
        <time>2022-02-23T05:58:18.893Z</time>
      </trkpt>
      <trkpt lat="42.54425" lon="22.96453">
        <ele>675.031956</ele>
        <time>2022-02-23T05:58:23.044Z</time>
      </trkpt>
      <trkpt lat="42.54398" lon="22.96509">
        <ele>675.310916</ele>
        <time>2022-02-23T05:58:33.633Z</time>
      </trkpt>
      <trkpt lat="42.54365" lon="22.96571">
        <ele>675.636765</ele>
        <time>2022-02-23T05:58:51.354Z</time>
      </trkpt>
      <trkpt lat="42.5435" lon="22.96599">
        <ele>675.781742</ele>
        <time>2022-02-23T05:59:00.257Z</time>
      </trkpt>
      <trkpt lat="42.54335" lon="22.96622">
        <ele>675.910044</ele>
        <time>2022-02-23T05:59:10.405Z</time>
      </trkpt>
      <trkpt lat="42.5431" lon="22.96651">
        <ele>677.174933</ele>
        <time>2022-02-23T05:59:26.135Z</time>
      </trkpt>
      <trkpt lat="42.54262" lon="22.96683">
        <ele>679.759196</ele>
        <time>2022-02-23T05:59:53.215Z</time>
      </trkpt>
      <trkpt lat="42.54248" lon="22.9669">
        <ele>680.440302</ele>
        <time>2022-02-23T06:00:01.481Z</time>
      </trkpt>
      <trkpt lat="42.54168" lon="22.96728">
        <ele>684.519527</ele>
        <time>2022-02-23T06:00:45.668Z</time>
      </trkpt>
      <trkpt lat="42.54099" lon="22.9676">
        <ele>686.824947</ele>
        <time>2022-02-23T06:01:20.820Z</time>
      </trkpt>
      <trkpt lat="42.54073" lon="22.96772">
        <ele>687.692255</ele>
        <time>2022-02-23T06:01:32.484Z</time>
      </trkpt>
      <trkpt lat="42.5403" lon="22.96805">
        <ele>689.220601</ele>
        <time>2022-02-23T06:01:51.060Z</time>
      </trkpt>
      <trkpt lat="42.54022" lon="22.96811">
        <ele>689.510046</ele>
        <time>2022-02-23T06:01:54.363Z</time>
      </trkpt>
      <trkpt lat="42.53968" lon="22.96876">
        <ele>690.332901</ele>
        <time>2022-02-23T06:02:17.094Z</time>
      </trkpt>
      <trkpt lat="42.53934" lon="22.96915">
        <ele>690.444472</ele>
        <time>2022-02-23T06:02:29.258Z</time>
      </trkpt>
      <trkpt lat="42.53853" lon="22.97015">
        <ele>690.686816</ele>
        <time>2022-02-23T06:02:56.788Z</time>
      </trkpt>
      <trkpt lat="42.53793" lon="22.97097">
        <ele>690.791836</ele>
        <time>2022-02-23T06:03:18.288Z</time>
      </trkpt>
      <trkpt lat="42.53079" lon="22.98062">
        <ele>697.827281</ele>
        <time>2022-02-23T06:08:26.180Z</time>
      </trkpt>
      <trkpt lat="42.52794" lon="22.98448">
        <ele>695.520037</ele>
        <time>2022-02-23T06:10:01.533Z</time>
      </trkpt>
      <trkpt lat="42.52615" lon="22.98699">
        <ele>695.651343</ele>
        <time>2022-02-23T06:11:09.354Z</time>
      </trkpt>
      <trkpt lat="42.52481" lon="22.98914">
        <ele>698.484444</ele>
        <time>2022-02-23T06:12:25.359Z</time>
      </trkpt>
      <trkpt lat="42.52328" lon="22.99164">
        <ele>695.923276</ele>
        <time>2022-02-23T06:13:19.818Z</time>
      </trkpt>
      <trkpt lat="42.52258" lon="22.9928">
        <ele>693.819341</ele>
        <time>2022-02-23T06:13:42.491Z</time>
      </trkpt>
      <trkpt lat="42.52251" lon="22.9929">
        <ele>693.613107</ele>
        <time>2022-02-23T06:13:44.484Z</time>
      </trkpt>
      <trkpt lat="42.52119" lon="22.99508">
        <ele>689.428803</ele>
        <time>2022-02-23T06:14:28.287Z</time>
      </trkpt>
      <trkpt lat="42.52102" lon="22.99538">
        <ele>688.951988</ele>
        <time>2022-02-23T06:14:34.277Z</time>
      </trkpt>
      <trkpt lat="42.51848" lon="22.99962">
        <ele>682.344702</ele>
        <time>2022-02-23T06:16:01.796Z</time>
      </trkpt>
      <trkpt lat="42.51822" lon="23.00006">
        <ele>681.752099</ele>
        <time>2022-02-23T06:16:11.071Z</time>
      </trkpt>
      <trkpt lat="42.51774" lon="23.00088">
        <ele>680.840694</ele>
        <time>2022-02-23T06:16:28.820Z</time>
      </trkpt>
      <trkpt lat="42.51658" lon="23.00276">
        <ele>678.672692</ele>
        <time>2022-02-23T06:17:11.102Z</time>
      </trkpt>
      <trkpt lat="42.51653" lon="23.00284">
        <ele>678.54895</ele>
        <time>2022-02-23T06:17:12.563Z</time>
      </trkpt>
      <trkpt lat="42.51602" lon="23.00368">
        <ele>677.132771</ele>
        <time>2022-02-23T06:17:29.590Z</time>
      </trkpt>
      <trkpt lat="42.51495" lon="23.00546">
        <ele>674.133556</ele>
        <time>2022-02-23T06:18:04.552Z</time>
      </trkpt>
      <trkpt lat="42.51343" lon="23.00799">
        <ele>671.766334</ele>
        <time>2022-02-23T06:19:02.057Z</time>
      </trkpt>
      <trkpt lat="42.51227" lon="23.00993">
        <ele>671.110373</ele>
        <time>2022-02-23T06:19:47.427Z</time>
      </trkpt>
      <trkpt lat="42.50977" lon="23.01409">
        <ele>673.424355</ele>
        <time>2022-02-23T06:21:47.176Z</time>
      </trkpt>
      <trkpt lat="42.50581" lon="23.02055">
        <ele>673.940448</ele>
        <time>2022-02-23T06:24:36.301Z</time>
      </trkpt>
      <trkpt lat="42.50366" lon="23.02423">
        <ele>670.802428</ele>
        <time>2022-02-23T06:25:54.526Z</time>
      </trkpt>
      <trkpt lat="42.50194" lon="23.02706">
        <ele>670.922588</ele>
        <time>2022-02-23T06:27:08.459Z</time>
      </trkpt>
      <trkpt lat="42.49829" lon="23.03318">
        <ele>676.56941</ele>
        <time>2022-02-23T06:30:15.227Z</time>
      </trkpt>
      <trkpt lat="42.49795" lon="23.03372">
        <ele>676.57745</ele>
        <time>2022-02-23T06:30:28.649Z</time>
      </trkpt>
      <trkpt lat="42.49774" lon="23.03405">
        <ele>676.582423</ele>
        <time>2022-02-23T06:30:36.570Z</time>
      </trkpt>
      <trkpt lat="42.4972" lon="23.03482">
        <ele>675.989364</ele>
        <time>2022-02-23T06:30:54.676Z</time>
      </trkpt>
      <trkpt lat="42.49381" lon="23.03943">
        <ele>669.858268</ele>
        <time>2022-02-23T06:32:41.301Z</time>
      </trkpt>
      <trkpt lat="42.48841" lon="23.04755">
        <ele>671.176718</ele>
        <time>2022-02-23T06:36:25.269Z</time>
      </trkpt>
      <trkpt lat="42.48807" lon="23.04806">
        <ele>671.273436</ele>
        <time>2022-02-23T06:36:39.071Z</time>
      </trkpt>
      <trkpt lat="42.48802" lon="23.04814">
        <ele>671.288497</ele>
        <time>2022-02-23T06:36:41.239Z</time>
      </trkpt>
      <trkpt lat="42.4876" lon="23.04881">
        <ele>671.411128</ele>
        <time>2022-02-23T06:36:58.897Z</time>
      </trkpt>
      <trkpt lat="42.48585" lon="23.05147">
        <ele>671.860882</ele>
        <time>2022-02-23T06:38:11.595Z</time>
      </trkpt>
      <trkpt lat="42.48194" lon="23.05738">
        <ele>672.128349</ele>
        <time>2022-02-23T06:40:50.498Z</time>
      </trkpt>
      <trkpt lat="42.48156" lon="23.05796">
        <ele>671.842245</ele>
        <time>2022-02-23T06:41:04.067Z</time>
      </trkpt>
      <trkpt lat="42.47983" lon="23.06058">
        <ele>668.913313</ele>
        <time>2022-02-23T06:42:03.065Z</time>
      </trkpt>
      <trkpt lat="42.47815" lon="23.06311">
        <ele>665.732274</ele>
        <time>2022-02-23T06:42:59.101Z</time>
      </trkpt>
      <trkpt lat="42.47759" lon="23.06396">
        <ele>665.069464</ele>
        <time>2022-02-23T06:43:19.015Z</time>
      </trkpt>
      <trkpt lat="42.47734" lon="23.06433">
        <ele>664.796895</ele>
        <time>2022-02-23T06:43:27.986Z</time>
      </trkpt>
      <trkpt lat="42.47666" lon="23.06538">
        <ele>663.979975</ele>
        <time>2022-02-23T06:43:52.938Z</time>
      </trkpt>
      <trkpt lat="42.47656" lon="23.06554">
        <ele>663.838719</ele>
        <time>2022-02-23T06:43:56.875Z</time>
      </trkpt>
      <trkpt lat="42.47647" lon="23.06567">
        <ele>663.721095</ele>
        <time>2022-02-23T06:44:00.045Z</time>
      </trkpt>
      <trkpt lat="42.47619" lon="23.06605">
        <ele>663.369597</ele>
        <time>2022-02-23T06:44:09.468Z</time>
      </trkpt>
      <trkpt lat="42.47594" lon="23.06636">
        <ele>663.068721</ele>
        <time>2022-02-23T06:44:17.410Z</time>
      </trkpt>
      <trkpt lat="42.47521" lon="23.0672">
        <ele>661.934665</ele>
        <time>2022-02-23T06:44:38.809Z</time>
      </trkpt>
      <trkpt lat="42.47431" lon="23.06822">
        <ele>660.284175</ele>
        <time>2022-02-23T06:45:04.562Z</time>
      </trkpt>
      <trkpt lat="42.47413" lon="23.06841">
        <ele>660.136568</ele>
        <time>2022-02-23T06:45:09.625Z</time>
      </trkpt>
      <trkpt lat="42.47366" lon="23.06896">
        <ele>659.988732</ele>
        <time>2022-02-23T06:45:23.931Z</time>
      </trkpt>
      <trkpt lat="42.47294" lon="23.06981">
        <ele>659.760678</ele>
        <time>2022-02-23T06:45:49.261Z</time>
      </trkpt>
      <trkpt lat="42.47018" lon="23.07298">
        <ele>666.465563</ele>
        <time>2022-02-23T06:48:01.683Z</time>
      </trkpt>
      <trkpt lat="42.46888" lon="23.07448">
        <ele>668.513784</ele>
        <time>2022-02-23T06:48:56.354Z</time>
      </trkpt>
      <trkpt lat="42.46849" lon="23.07507">
        <ele>669.107686</ele>
        <time>2022-02-23T06:49:14.423Z</time>
      </trkpt>
      <trkpt lat="42.46712" lon="23.07812">
        <ele>671.475789</ele>
        <time>2022-02-23T06:50:36.733Z</time>
      </trkpt>
      <trkpt lat="42.46624" lon="23.08012">
        <ele>672.63327</ele>
        <time>2022-02-23T06:51:27.711Z</time>
      </trkpt>
      <trkpt lat="42.46618" lon="23.08027">
        <ele>672.707436</ele>
        <time>2022-02-23T06:51:31.144Z</time>
      </trkpt>
      <trkpt lat="42.46432" lon="23.08446">
        <ele>675.009551</ele>
        <time>2022-02-23T06:53:17.582Z</time>
      </trkpt>
      <trkpt lat="42.4639" lon="23.0854">
        <ele>675.760606</ele>
        <time>2022-02-23T06:53:43.618Z</time>
      </trkpt>
      <trkpt lat="42.45926" lon="23.09588">
        <ele>686.343374</ele>
        <time>2022-02-23T06:58:36.221Z</time>
      </trkpt>
      <trkpt lat="42.45661" lon="23.10196">
        <ele>690.617976</ele>
        <time>2022-02-23T07:01:15.336Z</time>
      </trkpt>
      <trkpt lat="42.45446" lon="23.10684">
        <ele>692.82402</ele>
        <time>2022-02-23T07:03:17.475Z</time>
      </trkpt>
      <trkpt lat="42.45381" lon="23.1083">
        <ele>693.36736</ele>
        <time>2022-02-23T07:03:53.342Z</time>
      </trkpt>
      <trkpt lat="42.45307" lon="23.10996">
        <ele>693.998504</ele>
        <time>2022-02-23T07:04:35.585Z</time>
      </trkpt>
      <trkpt lat="42.45284" lon="23.11046">
        <ele>693.925526</ele>
        <time>2022-02-23T07:04:47.453Z</time>
      </trkpt>
      <trkpt lat="42.45272" lon="23.11072">
        <ele>693.830748</ele>
        <time>2022-02-23T07:04:53.031Z</time>
      </trkpt>
      <trkpt lat="42.45242" lon="23.11136">
        <ele>693.589215</ele>
        <time>2022-02-23T07:05:06.921Z</time>
      </trkpt>
      <trkpt lat="42.45204" lon="23.11224">
        <ele>693.292575</ele>
        <time>2022-02-23T07:05:24.600Z</time>
      </trkpt>
      <trkpt lat="42.45185" lon="23.1127">
        <ele>693.381196</ele>
        <time>2022-02-23T07:05:33.701Z</time>
      </trkpt>
      <trkpt lat="42.45174" lon="23.11296">
        <ele>693.430918</ele>
        <time>2022-02-23T07:05:39.110Z</time>
      </trkpt>
      <trkpt lat="42.45162" lon="23.11325">
        <ele>693.486967</ele>
        <time>2022-02-23T07:05:45.424Z</time>
      </trkpt>
      <trkpt lat="42.44962" lon="23.11772">
        <ele>694.024589</ele>
        <time>2022-02-23T07:07:38.291Z</time>
      </trkpt>
      <trkpt lat="42.44943" lon="23.11809">
        <ele>694.003707</ele>
        <time>2022-02-23T07:07:46.254Z</time>
      </trkpt>
      <trkpt lat="42.4493" lon="23.11833">
        <ele>693.989449</ele>
        <time>2022-02-23T07:07:51.286Z</time>
      </trkpt>
      <trkpt lat="42.44907" lon="23.11863">
        <ele>693.487426</ele>
        <time>2022-02-23T07:07:58.363Z</time>
      </trkpt>
      <trkpt lat="42.44858" lon="23.11913">
        <ele>692.139488</ele>
        <time>2022-02-23T07:08:11.447Z</time>
      </trkpt>
      <trkpt lat="42.44845" lon="23.11923">
        <ele>691.805342</ele>
        <time>2022-02-23T07:08:14.494Z</time>
      </trkpt>
      <trkpt lat="42.44827" lon="23.11932">
        <ele>691.377711</ele>
        <time>2022-02-23T07:08:18.552Z</time>
      </trkpt>
      <trkpt lat="42.44808" lon="23.11941">
        <ele>690.9377</ele>
        <time>2022-02-23T07:08:22.499Z</time>
      </trkpt>
      <trkpt lat="42.44746" lon="23.11963">
        <ele>689.417666</ele>
        <time>2022-02-23T07:08:35.218Z</time>
      </trkpt>
      <trkpt lat="42.44625" lon="23.1199">
        <ele>686.063745</ele>
        <time>2022-02-23T07:08:59.602Z</time>
      </trkpt>
      <trkpt lat="42.44558" lon="23.12003">
        <ele>684.326773</ele>
        <time>2022-02-23T07:09:13.366Z</time>
      </trkpt>
      <trkpt lat="42.44418" lon="23.12021">
        <ele>680.915964</ele>
        <time>2022-02-23T07:09:42.441Z</time>
      </trkpt>
      <trkpt lat="42.44392" lon="23.12024">
        <ele>680.34668</ele>
        <time>2022-02-23T07:09:47.811Z</time>
      </trkpt>
      <trkpt lat="42.44359" lon="23.12029">
        <ele>679.656703</ele>
        <time>2022-02-23T07:09:54.514Z</time>
      </trkpt>
      <trkpt lat="42.44269" lon="23.12041">
        <ele>677.74708</ele>
        <time>2022-02-23T07:10:13.275Z</time>
      </trkpt>
      <trkpt lat="42.44163" lon="23.12055">
        <ele>676.085317</ele>
        <time>2022-02-23T07:10:36.663Z</time>
      </trkpt>
      <trkpt lat="42.44144" lon="23.12058">
        <ele>675.843042</ele>
        <time>2022-02-23T07:10:41.007Z</time>
      </trkpt>
      <trkpt lat="42.44093" lon="23.12064">
        <ele>675.205667</ele>
        <time>2022-02-23T07:10:52.560Z</time>
      </trkpt>
      <trkpt lat="42.44045" lon="23.1207">
        <ele>674.635272</ele>
        <time>2022-02-23T07:11:03.918Z</time>
      </trkpt>
      <trkpt lat="42.43906" lon="23.12088">
        <ele>673.548167</ele>
        <time>2022-02-23T07:11:37.018Z</time>
      </trkpt>
      <trkpt lat="42.43837" lon="23.12097">
        <ele>673.152791</ele>
        <time>2022-02-23T07:11:53.660Z</time>
      </trkpt>
      <trkpt lat="42.43768" lon="23.121">
        <ele>672.883716</ele>
        <time>2022-02-23T07:12:11.020Z</time>
      </trkpt>
      <trkpt lat="42.43719" lon="23.121">
        <ele>672.692646</ele>
        <time>2022-02-23T07:12:23.874Z</time>
      </trkpt>
      <trkpt lat="42.43689" lon="23.121">
        <ele>672.561879</ele>
        <time>2022-02-23T07:12:31.948Z</time>
      </trkpt>
      <trkpt lat="42.43539" lon="23.12087">
        <ele>671.629466</ele>
        <time>2022-02-23T07:13:08.978Z</time>
      </trkpt>
      <trkpt lat="42.43514" lon="23.12085">
        <ele>671.463807</ele>
        <time>2022-02-23T07:13:14.583Z</time>
      </trkpt>
      <trkpt lat="42.43424" lon="23.12078">
        <ele>670.23383</ele>
        <time>2022-02-23T07:13:34.607Z</time>
      </trkpt>
      <trkpt lat="42.43407" lon="23.12077">
        <ele>670.000657</ele>
        <time>2022-02-23T07:13:38.255Z</time>
      </trkpt>
      <trkpt lat="42.43265" lon="23.12058">
        <ele>669.391308</ele>
        <time>2022-02-23T07:14:10.020Z</time>
      </trkpt>
      <trkpt lat="42.43177" lon="23.12043">
        <ele>669.828161</ele>
        <time>2022-02-23T07:14:39.514Z</time>
      </trkpt>
      <trkpt lat="42.43168" lon="23.12041">
        <ele>669.870354</ele>
        <time>2022-02-23T07:14:42.555Z</time>
      </trkpt>
      <trkpt lat="42.43161" lon="23.12091">
        <ele>670.75176</ele>
        <time>2022-02-23T07:14:57.657Z</time>
      </trkpt>
      <trkpt lat="42.43146" lon="23.12142">
        <ele>672.003308</ele>
        <time>2022-02-23T07:15:14.985Z</time>
      </trkpt>
      <trkpt lat="42.43146" lon="23.12162">
        <ele>672.473086</ele>
        <time>2022-02-23T07:15:21.849Z</time>
      </trkpt>
      <trkpt lat="42.43152" lon="23.12173">
        <ele>672.79077</ele>
        <time>2022-02-23T07:15:26.265Z</time>
      </trkpt>
      <trkpt lat="42.43208" lon="23.12188">
        <ele>674.559952</ele>
        <time>2022-02-23T07:15:52.645Z</time>
      </trkpt>
      <trkpt lat="42.43241" lon="23.1221">
        <ele>675.651565</ele>
        <time>2022-02-23T07:16:08.222Z</time>
      </trkpt>
      <trkpt lat="42.43287" lon="23.12208">
        <ele>676.894808</ele>
        <time>2022-02-23T07:16:27.316Z</time>
      </trkpt>
      <trkpt lat="42.43413" lon="23.12215">
        <ele>680.317615</ele>
        <time>2022-02-23T07:17:18.337Z</time>
      </trkpt>
      <trkpt lat="42.43412" lon="23.12221">
        <ele>680.387024</ele>
        <time>2022-02-23T07:17:21.309Z</time>
      </trkpt>
      <trkpt lat="42.43407" lon="23.12271">
        <ele>680.765672</ele>
        <time>2022-02-23T07:17:34.463Z</time>
      </trkpt>
      <trkpt lat="42.43412" lon="23.12287">
        <ele>680.896136</ele>
        <time>2022-02-23T07:17:38.688Z</time>
      </trkpt>
      <trkpt lat="42.43458" lon="23.12278">
        <ele>681.368247</ele>
        <time>2022-02-23T07:17:53.863Z</time>
      </trkpt>
      <trkpt lat="42.43557" lon="23.12292">
        <ele>682.189543</ele>
        <time>2022-02-23T07:18:24.708Z</time>
      </trkpt>
      <trkpt lat="42.43593" lon="23.12264">
        <ele>682.178848</ele>
        <time>2022-02-23T07:18:34.171Z</time>
      </trkpt>
      <trkpt lat="42.43614" lon="23.12224">
        <ele>682.169277</ele>
        <time>2022-02-23T07:18:42.424Z</time>
      </trkpt>
      <trkpt lat="42.43625" lon="23.12217">
        <ele>682.166171</ele>
        <time>2022-02-23T07:18:45.330Z</time>
      </trkpt>
      <trkpt lat="42.43751" lon="23.12223">
        <ele>684.106361</ele>
        <time>2022-02-23T07:19:26.935Z</time>
      </trkpt>
      <trkpt lat="42.43757" lon="23.12218">
        <ele>684.348552</ele>
        <time>2022-02-23T07:19:29.419Z</time>
      </trkpt>
      <trkpt lat="42.43773" lon="23.12223">
        <ele>684.923034</ele>
        <time>2022-02-23T07:19:38.968Z</time>
      </trkpt>
      <trkpt lat="42.4379" lon="23.12226">
        <ele>685.539493</ele>
        <time>2022-02-23T07:19:48.510Z</time>
      </trkpt>
      <trkpt lat="42.43821" lon="23.12249">
        <ele>686.799526</ele>
        <time>2022-02-23T07:20:06.316Z</time>
      </trkpt>
      <trkpt lat="42.43884" lon="23.12266">
        <ele>688.97914</ele>
        <time>2022-02-23T07:20:40.561Z</time>
      </trkpt>
      <trkpt lat="42.43896" lon="23.12276">
        <ele>689.411933</ele>
        <time>2022-02-23T07:20:47.610Z</time>
      </trkpt>
      <trkpt lat="42.43912" lon="23.12296">
        <ele>690.094196</ele>
        <time>2022-02-23T07:21:00.110Z</time>
      </trkpt>
      <trkpt lat="42.43923" lon="23.12306">
        <ele>690.515252</ele>
        <time>2022-02-23T07:21:06.982Z</time>
      </trkpt>
      <trkpt lat="42.43971" lon="23.12336">
        <ele>692.145153</ele>
        <time>2022-02-23T07:21:31.150Z</time>
      </trkpt>
      <trkpt lat="42.43981" lon="23.12349">
        <ele>692.587436</ele>
        <time>2022-02-23T07:21:35.972Z</time>
      </trkpt>
      <trkpt lat="42.43979" lon="23.12359">
        <ele>692.820314</ele>
        <time>2022-02-23T07:21:39.801Z</time>
      </trkpt>
      <trkpt lat="42.43983" lon="23.12457">
        <ele>693.158034</ele>
        <time>2022-02-23T07:22:07.278Z</time>
      </trkpt>
      <trkpt lat="42.43947" lon="23.12633">
        <ele>689.253771</ele>
        <time>2022-02-23T07:22:42.556Z</time>
      </trkpt>
      <trkpt lat="42.43917" lon="23.12699">
        <ele>687.316475</ele>
        <time>2022-02-23T07:22:57.077Z</time>
      </trkpt>
      <trkpt lat="42.43902" lon="23.1276">
        <ele>685.653298</ele>
        <time>2022-02-23T07:23:09.255Z</time>
      </trkpt>
      <trkpt lat="42.43897" lon="23.12768">
        <ele>685.393561</ele>
        <time>2022-02-23T07:23:10.719Z</time>
      </trkpt>
      <trkpt lat="42.43884" lon="23.12812">
        <ele>684.145119</ele>
        <time>2022-02-23T07:23:17.999Z</time>
      </trkpt>
      <trkpt lat="42.43866" lon="23.12852">
        <ele>682.936388</ele>
        <time>2022-02-23T07:23:25.218Z</time>
      </trkpt>
      <trkpt lat="42.4383" lon="23.129">
        <ele>682.368815</ele>
        <time>2022-02-23T07:23:36.401Z</time>
      </trkpt>
      <trkpt lat="42.4381" lon="23.12935">
        <ele>682.208668</ele>
        <time>2022-02-23T07:23:44.492Z</time>
      </trkpt>
      <trkpt lat="42.43793" lon="23.12973">
        <ele>682.045918</ele>
        <time>2022-02-23T07:23:53.985Z</time>
      </trkpt>
      <trkpt lat="42.4378" lon="23.12999">
        <ele>681.930593</ele>
        <time>2022-02-23T07:24:00.816Z</time>
      </trkpt>
      <trkpt lat="42.43777" lon="23.13005">
        <ele>681.90228</ele>
        <time>2022-02-23T07:24:02.426Z</time>
      </trkpt>
      <trkpt lat="42.4377" lon="23.13031">
        <ele>681.801739</ele>
        <time>2022-02-23T07:24:08.585Z</time>
      </trkpt>
      <trkpt lat="42.43768" lon="23.13048">
        <ele>681.738511</ele>
        <time>2022-02-23T07:24:12.316Z</time>
      </trkpt>
      <trkpt lat="42.43763" lon="23.1308">
        <ele>681.769697</ele>
        <time>2022-02-23T07:24:19.800Z</time>
      </trkpt>
      <trkpt lat="42.4376" lon="23.13166">
        <ele>682.284091</ele>
        <time>2022-02-23T07:24:39.239Z</time>
      </trkpt>
      <trkpt lat="42.43756" lon="23.13245">
        <ele>682.766464</ele>
        <time>2022-02-23T07:24:57.517Z</time>
      </trkpt>
      <trkpt lat="42.43758" lon="23.13266">
        <ele>682.891209</ele>
        <time>2022-02-23T07:25:02.528Z</time>
      </trkpt>
      <trkpt lat="42.43774" lon="23.13332">
        <ele>683.53111</ele>
        <time>2022-02-23T07:25:19.815Z</time>
      </trkpt>
      <trkpt lat="42.4376" lon="23.13345">
        <ele>683.850039</ele>
        <time>2022-02-23T07:25:25.805Z</time>
      </trkpt>
      <trkpt lat="42.43734" lon="23.13354">
        <ele>684.358844</ele>
        <time>2022-02-23T07:25:35.417Z</time>
      </trkpt>
      <trkpt lat="42.43671" lon="23.13334">
        <ele>685.559931</ele>
        <time>2022-02-23T07:25:59.061Z</time>
      </trkpt>
      <trkpt lat="42.43651" lon="23.13329">
        <ele>685.948046</ele>
        <time>2022-02-23T07:26:07.092Z</time>
      </trkpt>
      <trkpt lat="42.43641" lon="23.13328">
        <ele>686.143388</ele>
        <time>2022-02-23T07:26:11.191Z</time>
      </trkpt>
      <trkpt lat="42.43548" lon="23.13319">
        <ele>688.566277</ele>
        <time>2022-02-23T07:26:48.828Z</time>
      </trkpt>
      <trkpt lat="42.43497" lon="23.13322">
        <ele>690.010402</ele>
        <time>2022-02-23T07:27:10.415Z</time>
      </trkpt>
      <trkpt lat="42.43442" lon="23.1333">
        <ele>691.560728</ele>
        <time>2022-02-23T07:27:33.444Z</time>
      </trkpt>
      <trkpt lat="42.43377" lon="23.13346">
        <ele>693.388074</ele>
        <time>2022-02-23T07:28:01.923Z</time>
      </trkpt>
      <trkpt lat="42.43308" lon="23.13389">
        <ele>695.495535</ele>
        <time>2022-02-23T07:28:33.469Z</time>
      </trkpt>
      <trkpt lat="42.43265" lon="23.13413">
        <ele>696.662108</ele>
        <time>2022-02-23T07:28:51.406Z</time>
      </trkpt>
      <trkpt lat="42.4323" lon="23.13433">
        <ele>697.193086</ele>
        <time>2022-02-23T07:29:12.367Z</time>
      </trkpt>
      <trkpt lat="42.43162" lon="23.13451">
        <ele>698.133003</ele>
        <time>2022-02-23T07:29:48.216Z</time>
      </trkpt>
      <trkpt lat="42.43034" lon="23.135">
        <ele>699.255291</ele>
        <time>2022-02-23T07:30:50.677Z</time>
      </trkpt>
      <trkpt lat="42.42904" lon="23.13539">
        <ele>699.674026</ele>
        <time>2022-02-23T07:31:51.173Z</time>
      </trkpt>
      <trkpt lat="42.42726" lon="23.13563">
        <ele>699.713371</ele>
        <time>2022-02-23T07:33:12.443Z</time>
      </trkpt>
      <trkpt lat="42.42696" lon="23.13571">
        <ele>699.450935</ele>
        <time>2022-02-23T07:33:25.547Z</time>
      </trkpt>
      <trkpt lat="42.42671" lon="23.13585">
        <ele>699.219751</ele>
        <time>2022-02-23T07:33:36.889Z</time>
      </trkpt>
      <trkpt lat="42.42633" lon="23.13586">
        <ele>698.891812</ele>
        <time>2022-02-23T07:33:52.513Z</time>
      </trkpt>
      <trkpt lat="42.42537" lon="23.13612">
        <ele>697.522244</ele>
        <time>2022-02-23T07:34:30.539Z</time>
      </trkpt>
      <trkpt lat="42.42463" lon="23.13654">
        <ele>695.605153</ele>
        <time>2022-02-23T07:35:00.000Z</time>
      </trkpt>
      <trkpt lat="42.42397" lon="23.13703">
        <ele>693.728029</ele>
        <time>2022-02-23T07:35:27.176Z</time>
      </trkpt>
      <trkpt lat="42.42362" lon="23.13723">
        <ele>692.565463</ele>
        <time>2022-02-23T07:35:40.621Z</time>
      </trkpt>
      <trkpt lat="42.42273" lon="23.13745">
        <ele>689.78863</ele>
        <time>2022-02-23T07:36:12.573Z</time>
      </trkpt>
      <trkpt lat="42.42152" lon="23.13811">
        <ele>686.2537</ele>
        <time>2022-02-23T07:36:59.584Z</time>
      </trkpt>
      <trkpt lat="42.42119" lon="23.13836">
        <ele>685.306634</ele>
        <time>2022-02-23T07:37:13.365Z</time>
      </trkpt>
      <trkpt lat="42.42052" lon="23.13861">
        <ele>683.692614</ele>
        <time>2022-02-23T07:37:39.588Z</time>
      </trkpt>
      <trkpt lat="42.41867" lon="23.13955">
        <ele>680.66224</ele>
        <time>2022-02-23T07:38:56.677Z</time>
      </trkpt>
      <trkpt lat="42.41791" lon="23.14003">
        <ele>679.715314</ele>
        <time>2022-02-23T07:39:30.103Z</time>
      </trkpt>
      <trkpt lat="42.41671" lon="23.14094">
        <ele>678.776255</ele>
        <time>2022-02-23T07:40:27.028Z</time>
      </trkpt>
      <trkpt lat="42.41554" lon="23.14232">
        <ele>679.082005</ele>
        <time>2022-02-23T07:41:35.968Z</time>
      </trkpt>
      <trkpt lat="42.41504" lon="23.14228">
        <ele>679.699959</ele>
        <time>2022-02-23T07:42:00.423Z</time>
      </trkpt>
      <trkpt lat="42.41491" lon="23.1425">
        <ele>679.962387</ele>
        <time>2022-02-23T07:42:11.169Z</time>
      </trkpt>
      <trkpt lat="42.41484" lon="23.14259">
        <ele>680.077463</ele>
        <time>2022-02-23T07:42:15.894Z</time>
      </trkpt>
      <trkpt lat="42.41283" lon="23.14518">
        <ele>686.538912</ele>
        <time>2022-02-23T07:44:53.996Z</time>
      </trkpt>
      <trkpt lat="42.4124" lon="23.14589">
        <ele>688.265736</ele>
        <time>2022-02-23T07:45:34.898Z</time>
      </trkpt>
      <trkpt lat="42.41207" lon="23.14624">
        <ele>689.339882</ele>
        <time>2022-02-23T07:45:58.451Z</time>
      </trkpt>
      <trkpt lat="42.41179" lon="23.14675">
        <ele>689.809304</ele>
        <time>2022-02-23T07:46:22.974Z</time>
      </trkpt>
      <trkpt lat="42.4117" lon="23.14689">
        <ele>689.776919</ele>
        <time>2022-02-23T07:46:30.354Z</time>
      </trkpt>
      <trkpt lat="42.41066" lon="23.14639">
        <ele>689.508912</ele>
        <time>2022-02-23T07:46:59.358Z</time>
      </trkpt>
      <trkpt lat="42.41056" lon="23.14563">
        <ele>688.647937</ele>
        <time>2022-02-23T07:47:11.183Z</time>
      </trkpt>
      <trkpt lat="42.41007" lon="23.14231">
        <ele>681.41984</ele>
        <time>2022-02-23T07:48:00.115Z</time>
      </trkpt>
      <trkpt lat="42.41016" lon="23.13359">
        <ele>664.347797</ele>
        <time>2022-02-23T07:50:09.963Z</time>
      </trkpt>
      <trkpt lat="42.41011" lon="23.13175">
        <ele>662.089868</ele>
        <time>2022-02-23T07:50:39.339Z</time>
      </trkpt>
      <trkpt lat="42.41012" lon="23.1315">
        <ele>661.775681</ele>
        <time>2022-02-23T07:50:43.804Z</time>
      </trkpt>
      <trkpt lat="42.41012" lon="23.13135">
        <ele>661.70201</ele>
        <time>2022-02-23T07:50:46.554Z</time>
      </trkpt>
      <trkpt lat="42.41012" lon="23.13126">
        <ele>661.684554</ele>
        <time>2022-02-23T07:50:48.057Z</time>
      </trkpt>
      <trkpt lat="42.41012" lon="23.13116">
        <ele>661.664996</ele>
        <time>2022-02-23T07:50:49.824Z</time>
      </trkpt>
      <trkpt lat="42.41009" lon="23.13107">
        <ele>661.645266</ele>
        <time>2022-02-23T07:50:51.618Z</time>
      </trkpt>
      <trkpt lat="42.40984" lon="23.13107">
        <ele>661.578368</ele>
        <time>2022-02-23T07:50:57.862Z</time>
      </trkpt>
      <trkpt lat="42.40977" lon="23.13107">
        <ele>661.558218</ele>
        <time>2022-02-23T07:50:59.660Z</time>
      </trkpt>
      <trkpt lat="42.40963" lon="23.13107">
        <ele>661.522215</ele>
        <time>2022-02-23T07:51:03.344Z</time>
      </trkpt>
      <trkpt lat="42.40922" lon="23.13099">
        <ele>661.410555</ele>
        <time>2022-02-23T07:51:14.164Z</time>
      </trkpt>
      <trkpt lat="42.40867" lon="23.13078">
        <ele>661.255887</ele>
        <time>2022-02-23T07:51:29.790Z</time>
      </trkpt>
      <trkpt lat="42.4039" lon="23.12856">
        <ele>662.205223</ele>
        <time>2022-02-23T07:53:47.936Z</time>
      </trkpt>
      <trkpt lat="42.40314" lon="23.12822">
        <ele>662.499762</ele>
        <time>2022-02-23T07:54:12.090Z</time>
      </trkpt>
      <trkpt lat="42.40241" lon="23.1279">
        <ele>662.831144</ele>
        <time>2022-02-23T07:54:34.537Z</time>
      </trkpt>
      <trkpt lat="42.40177" lon="23.12765">
        <ele>663.114958</ele>
        <time>2022-02-23T07:54:53.074Z</time>
      </trkpt>
      <trkpt lat="42.40101" lon="23.12735">
        <ele>663.245863</ele>
        <time>2022-02-23T07:55:15.081Z</time>
      </trkpt>
      <trkpt lat="42.40063" lon="23.12721">
        <ele>663.309991</ele>
        <time>2022-02-23T07:55:25.269Z</time>
      </trkpt>
      <trkpt lat="42.39842" lon="23.12636">
        <ele>663.821716</ele>
        <time>2022-02-23T07:56:28.629Z</time>
      </trkpt>
      <trkpt lat="42.39707" lon="23.12584">
        <ele>664.600895</ele>
        <time>2022-02-23T07:57:10.464Z</time>
      </trkpt>
      <trkpt lat="42.39645" lon="23.12549">
        <ele>664.991177</ele>
        <time>2022-02-23T07:57:30.528Z</time>
      </trkpt>
      <trkpt lat="42.39343" lon="23.12306">
        <ele>667.148374</ele>
        <time>2022-02-23T07:59:13.615Z</time>
      </trkpt>
      <trkpt lat="42.39333" lon="23.12298">
        <ele>667.286104</ele>
        <time>2022-02-23T07:59:17.283Z</time>
      </trkpt>
      <trkpt lat="42.39265" lon="23.12245">
        <ele>668.198854</ele>
        <time>2022-02-23T07:59:42.436Z</time>
      </trkpt>
      <trkpt lat="42.39216" lon="23.12204">
        <ele>668.877222</ele>
        <time>2022-02-23T08:00:01.767Z</time>
      </trkpt>
      <trkpt lat="42.39173" lon="23.12158">
        <ele>669.620952</ele>
        <time>2022-02-23T08:00:20.493Z</time>
      </trkpt>
      <trkpt lat="42.39006" lon="23.11935">
        <ele>673.181665</ele>
        <time>2022-02-23T08:01:39.683Z</time>
      </trkpt>
      <trkpt lat="42.38957" lon="23.11888">
        <ele>674.125688</ele>
        <time>2022-02-23T08:02:00.013Z</time>
      </trkpt>
      <trkpt lat="42.38888" lon="23.11836">
        <ele>675.842494</ele>
        <time>2022-02-23T08:02:27.900Z</time>
      </trkpt>
      <trkpt lat="42.38203" lon="23.11378">
        <ele>696.666883</ele>
        <time>2022-02-23T08:07:28.493Z</time>
      </trkpt>
      <trkpt lat="42.38148" lon="23.11349">
        <ele>698.948397</ele>
        <time>2022-02-23T08:07:58.420Z</time>
      </trkpt>
      <trkpt lat="42.3812" lon="23.11338">
        <ele>700.105798</ele>
        <time>2022-02-23T08:08:13.915Z</time>
      </trkpt>
      <trkpt lat="42.38049" lon="23.11326">
        <ele>703.184102</ele>
        <time>2022-02-23T08:08:51.411Z</time>
      </trkpt>
      <trkpt lat="42.38005" lon="23.11328">
        <ele>705.071009</ele>
        <time>2022-02-23T08:09:13.755Z</time>
      </trkpt>
      <trkpt lat="42.37831" lon="23.11371">
        <ele>709.756409</ele>
        <time>2022-02-23T08:10:24.500Z</time>
      </trkpt>
      <trkpt lat="42.37742" lon="23.11387">
        <ele>710.645052</ele>
        <time>2022-02-23T08:10:48.900Z</time>
      </trkpt>
      <trkpt lat="42.37695" lon="23.11387">
        <ele>710.110066</ele>
        <time>2022-02-23T08:10:59.736Z</time>
      </trkpt>
      <trkpt lat="42.37644" lon="23.11384">
        <ele>709.522581</ele>
        <time>2022-02-23T08:11:10.862Z</time>
      </trkpt>
      <trkpt lat="42.37573" lon="23.11369">
        <ele>708.722816</ele>
        <time>2022-02-23T08:11:26.346Z</time>
      </trkpt>
      <trkpt lat="42.37502" lon="23.11343">
        <ele>708.060168</ele>
        <time>2022-02-23T08:11:42.465Z</time>
      </trkpt>
      <trkpt lat="42.37329" lon="23.11236">
        <ele>707.869464</ele>
        <time>2022-02-23T08:12:30.676Z</time>
      </trkpt>
      <trkpt lat="42.37145" lon="23.11112">
        <ele>711.124472</ele>
        <time>2022-02-23T08:13:43.764Z</time>
      </trkpt>
      <trkpt lat="42.37127" lon="23.11101">
        <ele>711.550196</ele>
        <time>2022-02-23T08:13:52.079Z</time>
      </trkpt>
      <trkpt lat="42.37076" lon="23.11066">
        <ele>712.697875</ele>
        <time>2022-02-23T08:14:15.715Z</time>
      </trkpt>
      <trkpt lat="42.3703" lon="23.11036">
        <ele>713.481947</ele>
        <time>2022-02-23T08:14:35.554Z</time>
      </trkpt>
      <trkpt lat="42.36967" lon="23.10994">
        <ele>714.569057</ele>
        <time>2022-02-23T08:15:00.467Z</time>
      </trkpt>
      <trkpt lat="42.3685" lon="23.10917">
        <ele>714.18614</ele>
        <time>2022-02-23T08:15:31.971Z</time>
      </trkpt>
      <trkpt lat="42.36764" lon="23.10858">
        <ele>713.106919</ele>
        <time>2022-02-23T08:15:52.454Z</time>
      </trkpt>
      <trkpt lat="42.36656" lon="23.10772">
        <ele>711.516098</ele>
        <time>2022-02-23T08:16:20.044Z</time>
      </trkpt>
      <trkpt lat="42.36503" lon="23.10645">
        <ele>710.298744</ele>
        <time>2022-02-23T08:17:04.346Z</time>
      </trkpt>
      <trkpt lat="42.36386" lon="23.10539">
        <ele>708.982232</ele>
        <time>2022-02-23T08:17:40.090Z</time>
      </trkpt>
      <trkpt lat="42.36368" lon="23.10517">
        <ele>708.699903</ele>
        <time>2022-02-23T08:17:45.423Z</time>
      </trkpt>
      <trkpt lat="42.3635" lon="23.10496">
        <ele>708.42281</ele>
        <time>2022-02-23T08:17:50.457Z</time>
      </trkpt>
      <trkpt lat="42.36288" lon="23.10404">
        <ele>706.765365</ele>
        <time>2022-02-23T08:18:09.267Z</time>
      </trkpt>
      <trkpt lat="42.36252" lon="23.10355">
        <ele>705.625607</ele>
        <time>2022-02-23T08:18:19.583Z</time>
      </trkpt>
      <trkpt lat="42.36228" lon="23.10328">
        <ele>704.918932</ele>
        <time>2022-02-23T08:18:25.977Z</time>
      </trkpt>
      <trkpt lat="42.36218" lon="23.10318">
        <ele>704.639202</ele>
        <time>2022-02-23T08:18:28.631Z</time>
      </trkpt>
      <trkpt lat="42.36179" lon="23.10287">
        <ele>703.815214</ele>
        <time>2022-02-23T08:18:38.164Z</time>
      </trkpt>
      <trkpt lat="42.36107" lon="23.10248">
        <ele>703.224443</ele>
        <time>2022-02-23T08:18:55.937Z</time>
      </trkpt>
      <trkpt lat="42.35606" lon="23.1002">
        <ele>701.16424</ele>
        <time>2022-02-23T08:21:15.256Z</time>
      </trkpt>
      <trkpt lat="42.35496" lon="23.09956">
        <ele>698.982944</ele>
        <time>2022-02-23T08:21:39.899Z</time>
      </trkpt>
      <trkpt lat="42.35253" lon="23.09783">
        <ele>689.333242</ele>
        <time>2022-02-23T08:22:31.997Z</time>
      </trkpt>
      <trkpt lat="42.35088" lon="23.096">
        <ele>683.260701</ele>
        <time>2022-02-23T08:23:14.567Z</time>
      </trkpt>
      <trkpt lat="42.35037" lon="23.0956">
        <ele>682.126267</ele>
        <time>2022-02-23T08:23:27.102Z</time>
      </trkpt>
      <trkpt lat="42.34996" lon="23.09539">
        <ele>681.646971</ele>
        <time>2022-02-23T08:23:36.839Z</time>
      </trkpt>
      <trkpt lat="42.34945" lon="23.09524">
        <ele>681.09068</ele>
        <time>2022-02-23T08:23:48.607Z</time>
      </trkpt>
      <trkpt lat="42.34672" lon="23.09501">
        <ele>679.828814</ele>
        <time>2022-02-23T08:25:00.304Z</time>
      </trkpt>
      <trkpt lat="42.34664" lon="23.095">
        <ele>679.734645</ele>
        <time>2022-02-23T08:25:02.945Z</time>
      </trkpt>
      <trkpt lat="42.34557" lon="23.09487">
        <ele>678.551331</ele>
        <time>2022-02-23T08:25:27.953Z</time>
      </trkpt>
      <trkpt lat="42.34241" lon="23.09443">
        <ele>669.751564</ele>
        <time>2022-02-23T08:26:30.824Z</time>
      </trkpt>
      <trkpt lat="42.34177" lon="23.09442">
        <ele>667.827007</ele>
        <time>2022-02-23T08:26:43.264Z</time>
      </trkpt>
      <trkpt lat="42.34128" lon="23.09448">
        <ele>666.329423</ele>
        <time>2022-02-23T08:26:52.964Z</time>
      </trkpt>
      <trkpt lat="42.34075" lon="23.09464">
        <ele>664.665695</ele>
        <time>2022-02-23T08:27:03.784Z</time>
      </trkpt>
      <trkpt lat="42.33996" lon="23.09501">
        <ele>662.125406</ele>
        <time>2022-02-23T08:27:20.254Z</time>
      </trkpt>
      <trkpt lat="42.33905" lon="23.09557">
        <ele>658.969613</ele>
        <time>2022-02-23T08:27:40.158Z</time>
      </trkpt>
      <trkpt lat="42.33878" lon="23.09573">
        <ele>658.063317</ele>
        <time>2022-02-23T08:27:45.786Z</time>
      </trkpt>
      <trkpt lat="42.33799" lon="23.09623">
        <ele>655.079552</ele>
        <time>2022-02-23T08:28:02.666Z</time>
      </trkpt>
      <trkpt lat="42.33751" lon="23.09651">
        <ele>653.087364</ele>
        <time>2022-02-23T08:28:12.686Z</time>
      </trkpt>
      <trkpt lat="42.33726" lon="23.09663">
        <ele>652.06653</ele>
        <time>2022-02-23T08:28:17.828Z</time>
      </trkpt>
      <trkpt lat="42.33666" lon="23.0969">
        <ele>649.677543</ele>
        <time>2022-02-23T08:28:29.696Z</time>
      </trkpt>
      <trkpt lat="42.33481" lon="23.09755">
        <ele>641.090588</ele>
        <time>2022-02-23T08:29:05.055Z</time>
      </trkpt>
      <trkpt lat="42.33367" lon="23.09793">
        <ele>635.349337</ele>
        <time>2022-02-23T08:29:26.403Z</time>
      </trkpt>
      <trkpt lat="42.33301" lon="23.09818">
        <ele>631.928713</ele>
        <time>2022-02-23T08:29:38.776Z</time>
      </trkpt>
      <trkpt lat="42.33261" lon="23.09835">
        <ele>629.722103</ele>
        <time>2022-02-23T08:29:46.266Z</time>
      </trkpt>
      <trkpt lat="42.33223" lon="23.09857">
        <ele>627.544949</ele>
        <time>2022-02-23T08:29:53.637Z</time>
      </trkpt>
      <trkpt lat="42.33197" lon="23.09875">
        <ele>625.9708</ele>
        <time>2022-02-23T08:29:58.968Z</time>
      </trkpt>
      <trkpt lat="42.33133" lon="23.09922">
        <ele>622.094329</ele>
        <time>2022-02-23T08:30:12.016Z</time>
      </trkpt>
      <trkpt lat="42.33067" lon="23.09971">
        <ele>618.144216</ele>
        <time>2022-02-23T08:30:25.401Z</time>
      </trkpt>
      <trkpt lat="42.33049" lon="23.09985">
        <ele>617.040577</ele>
        <time>2022-02-23T08:30:29.185Z</time>
      </trkpt>
      <trkpt lat="42.33002" lon="23.1002">
        <ele>614.177247</ele>
        <time>2022-02-23T08:30:38.918Z</time>
      </trkpt>
      <trkpt lat="42.32947" lon="23.10051">
        <ele>610.913353</ele>
        <time>2022-02-23T08:30:49.610Z</time>
      </trkpt>
      <trkpt lat="42.32875" lon="23.10074">
        <ele>606.869908</ele>
        <time>2022-02-23T08:31:02.731Z</time>
      </trkpt>
      <trkpt lat="42.32854" lon="23.10077">
        <ele>605.723706</ele>
        <time>2022-02-23T08:31:06.418Z</time>
      </trkpt>
      <trkpt lat="42.32774" lon="23.10082">
        <ele>601.3003</ele>
        <time>2022-02-23T08:31:20.798Z</time>
      </trkpt>
      <trkpt lat="42.32466" lon="23.10082">
        <ele>584.589719</ele>
        <time>2022-02-23T08:32:15.661Z</time>
      </trkpt>
      <trkpt lat="42.32392" lon="23.10062">
        <ele>581.213141</ele>
        <time>2022-02-23T08:32:29.534Z</time>
      </trkpt>
      <trkpt lat="42.32331" lon="23.10025">
        <ele>578.286617</ele>
        <time>2022-02-23T08:32:41.963Z</time>
      </trkpt>
      <trkpt lat="42.32216" lon="23.09939">
        <ele>573.871345</ele>
        <time>2022-02-23T08:33:07.263Z</time>
      </trkpt>
      <trkpt lat="42.32127" lon="23.09871">
        <ele>571.169769</ele>
        <time>2022-02-23T08:33:28.353Z</time>
      </trkpt>
      <trkpt lat="42.32111" lon="23.09859">
        <ele>571.001756</ele>
        <time>2022-02-23T08:33:32.328Z</time>
      </trkpt>
      <trkpt lat="42.32069" lon="23.09829">
        <ele>570.559947</ele>
        <time>2022-02-23T08:33:43.130Z</time>
      </trkpt>
      <trkpt lat="42.3203" lon="23.09807">
        <ele>570.173061</ele>
        <time>2022-02-23T08:33:53.188Z</time>
      </trkpt>
      <trkpt lat="42.31954" lon="23.0978">
        <ele>569.579902</ele>
        <time>2022-02-23T08:34:13.337Z</time>
      </trkpt>
      <trkpt lat="42.31884" lon="23.09774">
        <ele>569.446129</ele>
        <time>2022-02-23T08:34:32.310Z</time>
      </trkpt>
      <trkpt lat="42.31849" lon="23.09779">
        <ele>569.381098</ele>
        <time>2022-02-23T08:34:41.168Z</time>
      </trkpt>
      <trkpt lat="42.31825" lon="23.09786">
        <ele>569.334368</ele>
        <time>2022-02-23T08:34:47.417Z</time>
      </trkpt>
      <trkpt lat="42.31705" lon="23.09846">
        <ele>569.019095</ele>
        <time>2022-02-23T08:35:19.534Z</time>
      </trkpt>
      <trkpt lat="42.3148" lon="23.09978">
        <ele>568.395454</ele>
        <time>2022-02-23T08:36:23.656Z</time>
      </trkpt>
      <trkpt lat="42.3143" lon="23.10016">
        <ele>567.711721</ele>
        <time>2022-02-23T08:36:37.281Z</time>
      </trkpt>
      <trkpt lat="42.3138" lon="23.10067">
        <ele>566.69789</ele>
        <time>2022-02-23T08:36:51.329Z</time>
      </trkpt>
      <trkpt lat="42.31163" lon="23.10302">
        <ele>560.636493</ele>
        <time>2022-02-23T08:37:48.000Z</time>
      </trkpt>
      <trkpt lat="42.31082" lon="23.10369">
        <ele>559.018042</ele>
        <time>2022-02-23T08:38:07.973Z</time>
      </trkpt>
      <trkpt lat="42.30678" lon="23.10677">
        <ele>554.02059</ele>
        <time>2022-02-23T08:39:56.456Z</time>
      </trkpt>
      <trkpt lat="42.30647" lon="23.10701">
        <ele>553.54784</ele>
        <time>2022-02-23T08:40:04.454Z</time>
      </trkpt>
      <trkpt lat="42.30616" lon="23.10725">
        <ele>553.064525</ele>
        <time>2022-02-23T08:40:12.429Z</time>
      </trkpt>
      <trkpt lat="42.30614" lon="23.10726">
        <ele>553.038926</ele>
        <time>2022-02-23T08:40:12.806Z</time>
      </trkpt>
      <trkpt lat="42.30596" lon="23.1074">
        <ele>552.765527</ele>
        <time>2022-02-23T08:40:17.345Z</time>
      </trkpt>
      <trkpt lat="42.30498" lon="23.10815">
        <ele>551.198006</ele>
        <time>2022-02-23T08:40:41.972Z</time>
      </trkpt>
      <trkpt lat="42.30485" lon="23.10824">
        <ele>550.989662</ele>
        <time>2022-02-23T08:40:45.046Z</time>
      </trkpt>
      <trkpt lat="42.30282" lon="23.10981">
        <ele>547.967605</ele>
        <time>2022-02-23T08:41:37.937Z</time>
      </trkpt>
      <trkpt lat="42.30238" lon="23.11015">
        <ele>547.402341</ele>
        <time>2022-02-23T08:41:49.397Z</time>
      </trkpt>
      <trkpt lat="42.3021" lon="23.11036">
        <ele>547.196889</ele>
        <time>2022-02-23T08:41:56.696Z</time>
      </trkpt>
      <trkpt lat="42.30159" lon="23.11075">
        <ele>546.823966</ele>
        <time>2022-02-23T08:42:10.330Z</time>
      </trkpt>
      <trkpt lat="42.30116" lon="23.11108">
        <ele>546.50781</ele>
        <time>2022-02-23T08:42:22.542Z</time>
      </trkpt>
      <trkpt lat="42.3008" lon="23.11136">
        <ele>546.330693</ele>
        <time>2022-02-23T08:42:33.453Z</time>
      </trkpt>
      <trkpt lat="42.30018" lon="23.11183">
        <ele>546.697681</ele>
        <time>2022-02-23T08:42:53.726Z</time>
      </trkpt>
      <trkpt lat="42.29991" lon="23.11204">
        <ele>546.857885</ele>
        <time>2022-02-23T08:43:03.081Z</time>
      </trkpt>
      <trkpt lat="42.29917" lon="23.1126">
        <ele>547.288592</ele>
        <time>2022-02-23T08:43:29.401Z</time>
      </trkpt>
      <trkpt lat="42.29906" lon="23.11269">
        <ele>547.343962</ele>
        <time>2022-02-23T08:43:33.130Z</time>
      </trkpt>
      <trkpt lat="42.29901" lon="23.11272">
        <ele>547.369468</ele>
        <time>2022-02-23T08:43:34.909Z</time>
      </trkpt>
      <trkpt lat="42.29747" lon="23.1139">
        <ele>548.020102</ele>
        <time>2022-02-23T08:44:25.497Z</time>
      </trkpt>
      <trkpt lat="42.29652" lon="23.11464">
        <ele>547.977388</ele>
        <time>2022-02-23T08:44:54.330Z</time>
      </trkpt>
      <trkpt lat="42.29511" lon="23.11572">
        <ele>547.503681</ele>
        <time>2022-02-23T08:45:35.027Z</time>
      </trkpt>
      <trkpt lat="42.295" lon="23.11581">
        <ele>547.454307</ele>
        <time>2022-02-23T08:45:38.202Z</time>
      </trkpt>
      <trkpt lat="42.29419" lon="23.11643">
        <ele>547.312166</ele>
        <time>2022-02-23T08:46:01.094Z</time>
      </trkpt>
      <trkpt lat="42.29417" lon="23.11645">
        <ele>547.314015</ele>
        <time>2022-02-23T08:46:01.904Z</time>
      </trkpt>
      <trkpt lat="42.29396" lon="23.11661">
        <ele>547.327278</ele>
        <time>2022-02-23T08:46:08.084Z</time>
      </trkpt>
      <trkpt lat="42.29345" lon="23.117">
        <ele>547.359626</ele>
        <time>2022-02-23T08:46:24.308Z</time>
      </trkpt>
      <trkpt lat="42.29266" lon="23.11759">
        <ele>547.693895</ele>
        <time>2022-02-23T08:46:50.745Z</time>
      </trkpt>
      <trkpt lat="42.29265" lon="23.1176">
        <ele>547.70531</ele>
        <time>2022-02-23T08:46:51.461Z</time>
      </trkpt>
      <trkpt lat="42.2924" lon="23.1178">
        <ele>547.908867</ele>
        <time>2022-02-23T08:47:00.043Z</time>
      </trkpt>
      <trkpt lat="42.29165" lon="23.11837">
        <ele>548.517796</ele>
        <time>2022-02-23T08:47:27.446Z</time>
      </trkpt>
      <trkpt lat="42.29079" lon="23.11903">
        <ele>548.265179</ele>
        <time>2022-02-23T08:47:54.919Z</time>
      </trkpt>
      <trkpt lat="42.29064" lon="23.11915">
        <ele>548.178974</ele>
        <time>2022-02-23T08:47:59.217Z</time>
      </trkpt>
      <trkpt lat="42.29061" lon="23.11917">
        <ele>548.165952</ele>
        <time>2022-02-23T08:47:59.836Z</time>
      </trkpt>
      <trkpt lat="42.29053" lon="23.11922">
        <ele>548.121471</ele>
        <time>2022-02-23T08:48:01.985Z</time>
      </trkpt>
      <trkpt lat="42.29051" lon="23.11924">
        <ele>548.108264</ele>
        <time>2022-02-23T08:48:02.609Z</time>
      </trkpt>
      <trkpt lat="42.29046" lon="23.11929">
        <ele>548.076156</ele>
        <time>2022-02-23T08:48:04.131Z</time>
      </trkpt>
      <trkpt lat="42.29032" lon="23.1194">
        <ele>547.998189</ele>
        <time>2022-02-23T08:48:07.792Z</time>
      </trkpt>
      <trkpt lat="42.29017" lon="23.11954">
        <ele>547.908646</ele>
        <time>2022-02-23T08:48:11.902Z</time>
      </trkpt>
      <trkpt lat="42.28915" lon="23.12036">
        <ele>546.157756</ele>
        <time>2022-02-23T08:48:37.573Z</time>
      </trkpt>
      <trkpt lat="42.28853" lon="23.12086">
        <ele>544.880846</ele>
        <time>2022-02-23T08:48:52.688Z</time>
      </trkpt>
      <trkpt lat="42.28763" lon="23.12152">
        <ele>543.56857</ele>
        <time>2022-02-23T08:49:14.864Z</time>
      </trkpt>
      <trkpt lat="42.28738" lon="23.12171">
        <ele>543.224786</ele>
        <time>2022-02-23T08:49:21.570Z</time>
      </trkpt>
      <trkpt lat="42.28662" lon="23.12227">
        <ele>542.27909</ele>
        <time>2022-02-23T08:49:42.672Z</time>
      </trkpt>
      <trkpt lat="42.28627" lon="23.12243">
        <ele>541.987245</ele>
        <time>2022-02-23T08:49:51.926Z</time>
      </trkpt>
      <trkpt lat="42.28563" lon="23.1226">
        <ele>541.474485</ele>
        <time>2022-02-23T08:50:08.759Z</time>
      </trkpt>
      <trkpt lat="42.28453" lon="23.12262">
        <ele>539.408774</ele>
        <time>2022-02-23T08:50:32.836Z</time>
      </trkpt>
      <trkpt lat="42.28405" lon="23.12289">
        <ele>537.820843</ele>
        <time>2022-02-23T08:50:43.150Z</time>
      </trkpt>
      <trkpt lat="42.28394" lon="23.123">
        <ele>537.401815</ele>
        <time>2022-02-23T08:50:45.763Z</time>
      </trkpt>
      <trkpt lat="42.28367" lon="23.12348">
        <ele>536.053489</ele>
        <time>2022-02-23T08:50:53.988Z</time>
      </trkpt>
      <trkpt lat="42.28347" lon="23.12391">
        <ele>534.752199</ele>
        <time>2022-02-23T08:51:01.329Z</time>
      </trkpt>
      <trkpt lat="42.28314" lon="23.12464">
        <ele>532.390003</ele>
        <time>2022-02-23T08:51:13.380Z</time>
      </trkpt>
      <trkpt lat="42.28303" lon="23.12487">
        <ele>531.618546</ele>
        <time>2022-02-23T08:51:17.321Z</time>
      </trkpt>
      <trkpt lat="42.28276" lon="23.12542">
        <ele>529.801436</ele>
        <time>2022-02-23T08:51:27.253Z</time>
      </trkpt>
      <trkpt lat="42.28261" lon="23.12575">
        <ele>528.812775</ele>
        <time>2022-02-23T08:51:33.567Z</time>
      </trkpt>
      <trkpt lat="42.28253" lon="23.12593">
        <ele>528.891053</ele>
        <time>2022-02-23T08:51:37.190Z</time>
      </trkpt>
      <trkpt lat="42.28234" lon="23.12634">
        <ele>529.063604</ele>
        <time>2022-02-23T08:51:45.637Z</time>
      </trkpt>
      <trkpt lat="42.28258" lon="23.12601">
        <ele>529.2316</ele>
        <time>2022-02-23T08:51:54.491Z</time>
      </trkpt>
      <trkpt lat="42.284" lon="23.12457">
        <ele>532.152095</ele>
        <time>2022-02-23T08:53:03.130Z</time>
      </trkpt>
      <trkpt lat="42.28423" lon="23.12435">
        <ele>532.966541</ele>
        <time>2022-02-23T08:53:15.772Z</time>
      </trkpt>
      <trkpt lat="42.2843" lon="23.1243">
        <ele>533.207719</ele>
        <time>2022-02-23T08:53:19.390Z</time>
      </trkpt>
      <trkpt lat="42.28479" lon="23.12391">
        <ele>534.853245</ele>
        <time>2022-02-23T08:53:44.713Z</time>
      </trkpt>
      <trkpt lat="42.2852" lon="23.12359">
        <ele>536.131736</ele>
        <time>2022-02-23T08:54:05.570Z</time>
      </trkpt>
      <trkpt lat="42.28605" lon="23.12293">
        <ele>538.790324</ele>
        <time>2022-02-23T08:54:46.598Z</time>
      </trkpt>
      <trkpt lat="42.28719" lon="23.12203">
        <ele>540.978629</ele>
        <time>2022-02-23T08:55:31.898Z</time>
      </trkpt>
      <trkpt lat="42.28735" lon="23.12195">
        <ele>541.194267</ele>
        <time>2022-02-23T08:55:37.114Z</time>
      </trkpt>
      <trkpt lat="42.28751" lon="23.12195">
        <ele>541.401074</ele>
        <time>2022-02-23T08:55:43.443Z</time>
      </trkpt>
      <trkpt lat="42.28766" lon="23.12198">
        <ele>541.595945</ele>
        <time>2022-02-23T08:55:47.978Z</time>
      </trkpt>
      <trkpt lat="42.28771" lon="23.12203">
        <ele>541.670065</ele>
        <time>2022-02-23T08:55:50.424Z</time>
      </trkpt>
      <trkpt lat="42.28779" lon="23.12205">
        <ele>541.77171</ele>
        <time>2022-02-23T08:55:54.163Z</time>
      </trkpt>
      <trkpt lat="42.28792" lon="23.12193">
        <ele>541.970023</ele>
        <time>2022-02-23T08:56:00.080Z</time>
      </trkpt>
      <trkpt lat="42.28795" lon="23.12183">
        <ele>542.056061</ele>
        <time>2022-02-23T08:56:03.092Z</time>
      </trkpt>
      <trkpt lat="42.28793" lon="23.12171">
        <ele>542.091733</ele>
        <time>2022-02-23T08:56:07.070Z</time>
      </trkpt>
      <trkpt lat="42.28794" lon="23.1216">
        <ele>542.123048</ele>
        <time>2022-02-23T08:56:09.933Z</time>
      </trkpt>
      <trkpt lat="42.28797" lon="23.12139">
        <ele>542.186089</ele>
        <time>2022-02-23T08:56:14.103Z</time>
      </trkpt>
      <trkpt lat="42.28803" lon="23.12127">
        <ele>542.225766</ele>
        <time>2022-02-23T08:56:17.422Z</time>
      </trkpt>
      <trkpt lat="42.28853" lon="23.12086">
        <ele>542.453328</ele>
        <time>2022-02-23T08:56:33.637Z</time>
      </trkpt>
      <trkpt lat="42.28853" lon="23.12086">
        <ele>542.453328</ele>
        <time>2022-02-23T08:56:33.683Z</time>
      </trkpt>
      <trkpt lat="42.28763" lon="23.12152">
        <ele>542.661573</ele>
        <time>2022-02-23T08:57:01.836Z</time>
      </trkpt>
      <trkpt lat="42.28738" lon="23.12171">
        <ele>542.565538</ele>
        <time>2022-02-23T08:57:08.966Z</time>
      </trkpt>
      <trkpt lat="42.28662" lon="23.12227">
        <ele>542.277839</ele>
        <time>2022-02-23T08:57:30.312Z</time>
      </trkpt>
      <trkpt lat="42.28627" lon="23.12243">
        <ele>542.154841</ele>
        <time>2022-02-23T08:57:39.565Z</time>
      </trkpt>
      <trkpt lat="42.28563" lon="23.1226">
        <ele>541.315919</ele>
        <time>2022-02-23T08:57:56.398Z</time>
      </trkpt>
      <trkpt lat="42.28453" lon="23.12262">
        <ele>539.884538</ele>
        <time>2022-02-23T08:58:20.476Z</time>
      </trkpt>
      <trkpt lat="42.28405" lon="23.12289">
        <ele>538.020143</ele>
        <time>2022-02-23T08:58:30.790Z</time>
      </trkpt>
      <trkpt lat="42.28394" lon="23.123">
        <ele>537.486487</ele>
        <time>2022-02-23T08:58:33.402Z</time>
      </trkpt>
      <trkpt lat="42.28367" lon="23.12348">
        <ele>535.769317</ele>
        <time>2022-02-23T08:58:41.628Z</time>
      </trkpt>
      <trkpt lat="42.28347" lon="23.12391">
        <ele>534.294462</ele>
        <time>2022-02-23T08:58:48.969Z</time>
      </trkpt>
      <trkpt lat="42.28314" lon="23.12464">
        <ele>531.834722</ele>
        <time>2022-02-23T08:59:01.019Z</time>
      </trkpt>
      <trkpt lat="42.28303" lon="23.12487">
        <ele>531.029723</ele>
        <time>2022-02-23T08:59:04.902Z</time>
      </trkpt>
      <trkpt lat="42.28276" lon="23.12542">
        <ele>529.133609</ele>
        <time>2022-02-23T08:59:14.399Z</time>
      </trkpt>
      <trkpt lat="42.28261" lon="23.12575">
        <ele>528.015695</ele>
        <time>2022-02-23T08:59:20.186Z</time>
      </trkpt>
      <trkpt lat="42.28253" lon="23.12593">
        <ele>527.391576</ele>
        <time>2022-02-23T08:59:23.433Z</time>
      </trkpt>
      <trkpt lat="42.28234" lon="23.12634">
        <ele>526.015806</ele>
        <time>2022-02-23T08:59:30.705Z</time>
      </trkpt>
      <trkpt lat="42.28231" lon="23.12639">
        <ele>525.818434</ele>
        <time>2022-02-23T08:59:31.757Z</time>
      </trkpt>
      <trkpt lat="42.28217" lon="23.12661">
        <ele>525.34787</ele>
        <time>2022-02-23T08:59:36.239Z</time>
      </trkpt>
      <trkpt lat="42.282" lon="23.12679">
        <ele>524.894562</ele>
        <time>2022-02-23T08:59:40.917Z</time>
      </trkpt>
      <trkpt lat="42.28182" lon="23.12692">
        <ele>524.463398</ele>
        <time>2022-02-23T08:59:45.231Z</time>
      </trkpt>
      <trkpt lat="42.28108" lon="23.12726">
        <ele>522.812215</ele>
        <time>2022-02-23T09:00:02.369Z</time>
      </trkpt>
      <trkpt lat="42.27935" lon="23.12797">
        <ele>520.50666</ele>
        <time>2022-02-23T09:00:45.289Z</time>
      </trkpt>
      <trkpt lat="42.27909" lon="23.12807">
        <ele>520.219337</ele>
        <time>2022-02-23T09:00:52.415Z</time>
      </trkpt>
      <trkpt lat="42.27844" lon="23.12835">
        <ele>519.943036</ele>
        <time>2022-02-23T09:01:10.148Z</time>
      </trkpt>
      <trkpt lat="42.27805" lon="23.12851">
        <ele>519.826689</ele>
        <time>2022-02-23T09:01:20.704Z</time>
      </trkpt>
      <trkpt lat="42.27779" lon="23.12862">
        <ele>519.747686</ele>
        <time>2022-02-23T09:01:27.929Z</time>
      </trkpt>
      <trkpt lat="42.27745" lon="23.1289">
        <ele>519.633026</ele>
        <time>2022-02-23T09:01:38.746Z</time>
      </trkpt>
      <trkpt lat="42.27728" lon="23.12912">
        <ele>519.613031</ele>
        <time>2022-02-23T09:01:45.176Z</time>
      </trkpt>
      <trkpt lat="42.27725" lon="23.12916">
        <ele>519.626109</ele>
        <time>2022-02-23T09:01:46.382Z</time>
      </trkpt>
      <trkpt lat="42.27673" lon="23.12983">
        <ele>519.835266</ele>
        <time>2022-02-23T09:02:07.188Z</time>
      </trkpt>
      <trkpt lat="42.27636" lon="23.13034">
        <ele>519.989662</ele>
        <time>2022-02-23T09:02:22.992Z</time>
      </trkpt>
      <trkpt lat="42.27616" lon="23.13054">
        <ele>520.062466</ele>
        <time>2022-02-23T09:02:30.132Z</time>
      </trkpt>
      <trkpt lat="42.27595" lon="23.13071">
        <ele>520.138425</ele>
        <time>2022-02-23T09:02:37.105Z</time>
      </trkpt>
      <trkpt lat="42.27584" lon="23.13077">
        <ele>520.183576</ele>
        <time>2022-02-23T09:02:40.748Z</time>
      </trkpt>
      <trkpt lat="42.27561" lon="23.13078">
        <ele>520.270234</ele>
        <time>2022-02-23T09:02:47.489Z</time>
      </trkpt>
      <trkpt lat="42.27514" lon="23.13076">
        <ele>520.445376</ele>
        <time>2022-02-23T09:03:01.262Z</time>
      </trkpt>
      <trkpt lat="42.27505" lon="23.13076">
        <ele>520.477999</ele>
        <time>2022-02-23T09:03:03.744Z</time>
      </trkpt>
      <trkpt lat="42.27496" lon="23.13075">
        <ele>520.513629</ele>
        <time>2022-02-23T09:03:06.515Z</time>
      </trkpt>
      <trkpt lat="42.27486" lon="23.13071">
        <ele>520.551994</ele>
        <time>2022-02-23T09:03:09.386Z</time>
      </trkpt>
      <trkpt lat="42.27425" lon="23.1307">
        <ele>520.781379</ele>
        <time>2022-02-23T09:03:26.118Z</time>
      </trkpt>
      <trkpt lat="42.27419" lon="23.1307">
        <ele>520.830914</ele>
        <time>2022-02-23T09:03:27.652Z</time>
      </trkpt>
      <trkpt lat="42.27364" lon="23.13065">
        <ele>521.401949</ele>
        <time>2022-02-23T09:03:42.534Z</time>
      </trkpt>
      <trkpt lat="42.27325" lon="23.13062">
        <ele>521.799391</ele>
        <time>2022-02-23T09:03:54.662Z</time>
      </trkpt>
      <trkpt lat="42.27323" lon="23.13052">
        <ele>521.876172</ele>
        <time>2022-02-23T09:03:57.076Z</time>
      </trkpt>
      <trkpt lat="42.27317" lon="23.13045">
        <ele>521.961016</ele>
        <time>2022-02-23T09:04:00.310Z</time>
      </trkpt>
      <trkpt lat="42.27306" lon="23.13044">
        <ele>522.075654</ele>
        <time>2022-02-23T09:04:04.598Z</time>
      </trkpt>
      <trkpt lat="42.27291" lon="23.13043">
        <ele>522.227206</ele>
        <time>2022-02-23T09:04:10.209Z</time>
      </trkpt>
      <trkpt lat="42.27222" lon="23.13044">
        <ele>522.432669</ele>
        <time>2022-02-23T09:04:35.357Z</time>
      </trkpt>
      <trkpt lat="42.27214" lon="23.13047">
        <ele>522.375618</ele>
        <time>2022-02-23T09:04:37.860Z</time>
      </trkpt>
      <trkpt lat="42.27212" lon="23.13052">
        <ele>522.348447</ele>
        <time>2022-02-23T09:04:39.593Z</time>
      </trkpt>
      <trkpt lat="42.27197" lon="23.13054">
        <ele>522.239653</ele>
        <time>2022-02-23T09:04:43.721Z</time>
      </trkpt>
      <trkpt lat="42.27182" lon="23.1305">
        <ele>522.130793</ele>
        <time>2022-02-23T09:04:47.641Z</time>
      </trkpt>
      <trkpt lat="42.27138" lon="23.13041">
        <ele>521.811737</ele>
        <time>2022-02-23T09:04:58.853Z</time>
      </trkpt>
      <trkpt lat="42.27139" lon="23.13034">
        <ele>521.772196</ele>
        <time>2022-02-23T09:04:59.963Z</time>
      </trkpt>
      <trkpt lat="42.27057" lon="23.12855">
        <ele>518.269051</ele>
        <time>2022-02-23T09:05:30.717Z</time>
      </trkpt>
      <trkpt lat="42.27043" lon="23.12823">
        <ele>517.418349</ele>
        <time>2022-02-23T09:05:35.663Z</time>
      </trkpt>
      <trkpt lat="42.27024" lon="23.12779">
        <ele>516.238606</ele>
        <time>2022-02-23T09:05:42.867Z</time>
      </trkpt>
      <trkpt lat="42.26968" lon="23.12787">
        <ele>515.284122</ele>
        <time>2022-02-23T09:05:54.748Z</time>
      </trkpt>
      <trkpt lat="42.2692" lon="23.12797">
        <ele>514.781057</ele>
        <time>2022-02-23T09:06:06.031Z</time>
      </trkpt>
      <trkpt lat="42.26914" lon="23.12798">
        <ele>514.713187</ele>
        <time>2022-02-23T09:06:07.614Z</time>
      </trkpt>
      <trkpt lat="42.26902" lon="23.12793">
        <ele>514.583422</ele>
        <time>2022-02-23T09:06:10.658Z</time>
      </trkpt>
      <trkpt lat="42.26897" lon="23.12788">
        <ele>514.517925</ele>
        <time>2022-02-23T09:06:12.216Z</time>
      </trkpt>
      <trkpt lat="42.26883" lon="23.12772">
        <ele>514.324559</ele>
        <time>2022-02-23T09:06:16.960Z</time>
      </trkpt>
      <trkpt lat="42.26877" lon="23.12768">
        <ele>514.251844</ele>
        <time>2022-02-23T09:06:18.736Z</time>
      </trkpt>
      <trkpt lat="42.26814" lon="23.12764">
        <ele>513.680444</ele>
        <time>2022-02-23T09:06:34.834Z</time>
      </trkpt>
      <trkpt lat="42.26798" lon="23.12754">
        <ele>513.574905</ele>
        <time>2022-02-23T09:06:39.546Z</time>
      </trkpt>
      <trkpt lat="42.26784" lon="23.12737">
        <ele>513.463974</ele>
        <time>2022-02-23T09:06:44.277Z</time>
      </trkpt>
      <trkpt lat="42.2675" lon="23.12677">
        <ele>513.130809</ele>
        <time>2022-02-23T09:06:59.116Z</time>
      </trkpt>
      <trkpt lat="42.26742" lon="23.12659">
        <ele>513.035629</ele>
        <time>2022-02-23T09:07:02.644Z</time>
      </trkpt>
      <trkpt lat="42.26741" lon="23.12599">
        <ele>512.770686</ele>
        <time>2022-02-23T09:07:13.037Z</time>
      </trkpt>
      <trkpt lat="42.26743" lon="23.12587">
        <ele>512.691458</ele>
        <time>2022-02-23T09:07:15.249Z</time>
      </trkpt>
      <trkpt lat="42.26746" lon="23.12571">
        <ele>512.54016</ele>
        <time>2022-02-23T09:07:17.839Z</time>
      </trkpt>
      <trkpt lat="42.26758" lon="23.12542">
        <ele>512.230153</ele>
        <time>2022-02-23T09:07:23.483Z</time>
      </trkpt>
      <trkpt lat="42.26767" lon="23.1252">
        <ele>511.985222</ele>
        <time>2022-02-23T09:07:27.951Z</time>
      </trkpt>
      <trkpt lat="42.26706" lon="23.12413">
        <ele>510.709066</ele>
        <time>2022-02-23T09:07:51.749Z</time>
      </trkpt>
      <trkpt lat="42.26682" lon="23.12369">
        <ele>510.282593</ele>
        <time>2022-02-23T09:08:01.340Z</time>
      </trkpt>
      <trkpt lat="42.26666" lon="23.12335">
        <ele>510.039977</ele>
        <time>2022-02-23T09:08:08.100Z</time>
      </trkpt>
      <trkpt lat="42.26663" lon="23.12316">
        <ele>509.919362</ele>
        <time>2022-02-23T09:08:11.562Z</time>
      </trkpt>
      <trkpt lat="42.2666" lon="23.12312">
        <ele>509.884439</ele>
        <time>2022-02-23T09:08:12.579Z</time>
      </trkpt>
      <trkpt lat="42.26648" lon="23.12294">
        <ele>509.736822</ele>
        <time>2022-02-23T09:08:16.622Z</time>
      </trkpt>
      <trkpt lat="42.26644" lon="23.12288">
        <ele>509.687172</ele>
        <time>2022-02-23T09:08:18.182Z</time>
      </trkpt>
      <trkpt lat="42.26652" lon="23.12276">
        <ele>509.589203</ele>
        <time>2022-02-23T09:08:21.034Z</time>
      </trkpt>
      <trkpt lat="42.26659" lon="23.12268">
        <ele>509.513703</ele>
        <time>2022-02-23T09:08:23.187Z</time>
      </trkpt>
      <trkpt lat="42.26684" lon="23.12237">
        <ele>509.232083</ele>
        <time>2022-02-23T09:08:31.782Z</time>
      </trkpt>
      <trkpt lat="42.26737" lon="23.12178">
        <ele>509.116492</ele>
        <time>2022-02-23T09:08:49.369Z</time>
      </trkpt>
      <trkpt lat="42.26747" lon="23.12164">
        <ele>509.181929</ele>
        <time>2022-02-23T09:08:53.015Z</time>
      </trkpt>
      <trkpt lat="42.26753" lon="23.12155">
        <ele>509.22104</ele>
        <time>2022-02-23T09:08:55.534Z</time>
      </trkpt>
      <trkpt lat="42.26766" lon="23.12115">
        <ele>509.363605</ele>
        <time>2022-02-23T09:09:03.880Z</time>
      </trkpt>
      <trkpt lat="42.26762" lon="23.12079">
        <ele>509.482483</ele>
        <time>2022-02-23T09:09:11.361Z</time>
      </trkpt>
      <trkpt lat="42.26746" lon="23.12038">
        <ele>509.633849</ele>
        <time>2022-02-23T09:09:21.889Z</time>
      </trkpt>
      <trkpt lat="42.26728" lon="23.11994">
        <ele>509.92086</ele>
        <time>2022-02-23T09:09:34.688Z</time>
      </trkpt>
      <trkpt lat="42.26726" lon="23.11988">
        <ele>510.00249</ele>
        <time>2022-02-23T09:09:36.415Z</time>
      </trkpt>
      <trkpt lat="42.26722" lon="23.11988">
        <ele>510.070499</ele>
        <time>2022-02-23T09:09:38.003Z</time>
      </trkpt>
      <trkpt lat="42.26716" lon="23.11984">
        <ele>510.174741</ele>
        <time>2022-02-23T09:09:40.345Z</time>
      </trkpt>
      <trkpt lat="42.26702" lon="23.11964">
        <ele>510.524797</ele>
        <time>2022-02-23T09:09:48.087Z</time>
      </trkpt>
      <trkpt lat="42.2667" lon="23.11894">
        <ele>511.560783</ele>
        <time>2022-02-23T09:10:10.382Z</time>
      </trkpt>
      <trkpt lat="42.26651" lon="23.11844">
        <ele>512.260463</ele>
        <time>2022-02-23T09:10:24.575Z</time>
      </trkpt>
      <trkpt lat="42.2664" lon="23.11817">
        <ele>512.648427</ele>
        <time>2022-02-23T09:10:32.502Z</time>
      </trkpt>
      <trkpt lat="42.26628" lon="23.11783">
        <ele>512.856753</ele>
        <time>2022-02-23T09:10:41.837Z</time>
      </trkpt>
      <trkpt lat="42.26612" lon="23.11732">
        <ele>512.951749</ele>
        <time>2022-02-23T09:10:54.517Z</time>
      </trkpt>
      <trkpt lat="42.26597" lon="23.11682">
        <ele>513.045364</ele>
        <time>2022-02-23T09:11:05.443Z</time>
      </trkpt>
      <trkpt lat="42.26583" lon="23.11643">
        <ele>513.120728</ele>
        <time>2022-02-23T09:11:13.469Z</time>
      </trkpt>
      <trkpt lat="42.26572" lon="23.11604">
        <ele>513.192078</ele>
        <time>2022-02-23T09:11:21.020Z</time>
      </trkpt>
      <trkpt lat="42.26556" lon="23.11549">
        <ele>513.301727</ele>
        <time>2022-02-23T09:11:31.435Z</time>
      </trkpt>
      <trkpt lat="42.26544" lon="23.11515">
        <ele>513.376083</ele>
        <time>2022-02-23T09:11:38.776Z</time>
      </trkpt>
      <trkpt lat="42.26544" lon="23.11487">
        <ele>513.430753</ele>
        <time>2022-02-23T09:11:44.203Z</time>
      </trkpt>
      <trkpt lat="42.26543" lon="23.11484">
        <ele>513.43731</ele>
        <time>2022-02-23T09:11:44.869Z</time>
      </trkpt>
      <trkpt lat="42.26542" lon="23.11481">
        <ele>513.443244</ele>
        <time>2022-02-23T09:11:45.491Z</time>
      </trkpt>
      <trkpt lat="42.26541" lon="23.11479">
        <ele>513.449249</ele>
        <time>2022-02-23T09:11:46.101Z</time>
      </trkpt>
      <trkpt lat="42.26539" lon="23.11477">
        <ele>513.455107</ele>
        <time>2022-02-23T09:11:46.826Z</time>
      </trkpt>
      <trkpt lat="42.2653" lon="23.11475">
        <ele>513.478165</ele>
        <time>2022-02-23T09:11:49.223Z</time>
      </trkpt>
      <trkpt lat="42.26528" lon="23.11475">
        <ele>513.484015</ele>
        <time>2022-02-23T09:11:49.919Z</time>
      </trkpt>
      <trkpt lat="42.26526" lon="23.11477">
        <ele>513.49065</ele>
        <time>2022-02-23T09:11:50.607Z</time>
      </trkpt>
      <trkpt lat="42.26524" lon="23.11479">
        <ele>513.497294</ele>
        <time>2022-02-23T09:11:51.257Z</time>
      </trkpt>
      <trkpt lat="42.26497" lon="23.11501">
        <ele>513.580663</ele>
        <time>2022-02-23T09:12:00.227Z</time>
      </trkpt>
      <trkpt lat="42.26485" lon="23.11509">
        <ele>513.616282</ele>
        <time>2022-02-23T09:12:03.945Z</time>
      </trkpt>
      <trkpt lat="42.26439" lon="23.11528">
        <ele>513.879669</ele>
        <time>2022-02-23T09:12:18.846Z</time>
      </trkpt>
      <trkpt lat="42.26427" lon="23.11531">
        <ele>514.045858</ele>
        <time>2022-02-23T09:12:22.880Z</time>
      </trkpt>
      <trkpt lat="42.26408" lon="23.11432">
        <ele>515.087815</ele>
        <time>2022-02-23T09:12:49.893Z</time>
      </trkpt>
      <trkpt lat="42.26404" lon="23.11408">
        <ele>515.336843</ele>
        <time>2022-02-23T09:12:56.161Z</time>
      </trkpt>
      <trkpt lat="42.26398" lon="23.11369">
        <ele>515.747046</ele>
        <time>2022-02-23T09:13:06.570Z</time>
      </trkpt>
      <trkpt lat="42.26393" lon="23.11316">
        <ele>516.174648</ele>
        <time>2022-02-23T09:13:19.204Z</time>
      </trkpt>
      <trkpt lat="42.2639" lon="23.11281">
        <ele>516.136294</ele>
        <time>2022-02-23T09:13:26.964Z</time>
      </trkpt>
      <trkpt lat="42.26387" lon="23.11164">
        <ele>516.009799</ele>
        <time>2022-02-23T09:13:50.831Z</time>
      </trkpt>
      <trkpt lat="42.26385" lon="23.11139">
        <ele>515.983385</ele>
        <time>2022-02-23T09:13:55.433Z</time>
      </trkpt>
      <trkpt lat="42.26378" lon="23.11118">
        <ele>515.958684</ele>
        <time>2022-02-23T09:13:59.530Z</time>
      </trkpt>
      <trkpt lat="42.26368" lon="23.11093">
        <ele>515.927605</ele>
        <time>2022-02-23T09:14:04.510Z</time>
      </trkpt>
      <trkpt lat="42.26293" lon="23.10931">
        <ele>512.466487</ele>
        <time>2022-02-23T09:14:33.347Z</time>
      </trkpt>
      <trkpt lat="42.26245" lon="23.10878">
        <ele>510.934286</ele>
        <time>2022-02-23T09:14:45.220Z</time>
      </trkpt>
      <trkpt lat="42.26234" lon="23.10866">
        <ele>510.569799</ele>
        <time>2022-02-23T09:14:47.997Z</time>
      </trkpt>
      <trkpt lat="42.26146" lon="23.10769">
        <ele>507.656272</ele>
        <time>2022-02-23T09:15:11.000Z</time>
      </trkpt>
      <trkpt lat="42.26122" lon="23.10743">
        <ele>506.870305</ele>
        <time>2022-02-23T09:15:17.505Z</time>
      </trkpt>
      <trkpt lat="42.261" lon="23.10719">
        <ele>506.637023</ele>
        <time>2022-02-23T09:15:23.712Z</time>
      </trkpt>
      <trkpt lat="42.2608" lon="23.10697">
        <ele>506.42259</ele>
        <time>2022-02-23T09:15:29.679Z</time>
      </trkpt>
      <trkpt lat="42.26003" lon="23.10613">
        <ele>505.598244</ele>
        <time>2022-02-23T09:15:54.098Z</time>
      </trkpt>
      <trkpt lat="42.25988" lon="23.10597">
        <ele>505.439297</ele>
        <time>2022-02-23T09:15:59.217Z</time>
      </trkpt>
      <trkpt lat="42.25977" lon="23.10585">
        <ele>505.307928</ele>
        <time>2022-02-23T09:16:02.991Z</time>
      </trkpt>
      <trkpt lat="42.25857" lon="23.10446">
        <ele>503.630966</ele>
        <time>2022-02-23T09:16:39.844Z</time>
      </trkpt>
      <trkpt lat="42.25805" lon="23.10384">
        <ele>502.229732</ele>
        <time>2022-02-23T09:16:54.289Z</time>
      </trkpt>
      <trkpt lat="42.25781" lon="23.10357">
        <ele>501.508438</ele>
        <time>2022-02-23T09:17:00.708Z</time>
      </trkpt>
      <trkpt lat="42.25615" lon="23.10223">
        <ele>496.484817</ele>
        <time>2022-02-23T09:17:39.796Z</time>
      </trkpt>
      <trkpt lat="42.25562" lon="23.10182">
        <ele>494.751033</ele>
        <time>2022-02-23T09:17:51.776Z</time>
      </trkpt>
      <trkpt lat="42.25421" lon="23.10074">
        <ele>489.394818</ele>
        <time>2022-02-23T09:18:23.407Z</time>
      </trkpt>
      <trkpt lat="42.25332" lon="23.10004">
        <ele>485.844116</ele>
        <time>2022-02-23T09:18:43.169Z</time>
      </trkpt>
      <trkpt lat="42.25319" lon="23.09996">
        <ele>485.353456</ele>
        <time>2022-02-23T09:18:45.822Z</time>
      </trkpt>
      <trkpt lat="42.25318" lon="23.09994">
        <ele>485.281653</ele>
        <time>2022-02-23T09:18:46.216Z</time>
      </trkpt>
      <trkpt lat="42.25317" lon="23.09981">
        <ele>484.929272</ele>
        <time>2022-02-23T09:18:48.170Z</time>
      </trkpt>
      <trkpt lat="42.25318" lon="23.09969">
        <ele>484.6342</ele>
        <time>2022-02-23T09:18:49.810Z</time>
      </trkpt>
      <trkpt lat="42.25317" lon="23.09954">
        <ele>484.234292</ele>
        <time>2022-02-23T09:18:51.955Z</time>
      </trkpt>
      <trkpt lat="42.25304" lon="23.09858">
        <ele>481.74102</ele>
        <time>2022-02-23T09:19:05.909Z</time>
      </trkpt>
      <trkpt lat="42.25302" lon="23.09786">
        <ele>480.275039</ele>
        <time>2022-02-23T09:19:16.235Z</time>
      </trkpt>
      <trkpt lat="42.25298" lon="23.09685">
        <ele>478.218039</ele>
        <time>2022-02-23T09:19:31.394Z</time>
      </trkpt>
      <trkpt lat="42.25298" lon="23.09667">
        <ele>477.84852</ele>
        <time>2022-02-23T09:19:34.210Z</time>
      </trkpt>
      <trkpt lat="42.25296" lon="23.09649">
        <ele>477.487413</ele>
        <time>2022-02-23T09:19:36.836Z</time>
      </trkpt>
      <trkpt lat="42.25293" lon="23.09634">
        <ele>477.168725</ele>
        <time>2022-02-23T09:19:39.242Z</time>
      </trkpt>
      <trkpt lat="42.2529" lon="23.09622">
        <ele>476.910198</ele>
        <time>2022-02-23T09:19:41.251Z</time>
      </trkpt>
      <trkpt lat="42.25289" lon="23.09614">
        <ele>476.822103</ele>
        <time>2022-02-23T09:19:42.484Z</time>
      </trkpt>
      <trkpt lat="42.25285" lon="23.09595">
        <ele>476.65834</ele>
        <time>2022-02-23T09:19:45.530Z</time>
      </trkpt>
      <trkpt lat="42.25284" lon="23.09573">
        <ele>476.474145</ele>
        <time>2022-02-23T09:19:49.113Z</time>
      </trkpt>
      <trkpt lat="42.25287" lon="23.09564">
        <ele>476.394475</ele>
        <time>2022-02-23T09:19:50.588Z</time>
      </trkpt>
      <trkpt lat="42.2529" lon="23.0956">
        <ele>476.343949</ele>
        <time>2022-02-23T09:19:51.561Z</time>
      </trkpt>
      <trkpt lat="42.25293" lon="23.09556">
        <ele>476.296272</ele>
        <time>2022-02-23T09:19:52.483Z</time>
      </trkpt>
      <trkpt lat="42.25294" lon="23.09545">
        <ele>476.201235</ele>
        <time>2022-02-23T09:19:54.353Z</time>
      </trkpt>
      <trkpt lat="42.25293" lon="23.09539">
        <ele>476.152858</ele>
        <time>2022-02-23T09:19:55.322Z</time>
      </trkpt>
      <trkpt lat="42.25291" lon="23.09534">
        <ele>476.105005</ele>
        <time>2022-02-23T09:19:56.268Z</time>
      </trkpt>
      <trkpt lat="42.25288" lon="23.09531">
        <ele>476.063367</ele>
        <time>2022-02-23T09:19:57.096Z</time>
      </trkpt>
      <trkpt lat="42.25285" lon="23.09528">
        <ele>476.020473</ele>
        <time>2022-02-23T09:19:57.877Z</time>
      </trkpt>
      <trkpt lat="42.25274" lon="23.09518">
        <ele>475.87415</ele>
        <time>2022-02-23T09:20:00.863Z</time>
      </trkpt>
      <trkpt lat="42.25267" lon="23.0951">
        <ele>475.768248</ele>
        <time>2022-02-23T09:20:03.095Z</time>
      </trkpt>
      <trkpt lat="42.25267" lon="23.09499">
        <ele>475.682237</ele>
        <time>2022-02-23T09:20:04.929Z</time>
      </trkpt>
      <trkpt lat="42.25272" lon="23.09403">
        <ele>474.872756</ele>
        <time>2022-02-23T09:20:22.692Z</time>
      </trkpt>
      <trkpt lat="42.25279" lon="23.0926">
        <ele>476.950814</ele>
        <time>2022-02-23T09:20:57.664Z</time>
      </trkpt>
      <trkpt lat="42.25281" lon="23.09235">
        <ele>477.328865</ele>
        <time>2022-02-23T09:21:05.969Z</time>
      </trkpt>
      <trkpt lat="42.25281" lon="23.09222">
        <ele>477.513469</ele>
        <time>2022-02-23T09:21:09.699Z</time>
      </trkpt>
      <trkpt lat="42.2528" lon="23.09189">
        <ele>478.01746</ele>
        <time>2022-02-23T09:21:21.299Z</time>
      </trkpt>
      <trkpt lat="42.2526" lon="23.09112">
        <ele>479.912569</ele>
        <time>2022-02-23T09:21:49.203Z</time>
      </trkpt>
      <trkpt lat="42.25256" lon="23.09091">
        <ele>480.542321</ele>
        <time>2022-02-23T09:21:57.440Z</time>
      </trkpt>
      <trkpt lat="42.25254" lon="23.09051">
        <ele>481.721752</ele>
        <time>2022-02-23T09:22:12.074Z</time>
      </trkpt>
      <trkpt lat="42.25254" lon="23.08975">
        <ele>483.919058</ele>
        <time>2022-02-23T09:22:38.736Z</time>
      </trkpt>
      <trkpt lat="42.25254" lon="23.08958">
        <ele>484.419894</ele>
        <time>2022-02-23T09:22:44.570Z</time>
      </trkpt>
      <trkpt lat="42.25254" lon="23.08951">
        <ele>484.610653</ele>
        <time>2022-02-23T09:22:47.010Z</time>
      </trkpt>
      <trkpt lat="42.25258" lon="23.08919">
        <ele>485.541998</ele>
        <time>2022-02-23T09:22:57.390Z</time>
      </trkpt>
      <trkpt lat="42.25282" lon="23.08827">
        <ele>487.51741</ele>
        <time>2022-02-23T09:23:27.985Z</time>
      </trkpt>
      <trkpt lat="42.2531" lon="23.08766">
        <ele>488.991354</ele>
        <time>2022-02-23T09:23:48.680Z</time>
      </trkpt>
      <trkpt lat="42.25356" lon="23.08686">
        <ele>491.08877</ele>
        <time>2022-02-23T09:24:18.323Z</time>
      </trkpt>
      <trkpt lat="42.25372" lon="23.08668">
        <ele>491.728639</ele>
        <time>2022-02-23T09:24:27.030Z</time>
      </trkpt>
      <trkpt lat="42.25388" lon="23.08649">
        <ele>492.379182</ele>
        <time>2022-02-23T09:24:35.856Z</time>
      </trkpt>
      <trkpt lat="42.25404" lon="23.08636">
        <ele>492.937112</ele>
        <time>2022-02-23T09:24:43.956Z</time>
      </trkpt>
      <trkpt lat="42.25438" lon="23.08598">
        <ele>494.259017</ele>
        <time>2022-02-23T09:25:03.385Z</time>
      </trkpt>
      <trkpt lat="42.25457" lon="23.08576">
        <ele>494.997684</ele>
        <time>2022-02-23T09:25:14.156Z</time>
      </trkpt>
      <trkpt lat="42.25491" lon="23.0851">
        <ele>496.53539</ele>
        <time>2022-02-23T09:25:39.712Z</time>
      </trkpt>
      <trkpt lat="42.25514" lon="23.08463">
        <ele>497.427019</ele>
        <time>2022-02-23T09:25:56.327Z</time>
      </trkpt>
      <trkpt lat="42.25523" lon="23.08444">
        <ele>497.791805</ele>
        <time>2022-02-23T09:26:02.745Z</time>
      </trkpt>
      <trkpt lat="42.25533" lon="23.08432">
        <ele>498.073224</ele>
        <time>2022-02-23T09:26:07.149Z</time>
      </trkpt>
      <trkpt lat="42.25555" lon="23.08413">
        <ele>498.637949</ele>
        <time>2022-02-23T09:26:16.042Z</time>
      </trkpt>
      <trkpt lat="42.25578" lon="23.08386">
        <ele>499.289148</ele>
        <time>2022-02-23T09:26:26.835Z</time>
      </trkpt>
      <trkpt lat="42.25602" lon="23.08351">
        <ele>500.008703</ele>
        <time>2022-02-23T09:26:40.181Z</time>
      </trkpt>
      <trkpt lat="42.25625" lon="23.08284">
        <ele>500.990808</ele>
        <time>2022-02-23T09:27:00.048Z</time>
      </trkpt>
      <trkpt lat="42.25623" lon="23.08279">
        <ele>501.061508</ele>
        <time>2022-02-23T09:27:01.071Z</time>
      </trkpt>
      <trkpt lat="42.25631" lon="23.08253">
        <ele>501.447113</ele>
        <time>2022-02-23T09:27:08.881Z</time>
      </trkpt>
      <trkpt lat="42.25649" lon="23.08189">
        <ele>502.355074</ele>
        <time>2022-02-23T09:27:26.832Z</time>
      </trkpt>
      <trkpt lat="42.2569" lon="23.08097">
        <ele>503.97066</ele>
        <time>2022-02-23T09:27:57.153Z</time>
      </trkpt>
      <trkpt lat="42.25777" lon="23.07935">
        <ele>507.22039</ele>
        <time>2022-02-23T09:28:54.777Z</time>
      </trkpt>
      <trkpt lat="42.25863" lon="23.07778">
        <ele>510.172993</ele>
        <time>2022-02-23T09:29:48.715Z</time>
      </trkpt>
      <trkpt lat="42.25904" lon="23.07716">
        <ele>511.434919</ele>
        <time>2022-02-23T09:30:12.015Z</time>
      </trkpt>
      <trkpt lat="42.26123" lon="23.07483">
        <ele>517.247157</ele>
        <time>2022-02-23T09:31:56.568Z</time>
      </trkpt>
      <trkpt lat="42.26302" lon="23.07265">
        <ele>523.253745</ele>
        <time>2022-02-23T09:33:31.917Z</time>
      </trkpt>
      <trkpt lat="42.2637" lon="23.07205">
        <ele>525.919701</ele>
        <time>2022-02-23T09:34:06.696Z</time>
      </trkpt>
      <trkpt lat="42.26418" lon="23.07179">
        <ele>527.619192</ele>
        <time>2022-02-23T09:34:30.600Z</time>
      </trkpt>
      <trkpt lat="42.26467" lon="23.0716">
        <ele>529.358874</ele>
        <time>2022-02-23T09:34:54.259Z</time>
      </trkpt>
      <trkpt lat="42.26501" lon="23.07152">
        <ele>530.570052</ele>
        <time>2022-02-23T09:35:09.957Z</time>
      </trkpt>
      <trkpt lat="42.26521" lon="23.07146">
        <ele>531.266513</ele>
        <time>2022-02-23T09:35:18.377Z</time>
      </trkpt>
      <trkpt lat="42.26531" lon="23.07142">
        <ele>531.636016</ele>
        <time>2022-02-23T09:35:23.810Z</time>
      </trkpt>
      <trkpt lat="42.26554" lon="23.07129">
        <ele>532.520356</ele>
        <time>2022-02-23T09:35:34.384Z</time>
      </trkpt>
      <trkpt lat="42.26565" lon="23.0712">
        <ele>532.973488</ele>
        <time>2022-02-23T09:35:40.858Z</time>
      </trkpt>
      <trkpt lat="42.26572" lon="23.07114">
        <ele>533.268944</ele>
        <time>2022-02-23T09:35:44.016Z</time>
      </trkpt>
      <trkpt lat="42.26597" lon="23.07077">
        <ele>534.563148</ele>
        <time>2022-02-23T09:36:00.405Z</time>
      </trkpt>
      <trkpt lat="42.26605" lon="23.07051">
        <ele>535.040836</ele>
        <time>2022-02-23T09:36:09.959Z</time>
      </trkpt>
      <trkpt lat="42.2661" lon="23.07013">
        <ele>535.498809</ele>
        <time>2022-02-23T09:36:21.588Z</time>
      </trkpt>
      <trkpt lat="42.26607" lon="23.06963">
        <ele>536.096894</ele>
        <time>2022-02-23T09:36:36.745Z</time>
      </trkpt>
      <trkpt lat="42.26578" lon="23.0684">
        <ele>537.622097</ele>
        <time>2022-02-23T09:37:09.151Z</time>
      </trkpt>
      <trkpt lat="42.2658" lon="23.06773">
        <ele>536.178662</ele>
        <time>2022-02-23T09:37:20.483Z</time>
      </trkpt>
      <trkpt lat="42.26582" lon="23.06762">
        <ele>535.89733</ele>
        <time>2022-02-23T09:37:22.646Z</time>
      </trkpt>
      <trkpt lat="42.26585" lon="23.06751">
        <ele>535.580339</ele>
        <time>2022-02-23T09:37:24.531Z</time>
      </trkpt>
      <trkpt lat="42.26589" lon="23.0674">
        <ele>535.297698</ele>
        <time>2022-02-23T09:37:26.287Z</time>
      </trkpt>
      <trkpt lat="42.26594" lon="23.06729">
        <ele>534.957368</ele>
        <time>2022-02-23T09:37:28.221Z</time>
      </trkpt>
      <trkpt lat="42.26617" lon="23.06695">
        <ele>533.760745</ele>
        <time>2022-02-23T09:37:35.190Z</time>
      </trkpt>
      <trkpt lat="42.26629" lon="23.06684">
        <ele>533.257608</ele>
        <time>2022-02-23T09:37:38.071Z</time>
      </trkpt>
      <trkpt lat="42.26667" lon="23.06659">
        <ele>531.824907</ele>
        <time>2022-02-23T09:37:45.826Z</time>
      </trkpt>
      <trkpt lat="42.26702" lon="23.06636">
        <ele>529.187437</ele>
        <time>2022-02-23T09:37:52.994Z</time>
      </trkpt>
      <trkpt lat="42.26725" lon="23.06611">
        <ele>526.919207</ele>
        <time>2022-02-23T09:37:58.172Z</time>
      </trkpt>
      <trkpt lat="42.26741" lon="23.06581">
        <ele>524.811837</ele>
        <time>2022-02-23T09:38:02.998Z</time>
      </trkpt>
      <trkpt lat="42.26752" lon="23.06546">
        <ele>522.706866</ele>
        <time>2022-02-23T09:38:07.795Z</time>
      </trkpt>
      <trkpt lat="42.26756" lon="23.06476">
        <ele>518.683599</ele>
        <time>2022-02-23T09:38:17.033Z</time>
      </trkpt>
      <trkpt lat="42.26751" lon="23.06134">
        <ele>499.368574</ele>
        <time>2022-02-23T09:39:01.720Z</time>
      </trkpt>
      <trkpt lat="42.26755" lon="23.06075">
        <ele>496.413451</ele>
        <time>2022-02-23T09:39:09.670Z</time>
      </trkpt>
      <trkpt lat="42.26778" lon="23.05917">
        <ele>489.344842</ele>
        <time>2022-02-23T09:39:31.792Z</time>
      </trkpt>
      <trkpt lat="42.26816" lon="23.05647">
        <ele>481.561934</ele>
        <time>2022-02-23T09:40:11.782Z</time>
      </trkpt>
      <trkpt lat="42.26823" lon="23.05596">
        <ele>480.652468</ele>
        <time>2022-02-23T09:40:20.025Z</time>
      </trkpt>
      <trkpt lat="42.26827" lon="23.05557">
        <ele>479.942512</ele>
        <time>2022-02-23T09:40:26.657Z</time>
      </trkpt>
      <trkpt lat="42.26855" lon="23.05325">
        <ele>478.557076</ele>
        <time>2022-02-23T09:41:11.752Z</time>
      </trkpt>
      <trkpt lat="42.2688" lon="23.05153">
        <ele>478.781277</ele>
        <time>2022-02-23T09:41:50.173Z</time>
      </trkpt>
      <trkpt lat="42.26885" lon="23.0512">
        <ele>478.894332</ele>
        <time>2022-02-23T09:41:57.722Z</time>
      </trkpt>
      <trkpt lat="42.26892" lon="23.05079">
        <ele>479.033336</ele>
        <time>2022-02-23T09:42:07.005Z</time>
      </trkpt>
      <trkpt lat="42.27031" lon="23.04324">
        <ele>482.866101</ele>
        <time>2022-02-23T09:45:05.940Z</time>
      </trkpt>
      <trkpt lat="42.27039" lon="23.04273">
        <ele>483.108424</ele>
        <time>2022-02-23T09:45:17.685Z</time>
      </trkpt>
      <trkpt lat="42.27103" lon="23.03918">
        <ele>485.129407</ele>
        <time>2022-02-23T09:46:41.145Z</time>
      </trkpt>
      <trkpt lat="42.27109" lon="23.03871">
        <ele>485.449326</ele>
        <time>2022-02-23T09:46:52.835Z</time>
      </trkpt>
      <trkpt lat="42.27116" lon="23.03829">
        <ele>485.793741</ele>
        <time>2022-02-23T09:47:03.543Z</time>
      </trkpt>
      <trkpt lat="42.27192" lon="23.03352">
        <ele>492.777514</ele>
        <time>2022-02-23T09:49:17.285Z</time>
      </trkpt>
      <trkpt lat="42.27212" lon="23.032">
        <ele>495.500473</ele>
        <time>2022-02-23T09:50:03.990Z</time>
      </trkpt>
      <trkpt lat="42.27243" lon="23.02947">
        <ele>498.923157</ele>
        <time>2022-02-23T09:51:15.499Z</time>
      </trkpt>
      <trkpt lat="42.27254" lon="23.0288">
        <ele>499.673625</ele>
        <time>2022-02-23T09:51:31.283Z</time>
      </trkpt>
      <trkpt lat="42.27286" lon="23.02691">
        <ele>499.758717</ele>
        <time>2022-02-23T09:52:10.426Z</time>
      </trkpt>
      <trkpt lat="42.27317" lon="23.02486">
        <ele>500.006796</ele>
        <time>2022-02-23T09:52:53.143Z</time>
      </trkpt>
      <trkpt lat="42.2732" lon="23.02436">
        <ele>500.077186</ele>
        <time>2022-02-23T09:53:04.680Z</time>
      </trkpt>
      <trkpt lat="42.27319" lon="23.02335">
        <ele>500.466558</ele>
        <time>2022-02-23T09:53:27.884Z</time>
      </trkpt>
      <trkpt lat="42.27297" lon="23.02129">
        <ele>501.524909</ele>
        <time>2022-02-23T09:54:15.556Z</time>
      </trkpt>
      <trkpt lat="42.27295" lon="23.02041">
        <ele>502.0561</ele>
        <time>2022-02-23T09:54:35.328Z</time>
      </trkpt>
      <trkpt lat="42.27368" lon="23.01327">
        <ele>508.039423</ele>
        <time>2022-02-23T09:57:31.704Z</time>
      </trkpt>
      <trkpt lat="42.2737" lon="23.01268">
        <ele>508.699406</ele>
        <time>2022-02-23T09:57:47.687Z</time>
      </trkpt>
      <trkpt lat="42.27363" lon="23.01182">
        <ele>509.718303</ele>
        <time>2022-02-23T09:58:11.324Z</time>
      </trkpt>
      <trkpt lat="42.2733" lon="23.00987">
        <ele>512.486711</ele>
        <time>2022-02-23T09:59:06.655Z</time>
      </trkpt>
      <trkpt lat="42.27328" lon="23.00938">
        <ele>513.056064</ele>
        <time>2022-02-23T09:59:19.434Z</time>
      </trkpt>
      <trkpt lat="42.27328" lon="23.00901">
        <ele>513.414779</ele>
        <time>2022-02-23T09:59:29.167Z</time>
      </trkpt>
      <trkpt lat="42.2734" lon="23.00798">
        <ele>514.408611</ele>
        <time>2022-02-23T09:59:55.422Z</time>
      </trkpt>
      <trkpt lat="42.27394" lon="23.00612">
        <ele>515.715193</ele>
        <time>2022-02-23T10:00:42.361Z</time>
      </trkpt>
      <trkpt lat="42.27412" lon="23.00529">
        <ele>516.1199</ele>
        <time>2022-02-23T10:01:01.882Z</time>
      </trkpt>
      <trkpt lat="42.27477" lon="23.00081">
        <ele>517.596056</ele>
        <time>2022-02-23T10:02:41.429Z</time>
      </trkpt>
      <trkpt lat="42.27482" lon="23.00003">
        <ele>517.97882</ele>
        <time>2022-02-23T10:02:59.702Z</time>
      </trkpt>
      <trkpt lat="42.27481" lon="22.99957">
        <ele>518.424891</ele>
        <time>2022-02-23T10:03:10.695Z</time>
      </trkpt>
      <trkpt lat="42.2748" lon="22.99933">
        <ele>518.658032</ele>
        <time>2022-02-23T10:03:16.461Z</time>
      </trkpt>
      <trkpt lat="42.27473" lon="22.99875">
        <ele>519.230265</ele>
        <time>2022-02-23T10:03:31.082Z</time>
      </trkpt>
      <trkpt lat="42.2747" lon="22.99852">
        <ele>519.462344</ele>
        <time>2022-02-23T10:03:37.725Z</time>
      </trkpt>
      <trkpt lat="42.27467" lon="22.9983">
        <ele>519.672742</ele>
        <time>2022-02-23T10:03:43.229Z</time>
      </trkpt>
      <trkpt lat="42.27463" lon="22.99807">
        <ele>519.903989</ele>
        <time>2022-02-23T10:03:49.813Z</time>
      </trkpt>
      <trkpt lat="42.27453" lon="22.99746">
        <ele>520.779074</ele>
        <time>2022-02-23T10:04:06.644Z</time>
      </trkpt>
      <trkpt lat="42.27451" lon="22.99736">
        <ele>520.964859</ele>
        <time>2022-02-23T10:04:09.230Z</time>
      </trkpt>
      <trkpt lat="42.27444" lon="22.99689">
        <ele>521.8287</ele>
        <time>2022-02-23T10:04:22.625Z</time>
      </trkpt>
      <trkpt lat="42.27441" lon="22.9967">
        <ele>522.177883</ele>
        <time>2022-02-23T10:04:28.266Z</time>
      </trkpt>
      <trkpt lat="42.27439" lon="22.99659">
        <ele>522.369161</ele>
        <time>2022-02-23T10:04:31.676Z</time>
      </trkpt>
      <trkpt lat="42.27433" lon="22.99623">
        <ele>523.043748</ele>
        <time>2022-02-23T10:04:42.531Z</time>
      </trkpt>
      <trkpt lat="42.27422" lon="22.99551">
        <ele>524.36011</ele>
        <time>2022-02-23T10:05:04.834Z</time>
      </trkpt>
      <trkpt lat="42.27367" lon="22.99201">
        <ele>532.322675</ele>
        <time>2022-02-23T10:06:59.933Z</time>
      </trkpt>
      <trkpt lat="42.27361" lon="22.9915">
        <ele>533.31895</ele>
        <time>2022-02-23T10:07:15.366Z</time>
      </trkpt>
      <trkpt lat="42.27358" lon="22.99068">
        <ele>534.924214</ele>
        <time>2022-02-23T10:07:39.046Z</time>
      </trkpt>
      <trkpt lat="42.27367" lon="22.98077">
        <ele>542.653506</ele>
        <time>2022-02-23T10:11:37.288Z</time>
      </trkpt>
      <trkpt lat="42.2737" lon="22.97713">
        <ele>547.929373</ele>
        <time>2022-02-23T10:13:17.385Z</time>
      </trkpt>
      <trkpt lat="42.27276" lon="22.9681">
        <ele>566.738146</ele>
        <time>2022-02-23T10:17:51.057Z</time>
      </trkpt>
      <trkpt lat="42.27271" lon="22.9678">
        <ele>567.80714</ele>
        <time>2022-02-23T10:18:01.947Z</time>
      </trkpt>
      <trkpt lat="42.27267" lon="22.96763">
        <ele>568.417497</ele>
        <time>2022-02-23T10:18:09.066Z</time>
      </trkpt>
      <trkpt lat="42.27235" lon="22.96672">
        <ele>571.882299</ele>
        <time>2022-02-23T10:18:49.694Z</time>
      </trkpt>
      <trkpt lat="42.272" lon="22.96611">
        <ele>575.722896</ele>
        <time>2022-02-23T10:19:23.564Z</time>
      </trkpt>
      <trkpt lat="42.27056" lon="22.96431">
        <ele>590.929948</ele>
        <time>2022-02-23T10:21:32.121Z</time>
      </trkpt>
      <trkpt lat="42.27034" lon="22.9639">
        <ele>594.167033</ele>
        <time>2022-02-23T10:21:58.912Z</time>
      </trkpt>
      <trkpt lat="42.27006" lon="22.96282">
        <ele>601.36539</ele>
        <time>2022-02-23T10:22:58.862Z</time>
      </trkpt>
      <trkpt lat="42.27001" lon="22.96216">
        <ele>605.056378</ele>
        <time>2022-02-23T10:23:32.963Z</time>
      </trkpt>
      <trkpt lat="42.27006" lon="22.96179">
        <ele>607.109245</ele>
        <time>2022-02-23T10:23:51.401Z</time>
      </trkpt>
      <trkpt lat="42.27028" lon="22.96099">
        <ele>611.862972</ele>
        <time>2022-02-23T10:24:31.535Z</time>
      </trkpt>
      <trkpt lat="42.27028" lon="22.9608">
        <ele>612.91037</ele>
        <time>2022-02-23T10:24:39.842Z</time>
      </trkpt>
      <trkpt lat="42.27013" lon="22.96013">
        <ele>615.97559</ele>
        <time>2022-02-23T10:25:08.799Z</time>
      </trkpt>
      <trkpt lat="42.26979" lon="22.95928">
        <ele>619.224439</ele>
        <time>2022-02-23T10:25:44.438Z</time>
      </trkpt>
      <trkpt lat="42.26969" lon="22.95915">
        <ele>619.841626</ele>
        <time>2022-02-23T10:25:50.771Z</time>
      </trkpt>
      <trkpt lat="42.26942" lon="22.95895">
        <ele>621.233177</ele>
        <time>2022-02-23T10:26:04.880Z</time>
      </trkpt>
      <trkpt lat="42.26861" lon="22.95883">
        <ele>624.805403</ele>
        <time>2022-02-23T10:26:41.612Z</time>
      </trkpt>
      <trkpt lat="42.2682" lon="22.95858">
        <ele>626.727772</ele>
        <time>2022-02-23T10:27:02.437Z</time>
      </trkpt>
      <trkpt lat="42.26786" lon="22.95813">
        <ele>628.744912</ele>
        <time>2022-02-23T10:27:24.986Z</time>
      </trkpt>
      <trkpt lat="42.26699" lon="22.95629">
        <ele>637.505187</ele>
        <time>2022-02-23T10:28:51.964Z</time>
      </trkpt>
      <trkpt lat="42.26697" lon="22.95583">
        <ele>639.512931</ele>
        <time>2022-02-23T10:29:12.289Z</time>
      </trkpt>
      <trkpt lat="42.26704" lon="22.95556">
        <ele>640.753326</ele>
        <time>2022-02-23T10:29:25.056Z</time>
      </trkpt>
      <trkpt lat="42.26715" lon="22.95534">
        <ele>642.089799</ele>
        <time>2022-02-23T10:29:36.867Z</time>
      </trkpt>
      <trkpt lat="42.26771" lon="22.95457">
        <ele>647.843261</ele>
        <time>2022-02-23T10:30:26.470Z</time>
      </trkpt>
      <trkpt lat="42.26791" lon="22.95403">
        <ele>651.054751</ele>
        <time>2022-02-23T10:30:54.786Z</time>
      </trkpt>
      <trkpt lat="42.26807" lon="22.9519">
        <ele>662.050253</ele>
        <time>2022-02-23T10:32:36.323Z</time>
      </trkpt>
      <trkpt lat="42.26801" lon="22.95115">
        <ele>665.853165</ele>
        <time>2022-02-23T10:33:08.684Z</time>
      </trkpt>
      <trkpt lat="42.2679" lon="22.95083">
        <ele>666.700932</ele>
        <time>2022-02-23T10:33:22.323Z</time>
      </trkpt>
      <trkpt lat="42.26775" lon="22.95042">
        <ele>667.398364</ele>
        <time>2022-02-23T10:33:38.421Z</time>
      </trkpt>
      <trkpt lat="42.26763" lon="22.95007">
        <ele>667.995193</ele>
        <time>2022-02-23T10:33:50.652Z</time>
      </trkpt>
      <trkpt lat="42.26757" lon="22.94986">
        <ele>668.343937</ele>
        <time>2022-02-23T10:33:56.921Z</time>
      </trkpt>
      <trkpt lat="42.26729" lon="22.94852">
        <ele>669.22176</ele>
        <time>2022-02-23T10:34:26.137Z</time>
      </trkpt>
      <trkpt lat="42.26725" lon="22.94814">
        <ele>668.15362</ele>
        <time>2022-02-23T10:34:32.012Z</time>
      </trkpt>
      <trkpt lat="42.26729" lon="22.9478">
        <ele>667.172985</ele>
        <time>2022-02-23T10:34:37.169Z</time>
      </trkpt>
      <trkpt lat="42.26739" lon="22.94745">
        <ele>666.129565</ele>
        <time>2022-02-23T10:34:42.508Z</time>
      </trkpt>
      <trkpt lat="42.26754" lon="22.94716">
        <ele>665.136531</ele>
        <time>2022-02-23T10:34:47.415Z</time>
      </trkpt>
      <trkpt lat="42.26844" lon="22.94617">
        <ele>659.162472</ele>
        <time>2022-02-23T10:35:09.085Z</time>
      </trkpt>
      <trkpt lat="42.26848" lon="22.94611">
        <ele>658.780192</ele>
        <time>2022-02-23T10:35:10.154Z</time>
      </trkpt>
      <trkpt lat="42.26856" lon="22.94593">
        <ele>657.821871</ele>
        <time>2022-02-23T10:35:13.065Z</time>
      </trkpt>
      <trkpt lat="42.26873" lon="22.94534">
        <ele>654.858803</ele>
        <time>2022-02-23T10:35:21.742Z</time>
      </trkpt>
      <trkpt lat="42.26885" lon="22.9446">
        <ele>651.268086</ele>
        <time>2022-02-23T10:35:31.771Z</time>
      </trkpt>
      <trkpt lat="42.26905" lon="22.94406">
        <ele>648.06296</ele>
        <time>2022-02-23T10:35:39.687Z</time>
      </trkpt>
      <trkpt lat="42.26917" lon="22.94387">
        <ele>646.693455</ele>
        <time>2022-02-23T10:35:43.132Z</time>
      </trkpt>
      <trkpt lat="42.26936" lon="22.94366">
        <ele>644.9468</ele>
        <time>2022-02-23T10:35:47.476Z</time>
      </trkpt>
      <trkpt lat="42.26988" lon="22.94334">
        <ele>640.820798</ele>
        <time>2022-02-23T10:35:57.694Z</time>
      </trkpt>
      <trkpt lat="42.27108" lon="22.94283">
        <ele>631.062145</ele>
        <time>2022-02-23T10:36:19.998Z</time>
      </trkpt>
      <trkpt lat="42.27185" lon="22.94274">
        <ele>625.050876</ele>
        <time>2022-02-23T10:36:33.603Z</time>
      </trkpt>
      <trkpt lat="42.27382" lon="22.94275">
        <ele>610.36028</ele>
        <time>2022-02-23T10:37:08.643Z</time>
      </trkpt>
      <trkpt lat="42.27405" lon="22.94273">
        <ele>608.925467</ele>
        <time>2022-02-23T10:37:12.904Z</time>
      </trkpt>
      <trkpt lat="42.27451" lon="22.94255">
        <ele>606.02798</ele>
        <time>2022-02-23T10:37:21.576Z</time>
      </trkpt>
      <trkpt lat="42.27491" lon="22.94219">
        <ele>603.098974</ele>
        <time>2022-02-23T10:37:30.496Z</time>
      </trkpt>
      <trkpt lat="42.27521" lon="22.94172">
        <ele>600.332313</ele>
        <time>2022-02-23T10:37:39.106Z</time>
      </trkpt>
      <trkpt lat="42.27532" lon="22.94137">
        <ele>599.214594</ele>
        <time>2022-02-23T10:37:44.519Z</time>
      </trkpt>
      <trkpt lat="42.27576" lon="22.93913">
        <ele>592.798379</ele>
        <time>2022-02-23T10:38:18.703Z</time>
      </trkpt>
      <trkpt lat="42.27584" lon="22.93838">
        <ele>591.594975</ele>
        <time>2022-02-23T10:38:30.756Z</time>
      </trkpt>
      <trkpt lat="42.27585" lon="22.93522">
        <ele>587.524557</ele>
        <time>2022-02-23T10:39:24.816Z</time>
      </trkpt>
      <trkpt lat="42.27576" lon="22.93444">
        <ele>586.635579</ele>
        <time>2022-02-23T10:39:38.592Z</time>
      </trkpt>
      <trkpt lat="42.27551" lon="22.93373">
        <ele>585.454617</ele>
        <time>2022-02-23T10:39:52.208Z</time>
      </trkpt>
      <trkpt lat="42.27476" lon="22.93221">
        <ele>582.244175</ele>
        <time>2022-02-23T10:40:21.605Z</time>
      </trkpt>
      <trkpt lat="42.27391" lon="22.93078">
        <ele>576.528735</ele>
        <time>2022-02-23T10:40:48.486Z</time>
      </trkpt>
      <trkpt lat="42.27336" lon="22.92914">
        <ele>566.219556</ele>
        <time>2022-02-23T10:41:12.478Z</time>
      </trkpt>
      <trkpt lat="42.27323" lon="22.92888">
        <ele>564.329107</ele>
        <time>2022-02-23T10:41:16.370Z</time>
      </trkpt>
      <trkpt lat="42.27173" lon="22.92616">
        <ele>538.103641</ele>
        <time>2022-02-23T10:41:58.480Z</time>
      </trkpt>
      <trkpt lat="42.27161" lon="22.92601">
        <ele>536.727362</ele>
        <time>2022-02-23T10:42:01.363Z</time>
      </trkpt>
      <trkpt lat="42.27141" lon="22.92589">
        <ele>535.060057</ele>
        <time>2022-02-23T10:42:05.064Z</time>
      </trkpt>
      <trkpt lat="42.2709" lon="22.92575">
        <ele>530.843651</ele>
        <time>2022-02-23T10:42:14.312Z</time>
      </trkpt>
      <trkpt lat="42.26962" lon="22.9259">
        <ele>522.710325</ele>
        <time>2022-02-23T10:42:38.852Z</time>
      </trkpt>
      <trkpt lat="42.26918" lon="22.9259">
        <ele>520.661318</ele>
        <time>2022-02-23T10:42:47.757Z</time>
      </trkpt>
      <trkpt lat="42.26715" lon="22.92539">
        <ele>509.373237</ele>
        <time>2022-02-23T10:43:26.654Z</time>
      </trkpt>
      <trkpt lat="42.26655" lon="22.92509">
        <ele>505.506322</ele>
        <time>2022-02-23T10:43:38.183Z</time>
      </trkpt>
      <trkpt lat="42.26604" lon="22.92459">
        <ele>501.501751</ele>
        <time>2022-02-23T10:43:49.437Z</time>
      </trkpt>
      <trkpt lat="42.26583" lon="22.92426">
        <ele>499.427209</ele>
        <time>2022-02-23T10:43:55.317Z</time>
      </trkpt>
      <trkpt lat="42.26552" lon="22.92346">
        <ele>495.196551</ele>
        <time>2022-02-23T10:44:07.618Z</time>
      </trkpt>
      <trkpt lat="42.26503" lon="22.92137">
        <ele>488.497044</ele>
        <time>2022-02-23T10:44:39.615Z</time>
      </trkpt>
      <trkpt lat="42.26466" lon="22.92057">
        <ele>486.564862</ele>
        <time>2022-02-23T10:44:54.211Z</time>
      </trkpt>
      <trkpt lat="42.26416" lon="22.91989">
        <ele>484.870236</ele>
        <time>2022-02-23T10:45:09.611Z</time>
      </trkpt>
      <trkpt lat="42.26396" lon="22.91967">
        <ele>484.254124</ele>
        <time>2022-02-23T10:45:15.295Z</time>
      </trkpt>
      <trkpt lat="42.26335" lon="22.919">
        <ele>482.754514</ele>
        <time>2022-02-23T10:45:33.065Z</time>
      </trkpt>
      <trkpt lat="42.26306" lon="22.91869">
        <ele>482.13548</ele>
        <time>2022-02-23T10:45:41.688Z</time>
      </trkpt>
      <trkpt lat="42.26254" lon="22.91828">
        <ele>481.162574</ele>
        <time>2022-02-23T10:45:55.390Z</time>
      </trkpt>
      <trkpt lat="42.26045" lon="22.91703">
        <ele>477.32034</ele>
        <time>2022-02-23T10:46:47.388Z</time>
      </trkpt>
      <trkpt lat="42.25705" lon="22.91535">
        <ele>471.221193</ele>
        <time>2022-02-23T10:48:09.752Z</time>
      </trkpt>
      <trkpt lat="42.25379" lon="22.91275">
        <ele>463.138122</ele>
        <time>2022-02-23T10:49:32.170Z</time>
      </trkpt>
      <trkpt lat="42.2533" lon="22.91224">
        <ele>462.072754</ele>
        <time>2022-02-23T10:49:46.170Z</time>
      </trkpt>
      <trkpt lat="42.25289" lon="22.91169">
        <ele>461.068307</ele>
        <time>2022-02-23T10:49:59.485Z</time>
      </trkpt>
      <trkpt lat="42.25254" lon="22.91105">
        <ele>460.05897</ele>
        <time>2022-02-23T10:50:12.988Z</time>
      </trkpt>
      <trkpt lat="42.25076" lon="22.90733">
        <ele>454.249508</ele>
        <time>2022-02-23T10:51:26.834Z</time>
      </trkpt>
      <trkpt lat="42.25037" lon="22.9064">
        <ele>453.058012</ele>
        <time>2022-02-23T10:51:44.643Z</time>
      </trkpt>
      <trkpt lat="42.2501" lon="22.90522">
        <ele>451.679736</ele>
        <time>2022-02-23T10:52:05.905Z</time>
      </trkpt>
      <trkpt lat="42.25004" lon="22.90469">
        <ele>451.372642</ele>
        <time>2022-02-23T10:52:15.447Z</time>
      </trkpt>
      <trkpt lat="42.25005" lon="22.90363">
        <ele>450.868157</ele>
        <time>2022-02-23T10:52:34.507Z</time>
      </trkpt>
      <trkpt lat="42.2501" lon="22.90288">
        <ele>450.507827</ele>
        <time>2022-02-23T10:52:49.888Z</time>
      </trkpt>
      <trkpt lat="42.25014" lon="22.90243">
        <ele>450.548096</ele>
        <time>2022-02-23T10:52:59.387Z</time>
      </trkpt>
      <trkpt lat="42.25014" lon="22.90234">
        <ele>450.582356</ele>
        <time>2022-02-23T10:53:01.283Z</time>
      </trkpt>
      <trkpt lat="42.25015" lon="22.90206">
        <ele>450.688861</ele>
        <time>2022-02-23T10:53:07.155Z</time>
      </trkpt>
      <trkpt lat="42.25015" lon="22.90172">
        <ele>450.819816</ele>
        <time>2022-02-23T10:53:14.594Z</time>
      </trkpt>
      <trkpt lat="42.25012" lon="22.90142">
        <ele>450.938102</ele>
        <time>2022-02-23T10:53:21.667Z</time>
      </trkpt>
      <trkpt lat="42.24996" lon="22.90057">
        <ele>451.270892</ele>
        <time>2022-02-23T10:53:41.412Z</time>
      </trkpt>
      <trkpt lat="42.24979" lon="22.90012">
        <ele>451.57275</ele>
        <time>2022-02-23T10:53:53.659Z</time>
      </trkpt>
      <trkpt lat="42.24804" lon="22.89678">
        <ele>455.247155</ele>
        <time>2022-02-23T10:55:34.562Z</time>
      </trkpt>
      <trkpt lat="42.24791" lon="22.89631">
        <ele>455.750913</ele>
        <time>2022-02-23T10:55:48.581Z</time>
      </trkpt>
      <trkpt lat="42.24787" lon="22.89584">
        <ele>456.368757</ele>
        <time>2022-02-23T10:56:02.002Z</time>
      </trkpt>
      <trkpt lat="42.24797" lon="22.89508">
        <ele>457.36109</ele>
        <time>2022-02-23T10:56:23.453Z</time>
      </trkpt>
      <trkpt lat="42.24812" lon="22.8946">
        <ele>458.026675</ele>
        <time>2022-02-23T10:56:37.677Z</time>
      </trkpt>
      <trkpt lat="42.24891" lon="22.89307">
        <ele>459.042976</ele>
        <time>2022-02-23T10:57:23.384Z</time>
      </trkpt>
      <trkpt lat="42.24911" lon="22.89256">
        <ele>459.114487</ele>
        <time>2022-02-23T10:57:35.012Z</time>
      </trkpt>
      <trkpt lat="42.24955" lon="22.89053">
        <ele>457.269843</ele>
        <time>2022-02-23T10:58:12.381Z</time>
      </trkpt>
      <trkpt lat="42.24975" lon="22.88992">
        <ele>456.386467</ele>
        <time>2022-02-23T10:58:22.967Z</time>
      </trkpt>
      <trkpt lat="42.25021" lon="22.88915">
        <ele>454.346802</ele>
        <time>2022-02-23T10:58:38.079Z</time>
      </trkpt>
      <trkpt lat="42.25171" lon="22.88718">
        <ele>448.735789</ele>
        <time>2022-02-23T10:59:20.701Z</time>
      </trkpt>
      <trkpt lat="42.25223" lon="22.88668">
        <ele>447.589564</ele>
        <time>2022-02-23T10:59:35.698Z</time>
      </trkpt>
      <trkpt lat="42.25293" lon="22.88626">
        <ele>447.240071</ele>
        <time>2022-02-23T10:59:57.378Z</time>
      </trkpt>
      <trkpt lat="42.25381" lon="22.88605">
        <ele>447.915766</ele>
        <time>2022-02-23T11:00:27.544Z</time>
      </trkpt>
      <trkpt lat="42.25496" lon="22.88593">
        <ele>448.111337</ele>
        <time>2022-02-23T11:01:04.392Z</time>
      </trkpt>
      <trkpt lat="42.25555" lon="22.88568">
        <ele>447.93895</ele>
        <time>2022-02-23T11:01:20.656Z</time>
      </trkpt>
      <trkpt lat="42.2561" lon="22.8852">
        <ele>447.537884</ele>
        <time>2022-02-23T11:01:35.978Z</time>
      </trkpt>
      <trkpt lat="42.25655" lon="22.8846">
        <ele>446.322511</ele>
        <time>2022-02-23T11:01:49.835Z</time>
      </trkpt>
      <trkpt lat="42.25683" lon="22.88398">
        <ele>445.280692</ele>
        <time>2022-02-23T11:02:01.544Z</time>
      </trkpt>
      <trkpt lat="42.25696" lon="22.88324">
        <ele>444.230713</ele>
        <time>2022-02-23T11:02:13.834Z</time>
      </trkpt>
      <trkpt lat="42.25697" lon="22.88289">
        <ele>443.885179</ele>
        <time>2022-02-23T11:02:19.555Z</time>
      </trkpt>
      <trkpt lat="42.25673" lon="22.88036">
        <ele>441.760102</ele>
        <time>2022-02-23T11:03:04.607Z</time>
      </trkpt>
      <trkpt lat="42.2567" lon="22.87882">
        <ele>441.317254</ele>
        <time>2022-02-23T11:03:35.353Z</time>
      </trkpt>
      <trkpt lat="42.25669" lon="22.8768">
        <ele>441.152385</ele>
        <time>2022-02-23T11:04:17.142Z</time>
      </trkpt>
      <trkpt lat="42.25668" lon="22.8764">
        <ele>441.135938</ele>
        <time>2022-02-23T11:04:25.418Z</time>
      </trkpt>
      <trkpt lat="42.25666" lon="22.87256">
        <ele>440.379589</ele>
        <time>2022-02-23T11:05:41.294Z</time>
      </trkpt>
      <trkpt lat="42.25687" lon="22.8701">
        <ele>439.450212</ele>
        <time>2022-02-23T11:06:27.364Z</time>
      </trkpt>
      <trkpt lat="42.25706" lon="22.86819">
        <ele>439.100954</ele>
        <time>2022-02-23T11:07:04.731Z</time>
      </trkpt>
      <trkpt lat="42.25792" lon="22.85907">
        <ele>441.645981</ele>
        <time>2022-02-23T11:10:28.301Z</time>
      </trkpt>
      <trkpt lat="42.25806" lon="22.85752">
        <ele>442.111108</ele>
        <time>2022-02-23T11:11:01.303Z</time>
      </trkpt>
      <trkpt lat="42.25797" lon="22.85746">
        <ele>442.153919</ele>
        <time>2022-02-23T11:11:04.247Z</time>
      </trkpt>
      <trkpt lat="42.2579" lon="22.85733">
        <ele>442.201284</ele>
        <time>2022-02-23T11:11:07.620Z</time>
      </trkpt>
      <trkpt lat="42.25693" lon="22.85362">
        <ele>445.097016</ele>
        <time>2022-02-23T11:12:40.793Z</time>
      </trkpt>
      <trkpt lat="42.25684" lon="22.85359">
        <ele>445.236625</ele>
        <time>2022-02-23T11:12:44.297Z</time>
      </trkpt>
      <trkpt lat="42.25669" lon="22.85355">
        <ele>445.483822</ele>
        <time>2022-02-23T11:12:49.810Z</time>
      </trkpt>
      <trkpt lat="42.25655" lon="22.85357">
        <ele>445.714807</ele>
        <time>2022-02-23T11:12:55.040Z</time>
      </trkpt>
      <trkpt lat="42.25585" lon="22.85381">
        <ele>446.877041</ele>
        <time>2022-02-23T11:13:22.162Z</time>
      </trkpt>
      <trkpt lat="42.25563" lon="22.85387">
        <ele>447.151577</ele>
        <time>2022-02-23T11:13:30.315Z</time>
      </trkpt>
      <trkpt lat="42.2556" lon="22.8536">
        <ele>447.400292</ele>
        <time>2022-02-23T11:13:37.779Z</time>
      </trkpt>
      <trkpt lat="42.2553" lon="22.85217">
        <ele>448.78003</ele>
        <time>2022-02-23T11:14:13.361Z</time>
      </trkpt>
      <trkpt lat="42.25524" lon="22.85187">
        <ele>449.047854</ele>
        <time>2022-02-23T11:14:19.870Z</time>
      </trkpt>
      <trkpt lat="42.25497" lon="22.85065">
        <ele>449.143556</ele>
        <time>2022-02-23T11:14:44.847Z</time>
      </trkpt>
      <trkpt lat="42.2548" lon="22.84991">
        <ele>449.201534</ele>
        <time>2022-02-23T11:14:59.922Z</time>
      </trkpt>
      <trkpt lat="42.25474" lon="22.84962">
        <ele>449.224447</ele>
        <time>2022-02-23T11:15:05.935Z</time>
      </trkpt>
      <trkpt lat="42.25469" lon="22.84932">
        <ele>449.26063</ele>
        <time>2022-02-23T11:15:11.958Z</time>
      </trkpt>
      <trkpt lat="42.25471" lon="22.84903">
        <ele>449.298601</ele>
        <time>2022-02-23T11:15:18.012Z</time>
      </trkpt>
      <trkpt lat="42.25478" lon="22.84875">
        <ele>449.337132</ele>
        <time>2022-02-23T11:15:24.148Z</time>
      </trkpt>
      <trkpt lat="42.25482" lon="22.84864">
        <ele>449.353402</ele>
        <time>2022-02-23T11:15:26.820Z</time>
      </trkpt>
      <trkpt lat="42.25495" lon="22.84829">
        <ele>449.404858</ele>
        <time>2022-02-23T11:15:35.269Z</time>
      </trkpt>
      <trkpt lat="42.25554" lon="22.8466">
        <ele>449.427647</ele>
        <time>2022-02-23T11:16:12.497Z</time>
      </trkpt>
      <trkpt lat="42.25619" lon="22.84464">
        <ele>448.995028</ele>
        <time>2022-02-23T11:16:52.875Z</time>
      </trkpt>
      <trkpt lat="42.25655" lon="22.84356">
        <ele>448.56027</ele>
        <time>2022-02-23T11:17:13.708Z</time>
      </trkpt>
      <trkpt lat="42.25665" lon="22.84331">
        <ele>448.458436</ele>
        <time>2022-02-23T11:17:18.830Z</time>
      </trkpt>
      <trkpt lat="42.25674" lon="22.84315">
        <ele>448.383013</ele>
        <time>2022-02-23T11:17:22.684Z</time>
      </trkpt>
      <trkpt lat="42.2569" lon="22.84309">
        <ele>448.300004</ele>
        <time>2022-02-23T11:17:27.004Z</time>
      </trkpt>
      <trkpt lat="42.25714" lon="22.84306">
        <ele>448.307051</ele>
        <time>2022-02-23T11:17:33.189Z</time>
      </trkpt>
      <trkpt lat="42.25716" lon="22.84278">
        <ele>448.323409</ele>
        <time>2022-02-23T11:17:38.989Z</time>
      </trkpt>
      <trkpt lat="42.25719" lon="22.84243">
        <ele>448.3442</ele>
        <time>2022-02-23T11:17:46.190Z</time>
      </trkpt>
      <trkpt lat="42.25739" lon="22.84127">
        <ele>448.414407</ele>
        <time>2022-02-23T11:18:11.339Z</time>
      </trkpt>
      <trkpt lat="42.25751" lon="22.84083">
        <ele>448.460844</ele>
        <time>2022-02-23T11:18:22.056Z</time>
      </trkpt>
      <trkpt lat="42.26056" lon="22.83202">
        <ele>450.304217</ele>
        <time>2022-02-23T11:21:49.903Z</time>
      </trkpt>
      <trkpt lat="42.26238" lon="22.82517">
        <ele>453.441553</ele>
        <time>2022-02-23T11:24:35.690Z</time>
      </trkpt>
      <trkpt lat="42.26242" lon="22.82501">
        <ele>453.482099</ele>
        <time>2022-02-23T11:24:39.753Z</time>
      </trkpt>
      <trkpt lat="42.26686" lon="22.80756">
        <ele>457.968066</ele>
        <time>2022-02-23T11:31:19.793Z</time>
      </trkpt>
      <trkpt lat="42.26707" lon="22.80676">
        <ele>458.235268</ele>
        <time>2022-02-23T11:31:38.785Z</time>
      </trkpt>
      <trkpt lat="42.26727" lon="22.806">
        <ele>458.61773</ele>
        <time>2022-02-23T11:31:56.940Z</time>
      </trkpt>
      <trkpt lat="42.26752" lon="22.80507">
        <ele>459.08826</ele>
        <time>2022-02-23T11:32:19.681Z</time>
      </trkpt>
      <trkpt lat="42.26821" lon="22.80223">
        <ele>460.973965</ele>
        <time>2022-02-23T11:33:30.196Z</time>
      </trkpt>
      <trkpt lat="42.26833" lon="22.80174">
        <ele>461.444118</ele>
        <time>2022-02-23T11:33:42.815Z</time>
      </trkpt>
      <trkpt lat="42.27025" lon="22.78599">
        <ele>476.237489</ele>
        <time>2022-02-23T11:40:22.025Z</time>
      </trkpt>
      <trkpt lat="42.27026" lon="22.78593">
        <ele>476.294267</ele>
        <time>2022-02-23T11:40:23.456Z</time>
      </trkpt>
      <trkpt lat="42.27143" lon="22.77613">
        <ele>489.646628</ele>
        <time>2022-02-23T11:44:54.932Z</time>
      </trkpt>
      <trkpt lat="42.27189" lon="22.77221">
        <ele>490.524375</ele>
        <time>2022-02-23T11:46:19.750Z</time>
      </trkpt>
      <trkpt lat="42.27412" lon="22.76052">
        <ele>487.537382</ele>
        <time>2022-02-23T11:50:13.615Z</time>
      </trkpt>
      <trkpt lat="42.27417" lon="22.76025">
        <ele>487.487339</ele>
        <time>2022-02-23T11:50:19.288Z</time>
      </trkpt>
      <trkpt lat="42.27428" lon="22.75968">
        <ele>487.386242</ele>
        <time>2022-02-23T11:50:31.018Z</time>
      </trkpt>
      <trkpt lat="42.27445" lon="22.75881">
        <ele>487.56001</ele>
        <time>2022-02-23T11:50:49.509Z</time>
      </trkpt>
      <trkpt lat="42.27805" lon="22.74012">
        <ele>494.902741</ele>
        <time>2022-02-23T11:58:01.746Z</time>
      </trkpt>
      <trkpt lat="42.27817" lon="22.73947">
        <ele>495.494963</ele>
        <time>2022-02-23T11:58:18.625Z</time>
      </trkpt>
      <trkpt lat="42.27828" lon="22.73891">
        <ele>496.008349</ele>
        <time>2022-02-23T11:58:33.469Z</time>
      </trkpt>
      <trkpt lat="42.27871" lon="22.73668">
        <ele>498.356852</ele>
        <time>2022-02-23T11:59:33.663Z</time>
      </trkpt>
      <trkpt lat="42.27908" lon="22.73478">
        <ele>500.127713</ele>
        <time>2022-02-23T12:00:22.993Z</time>
      </trkpt>
      <trkpt lat="42.27934" lon="22.73353">
        <ele>501.12791</ele>
        <time>2022-02-23T12:00:53.870Z</time>
      </trkpt>
      <trkpt lat="42.27942" lon="22.73312">
        <ele>501.29029</ele>
        <time>2022-02-23T12:01:03.668Z</time>
      </trkpt>
      <trkpt lat="42.2795" lon="22.73273">
        <ele>501.443325</ele>
        <time>2022-02-23T12:01:12.708Z</time>
      </trkpt>
      <trkpt lat="42.28001" lon="22.72998">
        <ele>502.569893</ele>
        <time>2022-02-23T12:02:15.030Z</time>
      </trkpt>
      <trkpt lat="42.28069" lon="22.72654">
        <ele>504.482705</ele>
        <time>2022-02-23T12:03:37.955Z</time>
      </trkpt>
      <trkpt lat="42.28079" lon="22.726">
        <ele>504.828499</ele>
        <time>2022-02-23T12:03:51.573Z</time>
      </trkpt>
      <trkpt lat="42.28102" lon="22.72478">
        <ele>505.619021</ele>
        <time>2022-02-23T12:04:21.364Z</time>
      </trkpt>
      <trkpt lat="42.28108" lon="22.72447">
        <ele>505.816197</ele>
        <time>2022-02-23T12:04:28.486Z</time>
      </trkpt>
      <trkpt lat="42.2814" lon="22.7228">
        <ele>506.722669</ele>
        <time>2022-02-23T12:05:07.842Z</time>
      </trkpt>
      <trkpt lat="42.28148" lon="22.72243">
        <ele>506.917046</ele>
        <time>2022-02-23T12:05:16.646Z</time>
      </trkpt>
      <trkpt lat="42.28201" lon="22.71971">
        <ele>508.945551</ele>
        <time>2022-02-23T12:06:23.215Z</time>
      </trkpt>
      <trkpt lat="42.2821" lon="22.71919">
        <ele>509.654672</ele>
        <time>2022-02-23T12:06:37.389Z</time>
      </trkpt>
      <trkpt lat="42.28218" lon="22.7188">
        <ele>510.500585</ele>
        <time>2022-02-23T12:06:48.399Z</time>
      </trkpt>
      <trkpt lat="42.28231" lon="22.7181">
        <ele>511.971191</ele>
        <time>2022-02-23T12:07:09.374Z</time>
      </trkpt>
      <trkpt lat="42.28236" lon="22.71779">
        <ele>512.619714</ele>
        <time>2022-02-23T12:07:20.645Z</time>
      </trkpt>
      <trkpt lat="42.28259" lon="22.71658">
        <ele>515.24435</ele>
        <time>2022-02-23T12:07:58.807Z</time>
      </trkpt>
      <trkpt lat="42.28262" lon="22.71644">
        <ele>515.566735</ele>
        <time>2022-02-23T12:08:05.072Z</time>
      </trkpt>
      <trkpt lat="42.28282" lon="22.71537">
        <ele>518.005555</ele>
        <time>2022-02-23T12:08:39.314Z</time>
      </trkpt>
      <trkpt lat="42.28303" lon="22.71423">
        <ele>519.916586</ele>
        <time>2022-02-23T12:09:12.113Z</time>
      </trkpt>
      <trkpt lat="42.28336" lon="22.71247">
        <ele>521.465371</ele>
        <time>2022-02-23T12:09:52.491Z</time>
      </trkpt>
      <trkpt lat="42.28359" lon="22.71126">
        <ele>521.794585</ele>
        <time>2022-02-23T12:10:20.621Z</time>
      </trkpt>
      <trkpt lat="42.28365" lon="22.71092">
        <ele>521.864325</ele>
        <time>2022-02-23T12:10:28.166Z</time>
      </trkpt>
      <trkpt lat="42.28369" lon="22.71071">
        <ele>521.908724</ele>
        <time>2022-02-23T12:10:32.573Z</time>
      </trkpt>
      <trkpt lat="42.28388" lon="22.70971">
        <ele>521.896277</ele>
        <time>2022-02-23T12:10:51.718Z</time>
      </trkpt>
      <trkpt lat="42.28403" lon="22.70893">
        <ele>521.46971</ele>
        <time>2022-02-23T12:11:06.417Z</time>
      </trkpt>
      <trkpt lat="42.28433" lon="22.70735">
        <ele>520.708824</ele>
        <time>2022-02-23T12:11:34.252Z</time>
      </trkpt>
      <trkpt lat="42.28457" lon="22.70612">
        <ele>520.46005</ele>
        <time>2022-02-23T12:11:57.206Z</time>
      </trkpt>
      <trkpt lat="42.28464" lon="22.70544">
        <ele>520.326529</ele>
        <time>2022-02-23T12:12:11.155Z</time>
      </trkpt>
      <trkpt lat="42.28456" lon="22.70367">
        <ele>520.824528</ele>
        <time>2022-02-23T12:12:52.602Z</time>
      </trkpt>
      <trkpt lat="42.28438" lon="22.70298">
        <ele>521.065099</ele>
        <time>2022-02-23T12:13:07.187Z</time>
      </trkpt>
      <trkpt lat="42.28418" lon="22.70245">
        <ele>520.409186</ele>
        <time>2022-02-23T12:13:17.662Z</time>
      </trkpt>
      <trkpt lat="42.28409" lon="22.70217">
        <ele>519.983414</ele>
        <time>2022-02-23T12:13:22.431Z</time>
      </trkpt>
      <trkpt lat="42.28402" lon="22.7019">
        <ele>519.58865</ele>
        <time>2022-02-23T12:13:27.243Z</time>
      </trkpt>
      <trkpt lat="42.28393" lon="22.70144">
        <ele>518.92791</ele>
        <time>2022-02-23T12:13:34.835Z</time>
      </trkpt>
      <trkpt lat="42.28392" lon="22.70141">
        <ele>518.893906</ele>
        <time>2022-02-23T12:13:35.140Z</time>
      </trkpt>
      <trkpt lat="42.28391" lon="22.70133">
        <ele>518.768194</ele>
        <time>2022-02-23T12:13:36.528Z</time>
      </trkpt>
      <trkpt lat="42.28393" lon="22.70118">
        <ele>518.55921</ele>
        <time>2022-02-23T12:13:38.860Z</time>
      </trkpt>
      <trkpt lat="42.28395" lon="22.70101">
        <ele>518.31728</ele>
        <time>2022-02-23T12:13:41.766Z</time>
      </trkpt>
      <trkpt lat="42.28397" lon="22.70095">
        <ele>518.227789</ele>
        <time>2022-02-23T12:13:42.612Z</time>
      </trkpt>
      <trkpt lat="42.28399" lon="22.70093">
        <ele>518.182208</ele>
        <time>2022-02-23T12:13:43.073Z</time>
      </trkpt>
      <trkpt lat="42.28405" lon="22.70086">
        <ele>518.034144</ele>
        <time>2022-02-23T12:13:44.707Z</time>
      </trkpt>
      <trkpt lat="42.28407" lon="22.7008">
        <ele>517.937548</ele>
        <time>2022-02-23T12:13:45.741Z</time>
      </trkpt>
      <trkpt lat="42.28406" lon="22.70073">
        <ele>517.846247</ele>
        <time>2022-02-23T12:13:46.749Z</time>
      </trkpt>
      <trkpt lat="42.28408" lon="22.70055">
        <ele>517.523129</ele>
        <time>2022-02-23T12:13:49.467Z</time>
      </trkpt>
      <trkpt lat="42.28412" lon="22.70039">
        <ele>517.167123</ele>
        <time>2022-02-23T12:13:51.796Z</time>
      </trkpt>
      <trkpt lat="42.28421" lon="22.70017">
        <ele>516.650489</ele>
        <time>2022-02-23T12:13:55.416Z</time>
      </trkpt>
      <trkpt lat="42.28431" lon="22.69992">
        <ele>516.073118</ele>
        <time>2022-02-23T12:13:59.266Z</time>
      </trkpt>
      <trkpt lat="42.28467" lon="22.69902">
        <ele>513.937228</ele>
        <time>2022-02-23T12:14:14.327Z</time>
      </trkpt>
      <trkpt lat="42.28485" lon="22.69855">
        <ele>512.850033</ele>
        <time>2022-02-23T12:14:22.556Z</time>
      </trkpt>
      <trkpt lat="42.28499" lon="22.69821">
        <ele>512.417386</ele>
        <time>2022-02-23T12:14:28.872Z</time>
      </trkpt>
      <trkpt lat="42.2853" lon="22.69743">
        <ele>511.639003</ele>
        <time>2022-02-23T12:14:43.033Z</time>
      </trkpt>
      <trkpt lat="42.28558" lon="22.69675">
        <ele>510.954344</ele>
        <time>2022-02-23T12:14:56.125Z</time>
      </trkpt>
      <trkpt lat="42.28609" lon="22.69547">
        <ele>510.892458</ele>
        <time>2022-02-23T12:15:24.504Z</time>
      </trkpt>
      <trkpt lat="42.2862" lon="22.69518">
        <ele>511.004029</ele>
        <time>2022-02-23T12:15:31.530Z</time>
      </trkpt>
      <trkpt lat="42.28609" lon="22.69495">
        <ele>511.098899</ele>
        <time>2022-02-23T12:15:38.154Z</time>
      </trkpt>
      <trkpt lat="42.28583" lon="22.69378">
        <ele>511.800246</ele>
        <time>2022-02-23T12:16:07.844Z</time>
      </trkpt>
      <trkpt lat="42.28552" lon="22.69245">
        <ele>513.296855</ele>
        <time>2022-02-23T12:16:44.577Z</time>
      </trkpt>
      <trkpt lat="42.28526" lon="22.69133">
        <ele>514.528023</ele>
        <time>2022-02-23T12:17:14.759Z</time>
      </trkpt>
      <trkpt lat="42.28529" lon="22.69131">
        <ele>514.577442</ele>
        <time>2022-02-23T12:17:17.219Z</time>
      </trkpt>
      <trkpt lat="42.28528" lon="22.69126">
        <ele>514.627158</ele>
        <time>2022-02-23T12:17:18.622Z</time>
      </trkpt>
      <trkpt lat="42.28486" lon="22.68946">
        <ele>516.533264</ele>
        <time>2022-02-23T12:18:04.897Z</time>
      </trkpt>
      <trkpt lat="42.28466" lon="22.68873">
        <ele>517.294747</ele>
        <time>2022-02-23T12:18:23.858Z</time>
      </trkpt>
      <trkpt lat="42.28465" lon="22.68872">
        <ele>517.305333</ele>
        <time>2022-02-23T12:18:24.581Z</time>
      </trkpt>
      <trkpt lat="42.284" lon="22.68652">
        <ele>519.407556</ele>
        <time>2022-02-23T12:19:21.961Z</time>
      </trkpt>
      <trkpt lat="42.28332" lon="22.6843">
        <ele>521.039688</ele>
        <time>2022-02-23T12:20:16.193Z</time>
      </trkpt>
      <trkpt lat="42.2833" lon="22.68416">
        <ele>521.131385</ele>
        <time>2022-02-23T12:20:19.551Z</time>
      </trkpt>
      <trkpt lat="42.2832" lon="22.68379">
        <ele>521.382679</ele>
        <time>2022-02-23T12:20:28.631Z</time>
      </trkpt>
      <trkpt lat="42.28194" lon="22.67972">
        <ele>524.121072</ele>
        <time>2022-02-23T12:22:08.917Z</time>
      </trkpt>
      <trkpt lat="42.28197" lon="22.67971">
        <ele>524.150688</ele>
        <time>2022-02-23T12:22:09.895Z</time>
      </trkpt>
      <trkpt lat="42.28223" lon="22.67957">
        <ele>524.396655</ele>
        <time>2022-02-23T12:22:18.373Z</time>
      </trkpt>
      <trkpt lat="42.28228" lon="22.67955">
        <ele>524.436342</ele>
        <time>2022-02-23T12:22:19.820Z</time>
      </trkpt>
      <trkpt lat="42.28238" lon="22.67949">
        <ele>524.538963</ele>
        <time>2022-02-23T12:22:23.300Z</time>
      </trkpt>
      <trkpt lat="42.28244" lon="22.67945">
        <ele>524.593045</ele>
        <time>2022-02-23T12:22:25.182Z</time>
      </trkpt>
      <trkpt lat="42.28268" lon="22.67927">
        <ele>524.828898</ele>
        <time>2022-02-23T12:22:33.476Z</time>
      </trkpt>
      <trkpt lat="42.2828" lon="22.67918">
        <ele>524.950614</ele>
        <time>2022-02-23T12:22:37.791Z</time>
      </trkpt>
      <trkpt lat="42.28281" lon="22.67727">
        <ele>526.877655</ele>
        <time>2022-02-23T12:23:25.360Z</time>
      </trkpt>
      <trkpt lat="42.28284" lon="22.6759">
        <ele>528.670225</ele>
        <time>2022-02-23T12:24:03.181Z</time>
      </trkpt>
      <trkpt lat="42.28286" lon="22.67534">
        <ele>529.575493</ele>
        <time>2022-02-23T12:24:18.978Z</time>
      </trkpt>
      <trkpt lat="42.28286" lon="22.67508">
        <ele>529.993523</ele>
        <time>2022-02-23T12:24:26.283Z</time>
      </trkpt>
      <trkpt lat="42.28285" lon="22.67426">
        <ele>531.30039</ele>
        <time>2022-02-23T12:24:49.919Z</time>
      </trkpt>
      <trkpt lat="42.28275" lon="22.6731">
        <ele>533.610401</ele>
        <time>2022-02-23T12:25:23.778Z</time>
      </trkpt>
      <trkpt lat="42.28269" lon="22.67284">
        <ele>534.170039</ele>
        <time>2022-02-23T12:25:32.365Z</time>
      </trkpt>
      <trkpt lat="42.28264" lon="22.67257">
        <ele>534.745452</ele>
        <time>2022-02-23T12:25:40.766Z</time>
      </trkpt>
      <trkpt lat="42.28246" lon="22.67154">
        <ele>536.886497</ele>
        <time>2022-02-23T12:26:14.561Z</time>
      </trkpt>
      <trkpt lat="42.28231" lon="22.6707">
        <ele>538.522154</ele>
        <time>2022-02-23T12:26:41.549Z</time>
      </trkpt>
      <trkpt lat="42.28214" lon="22.66969">
        <ele>540.476266</ele>
        <time>2022-02-23T12:27:11.358Z</time>
      </trkpt>
      <trkpt lat="42.28208" lon="22.66939">
        <ele>541.055852</ele>
        <time>2022-02-23T12:27:20.090Z</time>
      </trkpt>
      <trkpt lat="42.28194" lon="22.66866">
        <ele>542.059378</ele>
        <time>2022-02-23T12:27:40.565Z</time>
      </trkpt>
      <trkpt lat="42.28186" lon="22.66825">
        <ele>542.606947</ele>
        <time>2022-02-23T12:27:51.840Z</time>
      </trkpt>
      <trkpt lat="42.28165" lon="22.66718">
        <ele>544.019683</ele>
        <time>2022-02-23T12:28:19.408Z</time>
      </trkpt>
      <trkpt lat="42.28112" lon="22.66414">
        <ele>549.879039</ele>
        <time>2022-02-23T12:29:51.321Z</time>
      </trkpt>
      <trkpt lat="42.281" lon="22.66315">
        <ele>552.370614</ele>
        <time>2022-02-23T12:30:24.715Z</time>
      </trkpt>
      <trkpt lat="42.28094" lon="22.66276">
        <ele>553.331458</ele>
        <time>2022-02-23T12:30:37.866Z</time>
      </trkpt>
      <trkpt lat="42.28064" lon="22.66034">
        <ele>559.718541</ele>
        <time>2022-02-23T12:32:00.496Z</time>
      </trkpt>
      <trkpt lat="42.28034" lon="22.65791">
        <ele>565.53244</ele>
        <time>2022-02-23T12:33:18.970Z</time>
      </trkpt>
      <trkpt lat="42.28032" lon="22.65765">
        <ele>566.141341</ele>
        <time>2022-02-23T12:33:27.283Z</time>
      </trkpt>
      <trkpt lat="42.28032" lon="22.65757">
        <ele>566.308488</ele>
        <time>2022-02-23T12:33:29.346Z</time>
      </trkpt>
      <trkpt lat="42.28033" lon="22.65745">
        <ele>566.585559</ele>
        <time>2022-02-23T12:33:33.144Z</time>
      </trkpt>
      <trkpt lat="42.28035" lon="22.65735">
        <ele>566.773847</ele>
        <time>2022-02-23T12:33:36.317Z</time>
      </trkpt>
      <trkpt lat="42.28037" lon="22.65722">
        <ele>566.991688</ele>
        <time>2022-02-23T12:33:40.548Z</time>
      </trkpt>
      <trkpt lat="42.28039" lon="22.65711">
        <ele>567.182316</ele>
        <time>2022-02-23T12:33:43.961Z</time>
      </trkpt>
      <trkpt lat="42.28033" lon="22.65664">
        <ele>567.946354</ele>
        <time>2022-02-23T12:33:58.104Z</time>
      </trkpt>
      <trkpt lat="42.28029" lon="22.65652">
        <ele>568.150417</ele>
        <time>2022-02-23T12:34:01.787Z</time>
      </trkpt>
      <trkpt lat="42.28005" lon="22.65556">
        <ele>569.770483</ele>
        <time>2022-02-23T12:34:29.297Z</time>
      </trkpt>
      <trkpt lat="42.27998" lon="22.65528">
        <ele>570.240968</ele>
        <time>2022-02-23T12:34:36.867Z</time>
      </trkpt>
      <trkpt lat="42.27937" lon="22.65317">
        <ele>573.134567</ele>
        <time>2022-02-23T12:35:33.286Z</time>
      </trkpt>
      <trkpt lat="42.27926" lon="22.65196">
        <ele>575.574719</ele>
        <time>2022-02-23T12:36:07.598Z</time>
      </trkpt>
      <trkpt lat="42.27916" lon="22.6507">
        <ele>578.509424</ele>
        <time>2022-02-23T12:36:47.857Z</time>
      </trkpt>
      <trkpt lat="42.27887" lon="22.64728">
        <ele>588.300609</ele>
        <time>2022-02-23T12:38:46.395Z</time>
      </trkpt>
      <trkpt lat="42.27882" lon="22.64694">
        <ele>589.150534</ele>
        <time>2022-02-23T12:38:57.630Z</time>
      </trkpt>
      <trkpt lat="42.27874" lon="22.64682">
        <ele>589.566997</ele>
        <time>2022-02-23T12:39:02.056Z</time>
      </trkpt>
      <trkpt lat="42.27827" lon="22.64647">
        <ele>591.393497</ele>
        <time>2022-02-23T12:39:25.237Z</time>
      </trkpt>
      <trkpt lat="42.27771" lon="22.6459">
        <ele>593.870941</ele>
        <time>2022-02-23T12:39:54.812Z</time>
      </trkpt>
      <trkpt lat="42.27754" lon="22.64543">
        <ele>595.32068</ele>
        <time>2022-02-23T12:40:10.757Z</time>
      </trkpt>
      <trkpt lat="42.27694" lon="22.64502">
        <ele>597.780878</ele>
        <time>2022-02-23T12:40:40.192Z</time>
      </trkpt>
      <trkpt lat="42.27684" lon="22.64488">
        <ele>598.304924</ele>
        <time>2022-02-23T12:40:46.776Z</time>
      </trkpt>
      <trkpt lat="42.27672" lon="22.64453">
        <ele>599.437041</ele>
        <time>2022-02-23T12:41:01.866Z</time>
      </trkpt>
      <trkpt lat="42.27648" lon="22.64335">
        <ele>605.210756</ele>
        <time>2022-02-23T12:41:54.080Z</time>
      </trkpt>
      <trkpt lat="42.27637" lon="22.64314">
        <ele>606.417952</ele>
        <time>2022-02-23T12:42:05.835Z</time>
      </trkpt>
      <trkpt lat="42.27623" lon="22.64306">
        <ele>607.351381</ele>
        <time>2022-02-23T12:42:14.235Z</time>
      </trkpt>
      <trkpt lat="42.27605" lon="22.64302">
        <ele>608.521499</ele>
        <time>2022-02-23T12:42:26.038Z</time>
      </trkpt>
      <trkpt lat="42.27573" lon="22.64295">
        <ele>610.622363</ele>
        <time>2022-02-23T12:42:46.230Z</time>
      </trkpt>
      <trkpt lat="42.27505" lon="22.64276">
        <ele>615.169665</ele>
        <time>2022-02-23T12:43:28.975Z</time>
      </trkpt>
      <trkpt lat="42.27257" lon="22.64263">
        <ele>630.142286</ele>
        <time>2022-02-23T12:45:53.336Z</time>
      </trkpt>
      <trkpt lat="42.27129" lon="22.64232">
        <ele>634.965897</ele>
        <time>2022-02-23T12:46:51.759Z</time>
      </trkpt>
      <trkpt lat="42.27119" lon="22.64234">
        <ele>635.254177</ele>
        <time>2022-02-23T12:46:56.616Z</time>
      </trkpt>
      <trkpt lat="42.27094" lon="22.6406">
        <ele>638.536916</ele>
        <time>2022-02-23T12:47:41.925Z</time>
      </trkpt>
      <trkpt lat="42.27068" lon="22.63877">
        <ele>641.430124</ele>
        <time>2022-02-23T12:48:31.601Z</time>
      </trkpt>
      <trkpt lat="42.27067" lon="22.63871">
        <ele>641.565765</ele>
        <time>2022-02-23T12:48:34.505Z</time>
      </trkpt>
      <trkpt lat="42.27038" lon="22.63676">
        <ele>645.971877</ele>
        <time>2022-02-23T12:49:36.927Z</time>
      </trkpt>
      <trkpt lat="42.27025" lon="22.63586">
        <ele>647.792512</ele>
        <time>2022-02-23T12:50:03.073Z</time>
      </trkpt>
      <trkpt lat="42.27019" lon="22.63542">
        <ele>648.64158</ele>
        <time>2022-02-23T12:50:15.798Z</time>
      </trkpt>
      <trkpt lat="42.26999" lon="22.6341">
        <ele>651.159775</ele>
        <time>2022-02-23T12:50:53.007Z</time>
      </trkpt>
      <trkpt lat="42.26972" lon="22.63225">
        <ele>656.413008</ele>
        <time>2022-02-23T12:51:53.420Z</time>
      </trkpt>
      <trkpt lat="42.26961" lon="22.63149">
        <ele>658.837115</ele>
        <time>2022-02-23T12:52:22.791Z</time>
      </trkpt>
      <trkpt lat="42.26952" lon="22.63081">
        <ele>661.636716</ele>
        <time>2022-02-23T12:52:49.896Z</time>
      </trkpt>
      <trkpt lat="42.26937" lon="22.6298">
        <ele>665.827228</ele>
        <time>2022-02-23T12:53:31.144Z</time>
      </trkpt>
      <trkpt lat="42.26904" lon="22.62752">
        <ele>675.826674</ele>
        <time>2022-02-23T12:55:03.155Z</time>
      </trkpt>
      <trkpt lat="42.26866" lon="22.62496">
        <ele>688.552278</ele>
        <time>2022-02-23T12:56:57.316Z</time>
      </trkpt>
      <trkpt lat="42.26826" lon="22.62221">
        <ele>703.191354</ele>
        <time>2022-02-23T12:59:03.895Z</time>
      </trkpt>
      <trkpt lat="42.26803" lon="22.6206">
        <ele>711.780371</ele>
        <time>2022-02-23T13:00:17.636Z</time>
      </trkpt>
      <trkpt lat="42.2677" lon="22.61835">
        <ele>723.800535</ele>
        <time>2022-02-23T13:02:00.842Z</time>
      </trkpt>
      <trkpt lat="42.26735" lon="22.61591">
        <ele>736.763215</ele>
        <time>2022-02-23T13:03:52.359Z</time>
      </trkpt>
      <trkpt lat="42.26719" lon="22.61483">
        <ele>742.432782</ele>
        <time>2022-02-23T13:04:41.285Z</time>
      </trkpt>
      <trkpt lat="42.26678" lon="22.61182">
        <ele>757.947305</ele>
        <time>2022-02-23T13:06:55.882Z</time>
      </trkpt>
      <trkpt lat="42.26651" lon="22.60981">
        <ele>768.332638</ele>
        <time>2022-02-23T13:08:26.331Z</time>
      </trkpt>
      <trkpt lat="42.26631" lon="22.60852">
        <ele>775.05617</ele>
        <time>2022-02-23T13:09:25.353Z</time>
      </trkpt>
      <trkpt lat="42.26612" lon="22.60726">
        <ele>781.476785</ele>
        <time>2022-02-23T13:10:21.745Z</time>
      </trkpt>
      <trkpt lat="42.26598" lon="22.60634">
        <ele>785.958247</ele>
        <time>2022-02-23T13:11:01.662Z</time>
      </trkpt>
      <trkpt lat="42.26594" lon="22.60609">
        <ele>787.171812</ele>
        <time>2022-02-23T13:11:12.412Z</time>
      </trkpt>
      <trkpt lat="42.26589" lon="22.60582">
        <ele>788.538909</ele>
        <time>2022-02-23T13:11:24.319Z</time>
      </trkpt>
      <trkpt lat="42.26548" lon="22.60283">
        <ele>802.586727</ele>
        <time>2022-02-23T13:13:31.888Z</time>
      </trkpt>
      <trkpt lat="42.26526" lon="22.60125">
        <ele>809.599065</ele>
        <time>2022-02-23T13:14:37.337Z</time>
      </trkpt>
      <trkpt lat="42.26498" lon="22.59923">
        <ele>818.724675</ele>
        <time>2022-02-23T13:16:00.042Z</time>
      </trkpt>
      <trkpt lat="42.26467" lon="22.59701">
        <ele>829.714948</ele>
        <time>2022-02-23T13:17:36.146Z</time>
      </trkpt>
      <trkpt lat="42.26442" lon="22.59518">
        <ele>839.648621</ele>
        <time>2022-02-23T13:19:03.431Z</time>
      </trkpt>
      <trkpt lat="42.26436" lon="22.5948">
        <ele>841.817128</ele>
        <time>2022-02-23T13:19:21.602Z</time>
      </trkpt>
      <trkpt lat="42.26432" lon="22.59451">
        <ele>843.474024</ele>
        <time>2022-02-23T13:19:36.149Z</time>
      </trkpt>
      <trkpt lat="42.26419" lon="22.59362">
        <ele>848.528672</ele>
        <time>2022-02-23T13:20:18.094Z</time>
      </trkpt>
      <trkpt lat="42.26375" lon="22.59055">
        <ele>864.308951</ele>
        <time>2022-02-23T13:22:36.734Z</time>
      </trkpt>
      <trkpt lat="42.26368" lon="22.5901">
        <ele>866.421393</ele>
        <time>2022-02-23T13:22:56.208Z</time>
      </trkpt>
      <trkpt lat="42.26344" lon="22.58832">
        <ele>874.181278</ele>
        <time>2022-02-23T13:24:11.140Z</time>
      </trkpt>
      <trkpt lat="42.26302" lon="22.58537">
        <ele>882.161674</ele>
        <time>2022-02-23T13:25:49.806Z</time>
      </trkpt>
      <trkpt lat="42.26302" lon="22.58511">
        <ele>882.605298</ele>
        <time>2022-02-23T13:25:56.497Z</time>
      </trkpt>
      <trkpt lat="42.26306" lon="22.5848">
        <ele>883.138844</ele>
        <time>2022-02-23T13:26:04.483Z</time>
      </trkpt>
      <trkpt lat="42.26321" lon="22.58439">
        <ele>883.920736</ele>
        <time>2022-02-23T13:26:15.619Z</time>
      </trkpt>
      <trkpt lat="42.26343" lon="22.58409">
        <ele>884.646865</ele>
        <time>2022-02-23T13:26:25.537Z</time>
      </trkpt>
      <trkpt lat="42.26388" lon="22.58379">
        <ele>885.922716</ele>
        <time>2022-02-23T13:26:41.069Z</time>
      </trkpt>
      <trkpt lat="42.26479" lon="22.58366">
        <ele>888.257537</ele>
        <time>2022-02-23T13:27:15.248Z</time>
      </trkpt>
      <trkpt lat="42.2654" lon="22.58342">
        <ele>891.139774</ele>
        <time>2022-02-23T13:27:46.764Z</time>
      </trkpt>
      <trkpt lat="42.26595" lon="22.58296">
        <ele>895.723066</ele>
        <time>2022-02-23T13:28:23.307Z</time>
      </trkpt>
      <trkpt lat="42.26624" lon="22.58256">
        <ele>898.72345</ele>
        <time>2022-02-23T13:28:50.107Z</time>
      </trkpt>
      <trkpt lat="42.26648" lon="22.58214">
        <ele>901.526513</ele>
        <time>2022-02-23T13:29:17.073Z</time>
      </trkpt>
      <trkpt lat="42.26669" lon="22.58156">
        <ele>906.749082</ele>
        <time>2022-02-23T13:29:52.896Z</time>
      </trkpt>
      <trkpt lat="42.26675" lon="22.58099">
        <ele>911.609308</ele>
        <time>2022-02-23T13:30:30.913Z</time>
      </trkpt>
      <trkpt lat="42.26674" lon="22.58034">
        <ele>917.17125</ele>
        <time>2022-02-23T13:31:12.177Z</time>
      </trkpt>
      <trkpt lat="42.26674" lon="22.58023">
        <ele>918.172431</ele>
        <time>2022-02-23T13:31:20.033Z</time>
      </trkpt>
      <trkpt lat="42.26666" lon="22.57964">
        <ele>923.190501</ele>
        <time>2022-02-23T13:31:56.527Z</time>
      </trkpt>
      <trkpt lat="42.26653" lon="22.57919">
        <ele>926.617924</ele>
        <time>2022-02-23T13:32:25.936Z</time>
      </trkpt>
      <trkpt lat="42.26651" lon="22.57912">
        <ele>927.156263</ele>
        <time>2022-02-23T13:32:32.759Z</time>
      </trkpt>
      <trkpt lat="42.26626" lon="22.57858">
        <ele>931.592939</ele>
        <time>2022-02-23T13:33:05.711Z</time>
      </trkpt>
      <trkpt lat="42.26591" lon="22.57817">
        <ele>935.995333</ele>
        <time>2022-02-23T13:33:39.095Z</time>
      </trkpt>
      <trkpt lat="42.2655" lon="22.57784">
        <ele>940.327652</ele>
        <time>2022-02-23T13:34:11.558Z</time>
      </trkpt>
      <trkpt lat="42.26486" lon="22.5775">
        <ele>944.116078</ele>
        <time>2022-02-23T13:34:44.826Z</time>
      </trkpt>
      <trkpt lat="42.26494" lon="22.57725">
        <ele>945.252897</ele>
        <time>2022-02-23T13:34:56.071Z</time>
      </trkpt>
      <trkpt lat="42.26493" lon="22.57686">
        <ele>946.848751</ele>
        <time>2022-02-23T13:35:10.324Z</time>
      </trkpt>
      <trkpt lat="42.26484" lon="22.57673">
        <ele>947.59564</ele>
        <time>2022-02-23T13:35:17.130Z</time>
      </trkpt>
      <trkpt lat="42.26403" lon="22.57663">
        <ele>952.619637</ele>
        <time>2022-02-23T13:36:00.521Z</time>
      </trkpt>
      <trkpt lat="42.26346" lon="22.5763">
        <ele>956.93616</ele>
        <time>2022-02-23T13:36:37.341Z</time>
      </trkpt>
      <trkpt lat="42.2633" lon="22.57607">
        <ele>958.521416</ele>
        <time>2022-02-23T13:36:51.268Z</time>
      </trkpt>
      <trkpt lat="42.26288" lon="22.57489">
        <ele>966.181517</ele>
        <time>2022-02-23T13:37:57.610Z</time>
      </trkpt>
      <trkpt lat="42.2628" lon="22.57475">
        <ele>967.385139</ele>
        <time>2022-02-23T13:38:07.177Z</time>
      </trkpt>
      <trkpt lat="42.26201" lon="22.57439">
        <ele>975.135729</ele>
        <time>2022-02-23T13:39:09.303Z</time>
      </trkpt>
      <trkpt lat="42.26176" lon="22.57417">
        <ele>977.876943</ele>
        <time>2022-02-23T13:39:31.823Z</time>
      </trkpt>
      <trkpt lat="42.26154" lon="22.57392">
        <ele>980.266565</ele>
        <time>2022-02-23T13:39:54.098Z</time>
      </trkpt>
      <trkpt lat="42.26076" lon="22.57263">
        <ele>989.070145</ele>
        <time>2022-02-23T13:41:16.595Z</time>
      </trkpt>
      <trkpt lat="42.26066" lon="22.57234">
        <ele>990.753806</ele>
        <time>2022-02-23T13:41:28.426Z</time>
      </trkpt>
      <trkpt lat="42.2605" lon="22.57178">
        <ele>991.961321</ele>
        <time>2022-02-23T13:41:48.579Z</time>
      </trkpt>
      <trkpt lat="42.26047" lon="22.57168">
        <ele>991.943546</ele>
        <time>2022-02-23T13:41:51.076Z</time>
      </trkpt>
      <trkpt lat="42.2603" lon="22.57055">
        <ele>991.74543</ele>
        <time>2022-02-23T13:42:16.659Z</time>
      </trkpt>
      <trkpt lat="42.2602" lon="22.5694">
        <ele>990.361313</ele>
        <time>2022-02-23T13:42:33.558Z</time>
      </trkpt>
      <trkpt lat="42.26016" lon="22.56914">
        <ele>989.411304</ele>
        <time>2022-02-23T13:42:37.361Z</time>
      </trkpt>
      <trkpt lat="42.26008" lon="22.56907">
        <ele>988.954124</ele>
        <time>2022-02-23T13:42:39.197Z</time>
      </trkpt>
      <trkpt lat="42.26001" lon="22.56903">
        <ele>988.561581</ele>
        <time>2022-02-23T13:42:40.675Z</time>
      </trkpt>
      <trkpt lat="42.25998" lon="22.56848">
        <ele>986.606493</ele>
        <time>2022-02-23T13:42:47.991Z</time>
      </trkpt>
      <trkpt lat="42.25994" lon="22.56805">
        <ele>985.049761</ele>
        <time>2022-02-23T13:42:53.746Z</time>
      </trkpt>
      <trkpt lat="42.25938" lon="22.56315">
        <ele>967.992904</ele>
        <time>2022-02-23T13:44:00.754Z</time>
      </trkpt>
      <trkpt lat="42.25931" lon="22.56251">
        <ele>966.069825</ele>
        <time>2022-02-23T13:44:10.014Z</time>
      </trkpt>
      <trkpt lat="42.25924" lon="22.56203">
        <ele>964.985374</ele>
        <time>2022-02-23T13:44:17.229Z</time>
      </trkpt>
      <trkpt lat="42.25921" lon="22.5618">
        <ele>964.48746</ele>
        <time>2022-02-23T13:44:20.517Z</time>
      </trkpt>
      <trkpt lat="42.25906" lon="22.56076">
        <ele>962.171884</ele>
        <time>2022-02-23T13:44:36.244Z</time>
      </trkpt>
      <trkpt lat="42.25896" lon="22.56032">
        <ele>961.167909</ele>
        <time>2022-02-23T13:44:43.061Z</time>
      </trkpt>
      <trkpt lat="42.25876" lon="22.55942">
        <ele>959.380904</ele>
        <time>2022-02-23T13:44:57.142Z</time>
      </trkpt>
      <trkpt lat="42.25785" lon="22.55586">
        <ele>952.856225</ele>
        <time>2022-02-23T13:45:54.186Z</time>
      </trkpt>
      <trkpt lat="42.257" lon="22.5526">
        <ele>950.103409</ele>
        <time>2022-02-23T13:46:54.395Z</time>
      </trkpt>
      <trkpt lat="42.25692" lon="22.5523">
        <ele>949.834738</ele>
        <time>2022-02-23T13:46:59.834Z</time>
      </trkpt>
      <trkpt lat="42.25671" lon="22.55152">
        <ele>949.138998</ele>
        <time>2022-02-23T13:47:13.830Z</time>
      </trkpt>
      <trkpt lat="42.25619" lon="22.54949">
        <ele>946.670478</ele>
        <time>2022-02-23T13:47:48.840Z</time>
      </trkpt>
      <trkpt lat="42.25606" lon="22.549">
        <ele>946.025065</ele>
        <time>2022-02-23T13:47:57.094Z</time>
      </trkpt>
      <trkpt lat="42.25585" lon="22.54819">
        <ele>944.56261</ele>
        <time>2022-02-23T13:48:10.281Z</time>
      </trkpt>
      <trkpt lat="42.25538" lon="22.54642">
        <ele>941.073467</ele>
        <time>2022-02-23T13:48:38.313Z</time>
      </trkpt>
      <trkpt lat="42.25536" lon="22.54634">
        <ele>940.90936</ele>
        <time>2022-02-23T13:48:39.532Z</time>
      </trkpt>
      <trkpt lat="42.2547" lon="22.54386">
        <ele>935.878113</ele>
        <time>2022-02-23T13:49:18.783Z</time>
      </trkpt>
      <trkpt lat="42.2539" lon="22.54088">
        <ele>932.021783</ele>
        <time>2022-02-23T13:50:08.818Z</time>
      </trkpt>
      <trkpt lat="42.25336" lon="22.53877">
        <ele>931.838911</ele>
        <time>2022-02-23T13:50:52.287Z</time>
      </trkpt>
      <trkpt lat="42.25283" lon="22.53707">
        <ele>933.600679</ele>
        <time>2022-02-23T13:51:38.671Z</time>
      </trkpt>
      <trkpt lat="42.25248" lon="22.53607">
        <ele>935.791754</ele>
        <time>2022-02-23T13:52:10.575Z</time>
      </trkpt>
      <trkpt lat="42.25152" lon="22.53363">
        <ele>942.429714</ele>
        <time>2022-02-23T13:53:38.041Z</time>
      </trkpt>
      <trkpt lat="42.25124" lon="22.5328">
        <ele>944.9788</ele>
        <time>2022-02-23T13:54:09.611Z</time>
      </trkpt>
      <trkpt lat="42.25094" lon="22.53189">
        <ele>948.057417</ele>
        <time>2022-02-23T13:54:44.225Z</time>
      </trkpt>
      <trkpt lat="42.25031" lon="22.53018">
        <ele>953.623212</ele>
        <time>2022-02-23T13:55:50.824Z</time>
      </trkpt>
      <trkpt lat="42.24938" lon="22.52777">
        <ele>959.723868</ele>
        <time>2022-02-23T13:57:15.514Z</time>
      </trkpt>
      <trkpt lat="42.24907" lon="22.52704">
        <ele>961.114206</ele>
        <time>2022-02-23T13:57:38.066Z</time>
      </trkpt>
      <trkpt lat="42.24844" lon="22.52552">
        <ele>962.125876</ele>
        <time>2022-02-23T13:58:17.398Z</time>
      </trkpt>
      <trkpt lat="42.248" lon="22.52459">
        <ele>962.211868</ele>
        <time>2022-02-23T13:58:37.819Z</time>
      </trkpt>
      <trkpt lat="42.24797" lon="22.52452">
        <ele>962.218186</ele>
        <time>2022-02-23T13:58:39.290Z</time>
      </trkpt>
      <trkpt lat="42.24767" lon="22.52396">
        <ele>961.491774</ele>
        <time>2022-02-23T13:58:51.153Z</time>
      </trkpt>
      <trkpt lat="42.24668" lon="22.52218">
        <ele>958.685858</ele>
        <time>2022-02-23T13:59:26.503Z</time>
      </trkpt>
      <trkpt lat="42.24663" lon="22.5221">
        <ele>958.520484</ele>
        <time>2022-02-23T13:59:27.962Z</time>
      </trkpt>
      <trkpt lat="42.24583" lon="22.52071">
        <ele>955.644725</ele>
        <time>2022-02-23T13:59:54.705Z</time>
      </trkpt>
      <trkpt lat="42.24568" lon="22.52045">
        <ele>955.360299</ele>
        <time>2022-02-23T13:59:59.805Z</time>
      </trkpt>
      <trkpt lat="42.24564" lon="22.52038">
        <ele>955.331368</ele>
        <time>2022-02-23T14:00:01.092Z</time>
      </trkpt>
      <trkpt lat="42.24529" lon="22.51978">
        <ele>955.080195</ele>
        <time>2022-02-23T14:00:13.630Z</time>
      </trkpt>
      <trkpt lat="42.2422" lon="22.51437">
        <ele>954.894669</ele>
        <time>2022-02-23T14:02:27.321Z</time>
      </trkpt>
      <trkpt lat="42.24127" lon="22.5127">
        <ele>958.691879</ele>
        <time>2022-02-23T14:03:31.194Z</time>
      </trkpt>
      <trkpt lat="42.2409" lon="22.51207">
        <ele>960.994121</ele>
        <time>2022-02-23T14:03:58.649Z</time>
      </trkpt>
      <trkpt lat="42.24002" lon="22.51086">
        <ele>965.789314</ele>
        <time>2022-02-23T14:04:56.572Z</time>
      </trkpt>
      <trkpt lat="42.23951" lon="22.51024">
        <ele>968.394645</ele>
        <time>2022-02-23T14:05:27.328Z</time>
      </trkpt>
      <trkpt lat="42.23947" lon="22.51018">
        <ele>968.608964</ele>
        <time>2022-02-23T14:05:29.897Z</time>
      </trkpt>
      <trkpt lat="42.2391" lon="22.5097">
        <ele>970.564695</ele>
        <time>2022-02-23T14:05:52.928Z</time>
      </trkpt>
      <trkpt lat="42.23882" lon="22.5093">
        <ele>972.056459</ele>
        <time>2022-02-23T14:06:10.923Z</time>
      </trkpt>
      <trkpt lat="42.23859" lon="22.50892">
        <ele>973.231379</ele>
        <time>2022-02-23T14:06:26.562Z</time>
      </trkpt>
      <trkpt lat="42.23842" lon="22.50863">
        <ele>974.131431</ele>
        <time>2022-02-23T14:06:38.437Z</time>
      </trkpt>
      <trkpt lat="42.23806" lon="22.50804">
        <ele>975.994068</ele>
        <time>2022-02-23T14:07:01.946Z</time>
      </trkpt>
      <trkpt lat="42.23787" lon="22.50774">
        <ele>976.937127</ele>
        <time>2022-02-23T14:07:13.717Z</time>
      </trkpt>
      <trkpt lat="42.23699" lon="22.50628">
        <ele>981.251591</ele>
        <time>2022-02-23T14:08:12.629Z</time>
      </trkpt>
      <trkpt lat="42.23651" lon="22.50544">
        <ele>983.677956</ele>
        <time>2022-02-23T14:08:43.882Z</time>
      </trkpt>
      <trkpt lat="42.23641" lon="22.50501">
        <ele>984.698134</ele>
        <time>2022-02-23T14:08:58.134Z</time>
      </trkpt>
      <trkpt lat="42.23631" lon="22.50373">
        <ele>987.611514</ele>
        <time>2022-02-23T14:09:39.226Z</time>
      </trkpt>
      <trkpt lat="42.23629" lon="22.50344">
        <ele>988.260947</ele>
        <time>2022-02-23T14:09:47.266Z</time>
      </trkpt>
      <trkpt lat="42.23616" lon="22.50336">
        <ele>988.727076</ele>
        <time>2022-02-23T14:09:54.133Z</time>
      </trkpt>
      <trkpt lat="42.23564" lon="22.50217">
        <ele>992.34195</ele>
        <time>2022-02-23T14:10:38.700Z</time>
      </trkpt>
      <trkpt lat="42.23529" lon="22.50074">
        <ele>996.082817</ele>
        <time>2022-02-23T14:11:31.168Z</time>
      </trkpt>
      <trkpt lat="42.23499" lon="22.50136">
        <ele>997.706137</ele>
        <time>2022-02-23T14:11:55.857Z</time>
      </trkpt>
      <trkpt lat="42.23394" lon="22.49749">
        <ele>1004.222364</ele>
        <time>2022-02-23T14:13:47.839Z</time>
      </trkpt>
      <trkpt lat="42.23384" lon="22.49711">
        <ele>1004.4648</ele>
        <time>2022-02-23T14:13:56.402Z</time>
      </trkpt>
      <trkpt lat="42.23366" lon="22.49647">
        <ele>1004.878413</ele>
        <time>2022-02-23T14:14:10.707Z</time>
      </trkpt>
      <trkpt lat="42.23334" lon="22.49533">
        <ele>1005.652988</ele>
        <time>2022-02-23T14:14:36.317Z</time>
      </trkpt>
      <trkpt lat="42.23265" lon="22.49312">
        <ele>1007.480196</ele>
        <time>2022-02-23T14:15:32.705Z</time>
      </trkpt>
      <trkpt lat="42.23193" lon="22.49108">
        <ele>1010.163103</ele>
        <time>2022-02-23T14:16:30.147Z</time>
      </trkpt>
      <trkpt lat="42.23157" lon="22.49012">
        <ele>1012.172035</ele>
        <time>2022-02-23T14:16:58.861Z</time>
      </trkpt>
      <trkpt lat="42.23156" lon="22.49008">
        <ele>1012.268231</ele>
        <time>2022-02-23T14:17:00.821Z</time>
      </trkpt>
      <trkpt lat="42.2304" lon="22.48705">
        <ele>1020.351544</ele>
        <time>2022-02-23T14:18:47.006Z</time>
      </trkpt>
      <trkpt lat="42.23011" lon="22.48642">
        <ele>1023.275552</ele>
        <time>2022-02-23T14:19:14.506Z</time>
      </trkpt>
      <trkpt lat="42.22982" lon="22.48589">
        <ele>1026.12138</ele>
        <time>2022-02-23T14:19:42.853Z</time>
      </trkpt>
      <trkpt lat="42.22923" lon="22.48504">
        <ele>1031.108592</ele>
        <time>2022-02-23T14:20:32.570Z</time>
      </trkpt>
      <trkpt lat="42.22916" lon="22.48495">
        <ele>1031.627791</ele>
        <time>2022-02-23T14:20:39.504Z</time>
      </trkpt>
      <trkpt lat="42.22895" lon="22.4847">
        <ele>1032.929833</ele>
        <time>2022-02-23T14:20:54.480Z</time>
      </trkpt>
      <trkpt lat="42.22665" lon="22.48229">
        <ele>1045.662789</ele>
        <time>2022-02-23T14:23:11.459Z</time>
      </trkpt>
      <trkpt lat="42.22565" lon="22.48129">
        <ele>1050.374345</ele>
        <time>2022-02-23T14:24:03.930Z</time>
      </trkpt>
      <trkpt lat="42.22441" lon="22.48006">
        <ele>1056.089654</ele>
        <time>2022-02-23T14:25:15.474Z</time>
      </trkpt>
      <trkpt lat="42.22377" lon="22.47933">
        <ele>1059.191618</ele>
        <time>2022-02-23T14:25:52.727Z</time>
      </trkpt>
      <trkpt lat="42.22356" lon="22.47899">
        <ele>1060.385602</ele>
        <time>2022-02-23T14:26:06.314Z</time>
      </trkpt>
      <trkpt lat="42.22341" lon="22.47861">
        <ele>1061.347054</ele>
        <time>2022-02-23T14:26:19.152Z</time>
      </trkpt>
      <trkpt lat="42.22331" lon="22.47821">
        <ele>1062.281776</ele>
        <time>2022-02-23T14:26:31.687Z</time>
      </trkpt>
      <trkpt lat="42.22324" lon="22.47744">
        <ele>1064.000699</ele>
        <time>2022-02-23T14:26:54.042Z</time>
      </trkpt>
      <trkpt lat="42.2233" lon="22.47666">
        <ele>1065.790133</ele>
        <time>2022-02-23T14:27:17.097Z</time>
      </trkpt>
      <trkpt lat="42.22333" lon="22.47633">
        <ele>1067.268812</ele>
        <time>2022-02-23T14:27:27.902Z</time>
      </trkpt>
      <trkpt lat="42.22332" lon="22.4755">
        <ele>1070.961612</ele>
        <time>2022-02-23T14:28:00.508Z</time>
      </trkpt>
      <trkpt lat="42.22318" lon="22.47499">
        <ele>1073.365656</ele>
        <time>2022-02-23T14:28:24.879Z</time>
      </trkpt>
      <trkpt lat="42.22304" lon="22.47475">
        <ele>1074.674973</ele>
        <time>2022-02-23T14:28:38.735Z</time>
      </trkpt>
      <trkpt lat="42.22269" lon="22.47439">
        <ele>1077.59829</ele>
        <time>2022-02-23T14:29:06.206Z</time>
      </trkpt>
      <trkpt lat="42.22248" lon="22.47427">
        <ele>1079.427505</ele>
        <time>2022-02-23T14:29:22.014Z</time>
      </trkpt>
      <trkpt lat="42.22033" lon="22.47316">
        <ele>1097.606003</ele>
        <time>2022-02-23T14:31:51.942Z</time>
      </trkpt>
      <trkpt lat="42.21912" lon="22.47249">
        <ele>1106.997059</ele>
        <time>2022-02-23T14:33:16.259Z</time>
      </trkpt>
      <trkpt lat="42.21761" lon="22.47161">
        <ele>1115.635252</ele>
        <time>2022-02-23T14:34:41.215Z</time>
      </trkpt>
      <trkpt lat="42.21757" lon="22.47159">
        <ele>1115.774906</ele>
        <time>2022-02-23T14:34:42.343Z</time>
      </trkpt>
      <trkpt lat="42.21726" lon="22.47138">
        <ele>1116.732453</ele>
        <time>2022-02-23T14:34:55.829Z</time>
      </trkpt>
      <trkpt lat="42.21704" lon="22.47105">
        <ele>1117.662466</ele>
        <time>2022-02-23T14:35:08.180Z</time>
      </trkpt>
      <trkpt lat="42.2169" lon="22.4706">
        <ele>1118.690022</ele>
        <time>2022-02-23T14:35:21.166Z</time>
      </trkpt>
      <trkpt lat="42.21689" lon="22.46984">
        <ele>1120.47722</ele>
        <time>2022-02-23T14:35:40.426Z</time>
      </trkpt>
      <trkpt lat="42.21707" lon="22.4693">
        <ele>1122.771679</ele>
        <time>2022-02-23T14:35:58.401Z</time>
      </trkpt>
      <trkpt lat="42.21864" lon="22.46639">
        <ele>1139.679014</ele>
        <time>2022-02-23T14:38:33.657Z</time>
      </trkpt>
      <trkpt lat="42.21891" lon="22.46565">
        <ele>1144.283682</ele>
        <time>2022-02-23T14:39:18.330Z</time>
      </trkpt>
      <trkpt lat="42.21896" lon="22.46536">
        <ele>1146.003191</ele>
        <time>2022-02-23T14:39:32.951Z</time>
      </trkpt>
      <trkpt lat="42.21897" lon="22.46527">
        <ele>1146.544859</ele>
        <time>2022-02-23T14:39:40.791Z</time>
      </trkpt>
      <trkpt lat="42.21899" lon="22.46447">
        <ele>1151.199102</ele>
        <time>2022-02-23T14:40:17.335Z</time>
      </trkpt>
      <trkpt lat="42.2189" lon="22.46333">
        <ele>1157.345311</ele>
        <time>2022-02-23T14:41:11.064Z</time>
      </trkpt>
      <trkpt lat="42.21901" lon="22.46307">
        <ele>1158.123112</ele>
        <time>2022-02-23T14:41:22.391Z</time>
      </trkpt>
      <trkpt lat="42.21906" lon="22.46294">
        <ele>1158.513511</ele>
        <time>2022-02-23T14:41:28.149Z</time>
      </trkpt>
      <trkpt lat="42.21909" lon="22.4628">
        <ele>1158.882429</ele>
        <time>2022-02-23T14:41:33.652Z</time>
      </trkpt>
      <trkpt lat="42.219" lon="22.46151">
        <ele>1162.242275</ele>
        <time>2022-02-23T14:42:14.113Z</time>
      </trkpt>
      <trkpt lat="42.21901" lon="22.46121">
        <ele>1163.034272</ele>
        <time>2022-02-23T14:42:19.663Z</time>
      </trkpt>
      <trkpt lat="42.21903" lon="22.46103">
        <ele>1163.144376</ele>
        <time>2022-02-23T14:42:22.818Z</time>
      </trkpt>
      <trkpt lat="42.21906" lon="22.46084">
        <ele>1163.026016</ele>
        <time>2022-02-23T14:42:26.548Z</time>
      </trkpt>
      <trkpt lat="42.21914" lon="22.46055">
        <ele>1162.846103</ele>
        <time>2022-02-23T14:42:33.106Z</time>
      </trkpt>
      <trkpt lat="42.21932" lon="22.45994">
        <ele>1162.454884</ele>
        <time>2022-02-23T14:42:45.108Z</time>
      </trkpt>
      <trkpt lat="42.21944" lon="22.45971">
        <ele>1162.287976</ele>
        <time>2022-02-23T14:42:50.747Z</time>
      </trkpt>
      <trkpt lat="42.21976" lon="22.45949">
        <ele>1162.003247</ele>
        <time>2022-02-23T14:42:59.159Z</time>
      </trkpt>
      <trkpt lat="42.2199" lon="22.45939">
        <ele>1161.880194</ele>
        <time>2022-02-23T14:43:02.262Z</time>
      </trkpt>
      <trkpt lat="42.22007" lon="22.45925">
        <ele>1161.45703</ele>
        <time>2022-02-23T14:43:06.270Z</time>
      </trkpt>
      <trkpt lat="42.22036" lon="22.45919">
        <ele>1160.139671</ele>
        <time>2022-02-23T14:43:11.956Z</time>
      </trkpt>
      <trkpt lat="42.22059" lon="22.45903">
        <ele>1158.979018</ele>
        <time>2022-02-23T14:43:16.959Z</time>
      </trkpt>
      <trkpt lat="42.22093" lon="22.45877">
        <ele>1157.230112</ele>
        <time>2022-02-23T14:43:23.990Z</time>
      </trkpt>
      <trkpt lat="42.2211" lon="22.45831">
        <ele>1155.512562</ele>
        <time>2022-02-23T14:43:30.912Z</time>
      </trkpt>
      <trkpt lat="42.22116" lon="22.45821">
        <ele>1155.112622</ele>
        <time>2022-02-23T14:43:32.460Z</time>
      </trkpt>
      <trkpt lat="42.22125" lon="22.45792">
        <ele>1154.056171</ele>
        <time>2022-02-23T14:43:36.779Z</time>
      </trkpt>
      <trkpt lat="42.22131" lon="22.45749">
        <ele>1152.142039</ele>
        <time>2022-02-23T14:43:42.589Z</time>
      </trkpt>
      <trkpt lat="42.22131" lon="22.45733">
        <ele>1151.403186</ele>
        <time>2022-02-23T14:43:44.592Z</time>
      </trkpt>
      <trkpt lat="42.2213" lon="22.45725">
        <ele>1151.020107</ele>
        <time>2022-02-23T14:43:45.661Z</time>
      </trkpt>
      <trkpt lat="42.22119" lon="22.45698">
        <ele>1149.572983</ele>
        <time>2022-02-23T14:43:51.127Z</time>
      </trkpt>
      <trkpt lat="42.22107" lon="22.45676">
        <ele>1148.24556</ele>
        <time>2022-02-23T14:43:56.008Z</time>
      </trkpt>
      <trkpt lat="42.22076" lon="22.45642">
        <ele>1145.698789</ele>
        <time>2022-02-23T14:44:05.512Z</time>
      </trkpt>
      <trkpt lat="42.22047" lon="22.45626">
        <ele>1143.74047</ele>
        <time>2022-02-23T14:44:12.883Z</time>
      </trkpt>
      <trkpt lat="42.22006" lon="22.45617">
        <ele>1141.407788</ele>
        <time>2022-02-23T14:44:22.729Z</time>
      </trkpt>
      <trkpt lat="42.21992" lon="22.45613">
        <ele>1140.720833</ele>
        <time>2022-02-23T14:44:26.174Z</time>
      </trkpt>
      <trkpt lat="42.21985" lon="22.45608">
        <ele>1140.340606</ele>
        <time>2022-02-23T14:44:28.124Z</time>
      </trkpt>
      <trkpt lat="42.21923" lon="22.45552">
        <ele>1136.814529</ele>
        <time>2022-02-23T14:44:47.015Z</time>
      </trkpt>
      <trkpt lat="42.219" lon="22.45527">
        <ele>1135.422989</ele>
        <time>2022-02-23T14:44:54.553Z</time>
      </trkpt>
      <trkpt lat="42.21886" lon="22.45516">
        <ele>1134.650237</ele>
        <time>2022-02-23T14:44:57.663Z</time>
      </trkpt>
      <trkpt lat="42.21865" lon="22.45495">
        <ele>1133.518773</ele>
        <time>2022-02-23T14:45:02.643Z</time>
      </trkpt>
      <trkpt lat="42.21856" lon="22.4548">
        <ele>1133.090961</ele>
        <time>2022-02-23T14:45:05.477Z</time>
      </trkpt>
      <trkpt lat="42.21848" lon="22.45463">
        <ele>1132.636707</ele>
        <time>2022-02-23T14:45:08.692Z</time>
      </trkpt>
      <trkpt lat="42.21835" lon="22.45417">
        <ele>1131.558435</ele>
        <time>2022-02-23T14:45:16.080Z</time>
      </trkpt>
      <trkpt lat="42.21831" lon="22.45329">
        <ele>1129.581502</ele>
        <time>2022-02-23T14:45:29.455Z</time>
      </trkpt>
      <trkpt lat="42.21824" lon="22.45278">
        <ele>1128.43392</ele>
        <time>2022-02-23T14:45:37.007Z</time>
      </trkpt>
      <trkpt lat="42.21807" lon="22.45237">
        <ele>1126.656685</ele>
        <time>2022-02-23T14:45:43.674Z</time>
      </trkpt>
      <trkpt lat="42.21766" lon="22.45194">
        <ele>1123.964596</ele>
        <time>2022-02-23T14:45:53.069Z</time>
      </trkpt>
      <trkpt lat="42.21741" lon="22.45183">
        <ele>1122.577724</ele>
        <time>2022-02-23T14:45:57.820Z</time>
      </trkpt>
      <trkpt lat="42.21685" lon="22.45171">
        <ele>1119.608688</ele>
        <time>2022-02-23T14:46:07.753Z</time>
      </trkpt>
      <trkpt lat="42.21665" lon="22.4516">
        <ele>1118.275216</ele>
        <time>2022-02-23T14:46:11.507Z</time>
      </trkpt>
      <trkpt lat="42.21647" lon="22.45136">
        <ele>1116.379237</ele>
        <time>2022-02-23T14:46:15.832Z</time>
      </trkpt>
      <trkpt lat="42.21635" lon="22.45099">
        <ele>1114.136557</ele>
        <time>2022-02-23T14:46:20.920Z</time>
      </trkpt>
      <trkpt lat="42.21635" lon="22.45076">
        <ele>1112.899001</ele>
        <time>2022-02-23T14:46:23.725Z</time>
      </trkpt>
      <trkpt lat="42.21647" lon="22.4504">
        <ele>1110.712168</ele>
        <time>2022-02-23T14:46:28.657Z</time>
      </trkpt>
      <trkpt lat="42.21669" lon="22.45015">
        <ele>1108.575917</ele>
        <time>2022-02-23T14:46:33.511Z</time>
      </trkpt>
      <trkpt lat="42.21685" lon="22.45008">
        <ele>1107.337439</ele>
        <time>2022-02-23T14:46:36.326Z</time>
      </trkpt>
      <trkpt lat="42.21713" lon="22.45011">
        <ele>1105.239063</ele>
        <time>2022-02-23T14:46:41.107Z</time>
      </trkpt>
      <trkpt lat="42.21779" lon="22.45047">
        <ele>1099.947759</ele>
        <time>2022-02-23T14:46:53.331Z</time>
      </trkpt>
      <trkpt lat="42.21803" lon="22.45053">
        <ele>1098.160012</ele>
        <time>2022-02-23T14:46:57.468Z</time>
      </trkpt>
      <trkpt lat="42.21827" lon="22.45048">
        <ele>1096.360803</ele>
        <time>2022-02-23T14:47:01.625Z</time>
      </trkpt>
      <trkpt lat="42.21859" lon="22.45024">
        <ele>1093.669342</ele>
        <time>2022-02-23T14:47:07.851Z</time>
      </trkpt>
      <trkpt lat="42.21875" lon="22.45">
        <ele>1091.903255</ele>
        <time>2022-02-23T14:47:11.890Z</time>
      </trkpt>
      <trkpt lat="42.21883" lon="22.44975">
        <ele>1090.309507</ele>
        <time>2022-02-23T14:47:15.341Z</time>
      </trkpt>
      <trkpt lat="42.21884" lon="22.44925">
        <ele>1087.483062</ele>
        <time>2022-02-23T14:47:21.514Z</time>
      </trkpt>
      <trkpt lat="42.21874" lon="22.44886">
        <ele>1085.094231</ele>
        <time>2022-02-23T14:47:26.754Z</time>
      </trkpt>
      <trkpt lat="42.21837" lon="22.44842">
        <ele>1081.322213</ele>
        <time>2022-02-23T14:47:35.034Z</time>
      </trkpt>
      <trkpt lat="42.21823" lon="22.44829">
        <ele>1079.977884</ele>
        <time>2022-02-23T14:47:37.970Z</time>
      </trkpt>
      <trkpt lat="42.21809" lon="22.44818">
        <ele>1078.729365</ele>
        <time>2022-02-23T14:47:40.696Z</time>
      </trkpt>
      <trkpt lat="42.21769" lon="22.44781">
        <ele>1075.272374</ele>
        <time>2022-02-23T14:47:48.909Z</time>
      </trkpt>
      <trkpt lat="42.21732" lon="22.44727">
        <ele>1071.411799</ele>
        <time>2022-02-23T14:47:58.182Z</time>
      </trkpt>
      <trkpt lat="42.21716" lon="22.44659">
        <ele>1067.672249</ele>
        <time>2022-02-23T14:48:07.263Z</time>
      </trkpt>
      <trkpt lat="42.2172" lon="22.44601">
        <ele>1064.960555</ele>
        <time>2022-02-23T14:48:14.844Z</time>
      </trkpt>
      <trkpt lat="42.21735" lon="22.44551">
        <ele>1063.032724</ele>
        <time>2022-02-23T14:48:22.021Z</time>
      </trkpt>
      <trkpt lat="42.21766" lon="22.44503">
        <ele>1060.758831</ele>
        <time>2022-02-23T14:48:30.583Z</time>
      </trkpt>
      <trkpt lat="42.21811" lon="22.44466">
        <ele>1058.258425</ele>
        <time>2022-02-23T14:48:40.262Z</time>
      </trkpt>
      <trkpt lat="42.21861" lon="22.44448">
        <ele>1056.283778</ele>
        <time>2022-02-23T14:48:50.235Z</time>
      </trkpt>
      <trkpt lat="42.21911" lon="22.44454">
        <ele>1054.879742</ele>
        <time>2022-02-23T14:49:00.302Z</time>
      </trkpt>
      <trkpt lat="42.21938" lon="22.44467">
        <ele>1054.074529</ele>
        <time>2022-02-23T14:49:06.265Z</time>
      </trkpt>
      <trkpt lat="42.21958" lon="22.44489">
        <ele>1053.349422</ele>
        <time>2022-02-23T14:49:11.676Z</time>
      </trkpt>
      <trkpt lat="42.21983" lon="22.44531">
        <ele>1052.237934</ele>
        <time>2022-02-23T14:49:19.804Z</time>
      </trkpt>
      <trkpt lat="42.22019" lon="22.44656">
        <ele>1046.940882</ele>
        <time>2022-02-23T14:49:39.372Z</time>
      </trkpt>
      <trkpt lat="42.2204" lon="22.44708">
        <ele>1044.479457</ele>
        <time>2022-02-23T14:49:47.245Z</time>
      </trkpt>
      <trkpt lat="42.22051" lon="22.44726">
        <ele>1043.505919</ele>
        <time>2022-02-23T14:49:50.218Z</time>
      </trkpt>
      <trkpt lat="42.22102" lon="22.4477">
        <ele>1038.028542</ele>
        <time>2022-02-23T14:49:59.860Z</time>
      </trkpt>
      <trkpt lat="42.22139" lon="22.44785">
        <ele>1033.114312</ele>
        <time>2022-02-23T14:50:06.058Z</time>
      </trkpt>
      <trkpt lat="42.22156" lon="22.44785">
        <ele>1030.970297</ele>
        <time>2022-02-23T14:50:08.813Z</time>
      </trkpt>
      <trkpt lat="42.22171" lon="22.44785">
        <ele>1029.152127</ele>
        <time>2022-02-23T14:50:11.061Z</time>
      </trkpt>
      <trkpt lat="42.22186" lon="22.44783">
        <ele>1027.245876</ele>
        <time>2022-02-23T14:50:13.472Z</time>
      </trkpt>
      <trkpt lat="42.2221" lon="22.44777">
        <ele>1024.165959</ele>
        <time>2022-02-23T14:50:17.338Z</time>
      </trkpt>
      <trkpt lat="42.22227" lon="22.44764">
        <ele>1021.732011</ele>
        <time>2022-02-23T14:50:20.422Z</time>
      </trkpt>
      <trkpt lat="42.22239" lon="22.44752">
        <ele>1019.79831</ele>
        <time>2022-02-23T14:50:22.821Z</time>
      </trkpt>
      <trkpt lat="42.22248" lon="22.4474">
        <ele>1018.374511</ele>
        <time>2022-02-23T14:50:24.707Z</time>
      </trkpt>
      <trkpt lat="42.22272" lon="22.44689">
        <ele>1013.151487</ele>
        <time>2022-02-23T14:50:31.841Z</time>
      </trkpt>
      <trkpt lat="42.22281" lon="22.44639">
        <ele>1008.792401</ele>
        <time>2022-02-23T14:50:37.757Z</time>
      </trkpt>
      <trkpt lat="42.22259" lon="22.44434">
        <ele>993.157947</ele>
        <time>2022-02-23T14:51:03.084Z</time>
      </trkpt>
      <trkpt lat="42.2224" lon="22.44368">
        <ele>988.742694</ele>
        <time>2022-02-23T14:51:11.943Z</time>
      </trkpt>
      <trkpt lat="42.22197" lon="22.44288">
        <ele>982.684913</ele>
        <time>2022-02-23T14:51:24.287Z</time>
      </trkpt>
      <trkpt lat="42.22058" lon="22.44076">
        <ele>965.579516</ele>
        <time>2022-02-23T14:51:59.748Z</time>
      </trkpt>
      <trkpt lat="42.21962" lon="22.43958">
        <ele>953.83842</ele>
        <time>2022-02-23T14:52:20.954Z</time>
      </trkpt>
      <trkpt lat="42.21834" lon="22.43827">
        <ele>939.870999</ele>
        <time>2022-02-23T14:52:47.426Z</time>
      </trkpt>
      <trkpt lat="42.21811" lon="22.43788">
        <ele>936.993921</ele>
        <time>2022-02-23T14:52:53.804Z</time>
      </trkpt>
      <trkpt lat="42.21801" lon="22.4375">
        <ele>935.655432</ele>
        <time>2022-02-23T14:52:59.113Z</time>
      </trkpt>
      <trkpt lat="42.21803" lon="22.43685">
        <ele>933.527283</ele>
        <time>2022-02-23T14:53:07.783Z</time>
      </trkpt>
      <trkpt lat="42.21815" lon="22.43645">
        <ele>932.114647</ele>
        <time>2022-02-23T14:53:13.751Z</time>
      </trkpt>
      <trkpt lat="42.21925" lon="22.43404">
        <ele>925.4586</ele>
        <time>2022-02-23T14:53:57.402Z</time>
      </trkpt>
      <trkpt lat="42.21944" lon="22.43381">
        <ele>924.777029</ele>
        <time>2022-02-23T14:54:03.153Z</time>
      </trkpt>
      <trkpt lat="42.21976" lon="22.43359">
        <ele>922.119333</ele>
        <time>2022-02-23T14:54:09.934Z</time>
      </trkpt>
      <trkpt lat="42.22028" lon="22.43346">
        <ele>917.548468</ele>
        <time>2022-02-23T14:54:18.689Z</time>
      </trkpt>
      <trkpt lat="42.22045" lon="22.43344">
        <ele>916.030978</ele>
        <time>2022-02-23T14:54:21.902Z</time>
      </trkpt>
      <trkpt lat="42.22063" lon="22.43341">
        <ele>914.496811</ele>
        <time>2022-02-23T14:54:24.719Z</time>
      </trkpt>
      <trkpt lat="42.22091" lon="22.43326">
        <ele>911.883132</ele>
        <time>2022-02-23T14:54:29.722Z</time>
      </trkpt>
      <trkpt lat="42.22106" lon="22.43309">
        <ele>910.237582</ele>
        <time>2022-02-23T14:54:32.835Z</time>
      </trkpt>
      <trkpt lat="42.22111" lon="22.43296">
        <ele>909.300626</ele>
        <time>2022-02-23T14:54:34.605Z</time>
      </trkpt>
      <trkpt lat="42.22115" lon="22.4328">
        <ele>907.689715</ele>
        <time>2022-02-23T14:54:36.571Z</time>
      </trkpt>
      <trkpt lat="42.22115" lon="22.4325">
        <ele>904.744771</ele>
        <time>2022-02-23T14:54:40.218Z</time>
      </trkpt>
      <trkpt lat="42.2211" lon="22.43231">
        <ele>902.811239</ele>
        <time>2022-02-23T14:54:42.445Z</time>
      </trkpt>
      <trkpt lat="42.22062" lon="22.43103">
        <ele>888.727115</ele>
        <time>2022-02-23T14:54:58.997Z</time>
      </trkpt>
      <trkpt lat="42.22052" lon="22.43052">
        <ele>884.402963</ele>
        <time>2022-02-23T14:55:05.371Z</time>
      </trkpt>
      <trkpt lat="42.22055" lon="22.42999">
        <ele>881.792742</ele>
        <time>2022-02-23T14:55:11.856Z</time>
      </trkpt>
      <trkpt lat="42.2209" lon="22.42898">
        <ele>876.244989</ele>
        <time>2022-02-23T14:55:26.305Z</time>
      </trkpt>
      <trkpt lat="42.22148" lon="22.42764">
        <ele>871.319178</ele>
        <time>2022-02-23T14:55:49.117Z</time>
      </trkpt>
      <trkpt lat="42.22181" lon="22.42712">
        <ele>869.896507</ele>
        <time>2022-02-23T14:56:00.146Z</time>
      </trkpt>
      <trkpt lat="42.22209" lon="22.4269">
        <ele>868.967891</ele>
        <time>2022-02-23T14:56:07.141Z</time>
      </trkpt>
      <trkpt lat="42.2224" lon="22.42682">
        <ele>867.893861</ele>
        <time>2022-02-23T14:56:13.409Z</time>
      </trkpt>
      <trkpt lat="42.22331" lon="22.42683">
        <ele>862.158271</ele>
        <time>2022-02-23T14:56:29.783Z</time>
      </trkpt>
      <trkpt lat="42.22355" lon="22.42666">
        <ele>860.39272</ele>
        <time>2022-02-23T14:56:34.494Z</time>
      </trkpt>
      <trkpt lat="42.22369" lon="22.4263">
        <ele>858.498208</ele>
        <time>2022-02-23T14:56:39.453Z</time>
      </trkpt>
      <trkpt lat="42.2237" lon="22.42604">
        <ele>857.239117</ele>
        <time>2022-02-23T14:56:42.724Z</time>
      </trkpt>
      <trkpt lat="42.22357" lon="22.42569">
        <ele>854.746311</ele>
        <time>2022-02-23T14:56:47.455Z</time>
      </trkpt>
      <trkpt lat="42.22343" lon="22.4255">
        <ele>852.880459</ele>
        <time>2022-02-23T14:56:50.695Z</time>
      </trkpt>
      <trkpt lat="42.22289" lon="22.425">
        <ele>846.66642</ele>
        <time>2022-02-23T14:57:01.439Z</time>
      </trkpt>
      <trkpt lat="42.22266" lon="22.42461">
        <ele>843.17563</ele>
        <time>2022-02-23T14:57:07.481Z</time>
      </trkpt>
      <trkpt lat="42.22255" lon="22.42398">
        <ele>839.098484</ele>
        <time>2022-02-23T14:57:15.380Z</time>
      </trkpt>
      <trkpt lat="42.22258" lon="22.42361">
        <ele>837.423651</ele>
        <time>2022-02-23T14:57:20.136Z</time>
      </trkpt>
      <trkpt lat="42.22263" lon="22.42339">
        <ele>836.44179</ele>
        <time>2022-02-23T14:57:22.900Z</time>
      </trkpt>
      <trkpt lat="42.22266" lon="22.42327">
        <ele>835.865317</ele>
        <time>2022-02-23T14:57:24.600Z</time>
      </trkpt>
      <trkpt lat="42.22268" lon="22.42321">
        <ele>835.580128</ele>
        <time>2022-02-23T14:57:25.452Z</time>
      </trkpt>
      <trkpt lat="42.2227" lon="22.42316">
        <ele>835.321424</ele>
        <time>2022-02-23T14:57:26.231Z</time>
      </trkpt>
      <trkpt lat="42.22298" lon="22.42251">
        <ele>831.989684</ele>
        <time>2022-02-23T14:57:36.226Z</time>
      </trkpt>
      <trkpt lat="42.22306" lon="22.42234">
        <ele>831.096012</ele>
        <time>2022-02-23T14:57:39.116Z</time>
      </trkpt>
      <trkpt lat="42.22314" lon="22.4222">
        <ele>830.336323</ele>
        <time>2022-02-23T14:57:41.456Z</time>
      </trkpt>
      <trkpt lat="42.2234" lon="22.42164">
        <ele>828.071455</ele>
        <time>2022-02-23T14:57:50.658Z</time>
      </trkpt>
      <trkpt lat="42.22389" lon="22.42052">
        <ele>824.710871</ele>
        <time>2022-02-23T14:58:09.427Z</time>
      </trkpt>
      <trkpt lat="42.22395" lon="22.42035">
        <ele>824.222036</ele>
        <time>2022-02-23T14:58:12.170Z</time>
      </trkpt>
      <trkpt lat="42.224" lon="22.42021">
        <ele>823.809883</ele>
        <time>2022-02-23T14:58:14.376Z</time>
      </trkpt>
      <trkpt lat="42.22446" lon="22.41882">
        <ele>820.629643</ele>
        <time>2022-02-23T14:58:36.435Z</time>
      </trkpt>
      <trkpt lat="42.22455" lon="22.41831">
        <ele>819.630674</ele>
        <time>2022-02-23T14:58:44.076Z</time>
      </trkpt>
      <trkpt lat="42.22464" lon="22.41732">
        <ele>817.950082</ele>
        <time>2022-02-23T14:59:00.094Z</time>
      </trkpt>
      <trkpt lat="42.22471" lon="22.41528">
        <ele>816.275592</ele>
        <time>2022-02-23T14:59:35.229Z</time>
      </trkpt>
      <trkpt lat="42.22484" lon="22.41437">
        <ele>815.432369</ele>
        <time>2022-02-23T14:59:51.430Z</time>
      </trkpt>
      <trkpt lat="42.22498" lon="22.41395">
        <ele>814.999184</ele>
        <time>2022-02-23T14:59:59.303Z</time>
      </trkpt>
      <trkpt lat="42.22573" lon="22.41244">
        <ele>812.968165</ele>
        <time>2022-02-23T15:00:28.769Z</time>
      </trkpt>
      <trkpt lat="42.22594" lon="22.41163">
        <ele>811.69781</ele>
        <time>2022-02-23T15:00:41.965Z</time>
      </trkpt>
      <trkpt lat="42.22597" lon="22.41094">
        <ele>810.67947</ele>
        <time>2022-02-23T15:00:52.691Z</time>
      </trkpt>
      <trkpt lat="42.22596" lon="22.41081">
        <ele>810.490856</ele>
        <time>2022-02-23T15:00:54.592Z</time>
      </trkpt>
      <trkpt lat="42.22594" lon="22.41051">
        <ele>810.045348</ele>
        <time>2022-02-23T15:00:59.402Z</time>
      </trkpt>
      <trkpt lat="42.22578" lon="22.40976">
        <ele>808.920072</ele>
        <time>2022-02-23T15:01:11.513Z</time>
      </trkpt>
      <trkpt lat="42.22541" lon="22.40849">
        <ele>806.953166</ele>
        <time>2022-02-23T15:01:32.927Z</time>
      </trkpt>
      <trkpt lat="42.22533" lon="22.40769">
        <ele>805.640082</ele>
        <time>2022-02-23T15:01:45.931Z</time>
      </trkpt>
      <trkpt lat="42.22531" lon="22.40719">
        <ele>804.795457</ele>
        <time>2022-02-23T15:01:53.884Z</time>
      </trkpt>
      <trkpt lat="42.22537" lon="22.40603">
        <ele>802.853476</ele>
        <time>2022-02-23T15:02:11.416Z</time>
      </trkpt>
      <trkpt lat="42.22524" lon="22.40471">
        <ele>799.736719</ele>
        <time>2022-02-23T15:02:30.724Z</time>
      </trkpt>
      <trkpt lat="42.2253" lon="22.40334">
        <ele>796.355859</ele>
        <time>2022-02-23T15:02:50.390Z</time>
      </trkpt>
      <trkpt lat="42.22521" lon="22.40194">
        <ele>792.312476</ele>
        <time>2022-02-23T15:03:10.032Z</time>
      </trkpt>
      <trkpt lat="42.2252" lon="22.40187">
        <ele>792.110163</ele>
        <time>2022-02-23T15:03:11.014Z</time>
      </trkpt>
      <trkpt lat="42.22518" lon="22.40177">
        <ele>791.781445</ele>
        <time>2022-02-23T15:03:12.708Z</time>
      </trkpt>
      <trkpt lat="42.2251" lon="22.40153">
        <ele>791.048</ele>
        <time>2022-02-23T15:03:16.189Z</time>
      </trkpt>
      <trkpt lat="42.22503" lon="22.40131">
        <ele>790.351918</ele>
        <time>2022-02-23T15:03:19.641Z</time>
      </trkpt>
      <trkpt lat="42.22494" lon="22.40105">
        <ele>789.520578</ele>
        <time>2022-02-23T15:03:23.558Z</time>
      </trkpt>
      <trkpt lat="42.22422" lon="22.39913">
        <ele>783.230853</ele>
        <time>2022-02-23T15:03:53.418Z</time>
      </trkpt>
      <trkpt lat="42.22367" lon="22.39806">
        <ele>782.401214</ele>
        <time>2022-02-23T15:04:12.652Z</time>
      </trkpt>
      <trkpt lat="42.22361" lon="22.39754">
        <ele>782.219357</ele>
        <time>2022-02-23T15:04:22.993Z</time>
      </trkpt>
      <trkpt lat="42.22363" lon="22.39671">
        <ele>782.080926</ele>
        <time>2022-02-23T15:04:48.805Z</time>
      </trkpt>
      <trkpt lat="42.22359" lon="22.39619">
        <ele>782.847201</ele>
        <time>2022-02-23T15:05:04.017Z</time>
      </trkpt>
      <trkpt lat="42.22355" lon="22.39603">
        <ele>783.099791</ele>
        <time>2022-02-23T15:05:09.479Z</time>
      </trkpt>
      <trkpt lat="42.22348" lon="22.39585">
        <ele>783.389097</ele>
        <time>2022-02-23T15:05:16.635Z</time>
      </trkpt>
      <trkpt lat="42.22338" lon="22.39551">
        <ele>783.936685</ele>
        <time>2022-02-23T15:05:26.261Z</time>
      </trkpt>
      <trkpt lat="42.2233" lon="22.39524">
        <ele>784.366144</ele>
        <time>2022-02-23T15:05:33.150Z</time>
      </trkpt>
      <trkpt lat="42.22326" lon="22.39494">
        <ele>784.813504</ele>
        <time>2022-02-23T15:05:42.828Z</time>
      </trkpt>
      <trkpt lat="42.22326" lon="22.39481">
        <ele>784.998794</ele>
        <time>2022-02-23T15:05:44.697Z</time>
      </trkpt>
      <trkpt lat="42.22334" lon="22.39438">
        <ele>785.364317</ele>
        <time>2022-02-23T15:05:55.974Z</time>
      </trkpt>
      <trkpt lat="42.22357" lon="22.39377">
        <ele>784.172622</ele>
        <time>2022-02-23T15:06:10.520Z</time>
      </trkpt>
      <trkpt lat="42.22406" lon="22.3931">
        <ele>782.544289</ele>
        <time>2022-02-23T15:06:23.842Z</time>
      </trkpt>
      <trkpt lat="42.22424" lon="22.39277">
        <ele>781.83107</ele>
        <time>2022-02-23T15:06:29.370Z</time>
      </trkpt>
      <trkpt lat="42.2247" lon="22.39045">
        <ele>774.893505</ele>
        <time>2022-02-23T15:07:02.683Z</time>
      </trkpt>
      <trkpt lat="42.22485" lon="22.3899">
        <ele>773.219662</ele>
        <time>2022-02-23T15:07:10.775Z</time>
      </trkpt>
      <trkpt lat="42.22499" lon="22.3896">
        <ele>772.282765</ele>
        <time>2022-02-23T15:07:15.723Z</time>
      </trkpt>
      <trkpt lat="42.22549" lon="22.38888">
        <ele>769.654563</ele>
        <time>2022-02-23T15:07:29.733Z</time>
      </trkpt>
      <trkpt lat="42.22573" lon="22.38839">
        <ele>768.07991</ele>
        <time>2022-02-23T15:07:38.243Z</time>
      </trkpt>
      <trkpt lat="42.22627" lon="22.38702">
        <ele>764.712708</ele>
        <time>2022-02-23T15:08:00.879Z</time>
      </trkpt>
      <trkpt lat="42.22644" lon="22.38643">
        <ele>763.388418</ele>
        <time>2022-02-23T15:08:10.440Z</time>
      </trkpt>
      <trkpt lat="42.22659" lon="22.3853">
        <ele>761.139878</ele>
        <time>2022-02-23T15:08:27.801Z</time>
      </trkpt>
      <trkpt lat="42.22737" lon="22.38307">
        <ele>757.044828</ele>
        <time>2022-02-23T15:09:04.941Z</time>
      </trkpt>
      <trkpt lat="42.22872" lon="22.38045">
        <ele>753.986897</ele>
        <time>2022-02-23T15:09:58.677Z</time>
      </trkpt>
      <trkpt lat="42.22911" lon="22.37937">
        <ele>753.021716</ele>
        <time>2022-02-23T15:10:20.270Z</time>
      </trkpt>
      <trkpt lat="42.22917" lon="22.37886">
        <ele>752.424392</ele>
        <time>2022-02-23T15:10:29.195Z</time>
      </trkpt>
      <trkpt lat="42.22906" lon="22.378">
        <ele>751.415986</ele>
        <time>2022-02-23T15:10:43.889Z</time>
      </trkpt>
      <trkpt lat="42.22906" lon="22.37747">
        <ele>750.80493</ele>
        <time>2022-02-23T15:10:52.097Z</time>
      </trkpt>
      <trkpt lat="42.22947" lon="22.37617">
        <ele>747.534494</ele>
        <time>2022-02-23T15:11:12.527Z</time>
      </trkpt>
      <trkpt lat="42.22945" lon="22.37584">
        <ele>746.6641</ele>
        <time>2022-02-23T15:11:17.268Z</time>
      </trkpt>
      <trkpt lat="42.22912" lon="22.37494">
        <ele>744.035237</ele>
        <time>2022-02-23T15:11:31.358Z</time>
      </trkpt>
      <trkpt lat="42.2291" lon="22.37446">
        <ele>742.738854</ele>
        <time>2022-02-23T15:11:37.922Z</time>
      </trkpt>
      <trkpt lat="42.22919" lon="22.37413">
        <ele>741.776911</ele>
        <time>2022-02-23T15:11:42.793Z</time>
      </trkpt>
      <trkpt lat="42.22978" lon="22.37313">
        <ele>738.288336</ele>
        <time>2022-02-23T15:12:00.736Z</time>
      </trkpt>
      <trkpt lat="42.23029" lon="22.37179">
        <ele>736.335416</ele>
        <time>2022-02-23T15:12:23.711Z</time>
      </trkpt>
      <trkpt lat="42.23045" lon="22.37115">
        <ele>735.680528</ele>
        <time>2022-02-23T15:12:35.500Z</time>
      </trkpt>
      <trkpt lat="42.23056" lon="22.36954">
        <ele>735.667378</ele>
        <time>2022-02-23T15:13:11.302Z</time>
      </trkpt>
      <trkpt lat="42.23037" lon="22.36784">
        <ele>736.147024</ele>
        <time>2022-02-23T15:13:50.087Z</time>
      </trkpt>
      <trkpt lat="42.2302" lon="22.36697">
        <ele>735.83988</ele>
        <time>2022-02-23T15:14:07.445Z</time>
      </trkpt>
      <trkpt lat="42.23015" lon="22.36645">
        <ele>735.660618</ele>
        <time>2022-02-23T15:14:16.412Z</time>
      </trkpt>
      <trkpt lat="42.23024" lon="22.36602">
        <ele>735.506717</ele>
        <time>2022-02-23T15:14:23.468Z</time>
      </trkpt>
      <trkpt lat="42.23062" lon="22.36511">
        <ele>735.085498</ele>
        <time>2022-02-23T15:14:41.768Z</time>
      </trkpt>
      <trkpt lat="42.23068" lon="22.36489">
        <ele>734.986174</ele>
        <time>2022-02-23T15:14:45.609Z</time>
      </trkpt>
      <trkpt lat="42.23071" lon="22.36447">
        <ele>734.810691</ele>
        <time>2022-02-23T15:14:53.808Z</time>
      </trkpt>
      <trkpt lat="42.23069" lon="22.36429">
        <ele>734.734922</ele>
        <time>2022-02-23T15:14:56.458Z</time>
      </trkpt>
      <trkpt lat="42.23067" lon="22.36414">
        <ele>734.674329</ele>
        <time>2022-02-23T15:15:01.418Z</time>
      </trkpt>
      <trkpt lat="42.23026" lon="22.36243">
        <ele>734.430256</ele>
        <time>2022-02-23T15:15:36.411Z</time>
      </trkpt>
      <trkpt lat="42.22993" lon="22.36179">
        <ele>734.426255</ele>
        <time>2022-02-23T15:15:54.450Z</time>
      </trkpt>
      <trkpt lat="42.22947" lon="22.36141">
        <ele>733.865343</ele>
        <time>2022-02-23T15:16:07.988Z</time>
      </trkpt>
      <trkpt lat="42.22816" lon="22.36079">
        <ele>730.489275</ele>
        <time>2022-02-23T15:16:36.552Z</time>
      </trkpt>
      <trkpt lat="42.22781" lon="22.36057">
        <ele>728.800884</ele>
        <time>2022-02-23T15:16:43.586Z</time>
      </trkpt>
      <trkpt lat="42.22762" lon="22.36034">
        <ele>727.214592</ele>
        <time>2022-02-23T15:16:48.183Z</time>
      </trkpt>
      <trkpt lat="42.22719" lon="22.35954">
        <ele>722.757895</ele>
        <time>2022-02-23T15:17:00.703Z</time>
      </trkpt>
      <trkpt lat="42.22632" lon="22.35869">
        <ele>717.854743</ele>
        <time>2022-02-23T15:17:19.318Z</time>
      </trkpt>
      <trkpt lat="42.22617" lon="22.35861">
        <ele>717.43615</ele>
        <time>2022-02-23T15:17:22.241Z</time>
      </trkpt>
      <trkpt lat="42.22584" lon="22.35864">
        <ele>716.580596</ele>
        <time>2022-02-23T15:17:28.487Z</time>
      </trkpt>
      <trkpt lat="42.2245" lon="22.35937">
        <ele>715.271246</ele>
        <time>2022-02-23T15:18:11.176Z</time>
      </trkpt>
      <trkpt lat="42.22402" lon="22.35957">
        <ele>716.004445</ele>
        <time>2022-02-23T15:18:33.139Z</time>
      </trkpt>
      <trkpt lat="42.22377" lon="22.35956">
        <ele>716.376584</ele>
        <time>2022-02-23T15:18:42.983Z</time>
      </trkpt>
      <trkpt lat="42.22361" lon="22.35948">
        <ele>716.622413</ele>
        <time>2022-02-23T15:18:49.026Z</time>
      </trkpt>
      <trkpt lat="42.22329" lon="22.35908">
        <ele>716.659213</ele>
        <time>2022-02-23T15:19:01.798Z</time>
      </trkpt>
      <trkpt lat="42.22294" lon="22.35826">
        <ele>715.16544</ele>
        <time>2022-02-23T15:19:17.188Z</time>
      </trkpt>
      <trkpt lat="42.22277" lon="22.35749">
        <ele>713.903901</ele>
        <time>2022-02-23T15:19:28.447Z</time>
      </trkpt>
      <trkpt lat="42.22262" lon="22.35613">
        <ele>712.758798</ele>
        <time>2022-02-23T15:19:48.230Z</time>
      </trkpt>
      <trkpt lat="42.2224" lon="22.35565">
        <ele>712.484075</ele>
        <time>2022-02-23T15:19:57.924Z</time>
      </trkpt>
      <trkpt lat="42.2222" lon="22.35549">
        <ele>712.330528</ele>
        <time>2022-02-23T15:20:04.847Z</time>
      </trkpt>
      <trkpt lat="42.22195" lon="22.35543">
        <ele>712.164099</ele>
        <time>2022-02-23T15:20:13.645Z</time>
      </trkpt>
      <trkpt lat="42.2206" lon="22.35568">
        <ele>714.860668</ele>
        <time>2022-02-23T15:21:12.478Z</time>
      </trkpt>
      <trkpt lat="42.22041" lon="22.35565">
        <ele>715.33736</ele>
        <time>2022-02-23T15:21:20.373Z</time>
      </trkpt>
      <trkpt lat="42.22" lon="22.35537">
        <ele>716.456449</ele>
        <time>2022-02-23T15:21:36.368Z</time>
      </trkpt>
      <trkpt lat="42.21954" lon="22.3547">
        <ele>715.29061</ele>
        <time>2022-02-23T15:21:53.121Z</time>
      </trkpt>
      <trkpt lat="42.21795" lon="22.35326">
        <ele>711.220037</ele>
        <time>2022-02-23T15:22:30.903Z</time>
      </trkpt>
      <trkpt lat="42.21788" lon="22.35312">
        <ele>710.883263</ele>
        <time>2022-02-23T15:22:33.517Z</time>
      </trkpt>
      <trkpt lat="42.2178" lon="22.35279">
        <ele>710.173931</ele>
        <time>2022-02-23T15:22:38.777Z</time>
      </trkpt>
      <trkpt lat="42.21779" lon="22.35191">
        <ele>708.440731</ele>
        <time>2022-02-23T15:22:51.787Z</time>
      </trkpt>
      <trkpt lat="42.21764" lon="22.35167">
        <ele>707.952487</ele>
        <time>2022-02-23T15:22:56.479Z</time>
      </trkpt>
      <trkpt lat="42.21737" lon="22.35152">
        <ele>707.31786</ele>
        <time>2022-02-23T15:23:02.730Z</time>
      </trkpt>
      <trkpt lat="42.21663" lon="22.35136">
        <ele>705.721712</ele>
        <time>2022-02-23T15:23:19.121Z</time>
      </trkpt>
      <trkpt lat="42.21641" lon="22.35119">
        <ele>705.169246</ele>
        <time>2022-02-23T15:23:24.463Z</time>
      </trkpt>
      <trkpt lat="42.21626" lon="22.35098">
        <ele>704.711045</ele>
        <time>2022-02-23T15:23:28.799Z</time>
      </trkpt>
      <trkpt lat="42.21593" lon="22.35015">
        <ele>702.90698</ele>
        <time>2022-02-23T15:23:42.665Z</time>
      </trkpt>
      <trkpt lat="42.21576" lon="22.3499">
        <ele>702.261677</ele>
        <time>2022-02-23T15:23:47.733Z</time>
      </trkpt>
      <trkpt lat="42.21479" lon="22.34917">
        <ele>698.703313</ele>
        <time>2022-02-23T15:24:10.676Z</time>
      </trkpt>
      <trkpt lat="42.21441" lon="22.34874">
        <ele>695.918157</ele>
        <time>2022-02-23T15:24:20.029Z</time>
      </trkpt>
      <trkpt lat="42.21411" lon="22.348">
        <ele>692.427694</ele>
        <time>2022-02-23T15:24:31.077Z</time>
      </trkpt>
      <trkpt lat="42.21392" lon="22.34704">
        <ele>687.462533</ele>
        <time>2022-02-23T15:24:43.257Z</time>
      </trkpt>
      <trkpt lat="42.21384" lon="22.3469">
        <ele>686.273647</ele>
        <time>2022-02-23T15:24:45.515Z</time>
      </trkpt>
      <trkpt lat="42.21374" lon="22.34679">
        <ele>685.163595</ele>
        <time>2022-02-23T15:24:47.554Z</time>
      </trkpt>
      <trkpt lat="42.21306" lon="22.34647">
        <ele>678.860153</ele>
        <time>2022-02-23T15:24:59.508Z</time>
      </trkpt>
      <trkpt lat="42.21288" lon="22.34633">
        <ele>677.059198</ele>
        <time>2022-02-23T15:25:03.050Z</time>
      </trkpt>
      <trkpt lat="42.21278" lon="22.34623">
        <ele>675.996145</ele>
        <time>2022-02-23T15:25:04.983Z</time>
      </trkpt>
      <trkpt lat="42.21265" lon="22.34604">
        <ele>674.307209</ele>
        <time>2022-02-23T15:25:08.340Z</time>
      </trkpt>
      <trkpt lat="42.21256" lon="22.34588">
        <ele>673.334383</ele>
        <time>2022-02-23T15:25:10.737Z</time>
      </trkpt>
      <trkpt lat="42.21245" lon="22.34567">
        <ele>672.103667</ele>
        <time>2022-02-23T15:25:14.029Z</time>
      </trkpt>
      <trkpt lat="42.21244" lon="22.34562">
        <ele>671.837084</ele>
        <time>2022-02-23T15:25:14.745Z</time>
      </trkpt>
      <trkpt lat="42.2122" lon="22.34482">
        <ele>667.727498</ele>
        <time>2022-02-23T15:25:25.582Z</time>
      </trkpt>
      <trkpt lat="42.21193" lon="22.34394">
        <ele>663.179675</ele>
        <time>2022-02-23T15:25:38.362Z</time>
      </trkpt>
      <trkpt lat="42.21142" lon="22.3422">
        <ele>658.255272</ele>
        <time>2022-02-23T15:26:04.453Z</time>
      </trkpt>
      <trkpt lat="42.21109" lon="22.34149">
        <ele>656.609393</ele>
        <time>2022-02-23T15:26:17.723Z</time>
      </trkpt>
      <trkpt lat="42.21062" lon="22.34098">
        <ele>656.680466</ele>
        <time>2022-02-23T15:26:32.506Z</time>
      </trkpt>
      <trkpt lat="42.20964" lon="22.34032">
        <ele>656.802878</ele>
        <time>2022-02-23T15:27:07.512Z</time>
      </trkpt>
      <trkpt lat="42.20929" lon="22.34002">
        <ele>656.73557</ele>
        <time>2022-02-23T15:27:19.317Z</time>
      </trkpt>
      <trkpt lat="42.20915" lon="22.33987">
        <ele>656.70548</ele>
        <time>2022-02-23T15:27:25.430Z</time>
      </trkpt>
      <trkpt lat="42.20906" lon="22.33976">
        <ele>656.686713</ele>
        <time>2022-02-23T15:27:28.249Z</time>
      </trkpt>
      <trkpt lat="42.20869" lon="22.33916">
        <ele>656.592935</ele>
        <time>2022-02-23T15:27:43.974Z</time>
      </trkpt>
      <trkpt lat="42.20859" lon="22.33893">
        <ele>656.560957</ele>
        <time>2022-02-23T15:27:48.490Z</time>
      </trkpt>
      <trkpt lat="42.20853" lon="22.33878">
        <ele>656.53957</ele>
        <time>2022-02-23T15:27:51.596Z</time>
      </trkpt>
      <trkpt lat="42.20845" lon="22.33856">
        <ele>656.470392</ele>
        <time>2022-02-23T15:27:55.365Z</time>
      </trkpt>
      <trkpt lat="42.20833" lon="22.3382">
        <ele>655.744048</ele>
        <time>2022-02-23T15:28:01.723Z</time>
      </trkpt>
      <trkpt lat="42.20827" lon="22.33824">
        <ele>655.565573</ele>
        <time>2022-02-23T15:28:03.290Z</time>
      </trkpt>
      <trkpt lat="42.20824" lon="22.33827">
        <ele>655.478472</ele>
        <time>2022-02-23T15:28:04.093Z</time>
      </trkpt>
      <trkpt lat="42.20757" lon="22.33611">
        <ele>651.264425</ele>
        <time>2022-02-23T15:28:38.642Z</time>
      </trkpt>
      <trkpt lat="42.20734" lon="22.33561">
        <ele>650.223937</ele>
        <time>2022-02-23T15:28:47.426Z</time>
      </trkpt>
      <trkpt lat="42.20716" lon="22.33534">
        <ele>649.565642</ele>
        <time>2022-02-23T15:28:53.062Z</time>
      </trkpt>
      <trkpt lat="42.2067" lon="22.33485">
        <ele>648.179379</ele>
        <time>2022-02-23T15:29:05.076Z</time>
      </trkpt>
      <trkpt lat="42.20643" lon="22.33457">
        <ele>647.539724</ele>
        <time>2022-02-23T15:29:12.462Z</time>
      </trkpt>
      <trkpt lat="42.2065" lon="22.33444">
        <ele>647.364457</ele>
        <time>2022-02-23T15:29:17.237Z</time>
      </trkpt>
      <trkpt lat="42.20647" lon="22.33441">
        <ele>647.30464</ele>
        <time>2022-02-23T15:29:18.103Z</time>
      </trkpt>
      <trkpt lat="42.20627" lon="22.33421">
        <ele>646.942672</ele>
        <time>2022-02-23T15:29:23.685Z</time>
      </trkpt>
      <trkpt lat="42.20593" lon="22.33388">
        <ele>646.33857</ele>
        <time>2022-02-23T15:29:33.073Z</time>
      </trkpt>
      <trkpt lat="42.20513" lon="22.33312">
        <ele>644.987378</ele>
        <time>2022-02-23T15:29:55.058Z</time>
      </trkpt>
      <trkpt lat="42.20483" lon="22.33297">
        <ele>644.611182</ele>
        <time>2022-02-23T15:30:02.429Z</time>
      </trkpt>
      <trkpt lat="42.20449" lon="22.33292">
        <ele>644.216469</ele>
        <time>2022-02-23T15:30:10.289Z</time>
      </trkpt>
      <trkpt lat="42.20413" lon="22.33298">
        <ele>643.790942</ele>
        <time>2022-02-23T15:30:18.308Z</time>
      </trkpt>
      <trkpt lat="42.20387" lon="22.33309">
        <ele>643.472398</ele>
        <time>2022-02-23T15:30:24.222Z</time>
      </trkpt>
      <trkpt lat="42.20303" lon="22.33363">
        <ele>643.4717</ele>
        <time>2022-02-23T15:30:46.232Z</time>
      </trkpt>
      <trkpt lat="42.20295" lon="22.33369">
        <ele>643.521315</ele>
        <time>2022-02-23T15:30:48.323Z</time>
      </trkpt>
      <trkpt lat="42.20285" lon="22.33374">
        <ele>643.578317</ele>
        <time>2022-02-23T15:30:51.807Z</time>
      </trkpt>
      <trkpt lat="42.20243" lon="22.33383">
        <ele>643.809024</ele>
        <time>2022-02-23T15:31:05.854Z</time>
      </trkpt>
      <trkpt lat="42.20213" lon="22.33377">
        <ele>643.975365</ele>
        <time>2022-02-23T15:31:16.024Z</time>
      </trkpt>
      <trkpt lat="42.20199" lon="22.3337">
        <ele>644.053122</ele>
        <time>2022-02-23T15:31:21.494Z</time>
      </trkpt>
      <trkpt lat="42.20197" lon="22.33381">
        <ele>644.096351</ele>
        <time>2022-02-23T15:31:23.655Z</time>
      </trkpt>
      <trkpt lat="42.2018" lon="22.33445">
        <ele>646.11168</ele>
        <time>2022-02-23T15:31:42.036Z</time>
      </trkpt>
      <trkpt lat="42.20177" lon="22.33454">
        <ele>646.423057</ele>
        <time>2022-02-23T15:31:45.085Z</time>
      </trkpt>
      <trkpt lat="42.2017" lon="22.33449">
        <ele>646.739421</ele>
        <time>2022-02-23T15:31:48.525Z</time>
      </trkpt>
      <trkpt lat="42.20132" lon="22.33438">
        <ele>648.359479</ele>
        <time>2022-02-23T15:32:09.394Z</time>
      </trkpt>
      <trkpt lat="42.2009" lon="22.3341">
        <ele>650.244201</ele>
        <time>2022-02-23T15:32:34.151Z</time>
      </trkpt>
      <trkpt lat="42.20067" lon="22.33398">
        <ele>651.262285</ele>
        <time>2022-02-23T15:32:48.122Z</time>
      </trkpt>
      <trkpt lat="42.20054" lon="22.33389">
        <ele>651.700031</ele>
        <time>2022-02-23T15:32:55.012Z</time>
      </trkpt>
      <trkpt lat="42.20042" lon="22.33378">
        <ele>652.043997</ele>
        <time>2022-02-23T15:33:02.703Z</time>
      </trkpt>
      <trkpt lat="42.20036" lon="22.33371">
        <ele>652.241807</ele>
        <time>2022-02-23T15:33:06.571Z</time>
      </trkpt>
      <trkpt lat="42.2002" lon="22.33356">
        <ele>652.707619</ele>
        <time>2022-02-23T15:33:14.306Z</time>
      </trkpt>
      <trkpt lat="42.20014" lon="22.33351">
        <ele>652.871749</ele>
        <time>2022-02-23T15:33:18.030Z</time>
      </trkpt>
      <trkpt lat="42.20006" lon="22.33342">
        <ele>653.124911</ele>
        <time>2022-02-23T15:33:22.196Z</time>
      </trkpt>
      <trkpt lat="42.19995" lon="22.33328">
        <ele>653.482765</ele>
        <time>2022-02-23T15:33:27.279Z</time>
      </trkpt>
      <trkpt lat="42.19986" lon="22.33301">
        <ele>653.999449</ele>
        <time>2022-02-23T15:33:35.686Z</time>
      </trkpt>
      <trkpt lat="42.19976" lon="22.33218">
        <ele>655.489632</ele>
        <time>2022-02-23T15:33:56.482Z</time>
      </trkpt>
      <trkpt lat="42.19971" lon="22.33169">
        <ele>655.295064</ele>
        <time>2022-02-23T15:34:07.147Z</time>
      </trkpt>
      <trkpt lat="42.19965" lon="22.33113">
        <ele>654.555868</ele>
        <time>2022-02-23T15:34:15.506Z</time>
      </trkpt>
      <trkpt lat="42.19952" lon="22.32964">
        <ele>652.566225</ele>
        <time>2022-02-23T15:34:37.949Z</time>
      </trkpt>
      <trkpt lat="42.19952" lon="22.3296">
        <ele>652.515194</ele>
        <time>2022-02-23T15:34:38.510Z</time>
      </trkpt>
      <trkpt lat="42.19951" lon="22.32952">
        <ele>652.448733</ele>
        <time>2022-02-23T15:34:40.646Z</time>
      </trkpt>
      <trkpt lat="42.19937" lon="22.32879">
        <ele>651.828667</ele>
        <time>2022-02-23T15:34:53.244Z</time>
      </trkpt>
      <trkpt lat="42.19885" lon="22.32762">
        <ele>650.70223</ele>
        <time>2022-02-23T15:35:17.331Z</time>
      </trkpt>
      <trkpt lat="42.19857" lon="22.32665">
        <ele>650.213466</ele>
        <time>2022-02-23T15:35:36.716Z</time>
      </trkpt>
      <trkpt lat="42.19842" lon="22.32601">
        <ele>649.953299</ele>
        <time>2022-02-23T15:35:48.697Z</time>
      </trkpt>
      <trkpt lat="42.19841" lon="22.32595">
        <ele>649.929302</ele>
        <time>2022-02-23T15:35:49.860Z</time>
      </trkpt>
      <trkpt lat="42.19813" lon="22.32486">
        <ele>649.391933</ele>
        <time>2022-02-23T15:36:10.895Z</time>
      </trkpt>
      <trkpt lat="42.1981" lon="22.3247">
        <ele>649.276385</ele>
        <time>2022-02-23T15:36:13.670Z</time>
      </trkpt>
      <trkpt lat="42.19808" lon="22.32463">
        <ele>649.227244</ele>
        <time>2022-02-23T15:36:14.861Z</time>
      </trkpt>
      <trkpt lat="42.19805" lon="22.32448">
        <ele>649.119714</ele>
        <time>2022-02-23T15:36:17.802Z</time>
      </trkpt>
      <trkpt lat="42.19788" lon="22.32395">
        <ele>648.722534</ele>
        <time>2022-02-23T15:36:28.442Z</time>
      </trkpt>
      <trkpt lat="42.19709" lon="22.32257">
        <ele>647.316316</ele>
        <time>2022-02-23T15:36:57.532Z</time>
      </trkpt>
      <trkpt lat="42.19687" lon="22.32195">
        <ele>646.617016</ele>
        <time>2022-02-23T15:37:08.037Z</time>
      </trkpt>
      <trkpt lat="42.1967" lon="22.32145">
        <ele>646.051157</ele>
        <time>2022-02-23T15:37:17.466Z</time>
      </trkpt>
      <trkpt lat="42.19661" lon="22.3212">
        <ele>645.76272</ele>
        <time>2022-02-23T15:37:22.340Z</time>
      </trkpt>
      <trkpt lat="42.19652" lon="22.321">
        <ele>645.52753</ele>
        <time>2022-02-23T15:37:26.415Z</time>
      </trkpt>
      <trkpt lat="42.19627" lon="22.32043">
        <ele>645.138459</ele>
        <time>2022-02-23T15:37:37.881Z</time>
      </trkpt>
      <trkpt lat="42.19609" lon="22.32003">
        <ele>644.903233</ele>
        <time>2022-02-23T15:37:45.667Z</time>
      </trkpt>
      <trkpt lat="42.19603" lon="22.31989">
        <ele>644.817717</ele>
        <time>2022-02-23T15:37:48.242Z</time>
      </trkpt>
      <trkpt lat="42.1959" lon="22.3196">
        <ele>644.645809</ele>
        <time>2022-02-23T15:37:54.107Z</time>
      </trkpt>
      <trkpt lat="42.19581" lon="22.31942">
        <ele>644.53143</ele>
        <time>2022-02-23T15:37:58.081Z</time>
      </trkpt>
      <trkpt lat="42.19527" lon="22.3189">
        <ele>644.032386</ele>
        <time>2022-02-23T15:38:16.365Z</time>
      </trkpt>
      <trkpt lat="42.19513" lon="22.31866">
        <ele>643.807296</ele>
        <time>2022-02-23T15:38:23.653Z</time>
      </trkpt>
      <trkpt lat="42.19511" lon="22.31861">
        <ele>643.773317</ele>
        <time>2022-02-23T15:38:24.342Z</time>
      </trkpt>
      <trkpt lat="42.19509" lon="22.31855">
        <ele>643.723493</ele>
        <time>2022-02-23T15:38:25.504Z</time>
      </trkpt>
      <trkpt lat="42.19503" lon="22.3178">
        <ele>643.185026</ele>
        <time>2022-02-23T15:38:38.419Z</time>
      </trkpt>
      <trkpt lat="42.19495" lon="22.31751">
        <ele>642.957996</ele>
        <time>2022-02-23T15:38:43.241Z</time>
      </trkpt>
      <trkpt lat="42.19441" lon="22.31616">
        <ele>642.061215</ele>
        <time>2022-02-23T15:39:08.411Z</time>
      </trkpt>
      <trkpt lat="42.19436" lon="22.31594">
        <ele>641.956479</ele>
        <time>2022-02-23T15:39:12.431Z</time>
      </trkpt>
      <trkpt lat="42.19432" lon="22.31574">
        <ele>641.857183</ele>
        <time>2022-02-23T15:39:16.038Z</time>
      </trkpt>
      <trkpt lat="42.19405" lon="22.31441">
        <ele>641.247303</ele>
        <time>2022-02-23T15:39:43.816Z</time>
      </trkpt>
      <trkpt lat="42.19395" lon="22.31415">
        <ele>641.162271</ele>
        <time>2022-02-23T15:39:49.654Z</time>
      </trkpt>
      <trkpt lat="42.19368" lon="22.3138">
        <ele>641.009765</ele>
        <time>2022-02-23T15:39:59.832Z</time>
      </trkpt>
      <trkpt lat="42.19355" lon="22.31367">
        <ele>640.945849</ele>
        <time>2022-02-23T15:40:04.384Z</time>
      </trkpt>
      <trkpt lat="42.19332" lon="22.31348">
        <ele>640.836125</ele>
        <time>2022-02-23T15:40:11.226Z</time>
      </trkpt>
      <trkpt lat="42.19318" lon="22.31338">
        <ele>640.770753</ele>
        <time>2022-02-23T15:40:15.356Z</time>
      </trkpt>
      <trkpt lat="42.19299" lon="22.31322">
        <ele>640.679013</ele>
        <time>2022-02-23T15:40:20.667Z</time>
      </trkpt>
      <trkpt lat="42.19261" lon="22.31285">
        <ele>639.691478</ele>
        <time>2022-02-23T15:40:31.104Z</time>
      </trkpt>
      <trkpt lat="42.19244" lon="22.31249">
        <ele>638.39759</ele>
        <time>2022-02-23T15:40:37.776Z</time>
      </trkpt>
      <trkpt lat="42.19212" lon="22.31079">
        <ele>633.137167</ele>
        <time>2022-02-23T15:41:01.231Z</time>
      </trkpt>
      <trkpt lat="42.19197" lon="22.31021">
        <ele>631.024187</ele>
        <time>2022-02-23T15:41:09.156Z</time>
      </trkpt>
      <trkpt lat="42.19188" lon="22.30983">
        <ele>629.652789</ele>
        <time>2022-02-23T15:41:14.479Z</time>
      </trkpt>
      <trkpt lat="42.19187" lon="22.30971">
        <ele>629.206558</ele>
        <time>2022-02-23T15:41:16.140Z</time>
      </trkpt>
      <trkpt lat="42.19195" lon="22.3092">
        <ele>627.413866</ele>
        <time>2022-02-23T15:41:23.196Z</time>
      </trkpt>
      <trkpt lat="42.19198" lon="22.30914">
        <ele>627.169054</ele>
        <time>2022-02-23T15:41:24.094Z</time>
      </trkpt>
      <trkpt lat="42.19193" lon="22.30911">
        <ele>626.911089</ele>
        <time>2022-02-23T15:41:25.191Z</time>
      </trkpt>
      <trkpt lat="42.19172" lon="22.3089">
        <ele>625.674973</ele>
        <time>2022-02-23T15:41:30.208Z</time>
      </trkpt>
      <trkpt lat="42.19143" lon="22.30858">
        <ele>625.085832</ele>
        <time>2022-02-23T15:41:37.537Z</time>
      </trkpt>
      <trkpt lat="42.19134" lon="22.30848">
        <ele>625.16948</ele>
        <time>2022-02-23T15:41:40.069Z</time>
      </trkpt>
      <trkpt lat="42.19101" lon="22.30808">
        <ele>625.489585</ele>
        <time>2022-02-23T15:41:50.191Z</time>
      </trkpt>
      <trkpt lat="42.19091" lon="22.30786">
        <ele>625.631082</ele>
        <time>2022-02-23T15:41:55.088Z</time>
      </trkpt>
      <trkpt lat="42.19075" lon="22.30698">
        <ele>626.118595</ele>
        <time>2022-02-23T15:42:22.279Z</time>
      </trkpt>
      <trkpt lat="42.19072" lon="22.30678">
        <ele>626.228739</ele>
        <time>2022-02-23T15:42:30.643Z</time>
      </trkpt>
      <trkpt lat="42.19062" lon="22.30647">
        <ele>627.64532</ele>
        <time>2022-02-23T15:42:42.085Z</time>
      </trkpt>
      <trkpt lat="42.19045" lon="22.30614">
        <ele>629.389292</ele>
        <time>2022-02-23T15:42:58.669Z</time>
      </trkpt>
      <trkpt lat="42.19037" lon="22.3061">
        <ele>629.873584</ele>
        <time>2022-02-23T15:43:03.482Z</time>
      </trkpt>
      <trkpt lat="42.19032" lon="22.30608">
        <ele>630.164992</ele>
        <time>2022-02-23T15:43:08.365Z</time>
      </trkpt>
      <trkpt lat="42.18999" lon="22.30595">
        <ele>632.149868</ele>
        <time>2022-02-23T15:43:27.066Z</time>
      </trkpt>
      <trkpt lat="42.18949" lon="22.30565">
        <ele>635.396104</ele>
        <time>2022-02-23T15:44:00.236Z</time>
      </trkpt>
      <trkpt lat="42.18934" lon="22.30554">
        <ele>636.382144</ele>
        <time>2022-02-23T15:44:10.965Z</time>
      </trkpt>
      <trkpt lat="42.18921" lon="22.30541">
        <ele>637.071715</ele>
        <time>2022-02-23T15:44:20.153Z</time>
      </trkpt>
      <trkpt lat="42.18898" lon="22.30521">
        <ele>637.981799</ele>
        <time>2022-02-23T15:44:35.821Z</time>
      </trkpt>
      <trkpt lat="42.18869" lon="22.30506">
        <ele>639.029328</ele>
        <time>2022-02-23T15:44:50.136Z</time>
      </trkpt>
      <trkpt lat="42.18859" lon="22.30499">
        <ele>639.42122</ele>
        <time>2022-02-23T15:44:56.278Z</time>
      </trkpt>
      <trkpt lat="42.18857" lon="22.30497">
        <ele>639.499977</ele>
        <time>2022-02-23T15:44:57.137Z</time>
      </trkpt>
      <trkpt lat="42.18817" lon="22.30437">
        <ele>641.520121</ele>
        <time>2022-02-23T15:45:21.724Z</time>
      </trkpt>
      <trkpt lat="42.18761" lon="22.30382">
        <ele>643.121762</ele>
        <time>2022-02-23T15:45:42.193Z</time>
      </trkpt>
      <trkpt lat="42.18699" lon="22.30282">
        <ele>644.166209</ele>
        <time>2022-02-23T15:46:10.692Z</time>
      </trkpt>
      <trkpt lat="42.18691" lon="22.30266">
        <ele>644.322836</ele>
        <time>2022-02-23T15:46:15.091Z</time>
      </trkpt>
      <trkpt lat="42.18684" lon="22.30253">
        <ele>644.447513</ele>
        <time>2022-02-23T15:46:20.013Z</time>
      </trkpt>
      <trkpt lat="42.18615" lon="22.30133">
        <ele>647.816515</ele>
        <time>2022-02-23T15:47:05.900Z</time>
      </trkpt>
      <trkpt lat="42.18606" lon="22.30116">
        <ele>648.373127</ele>
        <time>2022-02-23T15:47:12.884Z</time>
      </trkpt>
      <trkpt lat="42.18604" lon="22.30113">
        <ele>648.483629</ele>
        <time>2022-02-23T15:47:14.121Z</time>
      </trkpt>
      <trkpt lat="42.18595" lon="22.30089">
        <ele>649.175875</ele>
        <time>2022-02-23T15:47:24.110Z</time>
      </trkpt>
      <trkpt lat="42.1856" lon="22.30023">
        <ele>651.398142</ele>
        <time>2022-02-23T15:47:54.705Z</time>
      </trkpt>
      <trkpt lat="42.18552" lon="22.30004">
        <ele>652.113736</ele>
        <time>2022-02-23T15:48:03.702Z</time>
      </trkpt>
      <trkpt lat="42.18543" lon="22.29981">
        <ele>652.957595</ele>
        <time>2022-02-23T15:48:12.934Z</time>
      </trkpt>
      <trkpt lat="42.18503" lon="22.29906">
        <ele>655.983697</ele>
        <time>2022-02-23T15:48:47.238Z</time>
      </trkpt>
      <trkpt lat="42.18498" lon="22.29896">
        <ele>656.360811</ele>
        <time>2022-02-23T15:48:51.769Z</time>
      </trkpt>
      <trkpt lat="42.18493" lon="22.29885">
        <ele>656.782568</ele>
        <time>2022-02-23T15:48:56.707Z</time>
      </trkpt>
      <trkpt lat="42.18463" lon="22.29846">
        <ele>658.66384</ele>
        <time>2022-02-23T15:49:16.905Z</time>
      </trkpt>
      <trkpt lat="42.18432" lon="22.29826">
        <ele>659.761788</ele>
        <time>2022-02-23T15:49:32.382Z</time>
      </trkpt>
      <trkpt lat="42.1839" lon="22.29687">
        <ele>662.851425</ele>
        <time>2022-02-23T15:50:18.485Z</time>
      </trkpt>
      <trkpt lat="42.18296" lon="22.29565">
        <ele>664.525562</ele>
        <time>2022-02-23T15:51:05.528Z</time>
      </trkpt>
      <trkpt lat="42.18286" lon="22.29552">
        <ele>664.59923</ele>
        <time>2022-02-23T15:51:09.280Z</time>
      </trkpt>
      <trkpt lat="42.18273" lon="22.29541">
        <ele>664.68151</ele>
        <time>2022-02-23T15:51:14.051Z</time>
      </trkpt>
      <trkpt lat="42.18263" lon="22.29528">
        <ele>664.749909</ele>
        <time>2022-02-23T15:51:17.517Z</time>
      </trkpt>
      <trkpt lat="42.18263" lon="22.29526">
        <ele>664.757123</ele>
        <time>2022-02-23T15:51:18.646Z</time>
      </trkpt>
      <trkpt lat="42.18261" lon="22.29521">
        <ele>664.778692</ele>
        <time>2022-02-23T15:51:19.426Z</time>
      </trkpt>
      <trkpt lat="42.18269" lon="22.29437">
        <ele>664.576243</ele>
        <time>2022-02-23T15:51:35.083Z</time>
      </trkpt>
      <trkpt lat="42.18269" lon="22.29391">
        <ele>663.702891</ele>
        <time>2022-02-23T15:51:42.844Z</time>
      </trkpt>
      <trkpt lat="42.18266" lon="22.29357">
        <ele>663.068214</ele>
        <time>2022-02-23T15:51:48.449Z</time>
      </trkpt>
      <trkpt lat="42.18266" lon="22.2935">
        <ele>662.945752</ele>
        <time>2022-02-23T15:51:49.436Z</time>
      </trkpt>
      <trkpt lat="42.18252" lon="22.29277">
        <ele>661.528432</ele>
        <time>2022-02-23T15:52:01.183Z</time>
      </trkpt>
      <trkpt lat="42.18246" lon="22.29258">
        <ele>661.143588</ele>
        <time>2022-02-23T15:52:04.084Z</time>
      </trkpt>
      <trkpt lat="42.18242" lon="22.29239">
        <ele>660.777739</ele>
        <time>2022-02-23T15:52:06.967Z</time>
      </trkpt>
      <trkpt lat="42.18214" lon="22.29089">
        <ele>656.558081</ele>
        <time>2022-02-23T15:52:29.829Z</time>
      </trkpt>
      <trkpt lat="42.18214" lon="22.29082">
        <ele>656.346944</ele>
        <time>2022-02-23T15:52:30.850Z</time>
      </trkpt>
      <trkpt lat="42.18212" lon="22.29059">
        <ele>655.687742</ele>
        <time>2022-02-23T15:52:34.256Z</time>
      </trkpt>
      <trkpt lat="42.18193" lon="22.29006">
        <ele>654.009276</ele>
        <time>2022-02-23T15:52:42.985Z</time>
      </trkpt>
      <trkpt lat="42.18178" lon="22.28939">
        <ele>652.167853</ele>
        <time>2022-02-23T15:52:53.242Z</time>
      </trkpt>
      <trkpt lat="42.18169" lon="22.28878">
        <ele>650.542659</ele>
        <time>2022-02-23T15:53:02.623Z</time>
      </trkpt>
      <trkpt lat="42.18167" lon="22.28844">
        <ele>649.671772</ele>
        <time>2022-02-23T15:53:07.701Z</time>
      </trkpt>
      <trkpt lat="42.18164" lon="22.28817">
        <ele>648.960411</ele>
        <time>2022-02-23T15:53:11.917Z</time>
      </trkpt>
      <trkpt lat="42.18154" lon="22.28714">
        <ele>646.07831</ele>
        <time>2022-02-23T15:53:27.594Z</time>
      </trkpt>
      <trkpt lat="42.18155" lon="22.28671">
        <ele>644.79714</ele>
        <time>2022-02-23T15:53:33.863Z</time>
      </trkpt>
      <trkpt lat="42.18155" lon="22.28662">
        <ele>644.518146</ele>
        <time>2022-02-23T15:53:35.210Z</time>
      </trkpt>
      <trkpt lat="42.18152" lon="22.28649">
        <ele>644.101734</ele>
        <time>2022-02-23T15:53:37.194Z</time>
      </trkpt>
      <trkpt lat="42.18094" lon="22.28467">
        <ele>638.284759</ele>
        <time>2022-02-23T15:54:05.702Z</time>
      </trkpt>
      <trkpt lat="42.18084" lon="22.28421">
        <ele>636.96068</ele>
        <time>2022-02-23T15:54:12.627Z</time>
      </trkpt>
      <trkpt lat="42.18061" lon="22.28361">
        <ele>635.096397</ele>
        <time>2022-02-23T15:54:22.745Z</time>
      </trkpt>
      <trkpt lat="42.18053" lon="22.28347">
        <ele>634.603277</ele>
        <time>2022-02-23T15:54:25.244Z</time>
      </trkpt>
      <trkpt lat="42.18054" lon="22.28342">
        <ele>634.471343</ele>
        <time>2022-02-23T15:54:26.032Z</time>
      </trkpt>
      <trkpt lat="42.18051" lon="22.28296">
        <ele>633.234285</ele>
        <time>2022-02-23T15:54:33.062Z</time>
      </trkpt>
      <trkpt lat="42.17978" lon="22.28048">
        <ele>630.240227</ele>
        <time>2022-02-23T15:55:19.650Z</time>
      </trkpt>
      <trkpt lat="42.17972" lon="22.28028">
        <ele>630.002219</ele>
        <time>2022-02-23T15:55:23.898Z</time>
      </trkpt>
      <trkpt lat="42.17964" lon="22.28003">
        <ele>629.714004</ele>
        <time>2022-02-23T15:55:28.704Z</time>
      </trkpt>
      <trkpt lat="42.17956" lon="22.27976">
        <ele>629.3877</ele>
        <time>2022-02-23T15:55:34.347Z</time>
      </trkpt>
      <trkpt lat="42.17949" lon="22.27953">
        <ele>629.120932</ele>
        <time>2022-02-23T15:55:38.502Z</time>
      </trkpt>
      <trkpt lat="42.17946" lon="22.27943">
        <ele>629.004446</ele>
        <time>2022-02-23T15:55:40.419Z</time>
      </trkpt>
      <trkpt lat="42.17936" lon="22.27912">
        <ele>628.633215</ele>
        <time>2022-02-23T15:55:46.180Z</time>
      </trkpt>
      <trkpt lat="42.17931" lon="22.27869">
        <ele>628.160239</ele>
        <time>2022-02-23T15:55:53.373Z</time>
      </trkpt>
      <trkpt lat="42.17921" lon="22.27828">
        <ele>627.47521</ele>
        <time>2022-02-23T15:56:00.682Z</time>
      </trkpt>
      <trkpt lat="42.1792" lon="22.27825">
        <ele>627.394721</ele>
        <time>2022-02-23T15:56:01.114Z</time>
      </trkpt>
      <trkpt lat="42.1788" lon="22.2768">
        <ele>623.808003</ele>
        <time>2022-02-23T15:56:24.720Z</time>
      </trkpt>
      <trkpt lat="42.17796" lon="22.27429">
        <ele>617.47993</ele>
        <time>2022-02-23T15:57:05.697Z</time>
      </trkpt>
      <trkpt lat="42.17782" lon="22.27365">
        <ele>616.633171</ele>
        <time>2022-02-23T15:57:17.363Z</time>
      </trkpt>
      <trkpt lat="42.17776" lon="22.27339">
        <ele>616.572174</ele>
        <time>2022-02-23T15:57:22.106Z</time>
      </trkpt>
      <trkpt lat="42.17772" lon="22.27328">
        <ele>616.545096</ele>
        <time>2022-02-23T15:57:24.415Z</time>
      </trkpt>
      <trkpt lat="42.17766" lon="22.27314">
        <ele>616.506893</ele>
        <time>2022-02-23T15:57:28.497Z</time>
      </trkpt>
      <trkpt lat="42.17696" lon="22.27117">
        <ele>615.311265</ele>
        <time>2022-02-23T15:58:15.896Z</time>
      </trkpt>
      <trkpt lat="42.17664" lon="22.26993">
        <ele>613.544701</ele>
        <time>2022-02-23T15:58:38.369Z</time>
      </trkpt>
      <trkpt lat="42.17608" lon="22.26835">
        <ele>606.589437</ele>
        <time>2022-02-23T15:59:03.091Z</time>
      </trkpt>
      <trkpt lat="42.17606" lon="22.26821">
        <ele>605.84809</ele>
        <time>2022-02-23T15:59:05.149Z</time>
      </trkpt>
      <trkpt lat="42.17613" lon="22.26817">
        <ele>605.385142</ele>
        <time>2022-02-23T15:59:07.064Z</time>
      </trkpt>
      <trkpt lat="42.17643" lon="22.26784">
        <ele>602.762236</ele>
        <time>2022-02-23T15:59:18.806Z</time>
      </trkpt>
      <trkpt lat="42.17706" lon="22.26681">
        <ele>594.586263</ele>
        <time>2022-02-23T15:59:48.546Z</time>
      </trkpt>
      <trkpt lat="42.17709" lon="22.26669">
        <ele>593.80862</ele>
        <time>2022-02-23T15:59:50.990Z</time>
      </trkpt>
      <trkpt lat="42.17711" lon="22.26663">
        <ele>593.362306</ele>
        <time>2022-02-23T15:59:51.821Z</time>
      </trkpt>
      <trkpt lat="42.17712" lon="22.26648">
        <ele>592.367527</ele>
        <time>2022-02-23T15:59:53.919Z</time>
      </trkpt>
      <trkpt lat="42.17736" lon="22.26612">
        <ele>589.161452</ele>
        <time>2022-02-23T16:00:00.325Z</time>
      </trkpt>
      <trkpt lat="42.17763" lon="22.26537">
        <ele>584.118676</ele>
        <time>2022-02-23T16:00:10.871Z</time>
      </trkpt>
      <trkpt lat="42.1778" lon="22.26516">
        <ele>582.703127</ele>
        <time>2022-02-23T16:00:15.250Z</time>
      </trkpt>
      <trkpt lat="42.17808" lon="22.26502">
        <ele>580.913712</ele>
        <time>2022-02-23T16:00:20.363Z</time>
      </trkpt>
      <trkpt lat="42.17844" lon="22.26537">
        <ele>578.249827</ele>
        <time>2022-02-23T16:00:28.621Z</time>
      </trkpt>
      <trkpt lat="42.17848" lon="22.26536">
        <ele>577.963442</ele>
        <time>2022-02-23T16:00:29.443Z</time>
      </trkpt>
      <trkpt lat="42.1785" lon="22.26515">
        <ele>577.034418</ele>
        <time>2022-02-23T16:00:32.244Z</time>
      </trkpt>
      <trkpt lat="42.17864" lon="22.26432">
        <ele>573.803417</ele>
        <time>2022-02-23T16:00:44.003Z</time>
      </trkpt>
      <trkpt lat="42.17868" lon="22.26411">
        <ele>573.52793</ele>
        <time>2022-02-23T16:00:47.214Z</time>
      </trkpt>
      <trkpt lat="42.17872" lon="22.26393">
        <ele>573.301816</ele>
        <time>2022-02-23T16:00:49.798Z</time>
      </trkpt>
      <trkpt lat="42.17879" lon="22.26359">
        <ele>572.858389</ele>
        <time>2022-02-23T16:00:55.357Z</time>
      </trkpt>
      <trkpt lat="42.17905" lon="22.26228">
        <ele>571.183758</ele>
        <time>2022-02-23T16:01:18.884Z</time>
      </trkpt>
      <trkpt lat="42.17905" lon="22.26189">
        <ele>571.08161</ele>
        <time>2022-02-23T16:01:27.314Z</time>
      </trkpt>
      <trkpt lat="42.17901" lon="22.26166">
        <ele>571.135126</ele>
        <time>2022-02-23T16:01:32.388Z</time>
      </trkpt>
      <trkpt lat="42.17876" lon="22.26126">
        <ele>571.260831</ele>
        <time>2022-02-23T16:01:44.650Z</time>
      </trkpt>
      <trkpt lat="42.17775" lon="22.26054">
        <ele>571.493761</ele>
        <time>2022-02-23T16:02:17.554Z</time>
      </trkpt>
      <trkpt lat="42.17717" lon="22.25976">
        <ele>570.710769</ele>
        <time>2022-02-23T16:02:37.598Z</time>
      </trkpt>
      <trkpt lat="42.17702" lon="22.25947">
        <ele>570.4554</ele>
        <time>2022-02-23T16:02:43.562Z</time>
      </trkpt>
      <trkpt lat="42.17694" lon="22.25917">
        <ele>570.231081</ele>
        <time>2022-02-23T16:02:48.604Z</time>
      </trkpt>
      <trkpt lat="42.17683" lon="22.25816">
        <ele>569.113232</ele>
        <time>2022-02-23T16:03:04.675Z</time>
      </trkpt>
      <trkpt lat="42.1767" lon="22.25725">
        <ele>567.745624</ele>
        <time>2022-02-23T16:03:19.052Z</time>
      </trkpt>
      <trkpt lat="42.17669" lon="22.25719">
        <ele>567.641046</ele>
        <time>2022-02-23T16:03:20.129Z</time>
      </trkpt>
      <trkpt lat="42.17665" lon="22.2569">
        <ele>567.210513</ele>
        <time>2022-02-23T16:03:24.631Z</time>
      </trkpt>
      <trkpt lat="42.17661" lon="22.25662">
        <ele>566.794557</ele>
        <time>2022-02-23T16:03:29.035Z</time>
      </trkpt>
      <trkpt lat="42.17652" lon="22.25544">
        <ele>565.140656</ele>
        <time>2022-02-23T16:03:47.670Z</time>
      </trkpt>
      <trkpt lat="42.17651" lon="22.25366">
        <ele>562.774253</ele>
        <time>2022-02-23T16:04:16.178Z</time>
      </trkpt>
      <trkpt lat="42.17649" lon="22.25211">
        <ele>560.820736</ele>
        <time>2022-02-23T16:04:40.918Z</time>
      </trkpt>
      <trkpt lat="42.1765" lon="22.25054">
        <ele>558.645497</ele>
        <time>2022-02-23T16:05:06.497Z</time>
      </trkpt>
      <trkpt lat="42.17647" lon="22.2492">
        <ele>556.62674</ele>
        <time>2022-02-23T16:05:27.504Z</time>
      </trkpt>
      <trkpt lat="42.17643" lon="22.24894">
        <ele>556.145817</ele>
        <time>2022-02-23T16:05:31.441Z</time>
      </trkpt>
      <trkpt lat="42.17642" lon="22.24889">
        <ele>556.016554</ele>
        <time>2022-02-23T16:05:32.077Z</time>
      </trkpt>
      <trkpt lat="42.17638" lon="22.24856">
        <ele>555.042862</ele>
        <time>2022-02-23T16:05:37.073Z</time>
      </trkpt>
      <trkpt lat="42.17635" lon="22.24836">
        <ele>554.452581</ele>
        <time>2022-02-23T16:05:39.953Z</time>
      </trkpt>
      <trkpt lat="42.17624" lon="22.24766">
        <ele>552.38677</ele>
        <time>2022-02-23T16:05:50.043Z</time>
      </trkpt>
      <trkpt lat="42.17623" lon="22.24761">
        <ele>552.261746</ele>
        <time>2022-02-23T16:05:50.595Z</time>
      </trkpt>
      <trkpt lat="42.1762" lon="22.24726">
        <ele>551.247814</ele>
        <time>2022-02-23T16:05:55.399Z</time>
      </trkpt>
      <trkpt lat="42.1762" lon="22.2468">
        <ele>549.912153</ele>
        <time>2022-02-23T16:06:01.746Z</time>
      </trkpt>
      <trkpt lat="42.17628" lon="22.24623">
        <ele>548.427673</ele>
        <time>2022-02-23T16:06:09.686Z</time>
      </trkpt>
      <trkpt lat="42.17639" lon="22.24552">
        <ele>546.678563</ele>
        <time>2022-02-23T16:06:19.659Z</time>
      </trkpt>
      <trkpt lat="42.17658" lon="22.24413">
        <ele>543.389864</ele>
        <time>2022-02-23T16:06:40.841Z</time>
      </trkpt>
      <trkpt lat="42.17664" lon="22.24355">
        <ele>542.917215</ele>
        <time>2022-02-23T16:06:50.505Z</time>
      </trkpt>
      <trkpt lat="42.1767" lon="22.24283">
        <ele>542.327144</ele>
        <time>2022-02-23T16:07:03.628Z</time>
      </trkpt>
      <trkpt lat="42.17671" lon="22.24272">
        <ele>542.230624</ele>
        <time>2022-02-23T16:07:05.676Z</time>
      </trkpt>
      <trkpt lat="42.17674" lon="22.24226">
        <ele>541.857723</ele>
        <time>2022-02-23T16:07:13.811Z</time>
      </trkpt>
      <trkpt lat="42.17673" lon="22.24086">
        <ele>540.87561</ele>
        <time>2022-02-23T16:07:38.363Z</time>
      </trkpt>
      <trkpt lat="42.17665" lon="22.23961">
        <ele>540.06598</ele>
        <time>2022-02-23T16:08:00.132Z</time>
      </trkpt>
      <trkpt lat="42.17651" lon="22.23883">
        <ele>539.606708</ele>
        <time>2022-02-23T16:08:13.881Z</time>
      </trkpt>
      <trkpt lat="42.17628" lon="22.2381">
        <ele>539.173051</ele>
        <time>2022-02-23T16:08:27.701Z</time>
      </trkpt>
      <trkpt lat="42.17616" lon="22.23785">
        <ele>539.014587</ele>
        <time>2022-02-23T16:08:32.858Z</time>
      </trkpt>
      <trkpt lat="42.1757" lon="22.23713">
        <ele>538.609713</ele>
        <time>2022-02-23T16:08:50.297Z</time>
      </trkpt>
      <trkpt lat="42.17452" lon="22.23584">
        <ele>538.668059</ele>
        <time>2022-02-23T16:09:31.612Z</time>
      </trkpt>
      <trkpt lat="42.17414" lon="22.23531">
        <ele>538.686685</ele>
        <time>2022-02-23T16:09:47.345Z</time>
      </trkpt>
      <trkpt lat="42.17377" lon="22.2346">
        <ele>538.707596</ele>
        <time>2022-02-23T16:10:04.500Z</time>
      </trkpt>
      <trkpt lat="42.17349" lon="22.23367">
        <ele>538.732284</ele>
        <time>2022-02-23T16:10:23.676Z</time>
      </trkpt>
      <trkpt lat="42.17331" lon="22.23255">
        <ele>538.871854</ele>
        <time>2022-02-23T16:10:46.123Z</time>
      </trkpt>
      <trkpt lat="42.17324" lon="22.23142">
        <ele>539.009609</ele>
        <time>2022-02-23T16:11:09.859Z</time>
      </trkpt>
      <trkpt lat="42.17316" lon="22.23089">
        <ele>539.089411</ele>
        <time>2022-02-23T16:11:21.905Z</time>
      </trkpt>
      <trkpt lat="42.17262" lon="22.22961">
        <ele>539.319108</ele>
        <time>2022-02-23T16:11:54.265Z</time>
      </trkpt>
      <trkpt lat="42.1725" lon="22.22916">
        <ele>539.392987</ele>
        <time>2022-02-23T16:12:03.285Z</time>
      </trkpt>
      <trkpt lat="42.17237" lon="22.22839">
        <ele>538.488105</ele>
        <time>2022-02-23T16:12:16.819Z</time>
      </trkpt>
      <trkpt lat="42.17242" lon="22.22712">
        <ele>536.877264</ele>
        <time>2022-02-23T16:12:36.505Z</time>
      </trkpt>
      <trkpt lat="42.17239" lon="22.22512">
        <ele>533.616388</ele>
        <time>2022-02-23T16:13:06.625Z</time>
      </trkpt>
      <trkpt lat="42.17247" lon="22.22466">
        <ele>532.813486</ele>
        <time>2022-02-23T16:13:13.783Z</time>
      </trkpt>
      <trkpt lat="42.17264" lon="22.22436">
        <ele>532.149521</ele>
        <time>2022-02-23T16:13:19.740Z</time>
      </trkpt>
      <trkpt lat="42.17275" lon="22.22424">
        <ele>532.038965</ele>
        <time>2022-02-23T16:13:22.765Z</time>
      </trkpt>
      <trkpt lat="42.17291" lon="22.2241">
        <ele>531.910205</ele>
        <time>2022-02-23T16:13:26.924Z</time>
      </trkpt>
      <trkpt lat="42.17338" lon="22.2239">
        <ele>531.584084</ele>
        <time>2022-02-23T16:13:38.092Z</time>
      </trkpt>
      <trkpt lat="42.17347" lon="22.22388">
        <ele>531.521315</ele>
        <time>2022-02-23T16:13:40.401Z</time>
      </trkpt>
      <trkpt lat="42.17408" lon="22.22396">
        <ele>531.112111</ele>
        <time>2022-02-23T16:13:56.268Z</time>
      </trkpt>
      <trkpt lat="42.17433" lon="22.22399">
        <ele>530.944948</ele>
        <time>2022-02-23T16:14:03.288Z</time>
      </trkpt>
      <trkpt lat="42.17476" lon="22.22387">
        <ele>531.492922</ele>
        <time>2022-02-23T16:14:16.089Z</time>
      </trkpt>
      <trkpt lat="42.17491" lon="22.22376">
        <ele>531.73998</ele>
        <time>2022-02-23T16:14:21.737Z</time>
      </trkpt>
      <trkpt lat="42.17501" lon="22.22335">
        <ele>532.184355</ele>
        <time>2022-02-23T16:14:32.354Z</time>
      </trkpt>
      <trkpt lat="42.17492" lon="22.22277">
        <ele>532.800272</ele>
        <time>2022-02-23T16:14:47.983Z</time>
      </trkpt>
      <trkpt lat="42.17484" lon="22.22257">
        <ele>533.047191</ele>
        <time>2022-02-23T16:14:54.358Z</time>
      </trkpt>
      <trkpt lat="42.17466" lon="22.22227">
        <ele>533.436555</ele>
        <time>2022-02-23T16:15:04.527Z</time>
      </trkpt>
      <trkpt lat="42.17394" lon="22.22144">
        <ele>535.157546</ele>
        <time>2022-02-23T16:15:39.487Z</time>
      </trkpt>
      <trkpt lat="42.17386" lon="22.2213">
        <ele>535.403334</ele>
        <time>2022-02-23T16:15:44.099Z</time>
      </trkpt>
      <trkpt lat="42.17377" lon="22.22112">
        <ele>535.688204</ele>
        <time>2022-02-23T16:15:49.925Z</time>
      </trkpt>
      <trkpt lat="42.17293" lon="22.21794">
        <ele>538.465038</ele>
        <time>2022-02-23T16:17:12.726Z</time>
      </trkpt>
      <trkpt lat="42.17267" lon="22.21773">
        <ele>537.799403</ele>
        <time>2022-02-23T16:17:20.448Z</time>
      </trkpt>
      <trkpt lat="42.17191" lon="22.21763">
        <ele>536.147678</ele>
        <time>2022-02-23T16:17:36.695Z</time>
      </trkpt>
      <trkpt lat="42.17169" lon="22.21752">
        <ele>535.640464</ele>
        <time>2022-02-23T16:17:41.238Z</time>
      </trkpt>
      <trkpt lat="42.17152" lon="22.2173">
        <ele>535.133741</ele>
        <time>2022-02-23T16:17:45.587Z</time>
      </trkpt>
      <trkpt lat="42.17142" lon="22.21704">
        <ele>534.381579</ele>
        <time>2022-02-23T16:17:49.506Z</time>
      </trkpt>
      <trkpt lat="42.17142" lon="22.21581">
        <ele>529.572663</ele>
        <time>2022-02-23T16:18:05.477Z</time>
      </trkpt>
      <trkpt lat="42.17145" lon="22.21504">
        <ele>526.571627</ele>
        <time>2022-02-23T16:18:15.575Z</time>
      </trkpt>
      <trkpt lat="42.17153" lon="22.21444">
        <ele>524.965649</ele>
        <time>2022-02-23T16:18:24.021Z</time>
      </trkpt>
      <trkpt lat="42.17168" lon="22.21412">
        <ele>524.454116</ele>
        <time>2022-02-23T16:18:29.472Z</time>
      </trkpt>
      <trkpt lat="42.17228" lon="22.21345">
        <ele>523.01881</ele>
        <time>2022-02-23T16:18:46.665Z</time>
      </trkpt>
      <trkpt lat="42.17246" lon="22.21299">
        <ele>522.316631</ele>
        <time>2022-02-23T16:18:57.626Z</time>
      </trkpt>
      <trkpt lat="42.17246" lon="22.21254">
        <ele>521.691137</ele>
        <time>2022-02-23T16:19:08.375Z</time>
      </trkpt>
      <trkpt lat="42.1724" lon="22.21198">
        <ele>520.885485</ele>
        <time>2022-02-23T16:19:18.383Z</time>
      </trkpt>
      <trkpt lat="42.17229" lon="22.2116">
        <ele>520.30872</ele>
        <time>2022-02-23T16:19:24.627Z</time>
      </trkpt>
      <trkpt lat="42.17203" lon="22.21109">
        <ele>519.426481</ele>
        <time>2022-02-23T16:19:34.402Z</time>
      </trkpt>
      <trkpt lat="42.17194" lon="22.21075">
        <ele>518.909041</ele>
        <time>2022-02-23T16:19:39.445Z</time>
      </trkpt>
      <trkpt lat="42.17194" lon="22.21054">
        <ele>518.584818</ele>
        <time>2022-02-23T16:19:42.815Z</time>
      </trkpt>
      <trkpt lat="42.17195" lon="22.21045">
        <ele>518.293625</ele>
        <time>2022-02-23T16:19:44.067Z</time>
      </trkpt>
      <trkpt lat="42.17196" lon="22.2103">
        <ele>517.859752</ele>
        <time>2022-02-23T16:19:46.003Z</time>
      </trkpt>
      <trkpt lat="42.17226" lon="22.20842">
        <ele>512.204382</ele>
        <time>2022-02-23T16:20:12.022Z</time>
      </trkpt>
      <trkpt lat="42.17227" lon="22.20466">
        <ele>508.76572</ele>
        <time>2022-02-23T16:21:14.980Z</time>
      </trkpt>
      <trkpt lat="42.1722" lon="22.20394">
        <ele>508.746105</ele>
        <time>2022-02-23T16:21:30.945Z</time>
      </trkpt>
      <trkpt lat="42.17187" lon="22.20274">
        <ele>508.894809</ele>
        <time>2022-02-23T16:22:02.362Z</time>
      </trkpt>
      <trkpt lat="42.17181" lon="22.20221">
        <ele>509.024508</ele>
        <time>2022-02-23T16:22:14.320Z</time>
      </trkpt>
      <trkpt lat="42.17181" lon="22.20215">
        <ele>509.038591</ele>
        <time>2022-02-23T16:22:15.269Z</time>
      </trkpt>
      <trkpt lat="42.17164" lon="22.2022">
        <ele>509.095052</ele>
        <time>2022-02-23T16:22:20.288Z</time>
      </trkpt>
      <trkpt lat="42.17155" lon="22.20223">
        <ele>509.125172</ele>
        <time>2022-02-23T16:22:22.323Z</time>
      </trkpt>
      <trkpt lat="42.1715" lon="22.20223">
        <ele>509.141906</ele>
        <time>2022-02-23T16:22:24.275Z</time>
      </trkpt>
      <trkpt lat="42.17145" lon="22.20219">
        <ele>509.161196</ele>
        <time>2022-02-23T16:22:25.541Z</time>
      </trkpt>
      <trkpt lat="42.17142" lon="22.20214">
        <ele>509.177877</ele>
        <time>2022-02-23T16:22:26.895Z</time>
      </trkpt>
      <trkpt lat="42.17137" lon="22.20204">
        <ele>509.204593</ele>
        <time>2022-02-23T16:22:29.178Z</time>
      </trkpt>
      <trkpt lat="42.17135" lon="22.20195">
        <ele>509.228936</ele>
        <time>2022-02-23T16:22:30.976Z</time>
      </trkpt>
      <trkpt lat="42.17136" lon="22.2017">
        <ele>509.288432</ele>
        <time>2022-02-23T16:22:35.321Z</time>
      </trkpt>
      <trkpt lat="42.1713" lon="22.20122">
        <ele>509.082223</ele>
        <time>2022-02-23T16:22:44.287Z</time>
      </trkpt>
      <trkpt lat="42.17115" lon="22.20076">
        <ele>508.760961</ele>
        <time>2022-02-23T16:22:53.364Z</time>
      </trkpt>
      <trkpt lat="42.171" lon="22.20005">
        <ele>508.291211</ele>
        <time>2022-02-23T16:23:05.735Z</time>
      </trkpt>
      <trkpt lat="42.17067" lon="22.19946">
        <ele>507.818349</ele>
        <time>2022-02-23T16:23:18.019Z</time>
      </trkpt>
      <trkpt lat="42.17039" lon="22.19906">
        <ele>507.595395</ele>
        <time>2022-02-23T16:23:28.157Z</time>
      </trkpt>
      <trkpt lat="42.16984" lon="22.19854">
        <ele>507.263351</ele>
        <time>2022-02-23T16:23:45.888Z</time>
      </trkpt>
      <trkpt lat="42.16968" lon="22.19846">
        <ele>507.181505</ele>
        <time>2022-02-23T16:23:50.285Z</time>
      </trkpt>
      <trkpt lat="42.16966" lon="22.19774">
        <ele>506.920081</ele>
        <time>2022-02-23T16:24:03.407Z</time>
      </trkpt>
      <trkpt lat="42.16943" lon="22.19698">
        <ele>506.215388</ele>
        <time>2022-02-23T16:24:17.324Z</time>
      </trkpt>
      <trkpt lat="42.1695" lon="22.19666">
        <ele>505.907417</ele>
        <time>2022-02-23T16:24:22.687Z</time>
      </trkpt>
      <trkpt lat="42.16945" lon="22.19611">
        <ele>505.387966</ele>
        <time>2022-02-23T16:24:31.720Z</time>
      </trkpt>
      <trkpt lat="42.16913" lon="22.19545">
        <ele>504.652912</ele>
        <time>2022-02-23T16:24:44.718Z</time>
      </trkpt>
      <trkpt lat="42.16902" lon="22.19508">
        <ele>504.465482</ele>
        <time>2022-02-23T16:24:51.407Z</time>
      </trkpt>
      <trkpt lat="42.16889" lon="22.19472">
        <ele>504.296683</ele>
        <time>2022-02-23T16:24:58.158Z</time>
      </trkpt>
      <trkpt lat="42.16873" lon="22.19429">
        <ele>504.09513</ele>
        <time>2022-02-23T16:25:06.485Z</time>
      </trkpt>
      <trkpt lat="42.1677" lon="22.19234">
        <ele>503.686459</ele>
        <time>2022-02-23T16:25:54.209Z</time>
      </trkpt>
      <trkpt lat="42.167" lon="22.19076">
        <ele>503.568276</ele>
        <time>2022-02-23T16:26:32.197Z</time>
      </trkpt>
      <trkpt lat="42.16679" lon="22.19029">
        <ele>503.393471</ele>
        <time>2022-02-23T16:26:42.399Z</time>
      </trkpt>
      <trkpt lat="42.16645" lon="22.1895">
        <ele>503.097229</ele>
        <time>2022-02-23T16:26:58.700Z</time>
      </trkpt>
      <trkpt lat="42.16618" lon="22.1889">
        <ele>502.612416</ele>
        <time>2022-02-23T16:27:10.642Z</time>
      </trkpt>
      <trkpt lat="42.1658" lon="22.18782">
        <ele>501.381095</ele>
        <time>2022-02-23T16:27:29.958Z</time>
      </trkpt>
      <trkpt lat="42.16564" lon="22.1872">
        <ele>500.706367</ele>
        <time>2022-02-23T16:27:40.762Z</time>
      </trkpt>
      <trkpt lat="42.16553" lon="22.18619">
        <ele>500.068843</ele>
        <time>2022-02-23T16:27:57.920Z</time>
      </trkpt>
      <trkpt lat="42.16552" lon="22.18598">
        <ele>499.956748</ele>
        <time>2022-02-23T16:28:01.456Z</time>
      </trkpt>
      <trkpt lat="42.16552" lon="22.18589">
        <ele>499.911102</ele>
        <time>2022-02-23T16:28:02.981Z</time>
      </trkpt>
      <trkpt lat="42.16552" lon="22.18583">
        <ele>499.876634</ele>
        <time>2022-02-23T16:28:04.113Z</time>
      </trkpt>
      <trkpt lat="42.16552" lon="22.18568">
        <ele>499.795505</ele>
        <time>2022-02-23T16:28:07.075Z</time>
      </trkpt>
      <trkpt lat="42.1655" lon="22.18524">
        <ele>499.561981</ele>
        <time>2022-02-23T16:28:15.074Z</time>
      </trkpt>
      <trkpt lat="42.16529" lon="22.18431">
        <ele>499.184363</ele>
        <time>2022-02-23T16:28:33.416Z</time>
      </trkpt>
      <trkpt lat="42.16535" lon="22.18315">
        <ele>499.076023</ele>
        <time>2022-02-23T16:28:56.491Z</time>
      </trkpt>
      <trkpt lat="42.16528" lon="22.18183">
        <ele>498.95057</ele>
        <time>2022-02-23T16:29:22.199Z</time>
      </trkpt>
      <trkpt lat="42.16511" lon="22.18129">
        <ele>498.892638</ele>
        <time>2022-02-23T16:29:32.885Z</time>
      </trkpt>
      <trkpt lat="42.16506" lon="22.18074">
        <ele>498.837326</ele>
        <time>2022-02-23T16:29:43.133Z</time>
      </trkpt>
      <trkpt lat="42.16488" lon="22.18004">
        <ele>498.76317</ele>
        <time>2022-02-23T16:29:57.635Z</time>
      </trkpt>
      <trkpt lat="42.16477" lon="22.17985">
        <ele>498.816977</ele>
        <time>2022-02-23T16:30:02.423Z</time>
      </trkpt>
      <trkpt lat="42.16466" lon="22.17967">
        <ele>499.082969</ele>
        <time>2022-02-23T16:30:07.310Z</time>
      </trkpt>
      <trkpt lat="42.16439" lon="22.17915">
        <ele>499.811321</ele>
        <time>2022-02-23T16:30:21.569Z</time>
      </trkpt>
      <trkpt lat="42.16393" lon="22.17801">
        <ele>501.287969</ele>
        <time>2022-02-23T16:30:55.904Z</time>
      </trkpt>
      <trkpt lat="42.16344" lon="22.17738">
        <ele>502.830612</ele>
        <time>2022-02-23T16:31:24.941Z</time>
      </trkpt>
      <trkpt lat="42.1629" lon="22.1763">
        <ele>505.196129</ele>
        <time>2022-02-23T16:32:03.977Z</time>
      </trkpt>
      <trkpt lat="42.16261" lon="22.17562">
        <ele>505.456999</ele>
        <time>2022-02-23T16:32:23.219Z</time>
      </trkpt>
      <trkpt lat="42.16245" lon="22.17515">
        <ele>504.803851</ele>
        <time>2022-02-23T16:32:33.296Z</time>
      </trkpt>
      <trkpt lat="42.16236" lon="22.17451">
        <ele>503.979624</ele>
        <time>2022-02-23T16:32:43.667Z</time>
      </trkpt>
      <trkpt lat="42.16246" lon="22.17315">
        <ele>501.461893</ele>
        <time>2022-02-23T16:33:02.463Z</time>
      </trkpt>
      <trkpt lat="42.16259" lon="22.17236">
        <ele>499.112764</ele>
        <time>2022-02-23T16:33:13.658Z</time>
      </trkpt>
      <trkpt lat="42.16265" lon="22.17205">
        <ele>498.20591</ele>
        <time>2022-02-23T16:33:17.959Z</time>
      </trkpt>
      <trkpt lat="42.1628" lon="22.1716">
        <ele>496.790362</ele>
        <time>2022-02-23T16:33:24.953Z</time>
      </trkpt>
      <trkpt lat="42.16292" lon="22.17098">
        <ele>495.445735</ele>
        <time>2022-02-23T16:33:34.483Z</time>
      </trkpt>
      <trkpt lat="42.16282" lon="22.17006">
        <ele>494.224433</ele>
        <time>2022-02-23T16:33:48.932Z</time>
      </trkpt>
      <trkpt lat="42.16277" lon="22.16996">
        <ele>494.066867</ele>
        <time>2022-02-23T16:33:51.343Z</time>
      </trkpt>
      <trkpt lat="42.16274" lon="22.1698">
        <ele>493.859789</ele>
        <time>2022-02-23T16:33:54.011Z</time>
      </trkpt>
      <trkpt lat="42.16271" lon="22.16912">
        <ele>492.965753</ele>
        <time>2022-02-23T16:34:05.925Z</time>
      </trkpt>
      <trkpt lat="42.16259" lon="22.1683">
        <ele>491.823028</ele>
        <time>2022-02-23T16:34:19.901Z</time>
      </trkpt>
      <trkpt lat="42.16217" lon="22.16666">
        <ele>489.445296</ele>
        <time>2022-02-23T16:34:46.817Z</time>
      </trkpt>
      <trkpt lat="42.16176" lon="22.16569">
        <ele>487.707087</ele>
        <time>2022-02-23T16:35:04.086Z</time>
      </trkpt>
      <trkpt lat="42.16163" lon="22.16521">
        <ele>486.922479</ele>
        <time>2022-02-23T16:35:11.920Z</time>
      </trkpt>
      <trkpt lat="42.16148" lon="22.16492">
        <ele>486.364588</ele>
        <time>2022-02-23T16:35:17.525Z</time>
      </trkpt>
      <trkpt lat="42.16143" lon="22.16437">
        <ele>485.517189</ele>
        <time>2022-02-23T16:35:26.100Z</time>
      </trkpt>
      <trkpt lat="42.16137" lon="22.1642">
        <ele>485.248211</ele>
        <time>2022-02-23T16:35:29.076Z</time>
      </trkpt>
      <trkpt lat="42.16108" lon="22.16364">
        <ele>484.267362</ele>
        <time>2022-02-23T16:35:39.920Z</time>
      </trkpt>
      <trkpt lat="42.16064" lon="22.16301">
        <ele>483.029019</ele>
        <time>2022-02-23T16:35:53.803Z</time>
      </trkpt>
      <trkpt lat="42.16056" lon="22.16282">
        <ele>482.711946</ele>
        <time>2022-02-23T16:35:57.361Z</time>
      </trkpt>
      <trkpt lat="42.1605" lon="22.16234">
        <ele>482.001832</ele>
        <time>2022-02-23T16:36:04.707Z</time>
      </trkpt>
      <trkpt lat="42.16063" lon="22.1607">
        <ele>479.298978</ele>
        <time>2022-02-23T16:36:30.095Z</time>
      </trkpt>
      <trkpt lat="42.16063" lon="22.16065">
        <ele>479.216313</ele>
        <time>2022-02-23T16:36:30.754Z</time>
      </trkpt>
      <trkpt lat="42.16066" lon="22.1604">
        <ele>478.815977</ele>
        <time>2022-02-23T16:36:34.653Z</time>
      </trkpt>
      <trkpt lat="42.1608" lon="22.15944">
        <ele>477.458599</ele>
        <time>2022-02-23T16:36:50.006Z</time>
      </trkpt>
      <trkpt lat="42.16081" lon="22.15872">
        <ele>476.600998</ele>
        <time>2022-02-23T16:37:01.170Z</time>
      </trkpt>
      <trkpt lat="42.16075" lon="22.15837">
        <ele>476.171502</ele>
        <time>2022-02-23T16:37:07.228Z</time>
      </trkpt>
      <trkpt lat="42.16074" lon="22.15835">
        <ele>476.143407</ele>
        <time>2022-02-23T16:37:07.538Z</time>
      </trkpt>
      <trkpt lat="42.16055" lon="22.15731">
        <ele>475.167287</ele>
        <time>2022-02-23T16:37:26.131Z</time>
      </trkpt>
      <trkpt lat="42.16043" lon="22.15682">
        <ele>475.03892</ele>
        <time>2022-02-23T16:37:35.301Z</time>
      </trkpt>
      <trkpt lat="42.16034" lon="22.15638">
        <ele>474.926682</ele>
        <time>2022-02-23T16:37:43.540Z</time>
      </trkpt>
      <trkpt lat="42.16018" lon="22.15559">
        <ele>474.722772</ele>
        <time>2022-02-23T16:37:59.468Z</time>
      </trkpt>
      <trkpt lat="42.16012" lon="22.15486">
        <ele>474.87908</ele>
        <time>2022-02-23T16:38:14.640Z</time>
      </trkpt>
      <trkpt lat="42.16013" lon="22.15461">
        <ele>475.023192</ele>
        <time>2022-02-23T16:38:20.402Z</time>
      </trkpt>
      <trkpt lat="42.16019" lon="22.15383">
        <ele>475.471158</ele>
        <time>2022-02-23T16:38:38.558Z</time>
      </trkpt>
      <trkpt lat="42.16023" lon="22.15312">
        <ele>475.876965</ele>
        <time>2022-02-23T16:38:55.333Z</time>
      </trkpt>
      <trkpt lat="42.16021" lon="22.1525">
        <ele>476.102703</ele>
        <time>2022-02-23T16:39:09.731Z</time>
      </trkpt>
      <trkpt lat="42.16012" lon="22.15185">
        <ele>476.240609</ele>
        <time>2022-02-23T16:39:24.732Z</time>
      </trkpt>
      <trkpt lat="42.1599" lon="22.15126">
        <ele>476.377</ele>
        <time>2022-02-23T16:39:38.543Z</time>
      </trkpt>
      <trkpt lat="42.1599" lon="22.14987">
        <ele>476.270104</ele>
        <time>2022-02-23T16:40:03.934Z</time>
      </trkpt>
      <trkpt lat="42.15975" lon="22.14836">
        <ele>475.646935</ele>
        <time>2022-02-23T16:40:30.628Z</time>
      </trkpt>
      <trkpt lat="42.15962" lon="22.14754">
        <ele>475.872819</ele>
        <time>2022-02-23T16:40:46.737Z</time>
      </trkpt>
      <trkpt lat="42.15898" lon="22.14472">
        <ele>477.501979</ele>
        <time>2022-02-23T16:41:57.447Z</time>
      </trkpt>
      <trkpt lat="42.15904" lon="22.1434">
        <ele>478.196517</ele>
        <time>2022-02-23T16:42:27.250Z</time>
      </trkpt>
      <trkpt lat="42.15903" lon="22.14319">
        <ele>477.846586</ele>
        <time>2022-02-23T16:42:31.248Z</time>
      </trkpt>
      <trkpt lat="42.15903" lon="22.14299">
        <ele>477.509518</ele>
        <time>2022-02-23T16:42:34.935Z</time>
      </trkpt>
      <trkpt lat="42.15888" lon="22.14237">
        <ele>476.422531</ele>
        <time>2022-02-23T16:42:44.999Z</time>
      </trkpt>
      <trkpt lat="42.15871" lon="22.14198">
        <ele>475.658235</ele>
        <time>2022-02-23T16:42:52.018Z</time>
      </trkpt>
      <trkpt lat="42.1587" lon="22.14186">
        <ele>475.450811</ele>
        <time>2022-02-23T16:42:53.741Z</time>
      </trkpt>
      <trkpt lat="42.15871" lon="22.14166">
        <ele>475.11984</ele>
        <time>2022-02-23T16:42:56.799Z</time>
      </trkpt>
      <trkpt lat="42.15878" lon="22.14126">
        <ele>474.425924</ele>
        <time>2022-02-23T16:43:02.434Z</time>
      </trkpt>
      <trkpt lat="42.15884" lon="22.14112">
        <ele>474.155016</ele>
        <time>2022-02-23T16:43:04.907Z</time>
      </trkpt>
      <trkpt lat="42.15889" lon="22.1411">
        <ele>473.992006</ele>
        <time>2022-02-23T16:43:05.660Z</time>
      </trkpt>
      <trkpt lat="42.15896" lon="22.14107">
        <ele>473.683676</ele>
        <time>2022-02-23T16:43:06.944Z</time>
      </trkpt>
      <trkpt lat="42.15907" lon="22.14098">
        <ele>473.130119</ele>
        <time>2022-02-23T16:43:09.632Z</time>
      </trkpt>
      <trkpt lat="42.15942" lon="22.14048">
        <ele>470.952483</ele>
        <time>2022-02-23T16:43:19.018Z</time>
      </trkpt>
      <trkpt lat="42.1597" lon="22.1403">
        <ele>469.618704</ele>
        <time>2022-02-23T16:43:25.035Z</time>
      </trkpt>
      <trkpt lat="42.15973" lon="22.14028">
        <ele>469.501863</ele>
        <time>2022-02-23T16:43:25.469Z</time>
      </trkpt>
      <trkpt lat="42.15976" lon="22.14029">
        <ele>469.359792</ele>
        <time>2022-02-23T16:43:26.027Z</time>
      </trkpt>
      <trkpt lat="42.15989" lon="22.14022">
        <ele>468.750679</ele>
        <time>2022-02-23T16:43:28.879Z</time>
      </trkpt>
      <trkpt lat="42.16051" lon="22.13955">
        <ele>465.736805</ele>
        <time>2022-02-23T16:43:44.364Z</time>
      </trkpt>
      <trkpt lat="42.16083" lon="22.13903">
        <ele>464.306777</ele>
        <time>2022-02-23T16:43:54.447Z</time>
      </trkpt>
      <trkpt lat="42.161" lon="22.13894">
        <ele>463.796031</ele>
        <time>2022-02-23T16:43:58.451Z</time>
      </trkpt>
      <trkpt lat="42.16101" lon="22.1389">
        <ele>463.688439</ele>
        <time>2022-02-23T16:43:59.154Z</time>
      </trkpt>
      <trkpt lat="42.16103" lon="22.13876">
        <ele>463.402098</ele>
        <time>2022-02-23T16:44:01.478Z</time>
      </trkpt>
      <trkpt lat="42.16103" lon="22.13827">
        <ele>462.354092</ele>
        <time>2022-02-23T16:44:09.587Z</time>
      </trkpt>
      <trkpt lat="42.161" lon="22.13809">
        <ele>461.975299</ele>
        <time>2022-02-23T16:44:12.632Z</time>
      </trkpt>
      <trkpt lat="42.16137" lon="22.1379">
        <ele>461.069187</ele>
        <time>2022-02-23T16:44:21.075Z</time>
      </trkpt>
      <trkpt lat="42.16157" lon="22.13777">
        <ele>460.755071</ele>
        <time>2022-02-23T16:44:25.526Z</time>
      </trkpt>
      <trkpt lat="42.16173" lon="22.13766">
        <ele>460.500573</ele>
        <time>2022-02-23T16:44:29.530Z</time>
      </trkpt>
      <trkpt lat="42.16202" lon="22.13747">
        <ele>460.043077</ele>
        <time>2022-02-23T16:44:36.353Z</time>
      </trkpt>
      <trkpt lat="42.16213" lon="22.13737">
        <ele>459.853355</ele>
        <time>2022-02-23T16:44:39.337Z</time>
      </trkpt>
      <trkpt lat="42.16219" lon="22.13728">
        <ele>459.722402</ele>
        <time>2022-02-23T16:44:41.374Z</time>
      </trkpt>
      <trkpt lat="42.1623" lon="22.13711">
        <ele>459.48191</ele>
        <time>2022-02-23T16:44:45.320Z</time>
      </trkpt>
      <trkpt lat="42.16237" lon="22.137">
        <ele>459.32633</ele>
        <time>2022-02-23T16:44:47.760Z</time>
      </trkpt>
      <trkpt lat="42.16245" lon="22.13695">
        <ele>459.199669</ele>
        <time>2022-02-23T16:44:49.784Z</time>
      </trkpt>
      <trkpt lat="42.1627" lon="22.13681">
        <ele>458.810701</ele>
        <time>2022-02-23T16:44:56.179Z</time>
      </trkpt>
      <trkpt lat="42.16279" lon="22.13672">
        <ele>458.73814</ele>
        <time>2022-02-23T16:44:58.818Z</time>
      </trkpt>
      <trkpt lat="42.16309" lon="22.13605">
        <ele>458.722459</ele>
        <time>2022-02-23T16:45:12.968Z</time>
      </trkpt>
      <trkpt lat="42.16324" lon="22.1359">
        <ele>458.717334</ele>
        <time>2022-02-23T16:45:17.713Z</time>
      </trkpt>
      <trkpt lat="42.16491" lon="22.13506">
        <ele>459.293094</ele>
        <time>2022-02-23T16:46:09.357Z</time>
      </trkpt>
      <trkpt lat="42.16583" lon="22.13449">
        <ele>460.059247</ele>
        <time>2022-02-23T16:46:40.848Z</time>
      </trkpt>
      <trkpt lat="42.16803" lon="22.13362">
        <ele>462.563971</ele>
        <time>2022-02-23T16:47:54.666Z</time>
      </trkpt>
      <trkpt lat="42.1683" lon="22.13358">
        <ele>462.859822</ele>
        <time>2022-02-23T16:48:03.416Z</time>
      </trkpt>
      <trkpt lat="42.16854" lon="22.13359">
        <ele>463.117844</ele>
        <time>2022-02-23T16:48:11.144Z</time>
      </trkpt>
      <trkpt lat="42.16844" lon="22.13163">
        <ele>464.664605</ele>
        <time>2022-02-23T16:48:56.755Z</time>
      </trkpt>
      <trkpt lat="42.16829" lon="22.12933">
        <ele>466.447953</ele>
        <time>2022-02-23T16:49:51.356Z</time>
      </trkpt>
      <trkpt lat="42.16829" lon="22.12924">
        <ele>466.517164</ele>
        <time>2022-02-23T16:49:53.910Z</time>
      </trkpt>
      <trkpt lat="42.16815" lon="22.12707">
        <ele>467.725202</ele>
        <time>2022-02-23T16:50:44.681Z</time>
      </trkpt>
      <trkpt lat="42.16808" lon="22.12605">
        <ele>467.806606</ele>
        <time>2022-02-23T16:51:04.830Z</time>
      </trkpt>
      <trkpt lat="42.16808" lon="22.12598">
        <ele>467.812371</ele>
        <time>2022-02-23T16:51:06.280Z</time>
      </trkpt>
      <trkpt lat="42.16799" lon="22.12458">
        <ele>467.373355</ele>
        <time>2022-02-23T16:51:31.583Z</time>
      </trkpt>
      <trkpt lat="42.16783" lon="22.12174">
        <ele>465.84662</ele>
        <time>2022-02-23T16:52:19.930Z</time>
      </trkpt>
      <trkpt lat="42.16782" lon="22.12166">
        <ele>465.817651</ele>
        <time>2022-02-23T16:52:21.495Z</time>
      </trkpt>
      <trkpt lat="42.16782" lon="22.12157">
        <ele>465.788352</ele>
        <time>2022-02-23T16:52:23.134Z</time>
      </trkpt>
      <trkpt lat="42.1678" lon="22.1212">
        <ele>465.667668</ele>
        <time>2022-02-23T16:52:29.883Z</time>
      </trkpt>
      <trkpt lat="42.16768" lon="22.11917">
        <ele>466.565347</ele>
        <time>2022-02-23T16:53:14.170Z</time>
      </trkpt>
      <trkpt lat="42.16766" lon="22.11875">
        <ele>466.939805</ele>
        <time>2022-02-23T16:53:24.982Z</time>
      </trkpt>
      <trkpt lat="42.16762" lon="22.11826">
        <ele>467.375628</ele>
        <time>2022-02-23T16:53:37.998Z</time>
      </trkpt>
      <trkpt lat="42.16759" lon="22.11827">
        <ele>467.409783</ele>
        <time>2022-02-23T16:53:38.866Z</time>
      </trkpt>
      <trkpt lat="42.16757" lon="22.11832">
        <ele>467.46583</ele>
        <time>2022-02-23T16:53:40.596Z</time>
      </trkpt>
      <trkpt lat="42.16753" lon="22.11845">
        <ele>467.613121</ele>
        <time>2022-02-23T16:53:44.308Z</time>
      </trkpt>
      <trkpt lat="42.16748" lon="22.11856">
        <ele>467.827811</ele>
        <time>2022-02-23T16:53:47.871Z</time>
      </trkpt>
      <trkpt lat="42.16718" lon="22.11883">
        <ele>468.692258</ele>
        <time>2022-02-23T16:54:02.101Z</time>
      </trkpt>
      <trkpt lat="42.16665" lon="22.11911">
        <ele>470.050845</ele>
        <time>2022-02-23T16:54:25.109Z</time>
      </trkpt>
      <trkpt lat="42.16582" lon="22.12002">
        <ele>471.835664</ele>
        <time>2022-02-23T16:55:05.225Z</time>
      </trkpt>
      <trkpt lat="42.16518" lon="22.12027">
        <ele>471.822898</ele>
        <time>2022-02-23T16:55:26.721Z</time>
      </trkpt>
      <trkpt lat="42.16499" lon="22.12048">
        <ele>471.818242</ele>
        <time>2022-02-23T16:55:32.954Z</time>
      </trkpt>
      <trkpt lat="42.1647" lon="22.12156">
        <ele>470.685632</ele>
        <time>2022-02-23T16:55:50.674Z</time>
      </trkpt>
      <trkpt lat="42.1645" lon="22.12193">
        <ele>469.323956</ele>
        <time>2022-02-23T16:55:56.948Z</time>
      </trkpt>
      <trkpt lat="42.16442" lon="22.1222">
        <ele>468.46898</ele>
        <time>2022-02-23T16:56:00.808Z</time>
      </trkpt>
      <trkpt lat="42.16448" lon="22.12306">
        <ele>465.887476</ele>
        <time>2022-02-23T16:56:12.634Z</time>
      </trkpt>
      <trkpt lat="42.16441" lon="22.12339">
        <ele>464.867591</ele>
        <time>2022-02-23T16:56:17.370Z</time>
      </trkpt>
      <trkpt lat="42.16434" lon="22.12363">
        <ele>464.235532</ele>
        <time>2022-02-23T16:56:20.787Z</time>
      </trkpt>
      <trkpt lat="42.16428" lon="22.12371">
        <ele>463.976165</ele>
        <time>2022-02-23T16:56:22.417Z</time>
      </trkpt>
      <trkpt lat="42.16398" lon="22.12386">
        <ele>463.023605</ele>
        <time>2022-02-23T16:56:28.383Z</time>
      </trkpt>
      <trkpt lat="42.16347" lon="22.12437">
        <ele>461.119948</ele>
        <time>2022-02-23T16:56:40.731Z</time>
      </trkpt>
      <trkpt lat="42.16293" lon="22.12468">
        <ele>459.371484</ele>
        <time>2022-02-23T16:56:53.074Z</time>
      </trkpt>
      <trkpt lat="42.16265" lon="22.12497">
        <ele>459.024347</ele>
        <time>2022-02-23T16:57:01.559Z</time>
      </trkpt>
      <trkpt lat="42.1625" lon="22.12504">
        <ele>458.925116</ele>
        <time>2022-02-23T16:57:05.345Z</time>
      </trkpt>
      <trkpt lat="42.16183" lon="22.12511">
        <ele>458.503865</ele>
        <time>2022-02-23T16:57:21.727Z</time>
      </trkpt>
      <trkpt lat="42.16155" lon="22.12505">
        <ele>458.319741</ele>
        <time>2022-02-23T16:57:29.055Z</time>
      </trkpt>
      <trkpt lat="42.16136" lon="22.12486">
        <ele>458.174848</ele>
        <time>2022-02-23T16:57:34.928Z</time>
      </trkpt>
      <trkpt lat="42.16125" lon="22.12444">
        <ele>458.058536</ele>
        <time>2022-02-23T16:57:43.622Z</time>
      </trkpt>
      <trkpt lat="42.16104" lon="22.12395">
        <ele>458.00908</ele>
        <time>2022-02-23T16:57:54.719Z</time>
      </trkpt>
      <trkpt lat="42.16072" lon="22.12358">
        <ele>457.958903</ele>
        <time>2022-02-23T16:58:06.108Z</time>
      </trkpt>
      <trkpt lat="42.15985" lon="22.12226">
        <ele>457.5687</ele>
        <time>2022-02-23T16:58:40.058Z</time>
      </trkpt>
      <trkpt lat="42.15915" lon="22.12144">
        <ele>457.052523</ele>
        <time>2022-02-23T16:59:02.601Z</time>
      </trkpt>
      <trkpt lat="42.15853" lon="22.12096">
        <ele>456.413932</ele>
        <time>2022-02-23T16:59:19.118Z</time>
      </trkpt>
      <trkpt lat="42.15838" lon="22.1209">
        <ele>456.226433</ele>
        <time>2022-02-23T16:59:22.660Z</time>
      </trkpt>
      <trkpt lat="42.15812" lon="22.12083">
        <ele>455.908283</ele>
        <time>2022-02-23T16:59:28.664Z</time>
      </trkpt>
      <trkpt lat="42.15776" lon="22.12089">
        <ele>455.479603</ele>
        <time>2022-02-23T16:59:36.723Z</time>
      </trkpt>
      <trkpt lat="42.15757" lon="22.12087">
        <ele>455.249482</ele>
        <time>2022-02-23T16:59:40.995Z</time>
      </trkpt>
      <trkpt lat="42.1567" lon="22.12022">
        <ele>454.1325</ele>
        <time>2022-02-23T17:00:03.361Z</time>
      </trkpt>
      <trkpt lat="42.15633" lon="22.11964">
        <ele>453.529403</ele>
        <time>2022-02-23T17:00:16.302Z</time>
      </trkpt>
      <trkpt lat="42.15613" lon="22.11942">
        <ele>453.254153</ele>
        <time>2022-02-23T17:00:22.322Z</time>
      </trkpt>
      <trkpt lat="42.1553" lon="22.11896">
        <ele>452.481781</ele>
        <time>2022-02-23T17:00:43.716Z</time>
      </trkpt>
      <trkpt lat="42.15497" lon="22.11888">
        <ele>452.261298</ele>
        <time>2022-02-23T17:00:51.695Z</time>
      </trkpt>
      <trkpt lat="42.15381" lon="22.11843">
        <ele>451.411036</ele>
        <time>2022-02-23T17:01:20.968Z</time>
      </trkpt>
      <trkpt lat="42.15339" lon="22.11806">
        <ele>450.966009</ele>
        <time>2022-02-23T17:01:33.278Z</time>
      </trkpt>
      <trkpt lat="42.15302" lon="22.1176">
        <ele>450.530603</ele>
        <time>2022-02-23T17:01:44.892Z</time>
      </trkpt>
      <trkpt lat="42.15295" lon="22.11753">
        <ele>450.448401</ele>
        <time>2022-02-23T17:01:47.051Z</time>
      </trkpt>
      <trkpt lat="42.15284" lon="22.11746">
        <ele>450.343747</ele>
        <time>2022-02-23T17:01:49.846Z</time>
      </trkpt>
      <trkpt lat="42.15221" lon="22.11716">
        <ele>449.687136</ele>
        <time>2022-02-23T17:02:04.944Z</time>
      </trkpt>
      <trkpt lat="42.15215" lon="22.11714">
        <ele>449.612982</ele>
        <time>2022-02-23T17:02:06.372Z</time>
      </trkpt>
      <trkpt lat="42.15198" lon="22.11708">
        <ele>449.412816</ele>
        <time>2022-02-23T17:02:10.268Z</time>
      </trkpt>
      <trkpt lat="42.15152" lon="22.11697">
        <ele>448.881681</ele>
        <time>2022-02-23T17:02:20.890Z</time>
      </trkpt>
      <trkpt lat="42.15119" lon="22.1167">
        <ele>448.435518</ele>
        <time>2022-02-23T17:02:29.810Z</time>
      </trkpt>
      <trkpt lat="42.15106" lon="22.11651">
        <ele>448.221449</ele>
        <time>2022-02-23T17:02:33.912Z</time>
      </trkpt>
      <trkpt lat="42.15093" lon="22.11635">
        <ele>448.020926</ele>
        <time>2022-02-23T17:02:38.113Z</time>
      </trkpt>
      <trkpt lat="42.15067" lon="22.11604">
        <ele>447.748615</ele>
        <time>2022-02-23T17:02:46.110Z</time>
      </trkpt>
      <trkpt lat="42.14998" lon="22.11461">
        <ele>446.83658</ele>
        <time>2022-02-23T17:03:16.584Z</time>
      </trkpt>
      <trkpt lat="42.14988" lon="22.11431">
        <ele>446.669154</ele>
        <time>2022-02-23T17:03:22.675Z</time>
      </trkpt>
      <trkpt lat="42.14965" lon="22.11396">
        <ele>446.561082</ele>
        <time>2022-02-23T17:03:31.303Z</time>
      </trkpt>
      <trkpt lat="42.14909" lon="22.11252">
        <ele>446.179734</ele>
        <time>2022-02-23T17:04:02.448Z</time>
      </trkpt>
      <trkpt lat="42.14868" lon="22.11177">
        <ele>445.813635</ele>
        <time>2022-02-23T17:04:19.777Z</time>
      </trkpt>
      <trkpt lat="42.14814" lon="22.11108">
        <ele>445.338038</ele>
        <time>2022-02-23T17:04:37.678Z</time>
      </trkpt>
      <trkpt lat="42.14778" lon="22.11082">
        <ele>445.081528</ele>
        <time>2022-02-23T17:04:47.057Z</time>
      </trkpt>
      <trkpt lat="42.14748" lon="22.1107">
        <ele>444.884393</ele>
        <time>2022-02-23T17:04:54.706Z</time>
      </trkpt>
      <trkpt lat="42.14691" lon="22.11073">
        <ele>444.564314</ele>
        <time>2022-02-23T17:05:08.139Z</time>
      </trkpt>
      <trkpt lat="42.14663" lon="22.11073">
        <ele>444.403044</ele>
        <time>2022-02-23T17:05:14.836Z</time>
      </trkpt>
      <trkpt lat="42.14656" lon="22.11073">
        <ele>444.363863</ele>
        <time>2022-02-23T17:05:17.965Z</time>
      </trkpt>
      <trkpt lat="42.14641" lon="22.11067">
        <ele>444.274108</ele>
        <time>2022-02-23T17:05:24.509Z</time>
      </trkpt>
      <trkpt lat="42.1463" lon="22.1105">
        <ele>444.179539</ele>
        <time>2022-02-23T17:05:31.590Z</time>
      </trkpt>
      <trkpt lat="42.14599" lon="22.10937">
        <ele>443.82311</ele>
        <time>2022-02-23T17:06:10.466Z</time>
      </trkpt>
      <trkpt lat="42.14597" lon="22.10885">
        <ele>443.728275</ele>
        <time>2022-02-23T17:06:27.661Z</time>
      </trkpt>
      <trkpt lat="42.14603" lon="22.10786">
        <ele>443.546757</ele>
        <time>2022-02-23T17:07:00.046Z</time>
      </trkpt>
      <trkpt lat="42.14588" lon="22.10694">
        <ele>443.100979</ele>
        <time>2022-02-23T17:07:29.306Z</time>
      </trkpt>
      <trkpt lat="42.14586" lon="22.10648">
        <ele>442.827559</ele>
        <time>2022-02-23T17:07:43.016Z</time>
      </trkpt>
      <trkpt lat="42.14564" lon="22.10594">
        <ele>442.458821</ele>
        <time>2022-02-23T17:08:01.573Z</time>
      </trkpt>
      <trkpt lat="42.14542" lon="22.10566">
        <ele>442.216622</ele>
        <time>2022-02-23T17:08:13.705Z</time>
      </trkpt>
      <trkpt lat="42.14532" lon="22.10536">
        <ele>442.108285</ele>
        <time>2022-02-23T17:08:23.750Z</time>
      </trkpt>
      <trkpt lat="42.14519" lon="22.10517">
        <ele>442.372381</ele>
        <time>2022-02-23T17:08:31.695Z</time>
      </trkpt>
      <trkpt lat="42.14499" lon="22.10488">
        <ele>442.783841</ele>
        <time>2022-02-23T17:08:44.166Z</time>
      </trkpt>
      <trkpt lat="42.14488" lon="22.10472">
        <ele>443.010302</ele>
        <time>2022-02-23T17:08:51.366Z</time>
      </trkpt>
      <trkpt lat="42.14453" lon="22.10447">
        <ele>443.563133</ele>
        <time>2022-02-23T17:09:08.948Z</time>
      </trkpt>
      <trkpt lat="42.14397" lon="22.10433">
        <ele>444.348485</ele>
        <time>2022-02-23T17:09:42.233Z</time>
      </trkpt>
      <trkpt lat="42.1439" lon="22.10424">
        <ele>444.496722</ele>
        <time>2022-02-23T17:09:48.436Z</time>
      </trkpt>
      <trkpt lat="42.14386" lon="22.10414">
        <ele>444.800869</ele>
        <time>2022-02-23T17:09:54.701Z</time>
      </trkpt>
      <trkpt lat="42.14384" lon="22.10346">
        <ele>448.146723</ele>
        <time>2022-02-23T17:10:31.022Z</time>
      </trkpt>
      <trkpt lat="42.14377" lon="22.10325">
        <ele>449.317188</ele>
        <time>2022-02-23T17:10:42.687Z</time>
      </trkpt>
      <trkpt lat="42.14369" lon="22.10317">
        <ele>449.934551</ele>
        <time>2022-02-23T17:10:52.081Z</time>
      </trkpt>
      <trkpt lat="42.14359" lon="22.1031">
        <ele>450.702139</ele>
        <time>2022-02-23T17:11:00.137Z</time>
      </trkpt>
      <trkpt lat="42.14343" lon="22.10305">
        <ele>451.78144</ele>
        <time>2022-02-23T17:11:08.762Z</time>
      </trkpt>
      <trkpt lat="42.14337" lon="22.10304">
        <ele>452.214896</ele>
        <time>2022-02-23T17:11:15.436Z</time>
      </trkpt>
      <trkpt lat="42.14301" lon="22.10299">
        <ele>454.611031</ele>
        <time>2022-02-23T17:11:38.516Z</time>
      </trkpt>
      <trkpt lat="42.1425" lon="22.10284">
        <ele>457.727189</ele>
        <time>2022-02-23T17:12:11.936Z</time>
      </trkpt>
      <trkpt lat="42.14183" lon="22.10255">
        <ele>461.276532</ele>
        <time>2022-02-23T17:12:56.894Z</time>
      </trkpt>
      <trkpt lat="42.14126" lon="22.10274">
        <ele>464.23594</ele>
        <time>2022-02-23T17:13:21.935Z</time>
      </trkpt>
      <trkpt lat="42.14083" lon="22.10298">
        <ele>465.280126</ele>
        <time>2022-02-23T17:13:37.836Z</time>
      </trkpt>
      <trkpt lat="42.14036" lon="22.10314">
        <ele>464.29156</ele>
        <time>2022-02-23T17:13:49.107Z</time>
      </trkpt>
      <trkpt lat="42.13979" lon="22.10316">
        <ele>463.115283</ele>
        <time>2022-02-23T17:14:00.376Z</time>
      </trkpt>
      <trkpt lat="42.13944" lon="22.1031">
        <ele>462.397723</ele>
        <time>2022-02-23T17:14:06.860Z</time>
      </trkpt>
      <trkpt lat="42.13869" lon="22.10318">
        <ele>460.4239</ele>
        <time>2022-02-23T17:14:21.033Z</time>
      </trkpt>
      <trkpt lat="42.13814" lon="22.10311">
        <ele>458.868929</ele>
        <time>2022-02-23T17:14:31.782Z</time>
      </trkpt>
      <trkpt lat="42.13769" lon="22.10325">
        <ele>457.581953</ele>
        <time>2022-02-23T17:14:41.199Z</time>
      </trkpt>
      <trkpt lat="42.13702" lon="22.10399">
        <ele>456.297016</ele>
        <time>2022-02-23T17:15:02.295Z</time>
      </trkpt>
      <trkpt lat="42.13664" lon="22.10414">
        <ele>455.911201</ele>
        <time>2022-02-23T17:15:13.315Z</time>
      </trkpt>
      <trkpt lat="42.13605" lon="22.10411">
        <ele>455.326765</ele>
        <time>2022-02-23T17:15:27.536Z</time>
      </trkpt>
      <trkpt lat="42.1357" lon="22.10382">
        <ele>454.260788</ele>
        <time>2022-02-23T17:15:35.926Z</time>
      </trkpt>
      <trkpt lat="42.13548" lon="22.10356">
        <ele>453.120562</ele>
        <time>2022-02-23T17:15:41.719Z</time>
      </trkpt>
      <trkpt lat="42.13532" lon="22.10349">
        <ele>452.495396</ele>
        <time>2022-02-23T17:15:44.784Z</time>
      </trkpt>
      <trkpt lat="42.13522" lon="22.10355">
        <ele>452.05768</ele>
        <time>2022-02-23T17:15:46.994Z</time>
      </trkpt>
      <trkpt lat="42.13472" lon="22.10451">
        <ele>448.679864</ele>
        <time>2022-02-23T17:16:03.067Z</time>
      </trkpt>
      <trkpt lat="42.13449" lon="22.10484">
        <ele>447.223375</ele>
        <time>2022-02-23T17:16:08.921Z</time>
      </trkpt>
      <trkpt lat="42.13422" lon="22.10505">
        <ele>445.709415</ele>
        <time>2022-02-23T17:16:14.503Z</time>
      </trkpt>
      <trkpt lat="42.13388" lon="22.10524">
        <ele>443.934268</ele>
        <time>2022-02-23T17:16:21.061Z</time>
      </trkpt>
      <trkpt lat="42.13359" lon="22.10534">
        <ele>442.515092</ele>
        <time>2022-02-23T17:16:26.392Z</time>
      </trkpt>
      <trkpt lat="42.13248" lon="22.10597">
        <ele>438.658468</ele>
        <time>2022-02-23T17:16:49.479Z</time>
      </trkpt>
      <trkpt lat="42.13225" lon="22.10602">
        <ele>438.287112</ele>
        <time>2022-02-23T17:16:54.442Z</time>
      </trkpt>
      <trkpt lat="42.13216" lon="22.10599">
        <ele>438.140008</ele>
        <time>2022-02-23T17:16:56.498Z</time>
      </trkpt>
      <trkpt lat="42.13197" lon="22.10575">
        <ele>437.733876</ele>
        <time>2022-02-23T17:17:02.569Z</time>
      </trkpt>
      <trkpt lat="42.13171" lon="22.10547">
        <ele>437.207206</ele>
        <time>2022-02-23T17:17:11.099Z</time>
      </trkpt>
      <trkpt lat="42.13142" lon="22.10531">
        <ele>436.811038</ele>
        <time>2022-02-23T17:17:20.550Z</time>
      </trkpt>
      <trkpt lat="42.13124" lon="22.10525">
        <ele>437.135838</ele>
        <time>2022-02-23T17:17:27.078Z</time>
      </trkpt>
      <trkpt lat="42.13082" lon="22.10524">
        <ele>437.873638</ele>
        <time>2022-02-23T17:17:42.244Z</time>
      </trkpt>
      <trkpt lat="42.13069" lon="22.10525">
        <ele>438.100401</ele>
        <time>2022-02-23T17:17:47.349Z</time>
      </trkpt>
      <trkpt lat="42.1306" lon="22.10534">
        <ele>438.301625</ele>
        <time>2022-02-23T17:17:51.952Z</time>
      </trkpt>
      <trkpt lat="42.13053" lon="22.10561">
        <ele>438.681527</ele>
        <time>2022-02-23T17:17:59.614Z</time>
      </trkpt>
      <trkpt lat="42.1304" lon="22.1058">
        <ele>439.011262</ele>
        <time>2022-02-23T17:18:07.429Z</time>
      </trkpt>
      <trkpt lat="42.13024" lon="22.10581">
        <ele>439.30277</ele>
        <time>2022-02-23T17:18:12.972Z</time>
      </trkpt>
      <trkpt lat="42.13017" lon="22.10578">
        <ele>439.424898</ele>
        <time>2022-02-23T17:18:16.909Z</time>
      </trkpt>
      <trkpt lat="42.13005" lon="22.10584">
        <ele>439.647942</ele>
        <time>2022-02-23T17:18:20.946Z</time>
      </trkpt>
      <trkpt lat="42.12872" lon="22.10604">
        <ele>441.96869</ele>
        <time>2022-02-23T17:19:08.853Z</time>
      </trkpt>
      <trkpt lat="42.12818" lon="22.10618">
        <ele>442.921918</ele>
        <time>2022-02-23T17:19:26.924Z</time>
      </trkpt>
      <trkpt lat="42.12762" lon="22.10637">
        <ele>444.000801</ele>
        <time>2022-02-23T17:19:46.330Z</time>
      </trkpt>
      <trkpt lat="42.12746" lon="22.10642">
        <ele>444.304211</ele>
        <time>2022-02-23T17:19:52.516Z</time>
      </trkpt>
      <trkpt lat="42.12687" lon="22.1065">
        <ele>445.414921</ele>
        <time>2022-02-23T17:20:13.951Z</time>
      </trkpt>
      <trkpt lat="42.12654" lon="22.10644">
        <ele>446.042341</ele>
        <time>2022-02-23T17:20:26.555Z</time>
      </trkpt>
      <trkpt lat="42.12623" lon="22.10631">
        <ele>446.590083</ele>
        <time>2022-02-23T17:20:38.882Z</time>
      </trkpt>
      <trkpt lat="42.12541" lon="22.10569">
        <ele>447.860817</ele>
        <time>2022-02-23T17:21:11.819Z</time>
      </trkpt>
      <trkpt lat="42.12423" lon="22.10477">
        <ele>448.655816</ele>
        <time>2022-02-23T17:21:52.201Z</time>
      </trkpt>
      <trkpt lat="42.12386" lon="22.1043">
        <ele>448.492572</ele>
        <time>2022-02-23T17:22:04.889Z</time>
      </trkpt>
      <trkpt lat="42.12357" lon="22.10376">
        <ele>448.333369</ele>
        <time>2022-02-23T17:22:16.619Z</time>
      </trkpt>
      <trkpt lat="42.12337" lon="22.10322">
        <ele>447.625633</ele>
        <time>2022-02-23T17:22:26.703Z</time>
      </trkpt>
      <trkpt lat="42.12304" lon="22.10138">
        <ele>444.30639</ele>
        <time>2022-02-23T17:22:55.582Z</time>
      </trkpt>
      <trkpt lat="42.12285" lon="22.10066">
        <ele>442.657144</ele>
        <time>2022-02-23T17:23:06.135Z</time>
      </trkpt>
      <trkpt lat="42.12249" lon="22.09983">
        <ele>440.48859</ele>
        <time>2022-02-23T17:23:19.867Z</time>
      </trkpt>
      <trkpt lat="42.12216" lon="22.09926">
        <ele>438.829953</ele>
        <time>2022-02-23T17:23:30.762Z</time>
      </trkpt>
      <trkpt lat="42.12176" lon="22.09873">
        <ele>437.886894</ele>
        <time>2022-02-23T17:23:42.658Z</time>
      </trkpt>
      <trkpt lat="42.12166" lon="22.09864">
        <ele>437.726872</ele>
        <time>2022-02-23T17:23:45.043Z</time>
      </trkpt>
      <trkpt lat="42.12129" lon="22.09828">
        <ele>437.087303</ele>
        <time>2022-02-23T17:23:55.122Z</time>
      </trkpt>
      <trkpt lat="42.12054" lon="22.09771">
        <ele>435.861642</ele>
        <time>2022-02-23T17:24:16.429Z</time>
      </trkpt>
      <trkpt lat="42.12014" lon="22.09732">
        <ele>435.036878</ele>
        <time>2022-02-23T17:24:27.782Z</time>
      </trkpt>
      <trkpt lat="42.11972" lon="22.09677">
        <ele>434.046357</ele>
        <time>2022-02-23T17:24:40.314Z</time>
      </trkpt>
      <trkpt lat="42.11867" lon="22.09512">
        <ele>430.95593</ele>
        <time>2022-02-23T17:25:13.479Z</time>
      </trkpt>
      <trkpt lat="42.11833" lon="22.0947">
        <ele>429.988138</ele>
        <time>2022-02-23T17:25:23.288Z</time>
      </trkpt>
      <trkpt lat="42.11781" lon="22.09422">
        <ele>428.988319</ele>
        <time>2022-02-23T17:25:36.842Z</time>
      </trkpt>
      <trkpt lat="42.11729" lon="22.09384">
        <ele>428.392022</ele>
        <time>2022-02-23T17:25:50.073Z</time>
      </trkpt>
      <trkpt lat="42.11572" lon="22.09304">
        <ele>427.069988</ele>
        <time>2022-02-23T17:26:31.418Z</time>
      </trkpt>
      <trkpt lat="42.11547" lon="22.09291">
        <ele>426.929355</ele>
        <time>2022-02-23T17:26:38.360Z</time>
      </trkpt>
      <trkpt lat="42.11538" lon="22.09287">
        <ele>426.8803</ele>
        <time>2022-02-23T17:26:40.660Z</time>
      </trkpt>
      <trkpt lat="42.11523" lon="22.09279">
        <ele>426.79157</ele>
        <time>2022-02-23T17:26:45.205Z</time>
      </trkpt>
      <trkpt lat="42.11456" lon="22.09244">
        <ele>426.31677</ele>
        <time>2022-02-23T17:27:02.139Z</time>
      </trkpt>
      <trkpt lat="42.1141" lon="22.09219">
        <ele>425.781967</ele>
        <time>2022-02-23T17:27:13.396Z</time>
      </trkpt>
      <trkpt lat="42.11358" lon="22.09205">
        <ele>425.226641</ele>
        <time>2022-02-23T17:27:25.059Z</time>
      </trkpt>
      <trkpt lat="42.1129" lon="22.09202">
        <ele>424.629895</ele>
        <time>2022-02-23T17:27:40.535Z</time>
      </trkpt>
      <trkpt lat="42.11201" lon="22.09197">
        <ele>424.768835</ele>
        <time>2022-02-23T17:28:03.782Z</time>
      </trkpt>
      <trkpt lat="42.11149" lon="22.09175">
        <ele>424.852917</ele>
        <time>2022-02-23T17:28:19.973Z</time>
      </trkpt>
      <trkpt lat="42.11103" lon="22.09133">
        <ele>424.876056</ele>
        <time>2022-02-23T17:28:38.222Z</time>
      </trkpt>
      <trkpt lat="42.11071" lon="22.09082">
        <ele>424.849762</ele>
        <time>2022-02-23T17:28:54.284Z</time>
      </trkpt>
      <trkpt lat="42.11002" lon="22.08909">
        <ele>423.839168</ele>
        <time>2022-02-23T17:29:28.377Z</time>
      </trkpt>
      <trkpt lat="42.10972" lon="22.08864">
        <ele>422.875804</ele>
        <time>2022-02-23T17:29:37.408Z</time>
      </trkpt>
      <trkpt lat="42.10945" lon="22.08835">
        <ele>422.157131</ele>
        <time>2022-02-23T17:29:44.201Z</time>
      </trkpt>
      <trkpt lat="42.10932" lon="22.08825">
        <ele>421.840857</ele>
        <time>2022-02-23T17:29:47.065Z</time>
      </trkpt>
      <trkpt lat="42.10913" lon="22.08811">
        <ele>421.389176</ele>
        <time>2022-02-23T17:29:51.560Z</time>
      </trkpt>
      <trkpt lat="42.10854" lon="22.08779">
        <ele>421.007715</ele>
        <time>2022-02-23T17:30:04.798Z</time>
      </trkpt>
      <trkpt lat="42.10768" lon="22.08733">
        <ele>421.032209</ele>
        <time>2022-02-23T17:30:30.162Z</time>
      </trkpt>
      <trkpt lat="42.10752" lon="22.08729">
        <ele>421.036497</ele>
        <time>2022-02-23T17:30:35.381Z</time>
      </trkpt>
      <trkpt lat="42.10744" lon="22.08726">
        <ele>421.038803</ele>
        <time>2022-02-23T17:30:39.106Z</time>
      </trkpt>
      <trkpt lat="42.10716" lon="22.08723">
        <ele>421.320857</ele>
        <time>2022-02-23T17:30:49.341Z</time>
      </trkpt>
      <trkpt lat="42.10707" lon="22.08725">
        <ele>421.545291</ele>
        <time>2022-02-23T17:30:53.436Z</time>
      </trkpt>
      <trkpt lat="42.10695" lon="22.08733">
        <ele>421.87273</ele>
        <time>2022-02-23T17:30:58.758Z</time>
      </trkpt>
      <trkpt lat="42.10565" lon="22.08876">
        <ele>425.826906</ele>
        <time>2022-02-23T17:32:05.862Z</time>
      </trkpt>
      <trkpt lat="42.10534" lon="22.08918">
        <ele>426.415001</ele>
        <time>2022-02-23T17:32:19.560Z</time>
      </trkpt>
      <trkpt lat="42.10524" lon="22.08935">
        <ele>426.63109</ele>
        <time>2022-02-23T17:32:24.251Z</time>
      </trkpt>
      <trkpt lat="42.10515" lon="22.08952">
        <ele>426.827519</ele>
        <time>2022-02-23T17:32:28.449Z</time>
      </trkpt>
      <trkpt lat="42.10505" lon="22.08982">
        <ele>427.15603</ele>
        <time>2022-02-23T17:32:36.715Z</time>
      </trkpt>
      <trkpt lat="42.1049" lon="22.09034">
        <ele>427.711723</ele>
        <time>2022-02-23T17:32:50.037Z</time>
      </trkpt>
      <trkpt lat="42.10478" lon="22.09084">
        <ele>428.30023</ele>
        <time>2022-02-23T17:33:02.586Z</time>
      </trkpt>
      <trkpt lat="42.10463" lon="22.09144">
        <ele>429.087565</ele>
        <time>2022-02-23T17:33:17.642Z</time>
      </trkpt>
      <trkpt lat="42.10461" lon="22.09152">
        <ele>429.201786</ele>
        <time>2022-02-23T17:33:21.382Z</time>
      </trkpt>
      <trkpt lat="42.10439" lon="22.09216">
        <ele>430.069443</ele>
        <time>2022-02-23T17:33:38.637Z</time>
      </trkpt>
      <trkpt lat="42.10393" lon="22.09302">
        <ele>431.481423</ele>
        <time>2022-02-23T17:34:06.936Z</time>
      </trkpt>
      <trkpt lat="42.10386" lon="22.0932">
        <ele>431.796348</ele>
        <time>2022-02-23T17:34:14.316Z</time>
      </trkpt>
      <trkpt lat="42.1038" lon="22.09341">
        <ele>432.134758</ele>
        <time>2022-02-23T17:34:20.055Z</time>
      </trkpt>
      <trkpt lat="42.10379" lon="22.09429">
        <ele>433.459421</ele>
        <time>2022-02-23T17:34:43.988Z</time>
      </trkpt>
      <trkpt lat="42.10369" lon="22.09475">
        <ele>434.196754</ele>
        <time>2022-02-23T17:34:56.991Z</time>
      </trkpt>
      <trkpt lat="42.10359" lon="22.09499">
        <ele>434.598406</ele>
        <time>2022-02-23T17:35:03.934Z</time>
      </trkpt>
      <trkpt lat="42.10315" lon="22.09605">
        <ele>436.190797</ele>
        <time>2022-02-23T17:35:34.715Z</time>
      </trkpt>
      <trkpt lat="42.10266" lon="22.09753">
        <ele>438.337005</ele>
        <time>2022-02-23T17:36:17.256Z</time>
      </trkpt>
      <trkpt lat="42.10261" lon="22.09766">
        <ele>438.546741</ele>
        <time>2022-02-23T17:36:21.584Z</time>
      </trkpt>
      <trkpt lat="42.10252" lon="22.09792">
        <ele>438.961523</ele>
        <time>2022-02-23T17:36:28.907Z</time>
      </trkpt>
      <trkpt lat="42.10216" lon="22.09851">
        <ele>440.040597</ele>
        <time>2022-02-23T17:36:49.253Z</time>
      </trkpt>
      <trkpt lat="42.10171" lon="22.09904">
        <ele>441.190734</ele>
        <time>2022-02-23T17:37:10.757Z</time>
      </trkpt>
      <trkpt lat="42.10156" lon="22.09924">
        <ele>441.63515</ele>
        <time>2022-02-23T17:37:18.519Z</time>
      </trkpt>
      <trkpt lat="42.10147" lon="22.09936">
        <ele>441.914958</ele>
        <time>2022-02-23T17:37:22.996Z</time>
      </trkpt>
      <trkpt lat="42.10031" lon="22.10168">
        <ele>446.585176</ele>
        <time>2022-02-23T17:38:40.414Z</time>
      </trkpt>
      <trkpt lat="42.09985" lon="22.10245">
        <ele>448.405215</ele>
        <time>2022-02-23T17:39:09.424Z</time>
      </trkpt>
      <trkpt lat="42.09885" lon="22.10402">
        <ele>452.101756</ele>
        <time>2022-02-23T17:40:09.083Z</time>
      </trkpt>
      <trkpt lat="42.09824" lon="22.10473">
        <ele>453.981264</ele>
        <time>2022-02-23T17:40:39.209Z</time>
      </trkpt>
      <trkpt lat="42.09804" lon="22.10488">
        <ele>454.412514</ele>
        <time>2022-02-23T17:40:47.351Z</time>
      </trkpt>
      <trkpt lat="42.09798" lon="22.10494">
        <ele>454.565628</ele>
        <time>2022-02-23T17:40:49.803Z</time>
      </trkpt>
      <trkpt lat="42.09788" lon="22.10501">
        <ele>454.783292</ele>
        <time>2022-02-23T17:40:54.413Z</time>
      </trkpt>
      <trkpt lat="42.09687" lon="22.10578">
        <ele>457.022701</ele>
        <time>2022-02-23T17:41:35.425Z</time>
      </trkpt>
      <trkpt lat="42.09633" lon="22.10641">
        <ele>458.398832</ele>
        <time>2022-02-23T17:42:01.262Z</time>
      </trkpt>
      <trkpt lat="42.09548" lon="22.10753">
        <ele>460.663183</ele>
        <time>2022-02-23T17:42:44.374Z</time>
      </trkpt>
      <trkpt lat="42.09503" lon="22.10811">
        <ele>461.384724</ele>
        <time>2022-02-23T17:43:05.592Z</time>
      </trkpt>
      <trkpt lat="42.0947" lon="22.10848">
        <ele>461.868852</ele>
        <time>2022-02-23T17:43:19.987Z</time>
      </trkpt>
      <trkpt lat="42.09326" lon="22.10941">
        <ele>463.314055</ele>
        <time>2022-02-23T17:44:06.494Z</time>
      </trkpt>
      <trkpt lat="42.09277" lon="22.11012">
        <ele>463.824872</ele>
        <time>2022-02-23T17:44:27.190Z</time>
      </trkpt>
      <trkpt lat="42.09239" lon="22.11086">
        <ele>464.889277</ele>
        <time>2022-02-23T17:44:49.307Z</time>
      </trkpt>
      <trkpt lat="42.09212" lon="22.11142">
        <ele>466.003681</ele>
        <time>2022-02-23T17:45:07.271Z</time>
      </trkpt>
      <trkpt lat="42.09196" lon="22.11174">
        <ele>466.636283</ele>
        <time>2022-02-23T17:45:18.234Z</time>
      </trkpt>
      <trkpt lat="42.09181" lon="22.11206">
        <ele>467.269863</ele>
        <time>2022-02-23T17:45:29.474Z</time>
      </trkpt>
      <trkpt lat="42.09093" lon="22.11459">
        <ele>473.779537</ele>
        <time>2022-02-23T17:46:58.397Z</time>
      </trkpt>
      <trkpt lat="42.09075" lon="22.11496">
        <ele>474.711761</ele>
        <time>2022-02-23T17:47:12.234Z</time>
      </trkpt>
      <trkpt lat="42.09048" lon="22.11531">
        <ele>475.744508</ele>
        <time>2022-02-23T17:47:28.204Z</time>
      </trkpt>
      <trkpt lat="42.09024" lon="22.1155">
        <ele>476.504297</ele>
        <time>2022-02-23T17:47:39.964Z</time>
      </trkpt>
      <trkpt lat="42.08866" lon="22.11617">
        <ele>479.729034</ele>
        <time>2022-02-23T17:48:41.544Z</time>
      </trkpt>
      <trkpt lat="42.08685" lon="22.11688">
        <ele>481.149546</ele>
        <time>2022-02-23T17:49:33.785Z</time>
      </trkpt>
      <trkpt lat="42.08642" lon="22.11724">
        <ele>481.344731</ele>
        <time>2022-02-23T17:49:47.328Z</time>
      </trkpt>
      <trkpt lat="42.08625" lon="22.11748">
        <ele>481.438007</ele>
        <time>2022-02-23T17:49:54.221Z</time>
      </trkpt>
      <trkpt lat="42.08609" lon="22.11783">
        <ele>481.738673</ele>
        <time>2022-02-23T17:50:03.576Z</time>
      </trkpt>
      <trkpt lat="42.08579" lon="22.11885">
        <ele>483.346366</ele>
        <time>2022-02-23T17:50:31.019Z</time>
      </trkpt>
      <trkpt lat="42.08459" lon="22.12102">
        <ele>488.264077</ele>
        <time>2022-02-23T17:51:52.002Z</time>
      </trkpt>
      <trkpt lat="42.08418" lon="22.12143">
        <ele>489.677938</ele>
        <time>2022-02-23T17:52:13.042Z</time>
      </trkpt>
      <trkpt lat="42.08333" lon="22.12203">
        <ele>491.438497</ele>
        <time>2022-02-23T17:52:49.885Z</time>
      </trkpt>
      <trkpt lat="42.08313" lon="22.12228">
        <ele>491.883544</ele>
        <time>2022-02-23T17:52:59.216Z</time>
      </trkpt>
      <trkpt lat="42.08295" lon="22.12259">
        <ele>492.369365</ele>
        <time>2022-02-23T17:53:08.759Z</time>
      </trkpt>
      <trkpt lat="42.08283" lon="22.12295">
        <ele>492.848734</ele>
        <time>2022-02-23T17:53:17.583Z</time>
      </trkpt>
      <trkpt lat="42.08277" lon="22.12336">
        <ele>493.079342</ele>
        <time>2022-02-23T17:53:26.439Z</time>
      </trkpt>
      <trkpt lat="42.08279" lon="22.12471">
        <ele>493.18208</ele>
        <time>2022-02-23T17:53:52.745Z</time>
      </trkpt>
      <trkpt lat="42.08287" lon="22.12672">
        <ele>494.159334</ele>
        <time>2022-02-23T17:54:33.110Z</time>
      </trkpt>
      <trkpt lat="42.08262" lon="22.12678">
        <ele>494.417342</ele>
        <time>2022-02-23T17:54:41.227Z</time>
      </trkpt>
      <trkpt lat="42.08238" lon="22.12674">
        <ele>494.672564</ele>
        <time>2022-02-23T17:54:49.504Z</time>
      </trkpt>
      <trkpt lat="42.082" lon="22.12651">
        <ele>495.110195</ele>
        <time>2022-02-23T17:55:04.318Z</time>
      </trkpt>
      <trkpt lat="42.08178" lon="22.12638">
        <ele>496.496905</ele>
        <time>2022-02-23T17:55:13.751Z</time>
      </trkpt>
      <trkpt lat="42.08152" lon="22.12622">
        <ele>498.214248</ele>
        <time>2022-02-23T17:55:26.166Z</time>
      </trkpt>
      <trkpt lat="42.08128" lon="22.12611">
        <ele>499.687429</ele>
        <time>2022-02-23T17:55:37.796Z</time>
      </trkpt>
      <trkpt lat="42.08098" lon="22.1261">
        <ele>501.483991</ele>
        <time>2022-02-23T17:55:54.622Z</time>
      </trkpt>
      <trkpt lat="42.08053" lon="22.12621">
        <ele>504.265959</ele>
        <time>2022-02-23T17:56:24.738Z</time>
      </trkpt>
      <trkpt lat="42.08034" lon="22.12627">
        <ele>505.402975</ele>
        <time>2022-02-23T17:56:38.325Z</time>
      </trkpt>
      <trkpt lat="42.08004" lon="22.12639">
        <ele>508.684736</ele>
        <time>2022-02-23T17:57:00.849Z</time>
      </trkpt>
      <trkpt lat="42.07983" lon="22.12647">
        <ele>511.219096</ele>
        <time>2022-02-23T17:57:19.586Z</time>
      </trkpt>
      <trkpt lat="42.07971" lon="22.12571">
        <ele>518.095149</ele>
        <time>2022-02-23T17:58:04.619Z</time>
      </trkpt>
      <trkpt lat="42.07961" lon="22.12553">
        <ele>520.046344</ele>
        <time>2022-02-23T17:58:22.180Z</time>
      </trkpt>
      <trkpt lat="42.0793" lon="22.12534">
        <ele>524.056651</ele>
        <time>2022-02-23T17:58:53.381Z</time>
      </trkpt>
      <trkpt lat="42.07916" lon="22.12512">
        <ele>526.627926</ele>
        <time>2022-02-23T17:59:09.439Z</time>
      </trkpt>
      <trkpt lat="42.07913" lon="22.12503">
        <ele>527.473565</ele>
        <time>2022-02-23T17:59:18.833Z</time>
      </trkpt>
      <trkpt lat="42.07923" lon="22.12494">
        <ele>529.195066</ele>
        <time>2022-02-23T17:59:29.992Z</time>
      </trkpt>
      <trkpt lat="42.07961" lon="22.12452">
        <ele>535.918051</ele>
        <time>2022-02-23T18:00:15.284Z</time>
      </trkpt>
      <trkpt lat="42.07962" lon="22.12444">
        <ele>536.779347</ele>
        <time>2022-02-23T18:00:21.223Z</time>
      </trkpt>
      <trkpt lat="42.0796" lon="22.12436">
        <ele>537.668449</ele>
        <time>2022-02-23T18:00:30.079Z</time>
      </trkpt>
      <trkpt lat="42.07944" lon="22.12422">
        <ele>540.265327</ele>
        <time>2022-02-23T18:00:44.867Z</time>
      </trkpt>
      <trkpt lat="42.0789" lon="22.12403">
        <ele>547.95228</ele>
        <time>2022-02-23T18:01:38.307Z</time>
      </trkpt>
      <trkpt lat="42.07878" lon="22.12395">
        <ele>549.823549</ele>
        <time>2022-02-23T18:01:50.417Z</time>
      </trkpt>
      <trkpt lat="42.07803" lon="22.12329">
        <ele>558.910175</ele>
        <time>2022-02-23T18:03:09.960Z</time>
      </trkpt>
      <trkpt lat="42.07742" lon="22.12266">
        <ele>566.145859</ele>
        <time>2022-02-23T18:04:06.080Z</time>
      </trkpt>
      <trkpt lat="42.0773" lon="22.12247">
        <ele>567.835921</ele>
        <time>2022-02-23T18:04:12.369Z</time>
      </trkpt>
      <trkpt lat="42.07719" lon="22.12222">
        <ele>568.856806</ele>
        <time>2022-02-23T18:04:23.687Z</time>
      </trkpt>
      <trkpt lat="42.07682" lon="22.12115">
        <ele>568.738847</ele>
        <time>2022-02-23T18:04:47.641Z</time>
      </trkpt>
      <trkpt lat="42.07676" lon="22.12097">
        <ele>568.71904</ele>
        <time>2022-02-23T18:04:51.598Z</time>
      </trkpt>
      <trkpt lat="42.07669" lon="22.12083">
        <ele>568.702668</ele>
        <time>2022-02-23T18:04:54.146Z</time>
      </trkpt>
      <trkpt lat="42.07661" lon="22.12076">
        <ele>568.690228</ele>
        <time>2022-02-23T18:04:55.820Z</time>
      </trkpt>
      <trkpt lat="42.0763" lon="22.12061">
        <ele>568.645278</ele>
        <time>2022-02-23T18:05:02.746Z</time>
      </trkpt>
      <trkpt lat="42.07573" lon="22.12051">
        <ele>568.566955</ele>
        <time>2022-02-23T18:05:13.648Z</time>
      </trkpt>
      <trkpt lat="42.07559" lon="22.12038">
        <ele>568.543122</ele>
        <time>2022-02-23T18:05:17.261Z</time>
      </trkpt>
      <trkpt lat="42.07548" lon="22.12015">
        <ele>568.514904</ele>
        <time>2022-02-23T18:05:21.908Z</time>
      </trkpt>
      <trkpt lat="42.07523" lon="22.11947">
        <ele>568.436834</ele>
        <time>2022-02-23T18:05:39.680Z</time>
      </trkpt>
      <trkpt lat="42.07458" lon="22.11824">
        <ele>570.164139</ele>
        <time>2022-02-23T18:06:24.989Z</time>
      </trkpt>
      <trkpt lat="42.07357" lon="22.11677">
        <ele>573.281703</ele>
        <time>2022-02-23T18:07:22.428Z</time>
      </trkpt>
      <trkpt lat="42.07253" lon="22.11588">
        <ele>574.513932</ele>
        <time>2022-02-23T18:07:59.730Z</time>
      </trkpt>
      <trkpt lat="42.07173" lon="22.11545">
        <ele>574.124151</ele>
        <time>2022-02-23T18:08:21.606Z</time>
      </trkpt>
      <trkpt lat="42.07147" lon="22.11513">
        <ele>573.847543</ele>
        <time>2022-02-23T18:08:30.044Z</time>
      </trkpt>
      <trkpt lat="42.06977" lon="22.11243">
        <ele>570.196398</ele>
        <time>2022-02-23T18:09:27.901Z</time>
      </trkpt>
      <trkpt lat="42.06965" lon="22.11231">
        <ele>569.869915</ele>
        <time>2022-02-23T18:09:30.918Z</time>
      </trkpt>
      <trkpt lat="42.0694" lon="22.11228">
        <ele>569.300757</ele>
        <time>2022-02-23T18:09:36.171Z</time>
      </trkpt>
      <trkpt lat="42.06895" lon="22.11238">
        <ele>568.292221</ele>
        <time>2022-02-23T18:09:45.430Z</time>
      </trkpt>
      <trkpt lat="42.06872" lon="22.11221">
        <ele>567.701006</ele>
        <time>2022-02-23T18:09:50.815Z</time>
      </trkpt>
      <trkpt lat="42.06818" lon="22.11157">
        <ele>566.466516</ele>
        <time>2022-02-23T18:10:05.482Z</time>
      </trkpt>
      <trkpt lat="42.06792" lon="22.11138">
        <ele>566.638691</ele>
        <time>2022-02-23T18:10:11.905Z</time>
      </trkpt>
      <trkpt lat="42.06757" lon="22.11139">
        <ele>566.842567</ele>
        <time>2022-02-23T18:10:20.379Z</time>
      </trkpt>
      <trkpt lat="42.06731" lon="22.11146">
        <ele>566.998557</ele>
        <time>2022-02-23T18:10:28.098Z</time>
      </trkpt>
      <trkpt lat="42.0671" lon="22.11141">
        <ele>567.125873</ele>
        <time>2022-02-23T18:10:35.185Z</time>
      </trkpt>
      <trkpt lat="42.06696" lon="22.11123">
        <ele>567.237766</ele>
        <time>2022-02-23T18:10:42.099Z</time>
      </trkpt>
      <trkpt lat="42.06685" lon="22.11093">
        <ele>567.381749</ele>
        <time>2022-02-23T18:10:51.877Z</time>
      </trkpt>
      <trkpt lat="42.06684" lon="22.11059">
        <ele>568.070932</ele>
        <time>2022-02-23T18:11:02.745Z</time>
      </trkpt>
      <trkpt lat="42.06693" lon="22.11028">
        <ele>569.202009</ele>
        <time>2022-02-23T18:11:14.710Z</time>
      </trkpt>
      <trkpt lat="42.06739" lon="22.10934">
        <ele>572.911852</ele>
        <time>2022-02-23T18:11:57.638Z</time>
      </trkpt>
      <trkpt lat="42.06742" lon="22.10919">
        <ele>573.43121</ele>
        <time>2022-02-23T18:12:03.982Z</time>
      </trkpt>
      <trkpt lat="42.06737" lon="22.10857">
        <ele>575.466663</ele>
        <time>2022-02-23T18:12:27.509Z</time>
      </trkpt>
      <trkpt lat="42.0674" lon="22.10815">
        <ele>575.664333</ele>
        <time>2022-02-23T18:12:42.058Z</time>
      </trkpt>
      <trkpt lat="42.06765" lon="22.10722">
        <ele>576.132085</ele>
        <time>2022-02-23T18:13:08.941Z</time>
      </trkpt>
      <trkpt lat="42.06767" lon="22.10653">
        <ele>576.459011</ele>
        <time>2022-02-23T18:13:20.076Z</time>
      </trkpt>
      <trkpt lat="42.06785" lon="22.10601">
        <ele>575.640826</ele>
        <time>2022-02-23T18:13:28.203Z</time>
      </trkpt>
      <trkpt lat="42.06784" lon="22.10587">
        <ele>575.126254</ele>
        <time>2022-02-23T18:13:30.175Z</time>
      </trkpt>
      <trkpt lat="42.06775" lon="22.1057">
        <ele>574.396907</ele>
        <time>2022-02-23T18:13:32.911Z</time>
      </trkpt>
      <trkpt lat="42.06764" lon="22.10562">
        <ele>573.757504</ele>
        <time>2022-02-23T18:13:35.305Z</time>
      </trkpt>
      <trkpt lat="42.0672" lon="22.10535">
        <ele>571.385916</ele>
        <time>2022-02-23T18:13:44.006Z</time>
      </trkpt>
      <trkpt lat="42.06701" lon="22.10525">
        <ele>570.37435</ele>
        <time>2022-02-23T18:13:47.634Z</time>
      </trkpt>
      <trkpt lat="42.06688" lon="22.10512">
        <ele>569.560375</ele>
        <time>2022-02-23T18:13:50.575Z</time>
      </trkpt>
      <trkpt lat="42.06639" lon="22.10428">
        <ele>566.176374</ele>
        <time>2022-02-23T18:14:04.384Z</time>
      </trkpt>
      <trkpt lat="42.06614" lon="22.10396">
        <ele>564.871281</ele>
        <time>2022-02-23T18:14:10.613Z</time>
      </trkpt>
      <trkpt lat="42.06577" lon="22.10369">
        <ele>563.287811</ele>
        <time>2022-02-23T18:14:18.716Z</time>
      </trkpt>
      <trkpt lat="42.0651" lon="22.10338">
        <ele>560.97081</ele>
        <time>2022-02-23T18:14:33.657Z</time>
      </trkpt>
      <trkpt lat="42.06495" lon="22.10325">
        <ele>560.974187</ele>
        <time>2022-02-23T18:14:37.846Z</time>
      </trkpt>
      <trkpt lat="42.06484" lon="22.10307">
        <ele>560.97731</ele>
        <time>2022-02-23T18:14:41.682Z</time>
      </trkpt>
      <trkpt lat="42.06478" lon="22.10282">
        <ele>560.980949</ele>
        <time>2022-02-23T18:14:46.645Z</time>
      </trkpt>
      <trkpt lat="42.06474" lon="22.10209">
        <ele>560.990871</ele>
        <time>2022-02-23T18:15:03.578Z</time>
      </trkpt>
      <trkpt lat="42.06468" lon="22.10194">
        <ele>560.993159</ele>
        <time>2022-02-23T18:15:08.382Z</time>
      </trkpt>
      <trkpt lat="42.06424" lon="22.10167">
        <ele>560.997576</ele>
        <time>2022-02-23T18:15:22.898Z</time>
      </trkpt>
      <trkpt lat="42.06412" lon="22.10153">
        <ele>560.744203</ele>
        <time>2022-02-23T18:15:27.547Z</time>
      </trkpt>
      <trkpt lat="42.06406" lon="22.10133">
        <ele>560.495411</ele>
        <time>2022-02-23T18:15:32.370Z</time>
      </trkpt>
      <trkpt lat="42.06398" lon="22.10091">
        <ele>559.984412</ele>
        <time>2022-02-23T18:15:41.050Z</time>
      </trkpt>
      <trkpt lat="42.06394" lon="22.1007">
        <ele>559.730614</ele>
        <time>2022-02-23T18:15:44.328Z</time>
      </trkpt>
      <trkpt lat="42.06382" lon="22.1002">
        <ele>559.115948</ele>
        <time>2022-02-23T18:15:52.880Z</time>
      </trkpt>
      <trkpt lat="42.06369" lon="22.09996">
        <ele>558.765338</ele>
        <time>2022-02-23T18:15:57.634Z</time>
      </trkpt>
      <trkpt lat="42.06311" lon="22.09931">
        <ele>555.992211</ele>
        <time>2022-02-23T18:16:12.051Z</time>
      </trkpt>
      <trkpt lat="42.06296" lon="22.09909">
        <ele>554.6989</ele>
        <time>2022-02-23T18:16:15.794Z</time>
      </trkpt>
      <trkpt lat="42.06287" lon="22.09885">
        <ele>553.541409</ele>
        <time>2022-02-23T18:16:19.184Z</time>
      </trkpt>
      <trkpt lat="42.06282" lon="22.0975">
        <ele>547.679817</ele>
        <time>2022-02-23T18:16:36.610Z</time>
      </trkpt>
      <trkpt lat="42.06281" lon="22.09744">
        <ele>547.395275</ele>
        <time>2022-02-23T18:16:37.422Z</time>
      </trkpt>
      <trkpt lat="42.06276" lon="22.09713">
        <ele>546.104546</ele>
        <time>2022-02-23T18:16:41.522Z</time>
      </trkpt>
      <trkpt lat="42.06266" lon="22.09688">
        <ele>544.935393</ele>
        <time>2022-02-23T18:16:45.156Z</time>
      </trkpt>
      <trkpt lat="42.06244" lon="22.09665">
        <ele>543.388404</ele>
        <time>2022-02-23T18:16:49.993Z</time>
      </trkpt>
      <trkpt lat="42.0617" lon="22.09616">
        <ele>538.821445</ele>
        <time>2022-02-23T18:17:04.560Z</time>
      </trkpt>
      <trkpt lat="42.06124" lon="22.09585">
        <ele>537.450136</ele>
        <time>2022-02-23T18:17:14.657Z</time>
      </trkpt>
      <trkpt lat="42.06092" lon="22.09588">
        <ele>537.265778</ele>
        <time>2022-02-23T18:17:21.272Z</time>
      </trkpt>
      <trkpt lat="42.0606" lon="22.09618">
        <ele>537.032746</ele>
        <time>2022-02-23T18:17:30.574Z</time>
      </trkpt>
      <trkpt lat="42.06035" lon="22.09615">
        <ele>536.883742</ele>
        <time>2022-02-23T18:17:37.480Z</time>
      </trkpt>
      <trkpt lat="42.06015" lon="22.0958">
        <ele>536.692995</ele>
        <time>2022-02-23T18:17:47.806Z</time>
      </trkpt>
      <trkpt lat="42.06004" lon="22.09525">
        <ele>537.450537</ele>
        <time>2022-02-23T18:18:04.419Z</time>
      </trkpt>
      <trkpt lat="42.06008" lon="22.09426">
        <ele>540.476736</ele>
        <time>2022-02-23T18:18:38.570Z</time>
      </trkpt>
      <trkpt lat="42.06005" lon="22.09405">
        <ele>541.141277</ele>
        <time>2022-02-23T18:18:46.876Z</time>
      </trkpt>
      <trkpt lat="42.05994" lon="22.09383">
        <ele>541.960241</ele>
        <time>2022-02-23T18:18:57.124Z</time>
      </trkpt>
      <trkpt lat="42.05966" lon="22.09362">
        <ele>543.260108</ele>
        <time>2022-02-23T18:19:13.987Z</time>
      </trkpt>
      <trkpt lat="42.058" lon="22.09304">
        <ele>550.11303</ele>
        <time>2022-02-23T18:20:37.295Z</time>
      </trkpt>
      <trkpt lat="42.05777" lon="22.09282">
        <ele>551.141926</ele>
        <time>2022-02-23T18:20:47.816Z</time>
      </trkpt>
      <trkpt lat="42.05778" lon="22.09261">
        <ele>551.181938</ele>
        <time>2022-02-23T18:20:53.190Z</time>
      </trkpt>
      <trkpt lat="42.05821" lon="22.09195">
        <ele>551.346534</ele>
        <time>2022-02-23T18:21:12.320Z</time>
      </trkpt>
      <trkpt lat="42.05827" lon="22.0917">
        <ele>551.397817</ele>
        <time>2022-02-23T18:21:17.432Z</time>
      </trkpt>
      <trkpt lat="42.05832" lon="22.09071">
        <ele>551.58582</ele>
        <time>2022-02-23T18:21:34.767Z</time>
      </trkpt>
      <trkpt lat="42.05841" lon="22.09052">
        <ele>551.52204</ele>
        <time>2022-02-23T18:21:38.408Z</time>
      </trkpt>
      <trkpt lat="42.05853" lon="22.09035">
        <ele>551.430121</ele>
        <time>2022-02-23T18:21:42.453Z</time>
      </trkpt>
      <trkpt lat="42.05907" lon="22.08998">
        <ele>551.115469</ele>
        <time>2022-02-23T18:21:56.525Z</time>
      </trkpt>
      <trkpt lat="42.0592" lon="22.08979">
        <ele>551.019593</ele>
        <time>2022-02-23T18:22:01.144Z</time>
      </trkpt>
      <trkpt lat="42.05934" lon="22.08923">
        <ele>550.789763</ele>
        <time>2022-02-23T18:22:12.741Z</time>
      </trkpt>
      <trkpt lat="42.05939" lon="22.08818">
        <ele>550.827842</ele>
        <time>2022-02-23T18:22:34.768Z</time>
      </trkpt>
      <trkpt lat="42.05939" lon="22.08773">
        <ele>550.933255</ele>
        <time>2022-02-23T18:22:44.476Z</time>
      </trkpt>
      <trkpt lat="42.05939" lon="22.08766">
        <ele>550.950477</ele>
        <time>2022-02-23T18:22:45.981Z</time>
      </trkpt>
      <trkpt lat="42.05938" lon="22.08747">
        <ele>550.993349</ele>
        <time>2022-02-23T18:22:49.979Z</time>
      </trkpt>
      <trkpt lat="42.05925" lon="22.08703">
        <ele>551.102997</ele>
        <time>2022-02-23T18:23:00.076Z</time>
      </trkpt>
      <trkpt lat="42.05842" lon="22.08557">
        <ele>551.497802</ele>
        <time>2022-02-23T18:23:37.772Z</time>
      </trkpt>
      <trkpt lat="42.05826" lon="22.0852">
        <ele>551.586876</ele>
        <time>2022-02-23T18:23:46.070Z</time>
      </trkpt>
      <trkpt lat="42.05777" lon="22.08353">
        <ele>552.050351</ele>
        <time>2022-02-23T18:24:25.700Z</time>
      </trkpt>
      <trkpt lat="42.05774" lon="22.08345">
        <ele>552.076565</ele>
        <time>2022-02-23T18:24:27.632Z</time>
      </trkpt>
      <trkpt lat="42.05755" lon="22.08279">
        <ele>552.279759</ele>
        <time>2022-02-23T18:24:43.227Z</time>
      </trkpt>
      <trkpt lat="42.05744" lon="22.08247">
        <ele>552.381843</ele>
        <time>2022-02-23T18:24:50.777Z</time>
      </trkpt>
      <trkpt lat="42.05739" lon="22.08236">
        <ele>552.419947</ele>
        <time>2022-02-23T18:24:53.681Z</time>
      </trkpt>
      <trkpt lat="42.05728" lon="22.08215">
        <ele>552.206216</ele>
        <time>2022-02-23T18:24:59.017Z</time>
      </trkpt>
      <trkpt lat="42.05597" lon="22.07995">
        <ele>548.456905</ele>
        <time>2022-02-23T18:25:44.846Z</time>
      </trkpt>
      <trkpt lat="42.05594" lon="22.07989">
        <ele>548.276563</ele>
        <time>2022-02-23T18:25:45.789Z</time>
      </trkpt>
      <trkpt lat="42.05585" lon="22.07974">
        <ele>547.771133</ele>
        <time>2022-02-23T18:25:48.484Z</time>
      </trkpt>
      <trkpt lat="42.0551" lon="22.07843">
        <ele>543.545592</ele>
        <time>2022-02-23T18:26:11.295Z</time>
      </trkpt>
      <trkpt lat="42.05493" lon="22.07827">
        <ele>543.052897</ele>
        <time>2022-02-23T18:26:15.054Z</time>
      </trkpt>
      <trkpt lat="42.05469" lon="22.07823">
        <ele>542.491789</ele>
        <time>2022-02-23T18:26:20.013Z</time>
      </trkpt>
      <trkpt lat="42.05459" lon="22.07829">
        <ele>542.220796</ele>
        <time>2022-02-23T18:26:21.997Z</time>
      </trkpt>
      <trkpt lat="42.05444" lon="22.07848">
        <ele>541.732566</ele>
        <time>2022-02-23T18:26:26.852Z</time>
      </trkpt>
      <trkpt lat="42.05408" lon="22.07872">
        <ele>540.774498</ele>
        <time>2022-02-23T18:26:35.399Z</time>
      </trkpt>
      <trkpt lat="42.05386" lon="22.07877">
        <ele>540.25785</ele>
        <time>2022-02-23T18:26:39.999Z</time>
      </trkpt>
      <trkpt lat="42.05379" lon="22.07868">
        <ele>540.022712</ele>
        <time>2022-02-23T18:26:42.865Z</time>
      </trkpt>
      <trkpt lat="42.05363" lon="22.07789">
        <ele>538.758953</ele>
        <time>2022-02-23T18:26:57.058Z</time>
      </trkpt>
      <trkpt lat="42.05351" lon="22.07762">
        <ele>538.323756</ele>
        <time>2022-02-23T18:27:03.442Z</time>
      </trkpt>
      <trkpt lat="42.05312" lon="22.07721">
        <ele>537.381366</ele>
        <time>2022-02-23T18:27:14.674Z</time>
      </trkpt>
      <trkpt lat="42.05306" lon="22.07696">
        <ele>537.015982</ele>
        <time>2022-02-23T18:27:18.680Z</time>
      </trkpt>
      <trkpt lat="42.05313" lon="22.07666">
        <ele>536.573372</ele>
        <time>2022-02-23T18:27:23.340Z</time>
      </trkpt>
      <trkpt lat="42.05347" lon="22.07598">
        <ele>534.075199</ele>
        <time>2022-02-23T18:27:34.856Z</time>
      </trkpt>
      <trkpt lat="42.05353" lon="22.07568">
        <ele>532.789672</ele>
        <time>2022-02-23T18:27:39.011Z</time>
      </trkpt>
      <trkpt lat="42.0537" lon="22.0734">
        <ele>522.515011</ele>
        <time>2022-02-23T18:28:08.589Z</time>
      </trkpt>
      <trkpt lat="42.05383" lon="22.07297">
        <ele>520.055131</ele>
        <time>2022-02-23T18:28:14.504Z</time>
      </trkpt>
      <trkpt lat="42.05404" lon="22.07262">
        <ele>517.661831</ele>
        <time>2022-02-23T18:28:20.269Z</time>
      </trkpt>
      <trkpt lat="42.05483" lon="22.07169">
        <ele>510.479231</ele>
        <time>2022-02-23T18:28:38.175Z</time>
      </trkpt>
      <trkpt lat="42.05526" lon="22.0711">
        <ele>506.454227</ele>
        <time>2022-02-23T18:28:48.747Z</time>
      </trkpt>
      <trkpt lat="42.05568" lon="22.0703">
        <ele>501.680973</ele>
        <time>2022-02-23T18:29:01.455Z</time>
      </trkpt>
      <trkpt lat="42.0559" lon="22.06965">
        <ele>498.971954</ele>
        <time>2022-02-23T18:29:10.846Z</time>
      </trkpt>
      <trkpt lat="42.05633" lon="22.06797">
        <ele>492.39708</ele>
        <time>2022-02-23T18:29:34.861Z</time>
      </trkpt>
      <trkpt lat="42.05633" lon="22.0676">
        <ele>491.589998</ele>
        <time>2022-02-23T18:29:40.080Z</time>
      </trkpt>
      <trkpt lat="42.05619" lon="22.06727">
        <ele>490.760847</ele>
        <time>2022-02-23T18:29:45.563Z</time>
      </trkpt>
      <trkpt lat="42.05596" lon="22.06707">
        <ele>489.956252</ele>
        <time>2022-02-23T18:29:50.993Z</time>
      </trkpt>
      <trkpt lat="42.05565" lon="22.06699">
        <ele>489.051169</ele>
        <time>2022-02-23T18:29:57.280Z</time>
      </trkpt>
      <trkpt lat="42.055" lon="22.06695">
        <ele>487.142557</ele>
        <time>2022-02-23T18:30:11.157Z</time>
      </trkpt>
      <trkpt lat="42.05465" lon="22.06667">
        <ele>486.003405</ele>
        <time>2022-02-23T18:30:19.757Z</time>
      </trkpt>
      <trkpt lat="42.05402" lon="22.06591">
        <ele>483.617227</ele>
        <time>2022-02-23T18:30:37.036Z</time>
      </trkpt>
      <trkpt lat="42.05377" lon="22.06569">
        <ele>482.787644</ele>
        <time>2022-02-23T18:30:42.773Z</time>
      </trkpt>
      <trkpt lat="42.05292" lon="22.06537">
        <ele>479.007243</ele>
        <time>2022-02-23T18:30:59.313Z</time>
      </trkpt>
      <trkpt lat="42.05155" lon="22.06528">
        <ele>473.009335</ele>
        <time>2022-02-23T18:31:23.733Z</time>
      </trkpt>
      <trkpt lat="42.05141" lon="22.06531">
        <ele>472.674118</ele>
        <time>2022-02-23T18:31:26.473Z</time>
      </trkpt>
      <trkpt lat="42.05085" lon="22.06565">
        <ele>471.283278</ele>
        <time>2022-02-23T18:31:38.343Z</time>
      </trkpt>
      <trkpt lat="42.05053" lon="22.06579">
        <ele>470.496288</ele>
        <time>2022-02-23T18:31:45.713Z</time>
      </trkpt>
      <trkpt lat="42.05029" lon="22.0657">
        <ele>469.935435</ele>
        <time>2022-02-23T18:31:51.461Z</time>
      </trkpt>
      <trkpt lat="42.04966" lon="22.0651">
        <ele>471.494538</ele>
        <time>2022-02-23T18:32:16.675Z</time>
      </trkpt>
      <trkpt lat="42.04894" lon="22.06483">
        <ele>474.423864</ele>
        <time>2022-02-23T18:32:51.997Z</time>
      </trkpt>
      <trkpt lat="42.04854" lon="22.0648">
        <ele>476.013227</ele>
        <time>2022-02-23T18:33:13.968Z</time>
      </trkpt>
      <trkpt lat="42.04801" lon="22.06497">
        <ele>479.168268</ele>
        <time>2022-02-23T18:33:48.595Z</time>
      </trkpt>
      <trkpt lat="42.04773" lon="22.06496">
        <ele>480.972962</ele>
        <time>2022-02-23T18:34:06.424Z</time>
      </trkpt>
      <trkpt lat="42.04712" lon="22.0648">
        <ele>484.86895</ele>
        <time>2022-02-23T18:34:42.911Z</time>
      </trkpt>
      <trkpt lat="42.04675" lon="22.06481">
        <ele>487.248888</ele>
        <time>2022-02-23T18:35:03.454Z</time>
      </trkpt>
      <trkpt lat="42.04664" lon="22.06476">
        <ele>487.891724</ele>
        <time>2022-02-23T18:35:09.482Z</time>
      </trkpt>
      <trkpt lat="42.04659" lon="22.06474">
        <ele>487.984284</ele>
        <time>2022-02-23T18:35:12.236Z</time>
      </trkpt>
      <trkpt lat="42.04645" lon="22.06454">
        <ele>488.333119</ele>
        <time>2022-02-23T18:35:21.887Z</time>
      </trkpt>
      <trkpt lat="42.04635" lon="22.0642">
        <ele>488.77933</ele>
        <time>2022-02-23T18:35:33.614Z</time>
      </trkpt>
      <trkpt lat="42.04607" lon="22.05975">
        <ele>490.986375</ele>
        <time>2022-02-23T18:37:06.229Z</time>
      </trkpt>
      <trkpt lat="42.04604" lon="22.05921">
        <ele>490.586349</ele>
        <time>2022-02-23T18:37:16.125Z</time>
      </trkpt>
      <trkpt lat="42.04601" lon="22.05873">
        <ele>490.236678</ele>
        <time>2022-02-23T18:37:24.389Z</time>
      </trkpt>
      <trkpt lat="42.04603" lon="22.05808">
        <ele>489.765848</ele>
        <time>2022-02-23T18:37:35.175Z</time>
      </trkpt>
      <trkpt lat="42.04604" lon="22.0573">
        <ele>488.744412</ele>
        <time>2022-02-23T18:37:47.488Z</time>
      </trkpt>
      <trkpt lat="42.046" lon="22.05514">
        <ele>484.677384</ele>
        <time>2022-02-23T18:38:19.473Z</time>
      </trkpt>
      <trkpt lat="42.04602" lon="22.05489">
        <ele>484.265717</ele>
        <time>2022-02-23T18:38:23.304Z</time>
      </trkpt>
      <trkpt lat="42.04606" lon="22.05453">
        <ele>483.675163</ele>
        <time>2022-02-23T18:38:28.939Z</time>
      </trkpt>
      <trkpt lat="42.0461" lon="22.05408">
        <ele>482.939668</ele>
        <time>2022-02-23T18:38:35.992Z</time>
      </trkpt>
      <trkpt lat="42.04612" lon="22.05395">
        <ele>482.725094</ele>
        <time>2022-02-23T18:38:38.100Z</time>
      </trkpt>
      <trkpt lat="42.04624" lon="22.05402">
        <ele>482.435605</ele>
        <time>2022-02-23T18:38:42.950Z</time>
      </trkpt>
      <trkpt lat="42.04679" lon="22.0544">
        <ele>481.095912</ele>
        <time>2022-02-23T18:39:05.806Z</time>
      </trkpt>
      <trkpt lat="42.04732" lon="22.05459">
        <ele>479.834486</ele>
        <time>2022-02-23T18:39:27.173Z</time>
      </trkpt>
      <trkpt lat="42.04747" lon="22.05461">
        <ele>479.476946</ele>
        <time>2022-02-23T18:39:33.358Z</time>
      </trkpt>
      <trkpt lat="42.04777" lon="22.05463">
        <ele>478.789571</ele>
        <time>2022-02-23T18:39:44.133Z</time>
      </trkpt>
      <trkpt lat="42.04881" lon="22.05463">
        <ele>476.392195</ele>
        <time>2022-02-23T18:40:21.968Z</time>
      </trkpt>
      <trkpt lat="42.04917" lon="22.05471">
        <ele>475.608595</ele>
        <time>2022-02-23T18:40:35.282Z</time>
      </trkpt>
      <trkpt lat="42.04946" lon="22.05484">
        <ele>474.961826</ele>
        <time>2022-02-23T18:40:46.559Z</time>
      </trkpt>
      <trkpt lat="42.04969" lon="22.05499">
        <ele>474.403954</ele>
        <time>2022-02-23T18:40:56.398Z</time>
      </trkpt>
      <trkpt lat="42.04998" lon="22.05514">
        <ele>473.747507</ele>
        <time>2022-02-23T18:41:08.051Z</time>
      </trkpt>
      <trkpt lat="42.05067" lon="22.0552">
        <ele>472.577487</ele>
        <time>2022-02-23T18:41:34.795Z</time>
      </trkpt>
      <trkpt lat="42.05195" lon="22.05505">
        <ele>471.160868</ele>
        <time>2022-02-23T18:42:26.966Z</time>
      </trkpt>
      <trkpt lat="42.0526" lon="22.05488">
        <ele>470.533891</ele>
        <time>2022-02-23T18:42:54.488Z</time>
      </trkpt>
      <trkpt lat="42.05296" lon="22.05469">
        <ele>470.196838</ele>
        <time>2022-02-23T18:43:10.622Z</time>
      </trkpt>
      <trkpt lat="42.055" lon="22.05326">
        <ele>467.135237</ele>
        <time>2022-02-23T18:44:43.009Z</time>
      </trkpt>
      <trkpt lat="42.05606" lon="22.05283">
        <ele>464.147703</ele>
        <time>2022-02-23T18:45:22.660Z</time>
      </trkpt>
      <trkpt lat="42.05713" lon="22.05281">
        <ele>460.485599</ele>
        <time>2022-02-23T18:45:59.477Z</time>
      </trkpt>
      <trkpt lat="42.05744" lon="22.05274">
        <ele>459.514806</ele>
        <time>2022-02-23T18:46:10.631Z</time>
      </trkpt>
      <trkpt lat="42.05777" lon="22.0526">
        <ele>458.535084</ele>
        <time>2022-02-23T18:46:22.446Z</time>
      </trkpt>
      <trkpt lat="42.05926" lon="22.05171">
        <ele>453.976921</ele>
        <time>2022-02-23T18:47:22.233Z</time>
      </trkpt>
      <trkpt lat="42.05968" lon="22.05136">
        <ele>452.760634</ele>
        <time>2022-02-23T18:47:40.719Z</time>
      </trkpt>
      <trkpt lat="42.05983" lon="22.05122">
        <ele>452.314845</ele>
        <time>2022-02-23T18:47:47.552Z</time>
      </trkpt>
      <trkpt lat="42.05993" lon="22.05112">
        <ele>452.022055</ele>
        <time>2022-02-23T18:47:51.929Z</time>
      </trkpt>
      <trkpt lat="42.06022" lon="22.05069">
        <ele>450.958381</ele>
        <time>2022-02-23T18:48:07.998Z</time>
      </trkpt>
      <trkpt lat="42.06056" lon="22.04979">
        <ele>448.607222</ele>
        <time>2022-02-23T18:48:35.201Z</time>
      </trkpt>
      <trkpt lat="42.06067" lon="22.04963">
        <ele>448.083831</ele>
        <time>2022-02-23T18:48:40.477Z</time>
      </trkpt>
      <trkpt lat="42.0608" lon="22.04954">
        <ele>447.578254</ele>
        <time>2022-02-23T18:48:45.853Z</time>
      </trkpt>
      <trkpt lat="42.06122" lon="22.0495">
        <ele>446.187794</ele>
        <time>2022-02-23T18:49:00.411Z</time>
      </trkpt>
      <trkpt lat="42.06161" lon="22.04911">
        <ele>444.577377</ele>
        <time>2022-02-23T18:49:17.194Z</time>
      </trkpt>
      <trkpt lat="42.0618" lon="22.04897">
        <ele>443.961814</ele>
        <time>2022-02-23T18:49:25.030Z</time>
      </trkpt>
      <trkpt lat="42.06192" lon="22.04896">
        <ele>443.624055</ele>
        <time>2022-02-23T18:49:28.944Z</time>
      </trkpt>
      <trkpt lat="42.06245" lon="22.049">
        <ele>442.0921</ele>
        <time>2022-02-23T18:49:48.170Z</time>
      </trkpt>
      <trkpt lat="42.06274" lon="22.04895">
        <ele>441.276058</ele>
        <time>2022-02-23T18:49:58.347Z</time>
      </trkpt>
      <trkpt lat="42.06318" lon="22.04871">
        <ele>439.908035</ele>
        <time>2022-02-23T18:50:15.981Z</time>
      </trkpt>
      <trkpt lat="42.06358" lon="22.04826">
        <ele>438.967769</ele>
        <time>2022-02-23T18:50:35.576Z</time>
      </trkpt>
      <trkpt lat="42.06426" lon="22.04715">
        <ele>437.463008</ele>
        <time>2022-02-23T18:51:18.570Z</time>
      </trkpt>
      <trkpt lat="42.06455" lon="22.04657">
        <ele>436.556268</ele>
        <time>2022-02-23T18:51:39.549Z</time>
      </trkpt>
      <trkpt lat="42.06476" lon="22.04633">
        <ele>435.890101</ele>
        <time>2022-02-23T18:51:50.201Z</time>
      </trkpt>
      <trkpt lat="42.06587" lon="22.04552">
        <ele>432.783857</ele>
        <time>2022-02-23T18:52:36.243Z</time>
      </trkpt>
      <trkpt lat="42.06647" lon="22.04519">
        <ele>430.451473</ele>
        <time>2022-02-23T18:52:58.738Z</time>
      </trkpt>
      <trkpt lat="42.06658" lon="22.04513">
        <ele>430.007849</ele>
        <time>2022-02-23T18:53:02.895Z</time>
      </trkpt>
      <trkpt lat="42.06662" lon="22.04516">
        <ele>429.828878</ele>
        <time>2022-02-23T18:53:03.711Z</time>
      </trkpt>
      <trkpt lat="42.06693" lon="22.04538">
        <ele>428.510479</ele>
        <time>2022-02-23T18:53:10.457Z</time>
      </trkpt>
      <trkpt lat="42.0673" lon="22.04604">
        <ele>426.168749</ele>
        <time>2022-02-23T18:53:22.579Z</time>
      </trkpt>
      <trkpt lat="42.06784" lon="22.04659">
        <ele>424.759042</ele>
        <time>2022-02-23T18:53:36.352Z</time>
      </trkpt>
      <trkpt lat="42.06787" lon="22.04663">
        <ele>424.685719</ele>
        <time>2022-02-23T18:53:37.167Z</time>
      </trkpt>
      <trkpt lat="42.06793" lon="22.04663">
        <ele>424.59407</ele>
        <time>2022-02-23T18:53:38.178Z</time>
      </trkpt>
      <trkpt lat="42.06819" lon="22.04683">
        <ele>424.081645</ele>
        <time>2022-02-23T18:53:45.630Z</time>
      </trkpt>
      <trkpt lat="42.0686" lon="22.04686">
        <ele>423.382686</ele>
        <time>2022-02-23T18:53:55.123Z</time>
      </trkpt>
      <trkpt lat="42.06887" lon="22.04662">
        <ele>422.833772</ele>
        <time>2022-02-23T18:54:04.352Z</time>
      </trkpt>
      <trkpt lat="42.06892" lon="22.04661">
        <ele>422.751645</ele>
        <time>2022-02-23T18:54:05.292Z</time>
      </trkpt>
      <trkpt lat="42.06893" lon="22.04656">
        <ele>422.687716</ele>
        <time>2022-02-23T18:54:07.500Z</time>
      </trkpt>
      <trkpt lat="42.06898" lon="22.04639">
        <ele>422.76728</ele>
        <time>2022-02-23T18:54:11.851Z</time>
      </trkpt>
      <trkpt lat="42.069" lon="22.04591">
        <ele>423.147385</ele>
        <time>2022-02-23T18:54:23.451Z</time>
      </trkpt>
      <trkpt lat="42.06913" lon="22.04548">
        <ele>423.508833</ele>
        <time>2022-02-23T18:54:35.901Z</time>
      </trkpt>
      <trkpt lat="42.06912" lon="22.04531">
        <ele>423.643627</ele>
        <time>2022-02-23T18:54:39.250Z</time>
      </trkpt>
      <trkpt lat="42.06906" lon="22.04485">
        <ele>424.004789</ele>
        <time>2022-02-23T18:54:51.235Z</time>
      </trkpt>
      <trkpt lat="42.06882" lon="22.04446">
        <ele>424.40565</ele>
        <time>2022-02-23T18:55:04.630Z</time>
      </trkpt>
      <trkpt lat="42.06877" lon="22.04428">
        <ele>424.547723</ele>
        <time>2022-02-23T18:55:09.687Z</time>
      </trkpt>
      <trkpt lat="42.06877" lon="22.04421">
        <ele>424.549623</ele>
        <time>2022-02-23T18:55:12.465Z</time>
      </trkpt>
      <trkpt lat="42.06887" lon="22.04425">
        <ele>424.553464</ele>
        <time>2022-02-23T18:55:16.847Z</time>
      </trkpt>
      <trkpt lat="42.06918" lon="22.04431">
        <ele>424.565219</ele>
        <time>2022-02-23T18:55:33.073Z</time>
      </trkpt>
      <trkpt lat="42.06924" lon="22.04431">
        <ele>424.567448</ele>
        <time>2022-02-23T18:55:35.424Z</time>
      </trkpt>
      <trkpt lat="42.06931" lon="22.0443">
        <ele>424.569827</ele>
        <time>2022-02-23T18:55:38.477Z</time>
      </trkpt>
      <trkpt lat="42.06942" lon="22.04425">
        <ele>424.574255</ele>
        <time>2022-02-23T18:55:44.279Z</time>
      </trkpt>
      <trkpt lat="42.06984" lon="22.04396">
        <ele>424.591503</ele>
        <time>2022-02-23T18:56:05.955Z</time>
      </trkpt>
      <trkpt lat="42.06999" lon="22.0439">
        <ele>424.597272</ele>
        <time>2022-02-23T18:56:12.026Z</time>
      </trkpt>
      <trkpt lat="42.0707" lon="22.04376">
        <ele>423.998285</ele>
        <time>2022-02-23T18:56:40.393Z</time>
      </trkpt>
      <trkpt lat="42.07097" lon="22.04373">
        <ele>423.372576</ele>
        <time>2022-02-23T18:56:51.245Z</time>
      </trkpt>
      <trkpt lat="42.0713" lon="22.0438">
        <ele>422.628297</ele>
        <time>2022-02-23T18:57:03.802Z</time>
      </trkpt>
      <trkpt lat="42.07169" lon="22.04385">
        <ele>421.746123</ele>
        <time>2022-02-23T18:57:18.020Z</time>
      </trkpt>
      <trkpt lat="42.07253" lon="22.04328">
        <ele>419.519872</ele>
        <time>2022-02-23T18:57:51.302Z</time>
      </trkpt>
      <trkpt lat="42.07293" lon="22.04313">
        <ele>418.477413</ele>
        <time>2022-02-23T18:58:06.088Z</time>
      </trkpt>
      <trkpt lat="42.07308" lon="22.04302">
        <ele>418.039202</ele>
        <time>2022-02-23T18:58:12.343Z</time>
      </trkpt>
      <trkpt lat="42.07323" lon="22.04287">
        <ele>417.555779</ele>
        <time>2022-02-23T18:58:19.382Z</time>
      </trkpt>
      <trkpt lat="42.07347" lon="22.04245">
        <ele>416.576886</ele>
        <time>2022-02-23T18:58:33.652Z</time>
      </trkpt>
      <trkpt lat="42.07587" lon="22.03767">
        <ele>411.262721</ele>
        <time>2022-02-23T19:01:25.539Z</time>
      </trkpt>
      <trkpt lat="42.07645" lon="22.03639">
        <ele>410.107449</ele>
        <time>2022-02-23T19:02:10.827Z</time>
      </trkpt>
      <trkpt lat="42.0766" lon="22.03561">
        <ele>409.348869</ele>
        <time>2022-02-23T19:02:34.561Z</time>
      </trkpt>
      <trkpt lat="42.07713" lon="22.03133">
        <ele>404.845999</ele>
        <time>2022-02-23T19:04:40.341Z</time>
      </trkpt>
      <trkpt lat="42.07721" lon="22.02918">
        <ele>404.227884</ele>
        <time>2022-02-23T19:05:48.381Z</time>
      </trkpt>
      <trkpt lat="42.07768" lon="22.02739">
        <ele>404.954628</ele>
        <time>2022-02-23T19:06:54.836Z</time>
      </trkpt>
      <trkpt lat="42.07777" lon="22.02607">
        <ele>405.616418</ele>
        <time>2022-02-23T19:07:43.560Z</time>
      </trkpt>
      <trkpt lat="42.07773" lon="22.0242">
        <ele>406.573635</ele>
        <time>2022-02-23T19:08:50.212Z</time>
      </trkpt>
      <trkpt lat="42.07783" lon="22.02377">
        <ele>406.414526</ele>
        <time>2022-02-23T19:09:05.069Z</time>
      </trkpt>
      <trkpt lat="42.07784" lon="22.02352">
        <ele>406.317527</ele>
        <time>2022-02-23T19:09:12.960Z</time>
      </trkpt>
      <trkpt lat="42.07758" lon="22.02231">
        <ele>405.818672</ele>
        <time>2022-02-23T19:09:52.071Z</time>
      </trkpt>
      <trkpt lat="42.07737" lon="22.0219">
        <ele>405.624166</ele>
        <time>2022-02-23T19:10:06.946Z</time>
      </trkpt>
      <trkpt lat="42.0771" lon="22.02151">
        <ele>405.44351</ele>
        <time>2022-02-23T19:10:22.797Z</time>
      </trkpt>
      <trkpt lat="42.07679" lon="22.02129">
        <ele>405.281845</ele>
        <time>2022-02-23T19:10:37.266Z</time>
      </trkpt>
      <trkpt lat="42.07654" lon="22.02129">
        <ele>405.166113</ele>
        <time>2022-02-23T19:10:47.805Z</time>
      </trkpt>
      <trkpt lat="42.07618" lon="22.02159">
        <ele>404.97192</ele>
        <time>2022-02-23T19:11:05.959Z</time>
      </trkpt>
      <trkpt lat="42.07594" lon="22.02171">
        <ele>404.849552</ele>
        <time>2022-02-23T19:11:17.737Z</time>
      </trkpt>
      <trkpt lat="42.07575" lon="22.02174">
        <ele>404.886544</ele>
        <time>2022-02-23T19:11:26.196Z</time>
      </trkpt>
      <trkpt lat="42.07446" lon="22.02118">
        <ele>406.226323</ele>
        <time>2022-02-23T19:12:29.186Z</time>
      </trkpt>
      <trkpt lat="42.07443" lon="22.02111">
        <ele>406.284817</ele>
        <time>2022-02-23T19:12:33.218Z</time>
      </trkpt>
      <trkpt lat="42.07445" lon="22.02097">
        <ele>406.389948</ele>
        <time>2022-02-23T19:12:38.596Z</time>
      </trkpt>
      <trkpt lat="42.07481" lon="22.0209">
        <ele>407.106788</ele>
        <time>2022-02-23T19:12:59.543Z</time>
      </trkpt>
      <trkpt lat="42.07509" lon="22.02073">
        <ele>408.066662</ele>
        <time>2022-02-23T19:13:18.372Z</time>
      </trkpt>
      <trkpt lat="42.0753" lon="22.02045">
        <ele>408.996673</ele>
        <time>2022-02-23T19:13:36.821Z</time>
      </trkpt>
      <trkpt lat="42.07537" lon="22.02018">
        <ele>409.65284</ele>
        <time>2022-02-23T19:13:48.926Z</time>
      </trkpt>
      <trkpt lat="42.07537" lon="22.02015">
        <ele>409.735008</ele>
        <time>2022-02-23T19:13:50.792Z</time>
      </trkpt>
      <trkpt lat="42.07538" lon="22.01994">
        <ele>410.216604</ele>
        <time>2022-02-23T19:14:02.365Z</time>
      </trkpt>
      <trkpt lat="42.07536" lon="22.01951">
        <ele>411.247968</ele>
        <time>2022-02-23T19:14:22.808Z</time>
      </trkpt>
      <trkpt lat="42.07529" lon="22.01933">
        <ele>411.715127</ele>
        <time>2022-02-23T19:14:30.450Z</time>
      </trkpt>
      <trkpt lat="42.07517" lon="22.01915">
        <ele>412.25321</ele>
        <time>2022-02-23T19:14:40.660Z</time>
      </trkpt>
      <trkpt lat="42.0749" lon="22.01895">
        <ele>412.04488</ele>
        <time>2022-02-23T19:14:57.587Z</time>
      </trkpt>
      <trkpt lat="42.07478" lon="22.0188">
        <ele>411.932326</ele>
        <time>2022-02-23T19:15:05.429Z</time>
      </trkpt>
      <trkpt lat="42.07472" lon="22.01862">
        <ele>411.837202</ele>
        <time>2022-02-23T19:15:11.536Z</time>
      </trkpt>
      <trkpt lat="42.07472" lon="22.01855">
        <ele>411.800519</ele>
        <time>2022-02-23T19:15:16.792Z</time>
      </trkpt>
      <trkpt lat="42.07478" lon="22.01852">
        <ele>411.75496</ele>
        <time>2022-02-23T19:15:19.216Z</time>
      </trkpt>
      <trkpt lat="42.07518" lon="22.01851">
        <ele>411.489324</ele>
        <time>2022-02-23T19:15:35.956Z</time>
      </trkpt>
      <trkpt lat="42.07541" lon="22.01846">
        <ele>411.337792</ele>
        <time>2022-02-23T19:15:45.297Z</time>
      </trkpt>
      <trkpt lat="42.07551" lon="22.01849">
        <ele>411.264297</ele>
        <time>2022-02-23T19:15:48.872Z</time>
      </trkpt>
      <trkpt lat="42.07606" lon="22.01879">
        <ele>409.531057</ele>
        <time>2022-02-23T19:16:09.370Z</time>
      </trkpt>
      <trkpt lat="42.07631" lon="22.01881">
        <ele>408.180772</ele>
        <time>2022-02-23T19:16:17.295Z</time>
      </trkpt>
      <trkpt lat="42.07676" lon="22.01862">
        <ele>405.636623</ele>
        <time>2022-02-23T19:16:32.105Z</time>
      </trkpt>
      <trkpt lat="42.07735" lon="22.01821">
        <ele>401.97267</ele>
        <time>2022-02-23T19:16:53.693Z</time>
      </trkpt>
      <trkpt lat="42.07806" lon="22.018">
        <ele>397.803831</ele>
        <time>2022-02-23T19:17:16.785Z</time>
      </trkpt>
      <trkpt lat="42.07854" lon="22.01777">
        <ele>394.858021</ele>
        <time>2022-02-23T19:17:32.915Z</time>
      </trkpt>
      <trkpt lat="42.07893" lon="22.01746">
        <ele>392.188063</ele>
        <time>2022-02-23T19:17:47.564Z</time>
      </trkpt>
      <trkpt lat="42.08027" lon="22.01569">
        <ele>383.378285</ele>
        <time>2022-02-23T19:18:49.610Z</time>
      </trkpt>
      <trkpt lat="42.08041" lon="22.0153">
        <ele>382.340074</ele>
        <time>2022-02-23T19:19:01.049Z</time>
      </trkpt>
      <trkpt lat="42.08078" lon="22.01314">
        <ele>379.469252</ele>
        <time>2022-02-23T19:20:04.475Z</time>
      </trkpt>
      <trkpt lat="42.0809" lon="22.01295">
        <ele>379.892169</ele>
        <time>2022-02-23T19:20:13.150Z</time>
      </trkpt>
      <trkpt lat="42.0811" lon="22.01286">
        <ele>380.379634</ele>
        <time>2022-02-23T19:20:23.127Z</time>
      </trkpt>
      <trkpt lat="42.08125" lon="22.01269">
        <ele>380.827082</ele>
        <time>2022-02-23T19:20:32.891Z</time>
      </trkpt>
      <trkpt lat="42.08135" lon="22.01235">
        <ele>381.452748</ele>
        <time>2022-02-23T19:20:47.405Z</time>
      </trkpt>
      <trkpt lat="42.08135" lon="22.01213">
        <ele>381.841113</ele>
        <time>2022-02-23T19:20:56.981Z</time>
      </trkpt>
      <trkpt lat="42.08123" lon="22.01096">
        <ele>384.091777</ele>
        <time>2022-02-23T19:21:52.592Z</time>
      </trkpt>
      <trkpt lat="42.08097" lon="22.00977">
        <ele>388.133249</ele>
        <time>2022-02-23T19:22:56.726Z</time>
      </trkpt>
      <trkpt lat="42.08054" lon="22.00851">
        <ele>391.714987</ele>
        <time>2022-02-23T19:24:04.051Z</time>
      </trkpt>
      <trkpt lat="42.08031" lon="22.00685">
        <ele>392.400105</ele>
        <time>2022-02-23T19:25:02.726Z</time>
      </trkpt>
      <trkpt lat="42.08037" lon="22.00632">
        <ele>392.269369</ele>
        <time>2022-02-23T19:25:17.462Z</time>
      </trkpt>
      <trkpt lat="42.08091" lon="22.00532">
        <ele>389.694939</ele>
        <time>2022-02-23T19:25:49.797Z</time>
      </trkpt>
      <trkpt lat="42.08109" lon="22.00508">
        <ele>388.983125</ele>
        <time>2022-02-23T19:25:58.684Z</time>
      </trkpt>
      <trkpt lat="42.08145" lon="22.00474">
        <ele>387.760528</ele>
        <time>2022-02-23T19:26:14.211Z</time>
      </trkpt>
      <trkpt lat="42.08203" lon="22.00436">
        <ele>387.066237</ele>
        <time>2022-02-23T19:26:38.533Z</time>
      </trkpt>
      <trkpt lat="42.0825" lon="22.00395">
        <ele>386.615143</ele>
        <time>2022-02-23T19:27:01.071Z</time>
      </trkpt>
      <trkpt lat="42.08278" lon="22.00371">
        <ele>386.34152</ele>
        <time>2022-02-23T19:27:16.194Z</time>
      </trkpt>
      <trkpt lat="42.08292" lon="22.00351">
        <ele>386.175843</ele>
        <time>2022-02-23T19:27:25.976Z</time>
      </trkpt>
      <trkpt lat="42.08338" lon="22.00227">
        <ele>386.796435</ele>
        <time>2022-02-23T19:28:18.575Z</time>
      </trkpt>
      <trkpt lat="42.08345" lon="22.00201">
        <ele>386.966944</ele>
        <time>2022-02-23T19:28:28.877Z</time>
      </trkpt>
      <trkpt lat="42.08351" lon="22.00145">
        <ele>387.311402</ele>
        <time>2022-02-23T19:28:48.591Z</time>
      </trkpt>
      <trkpt lat="42.08357" lon="22.00132">
        <ele>387.398727</ele>
        <time>2022-02-23T19:28:53.340Z</time>
      </trkpt>
      <trkpt lat="42.0839" lon="22.00094">
        <ele>387.448393</ele>
        <time>2022-02-23T19:29:13.429Z</time>
      </trkpt>
      <trkpt lat="42.08468" lon="21.99958">
        <ele>387.004475</ele>
        <time>2022-02-23T19:30:07.697Z</time>
      </trkpt>
      <trkpt lat="42.08492" lon="21.99888">
        <ele>386.907705</ele>
        <time>2022-02-23T19:30:30.920Z</time>
      </trkpt>
      <trkpt lat="42.08538" lon="21.9988">
        <ele>386.899761</ele>
        <time>2022-02-23T19:30:50.407Z</time>
      </trkpt>
      <trkpt lat="42.08562" lon="21.99846">
        <ele>386.893813</ele>
        <time>2022-02-23T19:31:06.050Z</time>
      </trkpt>
      <trkpt lat="42.08575" lon="21.99799">
        <ele>386.887355</ele>
        <time>2022-02-23T19:31:24.020Z</time>
      </trkpt>
      <trkpt lat="42.08582" lon="21.99729">
        <ele>386.997063</ele>
        <time>2022-02-23T19:31:49.013Z</time>
      </trkpt>
      <trkpt lat="42.08605" lon="21.99662">
        <ele>387.280879</ele>
        <time>2022-02-23T19:32:14.779Z</time>
      </trkpt>
      <trkpt lat="42.08632" lon="21.99604">
        <ele>387.545743</ele>
        <time>2022-02-23T19:32:39.043Z</time>
      </trkpt>
      <trkpt lat="42.08687" lon="21.99538">
        <ele>387.7275</ele>
        <time>2022-02-23T19:33:13.348Z</time>
      </trkpt>
      <trkpt lat="42.08718" lon="21.99492">
        <ele>387.532797</ele>
        <time>2022-02-23T19:33:33.549Z</time>
      </trkpt>
      <trkpt lat="42.08767" lon="21.99385">
        <ele>387.134526</ele>
        <time>2022-02-23T19:34:12.569Z</time>
      </trkpt>
      <trkpt lat="42.08789" lon="21.99348">
        <ele>386.876303</ele>
        <time>2022-02-23T19:34:26.835Z</time>
      </trkpt>
      <trkpt lat="42.08896" lon="21.99212">
        <ele>385.283117</ele>
        <time>2022-02-23T19:35:26.719Z</time>
      </trkpt>
      <trkpt lat="42.08987" lon="21.99077">
        <ele>381.643459</ele>
        <time>2022-02-23T19:36:17.883Z</time>
      </trkpt>
      <trkpt lat="42.09031" lon="21.99002">
        <ele>379.23715</ele>
        <time>2022-02-23T19:36:41.890Z</time>
      </trkpt>
      <trkpt lat="42.09061" lon="21.98972">
        <ele>376.791467</ele>
        <time>2022-02-23T19:36:53.944Z</time>
      </trkpt>
      <trkpt lat="42.09123" lon="21.98938">
        <ele>372.506865</ele>
        <time>2022-02-23T19:37:14.809Z</time>
      </trkpt>
      <trkpt lat="42.09156" lon="21.98914">
        <ele>370.077961</ele>
        <time>2022-02-23T19:37:26.575Z</time>
      </trkpt>
      <trkpt lat="42.09173" lon="21.98903">
        <ele>368.88913</ele>
        <time>2022-02-23T19:37:32.236Z</time>
      </trkpt>
      <trkpt lat="42.09203" lon="21.98896">
        <ele>367.28689</ele>
        <time>2022-02-23T19:37:41.793Z</time>
      </trkpt>
      <trkpt lat="42.09262" lon="21.98901">
        <ele>364.457691</ele>
        <time>2022-02-23T19:38:00.501Z</time>
      </trkpt>
      <trkpt lat="42.09279" lon="21.98894">
        <ele>363.614936</ele>
        <time>2022-02-23T19:38:06.026Z</time>
      </trkpt>
      <trkpt lat="42.09304" lon="21.98864">
        <ele>362.018448</ele>
        <time>2022-02-23T19:38:17.294Z</time>
      </trkpt>
      <trkpt lat="42.09321" lon="21.9883">
        <ele>360.561965</ele>
        <time>2022-02-23T19:38:28.567Z</time>
      </trkpt>
      <trkpt lat="42.09375" lon="21.98779">
        <ele>360.030119</ele>
        <time>2022-02-23T19:38:54.740Z</time>
      </trkpt>
      <trkpt lat="42.09382" lon="21.98764">
        <ele>360.119445</ele>
        <time>2022-02-23T19:39:00.237Z</time>
      </trkpt>
      <trkpt lat="42.09382" lon="21.98755">
        <ele>360.160319</ele>
        <time>2022-02-23T19:39:02.811Z</time>
      </trkpt>
      <trkpt lat="42.09379" lon="21.98751">
        <ele>360.188018</ele>
        <time>2022-02-23T19:39:05.260Z</time>
      </trkpt>
      <trkpt lat="42.09318" lon="21.98723">
        <ele>360.619006</ele>
        <time>2022-02-23T19:39:36.090Z</time>
      </trkpt>
      <trkpt lat="42.09278" lon="21.98687">
        <ele>361.110072</ele>
        <time>2022-02-23T19:40:03.676Z</time>
      </trkpt>
      <trkpt lat="42.09189" lon="21.98634">
        <ele>365.926726</ele>
        <time>2022-02-23T19:41:06.841Z</time>
      </trkpt>
      <trkpt lat="42.09172" lon="21.98617">
        <ele>366.963149</ele>
        <time>2022-02-23T19:41:21.742Z</time>
      </trkpt>
      <trkpt lat="42.09151" lon="21.98578">
        <ele>368.725554</ele>
        <time>2022-02-23T19:41:48.242Z</time>
      </trkpt>
      <trkpt lat="42.09147" lon="21.98542">
        <ele>370.268964</ele>
        <time>2022-02-23T19:42:09.702Z</time>
      </trkpt>
      <trkpt lat="42.09157" lon="21.98471">
        <ele>374.506471</ele>
        <time>2022-02-23T19:42:52.489Z</time>
      </trkpt>
      <trkpt lat="42.09138" lon="21.98409">
        <ele>378.499586</ele>
        <time>2022-02-23T19:43:34.608Z</time>
      </trkpt>
      <trkpt lat="42.09077" lon="21.98257">
        <ele>388.864591</ele>
        <time>2022-02-23T19:45:24.994Z</time>
      </trkpt>
      <trkpt lat="42.09074" lon="21.98131">
        <ele>396.60988</ele>
        <time>2022-02-23T19:46:44.131Z</time>
      </trkpt>
      <trkpt lat="42.09063" lon="21.98092">
        <ele>399.111813</ele>
        <time>2022-02-23T19:47:09.121Z</time>
      </trkpt>
      <trkpt lat="42.09023" lon="21.97994">
        <ele>404.818254</ele>
        <time>2022-02-23T19:48:15.496Z</time>
      </trkpt>
      <trkpt lat="42.08994" lon="21.97893">
        <ele>410.317188</ele>
        <time>2022-02-23T19:49:16.829Z</time>
      </trkpt>
      <trkpt lat="42.08952" lon="21.97577">
        <ele>422.492297</ele>
        <time>2022-02-23T19:52:04.961Z</time>
      </trkpt>
      <trkpt lat="42.0895" lon="21.97451">
        <ele>425.480002</ele>
        <time>2022-02-23T19:53:00.693Z</time>
      </trkpt>
      <trkpt lat="42.08939" lon="21.97356">
        <ele>426.779906</ele>
        <time>2022-02-23T19:53:36.871Z</time>
      </trkpt>
      <trkpt lat="42.08893" lon="21.97216">
        <ele>426.549925</ele>
        <time>2022-02-23T19:54:25.319Z</time>
      </trkpt>
      <trkpt lat="42.08862" lon="21.97139">
        <ele>425.93949</ele>
        <time>2022-02-23T19:54:51.596Z</time>
      </trkpt>
      <trkpt lat="42.08857" lon="21.97132">
        <ele>425.806521</ele>
        <time>2022-02-23T19:54:54.040Z</time>
      </trkpt>
      <trkpt lat="42.08866" lon="21.97123">
        <ele>425.583222</ele>
        <time>2022-02-23T19:54:56.801Z</time>
      </trkpt>
      <trkpt lat="42.08911" lon="21.97077">
        <ele>424.502929</ele>
        <time>2022-02-23T19:55:08.669Z</time>
      </trkpt>
      <trkpt lat="42.08958" lon="21.97015">
        <ele>423.228846</ele>
        <time>2022-02-23T19:55:22.314Z</time>
      </trkpt>
      <trkpt lat="42.09063" lon="21.96897">
        <ele>419.188344</ele>
        <time>2022-02-23T19:55:49.338Z</time>
      </trkpt>
      <trkpt lat="42.09107" lon="21.96835">
        <ele>417.254671</ele>
        <time>2022-02-23T19:56:01.518Z</time>
      </trkpt>
      <trkpt lat="42.09146" lon="21.96797">
        <ele>415.627464</ele>
        <time>2022-02-23T19:56:11.187Z</time>
      </trkpt>
      <trkpt lat="42.09191" lon="21.96742">
        <ele>413.605629</ele>
        <time>2022-02-23T19:56:23.338Z</time>
      </trkpt>
      <trkpt lat="42.0923" lon="21.96672">
        <ele>411.396846</ele>
        <time>2022-02-23T19:56:35.664Z</time>
      </trkpt>
      <trkpt lat="42.09245" lon="21.96637">
        <ele>409.673761</ele>
        <time>2022-02-23T19:56:41.261Z</time>
      </trkpt>
      <trkpt lat="42.09254" lon="21.966">
        <ele>408.051541</ele>
        <time>2022-02-23T19:56:46.454Z</time>
      </trkpt>
      <trkpt lat="42.09258" lon="21.96584">
        <ele>407.339086</ele>
        <time>2022-02-23T19:56:48.826Z</time>
      </trkpt>
      <trkpt lat="42.09265" lon="21.96554">
        <ele>405.997376</ele>
        <time>2022-02-23T19:56:52.983Z</time>
      </trkpt>
      <trkpt lat="42.09292" lon="21.96388">
        <ele>398.156422</ele>
        <time>2022-02-23T19:57:14.727Z</time>
      </trkpt>
      <trkpt lat="42.09321" lon="21.96284">
        <ele>392.182079</ele>
        <time>2022-02-23T19:57:28.683Z</time>
      </trkpt>
      <trkpt lat="42.09353" lon="21.96231">
        <ele>388.487993</ele>
        <time>2022-02-23T19:57:37.419Z</time>
      </trkpt>
      <trkpt lat="42.09403" lon="21.96182">
        <ele>384.700484</ele>
        <time>2022-02-23T19:57:48.011Z</time>
      </trkpt>
      <trkpt lat="42.09415" lon="21.96159">
        <ele>383.40207</ele>
        <time>2022-02-23T19:57:51.851Z</time>
      </trkpt>
      <trkpt lat="42.0942" lon="21.96153">
        <ele>382.989562</ele>
        <time>2022-02-23T19:57:52.965Z</time>
      </trkpt>
      <trkpt lat="42.0943" lon="21.96149">
        <ele>382.363572</ele>
        <time>2022-02-23T19:57:54.770Z</time>
      </trkpt>
      <trkpt lat="42.09483" lon="21.96169">
        <ele>378.978426</ele>
        <time>2022-02-23T19:58:04.704Z</time>
      </trkpt>
      <trkpt lat="42.09533" lon="21.96178">
        <ele>376.022078</ele>
        <time>2022-02-23T19:58:13.586Z</time>
      </trkpt>
      <trkpt lat="42.09675" lon="21.96164">
        <ele>368.140924</ele>
        <time>2022-02-23T19:58:38.916Z</time>
      </trkpt>
      <trkpt lat="42.09735" lon="21.96133">
        <ele>364.96304</ele>
        <time>2022-02-23T19:58:50.362Z</time>
      </trkpt>
      <trkpt lat="42.09779" lon="21.96128">
        <ele>362.850376</ele>
        <time>2022-02-23T19:58:58.432Z</time>
      </trkpt>
      <trkpt lat="42.09869" lon="21.96089">
        <ele>358.301937</ele>
        <time>2022-02-23T19:59:16.309Z</time>
      </trkpt>
      <trkpt lat="42.09883" lon="21.96091">
        <ele>357.586078</ele>
        <time>2022-02-23T19:59:18.819Z</time>
      </trkpt>
      <trkpt lat="42.09931" lon="21.9612">
        <ele>354.832764</ele>
        <time>2022-02-23T19:59:28.095Z</time>
      </trkpt>
      <trkpt lat="42.09951" lon="21.9613">
        <ele>353.695803</ele>
        <time>2022-02-23T19:59:32.097Z</time>
      </trkpt>
      <trkpt lat="42.09961" lon="21.96138">
        <ele>353.119705</ele>
        <time>2022-02-23T19:59:34.001Z</time>
      </trkpt>
      <trkpt lat="42.0997" lon="21.96146">
        <ele>352.518071</ele>
        <time>2022-02-23T19:59:36.024Z</time>
      </trkpt>
      <trkpt lat="42.09981" lon="21.96157">
        <ele>351.839875</ele>
        <time>2022-02-23T19:59:38.507Z</time>
      </trkpt>
      <trkpt lat="42.10018" lon="21.96152">
        <ele>349.870103</ele>
        <time>2022-02-23T19:59:50.817Z</time>
      </trkpt>
      <trkpt lat="42.10037" lon="21.96153">
        <ele>349.005062</ele>
        <time>2022-02-23T19:59:54.030Z</time>
      </trkpt>
      <trkpt lat="42.10098" lon="21.96154">
        <ele>346.571807</ele>
        <time>2022-02-23T20:00:05.257Z</time>
      </trkpt>
      <trkpt lat="42.10148" lon="21.96135">
        <ele>344.536294</ele>
        <time>2022-02-23T20:00:14.510Z</time>
      </trkpt>
      <trkpt lat="42.10169" lon="21.96132">
        <ele>343.703917</ele>
        <time>2022-02-23T20:00:18.579Z</time>
      </trkpt>
      <trkpt lat="42.10259" lon="21.96147">
        <ele>342.271518</ele>
        <time>2022-02-23T20:00:39.845Z</time>
      </trkpt>
      <trkpt lat="42.10272" lon="21.96143">
        <ele>342.28578</ele>
        <time>2022-02-23T20:00:43.882Z</time>
      </trkpt>
      <trkpt lat="42.10279" lon="21.96116">
        <ele>342.308203</ele>
        <time>2022-02-23T20:00:49.409Z</time>
      </trkpt>
      <trkpt lat="42.10308" lon="21.96034">
        <ele>342.380521</ele>
        <time>2022-02-23T20:01:10.772Z</time>
      </trkpt>
      <trkpt lat="42.10333" lon="21.95993">
        <ele>342.452312</ele>
        <time>2022-02-23T20:01:23.308Z</time>
      </trkpt>
      <trkpt lat="42.10419" lon="21.95932">
        <ele>342.7534</ele>
        <time>2022-02-23T20:01:51.164Z</time>
      </trkpt>
      <trkpt lat="42.10426" lon="21.95921">
        <ele>342.785667</ele>
        <time>2022-02-23T20:01:54.784Z</time>
      </trkpt>
      <trkpt lat="42.10439" lon="21.95896">
        <ele>342.858504</ele>
        <time>2022-02-23T20:02:00.376Z</time>
      </trkpt>
      <trkpt lat="42.10516" lon="21.95763">
        <ele>342.813173</ele>
        <time>2022-02-23T20:02:32.054Z</time>
      </trkpt>
      <trkpt lat="42.10529" lon="21.95721">
        <ele>342.756612</ele>
        <time>2022-02-23T20:02:39.982Z</time>
      </trkpt>
      <trkpt lat="42.10554" lon="21.95661">
        <ele>342.670466</ele>
        <time>2022-02-23T20:02:53.780Z</time>
      </trkpt>
      <trkpt lat="42.10581" lon="21.95603">
        <ele>343.282061</ele>
        <time>2022-02-23T20:03:08.854Z</time>
      </trkpt>
      <trkpt lat="42.10631" lon="21.95504">
        <ele>344.483718</ele>
        <time>2022-02-23T20:03:39.041Z</time>
      </trkpt>
      <trkpt lat="42.10677" lon="21.95432">
        <ele>345.385691</ele>
        <time>2022-02-23T20:04:05.389Z</time>
      </trkpt>
      <trkpt lat="42.10746" lon="21.95361">
        <ele>346.38369</ele>
        <time>2022-02-23T20:04:35.543Z</time>
      </trkpt>
      <trkpt lat="42.10792" lon="21.95319">
        <ele>347.023546</ele>
        <time>2022-02-23T20:04:52.368Z</time>
      </trkpt>
      <trkpt lat="42.109" lon="21.95259">
        <ele>345.225376</ele>
        <time>2022-02-23T20:05:19.803Z</time>
      </trkpt>
      <trkpt lat="42.10994" lon="21.95119">
        <ele>341.558864</ele>
        <time>2022-02-23T20:05:46.804Z</time>
      </trkpt>
      <trkpt lat="42.11004" lon="21.95111">
        <ele>341.143826</ele>
        <time>2022-02-23T20:05:48.916Z</time>
      </trkpt>
      <trkpt lat="42.11054" lon="21.95077">
        <ele>339.221764</ele>
        <time>2022-02-23T20:05:59.637Z</time>
      </trkpt>
      <trkpt lat="42.11149" lon="21.9502">
        <ele>336.557114</ele>
        <time>2022-02-23T20:06:20.138Z</time>
      </trkpt>
      <trkpt lat="42.11178" lon="21.94994">
        <ele>335.944881</ele>
        <time>2022-02-23T20:06:27.785Z</time>
      </trkpt>
      <trkpt lat="42.11204" lon="21.94965">
        <ele>335.355108</ele>
        <time>2022-02-23T20:06:35.399Z</time>
      </trkpt>
      <trkpt lat="42.11236" lon="21.94916">
        <ele>334.505826</ele>
        <time>2022-02-23T20:06:46.558Z</time>
      </trkpt>
      <trkpt lat="42.11277" lon="21.9488">
        <ele>334.045415</ele>
        <time>2022-02-23T20:06:58.282Z</time>
      </trkpt>
      <trkpt lat="42.11334" lon="21.94795">
        <ele>333.37547</ele>
        <time>2022-02-23T20:07:18.602Z</time>
      </trkpt>
      <trkpt lat="42.11398" lon="21.94675">
        <ele>332.501109</ele>
        <time>2022-02-23T20:07:44.809Z</time>
      </trkpt>
      <trkpt lat="42.11411" lon="21.94606">
        <ele>332.076333</ele>
        <time>2022-02-23T20:07:57.232Z</time>
      </trkpt>
      <trkpt lat="42.1142" lon="21.94447">
        <ele>331.077456</ele>
        <time>2022-02-23T20:08:25.227Z</time>
      </trkpt>
      <trkpt lat="42.11416" lon="21.94415">
        <ele>330.865669</ele>
        <time>2022-02-23T20:08:30.839Z</time>
      </trkpt>
      <trkpt lat="42.11405" lon="21.94317">
        <ele>330.212535</ele>
        <time>2022-02-23T20:08:47.720Z</time>
      </trkpt>
      <trkpt lat="42.11394" lon="21.94224">
        <ele>329.861137</ele>
        <time>2022-02-23T20:09:04.401Z</time>
      </trkpt>
      <trkpt lat="42.11386" lon="21.94197">
        <ele>329.8302</ele>
        <time>2022-02-23T20:09:09.906Z</time>
      </trkpt>
      <trkpt lat="42.11378" lon="21.9417">
        <ele>329.799908</ele>
        <time>2022-02-23T20:09:15.139Z</time>
      </trkpt>
      <trkpt lat="42.11364" lon="21.94125">
        <ele>329.747484</ele>
        <time>2022-02-23T20:09:24.781Z</time>
      </trkpt>
      <trkpt lat="42.11358" lon="21.94106">
        <ele>329.725828</ele>
        <time>2022-02-23T20:09:29.137Z</time>
      </trkpt>
      <trkpt lat="42.11317" lon="21.94013">
        <ele>329.86271</ele>
        <time>2022-02-23T20:09:51.516Z</time>
      </trkpt>
      <trkpt lat="42.11315" lon="21.93983">
        <ele>330.015079</ele>
        <time>2022-02-23T20:09:58.310Z</time>
      </trkpt>
      <trkpt lat="42.11319" lon="21.93905">
        <ele>330.40198</ele>
        <time>2022-02-23T20:10:16.421Z</time>
      </trkpt>
      <trkpt lat="42.1136" lon="21.93782">
        <ele>330.991334</ele>
        <time>2022-02-23T20:10:46.599Z</time>
      </trkpt>
      <trkpt lat="42.1138" lon="21.93744">
        <ele>331.131912</ele>
        <time>2022-02-23T20:10:56.419Z</time>
      </trkpt>
      <trkpt lat="42.11421" lon="21.9369">
        <ele>331.371685</ele>
        <time>2022-02-23T20:11:12.845Z</time>
      </trkpt>
      <trkpt lat="42.1143" lon="21.93669">
        <ele>331.447313</ele>
        <time>2022-02-23T20:11:18.013Z</time>
      </trkpt>
      <trkpt lat="42.11463" lon="21.93547">
        <ele>331.597914</ele>
        <time>2022-02-23T20:11:44.248Z</time>
      </trkpt>
      <trkpt lat="42.11492" lon="21.93446">
        <ele>331.585987</ele>
        <time>2022-02-23T20:12:05.146Z</time>
      </trkpt>
      <trkpt lat="42.1152" lon="21.93336">
        <ele>331.955047</ele>
        <time>2022-02-23T20:12:27.372Z</time>
      </trkpt>
      <trkpt lat="42.11566" lon="21.93184">
        <ele>332.973076</ele>
        <time>2022-02-23T20:13:07.358Z</time>
      </trkpt>
      <trkpt lat="42.11552" lon="21.93136">
        <ele>333.222659</ele>
        <time>2022-02-23T20:13:19.998Z</time>
      </trkpt>
      <trkpt lat="42.11554" lon="21.93128">
        <ele>333.258158</ele>
        <time>2022-02-23T20:13:21.765Z</time>
      </trkpt>
      <trkpt lat="42.11564" lon="21.93123">
        <ele>333.317862</ele>
        <time>2022-02-23T20:13:25.971Z</time>
      </trkpt>
      <trkpt lat="42.11574" lon="21.93112">
        <ele>333.38929</ele>
        <time>2022-02-23T20:13:29.950Z</time>
      </trkpt>
      <trkpt lat="42.11582" lon="21.93102">
        <ele>333.450971</ele>
        <time>2022-02-23T20:13:32.650Z</time>
      </trkpt>
      <trkpt lat="42.11596" lon="21.93057">
        <ele>333.649118</ele>
        <time>2022-02-23T20:13:43.465Z</time>
      </trkpt>
      <trkpt lat="42.11599" lon="21.93037">
        <ele>333.734732</ele>
        <time>2022-02-23T20:13:49.438Z</time>
      </trkpt>
      <trkpt lat="42.116" lon="21.93025">
        <ele>333.781019</ele>
        <time>2022-02-23T20:13:51.379Z</time>
      </trkpt>
      <trkpt lat="42.11608" lon="21.92993">
        <ele>333.919863</ele>
        <time>2022-02-23T20:13:58.888Z</time>
      </trkpt>
      <trkpt lat="42.11616" lon="21.92979">
        <ele>333.992164</ele>
        <time>2022-02-23T20:14:02.131Z</time>
      </trkpt>
      <trkpt lat="42.11627" lon="21.92957">
        <ele>334.017613</ele>
        <time>2022-02-23T20:14:07.528Z</time>
      </trkpt>
      <trkpt lat="42.1166" lon="21.92838">
        <ele>332.418911</ele>
        <time>2022-02-23T20:14:28.131Z</time>
      </trkpt>
      <trkpt lat="42.1166" lon="21.92807">
        <ele>332.033985</ele>
        <time>2022-02-23T20:14:32.676Z</time>
      </trkpt>
      <trkpt lat="42.11648" lon="21.92764">
        <ele>331.448998</ele>
        <time>2022-02-23T20:14:39.599Z</time>
      </trkpt>
      <trkpt lat="42.11645" lon="21.92732">
        <ele>331.04472</ele>
        <time>2022-02-23T20:14:44.631Z</time>
      </trkpt>
      <trkpt lat="42.11652" lon="21.92699">
        <ele>330.72465</ele>
        <time>2022-02-23T20:14:49.996Z</time>
      </trkpt>
      <trkpt lat="42.1165" lon="21.92613">
        <ele>329.918867</ele>
        <time>2022-02-23T20:15:03.984Z</time>
      </trkpt>
      <trkpt lat="42.11661" lon="21.92551">
        <ele>329.332466</ele>
        <time>2022-02-23T20:15:14.648Z</time>
      </trkpt>
      <trkpt lat="42.11649" lon="21.92473">
        <ele>328.898835</ele>
        <time>2022-02-23T20:15:29.222Z</time>
      </trkpt>
      <trkpt lat="42.11641" lon="21.92366">
        <ele>329.547079</ele>
        <time>2022-02-23T20:15:52.209Z</time>
      </trkpt>
      <trkpt lat="42.11619" lon="21.92242">
        <ele>330.362668</ele>
        <time>2022-02-23T20:16:24.368Z</time>
      </trkpt>
      <trkpt lat="42.11615" lon="21.92172">
        <ele>331.061943</ele>
        <time>2022-02-23T20:16:43.136Z</time>
      </trkpt>
      <trkpt lat="42.11621" lon="21.92115">
        <ele>331.631868</ele>
        <time>2022-02-23T20:16:58.136Z</time>
      </trkpt>
      <trkpt lat="42.11634" lon="21.92065">
        <ele>332.151015</ele>
        <time>2022-02-23T20:17:10.980Z</time>
      </trkpt>
      <trkpt lat="42.11659" lon="21.92008">
        <ele>332.510181</ele>
        <time>2022-02-23T20:17:25.778Z</time>
      </trkpt>
      <trkpt lat="42.11689" lon="21.91956">
        <ele>332.027979</ele>
        <time>2022-02-23T20:17:38.482Z</time>
      </trkpt>
      <trkpt lat="42.11738" lon="21.91898">
        <ele>331.38519</ele>
        <time>2022-02-23T20:17:53.334Z</time>
      </trkpt>
      <trkpt lat="42.11791" lon="21.91786">
        <ele>329.817738</ele>
        <time>2022-02-23T20:18:13.771Z</time>
      </trkpt>
      <trkpt lat="42.11837" lon="21.91734">
        <ele>328.424389</ele>
        <time>2022-02-23T20:18:26.005Z</time>
      </trkpt>
      <trkpt lat="42.11853" lon="21.91688">
        <ele>327.550731</ele>
        <time>2022-02-23T20:18:33.668Z</time>
      </trkpt>
      <trkpt lat="42.1193" lon="21.91532">
        <ele>325.003735</ele>
        <time>2022-02-23T20:19:02.916Z</time>
      </trkpt>
      <trkpt lat="42.11945" lon="21.91459">
        <ele>324.059775</ele>
        <time>2022-02-23T20:19:15.574Z</time>
      </trkpt>
      <trkpt lat="42.11966" lon="21.91398">
        <ele>323.46784</ele>
        <time>2022-02-23T20:19:27.110Z</time>
      </trkpt>
      <trkpt lat="42.12018" lon="21.91332">
        <ele>322.879401</ele>
        <time>2022-02-23T20:19:44.041Z</time>
      </trkpt>
      <trkpt lat="42.12038" lon="21.91296">
        <ele>322.601643</ele>
        <time>2022-02-23T20:19:52.168Z</time>
      </trkpt>
      <trkpt lat="42.12112" lon="21.91102">
        <ele>321.297486</ele>
        <time>2022-02-23T20:20:30.762Z</time>
      </trkpt>
      <trkpt lat="42.12127" lon="21.90972">
        <ele>320.560584</ele>
        <time>2022-02-23T20:20:53.745Z</time>
      </trkpt>
      <trkpt lat="42.12124" lon="21.90617">
        <ele>318.973982</ele>
        <time>2022-02-23T20:21:57.347Z</time>
      </trkpt>
      <trkpt lat="42.12134" lon="21.90272">
        <ele>318.237659</ele>
        <time>2022-02-23T20:23:03.098Z</time>
      </trkpt>
      <trkpt lat="42.12132" lon="21.9024">
        <ele>318.207992</ele>
        <time>2022-02-23T20:23:09.202Z</time>
      </trkpt>
      <trkpt lat="42.12128" lon="21.90201">
        <ele>318.171742</ele>
        <time>2022-02-23T20:23:16.820Z</time>
      </trkpt>
      <trkpt lat="42.12127" lon="21.90167">
        <ele>318.140134</ele>
        <time>2022-02-23T20:23:23.584Z</time>
      </trkpt>
      <trkpt lat="42.12128" lon="21.90147">
        <ele>318.120879</ele>
        <time>2022-02-23T20:23:27.515Z</time>
      </trkpt>
      <trkpt lat="42.1213" lon="21.90132">
        <ele>318.107148</ele>
        <time>2022-02-23T20:23:30.655Z</time>
      </trkpt>
      <trkpt lat="42.12135" lon="21.90114">
        <ele>318.089644</ele>
        <time>2022-02-23T20:23:34.177Z</time>
      </trkpt>
      <trkpt lat="42.1215" lon="21.90055">
        <ele>318.031948</ele>
        <time>2022-02-23T20:23:46.303Z</time>
      </trkpt>
      <trkpt lat="42.12172" lon="21.89673">
        <ele>316.900434</ele>
        <time>2022-02-23T20:24:58.388Z</time>
      </trkpt>
      <trkpt lat="42.12176" lon="21.89612">
        <ele>316.653062</ele>
        <time>2022-02-23T20:25:09.352Z</time>
      </trkpt>
      <trkpt lat="42.12178" lon="21.89561">
        <ele>316.412846</ele>
        <time>2022-02-23T20:25:18.206Z</time>
      </trkpt>
      <trkpt lat="42.12214" lon="21.88878">
        <ele>310.718736</ele>
        <time>2022-02-23T20:27:13.580Z</time>
      </trkpt>
      <trkpt lat="42.12185" lon="21.8869">
        <ele>310.011861</ele>
        <time>2022-02-23T20:27:48.752Z</time>
      </trkpt>
      <trkpt lat="42.12184" lon="21.88613">
        <ele>309.796066</ele>
        <time>2022-02-23T20:28:03.692Z</time>
      </trkpt>
      <trkpt lat="42.12199" lon="21.88425">
        <ele>309.536341</ele>
        <time>2022-02-23T20:28:40.510Z</time>
      </trkpt>
      <trkpt lat="42.12203" lon="21.88371">
        <ele>309.465973</ele>
        <time>2022-02-23T20:28:50.727Z</time>
      </trkpt>
      <trkpt lat="42.12236" lon="21.88262">
        <ele>309.105528</ele>
        <time>2022-02-23T20:29:12.750Z</time>
      </trkpt>
      <trkpt lat="42.12261" lon="21.88195">
        <ele>308.866636</ele>
        <time>2022-02-23T20:29:26.396Z</time>
      </trkpt>
      <trkpt lat="42.12281" lon="21.88061">
        <ele>308.328072</ele>
        <time>2022-02-23T20:29:51.328Z</time>
      </trkpt>
      <trkpt lat="42.12286" lon="21.8803">
        <ele>308.185793</ele>
        <time>2022-02-23T20:29:56.998Z</time>
      </trkpt>
      <trkpt lat="42.12298" lon="21.87942">
        <ele>307.784215</ele>
        <time>2022-02-23T20:30:13.003Z</time>
      </trkpt>
      <trkpt lat="42.12318" lon="21.87797">
        <ele>307.20097</ele>
        <time>2022-02-23T20:30:39.265Z</time>
      </trkpt>
      <trkpt lat="42.12322" lon="21.87754">
        <ele>307.034037</ele>
        <time>2022-02-23T20:30:47.304Z</time>
      </trkpt>
      <trkpt lat="42.12335" lon="21.87672">
        <ele>306.71917</ele>
        <time>2022-02-23T20:31:02.536Z</time>
      </trkpt>
      <trkpt lat="42.1238" lon="21.8735">
        <ele>306.439137</ele>
        <time>2022-02-23T20:32:06.748Z</time>
      </trkpt>
      <trkpt lat="42.12409" lon="21.87175">
        <ele>306.209095</ele>
        <time>2022-02-23T20:32:41.696Z</time>
      </trkpt>
      <trkpt lat="42.12434" lon="21.87089">
        <ele>305.833052</ele>
        <time>2022-02-23T20:32:58.634Z</time>
      </trkpt>
      <trkpt lat="42.12443" lon="21.87012">
        <ele>305.51524</ele>
        <time>2022-02-23T20:33:12.602Z</time>
      </trkpt>
      <trkpt lat="42.12455" lon="21.86963">
        <ele>305.304965</ele>
        <time>2022-02-23T20:33:21.761Z</time>
      </trkpt>
      <trkpt lat="42.12473" lon="21.86911">
        <ele>304.998606</ele>
        <time>2022-02-23T20:33:31.856Z</time>
      </trkpt>
      <trkpt lat="42.125" lon="21.86867">
        <ele>304.68058</ele>
        <time>2022-02-23T20:33:41.755Z</time>
      </trkpt>
      <trkpt lat="42.12506" lon="21.86846">
        <ele>304.557531</ele>
        <time>2022-02-23T20:33:45.672Z</time>
      </trkpt>
      <trkpt lat="42.12515" lon="21.86779">
        <ele>304.175583</ele>
        <time>2022-02-23T20:33:57.735Z</time>
      </trkpt>
      <trkpt lat="42.12521" lon="21.86746">
        <ele>303.986676</ele>
        <time>2022-02-23T20:34:03.861Z</time>
      </trkpt>
      <trkpt lat="42.12525" lon="21.8672">
        <ele>303.883134</ele>
        <time>2022-02-23T20:34:08.789Z</time>
      </trkpt>
      <trkpt lat="42.12537" lon="21.86614">
        <ele>303.611968</ele>
        <time>2022-02-23T20:34:29.389Z</time>
      </trkpt>
      <trkpt lat="42.12535" lon="21.86577">
        <ele>303.51858</ele>
        <time>2022-02-23T20:34:36.526Z</time>
      </trkpt>
      <trkpt lat="42.12487" lon="21.86416">
        <ele>303.382951</ele>
        <time>2022-02-23T20:35:12.186Z</time>
      </trkpt>
      <trkpt lat="42.12477" lon="21.86397">
        <ele>303.402568</ele>
        <time>2022-02-23T20:35:17.235Z</time>
      </trkpt>
      <trkpt lat="42.1242" lon="21.86332">
        <ele>303.48609</ele>
        <time>2022-02-23T20:35:38.620Z</time>
      </trkpt>
      <trkpt lat="42.12411" lon="21.86257">
        <ele>303.51442</ele>
        <time>2022-02-23T20:35:54.523Z</time>
      </trkpt>
      <trkpt lat="42.124" lon="21.86222">
        <ele>303.51829</ele>
        <time>2022-02-23T20:36:02.618Z</time>
      </trkpt>
      <trkpt lat="42.12266" lon="21.86078">
        <ele>303.539756</ele>
        <time>2022-02-23T20:36:49.961Z</time>
      </trkpt>
      <trkpt lat="42.12192" lon="21.86051">
        <ele>303.547633</ele>
        <time>2022-02-23T20:37:11.148Z</time>
      </trkpt>
      <trkpt lat="42.1211" lon="21.86">
        <ele>303.791773</ele>
        <time>2022-02-23T20:37:36.519Z</time>
      </trkpt>
      <trkpt lat="42.11997" lon="21.8594">
        <ele>304.477886</ele>
        <time>2022-02-23T20:38:14.882Z</time>
      </trkpt>
      <trkpt lat="42.11982" lon="21.85932">
        <ele>304.569677</ele>
        <time>2022-02-23T20:38:19.931Z</time>
      </trkpt>
      <trkpt lat="42.11928" lon="21.85904">
        <ele>304.954674</ele>
        <time>2022-02-23T20:38:37.380Z</time>
      </trkpt>
      <trkpt lat="42.11882" lon="21.85879">
        <ele>305.285766</ele>
        <time>2022-02-23T20:38:52.289Z</time>
      </trkpt>
      <trkpt lat="42.11875" lon="21.85874">
        <ele>305.341411</ele>
        <time>2022-02-23T20:38:54.790Z</time>
      </trkpt>
      <trkpt lat="42.11863" lon="21.8586">
        <ele>305.444083</ele>
        <time>2022-02-23T20:38:59.564Z</time>
      </trkpt>
      <trkpt lat="42.11859" lon="21.85823">
        <ele>305.629122</ele>
        <time>2022-02-23T20:39:08.342Z</time>
      </trkpt>
      <trkpt lat="42.11859" lon="21.85808">
        <ele>305.700546</ele>
        <time>2022-02-23T20:39:11.462Z</time>
      </trkpt>
      <trkpt lat="42.11858" lon="21.85792">
        <ele>305.789866</ele>
        <time>2022-02-23T20:39:16.121Z</time>
      </trkpt>
      <trkpt lat="42.11848" lon="21.8576">
        <ele>306.178826</ele>
        <time>2022-02-23T20:39:24.188Z</time>
      </trkpt>
      <trkpt lat="42.11837" lon="21.85749">
        <ele>306.379189</ele>
        <time>2022-02-23T20:39:28.856Z</time>
      </trkpt>
      <trkpt lat="42.11795" lon="21.85729">
        <ele>307.056845</ele>
        <time>2022-02-23T20:39:42.689Z</time>
      </trkpt>
      <trkpt lat="42.11745" lon="21.85714">
        <ele>307.827596</ele>
        <time>2022-02-23T20:40:00.226Z</time>
      </trkpt>
      <trkpt lat="42.11738" lon="21.8571">
        <ele>307.928352</ele>
        <time>2022-02-23T20:40:03.620Z</time>
      </trkpt>
      <trkpt lat="42.11732" lon="21.85702">
        <ele>308.061048</ele>
        <time>2022-02-23T20:40:06.727Z</time>
      </trkpt>
      <trkpt lat="42.11728" lon="21.85696">
        <ele>308.148596</ele>
        <time>2022-02-23T20:40:09.002Z</time>
      </trkpt>
      <trkpt lat="42.11724" lon="21.85686">
        <ele>308.27297</ele>
        <time>2022-02-23T20:40:12.752Z</time>
      </trkpt>
      <trkpt lat="42.11713" lon="21.85633">
        <ele>308.915579</ele>
        <time>2022-02-23T20:40:29.509Z</time>
      </trkpt>
      <trkpt lat="42.11678" lon="21.85577">
        <ele>309.802933</ele>
        <time>2022-02-23T20:40:51.608Z</time>
      </trkpt>
      <trkpt lat="42.11674" lon="21.85563">
        <ele>309.973828</ele>
        <time>2022-02-23T20:40:56.078Z</time>
      </trkpt>
      <trkpt lat="42.11673" lon="21.85558">
        <ele>310.038022</ele>
        <time>2022-02-23T20:40:57.560Z</time>
      </trkpt>
      <trkpt lat="42.11667" lon="21.85541">
        <ele>310.264182</ele>
        <time>2022-02-23T20:41:03.686Z</time>
      </trkpt>
      <trkpt lat="42.11643" lon="21.85431">
        <ele>310.987727</ele>
        <time>2022-02-23T20:41:29.654Z</time>
      </trkpt>
      <trkpt lat="42.11624" lon="21.85301">
        <ele>308.655155</ele>
        <time>2022-02-23T20:41:50.896Z</time>
      </trkpt>
      <trkpt lat="42.1162" lon="21.85271">
        <ele>308.102763</ele>
        <time>2022-02-23T20:41:55.456Z</time>
      </trkpt>
      <trkpt lat="42.11617" lon="21.85241">
        <ele>307.574867</ele>
        <time>2022-02-23T20:41:59.808Z</time>
      </trkpt>
      <trkpt lat="42.1162" lon="21.85195">
        <ele>306.699022</ele>
        <time>2022-02-23T20:42:06.529Z</time>
      </trkpt>
      <trkpt lat="42.11618" lon="21.85183">
        <ele>306.427638</ele>
        <time>2022-02-23T20:42:08.418Z</time>
      </trkpt>
      <trkpt lat="42.1162" lon="21.85118">
        <ele>305.051175</ele>
        <time>2022-02-23T20:42:17.931Z</time>
      </trkpt>
      <trkpt lat="42.11622" lon="21.85103">
        <ele>304.708391</ele>
        <time>2022-02-23T20:42:20.253Z</time>
      </trkpt>
      <trkpt lat="42.1162" lon="21.85083">
        <ele>304.27923</ele>
        <time>2022-02-23T20:42:23.224Z</time>
      </trkpt>
      <trkpt lat="42.1162" lon="21.8505">
        <ele>303.574036</ele>
        <time>2022-02-23T20:42:28.238Z</time>
      </trkpt>
      <trkpt lat="42.11619" lon="21.8497">
        <ele>301.906595</ele>
        <time>2022-02-23T20:42:41.991Z</time>
      </trkpt>
      <trkpt lat="42.11618" lon="21.84938">
        <ele>301.832455</ele>
        <time>2022-02-23T20:42:47.943Z</time>
      </trkpt>
      <trkpt lat="42.11615" lon="21.84916">
        <ele>301.782293</ele>
        <time>2022-02-23T20:42:52.006Z</time>
      </trkpt>
      <trkpt lat="42.11609" lon="21.84882">
        <ele>301.701965</ele>
        <time>2022-02-23T20:42:58.649Z</time>
      </trkpt>
      <trkpt lat="42.11593" lon="21.84828">
        <ele>301.570269</ele>
        <time>2022-02-23T20:43:10.095Z</time>
      </trkpt>
      <trkpt lat="42.1159" lon="21.84823">
        <ele>301.555445</ele>
        <time>2022-02-23T20:43:11.389Z</time>
      </trkpt>
      <trkpt lat="42.11586" lon="21.8482">
        <ele>301.54297</ele>
        <time>2022-02-23T20:43:12.607Z</time>
      </trkpt>
      <trkpt lat="42.11522" lon="21.84844">
        <ele>301.421537</ele>
        <time>2022-02-23T20:43:31.782Z</time>
      </trkpt>
      <trkpt lat="42.11485" lon="21.84859">
        <ele>301.839405</ele>
        <time>2022-02-23T20:43:43.863Z</time>
      </trkpt>
      <trkpt lat="42.11453" lon="21.84866">
        <ele>302.195685</ele>
        <time>2022-02-23T20:43:54.558Z</time>
      </trkpt>
      <trkpt lat="42.11408" lon="21.8487">
        <ele>302.678443</ele>
        <time>2022-02-23T20:44:09.418Z</time>
      </trkpt>
      <trkpt lat="42.11367" lon="21.84861">
        <ele>303.123508</ele>
        <time>2022-02-23T20:44:23.707Z</time>
      </trkpt>
      <trkpt lat="42.11311" lon="21.84833">
        <ele>304.047599</ele>
        <time>2022-02-23T20:44:45.762Z</time>
      </trkpt>
      <trkpt lat="42.11214" lon="21.84771">
        <ele>305.89156</ele>
        <time>2022-02-23T20:45:24.337Z</time>
      </trkpt>
      <trkpt lat="42.11173" lon="21.84752">
        <ele>306.72387</ele>
        <time>2022-02-23T20:45:39.736Z</time>
      </trkpt>
      <trkpt lat="42.11111" lon="21.84739">
        <ele>308.208572</ele>
        <time>2022-02-23T20:46:02.587Z</time>
      </trkpt>
      <trkpt lat="42.11007" lon="21.84733">
        <ele>310.705672</ele>
        <time>2022-02-23T20:46:44.166Z</time>
      </trkpt>
      <trkpt lat="42.10855" lon="21.84689">
        <ele>317.270675</ele>
        <time>2022-02-23T20:47:59.230Z</time>
      </trkpt>
      <trkpt lat="42.10755" lon="21.84709">
        <ele>322.263647</ele>
        <time>2022-02-23T20:48:52.525Z</time>
      </trkpt>
      <trkpt lat="42.106" lon="21.84723">
        <ele>330.077853</ele>
        <time>2022-02-23T20:50:14.940Z</time>
      </trkpt>
      <trkpt lat="42.10554" lon="21.84737">
        <ele>332.29909</ele>
        <time>2022-02-23T20:50:38.795Z</time>
      </trkpt>
      <trkpt lat="42.10463" lon="21.8474">
        <ele>336.489441</ele>
        <time>2022-02-23T20:51:23.946Z</time>
      </trkpt>
      <trkpt lat="42.10346" lon="21.84766">
        <ele>340.811677</ele>
        <time>2022-02-23T20:52:18.305Z</time>
      </trkpt>
      <trkpt lat="42.10308" lon="21.84768">
        <ele>342.214565</ele>
        <time>2022-02-23T20:52:34.791Z</time>
      </trkpt>
      <trkpt lat="42.10273" lon="21.84759">
        <ele>343.264816</ele>
        <time>2022-02-23T20:52:49.832Z</time>
      </trkpt>
      <trkpt lat="42.10129" lon="21.84697">
        <ele>347.17196</ele>
        <time>2022-02-23T20:53:49.707Z</time>
      </trkpt>
      <trkpt lat="42.09981" lon="21.84621">
        <ele>350.920565</ele>
        <time>2022-02-23T20:54:51.622Z</time>
      </trkpt>
      <trkpt lat="42.09885" lon="21.84546">
        <ele>352.836335</ele>
        <time>2022-02-23T20:55:35.279Z</time>
      </trkpt>
      <trkpt lat="42.09836" lon="21.84516">
        <ele>353.659641</ele>
        <time>2022-02-23T20:55:54.235Z</time>
      </trkpt>
      <trkpt lat="42.09822" lon="21.84498">
        <ele>353.952177</ele>
        <time>2022-02-23T20:56:00.384Z</time>
      </trkpt>
      <trkpt lat="42.09811" lon="21.84445">
        <ele>353.825714</ele>
        <time>2022-02-23T20:56:11.953Z</time>
      </trkpt>
      <trkpt lat="42.09789" lon="21.84414">
        <ele>353.109882</ele>
        <time>2022-02-23T20:56:19.673Z</time>
      </trkpt>
      <trkpt lat="42.09786" lon="21.84401">
        <ele>352.873149</ele>
        <time>2022-02-23T20:56:22.070Z</time>
      </trkpt>
      <trkpt lat="42.09791" lon="21.84358">
        <ele>352.148393</ele>
        <time>2022-02-23T20:56:29.094Z</time>
      </trkpt>
      <trkpt lat="42.09789" lon="21.84291">
        <ele>351.012584</ele>
        <time>2022-02-23T20:56:39.382Z</time>
      </trkpt>
      <trkpt lat="42.09783" lon="21.8423">
        <ele>349.685656</ele>
        <time>2022-02-23T20:56:48.434Z</time>
      </trkpt>
      <trkpt lat="42.09752" lon="21.84045">
        <ele>342.197398</ele>
        <time>2022-02-23T20:57:14.869Z</time>
      </trkpt>
      <trkpt lat="42.09759" lon="21.83961">
        <ele>338.434827</ele>
        <time>2022-02-23T20:57:26.368Z</time>
      </trkpt>
      <trkpt lat="42.0978" lon="21.83883">
        <ele>334.372671</ele>
        <time>2022-02-23T20:57:37.510Z</time>
      </trkpt>
      <trkpt lat="42.09782" lon="21.83838">
        <ele>332.123196</ele>
        <time>2022-02-23T20:57:43.641Z</time>
      </trkpt>
      <trkpt lat="42.09768" lon="21.83795">
        <ele>329.828747</ele>
        <time>2022-02-23T20:57:49.883Z</time>
      </trkpt>
      <trkpt lat="42.09754" lon="21.83771">
        <ele>328.368207</ele>
        <time>2022-02-23T20:57:53.924Z</time>
      </trkpt>
      <trkpt lat="42.09705" lon="21.83728">
        <ele>324.791671</ele>
        <time>2022-02-23T20:58:04.431Z</time>
      </trkpt>
      <trkpt lat="42.0967" lon="21.83683">
        <ele>321.803343</ele>
        <time>2022-02-23T20:58:13.286Z</time>
      </trkpt>
      <trkpt lat="42.09647" lon="21.83634">
        <ele>319.17812</ele>
        <time>2022-02-23T20:58:21.274Z</time>
      </trkpt>
      <trkpt lat="42.09638" lon="21.83601">
        <ele>317.625243</ele>
        <time>2022-02-23T20:58:26.489Z</time>
      </trkpt>
      <trkpt lat="42.09638" lon="21.83594">
        <ele>317.490871</ele>
        <time>2022-02-23T20:58:27.254Z</time>
      </trkpt>
      <trkpt lat="42.09639" lon="21.83588">
        <ele>317.354081</ele>
        <time>2022-02-23T20:58:28.211Z</time>
      </trkpt>
      <trkpt lat="42.09644" lon="21.83578">
        <ele>317.084849</ele>
        <time>2022-02-23T20:58:30.118Z</time>
      </trkpt>
      <trkpt lat="42.09677" lon="21.83546">
        <ele>315.904818</ele>
        <time>2022-02-23T20:58:38.216Z</time>
      </trkpt>
      <trkpt lat="42.09681" lon="21.8354">
        <ele>315.730885</ele>
        <time>2022-02-23T20:58:39.501Z</time>
      </trkpt>
      <trkpt lat="42.09697" lon="21.83535">
        <ele>315.243392</ele>
        <time>2022-02-23T20:58:42.735Z</time>
      </trkpt>
      <trkpt lat="42.09776" lon="21.83469">
        <ele>312.530926</ele>
        <time>2022-02-23T20:59:03.196Z</time>
      </trkpt>
      <trkpt lat="42.09837" lon="21.83408">
        <ele>311.878379</ele>
        <time>2022-02-23T20:59:21.861Z</time>
      </trkpt>
      <trkpt lat="42.09914" lon="21.83298">
        <ele>311.127241</ele>
        <time>2022-02-23T20:59:50.052Z</time>
      </trkpt>
      <trkpt lat="42.09926" lon="21.8322">
        <ele>311.837506</ele>
        <time>2022-02-23T21:00:07.929Z</time>
      </trkpt>
      <trkpt lat="42.09916" lon="21.83189">
        <ele>312.144377</ele>
        <time>2022-02-23T21:00:16.435Z</time>
      </trkpt>
      <trkpt lat="42.09914" lon="21.83158">
        <ele>312.418221</ele>
        <time>2022-02-23T21:00:24.320Z</time>
      </trkpt>
      <trkpt lat="42.09932" lon="21.83118">
        <ele>312.838622</ele>
        <time>2022-02-23T21:00:37.107Z</time>
      </trkpt>
      <trkpt lat="42.09936" lon="21.83084">
        <ele>313.149897</ele>
        <time>2022-02-23T21:00:47.108Z</time>
      </trkpt>
      <trkpt lat="42.09961" lon="21.82996">
        <ele>314.607509</ele>
        <time>2022-02-23T21:01:15.197Z</time>
      </trkpt>
      <trkpt lat="42.09953" lon="21.82912">
        <ele>315.990743</ele>
        <time>2022-02-23T21:01:41.443Z</time>
      </trkpt>
      <trkpt lat="42.09982" lon="21.82813">
        <ele>316.932031</ele>
        <time>2022-02-23T21:02:09.287Z</time>
      </trkpt>
      <trkpt lat="42.09983" lon="21.82762">
        <ele>316.534186</ele>
        <time>2022-02-23T21:02:19.825Z</time>
      </trkpt>
      <trkpt lat="42.09994" lon="21.82734">
        <ele>316.283941</ele>
        <time>2022-02-23T21:02:25.802Z</time>
      </trkpt>
      <trkpt lat="42.09999" lon="21.82707">
        <ele>316.058988</ele>
        <time>2022-02-23T21:02:30.842Z</time>
      </trkpt>
      <trkpt lat="42.10027" lon="21.8249">
        <ele>312.664786</ele>
        <time>2022-02-23T21:03:04.820Z</time>
      </trkpt>
      <trkpt lat="42.10062" lon="21.82398">
        <ele>310.440719</ele>
        <time>2022-02-23T21:03:20.463Z</time>
      </trkpt>
      <trkpt lat="42.10138" lon="21.82269">
        <ele>307.8751</ele>
        <time>2022-02-23T21:03:46.861Z</time>
      </trkpt>
      <trkpt lat="42.10153" lon="21.82217">
        <ele>307.043967</ele>
        <time>2022-02-23T21:03:56.390Z</time>
      </trkpt>
      <trkpt lat="42.10185" lon="21.8206">
        <ele>305.483442</ele>
        <time>2022-02-23T21:04:25.425Z</time>
      </trkpt>
      <trkpt lat="42.10187" lon="21.82011">
        <ele>305.105642</ele>
        <time>2022-02-23T21:04:34.059Z</time>
      </trkpt>
      <trkpt lat="42.10192" lon="21.82">
        <ele>305.008243</ele>
        <time>2022-02-23T21:04:36.311Z</time>
      </trkpt>
      <trkpt lat="42.10214" lon="21.8198">
        <ele>304.725432</ele>
        <time>2022-02-23T21:04:42.795Z</time>
      </trkpt>
      <trkpt lat="42.10238" lon="21.81943">
        <ele>304.390672</ele>
        <time>2022-02-23T21:04:52.005Z</time>
      </trkpt>
      <trkpt lat="42.10242" lon="21.81839">
        <ele>303.788817</ele>
        <time>2022-02-23T21:05:11.767Z</time>
      </trkpt>
      <trkpt lat="42.10262" lon="21.81764">
        <ele>303.329487</ele>
        <time>2022-02-23T21:05:26.259Z</time>
      </trkpt>
      <trkpt lat="42.10269" lon="21.81701">
        <ele>302.896596</ele>
        <time>2022-02-23T21:05:37.628Z</time>
      </trkpt>
      <trkpt lat="42.10263" lon="21.81653">
        <ele>302.508083</ele>
        <time>2022-02-23T21:05:46.518Z</time>
      </trkpt>
      <trkpt lat="42.10216" lon="21.8156">
        <ele>301.623646</ele>
        <time>2022-02-23T21:06:06.597Z</time>
      </trkpt>
      <trkpt lat="42.10195" lon="21.81471">
        <ele>301.053326</ele>
        <time>2022-02-23T21:06:22.801Z</time>
      </trkpt>
      <trkpt lat="42.10192" lon="21.81434">
        <ele>300.892471</ele>
        <time>2022-02-23T21:06:29.571Z</time>
      </trkpt>
      <trkpt lat="42.10171" lon="21.8137">
        <ele>300.597318</ele>
        <time>2022-02-23T21:06:42.492Z</time>
      </trkpt>
      <trkpt lat="42.10164" lon="21.81282">
        <ele>300.22472</ele>
        <time>2022-02-23T21:07:00.248Z</time>
      </trkpt>
      <trkpt lat="42.10156" lon="21.81237">
        <ele>300.557656</ele>
        <time>2022-02-23T21:07:10.515Z</time>
      </trkpt>
      <trkpt lat="42.10159" lon="21.8112">
        <ele>301.445203</ele>
        <time>2022-02-23T21:07:39.234Z</time>
      </trkpt>
      <trkpt lat="42.10146" lon="21.81079">
        <ele>301.78285</ele>
        <time>2022-02-23T21:07:50.944Z</time>
      </trkpt>
      <trkpt lat="42.10106" lon="21.81012">
        <ele>302.346917</ele>
        <time>2022-02-23T21:08:13.885Z</time>
      </trkpt>
      <trkpt lat="42.10092" lon="21.80948">
        <ele>302.741263</ele>
        <time>2022-02-23T21:08:30.824Z</time>
      </trkpt>
      <trkpt lat="42.10062" lon="21.80898">
        <ele>303.113749</ele>
        <time>2022-02-23T21:08:45.575Z</time>
      </trkpt>
      <trkpt lat="42.10027" lon="21.80851">
        <ele>303.447536</ele>
        <time>2022-02-23T21:08:59.198Z</time>
      </trkpt>
      <trkpt lat="42.10003" lon="21.80796">
        <ele>303.171942</ele>
        <time>2022-02-23T21:09:10.866Z</time>
      </trkpt>
      <trkpt lat="42.09967" lon="21.80775">
        <ele>302.937946</ele>
        <time>2022-02-23T21:09:20.515Z</time>
      </trkpt>
      <trkpt lat="42.09945" lon="21.8077">
        <ele>302.807726</ele>
        <time>2022-02-23T21:09:25.906Z</time>
      </trkpt>
      <trkpt lat="42.09899" lon="21.80779">
        <ele>302.530211</ele>
        <time>2022-02-23T21:09:37.493Z</time>
      </trkpt>
      <trkpt lat="42.09884" lon="21.80776">
        <ele>302.441304</ele>
        <time>2022-02-23T21:09:41.325Z</time>
      </trkpt>
      <trkpt lat="42.09842" lon="21.80743">
        <ele>302.926317</ele>
        <time>2022-02-23T21:09:54.607Z</time>
      </trkpt>
      <trkpt lat="42.09823" lon="21.8074">
        <ele>303.158146</ele>
        <time>2022-02-23T21:10:00.460Z</time>
      </trkpt>
      <trkpt lat="42.09761" lon="21.80748">
        <ele>303.914258</ele>
        <time>2022-02-23T21:10:21.902Z</time>
      </trkpt>
      <trkpt lat="42.09718" lon="21.80736">
        <ele>304.446908</ele>
        <time>2022-02-23T21:10:38.819Z</time>
      </trkpt>
      <trkpt lat="42.09699" lon="21.80727">
        <ele>304.867999</ele>
        <time>2022-02-23T21:10:46.971Z</time>
      </trkpt>
      <trkpt lat="42.09666" lon="21.80694">
        <ele>306.133308</ele>
        <time>2022-02-23T21:11:03.786Z</time>
      </trkpt>
      <trkpt lat="42.0959" lon="21.80654">
        <ele>308.714419</ele>
        <time>2022-02-23T21:11:39.846Z</time>
      </trkpt>
      <trkpt lat="42.09582" lon="21.80645">
        <ele>309.047731</ele>
        <time>2022-02-23T21:11:44.536Z</time>
      </trkpt>
      <trkpt lat="42.09542" lon="21.80565">
        <ele>311.31204</ele>
        <time>2022-02-23T21:12:16.145Z</time>
      </trkpt>
      <trkpt lat="42.095" lon="21.80509">
        <ele>313.198343</ele>
        <time>2022-02-23T21:12:42.126Z</time>
      </trkpt>
      <trkpt lat="42.09483" lon="21.80467">
        <ele>314.336911</ele>
        <time>2022-02-23T21:12:57.674Z</time>
      </trkpt>
      <trkpt lat="42.09455" lon="21.80448">
        <ele>315.348946</ele>
        <time>2022-02-23T21:13:11.208Z</time>
      </trkpt>
      <trkpt lat="42.09395" lon="21.80375">
        <ele>316.998262</ele>
        <time>2022-02-23T21:13:43.919Z</time>
      </trkpt>
      <trkpt lat="42.09376" lon="21.80359">
        <ele>317.3658</ele>
        <time>2022-02-23T21:13:51.991Z</time>
      </trkpt>
      <trkpt lat="42.09333" lon="21.8029">
        <ele>318.490515</ele>
        <time>2022-02-23T21:14:14.450Z</time>
      </trkpt>
      <trkpt lat="42.09295" lon="21.80274">
        <ele>319.07685</ele>
        <time>2022-02-23T21:14:26.573Z</time>
      </trkpt>
      <trkpt lat="42.09289" lon="21.80266">
        <ele>319.142557</ele>
        <time>2022-02-23T21:14:28.962Z</time>
      </trkpt>
      <trkpt lat="42.09284" lon="21.80235">
        <ele>319.346928</ele>
        <time>2022-02-23T21:14:36.214Z</time>
      </trkpt>
      <trkpt lat="42.09252" lon="21.80187">
        <ele>319.744508</ele>
        <time>2022-02-23T21:14:50.447Z</time>
      </trkpt>
      <trkpt lat="42.09211" lon="21.80176">
        <ele>320.098457</ele>
        <time>2022-02-23T21:15:03.561Z</time>
      </trkpt>
      <trkpt lat="42.09201" lon="21.80158">
        <ele>320.238792</ele>
        <time>2022-02-23T21:15:08.971Z</time>
      </trkpt>
      <trkpt lat="42.09112" lon="21.80067">
        <ele>321.980328</ele>
        <time>2022-02-23T21:15:48.061Z</time>
      </trkpt>
      <trkpt lat="42.09073" lon="21.80052">
        <ele>322.727811</ele>
        <time>2022-02-23T21:16:03.926Z</time>
      </trkpt>
      <trkpt lat="42.08948" lon="21.79911">
        <ele>325.497802</ele>
        <time>2022-02-23T21:17:05.519Z</time>
      </trkpt>
      <trkpt lat="42.08932" lon="21.79883">
        <ele>325.920349</ele>
        <time>2022-02-23T21:17:14.145Z</time>
      </trkpt>
      <trkpt lat="42.08891" lon="21.79837">
        <ele>326.707592</ele>
        <time>2022-02-23T21:17:31.627Z</time>
      </trkpt>
      <trkpt lat="42.08841" lon="21.79797">
        <ele>326.355894</ele>
        <time>2022-02-23T21:17:50.475Z</time>
      </trkpt>
      <trkpt lat="42.08799" lon="21.79746">
        <ele>326.007777</ele>
        <time>2022-02-23T21:18:05.883Z</time>
      </trkpt>
      <trkpt lat="42.08768" lon="21.79699">
        <ele>325.723322</ele>
        <time>2022-02-23T21:18:16.227Z</time>
      </trkpt>
      <trkpt lat="42.08757" lon="21.79681">
        <ele>325.528044</ele>
        <time>2022-02-23T21:18:21.344Z</time>
      </trkpt>
      <trkpt lat="42.08748" lon="21.79663">
        <ele>324.800401</ele>
        <time>2022-02-23T21:18:24.345Z</time>
      </trkpt>
      <trkpt lat="42.08644" lon="21.79491">
        <ele>317.162904</ele>
        <time>2022-02-23T21:18:55.921Z</time>
      </trkpt>
      <trkpt lat="42.08629" lon="21.79463">
        <ele>315.32579</ele>
        <time>2022-02-23T21:19:00.459Z</time>
      </trkpt>
      <trkpt lat="42.08612" lon="21.79412">
        <ele>312.37667</ele>
        <time>2022-02-23T21:19:07.838Z</time>
      </trkpt>
      <trkpt lat="42.08569" lon="21.79364">
        <ele>308.413086</ele>
        <time>2022-02-23T21:19:17.851Z</time>
      </trkpt>
      <trkpt lat="42.08564" lon="21.79354">
        <ele>307.773291</ele>
        <time>2022-02-23T21:19:19.361Z</time>
      </trkpt>
      <trkpt lat="42.08506" lon="21.79281">
        <ele>302.919913</ele>
        <time>2022-02-23T21:19:33.588Z</time>
      </trkpt>
      <trkpt lat="42.08438" lon="21.79193">
        <ele>298.37463</ele>
        <time>2022-02-23T21:19:51.194Z</time>
      </trkpt>
      <trkpt lat="42.08403" lon="21.79161">
        <ele>296.333237</ele>
        <time>2022-02-23T21:19:59.924Z</time>
      </trkpt>
      <trkpt lat="42.08379" lon="21.79147">
        <ele>296.023447</ele>
        <time>2022-02-23T21:20:05.682Z</time>
      </trkpt>
      <trkpt lat="42.08183" lon="21.79113">
        <ele>298.654182</ele>
        <time>2022-02-23T21:21:14.229Z</time>
      </trkpt>
      <trkpt lat="42.08157" lon="21.79104">
        <ele>299.680177</ele>
        <time>2022-02-23T21:21:26.585Z</time>
      </trkpt>
      <trkpt lat="42.08165" lon="21.79088">
        <ele>300.230359</ele>
        <time>2022-02-23T21:21:34.020Z</time>
      </trkpt>
      <trkpt lat="42.0819" lon="21.79023">
        <ele>302.327686</ele>
        <time>2022-02-23T21:22:00.068Z</time>
      </trkpt>
      <trkpt lat="42.08205" lon="21.7895">
        <ele>304.535109</ele>
        <time>2022-02-23T21:22:29.610Z</time>
      </trkpt>
      <trkpt lat="42.08223" lon="21.78737">
        <ele>311.448819</ele>
        <time>2022-02-23T21:23:44.731Z</time>
      </trkpt>
      <trkpt lat="42.08248" lon="21.78637">
        <ele>314.328501</ele>
        <time>2022-02-23T21:24:20.025Z</time>
      </trkpt>
      <trkpt lat="42.08318" lon="21.78424">
        <ele>319.283066</ele>
        <time>2022-02-23T21:25:34.025Z</time>
      </trkpt>
      <trkpt lat="42.08325" lon="21.78351">
        <ele>320.105627</ele>
        <time>2022-02-23T21:25:52.892Z</time>
      </trkpt>
      <trkpt lat="42.08318" lon="21.78288">
        <ele>320.820852</ele>
        <time>2022-02-23T21:26:07.018Z</time>
      </trkpt>
      <trkpt lat="42.083" lon="21.7823">
        <ele>320.642848</ele>
        <time>2022-02-23T21:26:18.582Z</time>
      </trkpt>
      <trkpt lat="42.08228" lon="21.78083">
        <ele>318.2262</ele>
        <time>2022-02-23T21:26:46.156Z</time>
      </trkpt>
      <trkpt lat="42.0817" lon="21.77981">
        <ele>315.343209</ele>
        <time>2022-02-23T21:27:04.750Z</time>
      </trkpt>
      <trkpt lat="42.08147" lon="21.77924">
        <ele>313.69093</ele>
        <time>2022-02-23T21:27:14.150Z</time>
      </trkpt>
      <trkpt lat="42.08141" lon="21.77907">
        <ele>313.224128</ele>
        <time>2022-02-23T21:27:16.789Z</time>
      </trkpt>
      <trkpt lat="42.08138" lon="21.779">
        <ele>313.02579</ele>
        <time>2022-02-23T21:27:17.849Z</time>
      </trkpt>
      <trkpt lat="42.08123" lon="21.77845">
        <ele>311.54372</ele>
        <time>2022-02-23T21:27:26.132Z</time>
      </trkpt>
      <trkpt lat="42.0811" lon="21.77755">
        <ele>309.15461</ele>
        <time>2022-02-23T21:27:39.102Z</time>
      </trkpt>
      <trkpt lat="42.08109" lon="21.77708">
        <ele>307.943169</ele>
        <time>2022-02-23T21:27:45.609Z</time>
      </trkpt>
      <trkpt lat="42.08116" lon="21.77639">
        <ele>306.118846</ele>
        <time>2022-02-23T21:27:55.452Z</time>
      </trkpt>
      <trkpt lat="42.08138" lon="21.77543">
        <ele>304.918056</ele>
        <time>2022-02-23T21:28:10.956Z</time>
      </trkpt>
      <trkpt lat="42.08171" lon="21.7747">
        <ele>304.343715</ele>
        <time>2022-02-23T21:28:26.124Z</time>
      </trkpt>
      <trkpt lat="42.08187" lon="21.77445">
        <ele>304.126676</ele>
        <time>2022-02-23T21:28:32.145Z</time>
      </trkpt>
      <trkpt lat="42.08206" lon="21.77418">
        <ele>303.880443</ele>
        <time>2022-02-23T21:28:40.362Z</time>
      </trkpt>
      <trkpt lat="42.08251" lon="21.77373">
        <ele>304.576886</ele>
        <time>2022-02-23T21:28:57.458Z</time>
      </trkpt>
      <trkpt lat="42.08296" lon="21.77342">
        <ele>305.441707</ele>
        <time>2022-02-23T21:29:15.257Z</time>
      </trkpt>
      <trkpt lat="42.08332" lon="21.77322">
        <ele>306.119213</ele>
        <time>2022-02-23T21:29:30.613Z</time>
      </trkpt>
      <trkpt lat="42.08449" lon="21.77286">
        <ele>308.96992</ele>
        <time>2022-02-23T21:30:15.955Z</time>
      </trkpt>
      <trkpt lat="42.08491" lon="21.77265">
        <ele>310.197607</ele>
        <time>2022-02-23T21:30:34.661Z</time>
      </trkpt>
      <trkpt lat="42.08525" lon="21.77233">
        <ele>311.317069</ele>
        <time>2022-02-23T21:30:52.241Z</time>
      </trkpt>
      <trkpt lat="42.08549" lon="21.772">
        <ele>311.983583</ele>
        <time>2022-02-23T21:31:06.854Z</time>
      </trkpt>
      <trkpt lat="42.08616" lon="21.77091">
        <ele>312.992771</ele>
        <time>2022-02-23T21:31:44.253Z</time>
      </trkpt>
      <trkpt lat="42.08653" lon="21.77054">
        <ele>313.436808</ele>
        <time>2022-02-23T21:31:55.589Z</time>
      </trkpt>
      <trkpt lat="42.08698" lon="21.77029">
        <ele>312.538069</ele>
        <time>2022-02-23T21:32:05.625Z</time>
      </trkpt>
      <trkpt lat="42.08769" lon="21.77022">
        <ele>310.486639</ele>
        <time>2022-02-23T21:32:19.572Z</time>
      </trkpt>
      <trkpt lat="42.08838" lon="21.7703">
        <ele>308.510879</ele>
        <time>2022-02-23T21:32:32.576Z</time>
      </trkpt>
      <trkpt lat="42.091" lon="21.77057">
        <ele>305.342899</ele>
        <time>2022-02-23T21:33:29.084Z</time>
      </trkpt>
      <trkpt lat="42.0915" lon="21.77053">
        <ele>305.675387</ele>
        <time>2022-02-23T21:33:47.059Z</time>
      </trkpt>
      <trkpt lat="42.09202" lon="21.77025">
        <ele>306.11373</ele>
        <time>2022-02-23T21:34:10.042Z</time>
      </trkpt>
      <trkpt lat="42.09256" lon="21.76962">
        <ele>307.467343</ele>
        <time>2022-02-23T21:34:40.554Z</time>
      </trkpt>
      <trkpt lat="42.09286" lon="21.76914">
        <ele>308.336062</ele>
        <time>2022-02-23T21:34:59.561Z</time>
      </trkpt>
      <trkpt lat="42.09597" lon="21.7639">
        <ele>306.370716</ele>
        <time>2022-02-23T21:37:01.954Z</time>
      </trkpt>
      <trkpt lat="42.09625" lon="21.76344">
        <ele>305.692294</ele>
        <time>2022-02-23T21:37:11.109Z</time>
      </trkpt>
      <trkpt lat="42.09637" lon="21.76323">
        <ele>305.400608</ele>
        <time>2022-02-23T21:37:14.976Z</time>
      </trkpt>
      <trkpt lat="42.09668" lon="21.76274">
        <ele>304.638504</ele>
        <time>2022-02-23T21:37:24.848Z</time>
      </trkpt>
      <trkpt lat="42.09675" lon="21.76261">
        <ele>304.427656</ele>
        <time>2022-02-23T21:37:27.144Z</time>
      </trkpt>
      <trkpt lat="42.09719" lon="21.76195">
        <ele>303.241521</ele>
        <time>2022-02-23T21:37:40.943Z</time>
      </trkpt>
      <trkpt lat="42.09732" lon="21.76179">
        <ele>302.928775</ele>
        <time>2022-02-23T21:37:44.595Z</time>
      </trkpt>
      <trkpt lat="42.09738" lon="21.76173">
        <ele>302.799761</ele>
        <time>2022-02-23T21:37:46.213Z</time>
      </trkpt>
      <trkpt lat="42.09756" lon="21.76155">
        <ele>302.393163</ele>
        <time>2022-02-23T21:37:51.012Z</time>
      </trkpt>
      <trkpt lat="42.09772" lon="21.76141">
        <ele>302.059108</ele>
        <time>2022-02-23T21:37:55.311Z</time>
      </trkpt>
      <trkpt lat="42.09781" lon="21.76132">
        <ele>301.851672</ele>
        <time>2022-02-23T21:37:57.741Z</time>
      </trkpt>
      <trkpt lat="42.09908" lon="21.76022">
        <ele>301.507679</ele>
        <time>2022-02-23T21:38:37.564Z</time>
      </trkpt>
      <trkpt lat="42.09934" lon="21.75997">
        <ele>301.472396</ele>
        <time>2022-02-23T21:38:47.312Z</time>
      </trkpt>
      <trkpt lat="42.09964" lon="21.7597">
        <ele>301.365404</ele>
        <time>2022-02-23T21:38:57.122Z</time>
      </trkpt>
      <trkpt lat="42.09991" lon="21.75941">
        <ele>301.241277</ele>
        <time>2022-02-23T21:39:06.463Z</time>
      </trkpt>
      <trkpt lat="42.10024" lon="21.75891">
        <ele>301.065559</ele>
        <time>2022-02-23T21:39:18.587Z</time>
      </trkpt>
      <trkpt lat="42.10034" lon="21.75872">
        <ele>301.0049</ele>
        <time>2022-02-23T21:39:23.829Z</time>
      </trkpt>
      <trkpt lat="42.10049" lon="21.75873">
        <ele>300.953289</ele>
        <time>2022-02-23T21:39:27.018Z</time>
      </trkpt>
      <trkpt lat="42.10063" lon="21.7587">
        <ele>300.901401</ele>
        <time>2022-02-23T21:39:31.354Z</time>
      </trkpt>
      <trkpt lat="42.10081" lon="21.75856">
        <ele>300.828725</ele>
        <time>2022-02-23T21:39:36.059Z</time>
      </trkpt>
      <trkpt lat="42.10129" lon="21.75811">
        <ele>300.214121</ele>
        <time>2022-02-23T21:39:50.482Z</time>
      </trkpt>
      <trkpt lat="42.10158" lon="21.75772">
        <ele>299.783282</ele>
        <time>2022-02-23T21:39:59.787Z</time>
      </trkpt>
      <trkpt lat="42.10191" lon="21.75746">
        <ele>299.376711</ele>
        <time>2022-02-23T21:40:08.566Z</time>
      </trkpt>
      <trkpt lat="42.10325" lon="21.75675">
        <ele>298.48379</ele>
        <time>2022-02-23T21:40:45.474Z</time>
      </trkpt>
      <trkpt lat="42.10369" lon="21.75646">
        <ele>298.270941</ele>
        <time>2022-02-23T21:40:58.519Z</time>
      </trkpt>
      <trkpt lat="42.10415" lon="21.75628">
        <ele>298.157713</ele>
        <time>2022-02-23T21:41:11.493Z</time>
      </trkpt>
      <trkpt lat="42.10435" lon="21.75622">
        <ele>298.17451</ele>
        <time>2022-02-23T21:41:16.859Z</time>
      </trkpt>
      <trkpt lat="42.1044" lon="21.7562">
        <ele>298.179202</ele>
        <time>2022-02-23T21:41:18.289Z</time>
      </trkpt>
      <trkpt lat="42.10472" lon="21.75611">
        <ele>298.207127</ele>
        <time>2022-02-23T21:41:27.360Z</time>
      </trkpt>
      <trkpt lat="42.10492" lon="21.75604">
        <ele>298.224665</ele>
        <time>2022-02-23T21:41:33.150Z</time>
      </trkpt>
      <trkpt lat="42.10511" lon="21.75596">
        <ele>298.241678</ele>
        <time>2022-02-23T21:41:38.729Z</time>
      </trkpt>
      <trkpt lat="42.10519" lon="21.75593">
        <ele>298.248546</ele>
        <time>2022-02-23T21:41:41.073Z</time>
      </trkpt>
      <trkpt lat="42.1055" lon="21.75581">
        <ele>298.275758</ele>
        <time>2022-02-23T21:41:50.358Z</time>
      </trkpt>
      <trkpt lat="42.1058" lon="21.75575">
        <ele>298.401327</ele>
        <time>2022-02-23T21:41:59.309Z</time>
      </trkpt>
      <trkpt lat="42.10607" lon="21.75571">
        <ele>298.74034</ele>
        <time>2022-02-23T21:42:07.682Z</time>
      </trkpt>
      <trkpt lat="42.10618" lon="21.75569">
        <ele>298.886393</ele>
        <time>2022-02-23T21:42:11.190Z</time>
      </trkpt>
      <trkpt lat="42.10628" lon="21.75566">
        <ele>299.007087</ele>
        <time>2022-02-23T21:42:14.279Z</time>
      </trkpt>
      <trkpt lat="42.10644" lon="21.75562">
        <ele>299.21751</ele>
        <time>2022-02-23T21:42:19.831Z</time>
      </trkpt>
      <trkpt lat="42.10668" lon="21.75553">
        <ele>299.525967</ele>
        <time>2022-02-23T21:42:28.040Z</time>
      </trkpt>
      <trkpt lat="42.10682" lon="21.75544">
        <ele>299.725959</ele>
        <time>2022-02-23T21:42:33.862Z</time>
      </trkpt>
      <trkpt lat="42.10692" lon="21.75537">
        <ele>299.863037</ele>
        <time>2022-02-23T21:42:37.611Z</time>
      </trkpt>
      <trkpt lat="42.10718" lon="21.75514">
        <ele>300.25439</ele>
        <time>2022-02-23T21:42:48.730Z</time>
      </trkpt>
      <trkpt lat="42.10721" lon="21.75512">
        <ele>300.298328</ele>
        <time>2022-02-23T21:42:49.937Z</time>
      </trkpt>
      <trkpt lat="42.10726" lon="21.75508">
        <ele>300.377452</ele>
        <time>2022-02-23T21:42:52.062Z</time>
      </trkpt>
      <trkpt lat="42.10729" lon="21.75492">
        <ele>300.526467</ele>
        <time>2022-02-23T21:42:56.452Z</time>
      </trkpt>
      <trkpt lat="42.10735" lon="21.75478">
        <ele>300.756547</ele>
        <time>2022-02-23T21:43:01.146Z</time>
      </trkpt>
      <trkpt lat="42.10745" lon="21.75456">
        <ele>301.164955</ele>
        <time>2022-02-23T21:43:08.329Z</time>
      </trkpt>
      <trkpt lat="42.10754" lon="21.75437">
        <ele>301.530451</ele>
        <time>2022-02-23T21:43:15.072Z</time>
      </trkpt>
      <trkpt lat="42.10768" lon="21.75407">
        <ele>302.093754</ele>
        <time>2022-02-23T21:43:24.935Z</time>
      </trkpt>
      <trkpt lat="42.10772" lon="21.75399">
        <ele>302.247538</ele>
        <time>2022-02-23T21:43:27.868Z</time>
      </trkpt>
      <trkpt lat="42.10794" lon="21.7534">
        <ele>303.302077</ele>
        <time>2022-02-23T21:43:46.757Z</time>
      </trkpt>
      <trkpt lat="42.10798" lon="21.75308">
        <ele>303.817809</ele>
        <time>2022-02-23T21:43:55.947Z</time>
      </trkpt>
      <trkpt lat="42.10799" lon="21.75302">
        <ele>303.902416</ele>
        <time>2022-02-23T21:43:57.818Z</time>
      </trkpt>
      <trkpt lat="42.10814" lon="21.7525">
        <ele>304.647156</ele>
        <time>2022-02-23T21:44:13.923Z</time>
      </trkpt>
      <trkpt lat="42.1086" lon="21.75169">
        <ele>305.633695</ele>
        <time>2022-02-23T21:44:41.067Z</time>
      </trkpt>
      <trkpt lat="42.1088" lon="21.75112">
        <ele>306.248142</ele>
        <time>2022-02-23T21:44:56.730Z</time>
      </trkpt>
      <trkpt lat="42.10879" lon="21.75102">
        <ele>306.346922</ele>
        <time>2022-02-23T21:44:59.623Z</time>
      </trkpt>
      <trkpt lat="42.10894" lon="21.7509">
        <ele>306.576042</ele>
        <time>2022-02-23T21:45:04.439Z</time>
      </trkpt>
      <trkpt lat="42.10899" lon="21.75087">
        <ele>306.644417</ele>
        <time>2022-02-23T21:45:05.739Z</time>
      </trkpt>
      <trkpt lat="42.11003" lon="21.75016">
        <ele>306.696609</ele>
        <time>2022-02-23T21:45:36.964Z</time>
      </trkpt>
      <trkpt lat="42.11021" lon="21.75004">
        <ele>306.68396</ele>
        <time>2022-02-23T21:45:42.109Z</time>
      </trkpt>
      <trkpt lat="42.11027" lon="21.75">
        <ele>306.679467</ele>
        <time>2022-02-23T21:45:43.709Z</time>
      </trkpt>
      <trkpt lat="42.1106" lon="21.74979">
        <ele>306.656644</ele>
        <time>2022-02-23T21:45:52.678Z</time>
      </trkpt>
      <trkpt lat="42.11102" lon="21.7495">
        <ele>306.691114</ele>
        <time>2022-02-23T21:46:04.867Z</time>
      </trkpt>
      <trkpt lat="42.11142" lon="21.74923">
        <ele>306.73714</ele>
        <time>2022-02-23T21:46:16.710Z</time>
      </trkpt>
      <trkpt lat="42.11168" lon="21.74905">
        <ele>306.768073</ele>
        <time>2022-02-23T21:46:24.716Z</time>
      </trkpt>
      <trkpt lat="42.11223" lon="21.74869">
        <ele>306.831965</ele>
        <time>2022-02-23T21:46:42.057Z</time>
      </trkpt>
      <trkpt lat="42.11263" lon="21.74844">
        <ele>307.238938</ele>
        <time>2022-02-23T21:46:55.113Z</time>
      </trkpt>
      <trkpt lat="42.11276" lon="21.74835">
        <ele>307.398039</ele>
        <time>2022-02-23T21:46:59.544Z</time>
      </trkpt>
      <trkpt lat="42.11329" lon="21.74799">
        <ele>308.048388</ele>
        <time>2022-02-23T21:47:18.764Z</time>
      </trkpt>
      <trkpt lat="42.11338" lon="21.74792">
        <ele>308.158277</ele>
        <time>2022-02-23T21:47:21.915Z</time>
      </trkpt>
      <trkpt lat="42.11383" lon="21.74764">
        <ele>308.692196</ele>
        <time>2022-02-23T21:47:37.879Z</time>
      </trkpt>
      <trkpt lat="42.11512" lon="21.74677">
        <ele>311.27148</ele>
        <time>2022-02-23T21:48:29.227Z</time>
      </trkpt>
      <trkpt lat="42.11548" lon="21.74645">
        <ele>312.052152</ele>
        <time>2022-02-23T21:48:44.864Z</time>
      </trkpt>
      <trkpt lat="42.11569" lon="21.74623">
        <ele>312.619978</ele>
        <time>2022-02-23T21:48:54.793Z</time>
      </trkpt>
      <trkpt lat="42.11629" lon="21.74559">
        <ele>314.254421</ele>
        <time>2022-02-23T21:49:22.427Z</time>
      </trkpt>
      <trkpt lat="42.11638" lon="21.7455">
        <ele>314.493954</ele>
        <time>2022-02-23T21:49:26.629Z</time>
      </trkpt>
      <trkpt lat="42.11705" lon="21.74478">
        <ele>316.707631</ele>
        <time>2022-02-23T21:49:57.859Z</time>
      </trkpt>
      <trkpt lat="42.11726" lon="21.74457">
        <ele>317.8191</ele>
        <time>2022-02-23T21:50:08.165Z</time>
      </trkpt>
      <trkpt lat="42.1183" lon="21.74349">
        <ele>323.270296</ele>
        <time>2022-02-23T21:51:11.830Z</time>
      </trkpt>
      <trkpt lat="42.11842" lon="21.74336">
        <ele>324.186071</ele>
        <time>2022-02-23T21:51:21.614Z</time>
      </trkpt>
      <trkpt lat="42.11815" lon="21.74274">
        <ele>327.467978</ele>
        <time>2022-02-23T21:51:52.003Z</time>
      </trkpt>
      <trkpt lat="42.11833" lon="21.74261">
        <ele>328.766563</ele>
        <time>2022-02-23T21:52:05.353Z</time>
      </trkpt>
      <trkpt lat="42.11881" lon="21.74208">
        <ele>332.582447</ele>
        <time>2022-02-23T21:52:42.558Z</time>
      </trkpt>
      <trkpt lat="42.11893" lon="21.74162">
        <ele>334.660875</ele>
        <time>2022-02-23T21:53:03.938Z</time>
      </trkpt>
      <trkpt lat="42.11889" lon="21.74111">
        <ele>335.755102</ele>
        <time>2022-02-23T21:53:23.835Z</time>
      </trkpt>
      <trkpt lat="42.1186" lon="21.74046">
        <ele>337.396273</ele>
        <time>2022-02-23T21:53:48.877Z</time>
      </trkpt>
      <trkpt lat="42.11858" lon="21.74017">
        <ele>338.026203</ele>
        <time>2022-02-23T21:53:56.849Z</time>
      </trkpt>
      <trkpt lat="42.11867" lon="21.73993">
        <ele>338.617062</ele>
        <time>2022-02-23T21:54:04.957Z</time>
      </trkpt>
      <trkpt lat="42.11872" lon="21.73986">
        <ele>338.822234</ele>
        <time>2022-02-23T21:54:06.761Z</time>
      </trkpt>
      <trkpt lat="42.11934" lon="21.73916">
        <ele>338.451434</ele>
        <time>2022-02-23T21:54:29.544Z</time>
      </trkpt>
      <trkpt lat="42.1195" lon="21.73888">
        <ele>337.755874</ele>
        <time>2022-02-23T21:54:35.105Z</time>
      </trkpt>
      <trkpt lat="42.11958" lon="21.73848">
        <ele>336.94634</ele>
        <time>2022-02-23T21:54:41.134Z</time>
      </trkpt>
      <trkpt lat="42.11957" lon="21.73825">
        <ele>336.492717</ele>
        <time>2022-02-23T21:54:44.721Z</time>
      </trkpt>
      <trkpt lat="42.11946" lon="21.73787">
        <ele>335.69099</ele>
        <time>2022-02-23T21:54:50.488Z</time>
      </trkpt>
      <trkpt lat="42.11938" lon="21.73773">
        <ele>335.349003</ele>
        <time>2022-02-23T21:54:53.323Z</time>
      </trkpt>
      <trkpt lat="42.11943" lon="21.73762">
        <ele>335.07906</ele>
        <time>2022-02-23T21:54:55.091Z</time>
      </trkpt>
      <trkpt lat="42.11971" lon="21.737">
        <ele>333.058637</ele>
        <time>2022-02-23T21:55:05.987Z</time>
      </trkpt>
      <trkpt lat="42.11984" lon="21.73676">
        <ele>332.234272</ele>
        <time>2022-02-23T21:55:09.956Z</time>
      </trkpt>
      <trkpt lat="42.11986" lon="21.73675">
        <ele>332.137498</ele>
        <time>2022-02-23T21:55:10.495Z</time>
      </trkpt>
      <trkpt lat="42.1199" lon="21.73675">
        <ele>331.979996</ele>
        <time>2022-02-23T21:55:11.416Z</time>
      </trkpt>
      <trkpt lat="42.11989" lon="21.73658">
        <ele>331.499294</ele>
        <time>2022-02-23T21:55:14.277Z</time>
      </trkpt>
      <trkpt lat="42.1199" lon="21.73626">
        <ele>330.590916</ele>
        <time>2022-02-23T21:55:18.711Z</time>
      </trkpt>
      <trkpt lat="42.11992" lon="21.73609">
        <ele>330.102137</ele>
        <time>2022-02-23T21:55:21.600Z</time>
      </trkpt>
      <trkpt lat="42.12015" lon="21.73506">
        <ele>327.775634</ele>
        <time>2022-02-23T21:55:37.710Z</time>
      </trkpt>
      <trkpt lat="42.12049" lon="21.73438">
        <ele>326.990854</ele>
        <time>2022-02-23T21:55:52.377Z</time>
      </trkpt>
      <trkpt lat="42.12075" lon="21.73408">
        <ele>326.553657</ele>
        <time>2022-02-23T21:56:00.889Z</time>
      </trkpt>
      <trkpt lat="42.12127" lon="21.73367">
        <ele>325.825846</ele>
        <time>2022-02-23T21:56:16.074Z</time>
      </trkpt>
      <trkpt lat="42.12376" lon="21.73225">
        <ele>327.739976</ele>
        <time>2022-02-23T21:57:35.223Z</time>
      </trkpt>
      <trkpt lat="42.12431" lon="21.73193">
        <ele>328.772762</ele>
        <time>2022-02-23T21:57:59.590Z</time>
      </trkpt>
      <trkpt lat="42.12419" lon="21.73187">
        <ele>328.999503</ele>
        <time>2022-02-23T21:58:06.264Z</time>
      </trkpt>
      <trkpt lat="42.1239" lon="21.7317">
        <ele>329.980693</ele>
        <time>2022-02-23T21:58:20.094Z</time>
      </trkpt>
      <trkpt lat="42.12373" lon="21.73157">
        <ele>330.792227</ele>
        <time>2022-02-23T21:58:29.660Z</time>
      </trkpt>
      <trkpt lat="42.12407" lon="21.73108">
        <ele>332.848121</ele>
        <time>2022-02-23T21:58:53.903Z</time>
      </trkpt>
      <trkpt lat="42.12494" lon="21.72986">
        <ele>337.591136</ele>
        <time>2022-02-23T21:59:55.081Z</time>
      </trkpt>
      <trkpt lat="42.12559" lon="21.72894">
        <ele>340.412584</ele>
        <time>2022-02-23T22:00:34.466Z</time>
      </trkpt>
      <trkpt lat="42.12679" lon="21.72712">
        <ele>344.058165</ele>
        <time>2022-02-23T22:01:42.637Z</time>
      </trkpt>
      <trkpt lat="42.1278" lon="21.72545">
        <ele>345.081917</ele>
        <time>2022-02-23T22:02:31.080Z</time>
      </trkpt>
      <trkpt lat="42.12789" lon="21.7253">
        <ele>345.108249</ele>
        <time>2022-02-23T22:02:34.838Z</time>
      </trkpt>
      <trkpt lat="42.12847" lon="21.72439">
        <ele>345.001556</ele>
        <time>2022-02-23T22:02:58.376Z</time>
      </trkpt>
      <trkpt lat="42.12916" lon="21.72332">
        <ele>344.333084</ele>
        <time>2022-02-23T22:03:24.194Z</time>
      </trkpt>
      <trkpt lat="42.12931" lon="21.72312">
        <ele>344.201132</ele>
        <time>2022-02-23T22:03:29.443Z</time>
      </trkpt>
      <trkpt lat="42.12933" lon="21.72309">
        <ele>344.178877</ele>
        <time>2022-02-23T22:03:30.575Z</time>
      </trkpt>
      <trkpt lat="42.12942" lon="21.72309">
        <ele>344.123515</ele>
        <time>2022-02-23T22:03:32.699Z</time>
      </trkpt>
      <trkpt lat="42.12948" lon="21.7231">
        <ele>344.083846</ele>
        <time>2022-02-23T22:03:34.458Z</time>
      </trkpt>
      <trkpt lat="42.12955" lon="21.72313">
        <ele>344.049888</ele>
        <time>2022-02-23T22:03:36.056Z</time>
      </trkpt>
      <trkpt lat="42.1296" lon="21.72318">
        <ele>344.024262</ele>
        <time>2022-02-23T22:03:37.660Z</time>
      </trkpt>
      <trkpt lat="42.12963" lon="21.72309">
        <ele>343.993688</ele>
        <time>2022-02-23T22:03:40.025Z</time>
      </trkpt>
      <trkpt lat="42.12986" lon="21.72259">
        <ele>343.821138</ele>
        <time>2022-02-23T22:03:50.685Z</time>
      </trkpt>
      <trkpt lat="42.1303" lon="21.72165">
        <ele>343.493016</ele>
        <time>2022-02-23T22:04:10.790Z</time>
      </trkpt>
      <trkpt lat="42.13062" lon="21.72096">
        <ele>343.327506</ele>
        <time>2022-02-23T22:04:26.752Z</time>
      </trkpt>
      <trkpt lat="42.13101" lon="21.72017">
        <ele>343.266276</ele>
        <time>2022-02-23T22:04:45.755Z</time>
      </trkpt>
      <trkpt lat="42.13128" lon="21.71958">
        <ele>343.22093</ele>
        <time>2022-02-23T22:04:59.417Z</time>
      </trkpt>
      <trkpt lat="42.13148" lon="21.71915">
        <ele>343.180259</ele>
        <time>2022-02-23T22:05:08.895Z</time>
      </trkpt>
      <trkpt lat="42.13176" lon="21.7186">
        <ele>343.028206</ele>
        <time>2022-02-23T22:05:21.518Z</time>
      </trkpt>
      <trkpt lat="42.13212" lon="21.71777">
        <ele>342.808493</ele>
        <time>2022-02-23T22:05:39.622Z</time>
      </trkpt>
      <trkpt lat="42.13221" lon="21.71755">
        <ele>342.750273</ele>
        <time>2022-02-23T22:05:44.205Z</time>
      </trkpt>
      <trkpt lat="42.13261" lon="21.71675">
        <ele>342.709203</ele>
        <time>2022-02-23T22:06:02.402Z</time>
      </trkpt>
      <trkpt lat="42.13278" lon="21.71614">
        <ele>342.809061</ele>
        <time>2022-02-23T22:06:15.287Z</time>
      </trkpt>
      <trkpt lat="42.13284" lon="21.71576">
        <ele>342.867617</ele>
        <time>2022-02-23T22:06:23.188Z</time>
      </trkpt>
      <trkpt lat="42.13287" lon="21.71498">
        <ele>342.987467</ele>
        <time>2022-02-23T22:06:40.252Z</time>
      </trkpt>
      <trkpt lat="42.1329" lon="21.71441">
        <ele>343.252208</ele>
        <time>2022-02-23T22:06:52.968Z</time>
      </trkpt>
      <trkpt lat="42.13294" lon="21.71384">
        <ele>343.57451</ele>
        <time>2022-02-23T22:07:05.979Z</time>
      </trkpt>
      <trkpt lat="42.133" lon="21.71279">
        <ele>344.160724</ele>
        <time>2022-02-23T22:07:29.767Z</time>
      </trkpt>
      <trkpt lat="42.13302" lon="21.71253">
        <ele>344.307786</ele>
        <time>2022-02-23T22:07:35.704Z</time>
      </trkpt>
      <trkpt lat="42.13308" lon="21.71218">
        <ele>344.523321</ele>
        <time>2022-02-23T22:07:43.858Z</time>
      </trkpt>
      <trkpt lat="42.13354" lon="21.71011">
        <ele>345.815565</ele>
        <time>2022-02-23T22:08:32.631Z</time>
      </trkpt>
      <trkpt lat="42.13373" lon="21.70936">
        <ele>346.398719</ele>
        <time>2022-02-23T22:08:50.872Z</time>
      </trkpt>
      <trkpt lat="42.13382" lon="21.70899">
        <ele>346.680797</ele>
        <time>2022-02-23T22:08:59.701Z</time>
      </trkpt>
      <trkpt lat="42.13392" lon="21.70855">
        <ele>347.023812</ele>
        <time>2022-02-23T22:09:10.532Z</time>
      </trkpt>
      <trkpt lat="42.13402" lon="21.70799">
        <ele>347.450599</ele>
        <time>2022-02-23T22:09:24.056Z</time>
      </trkpt>
      <trkpt lat="42.1342" lon="21.70669">
        <ele>348.53949</ele>
        <time>2022-02-23T22:09:56.077Z</time>
      </trkpt>
      <trkpt lat="42.13423" lon="21.70647">
        <ele>348.729839</ele>
        <time>2022-02-23T22:10:01.181Z</time>
      </trkpt>
      <trkpt lat="42.13427" lon="21.70622">
        <ele>348.936838</ele>
        <time>2022-02-23T22:10:07.391Z</time>
      </trkpt>
      <trkpt lat="42.13431" lon="21.70597">
        <ele>349.150847</ele>
        <time>2022-02-23T22:10:13.203Z</time>
      </trkpt>
      <trkpt lat="42.13434" lon="21.70584">
        <ele>349.266088</ele>
        <time>2022-02-23T22:10:16.748Z</time>
      </trkpt>
      <trkpt lat="42.13447" lon="21.70553">
        <ele>349.561458</ele>
        <time>2022-02-23T22:10:24.885Z</time>
      </trkpt>
      <trkpt lat="42.13452" lon="21.70549">
        <ele>349.630257</ele>
        <time>2022-02-23T22:10:27.059Z</time>
      </trkpt>
      <trkpt lat="42.13456" lon="21.70547">
        <ele>349.692668</ele>
        <time>2022-02-23T22:10:28.488Z</time>
      </trkpt>
      <trkpt lat="42.1346" lon="21.70543">
        <ele>349.768996</ele>
        <time>2022-02-23T22:10:30.063Z</time>
      </trkpt>
      <trkpt lat="42.13465" lon="21.70532">
        <ele>349.919082</ele>
        <time>2022-02-23T22:10:32.989Z</time>
      </trkpt>
      <trkpt lat="42.13466" lon="21.70526">
        <ele>349.993926</ele>
        <time>2022-02-23T22:10:34.529Z</time>
      </trkpt>
      <trkpt lat="42.13466" lon="21.70521">
        <ele>350.051961</ele>
        <time>2022-02-23T22:10:35.692Z</time>
      </trkpt>
      <trkpt lat="42.13463" lon="21.70512">
        <ele>350.168679</ele>
        <time>2022-02-23T22:10:38.178Z</time>
      </trkpt>
      <trkpt lat="42.1346" lon="21.70508">
        <ele>350.226589</ele>
        <time>2022-02-23T22:10:39.479Z</time>
      </trkpt>
      <trkpt lat="42.13455" lon="21.70499">
        <ele>350.356229</ele>
        <time>2022-02-23T22:10:42.152Z</time>
      </trkpt>
      <trkpt lat="42.13448" lon="21.70482">
        <ele>350.58028</ele>
        <time>2022-02-23T22:10:46.591Z</time>
      </trkpt>
      <trkpt lat="42.13445" lon="21.7045">
        <ele>350.953441</ele>
        <time>2022-02-23T22:10:54.330Z</time>
      </trkpt>
      <trkpt lat="42.13444" lon="21.70438">
        <ele>351.101984</ele>
        <time>2022-02-23T22:10:57.311Z</time>
      </trkpt>
      <trkpt lat="42.13441" lon="21.7042">
        <ele>351.312392</ele>
        <time>2022-02-23T22:11:01.907Z</time>
      </trkpt>
      <trkpt lat="42.13436" lon="21.7041">
        <ele>351.450967</ele>
        <time>2022-02-23T22:11:04.978Z</time>
      </trkpt>
      <trkpt lat="42.13424" lon="21.70364">
        <ele>352.009208</ele>
        <time>2022-02-23T22:11:17.410Z</time>
      </trkpt>
      <trkpt lat="42.13413" lon="21.70314">
        <ele>352.760964</ele>
        <time>2022-02-23T22:11:32.351Z</time>
      </trkpt>
      <trkpt lat="42.13408" lon="21.70294">
        <ele>353.194724</ele>
        <time>2022-02-23T22:11:38.196Z</time>
      </trkpt>
      <trkpt lat="42.13403" lon="21.70273">
        <ele>353.663373</ele>
        <time>2022-02-23T22:11:44.931Z</time>
      </trkpt>
      <trkpt lat="42.13396" lon="21.70247">
        <ele>354.267189</ele>
        <time>2022-02-23T22:11:53.194Z</time>
      </trkpt>
      <trkpt lat="42.13374" lon="21.70161">
        <ele>356.187241</ele>
        <time>2022-02-23T22:12:20.120Z</time>
      </trkpt>
      <trkpt lat="42.13369" lon="21.70142">
        <ele>356.625899</ele>
        <time>2022-02-23T22:12:26.480Z</time>
      </trkpt>
      <trkpt lat="42.13365" lon="21.70128">
        <ele>356.948198</ele>
        <time>2022-02-23T22:12:31.065Z</time>
      </trkpt>
      <trkpt lat="42.13359" lon="21.70104">
        <ele>357.479418</ele>
        <time>2022-02-23T22:12:38.586Z</time>
      </trkpt>
      <trkpt lat="42.13357" lon="21.70098">
        <ele>357.631734</ele>
        <time>2022-02-23T22:12:40.941Z</time>
      </trkpt>
      <trkpt lat="42.13315" lon="21.69939">
        <ele>362.586372</ele>
        <time>2022-02-23T22:13:38.170Z</time>
      </trkpt>
      <trkpt lat="42.13311" lon="21.69923">
        <ele>363.08995</ele>
        <time>2022-02-23T22:13:43.983Z</time>
      </trkpt>
      <trkpt lat="42.13268" lon="21.69753">
        <ele>368.507139</ele>
        <time>2022-02-23T22:14:47.132Z</time>
      </trkpt>
      <trkpt lat="42.13215" lon="21.69545">
        <ele>373.646949</ele>
        <time>2022-02-23T22:16:01.694Z</time>
      </trkpt>
      <trkpt lat="42.13212" lon="21.69532">
        <ele>373.846548</ele>
        <time>2022-02-23T22:16:05.403Z</time>
      </trkpt>
      <trkpt lat="42.1315" lon="21.69288">
        <ele>375.272896</ele>
        <time>2022-02-23T22:17:00.751Z</time>
      </trkpt>
      <trkpt lat="42.13114" lon="21.69146">
        <ele>374.582099</ele>
        <time>2022-02-23T22:17:25.013Z</time>
      </trkpt>
      <trkpt lat="42.13101" lon="21.69096">
        <ele>374.187998</ele>
        <time>2022-02-23T22:17:33.537Z</time>
      </trkpt>
      <trkpt lat="42.13084" lon="21.69029">
        <ele>373.658193</ele>
        <time>2022-02-23T22:17:45.407Z</time>
      </trkpt>
      <trkpt lat="42.13076" lon="21.69002">
        <ele>373.435836</ele>
        <time>2022-02-23T22:17:50.725Z</time>
      </trkpt>
      <trkpt lat="42.13071" lon="21.68982">
        <ele>373.27916</ele>
        <time>2022-02-23T22:17:54.397Z</time>
      </trkpt>
      <trkpt lat="42.1306" lon="21.68959">
        <ele>373.078803</ele>
        <time>2022-02-23T22:17:59.461Z</time>
      </trkpt>
      <trkpt lat="42.13056" lon="21.68951">
        <ele>373.122919</ele>
        <time>2022-02-23T22:18:01.665Z</time>
      </trkpt>
      <trkpt lat="42.13019" lon="21.68892">
        <ele>374.102871</ele>
        <time>2022-02-23T22:18:17.057Z</time>
      </trkpt>
      <trkpt lat="42.12947" lon="21.68786">
        <ele>375.92486</ele>
        <time>2022-02-23T22:18:57.415Z</time>
      </trkpt>
      <trkpt lat="42.12898" lon="21.68715">
        <ele>378.860431</ele>
        <time>2022-02-23T22:19:30.376Z</time>
      </trkpt>
      <trkpt lat="42.12864" lon="21.68664">
        <ele>381.155766</ele>
        <time>2022-02-23T22:19:54.384Z</time>
      </trkpt>
      <trkpt lat="42.12856" lon="21.68656">
        <ele>381.619496</ele>
        <time>2022-02-23T22:19:59.624Z</time>
      </trkpt>
      <trkpt lat="42.12848" lon="21.6865">
        <ele>382.034907</ele>
        <time>2022-02-23T22:20:04.724Z</time>
      </trkpt>
      <trkpt lat="42.12843" lon="21.68646">
        <ele>382.26918</ele>
        <time>2022-02-23T22:20:07.458Z</time>
      </trkpt>
      <trkpt lat="42.12822" lon="21.68636">
        <ele>383.285243</ele>
        <time>2022-02-23T22:20:18.836Z</time>
      </trkpt>
      <trkpt lat="42.12756" lon="21.68606">
        <ele>387.157126</ele>
        <time>2022-02-23T22:20:56.532Z</time>
      </trkpt>
      <trkpt lat="42.12749" lon="21.68603">
        <ele>387.599762</ele>
        <time>2022-02-23T22:21:01.395Z</time>
      </trkpt>
      <trkpt lat="42.12743" lon="21.68598">
        <ele>388.032725</ele>
        <time>2022-02-23T22:21:05.690Z</time>
      </trkpt>
      <trkpt lat="42.12734" lon="21.68587">
        <ele>388.72594</ele>
        <time>2022-02-23T22:21:11.727Z</time>
      </trkpt>
      <trkpt lat="42.12728" lon="21.68573">
        <ele>389.480895</ele>
        <time>2022-02-23T22:21:19.114Z</time>
      </trkpt>
      <trkpt lat="42.12723" lon="21.68553">
        <ele>390.426893</ele>
        <time>2022-02-23T22:21:28.409Z</time>
      </trkpt>
      <trkpt lat="42.1272" lon="21.68527">
        <ele>391.60058</ele>
        <time>2022-02-23T22:21:38.938Z</time>
      </trkpt>
      <trkpt lat="42.12717" lon="21.68448">
        <ele>395.092254</ele>
        <time>2022-02-23T22:22:10.931Z</time>
      </trkpt>
      <trkpt lat="42.12717" lon="21.68442">
        <ele>395.352467</ele>
        <time>2022-02-23T22:22:13.354Z</time>
      </trkpt>
      <trkpt lat="42.12717" lon="21.68401">
        <ele>397.048499</ele>
        <time>2022-02-23T22:22:31.422Z</time>
      </trkpt>
      <trkpt lat="42.12716" lon="21.68304">
        <ele>401.068917</ele>
        <time>2022-02-23T22:23:10.661Z</time>
      </trkpt>
      <trkpt lat="42.12706" lon="21.68223">
        <ele>404.436697</ele>
        <time>2022-02-23T22:23:41.987Z</time>
      </trkpt>
      <trkpt lat="42.12701" lon="21.68171">
        <ele>406.154355</ele>
        <time>2022-02-23T22:24:01.294Z</time>
      </trkpt>
      <trkpt lat="42.12693" lon="21.68109">
        <ele>408.013093</ele>
        <time>2022-02-23T22:24:23.868Z</time>
      </trkpt>
      <trkpt lat="42.12688" lon="21.68076">
        <ele>409.014569</ele>
        <time>2022-02-23T22:24:35.762Z</time>
      </trkpt>
      <trkpt lat="42.12685" lon="21.68049">
        <ele>409.806743</ele>
        <time>2022-02-23T22:24:44.676Z</time>
      </trkpt>
      <trkpt lat="42.12673" lon="21.67957">
        <ele>412.406053</ele>
        <time>2022-02-23T22:25:13.595Z</time>
      </trkpt>
      <trkpt lat="42.1267" lon="21.67933">
        <ele>412.793769</ele>
        <time>2022-02-23T22:25:20.704Z</time>
      </trkpt>
      <trkpt lat="42.12661" lon="21.67866">
        <ele>413.884969</ele>
        <time>2022-02-23T22:25:40.738Z</time>
      </trkpt>
      <trkpt lat="42.12652" lon="21.67789">
        <ele>415.131527</ele>
        <time>2022-02-23T22:26:01.981Z</time>
      </trkpt>
      <trkpt lat="42.12634" lon="21.67646">
        <ele>416.992284</ele>
        <time>2022-02-23T22:26:36.396Z</time>
      </trkpt>
      <trkpt lat="42.12617" lon="21.67511">
        <ele>418.448089</ele>
        <time>2022-02-23T22:27:10.440Z</time>
      </trkpt>
      <trkpt lat="42.12606" lon="21.67433">
        <ele>419.777455</ele>
        <time>2022-02-23T22:27:31.286Z</time>
      </trkpt>
      <trkpt lat="42.12599" lon="21.6737">
        <ele>421.015964</ele>
        <time>2022-02-23T22:27:48.886Z</time>
      </trkpt>
      <trkpt lat="42.12597" lon="21.67352">
        <ele>421.353374</ele>
        <time>2022-02-23T22:27:54.428Z</time>
      </trkpt>
      <trkpt lat="42.12591" lon="21.67327">
        <ele>421.865916</ele>
        <time>2022-02-23T22:28:01.774Z</time>
      </trkpt>
      <trkpt lat="42.12578" lon="21.67301">
        <ele>422.466047</ele>
        <time>2022-02-23T22:28:11.421Z</time>
      </trkpt>
      <trkpt lat="42.12452" lon="21.67124">
        <ele>429.307848</ele>
        <time>2022-02-23T22:29:33.380Z</time>
      </trkpt>
      <trkpt lat="42.12404" lon="21.67054">
        <ele>432.485855</ele>
        <time>2022-02-23T22:30:08.763Z</time>
      </trkpt>
      <trkpt lat="42.12372" lon="21.67011">
        <ele>434.721342</ele>
        <time>2022-02-23T22:30:31.624Z</time>
      </trkpt>
      <trkpt lat="42.12351" lon="21.66981">
        <ele>436.262959</ele>
        <time>2022-02-23T22:30:47.215Z</time>
      </trkpt>
      <trkpt lat="42.12321" lon="21.66939">
        <ele>438.384255</ele>
        <time>2022-02-23T22:31:09.666Z</time>
      </trkpt>
      <trkpt lat="42.12238" lon="21.66819">
        <ele>443.908581</ele>
        <time>2022-02-23T22:32:11.634Z</time>
      </trkpt>
      <trkpt lat="42.12222" lon="21.66802">
        <ele>444.813052</ele>
        <time>2022-02-23T22:32:21.332Z</time>
      </trkpt>
      <trkpt lat="42.12207" lon="21.66785">
        <ele>445.665618</ele>
        <time>2022-02-23T22:32:29.839Z</time>
      </trkpt>
      <trkpt lat="42.1214" lon="21.66724">
        <ele>448.387967</ele>
        <time>2022-02-23T22:33:05.140Z</time>
      </trkpt>
      <trkpt lat="42.12113" lon="21.6669">
        <ele>449.212832</ele>
        <time>2022-02-23T22:33:20.505Z</time>
      </trkpt>
      <trkpt lat="42.11969" lon="21.66447">
        <ele>452.813353</ele>
        <time>2022-02-23T22:34:37.136Z</time>
      </trkpt>
      <trkpt lat="42.11947" lon="21.66409">
        <ele>453.174984</ele>
        <time>2022-02-23T22:34:47.229Z</time>
      </trkpt>
      <trkpt lat="42.11915" lon="21.66355">
        <ele>453.406087</ele>
        <time>2022-02-23T22:35:01.018Z</time>
      </trkpt>
      <trkpt lat="42.1188" lon="21.66308">
        <ele>453.518902</ele>
        <time>2022-02-23T22:35:14.405Z</time>
      </trkpt>
      <trkpt lat="42.11855" lon="21.66305">
        <ele>453.57608</ele>
        <time>2022-02-23T22:35:21.112Z</time>
      </trkpt>
      <trkpt lat="42.1178" lon="21.66316">
        <ele>453.78703</ele>
        <time>2022-02-23T22:35:42.569Z</time>
      </trkpt>
      <trkpt lat="42.11761" lon="21.66312">
        <ele>453.942175</ele>
        <time>2022-02-23T22:35:48.265Z</time>
      </trkpt>
      <trkpt lat="42.11751" lon="21.663">
        <ele>454.055533</ele>
        <time>2022-02-23T22:35:52.288Z</time>
      </trkpt>
      <trkpt lat="42.11733" lon="21.66271">
        <ele>454.283719</ele>
        <time>2022-02-23T22:36:00.617Z</time>
      </trkpt>
      <trkpt lat="42.11716" lon="21.66246">
        <ele>454.488962</ele>
        <time>2022-02-23T22:36:08.047Z</time>
      </trkpt>
      <trkpt lat="42.11689" lon="21.66201">
        <ele>454.843765</ele>
        <time>2022-02-23T22:36:21.383Z</time>
      </trkpt>
      <trkpt lat="42.11664" lon="21.66164">
        <ele>455.147836</ele>
        <time>2022-02-23T22:36:33.212Z</time>
      </trkpt>
      <trkpt lat="42.11632" lon="21.66106">
        <ele>455.860262</ele>
        <time>2022-02-23T22:36:50.456Z</time>
      </trkpt>
      <trkpt lat="42.11628" lon="21.66064">
        <ele>456.30212</ele>
        <time>2022-02-23T22:37:00.812Z</time>
      </trkpt>
      <trkpt lat="42.11629" lon="21.66051">
        <ele>456.439415</ele>
        <time>2022-02-23T22:37:03.770Z</time>
      </trkpt>
      <trkpt lat="42.11629" lon="21.66034">
        <ele>456.624999</ele>
        <time>2022-02-23T22:37:08.538Z</time>
      </trkpt>
      <trkpt lat="42.11625" lon="21.66008">
        <ele>456.899542</ele>
        <time>2022-02-23T22:37:14.663Z</time>
      </trkpt>
      <trkpt lat="42.11612" lon="21.65981">
        <ele>457.240624</ele>
        <time>2022-02-23T22:37:22.988Z</time>
      </trkpt>
      <trkpt lat="42.11091" lon="21.65182">
        <ele>470.804343</ele>
        <time>2022-02-23T22:42:00.104Z</time>
      </trkpt>
      <trkpt lat="42.10969" lon="21.65004">
        <ele>473.399307</ele>
        <time>2022-02-23T22:43:00.933Z</time>
      </trkpt>
      <trkpt lat="42.10707" lon="21.64643">
        <ele>476.957272</ele>
        <time>2022-02-23T22:44:57.177Z</time>
      </trkpt>
      <trkpt lat="42.10573" lon="21.64377">
        <ele>479.036602</ele>
        <time>2022-02-23T22:46:10.083Z</time>
      </trkpt>
      <trkpt lat="42.10465" lon="21.64198">
        <ele>480.741042</ele>
        <time>2022-02-23T22:47:04.646Z</time>
      </trkpt>
      <trkpt lat="42.10258" lon="21.6395">
        <ele>483.600608</ele>
        <time>2022-02-23T22:48:31.636Z</time>
      </trkpt>
      <trkpt lat="42.10146" lon="21.63843">
        <ele>485.273358</ele>
        <time>2022-02-23T22:49:17.349Z</time>
      </trkpt>
      <trkpt lat="42.1002" lon="21.63734">
        <ele>486.356077</ele>
        <time>2022-02-23T22:50:04.134Z</time>
      </trkpt>
      <trkpt lat="42.10018" lon="21.63716">
        <ele>486.438264</ele>
        <time>2022-02-23T22:50:08.020Z</time>
      </trkpt>
      <trkpt lat="42.10018" lon="21.63687">
        <ele>486.570561</ele>
        <time>2022-02-23T22:50:14.368Z</time>
      </trkpt>
      <trkpt lat="42.10028" lon="21.63621">
        <ele>486.530904</ele>
        <time>2022-02-23T22:50:27.832Z</time>
      </trkpt>
      <trkpt lat="42.10035" lon="21.63504">
        <ele>485.934288</ele>
        <time>2022-02-23T22:50:49.171Z</time>
      </trkpt>
      <trkpt lat="42.10026" lon="21.63472">
        <ele>485.760947</ele>
        <time>2022-02-23T22:50:55.252Z</time>
      </trkpt>
      <trkpt lat="42.10007" lon="21.6344">
        <ele>485.550802</ele>
        <time>2022-02-23T22:51:02.687Z</time>
      </trkpt>
      <trkpt lat="42.09957" lon="21.63416">
        <ele>485.268893</ele>
        <time>2022-02-23T22:51:15.845Z</time>
      </trkpt>
      <trkpt lat="42.0993" lon="21.63405">
        <ele>485.132391</ele>
        <time>2022-02-23T22:51:23.051Z</time>
      </trkpt>
      <trkpt lat="42.09918" lon="21.63399">
        <ele>485.067972</ele>
        <time>2022-02-23T22:51:26.461Z</time>
      </trkpt>
      <trkpt lat="42.09836" lon="21.63357">
        <ele>484.638609</ele>
        <time>2022-02-23T22:51:50.377Z</time>
      </trkpt>
      <trkpt lat="42.09825" lon="21.63346">
        <ele>484.569154</ele>
        <time>2022-02-23T22:51:53.871Z</time>
      </trkpt>
      <trkpt lat="42.09817" lon="21.63341">
        <ele>484.52403</ele>
        <time>2022-02-23T22:51:56.101Z</time>
      </trkpt>
      <trkpt lat="42.09722" lon="21.63303">
        <ele>484.015116</ele>
        <time>2022-02-23T22:52:20.541Z</time>
      </trkpt>
      <trkpt lat="42.09694" lon="21.63296">
        <ele>483.86858</ele>
        <time>2022-02-23T22:52:28.000Z</time>
      </trkpt>
      <trkpt lat="42.09695" lon="21.63257">
        <ele>483.717523</ele>
        <time>2022-02-23T22:52:35.231Z</time>
      </trkpt>
      <trkpt lat="42.09697" lon="21.63224">
        <ele>483.824233</ele>
        <time>2022-02-23T22:52:42.686Z</time>
      </trkpt>
      <trkpt lat="42.09697" lon="21.63214">
        <ele>483.903665</ele>
        <time>2022-02-23T22:52:44.249Z</time>
      </trkpt>
      <trkpt lat="42.09689" lon="21.63208">
        <ele>483.996095</ele>
        <time>2022-02-23T22:52:48.167Z</time>
      </trkpt>
      <trkpt lat="42.09612" lon="21.63175">
        <ele>484.810413</ele>
        <time>2022-02-23T22:53:12.728Z</time>
      </trkpt>
      <trkpt lat="42.09499" lon="21.63157">
        <ele>486.847809</ele>
        <time>2022-02-23T22:53:55.592Z</time>
      </trkpt>
      <trkpt lat="42.09479" lon="21.63157">
        <ele>487.445619</ele>
        <time>2022-02-23T22:54:03.922Z</time>
      </trkpt>
      <trkpt lat="42.09476" lon="21.63151">
        <ele>487.598432</ele>
        <time>2022-02-23T22:54:06.251Z</time>
      </trkpt>
      <trkpt lat="42.09452" lon="21.63118">
        <ele>488.624603</ele>
        <time>2022-02-23T22:54:21.307Z</time>
      </trkpt>
      <trkpt lat="42.09378" lon="21.63052">
        <ele>491.246213</ele>
        <time>2022-02-23T22:55:00.283Z</time>
      </trkpt>
      <trkpt lat="42.09338" lon="21.63032">
        <ele>492.569694</ele>
        <time>2022-02-23T22:55:19.332Z</time>
      </trkpt>
      <trkpt lat="42.09328" lon="21.63026">
        <ele>492.906414</ele>
        <time>2022-02-23T22:55:24.475Z</time>
      </trkpt>
      <trkpt lat="42.09287" lon="21.63014">
        <ele>494.181763</ele>
        <time>2022-02-23T22:55:42.132Z</time>
      </trkpt>
      <trkpt lat="42.09278" lon="21.63015">
        <ele>494.464314</ele>
        <time>2022-02-23T22:55:45.781Z</time>
      </trkpt>
      <trkpt lat="42.09269" lon="21.63028">
        <ele>494.86559</ele>
        <time>2022-02-23T22:55:51.018Z</time>
      </trkpt>
      <trkpt lat="42.09226" lon="21.63015">
        <ele>496.233452</ele>
        <time>2022-02-23T22:56:09.858Z</time>
      </trkpt>
      <trkpt lat="42.09203" lon="21.63016">
        <ele>496.712649</ele>
        <time>2022-02-23T22:56:18.790Z</time>
      </trkpt>
      <trkpt lat="42.09176" lon="21.63015">
        <ele>497.249034</ele>
        <time>2022-02-23T22:56:29.973Z</time>
      </trkpt>
      <trkpt lat="42.09164" lon="21.63014">
        <ele>497.482616</ele>
        <time>2022-02-23T22:56:34.420Z</time>
      </trkpt>
      <trkpt lat="42.09155" lon="21.63011">
        <ele>497.652901</ele>
        <time>2022-02-23T22:56:37.688Z</time>
      </trkpt>
      <trkpt lat="42.0915" lon="21.63009">
        <ele>497.756498</ele>
        <time>2022-02-23T22:56:39.755Z</time>
      </trkpt>
      <trkpt lat="42.0908" lon="21.62995">
        <ele>499.150202</ele>
        <time>2022-02-23T22:57:04.934Z</time>
      </trkpt>
      <trkpt lat="42.09026" lon="21.62998">
        <ele>500.185075</ele>
        <time>2022-02-23T22:57:24.077Z</time>
      </trkpt>
      <trkpt lat="42.0901" lon="21.63">
        <ele>500.449493</ele>
        <time>2022-02-23T22:57:29.666Z</time>
      </trkpt>
      <trkpt lat="42.08981" lon="21.62948">
        <ele>501.288942</ele>
        <time>2022-02-23T22:57:46.060Z</time>
      </trkpt>
      <trkpt lat="42.08949" lon="21.62892">
        <ele>502.1744</ele>
        <time>2022-02-23T22:58:04.036Z</time>
      </trkpt>
      <trkpt lat="42.0883" lon="21.62712">
        <ele>505.557564</ele>
        <time>2022-02-23T22:59:09.476Z</time>
      </trkpt>
      <trkpt lat="42.08818" lon="21.62689">
        <ele>505.958754</ele>
        <time>2022-02-23T22:59:17.090Z</time>
      </trkpt>
      <trkpt lat="42.08808" lon="21.62656">
        <ele>506.47417</ele>
        <time>2022-02-23T22:59:26.464Z</time>
      </trkpt>
      <trkpt lat="42.08777" lon="21.62531">
        <ele>507.969687</ele>
        <time>2022-02-23T23:00:00.118Z</time>
      </trkpt>
      <trkpt lat="42.08739" lon="21.6237">
        <ele>509.878963</ele>
        <time>2022-02-23T23:00:41.535Z</time>
      </trkpt>
      <trkpt lat="42.08699" lon="21.62206">
        <ele>511.803598</ele>
        <time>2022-02-23T23:01:25.143Z</time>
      </trkpt>
      <trkpt lat="42.08662" lon="21.6205">
        <ele>513.644379</ele>
        <time>2022-02-23T23:02:06.965Z</time>
      </trkpt>
      <trkpt lat="42.08627" lon="21.61908">
        <ele>515.331914</ele>
        <time>2022-02-23T23:02:44.454Z</time>
      </trkpt>
      <trkpt lat="42.08593" lon="21.61764">
        <ele>517.026886</ele>
        <time>2022-02-23T23:03:22.101Z</time>
      </trkpt>
      <trkpt lat="42.08557" lon="21.61611">
        <ele>519.388269</ele>
        <time>2022-02-23T23:04:04.224Z</time>
      </trkpt>
      <trkpt lat="42.08257" lon="21.60357">
        <ele>542.965433</ele>
        <time>2022-02-23T23:10:19.650Z</time>
      </trkpt>
      <trkpt lat="42.08235" lon="21.60277">
        <ele>544.647992</ele>
        <time>2022-02-23T23:10:44.511Z</time>
      </trkpt>
      <trkpt lat="42.08097" lon="21.59907">
        <ele>552.875165</ele>
        <time>2022-02-23T23:12:46.717Z</time>
      </trkpt>
      <trkpt lat="42.08082" lon="21.59876">
        <ele>553.446292</ele>
        <time>2022-02-23T23:12:57.473Z</time>
      </trkpt>
      <trkpt lat="42.08073" lon="21.59863">
        <ele>553.714341</ele>
        <time>2022-02-23T23:13:02.273Z</time>
      </trkpt>
      <trkpt lat="42.0806" lon="21.59849">
        <ele>554.046876</ele>
        <time>2022-02-23T23:13:08.507Z</time>
      </trkpt>
      <trkpt lat="42.08054" lon="21.59842">
        <ele>554.208425</ele>
        <time>2022-02-23T23:13:11.450Z</time>
      </trkpt>
      <trkpt lat="42.08043" lon="21.59833">
        <ele>554.472284</ele>
        <time>2022-02-23T23:13:16.067Z</time>
      </trkpt>
      <trkpt lat="42.08006" lon="21.59809">
        <ele>555.317726</ele>
        <time>2022-02-23T23:13:31.282Z</time>
      </trkpt>
      <trkpt lat="42.07766" lon="21.59666">
        <ele>559.251521</ele>
        <time>2022-02-23T23:15:00.690Z</time>
      </trkpt>
      <trkpt lat="42.07729" lon="21.59659">
        <ele>559.3968</ele>
        <time>2022-02-23T23:15:11.910Z</time>
      </trkpt>
      <trkpt lat="42.07622" lon="21.59674">
        <ele>559.814996</ele>
        <time>2022-02-23T23:15:41.155Z</time>
      </trkpt>
      <trkpt lat="42.07579" lon="21.59679">
        <ele>559.592142</ele>
        <time>2022-02-23T23:15:51.813Z</time>
      </trkpt>
      <trkpt lat="42.07292" lon="21.5969">
        <ele>557.532278</ele>
        <time>2022-02-23T23:16:59.696Z</time>
      </trkpt>
      <trkpt lat="42.07199" lon="21.59677">
        <ele>557.061996</ele>
        <time>2022-02-23T23:17:21.997Z</time>
      </trkpt>
      <trkpt lat="42.071" lon="21.59661">
        <ele>556.735059</ele>
        <time>2022-02-23T23:17:47.876Z</time>
      </trkpt>
      <trkpt lat="42.07028" lon="21.59649">
        <ele>556.454756</ele>
        <time>2022-02-23T23:18:07.494Z</time>
      </trkpt>
      <trkpt lat="42.06964" lon="21.59638">
        <ele>556.189157</ele>
        <time>2022-02-23T23:18:24.236Z</time>
      </trkpt>
      <trkpt lat="42.0694" lon="21.59635">
        <ele>556.088097</ele>
        <time>2022-02-23T23:18:30.699Z</time>
      </trkpt>
      <trkpt lat="42.06923" lon="21.59636">
        <ele>556.016661</ele>
        <time>2022-02-23T23:18:34.882Z</time>
      </trkpt>
      <trkpt lat="42.06768" lon="21.59677">
        <ele>553.240821</ele>
        <time>2022-02-23T23:19:08.958Z</time>
      </trkpt>
      <trkpt lat="42.06715" lon="21.59674">
        <ele>552.069274</ele>
        <time>2022-02-23T23:19:19.544Z</time>
      </trkpt>
      <trkpt lat="42.0664" lon="21.59654">
        <ele>549.456904</ele>
        <time>2022-02-23T23:19:34.365Z</time>
      </trkpt>
      <trkpt lat="42.06602" lon="21.59661">
        <ele>548.130383</ele>
        <time>2022-02-23T23:19:41.796Z</time>
      </trkpt>
      <trkpt lat="42.06158" lon="21.59872">
        <ele>529.536374</ele>
        <time>2022-02-23T23:21:10.834Z</time>
      </trkpt>
      <trkpt lat="42.06089" lon="21.59922">
        <ele>525.693344</ele>
        <time>2022-02-23T23:21:25.127Z</time>
      </trkpt>
      <trkpt lat="42.05941" lon="21.60058">
        <ele>516.087888</ele>
        <time>2022-02-23T23:21:56.865Z</time>
      </trkpt>
      <trkpt lat="42.05899" lon="21.60136">
        <ele>512.324504</ele>
        <time>2022-02-23T23:22:09.689Z</time>
      </trkpt>
      <trkpt lat="42.05813" lon="21.60185">
        <ele>508.167728</ele>
        <time>2022-02-23T23:22:26.552Z</time>
      </trkpt>
      <trkpt lat="42.05772" lon="21.60183">
        <ele>506.330859</ele>
        <time>2022-02-23T23:22:34.330Z</time>
      </trkpt>
      <trkpt lat="42.05717" lon="21.60163">
        <ele>504.532092</ele>
        <time>2022-02-23T23:22:45.549Z</time>
      </trkpt>
      <trkpt lat="42.05564" lon="21.60093">
        <ele>500.750609</ele>
        <time>2022-02-23T23:23:20.156Z</time>
      </trkpt>
      <trkpt lat="42.05525" lon="21.60066">
        <ele>499.400932</ele>
        <time>2022-02-23T23:23:29.300Z</time>
      </trkpt>
      <trkpt lat="42.0551" lon="21.60063">
        <ele>498.938737</ele>
        <time>2022-02-23T23:23:32.310Z</time>
      </trkpt>
      <trkpt lat="42.05468" lon="21.60081">
        <ele>497.581843</ele>
        <time>2022-02-23T23:23:40.962Z</time>
      </trkpt>
      <trkpt lat="42.05452" lon="21.60078">
        <ele>497.06098</ele>
        <time>2022-02-23T23:23:44.212Z</time>
      </trkpt>
      <trkpt lat="42.05291" lon="21.59995">
        <ele>489.852843</ele>
        <time>2022-02-23T23:24:15.867Z</time>
      </trkpt>
      <trkpt lat="42.05235" lon="21.59958">
        <ele>486.981954</ele>
        <time>2022-02-23T23:24:27.240Z</time>
      </trkpt>
      <trkpt lat="42.05122" lon="21.59934">
        <ele>481.46872</ele>
        <time>2022-02-23T23:24:48.178Z</time>
      </trkpt>
      <trkpt lat="42.05093" lon="21.59921">
        <ele>479.982881</ele>
        <time>2022-02-23T23:24:53.787Z</time>
      </trkpt>
      <trkpt lat="42.05064" lon="21.59898">
        <ele>478.229929</ele>
        <time>2022-02-23T23:24:59.901Z</time>
      </trkpt>
      <trkpt lat="42.05052" lon="21.59895">
        <ele>477.484595</ele>
        <time>2022-02-23T23:25:02.040Z</time>
      </trkpt>
      <trkpt lat="42.04977" lon="21.5992">
        <ele>472.646895</ele>
        <time>2022-02-23T23:25:15.764Z</time>
      </trkpt>
      <trkpt lat="42.04935" lon="21.59901">
        <ele>469.90115</ele>
        <time>2022-02-23T23:25:23.432Z</time>
      </trkpt>
      <trkpt lat="42.04913" lon="21.59901">
        <ele>468.512427</ele>
        <time>2022-02-23T23:25:27.296Z</time>
      </trkpt>
      <trkpt lat="42.04843" lon="21.59967">
        <ele>462.425982</ele>
        <time>2022-02-23T23:25:41.785Z</time>
      </trkpt>
      <trkpt lat="42.04768" lon="21.6">
        <ele>456.648019</ele>
        <time>2022-02-23T23:25:55.288Z</time>
      </trkpt>
      <trkpt lat="42.04747" lon="21.60008">
        <ele>455.111598</ele>
        <time>2022-02-23T23:25:58.841Z</time>
      </trkpt>
      <trkpt lat="42.04728" lon="21.60015">
        <ele>453.707903</ele>
        <time>2022-02-23T23:26:02.335Z</time>
      </trkpt>
      <trkpt lat="42.0463" lon="21.60027">
        <ele>447.093399</ele>
        <time>2022-02-23T23:26:19.318Z</time>
      </trkpt>
      <trkpt lat="42.04507" lon="21.60051">
        <ele>438.651614</ele>
        <time>2022-02-23T23:26:40.955Z</time>
      </trkpt>
      <trkpt lat="42.04432" lon="21.60029">
        <ele>433.428014</ele>
        <time>2022-02-23T23:26:54.082Z</time>
      </trkpt>
      <trkpt lat="42.04402" lon="21.6003">
        <ele>431.370466</ele>
        <time>2022-02-23T23:26:59.252Z</time>
      </trkpt>
      <trkpt lat="42.04327" lon="21.60067">
        <ele>426.420311</ele>
        <time>2022-02-23T23:27:12.961Z</time>
      </trkpt>
      <trkpt lat="42.043" lon="21.60072">
        <ele>424.779894</ele>
        <time>2022-02-23T23:27:17.722Z</time>
      </trkpt>
      <trkpt lat="42.04198" lon="21.6006">
        <ele>418.936807</ele>
        <time>2022-02-23T23:27:36.130Z</time>
      </trkpt>
      <trkpt lat="42.04187" lon="21.60054">
        <ele>418.586608</ele>
        <time>2022-02-23T23:27:38.283Z</time>
      </trkpt>
      <trkpt lat="42.04165" lon="21.60025">
        <ele>417.664179</ele>
        <time>2022-02-23T23:27:44.045Z</time>
      </trkpt>
      <trkpt lat="42.04146" lon="21.60012">
        <ele>417.022203</ele>
        <time>2022-02-23T23:27:48.169Z</time>
      </trkpt>
      <trkpt lat="42.04062" lon="21.60001">
        <ele>414.468239</ele>
        <time>2022-02-23T23:28:05.534Z</time>
      </trkpt>
      <trkpt lat="42.03962" lon="21.59959">
        <ele>412.595118</ele>
        <time>2022-02-23T23:28:29.251Z</time>
      </trkpt>
      <trkpt lat="42.03943" lon="21.59947">
        <ele>412.289693</ele>
        <time>2022-02-23T23:28:34.034Z</time>
      </trkpt>
      <trkpt lat="42.03915" lon="21.59911">
        <ele>411.711372</ele>
        <time>2022-02-23T23:28:42.925Z</time>
      </trkpt>
      <trkpt lat="42.03879" lon="21.59828">
        <ele>409.837231</ele>
        <time>2022-02-23T23:28:58.332Z</time>
      </trkpt>
      <trkpt lat="42.03778" lon="21.59724">
        <ele>404.976344</ele>
        <time>2022-02-23T23:29:22.516Z</time>
      </trkpt>
      <trkpt lat="42.03555" lon="21.5964">
        <ele>389.714994</ele>
        <time>2022-02-23T23:30:02.441Z</time>
      </trkpt>
      <trkpt lat="42.03441" lon="21.59584">
        <ele>379.725653</ele>
        <time>2022-02-23T23:30:22.652Z</time>
      </trkpt>
      <trkpt lat="42.03284" lon="21.5952">
        <ele>365.819703</ele>
        <time>2022-02-23T23:30:49.861Z</time>
      </trkpt>
      <trkpt lat="42.03135" lon="21.59436">
        <ele>353.593265</ele>
        <time>2022-02-23T23:31:17.150Z</time>
      </trkpt>
      <trkpt lat="42.03102" lon="21.59403">
        <ele>350.596529</ele>
        <time>2022-02-23T23:31:24.308Z</time>
      </trkpt>
      <trkpt lat="42.03093" lon="21.59386">
        <ele>349.436136</ele>
        <time>2022-02-23T23:31:27.095Z</time>
      </trkpt>
      <trkpt lat="42.03082" lon="21.59353">
        <ele>348.130284</ele>
        <time>2022-02-23T23:31:31.836Z</time>
      </trkpt>
      <trkpt lat="42.03076" lon="21.59286">
        <ele>345.8326</ele>
        <time>2022-02-23T23:31:40.679Z</time>
      </trkpt>
      <trkpt lat="42.0307" lon="21.59268">
        <ele>345.166046</ele>
        <time>2022-02-23T23:31:43.300Z</time>
      </trkpt>
      <trkpt lat="42.03053" lon="21.59234">
        <ele>343.738871</ele>
        <time>2022-02-23T23:31:49.011Z</time>
      </trkpt>
      <trkpt lat="42.0301" lon="21.59177">
        <ele>340.935558</ele>
        <time>2022-02-23T23:32:00.749Z</time>
      </trkpt>
      <trkpt lat="42.02994" lon="21.59139">
        <ele>340.157678</ele>
        <time>2022-02-23T23:32:07.216Z</time>
      </trkpt>
      <trkpt lat="42.02986" lon="21.59102">
        <ele>339.463488</ele>
        <time>2022-02-23T23:32:13.119Z</time>
      </trkpt>
      <trkpt lat="42.02984" lon="21.59091">
        <ele>339.253378</ele>
        <time>2022-02-23T23:32:14.913Z</time>
      </trkpt>
      <trkpt lat="42.02982" lon="21.59082">
        <ele>339.077341</ele>
        <time>2022-02-23T23:32:16.446Z</time>
      </trkpt>
      <trkpt lat="42.02981" lon="21.59067">
        <ele>338.807393</ele>
        <time>2022-02-23T23:32:18.807Z</time>
      </trkpt>
      <trkpt lat="42.02994" lon="21.59007">
        <ele>337.688049</ele>
        <time>2022-02-23T23:32:28.424Z</time>
      </trkpt>
      <trkpt lat="42.02993" lon="21.58996">
        <ele>337.485955</ele>
        <time>2022-02-23T23:32:30.161Z</time>
      </trkpt>
      <trkpt lat="42.02978" lon="21.5897">
        <ele>336.889742</ele>
        <time>2022-02-23T23:32:35.250Z</time>
      </trkpt>
      <trkpt lat="42.02973" lon="21.58941">
        <ele>336.148234</ele>
        <time>2022-02-23T23:32:39.895Z</time>
      </trkpt>
      <trkpt lat="42.02996" lon="21.58899">
        <ele>334.425898</ele>
        <time>2022-02-23T23:32:47.715Z</time>
      </trkpt>
      <trkpt lat="42.03001" lon="21.5887">
        <ele>333.450366</ele>
        <time>2022-02-23T23:32:52.038Z</time>
      </trkpt>
      <trkpt lat="42.02943" lon="21.5867">
        <ele>325.074451</ele>
        <time>2022-02-23T23:33:20.467Z</time>
      </trkpt>
      <trkpt lat="42.02922" lon="21.58603">
        <ele>321.324355</ele>
        <time>2022-02-23T23:33:29.687Z</time>
      </trkpt>
      <trkpt lat="42.02903" lon="21.58576">
        <ele>319.429773</ele>
        <time>2022-02-23T23:33:34.516Z</time>
      </trkpt>
      <trkpt lat="42.02874" lon="21.5849">
        <ele>314.735707</ele>
        <time>2022-02-23T23:33:46.993Z</time>
      </trkpt>
      <trkpt lat="42.02869" lon="21.58461">
        <ele>313.385055</ele>
        <time>2022-02-23T23:33:50.952Z</time>
      </trkpt>
      <trkpt lat="42.02851" lon="21.58437">
        <ele>311.859223</ele>
        <time>2022-02-23T23:33:55.465Z</time>
      </trkpt>
      <trkpt lat="42.02794" lon="21.584">
        <ele>307.958358</ele>
        <time>2022-02-23T23:34:07.292Z</time>
      </trkpt>
      <trkpt lat="42.02682" lon="21.58301">
        <ele>301.585137</ele>
        <time>2022-02-23T23:34:33.131Z</time>
      </trkpt>
      <trkpt lat="42.02603" lon="21.58241">
        <ele>297.877703</ele>
        <time>2022-02-23T23:34:51.416Z</time>
      </trkpt>
      <trkpt lat="42.0256" lon="21.58196">
        <ele>296.014216</ele>
        <time>2022-02-23T23:35:02.353Z</time>
      </trkpt>
      <trkpt lat="42.02529" lon="21.58187">
        <ele>294.942843</ele>
        <time>2022-02-23T23:35:08.776Z</time>
      </trkpt>
      <trkpt lat="42.02473" lon="21.58136">
        <ele>292.680788</ele>
        <time>2022-02-23T23:35:22.525Z</time>
      </trkpt>
      <trkpt lat="42.0246" lon="21.5811">
        <ele>291.887063</ele>
        <time>2022-02-23T23:35:27.369Z</time>
      </trkpt>
      <trkpt lat="42.02458" lon="21.58092">
        <ele>291.5127</ele>
        <time>2022-02-23T23:35:30.187Z</time>
      </trkpt>
      <trkpt lat="42.02456" lon="21.58072">
        <ele>291.145711</ele>
        <time>2022-02-23T23:35:33.321Z</time>
      </trkpt>
      <trkpt lat="42.02441" lon="21.58026">
        <ele>290.232192</ele>
        <time>2022-02-23T23:35:41.206Z</time>
      </trkpt>
      <trkpt lat="42.0241" lon="21.5796">
        <ele>288.816579</ele>
        <time>2022-02-23T23:35:53.576Z</time>
      </trkpt>
      <trkpt lat="42.02373" lon="21.57865">
        <ele>287.015235</ele>
        <time>2022-02-23T23:36:11.202Z</time>
      </trkpt>
      <trkpt lat="42.02317" lon="21.5777">
        <ele>285.480788</ele>
        <time>2022-02-23T23:36:31.642Z</time>
      </trkpt>
      <trkpt lat="42.02298" lon="21.5772">
        <ele>284.769096</ele>
        <time>2022-02-23T23:36:41.185Z</time>
      </trkpt>
      <trkpt lat="42.02284" lon="21.57675">
        <ele>284.149284</ele>
        <time>2022-02-23T23:36:49.393Z</time>
      </trkpt>
      <trkpt lat="42.0225" lon="21.57546">
        <ele>282.29071</ele>
        <time>2022-02-23T23:37:12.715Z</time>
      </trkpt>
      <trkpt lat="42.02242" lon="21.57495">
        <ele>281.594523</ele>
        <time>2022-02-23T23:37:21.343Z</time>
      </trkpt>
      <trkpt lat="42.02237" lon="21.57436">
        <ele>280.719605</ele>
        <time>2022-02-23T23:37:30.882Z</time>
      </trkpt>
      <trkpt lat="42.02234" lon="21.57395">
        <ele>279.985898</ele>
        <time>2022-02-23T23:37:37.504Z</time>
      </trkpt>
      <trkpt lat="42.02233" lon="21.57352">
        <ele>279.216661</ele>
        <time>2022-02-23T23:37:44.092Z</time>
      </trkpt>
      <trkpt lat="42.02233" lon="21.57328">
        <ele>278.783972</ele>
        <time>2022-02-23T23:37:47.704Z</time>
      </trkpt>
      <trkpt lat="42.02235" lon="21.57303">
        <ele>278.332172</ele>
        <time>2022-02-23T23:37:51.654Z</time>
      </trkpt>
      <trkpt lat="42.02235" lon="21.5728">
        <ele>277.924362</ele>
        <time>2022-02-23T23:37:55.062Z</time>
      </trkpt>
      <trkpt lat="42.02233" lon="21.57212">
        <ele>276.717959</ele>
        <time>2022-02-23T23:38:05.217Z</time>
      </trkpt>
      <trkpt lat="42.02237" lon="21.57088">
        <ele>274.081075</ele>
        <time>2022-02-23T23:38:23.996Z</time>
      </trkpt>
      <trkpt lat="42.02239" lon="21.57072">
        <ele>273.734926</ele>
        <time>2022-02-23T23:38:26.335Z</time>
      </trkpt>
      <trkpt lat="42.02241" lon="21.57066">
        <ele>273.587885</ele>
        <time>2022-02-23T23:38:27.331Z</time>
      </trkpt>
      <trkpt lat="42.02247" lon="21.56991">
        <ele>271.989804</ele>
        <time>2022-02-23T23:38:38.585Z</time>
      </trkpt>
      <trkpt lat="42.02257" lon="21.56945">
        <ele>270.678677</ele>
        <time>2022-02-23T23:38:45.530Z</time>
      </trkpt>
      <trkpt lat="42.02262" lon="21.56938">
        <ele>270.372592</ele>
        <time>2022-02-23T23:38:46.804Z</time>
      </trkpt>
      <trkpt lat="42.02267" lon="21.56875">
        <ele>268.35288</ele>
        <time>2022-02-23T23:38:55.504Z</time>
      </trkpt>
      <trkpt lat="42.0227" lon="21.56861">
        <ele>267.868968</ele>
        <time>2022-02-23T23:38:57.676Z</time>
      </trkpt>
      <trkpt lat="42.02274" lon="21.56808">
        <ele>266.170443</ele>
        <time>2022-02-23T23:39:04.949Z</time>
      </trkpt>
      <trkpt lat="42.0228" lon="21.5675">
        <ele>264.282977</ele>
        <time>2022-02-23T23:39:12.783Z</time>
      </trkpt>
      <trkpt lat="42.02282" lon="21.56726">
        <ele>263.455075</ele>
        <time>2022-02-23T23:39:16.025Z</time>
      </trkpt>
      <trkpt lat="42.02275" lon="21.56669">
        <ele>261.30077</ele>
        <time>2022-02-23T23:39:23.875Z</time>
      </trkpt>
      <trkpt lat="42.02272" lon="21.56624">
        <ele>259.640272</ele>
        <time>2022-02-23T23:39:29.812Z</time>
      </trkpt>
      <trkpt lat="42.02267" lon="21.56595">
        <ele>258.542299</ele>
        <time>2022-02-23T23:39:33.686Z</time>
      </trkpt>
      <trkpt lat="42.0226" lon="21.56531">
        <ele>256.12359</ele>
        <time>2022-02-23T23:39:42.537Z</time>
      </trkpt>
      <trkpt lat="42.02269" lon="21.56481">
        <ele>254.300764</ele>
        <time>2022-02-23T23:39:49.730Z</time>
      </trkpt>
      <trkpt lat="42.0228" lon="21.56444">
        <ele>253.116809</ele>
        <time>2022-02-23T23:39:55.137Z</time>
      </trkpt>
      <trkpt lat="42.02289" lon="21.56419">
        <ele>252.298813</ele>
        <time>2022-02-23T23:39:58.854Z</time>
      </trkpt>
      <trkpt lat="42.02316" lon="21.56308">
        <ele>248.826008</ele>
        <time>2022-02-23T23:40:15.417Z</time>
      </trkpt>
      <trkpt lat="42.0232" lon="21.56282">
        <ele>248.058745</ele>
        <time>2022-02-23T23:40:19.025Z</time>
      </trkpt>
      <trkpt lat="42.02322" lon="21.56254">
        <ele>247.284016</ele>
        <time>2022-02-23T23:40:23.130Z</time>
      </trkpt>
      <trkpt lat="42.02324" lon="21.56201">
        <ele>246.059024</ele>
        <time>2022-02-23T23:40:30.856Z</time>
      </trkpt>
      <trkpt lat="42.02329" lon="21.56158">
        <ele>245.054595</ele>
        <time>2022-02-23T23:40:37.195Z</time>
      </trkpt>
      <trkpt lat="42.02329" lon="21.56151">
        <ele>244.880573</ele>
        <time>2022-02-23T23:40:38.289Z</time>
      </trkpt>
      <trkpt lat="42.02337" lon="21.56089">
        <ele>243.442565</ele>
        <time>2022-02-23T23:40:47.302Z</time>
      </trkpt>
      <trkpt lat="42.02342" lon="21.56058">
        <ele>242.703336</ele>
        <time>2022-02-23T23:40:52.060Z</time>
      </trkpt>
      <trkpt lat="42.02349" lon="21.55991">
        <ele>241.235806</ele>
        <time>2022-02-23T23:41:02.289Z</time>
      </trkpt>
      <trkpt lat="42.02351" lon="21.55969">
        <ele>240.801767</ele>
        <time>2022-02-23T23:41:05.533Z</time>
      </trkpt>
      <trkpt lat="42.02353" lon="21.55937">
        <ele>240.15204</ele>
        <time>2022-02-23T23:41:10.330Z</time>
      </trkpt>
      <trkpt lat="42.02356" lon="21.55888">
        <ele>239.176928</ele>
        <time>2022-02-23T23:41:17.664Z</time>
      </trkpt>
      <trkpt lat="42.02358" lon="21.55867">
        <ele>238.738575</ele>
        <time>2022-02-23T23:41:21.026Z</time>
      </trkpt>
      <trkpt lat="42.02362" lon="21.55847">
        <ele>238.346366</ele>
        <time>2022-02-23T23:41:23.808Z</time>
      </trkpt>
      <trkpt lat="42.02365" lon="21.55832">
        <ele>238.019528</ele>
        <time>2022-02-23T23:41:26.233Z</time>
      </trkpt>
      <trkpt lat="42.0237" lon="21.55816">
        <ele>237.671007</ele>
        <time>2022-02-23T23:41:28.878Z</time>
      </trkpt>
      <trkpt lat="42.02368" lon="21.55811">
        <ele>237.567711</ele>
        <time>2022-02-23T23:41:29.608Z</time>
      </trkpt>
      <trkpt lat="42.02364" lon="21.55801">
        <ele>237.342413</ele>
        <time>2022-02-23T23:41:31.213Z</time>
      </trkpt>
      <trkpt lat="42.02354" lon="21.55785">
        <ele>236.947884</ele>
        <time>2022-02-23T23:41:34.464Z</time>
      </trkpt>
      <trkpt lat="42.02355" lon="21.55763">
        <ele>236.587631</ele>
        <time>2022-02-23T23:41:37.756Z</time>
      </trkpt>
      <trkpt lat="42.02362" lon="21.55674">
        <ele>235.155319</ele>
        <time>2022-02-23T23:41:51.515Z</time>
      </trkpt>
      <trkpt lat="42.02363" lon="21.55669">
        <ele>235.057493</ele>
        <time>2022-02-23T23:41:52.339Z</time>
      </trkpt>
      <trkpt lat="42.02355" lon="21.55649">
        <ele>234.694744</ele>
        <time>2022-02-23T23:41:55.873Z</time>
      </trkpt>
      <trkpt lat="42.02306" lon="21.55389">
        <ele>231.019624</ele>
        <time>2022-02-23T23:42:38.667Z</time>
      </trkpt>
      <trkpt lat="42.02301" lon="21.55344">
        <ele>230.461295</ele>
        <time>2022-02-23T23:42:46.101Z</time>
      </trkpt>
      <trkpt lat="42.02295" lon="21.55272">
        <ele>229.66843</ele>
        <time>2022-02-23T23:42:58.066Z</time>
      </trkpt>
      <trkpt lat="42.02292" lon="21.55187">
        <ele>228.806409</ele>
        <time>2022-02-23T23:43:12.140Z</time>
      </trkpt>
      <trkpt lat="42.02282" lon="21.55145">
        <ele>228.362396</ele>
        <time>2022-02-23T23:43:19.346Z</time>
      </trkpt>
      <trkpt lat="42.02281" lon="21.55102">
        <ele>227.917678</ele>
        <time>2022-02-23T23:43:26.490Z</time>
      </trkpt>
      <trkpt lat="42.02292" lon="21.55031">
        <ele>227.379649</ele>
        <time>2022-02-23T23:43:38.636Z</time>
      </trkpt>
      <trkpt lat="42.02313" lon="21.55021">
        <ele>227.191735</ele>
        <time>2022-02-23T23:43:43.804Z</time>
      </trkpt>
      <trkpt lat="42.02294" lon="21.54959">
        <ele>226.774336</ele>
        <time>2022-02-23T23:43:55.377Z</time>
      </trkpt>
      <trkpt lat="42.02282" lon="21.5492">
        <ele>226.507888</ele>
        <time>2022-02-23T23:44:02.946Z</time>
      </trkpt>
      <trkpt lat="42.02267" lon="21.54867">
        <ele>226.169738</ele>
        <time>2022-02-23T23:44:13.446Z</time>
      </trkpt>
      <trkpt lat="42.02239" lon="21.54772">
        <ele>226.025194</ele>
        <time>2022-02-23T23:44:32.632Z</time>
      </trkpt>
      <trkpt lat="42.02183" lon="21.54578">
        <ele>225.810804</ele>
        <time>2022-02-23T23:45:13.581Z</time>
      </trkpt>
      <trkpt lat="42.02143" lon="21.54441">
        <ele>225.763842</ele>
        <time>2022-02-23T23:45:42.098Z</time>
      </trkpt>
      <trkpt lat="42.02036" lon="21.54075">
        <ele>226.259346</ele>
        <time>2022-02-23T23:47:02.287Z</time>
      </trkpt>
      <trkpt lat="42.01924" lon="21.53694">
        <ele>227.565164</ele>
        <time>2022-02-23T23:48:30.653Z</time>
      </trkpt>
      <trkpt lat="42.01865" lon="21.53488">
        <ele>228.199612</ele>
        <time>2022-02-23T23:49:17.485Z</time>
      </trkpt>
      <trkpt lat="42.01852" lon="21.53448">
        <ele>228.268534</ele>
        <time>2022-02-23T23:49:26.396Z</time>
      </trkpt>
      <trkpt lat="42.01847" lon="21.53431">
        <ele>228.297715</ele>
        <time>2022-02-23T23:49:30.165Z</time>
      </trkpt>
      <trkpt lat="42.01819" lon="21.53342">
        <ele>228.450628</ele>
        <time>2022-02-23T23:49:49.852Z</time>
      </trkpt>
      <trkpt lat="42.01817" lon="21.53335">
        <ele>228.462463</ele>
        <time>2022-02-23T23:49:51.339Z</time>
      </trkpt>
      <trkpt lat="42.01805" lon="21.53285">
        <ele>228.564782</ele>
        <time>2022-02-23T23:50:02.019Z</time>
      </trkpt>
      <trkpt lat="42.01787" lon="21.53229">
        <ele>228.780639</ele>
        <time>2022-02-23T23:50:14.637Z</time>
      </trkpt>
      <trkpt lat="42.01773" lon="21.53177">
        <ele>228.97564</ele>
        <time>2022-02-23T23:50:26.283Z</time>
      </trkpt>
      <trkpt lat="42.01757" lon="21.53117">
        <ele>229.199375</ele>
        <time>2022-02-23T23:50:40.108Z</time>
      </trkpt>
      <trkpt lat="42.01754" lon="21.53104">
        <ele>229.247783</ele>
        <time>2022-02-23T23:50:43.183Z</time>
      </trkpt>
      <trkpt lat="42.0155" lon="21.5241">
        <ele>233.958842</ele>
        <time>2022-02-23T23:53:34.567Z</time>
      </trkpt>
      <trkpt lat="42.01527" lon="21.52329">
        <ele>234.352054</ele>
        <time>2022-02-23T23:53:54.501Z</time>
      </trkpt>
      <trkpt lat="42.01493" lon="21.52211">
        <ele>234.852227</ele>
        <time>2022-02-23T23:54:22.033Z</time>
      </trkpt>
      <trkpt lat="42.01457" lon="21.52089">
        <ele>235.164051</ele>
        <time>2022-02-23T23:54:48.608Z</time>
      </trkpt>
      <trkpt lat="42.01452" lon="21.5207">
        <ele>235.193692</ele>
        <time>2022-02-23T23:54:52.544Z</time>
      </trkpt>
      <trkpt lat="42.01449" lon="21.52061">
        <ele>235.208211</ele>
        <time>2022-02-23T23:54:54.471Z</time>
      </trkpt>
      <trkpt lat="42.01431" lon="21.51999">
        <ele>235.306986</ele>
        <time>2022-02-23T23:55:07.909Z</time>
      </trkpt>
      <trkpt lat="42.01405" lon="21.5191">
        <ele>235.558992</ele>
        <time>2022-02-23T23:55:28.128Z</time>
      </trkpt>
      <trkpt lat="42.01375" lon="21.5181">
        <ele>236.064163</ele>
        <time>2022-02-23T23:55:52.101Z</time>
      </trkpt>
      <trkpt lat="42.01354" lon="21.51732">
        <ele>236.45435</ele>
        <time>2022-02-23T23:56:10.427Z</time>
      </trkpt>
      <trkpt lat="42.0134" lon="21.51687">
        <ele>236.687226</ele>
        <time>2022-02-23T23:56:21.507Z</time>
      </trkpt>
      <trkpt lat="42.01322" lon="21.51625">
        <ele>237.016411</ele>
        <time>2022-02-23T23:56:36.902Z</time>
      </trkpt>
      <trkpt lat="42.01314" lon="21.51635">
        <ele>237.087664</ele>
        <time>2022-02-23T23:56:40.108Z</time>
      </trkpt>
      <trkpt lat="42.01304" lon="21.51639">
        <ele>237.156992</ele>
        <time>2022-02-23T23:56:43.270Z</time>
      </trkpt>
      <trkpt lat="42.01291" lon="21.5164">
        <ele>237.242202</ele>
        <time>2022-02-23T23:56:47.166Z</time>
      </trkpt>
      <trkpt lat="42.01276" lon="21.51644">
        <ele>237.342034</ele>
        <time>2022-02-23T23:56:51.522Z</time>
      </trkpt>
      <trkpt lat="42.0125" lon="21.51649">
        <ele>237.514041</ele>
        <time>2022-02-23T23:56:59.059Z</time>
      </trkpt>
      <trkpt lat="42.0123" lon="21.51583">
        <ele>237.862647</ele>
        <time>2022-02-23T23:57:14.089Z</time>
      </trkpt>
      <trkpt lat="42.01219" lon="21.51547">
        <ele>238.048533</ele>
        <time>2022-02-23T23:57:22.355Z</time>
      </trkpt>
      <trkpt lat="42.01205" lon="21.51498">
        <ele>238.303617</ele>
        <time>2022-02-23T23:57:34.115Z</time>
      </trkpt>
      <trkpt lat="42.0119" lon="21.51451">
        <ele>238.550064</ele>
        <time>2022-02-23T23:57:45.839Z</time>
      </trkpt>
      <trkpt lat="42.0116" lon="21.51351">
        <ele>239.036964</ele>
        <time>2022-02-23T23:58:10.179Z</time>
      </trkpt>
      <trkpt lat="42.01147" lon="21.51304">
        <ele>239.231855</ele>
        <time>2022-02-23T23:58:21.435Z</time>
      </trkpt>
      <trkpt lat="42.01087" lon="21.511">
        <ele>239.490133</ele>
        <time>2022-02-23T23:59:08.526Z</time>
      </trkpt>
      <trkpt lat="42.01073" lon="21.5105">
        <ele>239.197397</ele>
        <time>2022-02-23T23:59:17.898Z</time>
      </trkpt>
      <trkpt lat="42.00967" lon="21.51104">
        <ele>238.15122</ele>
        <time>2022-02-23T23:59:43.444Z</time>
      </trkpt>
      <trkpt lat="42.00957" lon="21.51107">
        <ele>237.97149</ele>
        <time>2022-02-23T23:59:45.841Z</time>
      </trkpt>
      <trkpt lat="42.00946" lon="21.51106">
        <ele>237.794204</ele>
        <time>2022-02-23T23:59:47.883Z</time>
      </trkpt>
      <trkpt lat="42.00943" lon="21.51106">
        <ele>237.735123</ele>
        <time>2022-02-23T23:59:48.660Z</time>
      </trkpt>
      <trkpt lat="42.00934" lon="21.51108">
        <ele>237.570921</ele>
        <time>2022-02-23T23:59:50.700Z</time>
      </trkpt>
      <trkpt lat="42.00888" lon="21.51129">
        <ele>236.733303</ele>
        <time>2022-02-24T00:00:00.910Z</time>
      </trkpt>
      <trkpt lat="42.00879" lon="21.51137">
        <ele>236.540041</ele>
        <time>2022-02-24T00:00:03.108Z</time>
      </trkpt>
      <trkpt lat="42.00847" lon="21.51159">
        <ele>235.92475</ele>
        <time>2022-02-24T00:00:10.611Z</time>
      </trkpt>
      <trkpt lat="42.00809" lon="21.51185">
        <ele>235.237576</ele>
        <time>2022-02-24T00:00:19.851Z</time>
      </trkpt>
      <trkpt lat="42.00797" lon="21.51192">
        <ele>235.067375</ele>
        <time>2022-02-24T00:00:22.733Z</time>
      </trkpt>
      <trkpt lat="42.00775" lon="21.51203">
        <ele>234.757009</ele>
        <time>2022-02-24T00:00:28.314Z</time>
      </trkpt>
      <trkpt lat="42.00769" lon="21.51206">
        <ele>234.68393</ele>
        <time>2022-02-24T00:00:29.544Z</time>
      </trkpt>
      <trkpt lat="42.00767" lon="21.51208">
        <ele>234.650165</ele>
        <time>2022-02-24T00:00:30.128Z</time>
      </trkpt>
      <trkpt lat="42.00751" lon="21.51215">
        <ele>234.437034</ele>
        <time>2022-02-24T00:00:33.916Z</time>
      </trkpt>
      <trkpt lat="42.00741" lon="21.5122">
        <ele>234.288873</ele>
        <time>2022-02-24T00:00:36.531Z</time>
      </trkpt>
      <trkpt lat="42.0073" lon="21.51226">
        <ele>234.139961</ele>
        <time>2022-02-24T00:00:39.069Z</time>
      </trkpt>
      <trkpt lat="42.00705" lon="21.51086">
        <ele>232.885767</ele>
        <time>2022-02-24T00:01:03.372Z</time>
      </trkpt>
      <trkpt lat="42.00674" lon="21.51093">
        <ele>232.652891</ele>
        <time>2022-02-24T00:01:10.422Z</time>
      </trkpt>
      <trkpt lat="42.00659" lon="21.51095">
        <ele>232.541447</ele>
        <time>2022-02-24T00:01:13.922Z</time>
      </trkpt>
      <trkpt lat="42.00641" lon="21.51091">
        <ele>232.401039</ele>
        <time>2022-02-24T00:01:18.326Z</time>
      </trkpt>
      <trkpt lat="42.0062" lon="21.51078">
        <ele>232.227619</ele>
        <time>2022-02-24T00:01:24.012Z</time>
      </trkpt>
      <trkpt lat="42.00605" lon="21.51064">
        <ele>232.090661</ele>
        <time>2022-02-24T00:01:28.523Z</time>
      </trkpt>
      <trkpt lat="42.00574" lon="21.51029">
        <ele>231.785557</ele>
        <time>2022-02-24T00:01:38.831Z</time>
      </trkpt>
      <trkpt lat="42.0056" lon="21.51007">
        <ele>231.685976</ele>
        <time>2022-02-24T00:01:43.979Z</time>
      </trkpt>
      <trkpt lat="42.00556" lon="21.50999">
        <ele>231.667747</ele>
        <time>2022-02-24T00:01:45.874Z</time>
      </trkpt>
      <trkpt lat="42.00552" lon="21.50989">
        <ele>231.646137</ele>
        <time>2022-02-24T00:01:48.001Z</time>
      </trkpt>
      <trkpt lat="42.00551" lon="21.50987">
        <ele>231.640075</ele>
        <time>2022-02-24T00:01:48.576Z</time>
      </trkpt>
      <trkpt lat="42.00549" lon="21.50985">
        <ele>231.633796</ele>
        <time>2022-02-24T00:01:49.144Z</time>
      </trkpt>
      <trkpt lat="42.00547" lon="21.50984">
        <ele>231.627686</ele>
        <time>2022-02-24T00:01:49.713Z</time>
      </trkpt>
      <trkpt lat="42.00541" lon="21.50959">
        <ele>231.577838</ele>
        <time>2022-02-24T00:01:54.436Z</time>
      </trkpt>
      <trkpt lat="42.0054" lon="21.50953">
        <ele>231.56587</ele>
        <time>2022-02-24T00:01:55.638Z</time>
      </trkpt>
      <trkpt lat="42.0053" lon="21.50918">
        <ele>231.492775</ele>
        <time>2022-02-24T00:02:02.550Z</time>
      </trkpt>
      <trkpt lat="42.00519" lon="21.50873">
        <ele>231.401536</ele>
        <time>2022-02-24T00:02:11.493Z</time>
      </trkpt>
      <trkpt lat="42.00518" lon="21.50869">
        <ele>231.392585</ele>
        <time>2022-02-24T00:02:12.544Z</time>
      </trkpt>
      <trkpt lat="42.00513" lon="21.5085">
        <ele>231.354685</ele>
        <time>2022-02-24T00:02:16.350Z</time>
      </trkpt>
      <trkpt lat="42.00511" lon="21.50843">
        <ele>231.340622</ele>
        <time>2022-02-24T00:02:17.732Z</time>
      </trkpt>
      <trkpt lat="42.00502" lon="21.50825">
        <ele>231.297447</ele>
        <time>2022-02-24T00:02:22.114Z</time>
      </trkpt>
      <trkpt lat="42.00491" lon="21.50804">
        <ele>231.250194</ele>
        <time>2022-02-24T00:02:27.256Z</time>
      </trkpt>
      <trkpt lat="42.00483" lon="21.50789">
        <ele>231.274481</ele>
        <time>2022-02-24T00:02:30.858Z</time>
      </trkpt>
      <trkpt lat="42.00474" lon="21.50769">
        <ele>231.305219</ele>
        <time>2022-02-24T00:02:35.558Z</time>
      </trkpt>
      <trkpt lat="42.0044" lon="21.50711">
        <ele>231.403854</ele>
        <time>2022-02-24T00:02:50.040Z</time>
      </trkpt>
      <trkpt lat="42.00425" lon="21.50677">
        <ele>231.457008</ele>
        <time>2022-02-24T00:02:58.062Z</time>
      </trkpt>
      <trkpt lat="42.00412" lon="21.50624">
        <ele>231.531614</ele>
        <time>2022-02-24T00:03:09.721Z</time>
      </trkpt>
      <trkpt lat="42.00411" lon="21.50593">
        <ele>231.576968</ele>
        <time>2022-02-24T00:03:16.287Z</time>
      </trkpt>
      <trkpt lat="42.00412" lon="21.50548">
        <ele>231.881292</ele>
        <time>2022-02-24T00:03:26.401Z</time>
      </trkpt>
      <trkpt lat="42.00414" lon="21.50504">
        <ele>232.180668</ele>
        <time>2022-02-24T00:03:36.512Z</time>
      </trkpt>
      <trkpt lat="42.00415" lon="21.50496">
        <ele>232.239108</ele>
        <time>2022-02-24T00:03:38.433Z</time>
      </trkpt>
      <trkpt lat="42.00415" lon="21.50483">
        <ele>232.324685</ele>
        <time>2022-02-24T00:03:41.609Z</time>
      </trkpt>
      <trkpt lat="42.00419" lon="21.5041">
        <ele>232.82607</ele>
        <time>2022-02-24T00:03:59.017Z</time>
      </trkpt>
      <trkpt lat="42.00388" lon="21.50403">
        <ele>233.11754</ele>
        <time>2022-02-24T00:04:09.305Z</time>
      </trkpt>
      <trkpt lat="42.00363" lon="21.50394">
        <ele>233.275295</ele>
        <time>2022-02-24T00:04:17.563Z</time>
      </trkpt>
      <trkpt lat="42.0034" lon="21.50384">
        <ele>233.364198</ele>
        <time>2022-02-24T00:04:24.966Z</time>
      </trkpt>
      <trkpt lat="42.00334" lon="21.5038">
        <ele>233.388192</ele>
        <time>2022-02-24T00:04:27.144Z</time>
      </trkpt>
      <trkpt lat="42.00316" lon="21.50368">
        <ele>233.460729</ele>
        <time>2022-02-24T00:04:32.819Z</time>
      </trkpt>
      <trkpt lat="42.00304" lon="21.50359">
        <ele>233.510912</ele>
        <time>2022-02-24T00:04:36.576Z</time>
      </trkpt>
      <trkpt lat="42.00272" lon="21.50333">
        <ele>233.647267</ele>
        <time>2022-02-24T00:04:46.667Z</time>
      </trkpt>
      <trkpt lat="42.00245" lon="21.50311">
        <ele>233.763225</ele>
        <time>2022-02-24T00:04:55.071Z</time>
      </trkpt>
      <trkpt lat="42.00238" lon="21.50305">
        <ele>233.795183</ele>
        <time>2022-02-24T00:04:57.481Z</time>
      </trkpt>
      <trkpt lat="42.0022" lon="21.50291">
        <ele>233.871293</ele>
        <time>2022-02-24T00:05:03.126Z</time>
      </trkpt>
      <trkpt lat="42.00195" lon="21.50271">
        <ele>233.846317</ele>
        <time>2022-02-24T00:05:11.004Z</time>
      </trkpt>
      <trkpt lat="42.00189" lon="21.50265">
        <ele>233.837099</ele>
        <time>2022-02-24T00:05:13.016Z</time>
      </trkpt>
      <trkpt lat="42.00183" lon="21.5026">
        <ele>233.827981</ele>
        <time>2022-02-24T00:05:15.074Z</time>
      </trkpt>
      <trkpt lat="42.00169" lon="21.50249">
        <ele>233.808086</ele>
        <time>2022-02-24T00:05:19.622Z</time>
      </trkpt>
      <trkpt lat="42.00133" lon="21.50222">
        <ele>233.756755</ele>
        <time>2022-02-24T00:05:30.145Z</time>
      </trkpt>
      <trkpt lat="42.00095" lon="21.502">
        <ele>233.705561</ele>
        <time>2022-02-24T00:05:40.310Z</time>
      </trkpt>
      <trkpt lat="42.00058" lon="21.50177">
        <ele>233.655671</ele>
        <time>2022-02-24T00:05:50.703Z</time>
      </trkpt>
      <trkpt lat="42.00041" lon="21.50168">
        <ele>233.655867</ele>
        <time>2022-02-24T00:05:55.426Z</time>
      </trkpt>
      <trkpt lat="42.00007" lon="21.50149">
        <ele>233.656287</ele>
        <time>2022-02-24T00:06:05.381Z</time>
      </trkpt>
      <trkpt lat="41.99972" lon="21.50129">
        <ele>233.656714</ele>
        <time>2022-02-24T00:06:15.662Z</time>
      </trkpt>
      <trkpt lat="41.99901" lon="21.50087">
        <ele>233.657588</ele>
        <time>2022-02-24T00:06:36.448Z</time>
      </trkpt>
      <trkpt lat="41.99845" lon="21.50058">
        <ele>233.830203</ele>
        <time>2022-02-24T00:06:52.796Z</time>
      </trkpt>
      <trkpt lat="41.99831" lon="21.50052">
        <ele>233.880987</ele>
        <time>2022-02-24T00:06:57.213Z</time>
      </trkpt>
      <trkpt lat="41.99821" lon="21.50047">
        <ele>233.916512</ele>
        <time>2022-02-24T00:07:00.300Z</time>
      </trkpt>
      <trkpt lat="41.99768" lon="21.50017">
        <ele>234.106882</ele>
        <time>2022-02-24T00:07:16.989Z</time>
      </trkpt>
      <trkpt lat="41.99698" lon="21.49979">
        <ele>234.272698</ele>
        <time>2022-02-24T00:07:38.779Z</time>
      </trkpt>
      <trkpt lat="41.99628" lon="21.4994">
        <ele>234.302401</ele>
        <time>2022-02-24T00:07:59.674Z</time>
      </trkpt>
      <trkpt lat="41.99609" lon="21.4993">
        <ele>234.310149</ele>
        <time>2022-02-24T00:08:04.969Z</time>
      </trkpt>
      <trkpt lat="41.99606" lon="21.49928">
        <ele>234.311612</ele>
        <time>2022-02-24T00:08:05.847Z</time>
      </trkpt>
      <trkpt lat="41.99469" lon="21.49862">
        <ele>234.137966</ele>
        <time>2022-02-24T00:08:42.422Z</time>
      </trkpt>
      <trkpt lat="41.99462" lon="21.49849">
        <ele>234.112749</ele>
        <time>2022-02-24T00:08:45.542Z</time>
      </trkpt>
      <trkpt lat="41.99545" lon="21.49587">
        <ele>234.101911</ele>
        <time>2022-02-24T00:09:41.652Z</time>
      </trkpt>
      <trkpt lat="41.99553" lon="21.49562">
        <ele>234.121599</ele>
        <time>2022-02-24T00:09:47.343Z</time>
      </trkpt>
      <trkpt lat="41.99566" lon="21.49519">
        <ele>234.202773</ele>
        <time>2022-02-24T00:09:57.296Z</time>
      </trkpt>
      <trkpt lat="41.99569" lon="21.49497">
        <ele>234.275646</ele>
        <time>2022-02-24T00:10:02.414Z</time>
      </trkpt>
      <trkpt lat="41.99586" lon="21.49441">
        <ele>234.475547</ele>
        <time>2022-02-24T00:10:23.597Z</time>
      </trkpt>
      <trkpt lat="41.99622" lon="21.4934">
        <ele>234.845954</ele>
        <time>2022-02-24T00:11:02.635Z</time>
      </trkpt>
      <trkpt lat="41.99628" lon="21.49333">
        <ele>234.883202</ele>
        <time>2022-02-24T00:11:06.546Z</time>
      </trkpt>
      <trkpt lat="41.99635" lon="21.49335">
        <ele>234.914919</ele>
        <time>2022-02-24T00:11:10.134Z</time>
      </trkpt>
      <trkpt lat="41.99635" lon="21.49321">
        <ele>234.940089</ele>
        <time>2022-02-24T00:11:12.985Z</time>
      </trkpt>
      <trkpt lat="41.99635" lon="21.49309">
        <ele>234.942902</ele>
        <time>2022-02-24T00:11:15.401Z</time>
      </trkpt>
      <trkpt lat="41.99632" lon="21.49299">
        <ele>234.945428</ele>
        <time>2022-02-24T00:11:17.561Z</time>
      </trkpt>
      <trkpt lat="41.99623" lon="21.49279">
        <ele>234.950571</ele>
        <time>2022-02-24T00:11:22.367Z</time>
      </trkpt>
      <trkpt lat="41.99618" lon="21.49272">
        <ele>234.952977</ele>
        <time>2022-02-24T00:11:24.375Z</time>
      </trkpt>
      <trkpt lat="41.99611" lon="21.49269">
        <ele>234.955121</ele>
        <time>2022-02-24T00:11:26.137Z</time>
      </trkpt>
      <trkpt lat="41.99375" lon="21.49211">
        <ele>234.627635</ele>
        <time>2022-02-24T00:12:29.082Z</time>
      </trkpt>
      <trkpt lat="41.9935" lon="21.49198">
        <ele>234.541041</ele>
        <time>2022-02-24T00:12:35.372Z</time>
      </trkpt>
      <trkpt lat="41.99282" lon="21.49131">
        <ele>234.237033</ele>
        <time>2022-02-24T00:12:55.696Z</time>
      </trkpt>
      <trkpt lat="41.99276" lon="21.49112">
        <ele>234.177542</ele>
        <time>2022-02-24T00:12:59.215Z</time>
      </trkpt>
      <trkpt lat="41.99271" lon="21.49093">
        <ele>234.116741</ele>
        <time>2022-02-24T00:13:03.439Z</time>
      </trkpt>
      <trkpt lat="41.99268" lon="21.49085">
        <ele>234.090069</ele>
        <time>2022-02-24T00:13:04.929Z</time>
      </trkpt>
      <trkpt lat="41.99262" lon="21.49072">
        <ele>234.047289</ele>
        <time>2022-02-24T00:13:07.517Z</time>
      </trkpt>
      <trkpt lat="41.99241" lon="21.49044">
        <ele>233.92952</ele>
        <time>2022-02-24T00:13:15.098Z</time>
      </trkpt>
      <trkpt lat="41.9917" lon="21.48978">
        <ele>233.811106</ele>
        <time>2022-02-24T00:13:37.754Z</time>
      </trkpt>
      <trkpt lat="41.99076" lon="21.48886">
        <ele>234.229787</ele>
        <time>2022-02-24T00:14:11.872Z</time>
      </trkpt>
      <trkpt lat="41.99081" lon="21.48863">
        <ele>234.296088</ele>
        <time>2022-02-24T00:14:20.601Z</time>
      </trkpt>
      <trkpt lat="41.99085" lon="21.48842">
        <ele>234.352925</ele>
        <time>2022-02-24T00:14:27.927Z</time>
      </trkpt>
      <trkpt lat="41.99084" lon="21.48811">
        <ele>234.37205</ele>
        <time>2022-02-24T00:14:38.885Z</time>
      </trkpt>
      <trkpt lat="41.99094" lon="21.48786">
        <ele>234.387706</ele>
        <time>2022-02-24T00:14:48.473Z</time>
      </trkpt>
      <trkpt lat="41.99048" lon="21.48457">
        <ele>234.360246</ele>
        <time>2022-02-24T00:16:38.360Z</time>
      </trkpt>
      <trkpt lat="41.99031" lon="21.48397">
        <ele>234.305224</ele>
        <time>2022-02-24T00:16:59.203Z</time>
      </trkpt>
      <trkpt lat="41.99029" lon="21.48387">
        <ele>234.296508</ele>
        <time>2022-02-24T00:17:02.571Z</time>
      </trkpt>
      <trkpt lat="41.99045" lon="21.48336">
        <ele>234.169822</ele>
        <time>2022-02-24T00:17:20.628Z</time>
      </trkpt>
      <trkpt lat="41.99098" lon="21.48132">
        <ele>233.545231</ele>
        <time>2022-02-24T00:18:29.196Z</time>
      </trkpt>
      <trkpt lat="41.99104" lon="21.48023">
        <ele>233.178966</ele>
        <time>2022-02-24T00:19:03.042Z</time>
      </trkpt>
      <trkpt lat="41.9909" lon="21.47826">
        <ele>233.037627</ele>
        <time>2022-02-24T00:20:06.162Z</time>
      </trkpt>
      <trkpt lat="41.99106" lon="21.47704">
        <ele>233.440984</ele>
        <time>2022-02-24T00:20:49.815Z</time>
      </trkpt>
      <trkpt lat="41.99099" lon="21.47669">
        <ele>233.558259</ele>
        <time>2022-02-24T00:21:03.026Z</time>
      </trkpt>
      <trkpt lat="41.99122" lon="21.47508">
        <ele>235.082054</ele>
        <time>2022-02-24T00:22:05.948Z</time>
      </trkpt>
      <trkpt lat="41.99139" lon="21.47469">
        <ele>235.4983</ele>
        <time>2022-02-24T00:22:22.602Z</time>
      </trkpt>
      <trkpt lat="41.9915" lon="21.47447">
        <ele>235.75133</ele>
        <time>2022-02-24T00:22:32.926Z</time>
      </trkpt>
      <trkpt lat="41.99158" lon="21.47408">
        <ele>235.945201</ele>
        <time>2022-02-24T00:22:42.164Z</time>
      </trkpt>
      <trkpt lat="41.99172" lon="21.47333">
        <ele>236.210868</ele>
        <time>2022-02-24T00:22:59.364Z</time>
      </trkpt>
      <trkpt lat="41.99195" lon="21.47263">
        <ele>236.473254</ele>
        <time>2022-02-24T00:23:15.955Z</time>
      </trkpt>
      <trkpt lat="41.99422" lon="21.4683">
        <ele>236.061222</ele>
        <time>2022-02-24T00:24:57.412Z</time>
      </trkpt>
      <trkpt lat="41.99435" lon="21.46802">
        <ele>236.056877</ele>
        <time>2022-02-24T00:25:03.857Z</time>
      </trkpt>
      <trkpt lat="41.99453" lon="21.46769">
        <ele>236.076205</ele>
        <time>2022-02-24T00:25:12.078Z</time>
      </trkpt>
      <trkpt lat="41.99479" lon="21.46703">
        <ele>236.111315</ele>
        <time>2022-02-24T00:25:27.068Z</time>
      </trkpt>
      <trkpt lat="41.99497" lon="21.4663">
        <ele>236.147039</ele>
        <time>2022-02-24T00:25:42.537Z</time>
      </trkpt>
      <trkpt lat="41.99508" lon="21.46557">
        <ele>236.242724</ele>
        <time>2022-02-24T00:25:57.905Z</time>
      </trkpt>
      <trkpt lat="41.9951" lon="21.4648">
        <ele>236.377031</ele>
        <time>2022-02-24T00:26:13.653Z</time>
      </trkpt>
      <trkpt lat="41.99504" lon="21.46402">
        <ele>236.5149</ele>
        <time>2022-02-24T00:26:29.934Z</time>
      </trkpt>
      <trkpt lat="41.99493" lon="21.46343">
        <ele>236.646673</ele>
        <time>2022-02-24T00:26:42.581Z</time>
      </trkpt>
      <trkpt lat="41.99488" lon="21.46319">
        <ele>236.723128</ele>
        <time>2022-02-24T00:26:48.066Z</time>
      </trkpt>
      <trkpt lat="41.99464" lon="21.46248">
        <ele>236.953548</ele>
        <time>2022-02-24T00:27:04.211Z</time>
      </trkpt>
      <trkpt lat="41.99435" lon="21.46184">
        <ele>237.176585</ele>
        <time>2022-02-24T00:27:20.345Z</time>
      </trkpt>
      <trkpt lat="41.99375" lon="21.46095">
        <ele>237.68518</ele>
        <time>2022-02-24T00:27:46.370Z</time>
      </trkpt>
      <trkpt lat="41.99198" lon="21.45928">
        <ele>239.057582</ele>
        <time>2022-02-24T00:28:51.812Z</time>
      </trkpt>
      <trkpt lat="41.99153" lon="21.45878">
        <ele>239.395509</ele>
        <time>2022-02-24T00:29:08.705Z</time>
      </trkpt>
      <trkpt lat="41.99119" lon="21.45817">
        <ele>239.584148</ele>
        <time>2022-02-24T00:29:25.134Z</time>
      </trkpt>
      <trkpt lat="41.99096" lon="21.45747">
        <ele>239.622823</ele>
        <time>2022-02-24T00:29:40.645Z</time>
      </trkpt>
      <trkpt lat="41.99088" lon="21.45676">
        <ele>239.659943</ele>
        <time>2022-02-24T00:29:54.984Z</time>
      </trkpt>
      <trkpt lat="41.99092" lon="21.45598">
        <ele>239.639468</ele>
        <time>2022-02-24T00:30:09.956Z</time>
      </trkpt>
      <trkpt lat="41.99108" lon="21.45529">
        <ele>239.484958</ele>
        <time>2022-02-24T00:30:23.592Z</time>
      </trkpt>
      <trkpt lat="41.99152" lon="21.45436">
        <ele>239.248318</ele>
        <time>2022-02-24T00:30:44.294Z</time>
      </trkpt>
      <trkpt lat="41.99253" lon="21.45261">
        <ele>239.212051</ele>
        <time>2022-02-24T00:31:26.689Z</time>
      </trkpt>
      <trkpt lat="41.99316" lon="21.45187">
        <ele>239.566447</ele>
        <time>2022-02-24T00:31:51.431Z</time>
      </trkpt>
      <trkpt lat="41.99364" lon="21.45155">
        <ele>240.015375</ele>
        <time>2022-02-24T00:32:07.971Z</time>
      </trkpt>
      <trkpt lat="41.99376" lon="21.45146">
        <ele>240.128946</ele>
        <time>2022-02-24T00:32:12.687Z</time>
      </trkpt>
      <trkpt lat="41.9941" lon="21.45125">
        <ele>240.440433</ele>
        <time>2022-02-24T00:32:25.102Z</time>
      </trkpt>
      <trkpt lat="41.99452" lon="21.4509">
        <ele>240.754193</ele>
        <time>2022-02-24T00:32:41.246Z</time>
      </trkpt>
      <trkpt lat="41.99531" lon="21.4499">
        <ele>240.989602</ele>
        <time>2022-02-24T00:33:13.036Z</time>
      </trkpt>
      <trkpt lat="41.99534" lon="21.44986">
        <ele>240.997636</ele>
        <time>2022-02-24T00:33:14.063Z</time>
      </trkpt>
      <trkpt lat="41.99554" lon="21.44954">
        <ele>241.066574</ele>
        <time>2022-02-24T00:33:22.444Z</time>
      </trkpt>
      <trkpt lat="41.99561" lon="21.44943">
        <ele>241.089764</ele>
        <time>2022-02-24T00:33:25.134Z</time>
      </trkpt>
      <trkpt lat="41.99599" lon="21.44855">
        <ele>241.040265</ele>
        <time>2022-02-24T00:33:44.838Z</time>
      </trkpt>
      <trkpt lat="41.99618" lon="21.44797">
        <ele>240.990003</ele>
        <time>2022-02-24T00:33:57.221Z</time>
      </trkpt>
      <trkpt lat="41.99634" lon="21.44718">
        <ele>240.924722</ele>
        <time>2022-02-24T00:34:14.317Z</time>
      </trkpt>
      <trkpt lat="41.99643" lon="21.44632">
        <ele>241.440617</ele>
        <time>2022-02-24T00:34:34.594Z</time>
      </trkpt>
      <trkpt lat="41.99637" lon="21.44491">
        <ele>242.385212</ele>
        <time>2022-02-24T00:35:09.914Z</time>
      </trkpt>
      <trkpt lat="41.99592" lon="21.44306">
        <ele>243.287241</ele>
        <time>2022-02-24T00:35:54.957Z</time>
      </trkpt>
      <trkpt lat="41.99558" lon="21.44173">
        <ele>243.801795</ele>
        <time>2022-02-24T00:36:25.086Z</time>
      </trkpt>
      <trkpt lat="41.9955" lon="21.44152">
        <ele>243.871045</ele>
        <time>2022-02-24T00:36:30.075Z</time>
      </trkpt>
      <trkpt lat="41.9953" lon="21.43945">
        <ele>244.589284</ele>
        <time>2022-02-24T00:37:16.962Z</time>
      </trkpt>
      <trkpt lat="41.99541" lon="21.4383">
        <ele>245.116162</ele>
        <time>2022-02-24T00:37:43.692Z</time>
      </trkpt>
      <trkpt lat="41.99554" lon="21.43761">
        <ele>245.42794</ele>
        <time>2022-02-24T00:38:00.113Z</time>
      </trkpt>
      <trkpt lat="41.99575" lon="21.43692">
        <ele>245.590262</ele>
        <time>2022-02-24T00:38:16.832Z</time>
      </trkpt>
      <trkpt lat="41.99637" lon="21.43493">
        <ele>245.946866</ele>
        <time>2022-02-24T00:39:02.544Z</time>
      </trkpt>
      <trkpt lat="41.99661" lon="21.43433">
        <ele>245.954269</ele>
        <time>2022-02-24T00:39:16.804Z</time>
      </trkpt>
      <trkpt lat="41.99693" lon="21.43373">
        <ele>245.962259</ele>
        <time>2022-02-24T00:39:32.132Z</time>
      </trkpt>
      <trkpt lat="41.99785" lon="21.4325">
        <ele>246.245577</ele>
        <time>2022-02-24T00:40:07.648Z</time>
      </trkpt>
      <trkpt lat="41.99802" lon="21.43239">
        <ele>246.303194</ele>
        <time>2022-02-24T00:40:13.080Z</time>
      </trkpt>
      <trkpt lat="41.99811" lon="21.43216">
        <ele>246.35972</ele>
        <time>2022-02-24T00:40:18.483Z</time>
      </trkpt>
      <trkpt lat="41.99833" lon="21.43193">
        <ele>246.439758</ele>
        <time>2022-02-24T00:40:27.213Z</time>
      </trkpt>
      <trkpt lat="41.99885" lon="21.43148">
        <ele>247.245217</ele>
        <time>2022-02-24T00:40:47.128Z</time>
      </trkpt>
      <trkpt lat="41.99938" lon="21.43122">
        <ele>248.199757</ele>
        <time>2022-02-24T00:41:10.520Z</time>
      </trkpt>
      <trkpt lat="41.99939" lon="21.43129">
        <ele>248.298062</ele>
        <time>2022-02-24T00:41:13.550Z</time>
      </trkpt>
      <trkpt lat="42.00015" lon="21.43095">
        <ele>249.554198</ele>
        <time>2022-02-24T00:41:40.477Z</time>
      </trkpt>
      <trkpt lat="42.00022" lon="21.43097">
        <ele>249.553822</ele>
        <time>2022-02-24T00:41:42.651Z</time>
      </trkpt>
      <trkpt lat="42.00029" lon="21.43101">
        <ele>249.553468</ele>
        <time>2022-02-24T00:41:45.458Z</time>
      </trkpt>
      <trkpt lat="42.00044" lon="21.43159">
        <ele>249.551302</ele>
        <time>2022-02-24T00:41:58.433Z</time>
      </trkpt>
      <trkpt lat="41.99991" lon="21.4318">
        <ele>249.548684</ele>
        <time>2022-02-24T00:42:12.067Z</time>
      </trkpt>
      <trkpt lat="41.99976" lon="21.43181">
        <ele>249.547976</ele>
        <time>2022-02-24T00:42:17.063Z</time>
      </trkpt>
      <trkpt lat="41.99967" lon="21.43183">
        <ele>249.547543</ele>
        <time>2022-02-24T00:42:18.806Z</time>
      </trkpt>
      <trkpt lat="41.99941" lon="21.43188">
        <ele>249.546275</ele>
        <time>2022-02-24T00:42:26.854Z</time>
      </trkpt>
      <trkpt lat="41.99937" lon="21.43186">
        <ele>249.546089</ele>
        <time>2022-02-24T00:42:27.568Z</time>
      </trkpt>
      <trkpt lat="41.99929" lon="21.43175">
        <ele>249.489251</ele>
        <time>2022-02-24T00:42:30.089Z</time>
      </trkpt>
      <trkpt lat="41.99928" lon="21.43162">
        <ele>249.420509</ele>
        <time>2022-02-24T00:42:32.636Z</time>
      </trkpt>
      <trkpt lat="41.99916" lon="21.43013">
        <ele>248.650194</ele>
        <time>2022-02-24T00:42:56.896Z</time>
      </trkpt>
      <trkpt lat="41.99915" lon="21.43002">
        <ele>248.595899</ele>
        <time>2022-02-24T00:42:59.315Z</time>
      </trkpt>
      <trkpt lat="41.99918" lon="21.42973">
        <ele>248.44364</ele>
        <time>2022-02-24T00:43:05.350Z</time>
      </trkpt>
      <trkpt lat="41.99922" lon="21.42946">
        <ele>248.304305</ele>
        <time>2022-02-24T00:43:12.037Z</time>
      </trkpt>
      <trkpt lat="41.9993" lon="21.42925">
        <ele>248.418734</ele>
        <time>2022-02-24T00:43:17.470Z</time>
      </trkpt>
      <trkpt lat="41.99937" lon="21.42908">
        <ele>248.516038</ele>
        <time>2022-02-24T00:43:22.214Z</time>
      </trkpt>
      <trkpt lat="41.99945" lon="21.42891">
        <ele>248.61592</ele>
        <time>2022-02-24T00:43:26.727Z</time>
      </trkpt>
      <trkpt lat="41.99977" lon="21.42843">
        <ele>248.933509</ele>
        <time>2022-02-24T00:43:41.439Z</time>
      </trkpt>
      <trkpt lat="42.00006" lon="21.42795">
        <ele>249.241729</ele>
        <time>2022-02-24T00:43:55.296Z</time>
      </trkpt>
      <trkpt lat="42.00025" lon="21.42763">
        <ele>249.44211</ele>
        <time>2022-02-24T00:44:03.852Z</time>
      </trkpt>
      <trkpt lat="42.00034" lon="21.42741">
        <ele>249.518702</ele>
        <time>2022-02-24T00:44:09.185Z</time>
      </trkpt>
      <trkpt lat="42.00036" lon="21.42737">
        <ele>249.525281</ele>
        <time>2022-02-24T00:44:10.391Z</time>
      </trkpt>
      <trkpt lat="42.00038" lon="21.42721">
        <ele>249.544362</ele>
        <time>2022-02-24T00:44:13.990Z</time>
      </trkpt>
      <trkpt lat="42.00046" lon="21.42704">
        <ele>249.567201</ele>
        <time>2022-02-24T00:44:18.233Z</time>
      </trkpt>
      <trkpt lat="42.00048" lon="21.42699">
        <ele>249.574405</ele>
        <time>2022-02-24T00:44:19.523Z</time>
      </trkpt>
      <trkpt lat="42.00051" lon="21.42692">
        <ele>249.584413</ele>
        <time>2022-02-24T00:44:21.297Z</time>
      </trkpt>
      <trkpt lat="42.00053" lon="21.42688">
        <ele>249.590082</ele>
        <time>2022-02-24T00:44:22.260Z</time>
      </trkpt>
      <trkpt lat="42.00067" lon="21.42658">
        <ele>249.63264</ele>
        <time>2022-02-24T00:44:29.678Z</time>
      </trkpt>
      <trkpt lat="42.00118" lon="21.42547">
        <ele>249.787535</ele>
        <time>2022-02-24T00:44:55.348Z</time>
      </trkpt>
      <trkpt lat="42.00124" lon="21.42534">
        <ele>249.784298</ele>
        <time>2022-02-24T00:44:58.454Z</time>
      </trkpt>
      <trkpt lat="42.0013" lon="21.42523">
        <ele>249.776201</ele>
        <time>2022-02-24T00:45:01.070Z</time>
      </trkpt>
      <trkpt lat="42.00217" lon="21.42339">
        <ele>249.64808</ele>
        <time>2022-02-24T00:45:43.798Z</time>
      </trkpt>
      <trkpt lat="42.00223" lon="21.42325">
        <ele>249.648051</ele>
        <time>2022-02-24T00:45:46.703Z</time>
      </trkpt>
      <trkpt lat="42.00213" lon="21.42316">
        <ele>249.648022</ele>
        <time>2022-02-24T00:45:49.849Z</time>
      </trkpt>
      <trkpt lat="42.0021" lon="21.42314">
        <ele>249.648013</ele>
        <time>2022-02-24T00:45:50.834Z</time>
      </trkpt>
      <trkpt lat="42.00213" lon="21.42307">
        <ele>249.647999</ele>
        <time>2022-02-24T00:45:52.211Z</time>
      </trkpt>
      <trkpt lat="42.00233" lon="21.42264">
        <ele>249.647907</ele>
        <time>2022-02-24T00:46:02.051Z</time>
      </trkpt>
      <trkpt lat="42.00265" lon="21.422">
        <ele>249.64777</ele>
        <time>2022-02-24T00:46:16.960Z</time>
      </trkpt>
      <trkpt lat="42.00269" lon="21.42191">
        <ele>249.647749</ele>
        <time>2022-02-24T00:46:22.805Z</time>
      </trkpt>
      <trkpt lat="42.00442" lon="21.41868">
        <ele>250.23939</ele>
        <time>2022-02-24T00:47:45.970Z</time>
      </trkpt>
      <trkpt lat="42.00445" lon="21.41862">
        <ele>250.244626</ele>
        <time>2022-02-24T00:47:47.519Z</time>
      </trkpt>
      <trkpt lat="42.00526" lon="21.41702">
        <ele>250.431951</ele>
        <time>2022-02-24T00:48:25.613Z</time>
      </trkpt>
      <trkpt lat="42.00532" lon="21.41694">
        <ele>250.449846</ele>
        <time>2022-02-24T00:48:27.579Z</time>
      </trkpt>
      <trkpt lat="42.00538" lon="21.4168">
        <ele>250.476763</ele>
        <time>2022-02-24T00:48:30.886Z</time>
      </trkpt>
      <trkpt lat="42.00543" lon="21.4167">
        <ele>250.497466</ele>
        <time>2022-02-24T00:48:33.430Z</time>
      </trkpt>
      <trkpt lat="42.0055" lon="21.41659">
        <ele>250.52276</ele>
        <time>2022-02-24T00:48:36.485Z</time>
      </trkpt>
      <trkpt lat="42.00573" lon="21.4161">
        <ele>250.618816</ele>
        <time>2022-02-24T00:48:48.334Z</time>
      </trkpt>
      <trkpt lat="42.0059" lon="21.41574">
        <ele>250.691147</ele>
        <time>2022-02-24T00:48:57.502Z</time>
      </trkpt>
      <trkpt lat="42.00616" lon="21.41514">
        <ele>250.83921</ele>
        <time>2022-02-24T00:49:12.676Z</time>
      </trkpt>
      <trkpt lat="42.00633" lon="21.41457">
        <ele>250.991621</ele>
        <time>2022-02-24T00:49:26.242Z</time>
      </trkpt>
      <trkpt lat="42.0064" lon="21.41389">
        <ele>251.161978</ele>
        <time>2022-02-24T00:49:40.702Z</time>
      </trkpt>
      <trkpt lat="42.0064" lon="21.41377">
        <ele>251.191808</ele>
        <time>2022-02-24T00:49:43.250Z</time>
      </trkpt>
      <trkpt lat="42.00644" lon="21.41313">
        <ele>251.337311</ele>
        <time>2022-02-24T00:49:56.175Z</time>
      </trkpt>
      <trkpt lat="42.00653" lon="21.41126">
        <ele>251.228494</ele>
        <time>2022-02-24T00:50:32.484Z</time>
      </trkpt>
      <trkpt lat="42.00683" lon="21.40613">
        <ele>251.259328</ele>
        <time>2022-02-24T00:52:13.874Z</time>
      </trkpt>
      <trkpt lat="42.00686" lon="21.40595">
        <ele>251.268808</ele>
        <time>2022-02-24T00:52:17.564Z</time>
      </trkpt>
      <trkpt lat="42.00687" lon="21.40582">
        <ele>251.350655</ele>
        <time>2022-02-24T00:52:20.469Z</time>
      </trkpt>
      <trkpt lat="42.00686" lon="21.40565">
        <ele>251.472285</ele>
        <time>2022-02-24T00:52:24.265Z</time>
      </trkpt>
      <trkpt lat="42.00678" lon="21.40555">
        <ele>251.576928</ele>
        <time>2022-02-24T00:52:27.471Z</time>
      </trkpt>
      <trkpt lat="42.00682" lon="21.40539">
        <ele>251.694544</ele>
        <time>2022-02-24T00:52:31.318Z</time>
      </trkpt>
      <trkpt lat="42.0069" lon="21.40456">
        <ele>252.279223</ele>
        <time>2022-02-24T00:52:50.879Z</time>
      </trkpt>
      <trkpt lat="42.00701" lon="21.40254">
        <ele>253.616482</ele>
        <time>2022-02-24T00:53:40.522Z</time>
      </trkpt>
      <trkpt lat="42.00718" lon="21.39933">
        <ele>254.864402</ele>
        <time>2022-02-24T00:54:49.517Z</time>
      </trkpt>
      <trkpt lat="42.00726" lon="21.39778">
        <ele>254.906149</ele>
        <time>2022-02-24T00:55:19.643Z</time>
      </trkpt>
      <trkpt lat="42.00732" lon="21.39677">
        <ele>254.82298</ele>
        <time>2022-02-24T00:55:39.109Z</time>
      </trkpt>
      <trkpt lat="42.00744" lon="21.39457">
        <ele>254.766029</ele>
        <time>2022-02-24T00:56:22.282Z</time>
      </trkpt>
      <trkpt lat="42.00748" lon="21.39382">
        <ele>254.762608</ele>
        <time>2022-02-24T00:56:37.618Z</time>
      </trkpt>
      <trkpt lat="42.00752" lon="21.39372">
        <ele>254.76729</ele>
        <time>2022-02-24T00:56:39.902Z</time>
      </trkpt>
      <trkpt lat="42.00754" lon="21.39361">
        <ele>254.771713</ele>
        <time>2022-02-24T00:56:42.000Z</time>
      </trkpt>
      <trkpt lat="42.00752" lon="21.39345">
        <ele>254.778273</ele>
        <time>2022-02-24T00:56:45.260Z</time>
      </trkpt>
      <trkpt lat="42.00748" lon="21.39347">
        <ele>254.780473</ele>
        <time>2022-02-24T00:56:46.660Z</time>
      </trkpt>
      <trkpt lat="42.00723" lon="21.39351">
        <ele>254.794254</ele>
        <time>2022-02-24T00:56:53.461Z</time>
      </trkpt>
      <trkpt lat="42.0071" lon="21.39349">
        <ele>254.801126</ele>
        <time>2022-02-24T00:56:57.368Z</time>
      </trkpt>
      <trkpt lat="42.00699" lon="21.39347">
        <ele>254.806951</ele>
        <time>2022-02-24T00:57:00.396Z</time>
      </trkpt>
      <trkpt lat="42.00672" lon="21.3934">
        <ele>254.821712</ele>
        <time>2022-02-24T00:57:08.344Z</time>
      </trkpt>
      <trkpt lat="42.00597" lon="21.39322">
        <ele>254.84379</ele>
        <time>2022-02-24T00:57:29.342Z</time>
      </trkpt>
      <trkpt lat="42.00585" lon="21.39319">
        <ele>254.835263</ele>
        <time>2022-02-24T00:57:32.474Z</time>
      </trkpt>
      <trkpt lat="42.00583" lon="21.39319">
        <ele>254.833766</ele>
        <time>2022-02-24T00:57:33.012Z</time>
      </trkpt>
      <trkpt lat="42.00558" lon="21.39312">
        <ele>254.814624</ele>
        <time>2022-02-24T00:57:40.111Z</time>
      </trkpt>
      <trkpt lat="42.00507" lon="21.393">
        <ele>254.776631</ele>
        <time>2022-02-24T00:57:54.104Z</time>
      </trkpt>
      <trkpt lat="42.00492" lon="21.39296">
        <ele>254.765264</ele>
        <time>2022-02-24T00:57:58.262Z</time>
      </trkpt>
      <trkpt lat="42.00457" lon="21.39288">
        <ele>254.73901</ele>
        <time>2022-02-24T00:58:08.117Z</time>
      </trkpt>
      <trkpt lat="42.00389" lon="21.39271">
        <ele>254.986846</ele>
        <time>2022-02-24T00:58:27.493Z</time>
      </trkpt>
      <trkpt lat="42.00382" lon="21.39266">
        <ele>255.032601</ele>
        <time>2022-02-24T00:58:29.632Z</time>
      </trkpt>
      <trkpt lat="42.00374" lon="21.3926">
        <ele>255.080971</ele>
        <time>2022-02-24T00:58:32.046Z</time>
      </trkpt>
      <trkpt lat="42.00371" lon="21.39256">
        <ele>255.106805</ele>
        <time>2022-02-24T00:58:33.369Z</time>
      </trkpt>
      <trkpt lat="42.00369" lon="21.39266">
        <ele>255.15021</ele>
        <time>2022-02-24T00:58:35.598Z</time>
      </trkpt>
      <trkpt lat="42.00353" lon="21.39262">
        <ele>255.243139</ele>
        <time>2022-02-24T00:58:41.612Z</time>
      </trkpt>
      <trkpt lat="42.0034" lon="21.39259">
        <ele>255.320299</ele>
        <time>2022-02-24T00:58:46.902Z</time>
      </trkpt>
      <trkpt lat="42.00327" lon="21.39256">
        <ele>255.394025</ele>
        <time>2022-02-24T00:58:52.057Z</time>
      </trkpt>
      <trkpt lat="42.00329" lon="21.39241">
        <ele>255.458726</ele>
        <time>2022-02-24T00:58:56.531Z</time>
      </trkpt>
      <trkpt lat="42.00343" lon="21.39145">
        <ele>255.937838</ele>
        <time>2022-02-24T00:59:26.049Z</time>
      </trkpt>
      <trkpt lat="42.00358" lon="21.39033">
        <ele>256.654961</ele>
        <time>2022-02-24T00:59:59.621Z</time>
      </trkpt>
      <trkpt lat="42.0036" lon="21.39019">
        <ele>256.744213</ele>
        <time>2022-02-24T01:00:03.772Z</time>
      </trkpt>
      <trkpt lat="42.00363" lon="21.39">
        <ele>256.865297</ele>
        <time>2022-02-24T01:00:09.373Z</time>
      </trkpt>
      <trkpt lat="42.00401" lon="21.38729">
        <ele>257.913255</ele>
        <time>2022-02-24T01:01:25.722Z</time>
      </trkpt>
      <trkpt lat="42.00413" lon="21.38654">
        <ele>258.04394</ele>
        <time>2022-02-24T01:01:46.572Z</time>
      </trkpt>
      <trkpt lat="42.00423" lon="21.38577">
        <ele>258.1057</ele>
        <time>2022-02-24T01:02:07.142Z</time>
      </trkpt>
      <trkpt lat="42.00425" lon="21.38563">
        <ele>258.117392</ele>
        <time>2022-02-24T01:02:11.158Z</time>
      </trkpt>
      <trkpt lat="42.00425" lon="21.38558">
        <ele>258.12161</ele>
        <time>2022-02-24T01:02:12.495Z</time>
      </trkpt>
      <trkpt lat="42.00461" lon="21.38305">
        <ele>258.21083</ele>
        <time>2022-02-24T01:03:19.701Z</time>
      </trkpt>
      <trkpt lat="42.00464" lon="21.38282">
        <ele>258.212416</ele>
        <time>2022-02-24T01:03:25.605Z</time>
      </trkpt>
      <trkpt lat="42.00467" lon="21.38274">
        <ele>258.212987</ele>
        <time>2022-02-24T01:03:27.802Z</time>
      </trkpt>
      <trkpt lat="42.0047" lon="21.3826">
        <ele>258.213963</ele>
        <time>2022-02-24T01:03:31.666Z</time>
      </trkpt>
      <trkpt lat="42.0045" lon="21.38263">
        <ele>258.215795</ele>
        <time>2022-02-24T01:03:36.905Z</time>
      </trkpt>
      <trkpt lat="42.00444" lon="21.38266">
        <ele>258.216357</ele>
        <time>2022-02-24T01:03:38.571Z</time>
      </trkpt>
      <trkpt lat="42.00437" lon="21.3827">
        <ele>258.24276</ele>
        <time>2022-02-24T01:03:40.826Z</time>
      </trkpt>
      <trkpt lat="42.00427" lon="21.38281">
        <ele>258.291205</ele>
        <time>2022-02-24T01:03:44.283Z</time>
      </trkpt>
      <trkpt lat="42.00417" lon="21.38306">
        <ele>258.369397</ele>
        <time>2022-02-24T01:03:50.102Z</time>
      </trkpt>
      <trkpt lat="42.00414" lon="21.38312">
        <ele>258.38975</ele>
        <time>2022-02-24T01:03:51.674Z</time>
      </trkpt>
      <trkpt lat="42.00396" lon="21.3834">
        <ele>258.490718</ele>
        <time>2022-02-24T01:03:59.118Z</time>
      </trkpt>
      <trkpt lat="42.00392" lon="21.38344">
        <ele>258.506814</ele>
        <time>2022-02-24T01:04:00.414Z</time>
      </trkpt>
      <trkpt lat="42.00382" lon="21.3833">
        <ele>258.562053</ele>
        <time>2022-02-24T01:04:04.469Z</time>
      </trkpt>
      <trkpt lat="42.00311" lon="21.38235">
        <ele>258.965746</ele>
        <time>2022-02-24T01:04:34.280Z</time>
      </trkpt>
      <trkpt lat="42.00265" lon="21.38195">
        <ele>259.324481</ele>
        <time>2022-02-24T01:04:50.240Z</time>
      </trkpt>
      <trkpt lat="42.00225" lon="21.38177">
        <ele>259.602455</ele>
        <time>2022-02-24T01:05:02.873Z</time>
      </trkpt>
      <trkpt lat="42.00213" lon="21.38168">
        <ele>259.688112</ele>
        <time>2022-02-24T01:05:07.084Z</time>
      </trkpt>
      <trkpt lat="42.00211" lon="21.38157">
        <ele>259.743056</ele>
        <time>2022-02-24T01:05:09.375Z</time>
      </trkpt>
      <trkpt lat="42.00213" lon="21.38138">
        <ele>259.836598</ele>
        <time>2022-02-24T01:05:13.521Z</time>
      </trkpt>
      <trkpt lat="42.00216" lon="21.38129">
        <ele>259.887769</ele>
        <time>2022-02-24T01:05:16.100Z</time>
      </trkpt>
      <trkpt lat="42.00193" lon="21.3811">
        <ele>260.065256</ele>
        <time>2022-02-24T01:05:23.735Z</time>
      </trkpt>
      <trkpt lat="42.0017" lon="21.38092">
        <ele>260.34275</ele>
        <time>2022-02-24T01:05:31.768Z</time>
      </trkpt>
      <trkpt lat="42.00163" lon="21.38089">
        <ele>260.418918</ele>
        <time>2022-02-24T01:05:34.102Z</time>
      </trkpt>
      <trkpt lat="42.00137" lon="21.3809">
        <ele>260.688879</ele>
        <time>2022-02-24T01:05:42.173Z</time>
      </trkpt>
      <trkpt lat="42.00115" lon="21.38093">
        <ele>260.930371</ele>
        <time>2022-02-24T01:05:49.594Z</time>
      </trkpt>
      <trkpt lat="42.00102" lon="21.38094">
        <ele>261.058245</ele>
        <time>2022-02-24T01:05:53.300Z</time>
      </trkpt>
      <trkpt lat="42.00079" lon="21.38098">
        <ele>261.300774</ele>
        <time>2022-02-24T01:06:00.793Z</time>
      </trkpt>
      <trkpt lat="42.00046" lon="21.38068">
        <ele>261.719193</ele>
        <time>2022-02-24T01:06:13.440Z</time>
      </trkpt>
      <trkpt lat="42.00019" lon="21.38042">
        <ele>262.212148</ele>
        <time>2022-02-24T01:06:24.780Z</time>
      </trkpt>
      <trkpt lat="41.99994" lon="21.38086">
        <ele>263.088022</ele>
        <time>2022-02-24T01:06:39.339Z</time>
      </trkpt>
      <trkpt lat="41.99973" lon="21.38077">
        <ele>263.562516</ele>
        <time>2022-02-24T01:06:47.045Z</time>
      </trkpt>
      <trkpt lat="41.9998" lon="21.38042">
        <ele>264.133424</ele>
        <time>2022-02-24T01:06:57.335Z</time>
      </trkpt>
      <trkpt lat="41.99991" lon="21.37999">
        <ele>264.845929</ele>
        <time>2022-02-24T01:07:10.258Z</time>
      </trkpt>
      <trkpt lat="41.99992" lon="21.37995">
        <ele>264.919344</ele>
        <time>2022-02-24T01:07:11.525Z</time>
      </trkpt>
      <trkpt lat="42.00011" lon="21.37945">
        <ele>265.806606</ele>
        <time>2022-02-24T01:07:27.396Z</time>
      </trkpt>
      <trkpt lat="42.00014" lon="21.37936">
        <ele>265.974714</ele>
        <time>2022-02-24T01:07:29.992Z</time>
      </trkpt>
      <trkpt lat="42.00005" lon="21.37933">
        <ele>266.170929</ele>
        <time>2022-02-24T01:07:34.435Z</time>
      </trkpt>
      <trkpt lat="41.99973" lon="21.37928">
        <ele>266.892278</ele>
        <time>2022-02-24T01:07:47.422Z</time>
      </trkpt>
      <trkpt lat="41.99913" lon="21.37928">
        <ele>268.239413</ele>
        <time>2022-02-24T01:08:10.745Z</time>
      </trkpt>
      <trkpt lat="41.99869" lon="21.37916">
        <ele>269.237017</ele>
        <time>2022-02-24T01:08:27.049Z</time>
      </trkpt>
      <trkpt lat="41.99851" lon="21.37917">
        <ele>269.646332</ele>
        <time>2022-02-24T01:08:34.362Z</time>
      </trkpt>
      <trkpt lat="41.99845" lon="21.37898">
        <ele>269.832497</ele>
        <time>2022-02-24T01:08:38.823Z</time>
      </trkpt>
      <trkpt lat="41.9984" lon="21.37882">
        <ele>269.901483</ele>
        <time>2022-02-24T01:08:43.175Z</time>
      </trkpt>
      <trkpt lat="41.99837" lon="21.3787">
        <ele>269.952298</ele>
        <time>2022-02-24T01:08:46.268Z</time>
      </trkpt>
      <trkpt lat="41.9981" lon="21.37816">
        <ele>270.208197</ele>
        <time>2022-02-24T01:08:59.451Z</time>
      </trkpt>
      <trkpt lat="41.998" lon="21.37798">
        <ele>270.297521</ele>
        <time>2022-02-24T01:09:03.931Z</time>
      </trkpt>
      <trkpt lat="41.99788" lon="21.37779">
        <ele>270.396016</ele>
        <time>2022-02-24T01:09:09.246Z</time>
      </trkpt>
      <trkpt lat="41.9978" lon="21.37765">
        <ele>270.464624</ele>
        <time>2022-02-24T01:09:12.563Z</time>
      </trkpt>
      <trkpt lat="41.99769" lon="21.37745">
        <ele>270.565315</ele>
        <time>2022-02-24T01:09:18.227Z</time>
      </trkpt>
      <trkpt lat="41.99748" lon="21.37699">
        <ele>270.900437</ele>
        <time>2022-02-24T01:09:28.969Z</time>
      </trkpt>
      <trkpt lat="41.99741" lon="21.37687">
        <ele>271.119373</ele>
        <time>2022-02-24T01:09:31.667Z</time>
      </trkpt>
      <trkpt lat="41.99718" lon="21.3764">
        <ele>271.974488</ele>
        <time>2022-02-24T01:09:44.109Z</time>
      </trkpt>
      <trkpt lat="41.99715" lon="21.37634">
        <ele>272.06795</ele>
        <time>2022-02-24T01:09:45.951Z</time>
      </trkpt>
      <trkpt lat="41.997" lon="21.37592">
        <ele>272.772326</ele>
        <time>2022-02-24T01:09:57.038Z</time>
      </trkpt>
      <trkpt lat="41.99692" lon="21.37452">
        <ele>276.023968</ele>
        <time>2022-02-24T01:10:41.438Z</time>
      </trkpt>
      <trkpt lat="41.99677" lon="21.37365">
        <ele>280.421388</ele>
        <time>2022-02-24T01:11:20.275Z</time>
      </trkpt>
      <trkpt lat="41.99669" lon="21.37332">
        <ele>282.109345</ele>
        <time>2022-02-24T01:11:36.311Z</time>
      </trkpt>
      <trkpt lat="41.99667" lon="21.3732">
        <ele>282.673425</ele>
        <time>2022-02-24T01:11:42.328Z</time>
      </trkpt>
      <trkpt lat="41.99667" lon="21.37249">
        <ele>286.165112</ele>
        <time>2022-02-24T01:12:16.386Z</time>
      </trkpt>
      <trkpt lat="41.99664" lon="21.37241">
        <ele>286.567378</ele>
        <time>2022-02-24T01:12:20.658Z</time>
      </trkpt>
      <trkpt lat="41.99659" lon="21.37235">
        <ele>286.958827</ele>
        <time>2022-02-24T01:12:25.631Z</time>
      </trkpt>
      <trkpt lat="41.99645" lon="21.37222">
        <ele>287.944916</ele>
        <time>2022-02-24T01:12:36.530Z</time>
      </trkpt>
      <trkpt lat="41.99622" lon="21.37198">
        <ele>289.638683</ele>
        <time>2022-02-24T01:12:57.405Z</time>
      </trkpt>
      <trkpt lat="41.99589" lon="21.37145">
        <ele>292.665604</ele>
        <time>2022-02-24T01:13:26.375Z</time>
      </trkpt>
      <trkpt lat="41.9957" lon="21.37049">
        <ele>296.691833</ele>
        <time>2022-02-24T01:14:02.531Z</time>
      </trkpt>
      <trkpt lat="41.99572" lon="21.37034">
        <ele>296.440627</ele>
        <time>2022-02-24T01:14:07.052Z</time>
      </trkpt>
      <trkpt lat="41.99573" lon="21.37027">
        <ele>296.325192</ele>
        <time>2022-02-24T01:14:10.435Z</time>
      </trkpt>
      <trkpt lat="41.99578" lon="21.37015">
        <ele>296.096021</ele>
        <time>2022-02-24T01:14:12.550Z</time>
      </trkpt>
      <trkpt lat="41.99594" lon="21.36977">
        <ele>295.377142</ele>
        <time>2022-02-24T01:14:20.242Z</time>
      </trkpt>
      <trkpt lat="41.99605" lon="21.36932">
        <ele>294.595206</ele>
        <time>2022-02-24T01:14:27.455Z</time>
      </trkpt>
      <trkpt lat="41.9961" lon="21.36884">
        <ele>293.798175</ele>
        <time>2022-02-24T01:14:34.221Z</time>
      </trkpt>
      <trkpt lat="41.99654" lon="21.3679">
        <ele>290.869916</ele>
        <time>2022-02-24T01:14:48.631Z</time>
      </trkpt>
      <trkpt lat="41.99688" lon="21.36685">
        <ele>286.497779</ele>
        <time>2022-02-24T01:15:03.358Z</time>
      </trkpt>
      <trkpt lat="41.99696" lon="21.36644">
        <ele>284.834598</ele>
        <time>2022-02-24T01:15:09.226Z</time>
      </trkpt>
      <trkpt lat="41.997" lon="21.36577">
        <ele>283.67925</ele>
        <time>2022-02-24T01:15:19.465Z</time>
      </trkpt>
      <trkpt lat="41.99702" lon="21.36571">
        <ele>283.716056</ele>
        <time>2022-02-24T01:15:20.316Z</time>
      </trkpt>
      <trkpt lat="41.99702" lon="21.36562">
        <ele>283.763123</ele>
        <time>2022-02-24T01:15:22.066Z</time>
      </trkpt>
      <trkpt lat="41.99705" lon="21.36542">
        <ele>283.877459</ele>
        <time>2022-02-24T01:15:27.497Z</time>
      </trkpt>
      <trkpt lat="41.99727" lon="21.36394">
        <ele>284.698637</ele>
        <time>2022-02-24T01:16:05.095Z</time>
      </trkpt>
      <trkpt lat="41.99735" lon="21.36368">
        <ele>284.945231</ele>
        <time>2022-02-24T01:16:13.645Z</time>
      </trkpt>
      <trkpt lat="41.99745" lon="21.36334">
        <ele>285.808639</ele>
        <time>2022-02-24T01:16:26.888Z</time>
      </trkpt>
      <trkpt lat="41.99763" lon="21.36282">
        <ele>287.176182</ele>
        <time>2022-02-24T01:16:46.614Z</time>
      </trkpt>
      <trkpt lat="41.99798" lon="21.36115">
        <ele>290.855371</ele>
        <time>2022-02-24T01:17:40.280Z</time>
      </trkpt>
      <trkpt lat="41.998" lon="21.36054">
        <ele>291.48174</ele>
        <time>2022-02-24T01:17:55.900Z</time>
      </trkpt>
      <trkpt lat="41.998" lon="21.3604">
        <ele>291.627582</ele>
        <time>2022-02-24T01:18:00.581Z</time>
      </trkpt>
      <trkpt lat="41.99802" lon="21.36006">
        <ele>291.986058</ele>
        <time>2022-02-24T01:18:08.340Z</time>
      </trkpt>
      <trkpt lat="41.99804" lon="21.358">
        <ele>292.650189</ele>
        <time>2022-02-24T01:18:52.074Z</time>
      </trkpt>
      <trkpt lat="41.99806" lon="21.35772">
        <ele>292.544707</ele>
        <time>2022-02-24T01:18:56.757Z</time>
      </trkpt>
      <trkpt lat="41.9982" lon="21.35709">
        <ele>292.297319</ele>
        <time>2022-02-24T01:19:07.833Z</time>
      </trkpt>
      <trkpt lat="41.9982" lon="21.35683">
        <ele>292.200572</ele>
        <time>2022-02-24T01:19:12.190Z</time>
      </trkpt>
      <trkpt lat="41.99813" lon="21.35638">
        <ele>291.941685</ele>
        <time>2022-02-24T01:19:20.072Z</time>
      </trkpt>
      <trkpt lat="41.99788" lon="21.3556">
        <ele>291.366163</ele>
        <time>2022-02-24T01:19:34.489Z</time>
      </trkpt>
      <trkpt lat="41.99795" lon="21.35518">
        <ele>291.076702</ele>
        <time>2022-02-24T01:19:41.781Z</time>
      </trkpt>
      <trkpt lat="41.99793" lon="21.35456">
        <ele>290.652118</ele>
        <time>2022-02-24T01:19:52.906Z</time>
      </trkpt>
      <trkpt lat="41.99791" lon="21.35433">
        <ele>290.494511</ele>
        <time>2022-02-24T01:19:57.179Z</time>
      </trkpt>
      <trkpt lat="41.99772" lon="21.35383">
        <ele>290.373582</ele>
        <time>2022-02-24T01:20:07.625Z</time>
      </trkpt>
      <trkpt lat="41.99764" lon="21.35341">
        <ele>290.281351</ele>
        <time>2022-02-24T01:20:15.816Z</time>
      </trkpt>
      <trkpt lat="41.99789" lon="21.35188">
        <ele>290.013815</ele>
        <time>2022-02-24T01:20:45.341Z</time>
      </trkpt>
      <trkpt lat="41.99794" lon="21.35119">
        <ele>290.205939</ele>
        <time>2022-02-24T01:21:00.180Z</time>
      </trkpt>
      <trkpt lat="41.99785" lon="21.35011">
        <ele>290.505405</ele>
        <time>2022-02-24T01:21:25.357Z</time>
      </trkpt>
      <trkpt lat="41.99762" lon="21.34918">
        <ele>290.138871</ele>
        <time>2022-02-24T01:21:44.987Z</time>
      </trkpt>
      <trkpt lat="41.99744" lon="21.34807">
        <ele>288.924834</ele>
        <time>2022-02-24T01:22:04.549Z</time>
      </trkpt>
      <trkpt lat="41.99745" lon="21.34797">
        <ele>288.821516</ele>
        <time>2022-02-24T01:22:06.908Z</time>
      </trkpt>
      <trkpt lat="41.99749" lon="21.34786">
        <ele>288.69035</ele>
        <time>2022-02-24T01:22:08.676Z</time>
      </trkpt>
      <trkpt lat="41.99752" lon="21.34778">
        <ele>288.586015</ele>
        <time>2022-02-24T01:22:10.052Z</time>
      </trkpt>
      <trkpt lat="41.99754" lon="21.34768">
        <ele>288.474313</ele>
        <time>2022-02-24T01:22:11.464Z</time>
      </trkpt>
      <trkpt lat="41.99757" lon="21.34705">
        <ele>287.321282</ele>
        <time>2022-02-24T01:22:20.642Z</time>
      </trkpt>
      <trkpt lat="41.99742" lon="21.34658">
        <ele>285.713926</ele>
        <time>2022-02-24T01:22:27.857Z</time>
      </trkpt>
      <trkpt lat="41.99744" lon="21.34612">
        <ele>284.263006</ele>
        <time>2022-02-24T01:22:34.196Z</time>
      </trkpt>
      <trkpt lat="41.99746" lon="21.34583">
        <ele>283.351605</ele>
        <time>2022-02-24T01:22:38.006Z</time>
      </trkpt>
      <trkpt lat="41.99745" lon="21.3457">
        <ele>282.950878</ele>
        <time>2022-02-24T01:22:39.721Z</time>
      </trkpt>
      <trkpt lat="41.99742" lon="21.34544">
        <ele>282.139011</ele>
        <time>2022-02-24T01:22:43.376Z</time>
      </trkpt>
      <trkpt lat="41.99738" lon="21.34526">
        <ele>281.557345</ele>
        <time>2022-02-24T01:22:46.075Z</time>
      </trkpt>
      <trkpt lat="41.99736" lon="21.34523">
        <ele>281.414194</ele>
        <time>2022-02-24T01:22:46.659Z</time>
      </trkpt>
      <trkpt lat="41.9973" lon="21.34511">
        <ele>280.954742</ele>
        <time>2022-02-24T01:22:48.734Z</time>
      </trkpt>
      <trkpt lat="41.99714" lon="21.34488">
        <ele>280.03204</ele>
        <time>2022-02-24T01:22:53.101Z</time>
      </trkpt>
      <trkpt lat="41.99695" lon="21.34457">
        <ele>278.944742</ele>
        <time>2022-02-24T01:22:58.612Z</time>
      </trkpt>
      <trkpt lat="41.99667" lon="21.34413">
        <ele>277.375509</ele>
        <time>2022-02-24T01:23:06.511Z</time>
      </trkpt>
      <trkpt lat="41.99644" lon="21.34365">
        <ele>275.812399</ele>
        <time>2022-02-24T01:23:14.849Z</time>
      </trkpt>
      <trkpt lat="41.99636" lon="21.34343">
        <ele>275.133845</ele>
        <time>2022-02-24T01:23:18.509Z</time>
      </trkpt>
      <trkpt lat="41.99659" lon="21.34334">
        <ele>274.273033</ele>
        <time>2022-02-24T01:23:23.211Z</time>
      </trkpt>
      <trkpt lat="41.99699" lon="21.34324">
        <ele>273.065191</ele>
        <time>2022-02-24T01:23:31.234Z</time>
      </trkpt>
      <trkpt lat="41.99742" lon="21.3432">
        <ele>271.887333</ele>
        <time>2022-02-24T01:23:39.778Z</time>
      </trkpt>
      <trkpt lat="41.99765" lon="21.34302">
        <ele>271.170126</ele>
        <time>2022-02-24T01:23:44.979Z</time>
      </trkpt>
      <trkpt lat="41.99842" lon="21.34222">
        <ele>268.76794</ele>
        <time>2022-02-24T01:24:04.725Z</time>
      </trkpt>
      <trkpt lat="41.9985" lon="21.34213">
        <ele>268.641825</ele>
        <time>2022-02-24T01:24:06.952Z</time>
      </trkpt>
      <trkpt lat="41.99888" lon="21.34164">
        <ele>267.986449</ele>
        <time>2022-02-24T01:24:18.438Z</time>
      </trkpt>
      <trkpt lat="41.99899" lon="21.34143">
        <ele>267.746595</ele>
        <time>2022-02-24T01:24:22.847Z</time>
      </trkpt>
      <trkpt lat="41.99909" lon="21.34119">
        <ele>267.495315</ele>
        <time>2022-02-24T01:24:27.461Z</time>
      </trkpt>
      <trkpt lat="41.9993" lon="21.34071">
        <ele>266.986643</ele>
        <time>2022-02-24T01:24:37.255Z</time>
      </trkpt>
      <trkpt lat="41.99983" lon="21.33946">
        <ele>267.125712</ele>
        <time>2022-02-24T01:25:06.387Z</time>
      </trkpt>
      <trkpt lat="42.00048" lon="21.33774">
        <ele>267.801209</ele>
        <time>2022-02-24T01:25:50.695Z</time>
      </trkpt>
      <trkpt lat="42.00068" lon="21.33736">
        <ele>267.988092</ele>
        <time>2022-02-24T01:26:00.851Z</time>
      </trkpt>
      <trkpt lat="42.00077" lon="21.33726">
        <ele>268.054454</ele>
        <time>2022-02-24T01:26:04.511Z</time>
      </trkpt>
      <trkpt lat="42.00108" lon="21.33703">
        <ele>268.244744</ele>
        <time>2022-02-24T01:26:14.600Z</time>
      </trkpt>
      <trkpt lat="42.00114" lon="21.33521">
        <ele>268.677968</ele>
        <time>2022-02-24T01:27:03.286Z</time>
      </trkpt>
      <trkpt lat="42.00117" lon="21.33409">
        <ele>268.847519</ele>
        <time>2022-02-24T01:27:32.995Z</time>
      </trkpt>
      <trkpt lat="42.00118" lon="21.33358">
        <ele>268.992347</ele>
        <time>2022-02-24T01:27:46.710Z</time>
      </trkpt>
      <trkpt lat="42.00117" lon="21.33317">
        <ele>269.124184</ele>
        <time>2022-02-24T01:27:57.980Z</time>
      </trkpt>
      <trkpt lat="42.00116" lon="21.333">
        <ele>269.179159</ele>
        <time>2022-02-24T01:28:02.779Z</time>
      </trkpt>
      <trkpt lat="42.00109" lon="21.33243">
        <ele>269.366417</ele>
        <time>2022-02-24T01:28:19.146Z</time>
      </trkpt>
      <trkpt lat="42.00108" lon="21.33223">
        <ele>269.432653</ele>
        <time>2022-02-24T01:28:24.959Z</time>
      </trkpt>
      <trkpt lat="42.00108" lon="21.33189">
        <ele>269.5406</ele>
        <time>2022-02-24T01:28:32.441Z</time>
      </trkpt>
      <trkpt lat="42.00106" lon="21.33186">
        <ele>269.555782</ele>
        <time>2022-02-24T01:28:33.485Z</time>
      </trkpt>
      <trkpt lat="42.00093" lon="21.33164">
        <ele>269.643891</ele>
        <time>2022-02-24T01:28:39.438Z</time>
      </trkpt>
      <trkpt lat="42.00087" lon="21.33155">
        <ele>269.681414</ele>
        <time>2022-02-24T01:28:41.963Z</time>
      </trkpt>
      <trkpt lat="42.00073" lon="21.33136">
        <ele>269.762075</ele>
        <time>2022-02-24T01:28:47.770Z</time>
      </trkpt>
      <trkpt lat="42.00055" lon="21.33108">
        <ele>269.870471</ele>
        <time>2022-02-24T01:28:55.319Z</time>
      </trkpt>
      <trkpt lat="42.00035" lon="21.33074">
        <ele>270.002128</ele>
        <time>2022-02-24T01:29:04.531Z</time>
      </trkpt>
      <trkpt lat="41.99995" lon="21.33036">
        <ele>270.199604</ele>
        <time>2022-02-24T01:29:18.798Z</time>
      </trkpt>
      <trkpt lat="41.99989" lon="21.33031">
        <ele>270.228607</ele>
        <time>2022-02-24T01:29:20.942Z</time>
      </trkpt>
      <trkpt lat="41.9998" lon="21.33026">
        <ele>270.268162</ele>
        <time>2022-02-24T01:29:23.588Z</time>
      </trkpt>
      <trkpt lat="41.99979" lon="21.33016">
        <ele>270.29863</ele>
        <time>2022-02-24T01:29:25.678Z</time>
      </trkpt>
      <trkpt lat="41.99976" lon="21.32978">
        <ele>270.420432</ele>
        <time>2022-02-24T01:29:33.724Z</time>
      </trkpt>
      <trkpt lat="41.99971" lon="21.32948">
        <ele>270.52673</ele>
        <time>2022-02-24T01:29:40.101Z</time>
      </trkpt>
      <trkpt lat="41.99978" lon="21.32922">
        <ele>270.62143</ele>
        <time>2022-02-24T01:29:45.546Z</time>
      </trkpt>
      <trkpt lat="42.00004" lon="21.32852">
        <ele>270.89694</ele>
        <time>2022-02-24T01:30:02.383Z</time>
      </trkpt>
      <trkpt lat="41.99992" lon="21.32836">
        <ele>270.97303</ele>
        <time>2022-02-24T01:30:06.987Z</time>
      </trkpt>
      <trkpt lat="41.99982" lon="21.32822">
        <ele>271.043981</ele>
        <time>2022-02-24T01:30:11.673Z</time>
      </trkpt>
      <trkpt lat="41.99978" lon="21.32817">
        <ele>271.065283</ele>
        <time>2022-02-24T01:30:13.037Z</time>
      </trkpt>
      <trkpt lat="41.99969" lon="21.32805">
        <ele>271.12879</ele>
        <time>2022-02-24T01:30:17.005Z</time>
      </trkpt>
      <trkpt lat="41.99954" lon="21.32785">
        <ele>271.234494</ele>
        <time>2022-02-24T01:30:23.305Z</time>
      </trkpt>
      <trkpt lat="41.99919" lon="21.3274">
        <ele>271.578693</ele>
        <time>2022-02-24T01:30:37.595Z</time>
      </trkpt>
      <trkpt lat="41.99913" lon="21.32733">
        <ele>271.633988</ele>
        <time>2022-02-24T01:30:39.875Z</time>
      </trkpt>
      <trkpt lat="41.99895" lon="21.3271">
        <ele>271.81027</ele>
        <time>2022-02-24T01:30:47.361Z</time>
      </trkpt>
      <trkpt lat="41.9988" lon="21.32692">
        <ele>271.953602</ele>
        <time>2022-02-24T01:30:53.332Z</time>
      </trkpt>
      <trkpt lat="41.99869" lon="21.32677">
        <ele>272.069491</ele>
        <time>2022-02-24T01:30:58.441Z</time>
      </trkpt>
      <trkpt lat="41.99864" lon="21.32671">
        <ele>272.11679</ele>
        <time>2022-02-24T01:31:00.428Z</time>
      </trkpt>
      <trkpt lat="41.99852" lon="21.32655">
        <ele>272.237395</ele>
        <time>2022-02-24T01:31:05.597Z</time>
      </trkpt>
      <trkpt lat="41.998" lon="21.3259">
        <ele>272.559073</ele>
        <time>2022-02-24T01:31:27.222Z</time>
      </trkpt>
      <trkpt lat="41.99792" lon="21.32579">
        <ele>272.579475</ele>
        <time>2022-02-24T01:31:30.955Z</time>
      </trkpt>
      <trkpt lat="41.99776" lon="21.32558">
        <ele>272.618044</ele>
        <time>2022-02-24T01:31:36.962Z</time>
      </trkpt>
      <trkpt lat="41.99773" lon="21.32555">
        <ele>272.623599</ele>
        <time>2022-02-24T01:31:37.893Z</time>
      </trkpt>
      <trkpt lat="41.99771" lon="21.32552">
        <ele>272.630013</ele>
        <time>2022-02-24T01:31:39.067Z</time>
      </trkpt>
      <trkpt lat="41.99754" lon="21.32529">
        <ele>272.671793</ele>
        <time>2022-02-24T01:31:45.456Z</time>
      </trkpt>
      <trkpt lat="41.99716" lon="21.32477">
        <ele>272.764694</ele>
        <time>2022-02-24T01:31:59.977Z</time>
      </trkpt>
      <trkpt lat="41.99714" lon="21.32474">
        <ele>272.771072</ele>
        <time>2022-02-24T01:32:00.957Z</time>
      </trkpt>
      <trkpt lat="41.99712" lon="21.32471">
        <ele>272.775133</ele>
        <time>2022-02-24T01:32:01.446Z</time>
      </trkpt>
      <trkpt lat="41.99686" lon="21.32436">
        <ele>272.695982</ele>
        <time>2022-02-24T01:32:10.726Z</time>
      </trkpt>
      <trkpt lat="41.99681" lon="21.32428">
        <ele>272.632953</ele>
        <time>2022-02-24T01:32:12.648Z</time>
      </trkpt>
      <trkpt lat="41.99596" lon="21.32317">
        <ele>271.73022</ele>
        <time>2022-02-24T01:32:40.149Z</time>
      </trkpt>
      <trkpt lat="41.99535" lon="21.32235">
        <ele>271.42272</ele>
        <time>2022-02-24T01:33:00.563Z</time>
      </trkpt>
      <trkpt lat="41.99451" lon="21.32125">
        <ele>271.383622</ele>
        <time>2022-02-24T01:33:32.116Z</time>
      </trkpt>
      <trkpt lat="41.99443" lon="21.32113">
        <ele>271.379665</ele>
        <time>2022-02-24T01:33:35.781Z</time>
      </trkpt>
      <trkpt lat="41.99401" lon="21.32054">
        <ele>272.600759</ele>
        <time>2022-02-24T01:33:55.631Z</time>
      </trkpt>
      <trkpt lat="41.99388" lon="21.32033">
        <ele>273.041905</ele>
        <time>2022-02-24T01:34:02.882Z</time>
      </trkpt>
      <trkpt lat="41.9938" lon="21.32014">
        <ele>273.387025</ele>
        <time>2022-02-24T01:34:09.249Z</time>
      </trkpt>
      <trkpt lat="41.99343" lon="21.31921">
        <ele>275.029884</ele>
        <time>2022-02-24T01:34:40.636Z</time>
      </trkpt>
      <trkpt lat="41.99306" lon="21.31836">
        <ele>277.003866</ele>
        <time>2022-02-24T01:35:11.332Z</time>
      </trkpt>
      <trkpt lat="41.99282" lon="21.31783">
        <ele>278.27737</ele>
        <time>2022-02-24T01:35:30.350Z</time>
      </trkpt>
      <trkpt lat="41.99263" lon="21.31746">
        <ele>279.208045</ele>
        <time>2022-02-24T01:35:43.782Z</time>
      </trkpt>
      <trkpt lat="41.99238" lon="21.31698">
        <ele>280.262499</ele>
        <time>2022-02-24T01:36:00.269Z</time>
      </trkpt>
      <trkpt lat="41.99231" lon="21.31683">
        <ele>280.4281</ele>
        <time>2022-02-24T01:36:05.058Z</time>
      </trkpt>
      <trkpt lat="41.99219" lon="21.31661">
        <ele>280.692101</ele>
        <time>2022-02-24T01:36:12.258Z</time>
      </trkpt>
      <trkpt lat="41.99206" lon="21.31637">
        <ele>280.972806</ele>
        <time>2022-02-24T01:36:19.748Z</time>
      </trkpt>
      <trkpt lat="41.99142" lon="21.31521">
        <ele>282.341239</ele>
        <time>2022-02-24T01:36:52.747Z</time>
      </trkpt>
      <trkpt lat="41.99069" lon="21.31391">
        <ele>283.694126</ele>
        <time>2022-02-24T01:37:29.581Z</time>
      </trkpt>
      <trkpt lat="41.99038" lon="21.31336">
        <ele>284.258646</ele>
        <time>2022-02-24T01:37:46.632Z</time>
      </trkpt>
      <trkpt lat="41.9903" lon="21.3132">
        <ele>284.420705</ele>
        <time>2022-02-24T01:37:51.694Z</time>
      </trkpt>
      <trkpt lat="41.99019" lon="21.31303">
        <ele>284.790862</ele>
        <time>2022-02-24T01:37:57.489Z</time>
      </trkpt>
      <trkpt lat="41.99001" lon="21.31267">
        <ele>285.500703</ele>
        <time>2022-02-24T01:38:08.864Z</time>
      </trkpt>
      <trkpt lat="41.98902" lon="21.31094">
        <ele>289.17672</ele>
        <time>2022-02-24T01:39:11.552Z</time>
      </trkpt>
      <trkpt lat="41.98812" lon="21.30952">
        <ele>292.477449</ele>
        <time>2022-02-24T01:40:04.998Z</time>
      </trkpt>
      <trkpt lat="41.98742" lon="21.30846">
        <ele>294.478432</ele>
        <time>2022-02-24T01:40:43.276Z</time>
      </trkpt>
      <trkpt lat="41.98626" lon="21.30714">
        <ele>297.133761</ele>
        <time>2022-02-24T01:41:35.149Z</time>
      </trkpt>
      <trkpt lat="41.98581" lon="21.30633">
        <ele>298.364581</ele>
        <time>2022-02-24T01:42:01.798Z</time>
      </trkpt>
      <trkpt lat="41.98577" lon="21.30623">
        <ele>298.492261</ele>
        <time>2022-02-24T01:42:04.631Z</time>
      </trkpt>
      <trkpt lat="41.98557" lon="21.30555">
        <ele>299.285451</ele>
        <time>2022-02-24T01:42:22.958Z</time>
      </trkpt>
      <trkpt lat="41.98547" lon="21.30466">
        <ele>300.126067</ele>
        <time>2022-02-24T01:42:45.075Z</time>
      </trkpt>
      <trkpt lat="41.98547" lon="21.30441">
        <ele>300.362206</ele>
        <time>2022-02-24T01:42:51.736Z</time>
      </trkpt>
      <trkpt lat="41.98547" lon="21.30429">
        <ele>300.473396</ele>
        <time>2022-02-24T01:42:54.302Z</time>
      </trkpt>
      <trkpt lat="41.98556" lon="21.30355">
        <ele>301.1681</ele>
        <time>2022-02-24T01:43:12.204Z</time>
      </trkpt>
      <trkpt lat="41.98573" lon="21.30291">
        <ele>301.54317</ele>
        <time>2022-02-24T01:43:27.254Z</time>
      </trkpt>
      <trkpt lat="41.98652" lon="21.30101">
        <ele>302.477589</ele>
        <time>2022-02-24T01:44:15.583Z</time>
      </trkpt>
      <trkpt lat="41.98681" lon="21.30015">
        <ele>302.500653</ele>
        <time>2022-02-24T01:44:35.521Z</time>
      </trkpt>
      <trkpt lat="41.98708" lon="21.29692">
        <ele>301.867556</ele>
        <time>2022-02-24T01:45:35.409Z</time>
      </trkpt>
      <trkpt lat="41.98736" lon="21.29588">
        <ele>301.777437</ele>
        <time>2022-02-24T01:45:56.279Z</time>
      </trkpt>
      <trkpt lat="41.98772" lon="21.29466">
        <ele>301.764113</ele>
        <time>2022-02-24T01:46:22.633Z</time>
      </trkpt>
      <trkpt lat="41.988" lon="21.29361">
        <ele>302.058123</ele>
        <time>2022-02-24T01:46:46.374Z</time>
      </trkpt>
      <trkpt lat="41.98804" lon="21.29333">
        <ele>302.157075</ele>
        <time>2022-02-24T01:46:52.501Z</time>
      </trkpt>
      <trkpt lat="41.98821" lon="21.29004">
        <ele>303.636854</ele>
        <time>2022-02-24T01:48:04.464Z</time>
      </trkpt>
      <trkpt lat="41.98823" lon="21.28992">
        <ele>303.701667</ele>
        <time>2022-02-24T01:48:07.432Z</time>
      </trkpt>
      <trkpt lat="41.98832" lon="21.28913">
        <ele>304.383271</ele>
        <time>2022-02-24T01:48:26.457Z</time>
      </trkpt>
      <trkpt lat="41.98846" lon="21.28805">
        <ele>305.525805</ele>
        <time>2022-02-24T01:48:54.302Z</time>
      </trkpt>
      <trkpt lat="41.98848" lon="21.28781">
        <ele>305.77542</ele>
        <time>2022-02-24T01:49:00.449Z</time>
      </trkpt>
      <trkpt lat="41.98859" lon="21.28675">
        <ele>306.804977</ele>
        <time>2022-02-24T01:49:27.327Z</time>
      </trkpt>
      <trkpt lat="41.98864" lon="21.28618">
        <ele>307.298255</ele>
        <time>2022-02-24T01:49:41.428Z</time>
      </trkpt>
      <trkpt lat="41.98867" lon="21.28547">
        <ele>307.91594</ele>
        <time>2022-02-24T01:49:58.827Z</time>
      </trkpt>
      <trkpt lat="41.98846" lon="21.2843">
        <ele>308.647582</ele>
        <time>2022-02-24T01:50:25.786Z</time>
      </trkpt>
      <trkpt lat="41.98708" lon="21.2807">
        <ele>309.757571</ele>
        <time>2022-02-24T01:51:50.628Z</time>
      </trkpt>
      <trkpt lat="41.98686" lon="21.27852">
        <ele>310.23586</ele>
        <time>2022-02-24T01:52:35.984Z</time>
      </trkpt>
      <trkpt lat="41.98634" lon="21.27613">
        <ele>311.349764</ele>
        <time>2022-02-24T01:53:30.878Z</time>
      </trkpt>
      <trkpt lat="41.98604" lon="21.27502">
        <ele>312.24726</ele>
        <time>2022-02-24T01:53:58.600Z</time>
      </trkpt>
      <trkpt lat="41.98511" lon="21.27264">
        <ele>314.732248</ele>
        <time>2022-02-24T01:55:04.398Z</time>
      </trkpt>
      <trkpt lat="41.98483" lon="21.27203">
        <ele>315.441978</ele>
        <time>2022-02-24T01:55:21.938Z</time>
      </trkpt>
      <trkpt lat="41.9845" lon="21.2713">
        <ele>316.284855</ele>
        <time>2022-02-24T01:55:43.117Z</time>
      </trkpt>
      <trkpt lat="41.98437" lon="21.27097">
        <ele>316.652363</ele>
        <time>2022-02-24T01:55:52.597Z</time>
      </trkpt>
      <trkpt lat="41.98427" lon="21.27073">
        <ele>316.922323</ele>
        <time>2022-02-24T01:55:59.602Z</time>
      </trkpt>
      <trkpt lat="41.9841" lon="21.27015">
        <ele>317.52106</ele>
        <time>2022-02-24T01:56:14.711Z</time>
      </trkpt>
      <trkpt lat="41.98407" lon="21.27008">
        <ele>317.59666</ele>
        <time>2022-02-24T01:56:16.679Z</time>
      </trkpt>
      <trkpt lat="41.98398" lon="21.26967">
        <ele>318.010898</ele>
        <time>2022-02-24T01:56:26.919Z</time>
      </trkpt>
      <trkpt lat="41.9838" lon="21.26888">
        <ele>318.639487</ele>
        <time>2022-02-24T01:56:46.605Z</time>
      </trkpt>
      <trkpt lat="41.9837" lon="21.26847">
        <ele>318.878301</ele>
        <time>2022-02-24T01:56:56.563Z</time>
      </trkpt>
      <trkpt lat="41.98345" lon="21.26793">
        <ele>319.23032</ele>
        <time>2022-02-24T01:57:11.191Z</time>
      </trkpt>
      <trkpt lat="41.98124" lon="21.26414">
        <ele>320.965911</ele>
        <time>2022-02-24T01:58:52.755Z</time>
      </trkpt>
      <trkpt lat="41.98101" lon="21.26363">
        <ele>321.195547</ele>
        <time>2022-02-24T01:59:05.857Z</time>
      </trkpt>
      <trkpt lat="41.98052" lon="21.26161">
        <ele>322.868261</ele>
        <time>2022-02-24T01:59:55.877Z</time>
      </trkpt>
      <trkpt lat="41.98026" lon="21.26087">
        <ele>323.641748</ele>
        <time>2022-02-24T02:00:16.527Z</time>
      </trkpt>
      <trkpt lat="41.97967" lon="21.25948">
        <ele>325.641999</ele>
        <time>2022-02-24T02:00:58.107Z</time>
      </trkpt>
      <trkpt lat="41.97948" lon="21.2587">
        <ele>326.665897</ele>
        <time>2022-02-24T02:01:19.720Z</time>
      </trkpt>
      <trkpt lat="41.97919" lon="21.25715">
        <ele>328.617478</ele>
        <time>2022-02-24T02:02:00.941Z</time>
      </trkpt>
      <trkpt lat="41.979" lon="21.25649">
        <ele>329.459878</ele>
        <time>2022-02-24T02:02:18.626Z</time>
      </trkpt>
      <trkpt lat="41.97874" lon="21.25573">
        <ele>330.258608</ele>
        <time>2022-02-24T02:02:39.474Z</time>
      </trkpt>
      <trkpt lat="41.97868" lon="21.25538">
        <ele>330.60883</ele>
        <time>2022-02-24T02:02:48.524Z</time>
      </trkpt>
      <trkpt lat="41.97869" lon="21.25417">
        <ele>331.75628</ele>
        <time>2022-02-24T02:03:17.790Z</time>
      </trkpt>
      <trkpt lat="41.97856" lon="21.25263">
        <ele>332.942427</ele>
        <time>2022-02-24T02:03:54.271Z</time>
      </trkpt>
      <trkpt lat="41.97846" lon="21.25153">
        <ele>333.756949</ele>
        <time>2022-02-24T02:04:19.747Z</time>
      </trkpt>
      <trkpt lat="41.97829" lon="21.25022">
        <ele>334.624797</ele>
        <time>2022-02-24T02:04:49.979Z</time>
      </trkpt>
      <trkpt lat="41.97822" lon="21.24956">
        <ele>335.061179</ele>
        <time>2022-02-24T02:05:05.364Z</time>
      </trkpt>
      <trkpt lat="41.97805" lon="21.24841">
        <ele>336.232453</ele>
        <time>2022-02-24T02:05:32.772Z</time>
      </trkpt>
      <trkpt lat="41.97749" lon="21.24605">
        <ele>339.112524</ele>
        <time>2022-02-24T02:06:37.095Z</time>
      </trkpt>
      <trkpt lat="41.97746" lon="21.24592">
        <ele>339.294433</ele>
        <time>2022-02-24T02:06:40.926Z</time>
      </trkpt>
      <trkpt lat="41.97741" lon="21.24569">
        <ele>339.600729</ele>
        <time>2022-02-24T02:06:47.373Z</time>
      </trkpt>
      <trkpt lat="41.97734" lon="21.2448">
        <ele>340.774068</ele>
        <time>2022-02-24T02:07:11.208Z</time>
      </trkpt>
      <trkpt lat="41.97738" lon="21.24455">
        <ele>341.011124</ele>
        <time>2022-02-24T02:07:17.713Z</time>
      </trkpt>
      <trkpt lat="41.97779" lon="21.24318">
        <ele>342.215314</ele>
        <time>2022-02-24T02:07:53.498Z</time>
      </trkpt>
      <trkpt lat="41.97822" lon="21.23971">
        <ele>343.947686</ele>
        <time>2022-02-24T02:09:09.401Z</time>
      </trkpt>
      <trkpt lat="41.97825" lon="21.23939">
        <ele>344.161201</ele>
        <time>2022-02-24T02:09:16.766Z</time>
      </trkpt>
      <trkpt lat="41.97829" lon="21.23876">
        <ele>344.566447</ele>
        <time>2022-02-24T02:09:30.991Z</time>
      </trkpt>
      <trkpt lat="41.97898" lon="21.23407">
        <ele>348.190251</ele>
        <time>2022-02-24T02:11:24.314Z</time>
      </trkpt>
      <trkpt lat="41.97956" lon="21.22899">
        <ele>352.139194</ele>
        <time>2022-02-24T02:13:25.469Z</time>
      </trkpt>
      <trkpt lat="41.97973" lon="21.22753">
        <ele>353.222026</ele>
        <time>2022-02-24T02:13:59.518Z</time>
      </trkpt>
      <trkpt lat="41.97982" lon="21.22674">
        <ele>353.79625</ele>
        <time>2022-02-24T02:14:17.751Z</time>
      </trkpt>
      <trkpt lat="41.97985" lon="21.22626">
        <ele>354.145246</ele>
        <time>2022-02-24T02:14:28.956Z</time>
      </trkpt>
      <trkpt lat="41.97977" lon="21.2258">
        <ele>354.488453</ele>
        <time>2022-02-24T02:14:40.176Z</time>
      </trkpt>
      <trkpt lat="41.9796" lon="21.22489">
        <ele>355.3993</ele>
        <time>2022-02-24T02:15:02.858Z</time>
      </trkpt>
      <trkpt lat="41.97914" lon="21.22259">
        <ele>357.853752</ele>
        <time>2022-02-24T02:16:02.437Z</time>
      </trkpt>
      <trkpt lat="41.97866" lon="21.21915">
        <ele>361.707765</ele>
        <time>2022-02-24T02:17:31.061Z</time>
      </trkpt>
      <trkpt lat="41.97844" lon="21.21707">
        <ele>363.846091</ele>
        <time>2022-02-24T02:18:22.352Z</time>
      </trkpt>
      <trkpt lat="41.97827" lon="21.21555">
        <ele>365.518877</ele>
        <time>2022-02-24T02:19:00.211Z</time>
      </trkpt>
      <trkpt lat="41.97826" lon="21.21517">
        <ele>365.986029</ele>
        <time>2022-02-24T02:19:09.951Z</time>
      </trkpt>
      <trkpt lat="41.97837" lon="21.21221">
        <ele>369.819825</ele>
        <time>2022-02-24T02:20:28.030Z</time>
      </trkpt>
      <trkpt lat="41.9784" lon="21.21187">
        <ele>370.271962</ele>
        <time>2022-02-24T02:20:36.693Z</time>
      </trkpt>
      <trkpt lat="41.9784" lon="21.21174">
        <ele>370.448918</ele>
        <time>2022-02-24T02:20:40.420Z</time>
      </trkpt>
      <trkpt lat="41.97845" lon="21.2106">
        <ele>371.720286</ele>
        <time>2022-02-24T02:21:10.233Z</time>
      </trkpt>
      <trkpt lat="41.97851" lon="21.21025">
        <ele>372.090297</ele>
        <time>2022-02-24T02:21:19.742Z</time>
      </trkpt>
      <trkpt lat="41.9786" lon="21.20987">
        <ele>372.492184</ele>
        <time>2022-02-24T02:21:29.794Z</time>
      </trkpt>
      <trkpt lat="41.97916" lon="21.20646">
        <ele>374.946545</ele>
        <time>2022-02-24T02:22:48.162Z</time>
      </trkpt>
      <trkpt lat="41.97941" lon="21.20413">
        <ele>377.066279</ele>
        <time>2022-02-24T02:23:44.729Z</time>
      </trkpt>
      <trkpt lat="41.9818" lon="21.19463">
        <ele>390.333423</ele>
        <time>2022-02-24T02:28:07.368Z</time>
      </trkpt>
      <trkpt lat="41.98186" lon="21.19414">
        <ele>391.152781</ele>
        <time>2022-02-24T02:28:21.444Z</time>
      </trkpt>
      <trkpt lat="41.98175" lon="21.19357">
        <ele>392.138366</ele>
        <time>2022-02-24T02:28:38.600Z</time>
      </trkpt>
      <trkpt lat="41.98175" lon="21.19319">
        <ele>392.768524</ele>
        <time>2022-02-24T02:28:49.365Z</time>
      </trkpt>
      <trkpt lat="41.98209" lon="21.19253">
        <ele>393.989345</ele>
        <time>2022-02-24T02:29:11.742Z</time>
      </trkpt>
      <trkpt lat="41.98214" lon="21.19233">
        <ele>394.277211</ele>
        <time>2022-02-24T02:29:17.933Z</time>
      </trkpt>
      <trkpt lat="41.98215" lon="21.19214">
        <ele>394.532777</ele>
        <time>2022-02-24T02:29:22.888Z</time>
      </trkpt>
      <trkpt lat="41.9821" lon="21.19146">
        <ele>395.469109</ele>
        <time>2022-02-24T02:29:41.252Z</time>
      </trkpt>
      <trkpt lat="41.98226" lon="21.19071">
        <ele>396.522022</ele>
        <time>2022-02-24T02:30:01.078Z</time>
      </trkpt>
      <trkpt lat="41.98245" lon="21.18812">
        <ele>398.741608</ele>
        <time>2022-02-24T02:31:02.698Z</time>
      </trkpt>
      <trkpt lat="41.98228" lon="21.18668">
        <ele>399.625806</ele>
        <time>2022-02-24T02:31:36.112Z</time>
      </trkpt>
      <trkpt lat="41.98177" lon="21.18452">
        <ele>402.231336</ele>
        <time>2022-02-24T02:32:26.645Z</time>
      </trkpt>
      <trkpt lat="41.98169" lon="21.18426">
        <ele>402.672529</ele>
        <time>2022-02-24T02:32:34.161Z</time>
      </trkpt>
      <trkpt lat="41.98134" lon="21.18377">
        <ele>403.713031</ele>
        <time>2022-02-24T02:32:55.855Z</time>
      </trkpt>
      <trkpt lat="41.98091" lon="21.18346">
        <ele>406.727314</ele>
        <time>2022-02-24T02:33:20.397Z</time>
      </trkpt>
      <trkpt lat="41.98085" lon="21.18342">
        <ele>407.187725</ele>
        <time>2022-02-24T02:33:23.708Z</time>
      </trkpt>
      <trkpt lat="41.98039" lon="21.1831">
        <ele>410.941746</ele>
        <time>2022-02-24T02:33:54.748Z</time>
      </trkpt>
      <trkpt lat="41.98008" lon="21.18282">
        <ele>413.67725</ele>
        <time>2022-02-24T02:34:19.665Z</time>
      </trkpt>
      <trkpt lat="41.97991" lon="21.18258">
        <ele>415.43893</ele>
        <time>2022-02-24T02:34:36.757Z</time>
      </trkpt>
      <trkpt lat="41.97892" lon="21.18092">
        <ele>430.112421</ele>
        <time>2022-02-24T02:36:36.844Z</time>
      </trkpt>
      <trkpt lat="41.97834" lon="21.18006">
        <ele>437.437771</ele>
        <time>2022-02-24T02:37:35.065Z</time>
      </trkpt>
      <trkpt lat="41.9778" lon="21.17908">
        <ele>444.026336</ele>
        <time>2022-02-24T02:38:30.711Z</time>
      </trkpt>
      <trkpt lat="41.97742" lon="21.17817">
        <ele>448.776496</ele>
        <time>2022-02-24T02:39:14.586Z</time>
      </trkpt>
      <trkpt lat="41.97724" lon="21.1772">
        <ele>452.090999</ele>
        <time>2022-02-24T02:39:52.987Z</time>
      </trkpt>
      <trkpt lat="41.97686" lon="21.17403">
        <ele>459.354912</ele>
        <time>2022-02-24T02:41:28.717Z</time>
      </trkpt>
      <trkpt lat="41.97693" lon="21.1733">
        <ele>459.822475</ele>
        <time>2022-02-24T02:41:44.893Z</time>
      </trkpt>
      <trkpt lat="41.97714" lon="21.1724">
        <ele>460.032828</ele>
        <time>2022-02-24T02:42:04.618Z</time>
      </trkpt>
      <trkpt lat="41.97714" lon="21.16904">
        <ele>459.022041</ele>
        <time>2022-02-24T02:43:07.145Z</time>
      </trkpt>
      <trkpt lat="41.97701" lon="21.16858">
        <ele>457.461021</ele>
        <time>2022-02-24T02:43:15.130Z</time>
      </trkpt>
      <trkpt lat="41.97593" lon="21.16603">
        <ele>447.05035</ele>
        <time>2022-02-24T02:43:54.280Z</time>
      </trkpt>
      <trkpt lat="41.97585" lon="21.16584">
        <ele>446.108721</ele>
        <time>2022-02-24T02:43:57.000Z</time>
      </trkpt>
      <trkpt lat="41.97573" lon="21.16562">
        <ele>444.927642</ele>
        <time>2022-02-24T02:44:00.760Z</time>
      </trkpt>
      <trkpt lat="41.97566" lon="21.16548">
        <ele>444.245724</ele>
        <time>2022-02-24T02:44:02.720Z</time>
      </trkpt>
      <trkpt lat="41.97546" lon="21.16521">
        <ele>442.605977</ele>
        <time>2022-02-24T02:44:07.842Z</time>
      </trkpt>
      <trkpt lat="41.97507" lon="21.16487">
        <ele>440.635901</ele>
        <time>2022-02-24T02:44:16.088Z</time>
      </trkpt>
      <trkpt lat="41.97473" lon="21.1645">
        <ele>439.798743</ele>
        <time>2022-02-24T02:44:24.106Z</time>
      </trkpt>
      <trkpt lat="41.97449" lon="21.16409">
        <ele>439.054119</ele>
        <time>2022-02-24T02:44:32.477Z</time>
      </trkpt>
      <trkpt lat="41.97431" lon="21.16365">
        <ele>438.322017</ele>
        <time>2022-02-24T02:44:42.845Z</time>
      </trkpt>
      <trkpt lat="41.97367" lon="21.16251">
        <ele>438.765844</ele>
        <time>2022-02-24T02:45:15.639Z</time>
      </trkpt>
      <trkpt lat="41.97339" lon="21.16218">
        <ele>439.464909</ele>
        <time>2022-02-24T02:45:28.495Z</time>
      </trkpt>
      <trkpt lat="41.97295" lon="21.16181">
        <ele>440.465187</ele>
        <time>2022-02-24T02:45:49.886Z</time>
      </trkpt>
      <trkpt lat="41.97284" lon="21.16151">
        <ele>440.923026</ele>
        <time>2022-02-24T02:45:59.547Z</time>
      </trkpt>
      <trkpt lat="41.97284" lon="21.16096">
        <ele>441.947823</ele>
        <time>2022-02-24T02:46:16.559Z</time>
      </trkpt>
      <trkpt lat="41.97277" lon="21.16065">
        <ele>442.549833</ele>
        <time>2022-02-24T02:46:25.947Z</time>
      </trkpt>
      <trkpt lat="41.97261" lon="21.16016">
        <ele>443.559566</ele>
        <time>2022-02-24T02:46:41.913Z</time>
      </trkpt>
      <trkpt lat="41.97255" lon="21.16003">
        <ele>443.849915</ele>
        <time>2022-02-24T02:46:46.864Z</time>
      </trkpt>
      <trkpt lat="41.97204" lon="21.15881">
        <ele>445.793792</ele>
        <time>2022-02-24T02:47:24.708Z</time>
      </trkpt>
      <trkpt lat="41.97183" lon="21.15855">
        <ele>446.0306</ele>
        <time>2022-02-24T02:47:33.813Z</time>
      </trkpt>
      <trkpt lat="41.97137" lon="21.15815">
        <ele>446.482112</ele>
        <time>2022-02-24T02:47:49.286Z</time>
      </trkpt>
      <trkpt lat="41.97124" lon="21.15792">
        <ele>446.664177</ele>
        <time>2022-02-24T02:47:55.240Z</time>
      </trkpt>
      <trkpt lat="41.97107" lon="21.15693">
        <ele>447.144008</ele>
        <time>2022-02-24T02:48:15.836Z</time>
      </trkpt>
      <trkpt lat="41.97033" lon="21.15515">
        <ele>447.917459</ele>
        <time>2022-02-24T02:49:00.317Z</time>
      </trkpt>
      <trkpt lat="41.97008" lon="21.15481">
        <ele>448.276223</ele>
        <time>2022-02-24T02:49:11.294Z</time>
      </trkpt>
      <trkpt lat="41.96951" lon="21.1543">
        <ele>448.968365</ele>
        <time>2022-02-24T02:49:32.831Z</time>
      </trkpt>
      <trkpt lat="41.96937" lon="21.15415">
        <ele>449.144544</ele>
        <time>2022-02-24T02:49:38.751Z</time>
      </trkpt>
      <trkpt lat="41.96918" lon="21.15387">
        <ele>449.429621</ele>
        <time>2022-02-24T02:49:47.613Z</time>
      </trkpt>
      <trkpt lat="41.9689" lon="21.15346">
        <ele>449.938713</ele>
        <time>2022-02-24T02:50:01.318Z</time>
      </trkpt>
      <trkpt lat="41.96871" lon="21.15311">
        <ele>450.403927</ele>
        <time>2022-02-24T02:50:12.010Z</time>
      </trkpt>
      <trkpt lat="41.96805" lon="21.15144">
        <ele>452.397804</ele>
        <time>2022-02-24T02:50:59.461Z</time>
      </trkpt>
      <trkpt lat="41.96772" lon="21.15095">
        <ele>453.087778</ele>
        <time>2022-02-24T02:51:16.407Z</time>
      </trkpt>
      <trkpt lat="41.96696" lon="21.15027">
        <ele>454.361481</ele>
        <time>2022-02-24T02:51:46.682Z</time>
      </trkpt>
      <trkpt lat="41.96672" lon="21.14999">
        <ele>454.796314</ele>
        <time>2022-02-24T02:51:57.046Z</time>
      </trkpt>
      <trkpt lat="41.96641" lon="21.14946">
        <ele>455.45682</ele>
        <time>2022-02-24T02:52:13.509Z</time>
      </trkpt>
      <trkpt lat="41.9663" lon="21.14917">
        <ele>455.778432</ele>
        <time>2022-02-24T02:52:21.574Z</time>
      </trkpt>
      <trkpt lat="41.96601" lon="21.14827">
        <ele>456.736474</ele>
        <time>2022-02-24T02:52:45.622Z</time>
      </trkpt>
      <trkpt lat="41.96564" lon="21.14742">
        <ele>457.817732</ele>
        <time>2022-02-24T02:53:10.043Z</time>
      </trkpt>
      <trkpt lat="41.96543" lon="21.14678">
        <ele>458.624589</ele>
        <time>2022-02-24T02:53:27.656Z</time>
      </trkpt>
      <trkpt lat="41.96488" lon="21.14438">
        <ele>462.083141</ele>
        <time>2022-02-24T02:54:32.994Z</time>
      </trkpt>
      <trkpt lat="41.96474" lon="21.14394">
        <ele>462.808408</ele>
        <time>2022-02-24T02:54:46.399Z</time>
      </trkpt>
      <trkpt lat="41.96475" lon="21.14369">
        <ele>463.204617</ele>
        <time>2022-02-24T02:54:54.262Z</time>
      </trkpt>
      <trkpt lat="41.96475" lon="21.14333">
        <ele>463.753544</ele>
        <time>2022-02-24T02:55:04.743Z</time>
      </trkpt>
      <trkpt lat="41.96478" lon="21.14311">
        <ele>464.100508</ele>
        <time>2022-02-24T02:55:10.868Z</time>
      </trkpt>
      <trkpt lat="41.96484" lon="21.14289">
        <ele>464.470042</ele>
        <time>2022-02-24T02:55:17.924Z</time>
      </trkpt>
      <trkpt lat="41.96495" lon="21.14252">
        <ele>465.086641</ele>
        <time>2022-02-24T02:55:28.790Z</time>
      </trkpt>
      <trkpt lat="41.96501" lon="21.14229">
        <ele>465.460525</ele>
        <time>2022-02-24T02:55:35.715Z</time>
      </trkpt>
      <trkpt lat="41.96514" lon="21.14185">
        <ele>466.201343</ele>
        <time>2022-02-24T02:55:48.893Z</time>
      </trkpt>
      <trkpt lat="41.96524" lon="21.14152">
        <ele>466.747602</ele>
        <time>2022-02-24T02:55:58.300Z</time>
      </trkpt>
      <trkpt lat="41.96526" lon="21.14141">
        <ele>466.923403</ele>
        <time>2022-02-24T02:56:00.966Z</time>
      </trkpt>
      <trkpt lat="41.96498" lon="21.14059">
        <ele>467.833728</ele>
        <time>2022-02-24T02:56:23.754Z</time>
      </trkpt>
      <trkpt lat="41.96485" lon="21.13979">
        <ele>468.481818</ele>
        <time>2022-02-24T02:56:42.495Z</time>
      </trkpt>
      <trkpt lat="41.96485" lon="21.13928">
        <ele>468.890708</ele>
        <time>2022-02-24T02:56:53.789Z</time>
      </trkpt>
      <trkpt lat="41.96481" lon="21.13911">
        <ele>469.029851</ele>
        <time>2022-02-24T02:56:57.976Z</time>
      </trkpt>
      <trkpt lat="41.96477" lon="21.13901">
        <ele>469.119067</ele>
        <time>2022-02-24T02:57:00.451Z</time>
      </trkpt>
      <trkpt lat="41.96459" lon="21.13856">
        <ele>469.582355</ele>
        <time>2022-02-24T02:57:12.191Z</time>
      </trkpt>
      <trkpt lat="41.96456" lon="21.13844">
        <ele>469.703683</ele>
        <time>2022-02-24T02:57:15.033Z</time>
      </trkpt>
      <trkpt lat="41.96452" lon="21.13819">
        <ele>469.952821</ele>
        <time>2022-02-24T02:57:21.433Z</time>
      </trkpt>
      <trkpt lat="41.96437" lon="21.13638">
        <ele>471.707393</ele>
        <time>2022-02-24T02:58:06.894Z</time>
      </trkpt>
      <trkpt lat="41.964" lon="21.13434">
        <ele>473.976236</ele>
        <time>2022-02-24T02:59:00.228Z</time>
      </trkpt>
      <trkpt lat="41.96384" lon="21.13236">
        <ele>475.73961</ele>
        <time>2022-02-24T02:59:47.393Z</time>
      </trkpt>
      <trkpt lat="41.96334" lon="21.13051">
        <ele>477.984372</ele>
        <time>2022-02-24T03:00:35.052Z</time>
      </trkpt>
      <trkpt lat="41.96325" lon="21.13012">
        <ele>478.502867</ele>
        <time>2022-02-24T03:00:46.056Z</time>
      </trkpt>
      <trkpt lat="41.96314" lon="21.1295">
        <ele>479.312773</ele>
        <time>2022-02-24T03:01:03.041Z</time>
      </trkpt>
      <trkpt lat="41.96308" lon="21.12903">
        <ele>480.725558</ele>
        <time>2022-02-24T03:01:16.938Z</time>
      </trkpt>
      <trkpt lat="41.96307" lon="21.12887">
        <ele>481.180522</ele>
        <time>2022-02-24T03:01:22.786Z</time>
      </trkpt>
      <trkpt lat="41.96307" lon="21.12753">
        <ele>485.135948</ele>
        <time>2022-02-24T03:02:09.395Z</time>
      </trkpt>
      <trkpt lat="41.96307" lon="21.12706">
        <ele>486.572878</ele>
        <time>2022-02-24T03:02:27.121Z</time>
      </trkpt>
      <trkpt lat="41.96311" lon="21.12678">
        <ele>487.635926</ele>
        <time>2022-02-24T03:02:38.695Z</time>
      </trkpt>
      <trkpt lat="41.96323" lon="21.12635">
        <ele>489.359776</ele>
        <time>2022-02-24T03:02:55.747Z</time>
      </trkpt>
      <trkpt lat="41.96392" lon="21.12473">
        <ele>496.203034</ele>
        <time>2022-02-24T03:04:07.949Z</time>
      </trkpt>
      <trkpt lat="41.96424" lon="21.12401">
        <ele>498.706467</ele>
        <time>2022-02-24T03:04:36.475Z</time>
      </trkpt>
      <trkpt lat="41.9643" lon="21.12388">
        <ele>499.139955</ele>
        <time>2022-02-24T03:04:41.661Z</time>
      </trkpt>
      <trkpt lat="41.96495" lon="21.12243">
        <ele>503.70696</ele>
        <time>2022-02-24T03:05:37.220Z</time>
      </trkpt>
      <trkpt lat="41.9651" lon="21.12211">
        <ele>504.477239</ele>
        <time>2022-02-24T03:05:49.149Z</time>
      </trkpt>
      <trkpt lat="41.96531" lon="21.12176">
        <ele>505.389487</ele>
        <time>2022-02-24T03:06:02.493Z</time>
      </trkpt>
      <trkpt lat="41.96987" lon="21.11397">
        <ele>520.56966</ele>
        <time>2022-02-24T03:10:32.434Z</time>
      </trkpt>
      <trkpt lat="41.97038" lon="21.11316">
        <ele>521.587311</ele>
        <time>2022-02-24T03:10:56.717Z</time>
      </trkpt>
      <trkpt lat="41.97222" lon="21.11049">
        <ele>521.78543</ele>
        <time>2022-02-24T03:12:09.715Z</time>
      </trkpt>
      <trkpt lat="41.97248" lon="21.11023">
        <ele>521.743191</ele>
        <time>2022-02-24T03:12:18.196Z</time>
      </trkpt>
      <trkpt lat="41.97317" lon="21.10973">
        <ele>521.176212</ele>
        <time>2022-02-24T03:12:37.458Z</time>
      </trkpt>
      <trkpt lat="41.97325" lon="21.10965">
        <ele>521.039284</ele>
        <time>2022-02-24T03:12:40.310Z</time>
      </trkpt>
      <trkpt lat="41.97339" lon="21.10952">
        <ele>520.794822</ele>
        <time>2022-02-24T03:12:44.035Z</time>
      </trkpt>
      <trkpt lat="41.97378" lon="21.10905">
        <ele>520.064309</ele>
        <time>2022-02-24T03:12:55.894Z</time>
      </trkpt>
      <trkpt lat="41.97426" lon="21.1082">
        <ele>518.744399</ele>
        <time>2022-02-24T03:13:12.507Z</time>
      </trkpt>
      <trkpt lat="41.9746" lon="21.10774">
        <ele>517.439093</ele>
        <time>2022-02-24T03:13:21.963Z</time>
      </trkpt>
      <trkpt lat="41.97589" lon="21.10673">
        <ele>513.5339</ele>
        <time>2022-02-24T03:13:51.800Z</time>
      </trkpt>
      <trkpt lat="41.97609" lon="21.10653">
        <ele>512.973819</ele>
        <time>2022-02-24T03:13:56.873Z</time>
      </trkpt>
      <trkpt lat="41.9768" lon="21.1056">
        <ele>510.746864</ele>
        <time>2022-02-24T03:14:17.761Z</time>
      </trkpt>
      <trkpt lat="41.97722" lon="21.10524">
        <ele>509.592777</ele>
        <time>2022-02-24T03:14:28.310Z</time>
      </trkpt>
      <trkpt lat="41.97786" lon="21.10482">
        <ele>507.861272</ele>
        <time>2022-02-24T03:14:43.273Z</time>
      </trkpt>
      <trkpt lat="41.97818" lon="21.1045">
        <ele>506.880257</ele>
        <time>2022-02-24T03:14:51.513Z</time>
      </trkpt>
      <trkpt lat="41.97851" lon="21.10386">
        <ele>505.15001</ele>
        <time>2022-02-24T03:15:02.984Z</time>
      </trkpt>
      <trkpt lat="41.97897" lon="21.10274">
        <ele>500.877731</ele>
        <time>2022-02-24T03:15:20.779Z</time>
      </trkpt>
      <trkpt lat="41.97925" lon="21.10233">
        <ele>499.012314</ele>
        <time>2022-02-24T03:15:28.296Z</time>
      </trkpt>
      <trkpt lat="41.98202" lon="21.09881">
        <ele>477.181622</ele>
        <time>2022-02-24T03:16:35.429Z</time>
      </trkpt>
      <trkpt lat="41.98509" lon="21.09477">
        <ele>458.820172</ele>
        <time>2022-02-24T03:17:54.795Z</time>
      </trkpt>
      <trkpt lat="41.98535" lon="21.09413">
        <ele>457.178062</ele>
        <time>2022-02-24T03:18:05.692Z</time>
      </trkpt>
      <trkpt lat="41.98662" lon="21.08808">
        <ele>448.699361</ele>
        <time>2022-02-24T03:19:47.345Z</time>
      </trkpt>
      <trkpt lat="41.9867" lon="21.08742">
        <ele>447.888601</ele>
        <time>2022-02-24T03:19:58.302Z</time>
      </trkpt>
      <trkpt lat="41.98729" lon="21.08466">
        <ele>444.155289</ele>
        <time>2022-02-24T03:20:44.509Z</time>
      </trkpt>
      <trkpt lat="41.98714" lon="21.08337">
        <ele>442.057412</ele>
        <time>2022-02-24T03:21:04.755Z</time>
      </trkpt>
      <trkpt lat="41.9872" lon="21.08295">
        <ele>441.266904</ele>
        <time>2022-02-24T03:21:11.177Z</time>
      </trkpt>
      <trkpt lat="41.98793" lon="21.08013">
        <ele>435.390719</ele>
        <time>2022-02-24T03:21:55.907Z</time>
      </trkpt>
      <trkpt lat="41.98794" lon="21.07889">
        <ele>433.174799</ele>
        <time>2022-02-24T03:22:14.305Z</time>
      </trkpt>
      <trkpt lat="41.9879" lon="21.07817">
        <ele>432.236635</ele>
        <time>2022-02-24T03:22:25.175Z</time>
      </trkpt>
      <trkpt lat="41.98781" lon="21.07776">
        <ele>431.670201</ele>
        <time>2022-02-24T03:22:32.315Z</time>
      </trkpt>
      <trkpt lat="41.98771" lon="21.07733">
        <ele>431.083082</ele>
        <time>2022-02-24T03:22:39.871Z</time>
      </trkpt>
      <trkpt lat="41.98756" lon="21.07729">
        <ele>430.807322</ele>
        <time>2022-02-24T03:22:43.626Z</time>
      </trkpt>
      <trkpt lat="41.98709" lon="21.07676">
        <ele>430.538276</ele>
        <time>2022-02-24T03:22:58.449Z</time>
      </trkpt>
      <trkpt lat="41.98706" lon="21.07672">
        <ele>430.535452</ele>
        <time>2022-02-24T03:22:59.335Z</time>
      </trkpt>
      <trkpt lat="41.98697" lon="21.07662">
        <ele>430.526801</ele>
        <time>2022-02-24T03:23:03.115Z</time>
      </trkpt>
      <trkpt lat="41.98678" lon="21.07636">
        <ele>430.507759</ele>
        <time>2022-02-24T03:23:09.666Z</time>
      </trkpt>
      <trkpt lat="41.98645" lon="21.07563">
        <ele>430.462388</ele>
        <time>2022-02-24T03:23:28.068Z</time>
      </trkpt>
      <trkpt lat="41.98632" lon="21.07521">
        <ele>430.550703</ele>
        <time>2022-02-24T03:23:38.080Z</time>
      </trkpt>
      <trkpt lat="41.98604" lon="21.07383">
        <ele>431.905331</ele>
        <time>2022-02-24T03:24:07.213Z</time>
      </trkpt>
      <trkpt lat="41.98557" lon="21.07223">
        <ele>436.090536</ele>
        <time>2022-02-24T03:24:59.331Z</time>
      </trkpt>
      <trkpt lat="41.98553" lon="21.0719">
        <ele>437.44511</ele>
        <time>2022-02-24T03:25:12.067Z</time>
      </trkpt>
      <trkpt lat="41.98536" lon="21.0716">
        <ele>438.977204</ele>
        <time>2022-02-24T03:25:28.729Z</time>
      </trkpt>
      <trkpt lat="41.98491" lon="21.07083">
        <ele>443.032894</ele>
        <time>2022-02-24T03:26:14.016Z</time>
      </trkpt>
      <trkpt lat="41.98459" lon="21.07015">
        <ele>447.352482</ele>
        <time>2022-02-24T03:26:54.851Z</time>
      </trkpt>
      <trkpt lat="41.98419" lon="21.06973">
        <ele>451.030246</ele>
        <time>2022-02-24T03:27:27.886Z</time>
      </trkpt>
      <trkpt lat="41.98404" lon="21.0695">
        <ele>452.702342</ele>
        <time>2022-02-24T03:27:41.322Z</time>
      </trkpt>
      <trkpt lat="41.98376" lon="21.0693">
        <ele>454.935523</ele>
        <time>2022-02-24T03:27:59.499Z</time>
      </trkpt>
      <trkpt lat="41.9835" lon="21.06899">
        <ele>456.913482</ele>
        <time>2022-02-24T03:28:19.305Z</time>
      </trkpt>
      <trkpt lat="41.98321" lon="21.06861">
        <ele>459.050684</ele>
        <time>2022-02-24T03:28:40.821Z</time>
      </trkpt>
      <trkpt lat="41.98311" lon="21.06856">
        <ele>459.601557</ele>
        <time>2022-02-24T03:28:47.255Z</time>
      </trkpt>
      <trkpt lat="41.98261" lon="21.06819">
        <ele>462.583221</ele>
        <time>2022-02-24T03:29:15.901Z</time>
      </trkpt>
      <trkpt lat="41.98227" lon="21.06721">
        <ele>466.504034</ele>
        <time>2022-02-24T03:29:56.398Z</time>
      </trkpt>
      <trkpt lat="41.98207" lon="21.06697">
        <ele>467.69559</ele>
        <time>2022-02-24T03:30:09.933Z</time>
      </trkpt>
      <trkpt lat="41.98183" lon="21.06693">
        <ele>468.776112</ele>
        <time>2022-02-24T03:30:21.558Z</time>
      </trkpt>
      <trkpt lat="41.98163" lon="21.06716">
        <ele>469.986994</ele>
        <time>2022-02-24T03:30:34.591Z</time>
      </trkpt>
      <trkpt lat="41.98155" lon="21.06719">
        <ele>470.351108</ele>
        <time>2022-02-24T03:30:38.568Z</time>
      </trkpt>
      <trkpt lat="41.98127" lon="21.06709">
        <ele>471.637952</ele>
        <time>2022-02-24T03:30:52.326Z</time>
      </trkpt>
      <trkpt lat="41.98108" lon="21.0668">
        <ele>472.942085</ele>
        <time>2022-02-24T03:31:05.852Z</time>
      </trkpt>
      <trkpt lat="41.98039" lon="21.06546">
        <ele>478.471161</ele>
        <time>2022-02-24T03:32:06.710Z</time>
      </trkpt>
      <trkpt lat="41.98024" lon="21.06532">
        <ele>479.306538</ele>
        <time>2022-02-24T03:32:16.615Z</time>
      </trkpt>
      <trkpt lat="41.98008" lon="21.06527">
        <ele>480.079785</ele>
        <time>2022-02-24T03:32:24.597Z</time>
      </trkpt>
      <trkpt lat="41.98001" lon="21.06529">
        <ele>480.415897</ele>
        <time>2022-02-24T03:32:27.673Z</time>
      </trkpt>
      <trkpt lat="41.97992" lon="21.06532">
        <ele>480.830932</ele>
        <time>2022-02-24T03:32:33.473Z</time>
      </trkpt>
      <trkpt lat="41.9797" lon="21.06538">
        <ele>481.488208</ele>
        <time>2022-02-24T03:32:43.703Z</time>
      </trkpt>
      <trkpt lat="41.9795" lon="21.06538">
        <ele>481.917721</ele>
        <time>2022-02-24T03:32:54.200Z</time>
      </trkpt>
      <trkpt lat="41.97936" lon="21.06534">
        <ele>482.236832</ele>
        <time>2022-02-24T03:33:00.823Z</time>
      </trkpt>
      <trkpt lat="41.97859" lon="21.06489">
        <ele>484.078506</ele>
        <time>2022-02-24T03:33:35.840Z</time>
      </trkpt>
      <trkpt lat="41.9783" lon="21.06454">
        <ele>484.929604</ele>
        <time>2022-02-24T03:33:47.408Z</time>
      </trkpt>
      <trkpt lat="41.97792" lon="21.06445">
        <ele>483.114786</ele>
        <time>2022-02-24T03:33:56.182Z</time>
      </trkpt>
      <trkpt lat="41.97784" lon="21.06435">
        <ele>482.438906</ele>
        <time>2022-02-24T03:33:58.644Z</time>
      </trkpt>
      <trkpt lat="41.97786" lon="21.06429">
        <ele>482.12724</ele>
        <time>2022-02-24T03:34:00.044Z</time>
      </trkpt>
      <trkpt lat="41.97785" lon="21.06424">
        <ele>481.880333</ele>
        <time>2022-02-24T03:34:00.698Z</time>
      </trkpt>
      <trkpt lat="41.97795" lon="21.0639">
        <ele>480.195242</ele>
        <time>2022-02-24T03:34:05.785Z</time>
      </trkpt>
      <trkpt lat="41.97793" lon="21.06362">
        <ele>478.930789</ele>
        <time>2022-02-24T03:34:09.421Z</time>
      </trkpt>
      <trkpt lat="41.97786" lon="21.06355">
        <ele>478.378188</ele>
        <time>2022-02-24T03:34:10.961Z</time>
      </trkpt>
      <trkpt lat="41.97779" lon="21.0635">
        <ele>477.843904</ele>
        <time>2022-02-24T03:34:13.004Z</time>
      </trkpt>
      <trkpt lat="41.97775" lon="21.06344">
        <ele>477.491953</ele>
        <time>2022-02-24T03:34:13.972Z</time>
      </trkpt>
      <trkpt lat="41.97754" lon="21.06298">
        <ele>475.008342</ele>
        <time>2022-02-24T03:34:21.013Z</time>
      </trkpt>
      <trkpt lat="41.97753" lon="21.06293">
        <ele>474.799205</ele>
        <time>2022-02-24T03:34:21.589Z</time>
      </trkpt>
      <trkpt lat="41.97752" lon="21.0629">
        <ele>474.613638</ele>
        <time>2022-02-24T03:34:22.093Z</time>
      </trkpt>
      <trkpt lat="41.97745" lon="21.06277">
        <ele>473.900138</ele>
        <time>2022-02-24T03:34:23.903Z</time>
      </trkpt>
      <trkpt lat="41.97733" lon="21.06268">
        <ele>472.728976</ele>
        <time>2022-02-24T03:34:26.365Z</time>
      </trkpt>
      <trkpt lat="41.97713" lon="21.06257">
        <ele>470.8216</ele>
        <time>2022-02-24T03:34:29.957Z</time>
      </trkpt>
      <trkpt lat="41.97703" lon="21.06247">
        <ele>469.708442</ele>
        <time>2022-02-24T03:34:32.389Z</time>
      </trkpt>
      <trkpt lat="41.97697" lon="21.06216">
        <ele>467.658079</ele>
        <time>2022-02-24T03:34:36.287Z</time>
      </trkpt>
      <trkpt lat="41.97718" lon="21.06136">
        <ele>462.155988</ele>
        <time>2022-02-24T03:34:47.484Z</time>
      </trkpt>
      <trkpt lat="41.97719" lon="21.06124">
        <ele>461.385401</ele>
        <time>2022-02-24T03:34:48.930Z</time>
      </trkpt>
      <trkpt lat="41.97714" lon="21.06111">
        <ele>460.395976</ele>
        <time>2022-02-24T03:34:51.209Z</time>
      </trkpt>
      <trkpt lat="41.97704" lon="21.06104">
        <ele>459.491415</ele>
        <time>2022-02-24T03:34:53.124Z</time>
      </trkpt>
      <trkpt lat="41.97696" lon="21.061">
        <ele>458.739385</ele>
        <time>2022-02-24T03:34:54.609Z</time>
      </trkpt>
      <trkpt lat="41.97651" lon="21.06079">
        <ele>457.10754</ele>
        <time>2022-02-24T03:35:03.675Z</time>
      </trkpt>
      <trkpt lat="41.9763" lon="21.0607">
        <ele>456.469685</ele>
        <time>2022-02-24T03:35:08.660Z</time>
      </trkpt>
      <trkpt lat="41.97602" lon="21.06057">
        <ele>455.626202</ele>
        <time>2022-02-24T03:35:14.909Z</time>
      </trkpt>
      <trkpt lat="41.97544" lon="21.0603">
        <ele>453.861158</ele>
        <time>2022-02-24T03:35:29.201Z</time>
      </trkpt>
      <trkpt lat="41.97495" lon="21.06002">
        <ele>452.567383</ele>
        <time>2022-02-24T03:35:42.976Z</time>
      </trkpt>
      <trkpt lat="41.97477" lon="21.05991">
        <ele>452.159257</ele>
        <time>2022-02-24T03:35:47.237Z</time>
      </trkpt>
      <trkpt lat="41.97437" lon="21.05961">
        <ele>451.196895</ele>
        <time>2022-02-24T03:35:57.683Z</time>
      </trkpt>
      <trkpt lat="41.9743" lon="21.05952">
        <ele>451.000808</ele>
        <time>2022-02-24T03:36:00.069Z</time>
      </trkpt>
      <trkpt lat="41.97428" lon="21.05944">
        <ele>450.863875</ele>
        <time>2022-02-24T03:36:01.226Z</time>
      </trkpt>
      <trkpt lat="41.97429" lon="21.0591">
        <ele>450.338411</ele>
        <time>2022-02-24T03:36:06.996Z</time>
      </trkpt>
      <trkpt lat="41.97448" lon="21.05823">
        <ele>448.852799</ele>
        <time>2022-02-24T03:36:20.585Z</time>
      </trkpt>
      <trkpt lat="41.97489" lon="21.05577">
        <ele>445.243717</ele>
        <time>2022-02-24T03:37:01.243Z</time>
      </trkpt>
      <trkpt lat="41.97489" lon="21.05567">
        <ele>445.265971</ele>
        <time>2022-02-24T03:37:03.023Z</time>
      </trkpt>
      <trkpt lat="41.97499" lon="21.05553">
        <ele>445.308145</ele>
        <time>2022-02-24T03:37:06.467Z</time>
      </trkpt>
      <trkpt lat="41.97503" lon="21.05546">
        <ele>445.329292</ele>
        <time>2022-02-24T03:37:08.188Z</time>
      </trkpt>
      <trkpt lat="41.97497" lon="21.05543">
        <ele>445.350264</ele>
        <time>2022-02-24T03:37:11.342Z</time>
      </trkpt>
      <trkpt lat="41.97487" lon="21.05519">
        <ele>445.41161</ele>
        <time>2022-02-24T03:37:16.592Z</time>
      </trkpt>
      <trkpt lat="41.97492" lon="21.0538">
        <ele>445.820707</ele>
        <time>2022-02-24T03:37:52.196Z</time>
      </trkpt>
      <trkpt lat="41.97468" lon="21.05181">
        <ele>447.560482</ele>
        <time>2022-02-24T03:38:41.907Z</time>
      </trkpt>
      <trkpt lat="41.97453" lon="21.0513">
        <ele>447.707979</ele>
        <time>2022-02-24T03:38:53.489Z</time>
      </trkpt>
      <trkpt lat="41.97377" lon="21.05013">
        <ele>447.345617</ele>
        <time>2022-02-24T03:39:23.068Z</time>
      </trkpt>
      <trkpt lat="41.97321" lon="21.04937">
        <ele>446.551081</ele>
        <time>2022-02-24T03:39:41.136Z</time>
      </trkpt>
      <trkpt lat="41.97313" lon="21.04913">
        <ele>446.189402</ele>
        <time>2022-02-24T03:39:45.478Z</time>
      </trkpt>
      <trkpt lat="41.97287" lon="21.0479">
        <ele>444.474246</ele>
        <time>2022-02-24T03:40:05.334Z</time>
      </trkpt>
      <trkpt lat="41.97238" lon="21.04673">
        <ele>443.401416</ele>
        <time>2022-02-24T03:40:26.256Z</time>
      </trkpt>
      <trkpt lat="41.9721" lon="21.04566">
        <ele>442.728295</ele>
        <time>2022-02-24T03:40:46.508Z</time>
      </trkpt>
      <trkpt lat="41.97192" lon="21.04516">
        <ele>443.066843</ele>
        <time>2022-02-24T03:40:59.337Z</time>
      </trkpt>
      <trkpt lat="41.97153" lon="21.04465">
        <ele>444.728222</ele>
        <time>2022-02-24T03:41:19.523Z</time>
      </trkpt>
      <trkpt lat="41.97044" lon="21.04354">
        <ele>449.236692</ele>
        <time>2022-02-24T03:42:23.431Z</time>
      </trkpt>
      <trkpt lat="41.96964" lon="21.04247">
        <ele>453.969422</ele>
        <time>2022-02-24T03:43:18.197Z</time>
      </trkpt>
      <trkpt lat="41.96903" lon="21.04198">
        <ele>456.403757</ele>
        <time>2022-02-24T03:43:49.358Z</time>
      </trkpt>
      <trkpt lat="41.96876" lon="21.04153">
        <ele>457.519431</ele>
        <time>2022-02-24T03:44:06.860Z</time>
      </trkpt>
      <trkpt lat="41.96843" lon="21.04104">
        <ele>458.810734</ele>
        <time>2022-02-24T03:44:25.496Z</time>
      </trkpt>
      <trkpt lat="41.96836" lon="21.04095">
        <ele>459.070343</ele>
        <time>2022-02-24T03:44:29.815Z</time>
      </trkpt>
      <trkpt lat="41.96807" lon="21.04046">
        <ele>460.247842</ele>
        <time>2022-02-24T03:44:46.492Z</time>
      </trkpt>
      <trkpt lat="41.96766" lon="21.04006">
        <ele>460.208041</ele>
        <time>2022-02-24T03:45:03.557Z</time>
      </trkpt>
      <trkpt lat="41.96695" lon="21.03899">
        <ele>460.124798</ele>
        <time>2022-02-24T03:45:32.229Z</time>
      </trkpt>
      <trkpt lat="41.96683" lon="21.03859">
        <ele>459.659046</ele>
        <time>2022-02-24T03:45:38.660Z</time>
      </trkpt>
      <trkpt lat="41.96674" lon="21.03835">
        <ele>458.80988</ele>
        <time>2022-02-24T03:45:42.448Z</time>
      </trkpt>
      <trkpt lat="41.96656" lon="21.03802">
        <ele>457.479138</ele>
        <time>2022-02-24T03:45:48.347Z</time>
      </trkpt>
      <trkpt lat="41.96649" lon="21.03788">
        <ele>456.962198</ele>
        <time>2022-02-24T03:45:50.633Z</time>
      </trkpt>
      <trkpt lat="41.96643" lon="21.03713">
        <ele>454.535112</ele>
        <time>2022-02-24T03:46:00.725Z</time>
      </trkpt>
      <trkpt lat="41.96642" lon="21.03695">
        <ele>453.962107</ele>
        <time>2022-02-24T03:46:03.135Z</time>
      </trkpt>
      <trkpt lat="41.9664" lon="21.03669">
        <ele>453.118515</ele>
        <time>2022-02-24T03:46:06.544Z</time>
      </trkpt>
      <trkpt lat="41.96634" lon="21.03584">
        <ele>451.135651</ele>
        <time>2022-02-24T03:46:18.114Z</time>
      </trkpt>
      <trkpt lat="41.96639" lon="21.03575">
        <ele>450.929294</ele>
        <time>2022-02-24T03:46:19.453Z</time>
      </trkpt>
      <trkpt lat="41.9666" lon="21.03574">
        <ele>450.373209</ele>
        <time>2022-02-24T03:46:23.589Z</time>
      </trkpt>
      <trkpt lat="41.96676" lon="21.03573">
        <ele>449.936321</ele>
        <time>2022-02-24T03:46:26.716Z</time>
      </trkpt>
      <trkpt lat="41.96681" lon="21.03573">
        <ele>449.795155</ele>
        <time>2022-02-24T03:46:27.667Z</time>
      </trkpt>
      <trkpt lat="41.96712" lon="21.03564">
        <ele>448.951354</ele>
        <time>2022-02-24T03:46:34.904Z</time>
      </trkpt>
      <trkpt lat="41.96715" lon="21.0356">
        <ele>448.855389</ele>
        <time>2022-02-24T03:46:35.563Z</time>
      </trkpt>
      <trkpt lat="41.9672" lon="21.03543">
        <ele>448.491198</ele>
        <time>2022-02-24T03:46:40.119Z</time>
      </trkpt>
      <trkpt lat="41.96723" lon="21.03522">
        <ele>448.078953</ele>
        <time>2022-02-24T03:46:43.811Z</time>
      </trkpt>
      <trkpt lat="41.9673" lon="21.03461">
        <ele>448.030603</ele>
        <time>2022-02-24T03:46:55.493Z</time>
      </trkpt>
      <trkpt lat="41.96727" lon="21.0343">
        <ele>448.411742</ele>
        <time>2022-02-24T03:47:03.334Z</time>
      </trkpt>
      <trkpt lat="41.96715" lon="21.03339">
        <ele>449.54214</ele>
        <time>2022-02-24T03:47:28.353Z</time>
      </trkpt>
      <trkpt lat="41.96715" lon="21.03254">
        <ele>450.634356</ele>
        <time>2022-02-24T03:47:52.754Z</time>
      </trkpt>
      <trkpt lat="41.9671" lon="21.03182">
        <ele>452.605016</ele>
        <time>2022-02-24T03:48:14.113Z</time>
      </trkpt>
      <trkpt lat="41.96694" lon="21.03062">
        <ele>455.925381</ele>
        <time>2022-02-24T03:48:54.663Z</time>
      </trkpt>
      <trkpt lat="41.96685" lon="21.03032">
        <ele>456.810264</ele>
        <time>2022-02-24T03:49:06.444Z</time>
      </trkpt>
      <trkpt lat="41.96664" lon="21.03">
        <ele>458.286226</ele>
        <time>2022-02-24T03:49:22.524Z</time>
      </trkpt>
      <trkpt lat="41.96618" lon="21.02897">
        <ele>462.684152</ele>
        <time>2022-02-24T03:50:09.384Z</time>
      </trkpt>
      <trkpt lat="41.96546" lon="21.02754">
        <ele>467.723282</ele>
        <time>2022-02-24T03:51:12.827Z</time>
      </trkpt>
      <trkpt lat="41.96536" lon="21.02721">
        <ele>468.467686</ele>
        <time>2022-02-24T03:51:24.072Z</time>
      </trkpt>
      <trkpt lat="41.96526" lon="21.02655">
        <ele>469.868202</ele>
        <time>2022-02-24T03:51:43.028Z</time>
      </trkpt>
      <trkpt lat="41.96496" lon="21.02605">
        <ele>470.990367</ele>
        <time>2022-02-24T03:51:58.257Z</time>
      </trkpt>
      <trkpt lat="41.96481" lon="21.02569">
        <ele>470.651283</ele>
        <time>2022-02-24T03:52:06.336Z</time>
      </trkpt>
      <trkpt lat="41.96472" lon="21.02479">
        <ele>469.905455</ele>
        <time>2022-02-24T03:52:21.638Z</time>
      </trkpt>
      <trkpt lat="41.96448" lon="21.02444">
        <ele>469.509091</ele>
        <time>2022-02-24T03:52:29.382Z</time>
      </trkpt>
      <trkpt lat="41.96426" lon="21.02393">
        <ele>468.963412</ele>
        <time>2022-02-24T03:52:38.619Z</time>
      </trkpt>
      <trkpt lat="41.9642" lon="21.0237">
        <ele>468.525546</ele>
        <time>2022-02-24T03:52:42.131Z</time>
      </trkpt>
      <trkpt lat="41.96418" lon="21.023">
        <ele>467.201964</ele>
        <time>2022-02-24T03:52:52.628Z</time>
      </trkpt>
      <trkpt lat="41.96413" lon="21.02283">
        <ele>466.858599</ele>
        <time>2022-02-24T03:52:55.327Z</time>
      </trkpt>
      <trkpt lat="41.96391" lon="21.02245">
        <ele>465.955723</ele>
        <time>2022-02-24T03:53:02.381Z</time>
      </trkpt>
      <trkpt lat="41.96304" lon="21.02139">
        <ele>463.47592</ele>
        <time>2022-02-24T03:53:26.747Z</time>
      </trkpt>
      <trkpt lat="41.96288" lon="21.02112">
        <ele>463.029135</ele>
        <time>2022-02-24T03:53:32.266Z</time>
      </trkpt>
      <trkpt lat="41.96271" lon="21.02082">
        <ele>462.545382</ele>
        <time>2022-02-24T03:53:38.214Z</time>
      </trkpt>
      <trkpt lat="41.96239" lon="21.01976">
        <ele>461.29018</ele>
        <time>2022-02-24T03:53:57.198Z</time>
      </trkpt>
      <trkpt lat="41.96205" lon="21.01924">
        <ele>460.992641</ele>
        <time>2022-02-24T03:54:10.023Z</time>
      </trkpt>
      <trkpt lat="41.96175" lon="21.01924">
        <ele>460.821599</ele>
        <time>2022-02-24T03:54:18.099Z</time>
      </trkpt>
      <trkpt lat="41.96149" lon="21.01905">
        <ele>460.649264</ele>
        <time>2022-02-24T03:54:25.867Z</time>
      </trkpt>
      <trkpt lat="41.96075" lon="21.01773">
        <ele>460.181888</ele>
        <time>2022-02-24T03:54:55.391Z</time>
      </trkpt>
      <trkpt lat="41.95999" lon="21.01697">
        <ele>459.944921</ele>
        <time>2022-02-24T03:55:19.719Z</time>
      </trkpt>
      <trkpt lat="41.95817" lon="21.01566">
        <ele>461.263807</ele>
        <time>2022-02-24T03:56:21.147Z</time>
      </trkpt>
      <trkpt lat="41.95807" lon="21.01544">
        <ele>461.504434</ele>
        <time>2022-02-24T03:56:27.733Z</time>
      </trkpt>
      <trkpt lat="41.95792" lon="21.0147">
        <ele>462.239941</ele>
        <time>2022-02-24T03:56:47.729Z</time>
      </trkpt>
      <trkpt lat="41.95792" lon="21.01415">
        <ele>462.768785</ele>
        <time>2022-02-24T03:57:02.048Z</time>
      </trkpt>
      <trkpt lat="41.95736" lon="21.01292">
        <ele>463.357226</ele>
        <time>2022-02-24T03:57:35.783Z</time>
      </trkpt>
      <trkpt lat="41.95712" lon="21.0127">
        <ele>463.34622</ele>
        <time>2022-02-24T03:57:43.302Z</time>
      </trkpt>
      <trkpt lat="41.95683" lon="21.01258">
        <ele>463.334481</ele>
        <time>2022-02-24T03:57:50.945Z</time>
      </trkpt>
      <trkpt lat="41.95573" lon="21.01266">
        <ele>462.8878</ele>
        <time>2022-02-24T03:58:16.752Z</time>
      </trkpt>
      <trkpt lat="41.95498" lon="21.01264">
        <ele>462.233828</ele>
        <time>2022-02-24T03:58:33.609Z</time>
      </trkpt>
      <trkpt lat="41.95476" lon="21.01268">
        <ele>462.040012</ele>
        <time>2022-02-24T03:58:38.796Z</time>
      </trkpt>
      <trkpt lat="41.95442" lon="21.01288">
        <ele>461.786113</ele>
        <time>2022-02-24T03:58:47.776Z</time>
      </trkpt>
      <trkpt lat="41.95432" lon="21.01298">
        <ele>461.923599</ele>
        <time>2022-02-24T03:58:51.333Z</time>
      </trkpt>
      <trkpt lat="41.95401" lon="21.01347">
        <ele>462.409411</ele>
        <time>2022-02-24T03:59:04.995Z</time>
      </trkpt>
      <trkpt lat="41.95393" lon="21.01349">
        <ele>462.497161</ele>
        <time>2022-02-24T03:59:07.604Z</time>
      </trkpt>
      <trkpt lat="41.95353" lon="21.01338">
        <ele>462.92007</ele>
        <time>2022-02-24T03:59:20.737Z</time>
      </trkpt>
      <trkpt lat="41.95224" lon="21.01347">
        <ele>464.769078</ele>
        <time>2022-02-24T04:00:07.967Z</time>
      </trkpt>
      <trkpt lat="41.95122" lon="21.01294">
        <ele>466.789208</ele>
        <time>2022-02-24T04:00:47.993Z</time>
      </trkpt>
      <trkpt lat="41.95052" lon="21.01269">
        <ele>466.856319</ele>
        <time>2022-02-24T04:01:09.450Z</time>
      </trkpt>
      <trkpt lat="41.94991" lon="21.01209">
        <ele>466.77116</ele>
        <time>2022-02-24T04:01:27.930Z</time>
      </trkpt>
      <trkpt lat="41.94934" lon="21.01188">
        <ele>466.673592</ele>
        <time>2022-02-24T04:01:41.477Z</time>
      </trkpt>
      <trkpt lat="41.94875" lon="21.01144">
        <ele>466.491085</ele>
        <time>2022-02-24T04:01:57.413Z</time>
      </trkpt>
      <trkpt lat="41.94828" lon="21.01127">
        <ele>466.359455</ele>
        <time>2022-02-24T04:02:10.026Z</time>
      </trkpt>
      <trkpt lat="41.94744" lon="21.01122">
        <ele>466.386047</ele>
        <time>2022-02-24T04:02:35.429Z</time>
      </trkpt>
      <trkpt lat="41.94663" lon="21.01083">
        <ele>466.695227</ele>
        <time>2022-02-24T04:03:02.568Z</time>
      </trkpt>
      <trkpt lat="41.94647" lon="21.01071">
        <ele>466.761988</ele>
        <time>2022-02-24T04:03:07.883Z</time>
      </trkpt>
      <trkpt lat="41.94597" lon="21.0101">
        <ele>465.704035</ele>
        <time>2022-02-24T04:03:23.947Z</time>
      </trkpt>
      <trkpt lat="41.94566" lon="21.00984">
        <ele>464.350959</ele>
        <time>2022-02-24T04:03:31.564Z</time>
      </trkpt>
      <trkpt lat="41.94522" lon="21.00958">
        <ele>462.582126</ele>
        <time>2022-02-24T04:03:40.787Z</time>
      </trkpt>
      <trkpt lat="41.94478" lon="21.00891">
        <ele>460.010982</ele>
        <time>2022-02-24T04:03:52.458Z</time>
      </trkpt>
      <trkpt lat="41.94461" lon="21.00873">
        <ele>458.590674</ele>
        <time>2022-02-24T04:03:56.069Z</time>
      </trkpt>
      <trkpt lat="41.94417" lon="21.00847">
        <ele>455.326164</ele>
        <time>2022-02-24T04:04:04.390Z</time>
      </trkpt>
      <trkpt lat="41.94385" lon="21.00845">
        <ele>453.209376</ele>
        <time>2022-02-24T04:04:09.822Z</time>
      </trkpt>
      <trkpt lat="41.94377" lon="21.00844">
        <ele>452.658449</ele>
        <time>2022-02-24T04:04:11.180Z</time>
      </trkpt>
      <trkpt lat="41.9436" lon="21.0084">
        <ele>451.478544</ele>
        <time>2022-02-24T04:04:14.180Z</time>
      </trkpt>
      <trkpt lat="41.943" lon="21.00808">
        <ele>447.577589</ele>
        <time>2022-02-24T04:04:25.472Z</time>
      </trkpt>
      <trkpt lat="41.94222" lon="21.0082">
        <ele>444.563693</ele>
        <time>2022-02-24T04:04:39.460Z</time>
      </trkpt>
      <trkpt lat="41.94156" lon="21.00808">
        <ele>442.021235</ele>
        <time>2022-02-24T04:04:53.274Z</time>
      </trkpt>
      <trkpt lat="41.94152" lon="21.00807">
        <ele>441.849918</ele>
        <time>2022-02-24T04:04:54.207Z</time>
      </trkpt>
      <trkpt lat="41.94138" lon="21.00802">
        <ele>441.299488</ele>
        <time>2022-02-24T04:04:57.363Z</time>
      </trkpt>
      <trkpt lat="41.94125" lon="21.00796">
        <ele>441.085714</ele>
        <time>2022-02-24T04:05:00.534Z</time>
      </trkpt>
      <trkpt lat="41.94092" lon="21.00785">
        <ele>440.691541</ele>
        <time>2022-02-24T04:05:08.267Z</time>
      </trkpt>
      <trkpt lat="41.94025" lon="21.00769">
        <ele>439.891963</ele>
        <time>2022-02-24T04:05:24.083Z</time>
      </trkpt>
      <trkpt lat="41.93955" lon="21.0074">
        <ele>439.004973</ele>
        <time>2022-02-24T04:05:41.040Z</time>
      </trkpt>
      <trkpt lat="41.93945" lon="21.00733">
        <ele>438.833302</ele>
        <time>2022-02-24T04:05:43.845Z</time>
      </trkpt>
      <trkpt lat="41.93965" lon="21.00705">
        <ele>438.387453</ele>
        <time>2022-02-24T04:05:50.194Z</time>
      </trkpt>
      <trkpt lat="41.94001" lon="21.00648">
        <ele>437.530338</ele>
        <time>2022-02-24T04:06:02.284Z</time>
      </trkpt>
      <trkpt lat="41.94011" lon="21.0063">
        <ele>437.264929</ele>
        <time>2022-02-24T04:06:05.858Z</time>
      </trkpt>
      <trkpt lat="41.9402" lon="21.00615">
        <ele>437.047625</ele>
        <time>2022-02-24T04:06:08.955Z</time>
      </trkpt>
      <trkpt lat="41.94035" lon="21.00585">
        <ele>436.620281</ele>
        <time>2022-02-24T04:06:14.810Z</time>
      </trkpt>
      <trkpt lat="41.94052" lon="21.00547">
        <ele>436.144814</ele>
        <time>2022-02-24T04:06:21.559Z</time>
      </trkpt>
      <trkpt lat="41.94062" lon="21.00525">
        <ele>435.890675</ele>
        <time>2022-02-24T04:06:25.631Z</time>
      </trkpt>
      <trkpt lat="41.94204" lon="21.00255">
        <ele>433.238778</ele>
        <time>2022-02-24T04:07:21.909Z</time>
      </trkpt>
      <trkpt lat="41.94224" lon="21.00157">
        <ele>432.710591</ele>
        <time>2022-02-24T04:07:41.300Z</time>
      </trkpt>
      <trkpt lat="41.94266" lon="21.00032">
        <ele>432.794446</ele>
        <time>2022-02-24T04:08:08.920Z</time>
      </trkpt>
      <trkpt lat="41.94275" lon="21.00001">
        <ele>432.822997</ele>
        <time>2022-02-24T04:08:15.712Z</time>
      </trkpt>
      <trkpt lat="41.94283" lon="20.99981">
        <ele>432.842821</ele>
        <time>2022-02-24T04:08:20.420Z</time>
      </trkpt>
      <trkpt lat="41.94303" lon="20.99925">
        <ele>432.901836</ele>
        <time>2022-02-24T04:08:33.350Z</time>
      </trkpt>
      <trkpt lat="41.94364" lon="20.99752">
        <ele>433.194828</ele>
        <time>2022-02-24T04:09:12.730Z</time>
      </trkpt>
      <trkpt lat="41.94415" lon="20.99638">
        <ele>433.358044</ele>
        <time>2022-02-24T04:09:39.672Z</time>
      </trkpt>
      <trkpt lat="41.94426" lon="20.99596">
        <ele>433.40687</ele>
        <time>2022-02-24T04:09:48.874Z</time>
      </trkpt>
      <trkpt lat="41.94419" lon="20.9956">
        <ele>433.446269</ele>
        <time>2022-02-24T04:09:56.334Z</time>
      </trkpt>
      <trkpt lat="41.94395" lon="20.99491">
        <ele>433.516769</ele>
        <time>2022-02-24T04:10:11.933Z</time>
      </trkpt>
      <trkpt lat="41.94324" lon="20.99317">
        <ele>433.305446</ele>
        <time>2022-02-24T04:10:50.676Z</time>
      </trkpt>
      <trkpt lat="41.94323" lon="20.9929">
        <ele>433.276135</ele>
        <time>2022-02-24T04:10:56.002Z</time>
      </trkpt>
      <trkpt lat="41.94327" lon="20.99274">
        <ele>433.244722</ele>
        <time>2022-02-24T04:10:59.100Z</time>
      </trkpt>
      <trkpt lat="41.94335" lon="20.9924">
        <ele>433.136184</ele>
        <time>2022-02-24T04:11:05.686Z</time>
      </trkpt>
      <trkpt lat="41.94336" lon="20.99233">
        <ele>433.111924</ele>
        <time>2022-02-24T04:11:07.162Z</time>
      </trkpt>
      <trkpt lat="41.94337" lon="20.99222">
        <ele>433.078536</ele>
        <time>2022-02-24T04:11:09.006Z</time>
      </trkpt>
      <trkpt lat="41.9437" lon="20.99108">
        <ele>432.701329</ele>
        <time>2022-02-24T04:11:31.135Z</time>
      </trkpt>
      <trkpt lat="41.944" lon="20.99036">
        <ele>432.548778</ele>
        <time>2022-02-24T04:11:46.595Z</time>
      </trkpt>
      <trkpt lat="41.94439" lon="20.98938">
        <ele>432.699239</ele>
        <time>2022-02-24T04:12:08.665Z</time>
      </trkpt>
      <trkpt lat="41.94444" lon="20.98927">
        <ele>432.717016</ele>
        <time>2022-02-24T04:12:11.644Z</time>
      </trkpt>
      <trkpt lat="41.94652" lon="20.98519">
        <ele>434.66112</ele>
        <time>2022-02-24T04:14:00.582Z</time>
      </trkpt>
      <trkpt lat="41.94683" lon="20.98489">
        <ele>434.884888</ele>
        <time>2022-02-24T04:14:11.606Z</time>
      </trkpt>
      <trkpt lat="41.94692" lon="20.9848">
        <ele>434.952483</ele>
        <time>2022-02-24T04:14:15.309Z</time>
      </trkpt>
      <trkpt lat="41.94587" lon="20.98439">
        <ele>435.399004</ele>
        <time>2022-02-24T04:14:46.891Z</time>
      </trkpt>
      <trkpt lat="41.94069" lon="20.98244">
        <ele>437.067888</ele>
        <time>2022-02-24T04:17:16.911Z</time>
      </trkpt>
      <trkpt lat="41.94031" lon="20.98229">
        <ele>437.243318</ele>
        <time>2022-02-24T04:17:28.966Z</time>
      </trkpt>
      <trkpt lat="41.93942" lon="20.98196">
        <ele>437.654791</ele>
        <time>2022-02-24T04:17:56.819Z</time>
      </trkpt>
      <trkpt lat="41.93313" lon="20.97958">
        <ele>440.810689</ele>
        <time>2022-02-24T04:21:04.799Z</time>
      </trkpt>
      <trkpt lat="41.93307" lon="20.97955">
        <ele>440.845776</ele>
        <time>2022-02-24T04:21:06.746Z</time>
      </trkpt>
      <trkpt lat="41.93307" lon="20.97938">
        <ele>440.924179</ele>
        <time>2022-02-24T04:21:10.892Z</time>
      </trkpt>
      <trkpt lat="41.9329" lon="20.97567">
        <ele>444.14474</ele>
        <time>2022-02-24T04:22:40.387Z</time>
      </trkpt>
      <trkpt lat="41.93274" lon="20.97504">
        <ele>444.757335</ele>
        <time>2022-02-24T04:22:56.717Z</time>
      </trkpt>
      <trkpt lat="41.93271" lon="20.97489">
        <ele>444.902087</ele>
        <time>2022-02-24T04:23:00.731Z</time>
      </trkpt>
      <trkpt lat="41.93271" lon="20.97466">
        <ele>445.108723</ele>
        <time>2022-02-24T04:23:05.848Z</time>
      </trkpt>
      <trkpt lat="41.93272" lon="20.97446">
        <ele>445.274846</ele>
        <time>2022-02-24T04:23:11.253Z</time>
      </trkpt>
      <trkpt lat="41.93274" lon="20.97402">
        <ele>445.599078</ele>
        <time>2022-02-24T04:23:21.614Z</time>
      </trkpt>
      <trkpt lat="41.93255" lon="20.97253">
        <ele>446.724516</ele>
        <time>2022-02-24T04:23:57.191Z</time>
      </trkpt>
      <trkpt lat="41.93279" lon="20.97131">
        <ele>447.436893</ele>
        <time>2022-02-24T04:24:24.802Z</time>
      </trkpt>
      <trkpt lat="41.93325" lon="20.96994">
        <ele>448.204789</ele>
        <time>2022-02-24T04:24:57.943Z</time>
      </trkpt>
      <trkpt lat="41.93353" lon="20.96846">
        <ele>449.635701</ele>
        <time>2022-02-24T04:25:34.154Z</time>
      </trkpt>
      <trkpt lat="41.9335" lon="20.96805">
        <ele>450.025299</ele>
        <time>2022-02-24T04:25:44.633Z</time>
      </trkpt>
      <trkpt lat="41.93336" lon="20.96744">
        <ele>450.708836</ele>
        <time>2022-02-24T04:26:01.041Z</time>
      </trkpt>
      <trkpt lat="41.93332" lon="20.96569">
        <ele>453.222694</ele>
        <time>2022-02-24T04:26:48.836Z</time>
      </trkpt>
      <trkpt lat="41.93306" lon="20.96384">
        <ele>455.387852</ele>
        <time>2022-02-24T04:27:38.393Z</time>
      </trkpt>
      <trkpt lat="41.93321" lon="20.9609">
        <ele>457.631339</ele>
        <time>2022-02-24T04:28:45.847Z</time>
      </trkpt>
      <trkpt lat="41.9336" lon="20.96001">
        <ele>458.261229</ele>
        <time>2022-02-24T04:29:08.919Z</time>
      </trkpt>
      <trkpt lat="41.93375" lon="20.95939">
        <ele>458.662062</ele>
        <time>2022-02-24T04:29:23.824Z</time>
      </trkpt>
      <trkpt lat="41.93378" lon="20.95813">
        <ele>459.429619</ele>
        <time>2022-02-24T04:29:52.459Z</time>
      </trkpt>
      <trkpt lat="41.93361" lon="20.95609">
        <ele>460.917579</ele>
        <time>2022-02-24T04:30:40.280Z</time>
      </trkpt>
      <trkpt lat="41.93363" lon="20.95503">
        <ele>461.785754</ele>
        <time>2022-02-24T04:31:05.302Z</time>
      </trkpt>
      <trkpt lat="41.93326" lon="20.95285">
        <ele>463.802354</ele>
        <time>2022-02-24T04:31:59.583Z</time>
      </trkpt>
      <trkpt lat="41.93319" lon="20.95065">
        <ele>466.120963</ele>
        <time>2022-02-24T04:32:54.838Z</time>
      </trkpt>
      <trkpt lat="41.9332" lon="20.95009">
        <ele>466.729325</ele>
        <time>2022-02-24T04:33:09.312Z</time>
      </trkpt>
      <trkpt lat="41.93328" lon="20.94954">
        <ele>467.339392</ele>
        <time>2022-02-24T04:33:23.402Z</time>
      </trkpt>
      <trkpt lat="41.93346" lon="20.94887">
        <ele>468.109244</ele>
        <time>2022-02-24T04:33:40.778Z</time>
      </trkpt>
      <trkpt lat="41.93363" lon="20.94858">
        <ele>468.508143</ele>
        <time>2022-02-24T04:33:49.700Z</time>
      </trkpt>
      <trkpt lat="41.93378" lon="20.94836">
        <ele>468.824364</ele>
        <time>2022-02-24T04:33:57.145Z</time>
      </trkpt>
      <trkpt lat="41.93385" lon="20.94823">
        <ele>468.994589</ele>
        <time>2022-02-24T04:34:01.093Z</time>
      </trkpt>
      <trkpt lat="41.93399" lon="20.94756">
        <ele>469.735296</ele>
        <time>2022-02-24T04:34:18.536Z</time>
      </trkpt>
      <trkpt lat="41.93406" lon="20.94703">
        <ele>470.311023</ele>
        <time>2022-02-24T04:34:31.957Z</time>
      </trkpt>
      <trkpt lat="41.93413" lon="20.94655">
        <ele>470.841154</ele>
        <time>2022-02-24T04:34:44.704Z</time>
      </trkpt>
      <trkpt lat="41.9342" lon="20.94624">
        <ele>471.137321</ele>
        <time>2022-02-24T04:34:52.823Z</time>
      </trkpt>
      <trkpt lat="41.93444" lon="20.9454">
        <ele>471.921465</ele>
        <time>2022-02-24T04:35:14.378Z</time>
      </trkpt>
      <trkpt lat="41.93458" lon="20.94508">
        <ele>472.245176</ele>
        <time>2022-02-24T04:35:23.205Z</time>
      </trkpt>
      <trkpt lat="41.93468" lon="20.94494">
        <ele>472.403503</ele>
        <time>2022-02-24T04:35:28.175Z</time>
      </trkpt>
      <trkpt lat="41.93484" lon="20.94474">
        <ele>472.659407</ele>
        <time>2022-02-24T04:35:34.905Z</time>
      </trkpt>
      <trkpt lat="41.93496" lon="20.9446">
        <ele>472.845993</ele>
        <time>2022-02-24T04:35:40.560Z</time>
      </trkpt>
      <trkpt lat="41.9351" lon="20.94447">
        <ele>473.039659</ele>
        <time>2022-02-24T04:35:45.360Z</time>
      </trkpt>
      <trkpt lat="41.93536" lon="20.94426">
        <ele>473.25376</ele>
        <time>2022-02-24T04:35:54.757Z</time>
      </trkpt>
      <trkpt lat="41.93555" lon="20.94415">
        <ele>473.394152</ele>
        <time>2022-02-24T04:36:01.013Z</time>
      </trkpt>
      <trkpt lat="41.93566" lon="20.94406">
        <ele>473.486048</ele>
        <time>2022-02-24T04:36:04.952Z</time>
      </trkpt>
      <trkpt lat="41.93578" lon="20.94392">
        <ele>473.595829</ele>
        <time>2022-02-24T04:36:09.485Z</time>
      </trkpt>
      <trkpt lat="41.93582" lon="20.94385">
        <ele>473.643089</ele>
        <time>2022-02-24T04:36:11.788Z</time>
      </trkpt>
      <trkpt lat="41.93586" lon="20.94378">
        <ele>473.68695</ele>
        <time>2022-02-24T04:36:13.780Z</time>
      </trkpt>
      <trkpt lat="41.93602" lon="20.9435">
        <ele>473.864868</ele>
        <time>2022-02-24T04:36:21.097Z</time>
      </trkpt>
      <trkpt lat="41.93619" lon="20.94321">
        <ele>474.050547</ele>
        <time>2022-02-24T04:36:28.951Z</time>
      </trkpt>
      <trkpt lat="41.93631" lon="20.94303">
        <ele>474.176254</ele>
        <time>2022-02-24T04:36:34.422Z</time>
      </trkpt>
      <trkpt lat="41.93633" lon="20.94296">
        <ele>474.216853</ele>
        <time>2022-02-24T04:36:36.108Z</time>
      </trkpt>
      <trkpt lat="41.93637" lon="20.94287">
        <ele>474.26938</ele>
        <time>2022-02-24T04:36:38.359Z</time>
      </trkpt>
      <trkpt lat="41.9365" lon="20.94228">
        <ele>474.602551</ele>
        <time>2022-02-24T04:36:52.139Z</time>
      </trkpt>
      <trkpt lat="41.93655" lon="20.94201">
        <ele>474.750387</ele>
        <time>2022-02-24T04:36:58.374Z</time>
      </trkpt>
      <trkpt lat="41.93632" lon="20.94188">
        <ele>474.931681</ele>
        <time>2022-02-24T04:37:06.134Z</time>
      </trkpt>
      <trkpt lat="41.93573" lon="20.9415">
        <ele>475.412853</ele>
        <time>2022-02-24T04:37:26.683Z</time>
      </trkpt>
      <trkpt lat="41.93532" lon="20.94124">
        <ele>475.771948</ele>
        <time>2022-02-24T04:37:41.079Z</time>
      </trkpt>
      <trkpt lat="41.93515" lon="20.94136">
        <ele>475.937236</ele>
        <time>2022-02-24T04:37:47.054Z</time>
      </trkpt>
      <trkpt lat="41.93474" lon="20.94165">
        <ele>476.34327</ele>
        <time>2022-02-24T04:38:01.773Z</time>
      </trkpt>
      <trkpt lat="41.93419" lon="20.94184">
        <ele>476.843718</ele>
        <time>2022-02-24T04:38:20.220Z</time>
      </trkpt>
      <trkpt lat="41.93342" lon="20.94176">
        <ele>477.546599</ele>
        <time>2022-02-24T04:38:45.177Z</time>
      </trkpt>
      <trkpt lat="41.93282" lon="20.94183">
        <ele>478.107879</ele>
        <time>2022-02-24T04:39:03.915Z</time>
      </trkpt>
      <trkpt lat="41.93273" lon="20.94187">
        <ele>478.195292</ele>
        <time>2022-02-24T04:39:07.118Z</time>
      </trkpt>
      <trkpt lat="41.93241" lon="20.94201">
        <ele>478.504452</ele>
        <time>2022-02-24T04:39:17.579Z</time>
      </trkpt>
      <trkpt lat="41.93194" lon="20.94221">
        <ele>479.042998</ele>
        <time>2022-02-24T04:39:34.247Z</time>
      </trkpt>
      <trkpt lat="41.93173" lon="20.94229">
        <ele>479.367783</ele>
        <time>2022-02-24T04:39:41.565Z</time>
      </trkpt>
      <trkpt lat="41.93152" lon="20.94238">
        <ele>479.707476</ele>
        <time>2022-02-24T04:39:49.097Z</time>
      </trkpt>
      <trkpt lat="41.93123" lon="20.94249">
        <ele>480.169699</ele>
        <time>2022-02-24T04:39:59.818Z</time>
      </trkpt>
      <trkpt lat="41.93116" lon="20.94253">
        <ele>480.281729</ele>
        <time>2022-02-24T04:40:02.306Z</time>
      </trkpt>
      <trkpt lat="41.93097" lon="20.94187">
        <ele>481.081757</ele>
        <time>2022-02-24T04:40:20.844Z</time>
      </trkpt>
      <trkpt lat="41.93061" lon="20.94065">
        <ele>482.8222</ele>
        <time>2022-02-24T04:40:56.988Z</time>
      </trkpt>
      <trkpt lat="41.93047" lon="20.94039">
        <ele>483.279829</ele>
        <time>2022-02-24T04:41:06.188Z</time>
      </trkpt>
      <trkpt lat="41.9297" lon="20.93947">
        <ele>485.239094</ele>
        <time>2022-02-24T04:41:44.201Z</time>
      </trkpt>
      <trkpt lat="41.92944" lon="20.93904">
        <ele>485.995633</ele>
        <time>2022-02-24T04:41:59.250Z</time>
      </trkpt>
      <trkpt lat="41.92922" lon="20.93846">
        <ele>486.879134</ele>
        <time>2022-02-24T04:42:16.871Z</time>
      </trkpt>
      <trkpt lat="41.92901" lon="20.9377">
        <ele>487.973716</ele>
        <time>2022-02-24T04:42:38.866Z</time>
      </trkpt>
      <trkpt lat="41.9284" lon="20.93659">
        <ele>490.064073</ele>
        <time>2022-02-24T04:43:17.163Z</time>
      </trkpt>
      <trkpt lat="41.92784" lon="20.93453">
        <ele>493.539519</ele>
        <time>2022-02-24T04:44:19.333Z</time>
      </trkpt>
      <trkpt lat="41.9274" lon="20.93399">
        <ele>494.858304</ele>
        <time>2022-02-24T04:44:42.266Z</time>
      </trkpt>
      <trkpt lat="41.92711" lon="20.93326">
        <ele>496.235404</ele>
        <time>2022-02-24T04:45:06.021Z</time>
      </trkpt>
      <trkpt lat="41.92635" lon="20.93221">
        <ele>498.836927</ele>
        <time>2022-02-24T04:45:48.760Z</time>
      </trkpt>
      <trkpt lat="41.92611" lon="20.93133">
        <ele>500.491755</ele>
        <time>2022-02-24T04:46:16.553Z</time>
      </trkpt>
      <trkpt lat="41.92569" lon="20.93039">
        <ele>502.344014</ele>
        <time>2022-02-24T04:46:48.346Z</time>
      </trkpt>
      <trkpt lat="41.92552" lon="20.92983">
        <ele>503.363182</ele>
        <time>2022-02-24T04:47:05.262Z</time>
      </trkpt>
      <trkpt lat="41.92531" lon="20.92958">
        <ele>504.011205</ele>
        <time>2022-02-24T04:47:16.164Z</time>
      </trkpt>
      <trkpt lat="41.92513" lon="20.92925">
        <ele>504.703962</ele>
        <time>2022-02-24T04:47:27.784Z</time>
      </trkpt>
      <trkpt lat="41.92507" lon="20.929">
        <ele>505.149825</ele>
        <time>2022-02-24T04:47:35.109Z</time>
      </trkpt>
      <trkpt lat="41.92505" lon="20.92839">
        <ele>506.216497</ele>
        <time>2022-02-24T04:47:52.757Z</time>
      </trkpt>
      <trkpt lat="41.92498" lon="20.92819">
        <ele>506.595349</ele>
        <time>2022-02-24T04:47:58.846Z</time>
      </trkpt>
      <trkpt lat="41.9249" lon="20.92795">
        <ele>507.056959</ele>
        <time>2022-02-24T04:48:06.671Z</time>
      </trkpt>
      <trkpt lat="41.92461" lon="20.9263">
        <ele>510.229641</ele>
        <time>2022-02-24T04:48:56.928Z</time>
      </trkpt>
      <trkpt lat="41.92464" lon="20.92522">
        <ele>512.45169</ele>
        <time>2022-02-24T04:49:30.354Z</time>
      </trkpt>
      <trkpt lat="41.92415" lon="20.92322">
        <ele>516.954316</ele>
        <time>2022-02-24T04:50:35.758Z</time>
      </trkpt>
      <trkpt lat="41.92405" lon="20.92295">
        <ele>517.617347</ele>
        <time>2022-02-24T04:50:45.394Z</time>
      </trkpt>
      <trkpt lat="41.924" lon="20.92276">
        <ele>518.045035</ele>
        <time>2022-02-24T04:50:51.440Z</time>
      </trkpt>
      <trkpt lat="41.92389" lon="20.92184">
        <ele>520.144356</ele>
        <time>2022-02-24T04:51:20.526Z</time>
      </trkpt>
      <trkpt lat="41.92388" lon="20.92131">
        <ele>521.391598</ele>
        <time>2022-02-24T04:51:37.342Z</time>
      </trkpt>
      <trkpt lat="41.92413" lon="20.92011">
        <ele>524.264804</ele>
        <time>2022-02-24T04:52:17.666Z</time>
      </trkpt>
      <trkpt lat="41.92422" lon="20.91925">
        <ele>526.023947</ele>
        <time>2022-02-24T04:52:45.201Z</time>
      </trkpt>
      <trkpt lat="41.92429" lon="20.91895">
        <ele>526.656861</ele>
        <time>2022-02-24T04:52:54.961Z</time>
      </trkpt>
      <trkpt lat="41.9243" lon="20.91891">
        <ele>526.746082</ele>
        <time>2022-02-24T04:52:56.856Z</time>
      </trkpt>
      <trkpt lat="41.92463" lon="20.91781">
        <ele>529.100082</ele>
        <time>2022-02-24T04:53:30.740Z</time>
      </trkpt>
      <trkpt lat="41.92472" lon="20.91766">
        <ele>529.355063</ele>
        <time>2022-02-24T04:53:36.573Z</time>
      </trkpt>
      <trkpt lat="41.92434" lon="20.91714">
        <ele>530.024823</ele>
        <time>2022-02-24T04:53:56.201Z</time>
      </trkpt>
      <trkpt lat="41.92387" lon="20.9166">
        <ele>530.778216</ele>
        <time>2022-02-24T04:54:15.664Z</time>
      </trkpt>
      <trkpt lat="41.92378" lon="20.91652">
        <ele>530.918842</ele>
        <time>2022-02-24T04:54:18.970Z</time>
      </trkpt>
      <trkpt lat="41.92363" lon="20.91639">
        <ele>531.134355</ele>
        <time>2022-02-24T04:54:24.544Z</time>
      </trkpt>
      <trkpt lat="41.92362" lon="20.91636">
        <ele>531.163602</ele>
        <time>2022-02-24T04:54:25.219Z</time>
      </trkpt>
      <trkpt lat="41.92361" lon="20.91633">
        <ele>531.201897</ele>
        <time>2022-02-24T04:54:26.099Z</time>
      </trkpt>
      <trkpt lat="41.92358" lon="20.9163">
        <ele>531.240332</ele>
        <time>2022-02-24T04:54:26.982Z</time>
      </trkpt>
      <trkpt lat="41.92355" lon="20.91629">
        <ele>531.279211</ele>
        <time>2022-02-24T04:54:27.854Z</time>
      </trkpt>
      <trkpt lat="41.92352" lon="20.91629">
        <ele>531.312527</ele>
        <time>2022-02-24T04:54:28.599Z</time>
      </trkpt>
      <trkpt lat="41.9235" lon="20.9163">
        <ele>531.345884</ele>
        <time>2022-02-24T04:54:29.335Z</time>
      </trkpt>
      <trkpt lat="41.92334" lon="20.91629">
        <ele>531.449317</ele>
        <time>2022-02-24T04:54:33.646Z</time>
      </trkpt>
      <trkpt lat="41.92324" lon="20.91625">
        <ele>531.440685</ele>
        <time>2022-02-24T04:54:36.576Z</time>
      </trkpt>
      <trkpt lat="41.92299" lon="20.91606">
        <ele>531.416721</ele>
        <time>2022-02-24T04:54:44.387Z</time>
      </trkpt>
      <trkpt lat="41.92285" lon="20.91591">
        <ele>531.402285</ele>
        <time>2022-02-24T04:54:49.119Z</time>
      </trkpt>
      <trkpt lat="41.92256" lon="20.91557">
        <ele>531.369997</ele>
        <time>2022-02-24T04:54:59.409Z</time>
      </trkpt>
      <trkpt lat="41.92236" lon="20.91536">
        <ele>531.348801</ele>
        <time>2022-02-24T04:55:06.082Z</time>
      </trkpt>
      <trkpt lat="41.9222" lon="20.91523">
        <ele>531.333153</ele>
        <time>2022-02-24T04:55:10.689Z</time>
      </trkpt>
      <trkpt lat="41.92197" lon="20.91505">
        <ele>531.311003</ele>
        <time>2022-02-24T04:55:17.333Z</time>
      </trkpt>
      <trkpt lat="41.92168" lon="20.91487">
        <ele>531.154745</ele>
        <time>2022-02-24T04:55:25.175Z</time>
      </trkpt>
      <trkpt lat="41.92153" lon="20.91477">
        <ele>531.056717</ele>
        <time>2022-02-24T04:55:29.122Z</time>
      </trkpt>
      <trkpt lat="41.92108" lon="20.9145">
        <ele>530.768621</ele>
        <time>2022-02-24T04:55:40.861Z</time>
      </trkpt>
      <trkpt lat="41.92087" lon="20.91437">
        <ele>530.629788</ele>
        <time>2022-02-24T04:55:46.464Z</time>
      </trkpt>
      <trkpt lat="41.92026" lon="20.91399">
        <ele>530.23284</ele>
        <time>2022-02-24T04:56:02.953Z</time>
      </trkpt>
      <trkpt lat="41.92005" lon="20.91385">
        <ele>530.122684</ele>
        <time>2022-02-24T04:56:08.540Z</time>
      </trkpt>
      <trkpt lat="41.91972" lon="20.91361">
        <ele>529.941711</ele>
        <time>2022-02-24T04:56:17.815Z</time>
      </trkpt>
      <trkpt lat="41.91947" lon="20.9134">
        <ele>529.799524</ele>
        <time>2022-02-24T04:56:25.200Z</time>
      </trkpt>
      <trkpt lat="41.91924" lon="20.91322">
        <ele>529.673072</ele>
        <time>2022-02-24T04:56:31.808Z</time>
      </trkpt>
      <trkpt lat="41.91915" lon="20.91317">
        <ele>529.626089</ele>
        <time>2022-02-24T04:56:34.250Z</time>
      </trkpt>
      <trkpt lat="41.91906" lon="20.91312">
        <ele>529.577051</ele>
        <time>2022-02-24T04:56:36.815Z</time>
      </trkpt>
      <trkpt lat="41.91883" lon="20.91303">
        <ele>529.461384</ele>
        <time>2022-02-24T04:56:42.880Z</time>
      </trkpt>
      <trkpt lat="41.91875" lon="20.91301">
        <ele>529.424122</ele>
        <time>2022-02-24T04:56:44.792Z</time>
      </trkpt>
      <trkpt lat="41.91727" lon="20.91267">
        <ele>528.251397</ele>
        <time>2022-02-24T04:57:21.243Z</time>
      </trkpt>
      <trkpt lat="41.91724" lon="20.91266">
        <ele>528.230306</ele>
        <time>2022-02-24T04:57:21.806Z</time>
      </trkpt>
      <trkpt lat="41.91717" lon="20.91265">
        <ele>528.176098</ele>
        <time>2022-02-24T04:57:23.457Z</time>
      </trkpt>
      <trkpt lat="41.91701" lon="20.9126">
        <ele>528.03996</ele>
        <time>2022-02-24T04:57:27.177Z</time>
      </trkpt>
      <trkpt lat="41.9165" lon="20.91239">
        <ele>527.151104</ele>
        <time>2022-02-24T04:57:39.193Z</time>
      </trkpt>
      <trkpt lat="41.91643" lon="20.91236">
        <ele>526.99326</ele>
        <time>2022-02-24T04:57:40.999Z</time>
      </trkpt>
      <trkpt lat="41.91634" lon="20.91231">
        <ele>526.797704</ele>
        <time>2022-02-24T04:57:42.913Z</time>
      </trkpt>
      <trkpt lat="41.91573" lon="20.9119">
        <ele>525.463599</ele>
        <time>2022-02-24T04:57:57.265Z</time>
      </trkpt>
      <trkpt lat="41.91518" lon="20.91142">
        <ele>524.123338</ele>
        <time>2022-02-24T04:58:10.769Z</time>
      </trkpt>
      <trkpt lat="41.91508" lon="20.91133">
        <ele>523.846435</ele>
        <time>2022-02-24T04:58:12.980Z</time>
      </trkpt>
      <trkpt lat="41.9149" lon="20.91118">
        <ele>523.358558</ele>
        <time>2022-02-24T04:58:17.309Z</time>
      </trkpt>
      <trkpt lat="41.91479" lon="20.91109">
        <ele>523.040349</ele>
        <time>2022-02-24T04:58:19.972Z</time>
      </trkpt>
      <trkpt lat="41.91473" lon="20.91104">
        <ele>522.869583</ele>
        <time>2022-02-24T04:58:21.474Z</time>
      </trkpt>
      <trkpt lat="41.91453" lon="20.9109">
        <ele>522.334497</ele>
        <time>2022-02-24T04:58:26.142Z</time>
      </trkpt>
      <trkpt lat="41.91418" lon="20.91068">
        <ele>521.440469</ele>
        <time>2022-02-24T04:58:33.946Z</time>
      </trkpt>
      <trkpt lat="41.91372" lon="20.91039">
        <ele>520.241213</ele>
        <time>2022-02-24T04:58:44.439Z</time>
      </trkpt>
      <trkpt lat="41.91355" lon="20.91028">
        <ele>520.121779</ele>
        <time>2022-02-24T04:58:48.342Z</time>
      </trkpt>
      <trkpt lat="41.91336" lon="20.91016">
        <ele>520.058069</ele>
        <time>2022-02-24T04:58:52.899Z</time>
      </trkpt>
      <trkpt lat="41.91305" lon="20.90999">
        <ele>519.955544</ele>
        <time>2022-02-24T04:59:00.840Z</time>
      </trkpt>
      <trkpt lat="41.91265" lon="20.91003">
        <ele>519.833808</ele>
        <time>2022-02-24T04:59:10.832Z</time>
      </trkpt>
      <trkpt lat="41.91257" lon="20.91006">
        <ele>519.810749</ele>
        <time>2022-02-24T04:59:12.584Z</time>
      </trkpt>
      <trkpt lat="41.91248" lon="20.91009">
        <ele>519.782354</ele>
        <time>2022-02-24T04:59:14.922Z</time>
      </trkpt>
      <trkpt lat="41.91229" lon="20.91014">
        <ele>519.724272</ele>
        <time>2022-02-24T04:59:20.791Z</time>
      </trkpt>
      <trkpt lat="41.91219" lon="20.91013">
        <ele>519.693554</ele>
        <time>2022-02-24T04:59:23.610Z</time>
      </trkpt>
      <trkpt lat="41.91189" lon="20.91009">
        <ele>519.803153</ele>
        <time>2022-02-24T04:59:34.347Z</time>
      </trkpt>
      <trkpt lat="41.91181" lon="20.91006">
        <ele>519.986361</ele>
        <time>2022-02-24T04:59:37.179Z</time>
      </trkpt>
      <trkpt lat="41.91171" lon="20.90997">
        <ele>520.272031</ele>
        <time>2022-02-24T04:59:41.468Z</time>
      </trkpt>
      <trkpt lat="41.9117" lon="20.90996">
        <ele>520.308237</ele>
        <time>2022-02-24T04:59:42.823Z</time>
      </trkpt>
      <trkpt lat="41.91098" lon="20.9094">
        <ele>522.26682</ele>
        <time>2022-02-24T05:00:14.599Z</time>
      </trkpt>
      <trkpt lat="41.91076" lon="20.90929">
        <ele>522.823552</ele>
        <time>2022-02-24T05:00:24.283Z</time>
      </trkpt>
      <trkpt lat="41.9105" lon="20.90915">
        <ele>523.464747</ele>
        <time>2022-02-24T05:00:35.687Z</time>
      </trkpt>
      <trkpt lat="41.91024" lon="20.90898">
        <ele>523.969061</ele>
        <time>2022-02-24T05:00:47.688Z</time>
      </trkpt>
      <trkpt lat="41.91006" lon="20.90878">
        <ele>524.175149</ele>
        <time>2022-02-24T05:00:56.052Z</time>
      </trkpt>
      <trkpt lat="41.90997" lon="20.90872">
        <ele>524.261558</ele>
        <time>2022-02-24T05:01:00.282Z</time>
      </trkpt>
      <trkpt lat="41.90988" lon="20.90868">
        <ele>524.341565</ele>
        <time>2022-02-24T05:01:03.649Z</time>
      </trkpt>
      <trkpt lat="41.90854" lon="20.90828">
        <ele>525.3396</ele>
        <time>2022-02-24T05:01:42.046Z</time>
      </trkpt>
      <trkpt lat="41.90834" lon="20.90827">
        <ele>525.205688</ele>
        <time>2022-02-24T05:01:46.560Z</time>
      </trkpt>
      <trkpt lat="41.90827" lon="20.90827">
        <ele>525.154315</ele>
        <time>2022-02-24T05:01:48.347Z</time>
      </trkpt>
      <trkpt lat="41.90811" lon="20.90825">
        <ele>525.052636</ele>
        <time>2022-02-24T05:01:51.515Z</time>
      </trkpt>
      <trkpt lat="41.90737" lon="20.90801">
        <ele>524.543882</ele>
        <time>2022-02-24T05:02:08.857Z</time>
      </trkpt>
      <trkpt lat="41.90681" lon="20.90793">
        <ele>524.341719</ele>
        <time>2022-02-24T05:02:23.355Z</time>
      </trkpt>
      <trkpt lat="41.90654" lon="20.90791">
        <ele>524.711816</ele>
        <time>2022-02-24T05:02:30.501Z</time>
      </trkpt>
      <trkpt lat="41.90634" lon="20.9079">
        <ele>524.988751</ele>
        <time>2022-02-24T05:02:36.863Z</time>
      </trkpt>
      <trkpt lat="41.90601" lon="20.90789">
        <ele>525.43674</ele>
        <time>2022-02-24T05:02:47.275Z</time>
      </trkpt>
      <trkpt lat="41.90566" lon="20.90786">
        <ele>525.919495</ele>
        <time>2022-02-24T05:02:59.057Z</time>
      </trkpt>
      <trkpt lat="41.90418" lon="20.90761">
        <ele>529.127823</ele>
        <time>2022-02-24T05:03:58.488Z</time>
      </trkpt>
      <trkpt lat="41.90414" lon="20.90761">
        <ele>529.238738</ele>
        <time>2022-02-24T05:04:00.420Z</time>
      </trkpt>
      <trkpt lat="41.90413" lon="20.90737">
        <ele>529.707392</ele>
        <time>2022-02-24T05:04:06.696Z</time>
      </trkpt>
      <trkpt lat="41.90406" lon="20.9073">
        <ele>529.945455</ele>
        <time>2022-02-24T05:04:10.499Z</time>
      </trkpt>
      <trkpt lat="41.90396" lon="20.90716">
        <ele>530.312568</ele>
        <time>2022-02-24T05:04:16.335Z</time>
      </trkpt>
      <trkpt lat="41.90396" lon="20.90715">
        <ele>530.337716</ele>
        <time>2022-02-24T05:04:16.766Z</time>
      </trkpt>
      <trkpt lat="41.90299" lon="20.90644">
        <ele>533.726205</ele>
        <time>2022-02-24T05:05:01.530Z</time>
      </trkpt>
      <trkpt lat="41.90292" lon="20.90638">
        <ele>533.988592</ele>
        <time>2022-02-24T05:05:04.378Z</time>
      </trkpt>
      <trkpt lat="41.90284" lon="20.90639">
        <ele>534.256403</ele>
        <time>2022-02-24T05:05:07.524Z</time>
      </trkpt>
      <trkpt lat="41.90283" lon="20.90634">
        <ele>534.379282</ele>
        <time>2022-02-24T05:05:09.971Z</time>
      </trkpt>
      <trkpt lat="41.90229" lon="20.90587">
        <ele>536.513423</ele>
        <time>2022-02-24T05:05:36.923Z</time>
      </trkpt>
      <trkpt lat="41.90152" lon="20.90533">
        <ele>540.429881</ele>
        <time>2022-02-24T05:06:22.562Z</time>
      </trkpt>
      <trkpt lat="41.90141" lon="20.90524">
        <ele>541.087134</ele>
        <time>2022-02-24T05:06:29.871Z</time>
      </trkpt>
      <trkpt lat="41.90124" lon="20.90514">
        <ele>541.997565</ele>
        <time>2022-02-24T05:06:39.039Z</time>
      </trkpt>
      <trkpt lat="41.90121" lon="20.90513">
        <ele>542.160004</ele>
        <time>2022-02-24T05:06:41.136Z</time>
      </trkpt>
      <trkpt lat="41.90117" lon="20.90512">
        <ele>542.368295</ele>
        <time>2022-02-24T05:06:44.243Z</time>
      </trkpt>
      <trkpt lat="41.90111" lon="20.90513">
        <ele>542.650457</ele>
        <time>2022-02-24T05:06:47.071Z</time>
      </trkpt>
      <trkpt lat="41.90101" lon="20.90517">
        <ele>543.214771</ele>
        <time>2022-02-24T05:06:52.777Z</time>
      </trkpt>
      <trkpt lat="41.90095" lon="20.90502">
        <ele>543.824167</ele>
        <time>2022-02-24T05:06:59.061Z</time>
      </trkpt>
      <trkpt lat="41.90084" lon="20.90486">
        <ele>544.65088</ele>
        <time>2022-02-24T05:07:08.379Z</time>
      </trkpt>
      <trkpt lat="41.90032" lon="20.9045">
        <ele>547.02987</ele>
        <time>2022-02-24T05:07:37.656Z</time>
      </trkpt>
      <trkpt lat="41.90028" lon="20.90446">
        <ele>547.161476</ele>
        <time>2022-02-24T05:07:41.133Z</time>
      </trkpt>
      <trkpt lat="41.90019" lon="20.90429">
        <ele>547.557205</ele>
        <time>2022-02-24T05:07:47.752Z</time>
      </trkpt>
      <trkpt lat="41.90007" lon="20.90393">
        <ele>548.300286</ele>
        <time>2022-02-24T05:08:01.061Z</time>
      </trkpt>
      <trkpt lat="41.90004" lon="20.90385">
        <ele>548.488509</ele>
        <time>2022-02-24T05:08:04.286Z</time>
      </trkpt>
      <trkpt lat="41.89966" lon="20.9038">
        <ele>549.465973</ele>
        <time>2022-02-24T05:08:20.011Z</time>
      </trkpt>
      <trkpt lat="41.89933" lon="20.90379">
        <ele>550.298482</ele>
        <time>2022-02-24T05:08:30.648Z</time>
      </trkpt>
      <trkpt lat="41.89905" lon="20.90368">
        <ele>551.056921</ele>
        <time>2022-02-24T05:08:39.719Z</time>
      </trkpt>
      <trkpt lat="41.89886" lon="20.90359">
        <ele>550.712732</ele>
        <time>2022-02-24T05:08:45.091Z</time>
      </trkpt>
      <trkpt lat="41.89831" lon="20.90312">
        <ele>549.50409</ele>
        <time>2022-02-24T05:09:00.170Z</time>
      </trkpt>
      <trkpt lat="41.8982" lon="20.90302">
        <ele>549.261658</ele>
        <time>2022-02-24T05:09:02.946Z</time>
      </trkpt>
      <trkpt lat="41.89816" lon="20.90297">
        <ele>549.163797</ele>
        <time>2022-02-24T05:09:04.138Z</time>
      </trkpt>
      <trkpt lat="41.89811" lon="20.90292">
        <ele>549.043975</ele>
        <time>2022-02-24T05:09:05.332Z</time>
      </trkpt>
      <trkpt lat="41.89751" lon="20.90262">
        <ele>547.856655</ele>
        <time>2022-02-24T05:09:18.913Z</time>
      </trkpt>
      <trkpt lat="41.89699" lon="20.90226">
        <ele>546.644974</ele>
        <time>2022-02-24T05:09:31.302Z</time>
      </trkpt>
      <trkpt lat="41.89687" lon="20.9022">
        <ele>546.387737</ele>
        <time>2022-02-24T05:09:33.779Z</time>
      </trkpt>
      <trkpt lat="41.89657" lon="20.90209">
        <ele>545.734491</ele>
        <time>2022-02-24T05:09:40.303Z</time>
      </trkpt>
      <trkpt lat="41.89638" lon="20.90203">
        <ele>545.314799</ele>
        <time>2022-02-24T05:09:44.907Z</time>
      </trkpt>
      <trkpt lat="41.89617" lon="20.90191">
        <ele>544.843098</ele>
        <time>2022-02-24T05:09:49.814Z</time>
      </trkpt>
      <trkpt lat="41.89597" lon="20.90168">
        <ele>544.298902</ele>
        <time>2022-02-24T05:09:56.089Z</time>
      </trkpt>
      <trkpt lat="41.89562" lon="20.9017">
        <ele>544.087872</ele>
        <time>2022-02-24T05:10:04.584Z</time>
      </trkpt>
      <trkpt lat="41.89519" lon="20.90161">
        <ele>544.310557</ele>
        <time>2022-02-24T05:10:16.271Z</time>
      </trkpt>
      <trkpt lat="41.89454" lon="20.90133">
        <ele>544.660932</ele>
        <time>2022-02-24T05:10:39.074Z</time>
      </trkpt>
      <trkpt lat="41.89417" lon="20.9011">
        <ele>544.868402</ele>
        <time>2022-02-24T05:10:52.778Z</time>
      </trkpt>
      <trkpt lat="41.89348" lon="20.90084">
        <ele>545.75413</ele>
        <time>2022-02-24T05:11:18.258Z</time>
      </trkpt>
      <trkpt lat="41.89211" lon="20.89975">
        <ele>547.525426</ele>
        <time>2022-02-24T05:12:11.981Z</time>
      </trkpt>
      <trkpt lat="41.89184" lon="20.89953">
        <ele>547.706024</ele>
        <time>2022-02-24T05:12:20.715Z</time>
      </trkpt>
      <trkpt lat="41.89161" lon="20.89946">
        <ele>547.840352</ele>
        <time>2022-02-24T05:12:27.585Z</time>
      </trkpt>
      <trkpt lat="41.89158" lon="20.89966">
        <ele>547.929282</ele>
        <time>2022-02-24T05:12:31.590Z</time>
      </trkpt>
      <trkpt lat="41.8915" lon="20.89999">
        <ele>548.077246</ele>
        <time>2022-02-24T05:12:39.482Z</time>
      </trkpt>
      <trkpt lat="41.89138" lon="20.90024">
        <ele>548.201655</ele>
        <time>2022-02-24T05:12:46.192Z</time>
      </trkpt>
      <trkpt lat="41.89112" lon="20.90076">
        <ele>548.851834</ele>
        <time>2022-02-24T05:13:00.838Z</time>
      </trkpt>
      <trkpt lat="41.89078" lon="20.90048">
        <ele>549.58762</ele>
        <time>2022-02-24T05:13:12.539Z</time>
      </trkpt>
      <trkpt lat="41.89012" lon="20.8999">
        <ele>551.050694</ele>
        <time>2022-02-24T05:13:41.566Z</time>
      </trkpt>
      <trkpt lat="41.88935" lon="20.89923">
        <ele>553.663911</ele>
        <time>2022-02-24T05:14:21.351Z</time>
      </trkpt>
      <trkpt lat="41.88922" lon="20.89911">
        <ele>554.191928</ele>
        <time>2022-02-24T05:14:28.796Z</time>
      </trkpt>
      <trkpt lat="41.88899" lon="20.89891">
        <ele>555.113101</ele>
        <time>2022-02-24T05:14:40.217Z</time>
      </trkpt>
      <trkpt lat="41.88868" lon="20.89864">
        <ele>556.388176</ele>
        <time>2022-02-24T05:14:56.062Z</time>
      </trkpt>
      <trkpt lat="41.88823" lon="20.89822">
        <ele>558.147499</ele>
        <time>2022-02-24T05:15:20.530Z</time>
      </trkpt>
      <trkpt lat="41.8877" lon="20.89711">
        <ele>560.87711</ele>
        <time>2022-02-24T05:16:00.949Z</time>
      </trkpt>
      <trkpt lat="41.88762" lon="20.89693">
        <ele>561.305389</ele>
        <time>2022-02-24T05:16:07.242Z</time>
      </trkpt>
      <trkpt lat="41.88757" lon="20.89675">
        <ele>561.704464</ele>
        <time>2022-02-24T05:16:12.566Z</time>
      </trkpt>
      <trkpt lat="41.88691" lon="20.89577">
        <ele>563.018729</ele>
        <time>2022-02-24T05:16:48.055Z</time>
      </trkpt>
      <trkpt lat="41.88642" lon="20.89547">
        <ele>563.273464</ele>
        <time>2022-02-24T05:17:04.030Z</time>
      </trkpt>
      <trkpt lat="41.88624" lon="20.89533">
        <ele>563.372505</ele>
        <time>2022-02-24T05:17:09.076Z</time>
      </trkpt>
      <trkpt lat="41.88595" lon="20.89532">
        <ele>563.512092</ele>
        <time>2022-02-24T05:17:16.084Z</time>
      </trkpt>
      <trkpt lat="41.88582" lon="20.89529">
        <ele>563.578564</ele>
        <time>2022-02-24T05:17:19.368Z</time>
      </trkpt>
      <trkpt lat="41.88518" lon="20.89498">
        <ele>562.208867</ele>
        <time>2022-02-24T05:17:34.556Z</time>
      </trkpt>
      <trkpt lat="41.88492" lon="20.89483">
        <ele>561.608765</ele>
        <time>2022-02-24T05:17:40.827Z</time>
      </trkpt>
      <trkpt lat="41.88455" lon="20.89475">
        <ele>560.841411</ele>
        <time>2022-02-24T05:17:48.743Z</time>
      </trkpt>
      <trkpt lat="41.88399" lon="20.89462">
        <ele>559.700729</ele>
        <time>2022-02-24T05:18:00.957Z</time>
      </trkpt>
      <trkpt lat="41.8834" lon="20.89452">
        <ele>558.793284</ele>
        <time>2022-02-24T05:18:13.627Z</time>
      </trkpt>
      <trkpt lat="41.88209" lon="20.89454">
        <ele>557.232854</ele>
        <time>2022-02-24T05:18:45.144Z</time>
      </trkpt>
      <trkpt lat="41.88193" lon="20.8945">
        <ele>557.341611</ele>
        <time>2022-02-24T05:18:49.434Z</time>
      </trkpt>
      <trkpt lat="41.88145" lon="20.89437">
        <ele>557.684315</ele>
        <time>2022-02-24T05:19:04.829Z</time>
      </trkpt>
      <trkpt lat="41.88092" lon="20.89399">
        <ele>558.098061</ele>
        <time>2022-02-24T05:19:24.539Z</time>
      </trkpt>
      <trkpt lat="41.88037" lon="20.89342">
        <ele>558.991748</ele>
        <time>2022-02-24T05:19:49.947Z</time>
      </trkpt>
      <trkpt lat="41.8801" lon="20.89305">
        <ele>559.719584</ele>
        <time>2022-02-24T05:20:04.706Z</time>
      </trkpt>
      <trkpt lat="41.87974" lon="20.89256">
        <ele>560.671317</ele>
        <time>2022-02-24T05:20:23.929Z</time>
      </trkpt>
      <trkpt lat="41.87935" lon="20.89222">
        <ele>561.539165</ele>
        <time>2022-02-24T05:20:41.317Z</time>
      </trkpt>
      <trkpt lat="41.87884" lon="20.89183">
        <ele>562.035663</ele>
        <time>2022-02-24T05:21:01.847Z</time>
      </trkpt>
      <trkpt lat="41.87791" lon="20.89122">
        <ele>562.715052</ele>
        <time>2022-02-24T05:21:32.770Z</time>
      </trkpt>
      <trkpt lat="41.87756" lon="20.89102">
        <ele>562.843499</ele>
        <time>2022-02-24T05:21:42.801Z</time>
      </trkpt>
      <trkpt lat="41.87719" lon="20.8908">
        <ele>562.673944</ele>
        <time>2022-02-24T05:21:53.491Z</time>
      </trkpt>
      <trkpt lat="41.87673" lon="20.89047">
        <ele>562.459007</ele>
        <time>2022-02-24T05:22:07.109Z</time>
      </trkpt>
      <trkpt lat="41.87666" lon="20.89042">
        <ele>562.425041</ele>
        <time>2022-02-24T05:22:09.188Z</time>
      </trkpt>
      <trkpt lat="41.87629" lon="20.8902">
        <ele>562.260922</ele>
        <time>2022-02-24T05:22:19.072Z</time>
      </trkpt>
      <trkpt lat="41.87617" lon="20.89016">
        <ele>562.208344</ele>
        <time>2022-02-24T05:22:22.242Z</time>
      </trkpt>
      <trkpt lat="41.87605" lon="20.89014">
        <ele>562.157872</ele>
        <time>2022-02-24T05:22:25.450Z</time>
      </trkpt>
      <trkpt lat="41.8754" lon="20.89002">
        <ele>561.999241</ele>
        <time>2022-02-24T05:22:42.863Z</time>
      </trkpt>
      <trkpt lat="41.87535" lon="20.89001">
        <ele>561.987508</ele>
        <time>2022-02-24T05:22:44.254Z</time>
      </trkpt>
      <trkpt lat="41.87522" lon="20.88998">
        <ele>561.958299</ele>
        <time>2022-02-24T05:22:47.639Z</time>
      </trkpt>
      <trkpt lat="41.87512" lon="20.88993">
        <ele>561.932048</ele>
        <time>2022-02-24T05:22:50.731Z</time>
      </trkpt>
      <trkpt lat="41.87489" lon="20.89003">
        <ele>561.877855</ele>
        <time>2022-02-24T05:22:57.168Z</time>
      </trkpt>
      <trkpt lat="41.87365" lon="20.89044">
        <ele>561.3975</ele>
        <time>2022-02-24T05:23:29.949Z</time>
      </trkpt>
      <trkpt lat="41.87308" lon="20.89047">
        <ele>561.101305</ele>
        <time>2022-02-24T05:23:43.752Z</time>
      </trkpt>
      <trkpt lat="41.87285" lon="20.89043">
        <ele>560.978856</ele>
        <time>2022-02-24T05:23:49.378Z</time>
      </trkpt>
      <trkpt lat="41.87244" lon="20.89036">
        <ele>560.757398</ele>
        <time>2022-02-24T05:23:59.245Z</time>
      </trkpt>
      <trkpt lat="41.87167" lon="20.89033">
        <ele>560.236584</ele>
        <time>2022-02-24T05:24:17.718Z</time>
      </trkpt>
      <trkpt lat="41.87143" lon="20.89039">
        <ele>560.069914</ele>
        <time>2022-02-24T05:24:23.585Z</time>
      </trkpt>
      <trkpt lat="41.87129" lon="20.89043">
        <ele>559.970008</ele>
        <time>2022-02-24T05:24:27.149Z</time>
      </trkpt>
      <trkpt lat="41.87038" lon="20.89069">
        <ele>559.341949</ele>
        <time>2022-02-24T05:24:49.582Z</time>
      </trkpt>
      <trkpt lat="41.86929" lon="20.89108">
        <ele>558.566782</ele>
        <time>2022-02-24T05:25:16.929Z</time>
      </trkpt>
      <trkpt lat="41.86871" lon="20.89128">
        <ele>557.996564</ele>
        <time>2022-02-24T05:25:31.212Z</time>
      </trkpt>
      <trkpt lat="41.86833" lon="20.89141">
        <ele>557.504416</ele>
        <time>2022-02-24T05:25:40.216Z</time>
      </trkpt>
      <trkpt lat="41.86807" lon="20.89151">
        <ele>557.157365</ele>
        <time>2022-02-24T05:25:46.376Z</time>
      </trkpt>
      <trkpt lat="41.86771" lon="20.89166">
        <ele>556.67272</ele>
        <time>2022-02-24T05:25:54.635Z</time>
      </trkpt>
      <trkpt lat="41.86706" lon="20.89178">
        <ele>555.801934</ele>
        <time>2022-02-24T05:26:08.947Z</time>
      </trkpt>
      <trkpt lat="41.86696" lon="20.89177">
        <ele>555.645859</ele>
        <time>2022-02-24T05:26:11.115Z</time>
      </trkpt>
      <trkpt lat="41.86686" lon="20.89173">
        <ele>555.500595</ele>
        <time>2022-02-24T05:26:13.242Z</time>
      </trkpt>
      <trkpt lat="41.86673" lon="20.89168">
        <ele>555.29031</ele>
        <time>2022-02-24T05:26:16.312Z</time>
      </trkpt>
      <trkpt lat="41.86659" lon="20.89164">
        <ele>555.077386</ele>
        <time>2022-02-24T05:26:19.269Z</time>
      </trkpt>
      <trkpt lat="41.86627" lon="20.89154">
        <ele>554.594785</ele>
        <time>2022-02-24T05:26:26.141Z</time>
      </trkpt>
      <trkpt lat="41.86559" lon="20.89134">
        <ele>553.556377</ele>
        <time>2022-02-24T05:26:41.625Z</time>
      </trkpt>
      <trkpt lat="41.86495" lon="20.89119">
        <ele>553.632611</ele>
        <time>2022-02-24T05:26:57.316Z</time>
      </trkpt>
      <trkpt lat="41.86431" lon="20.891">
        <ele>553.960121</ele>
        <time>2022-02-24T05:27:16.318Z</time>
      </trkpt>
      <trkpt lat="41.86317" lon="20.89081">
        <ele>555.366233</ele>
        <time>2022-02-24T05:27:56.090Z</time>
      </trkpt>
      <trkpt lat="41.86286" lon="20.89076">
        <ele>556.014193</ele>
        <time>2022-02-24T05:28:07.823Z</time>
      </trkpt>
      <trkpt lat="41.86242" lon="20.89069">
        <ele>556.942178</ele>
        <time>2022-02-24T05:28:24.700Z</time>
      </trkpt>
      <trkpt lat="41.86132" lon="20.89054">
        <ele>558.809131</ele>
        <time>2022-02-24T05:29:06.603Z</time>
      </trkpt>
      <trkpt lat="41.86109" lon="20.8905">
        <ele>559.131154</ele>
        <time>2022-02-24T05:29:15.086Z</time>
      </trkpt>
      <trkpt lat="41.86023" lon="20.89042">
        <ele>560.312895</ele>
        <time>2022-02-24T05:29:42.499Z</time>
      </trkpt>
      <trkpt lat="41.85989" lon="20.89036">
        <ele>560.071495</ele>
        <time>2022-02-24T05:29:51.092Z</time>
      </trkpt>
      <trkpt lat="41.85924" lon="20.89023">
        <ele>558.954955</ele>
        <time>2022-02-24T05:30:06.472Z</time>
      </trkpt>
      <trkpt lat="41.85924" lon="20.89032">
        <ele>558.833977</ele>
        <time>2022-02-24T05:30:08.066Z</time>
      </trkpt>
      <trkpt lat="41.85883" lon="20.89073">
        <ele>557.971102</ele>
        <time>2022-02-24T05:30:18.865Z</time>
      </trkpt>
      <trkpt lat="41.85842" lon="20.89091">
        <ele>557.04611</ele>
        <time>2022-02-24T05:30:27.902Z</time>
      </trkpt>
      <trkpt lat="41.85794" lon="20.89103">
        <ele>555.350493</ele>
        <time>2022-02-24T05:30:37.558Z</time>
      </trkpt>
      <trkpt lat="41.85774" lon="20.89103">
        <ele>554.645799</ele>
        <time>2022-02-24T05:30:41.565Z</time>
      </trkpt>
      <trkpt lat="41.85749" lon="20.8911">
        <ele>553.784087</ele>
        <time>2022-02-24T05:30:46.383Z</time>
      </trkpt>
      <trkpt lat="41.857" lon="20.89122">
        <ele>552.041569</ele>
        <time>2022-02-24T05:30:56.620Z</time>
      </trkpt>
      <trkpt lat="41.85689" lon="20.89124">
        <ele>551.642176</ele>
        <time>2022-02-24T05:30:58.865Z</time>
      </trkpt>
      <trkpt lat="41.85684" lon="20.89123">
        <ele>551.476955</ele>
        <time>2022-02-24T05:30:59.802Z</time>
      </trkpt>
      <trkpt lat="41.85667" lon="20.8912">
        <ele>550.964716</ele>
        <time>2022-02-24T05:31:03.462Z</time>
      </trkpt>
      <trkpt lat="41.85635" lon="20.89118">
        <ele>550.210565</ele>
        <time>2022-02-24T05:31:09.976Z</time>
      </trkpt>
      <trkpt lat="41.85615" lon="20.89117">
        <ele>549.721238</ele>
        <time>2022-02-24T05:31:14.163Z</time>
      </trkpt>
      <trkpt lat="41.85593" lon="20.89118">
        <ele>549.198589</ele>
        <time>2022-02-24T05:31:19.155Z</time>
      </trkpt>
      <trkpt lat="41.8549" lon="20.89146">
        <ele>546.820695</ele>
        <time>2022-02-24T05:31:42.350Z</time>
      </trkpt>
      <trkpt lat="41.85417" lon="20.89154">
        <ele>546.087912</ele>
        <time>2022-02-24T05:31:59.663Z</time>
      </trkpt>
      <trkpt lat="41.85381" lon="20.89148">
        <ele>545.722079</ele>
        <time>2022-02-24T05:32:08.695Z</time>
      </trkpt>
      <trkpt lat="41.8535" lon="20.89139">
        <ele>545.408567</ele>
        <time>2022-02-24T05:32:16.545Z</time>
      </trkpt>
      <trkpt lat="41.85259" lon="20.89123">
        <ele>544.547446</ele>
        <time>2022-02-24T05:32:40.167Z</time>
      </trkpt>
      <trkpt lat="41.85173" lon="20.89114">
        <ele>543.76332</ele>
        <time>2022-02-24T05:33:01.184Z</time>
      </trkpt>
      <trkpt lat="41.85154" lon="20.89109">
        <ele>543.587137</ele>
        <time>2022-02-24T05:33:05.908Z</time>
      </trkpt>
      <trkpt lat="41.85084" lon="20.89101">
        <ele>542.727687</ele>
        <time>2022-02-24T05:33:22.177Z</time>
      </trkpt>
      <trkpt lat="41.85074" lon="20.891">
        <ele>542.589869</ele>
        <time>2022-02-24T05:33:24.608Z</time>
      </trkpt>
      <trkpt lat="41.85063" lon="20.89098">
        <ele>542.44005</ele>
        <time>2022-02-24T05:33:27.150Z</time>
      </trkpt>
      <trkpt lat="41.84973" lon="20.89067">
        <ele>541.225233</ele>
        <time>2022-02-24T05:33:48.352Z</time>
      </trkpt>
      <trkpt lat="41.84816" lon="20.89074">
        <ele>540.419175</ele>
        <time>2022-02-24T05:34:28.410Z</time>
      </trkpt>
      <trkpt lat="41.84792" lon="20.89067">
        <ele>540.307942</ele>
        <time>2022-02-24T05:34:35.401Z</time>
      </trkpt>
      <trkpt lat="41.84754" lon="20.89044">
        <ele>540.570678</ele>
        <time>2022-02-24T05:34:47.934Z</time>
      </trkpt>
      <trkpt lat="41.84717" lon="20.89025">
        <ele>540.922832</ele>
        <time>2022-02-24T05:35:00.450Z</time>
      </trkpt>
      <trkpt lat="41.84664" lon="20.89002">
        <ele>541.41309</ele>
        <time>2022-02-24T05:35:18.530Z</time>
      </trkpt>
      <trkpt lat="41.84657" lon="20.88999">
        <ele>541.474715</ele>
        <time>2022-02-24T05:35:20.972Z</time>
      </trkpt>
      <trkpt lat="41.8462" lon="20.88984">
        <ele>541.821966</ele>
        <time>2022-02-24T05:35:34.510Z</time>
      </trkpt>
      <trkpt lat="41.84533" lon="20.88973">
        <ele>543.00101</ele>
        <time>2022-02-24T05:36:04.272Z</time>
      </trkpt>
      <trkpt lat="41.84339" lon="20.88979">
        <ele>545.936862</ele>
        <time>2022-02-24T05:37:11.630Z</time>
      </trkpt>
      <trkpt lat="41.84199" lon="20.88942">
        <ele>548.706358</ele>
        <time>2022-02-24T05:38:04.345Z</time>
      </trkpt>
      <trkpt lat="41.84182" lon="20.88936">
        <ele>549.130605</ele>
        <time>2022-02-24T05:38:11.529Z</time>
      </trkpt>
      <trkpt lat="41.84178" lon="20.88942">
        <ele>549.258307</ele>
        <time>2022-02-24T05:38:13.350Z</time>
      </trkpt>
      <trkpt lat="41.84174" lon="20.88947">
        <ele>549.399329</ele>
        <time>2022-02-24T05:38:15.365Z</time>
      </trkpt>
      <trkpt lat="41.84151" lon="20.88945">
        <ele>549.953549</ele>
        <time>2022-02-24T05:38:24.557Z</time>
      </trkpt>
      <trkpt lat="41.8411" lon="20.88942">
        <ele>550.913935</ele>
        <time>2022-02-24T05:38:40.373Z</time>
      </trkpt>
      <trkpt lat="41.84003" lon="20.88906">
        <ele>553.911063</ele>
        <time>2022-02-24T05:39:25.839Z</time>
      </trkpt>
      <trkpt lat="41.83988" lon="20.88899">
        <ele>554.349986</ele>
        <time>2022-02-24T05:39:32.564Z</time>
      </trkpt>
      <trkpt lat="41.83976" lon="20.88894">
        <ele>554.697415</ele>
        <time>2022-02-24T05:39:37.438Z</time>
      </trkpt>
      <trkpt lat="41.83959" lon="20.8889">
        <ele>555.174741</ele>
        <time>2022-02-24T05:39:44.253Z</time>
      </trkpt>
      <trkpt lat="41.83937" lon="20.88881">
        <ele>555.830333</ele>
        <time>2022-02-24T05:39:53.570Z</time>
      </trkpt>
      <trkpt lat="41.83914" lon="20.88857">
        <ele>556.623394</ele>
        <time>2022-02-24T05:40:04.836Z</time>
      </trkpt>
      <trkpt lat="41.83901" lon="20.88837">
        <ele>556.965669</ele>
        <time>2022-02-24T05:40:12.264Z</time>
      </trkpt>
      <trkpt lat="41.83889" lon="20.88819">
        <ele>557.285848</ele>
        <time>2022-02-24T05:40:19.136Z</time>
      </trkpt>
      <trkpt lat="41.83852" lon="20.88812">
        <ele>557.931179</ele>
        <time>2022-02-24T05:40:33.070Z</time>
      </trkpt>
      <trkpt lat="41.83848" lon="20.88814">
        <ele>558.010233</ele>
        <time>2022-02-24T05:40:34.750Z</time>
      </trkpt>
      <trkpt lat="41.83676" lon="20.88837">
        <ele>560.377806</ele>
        <time>2022-02-24T05:41:33.792Z</time>
      </trkpt>
      <trkpt lat="41.83655" lon="20.88834">
        <ele>560.556198</ele>
        <time>2022-02-24T05:41:39.811Z</time>
      </trkpt>
      <trkpt lat="41.83652" lon="20.88834">
        <ele>560.584086</ele>
        <time>2022-02-24T05:41:41.258Z</time>
      </trkpt>
      <trkpt lat="41.83621" lon="20.88825">
        <ele>560.852331</ele>
        <time>2022-02-24T05:41:50.547Z</time>
      </trkpt>
      <trkpt lat="41.8359" lon="20.88802">
        <ele>561.146976</ele>
        <time>2022-02-24T05:42:01.129Z</time>
      </trkpt>
      <trkpt lat="41.83577" lon="20.88791">
        <ele>561.275209</ele>
        <time>2022-02-24T05:42:06.332Z</time>
      </trkpt>
      <trkpt lat="41.8355" lon="20.88781">
        <ele>561.324019</ele>
        <time>2022-02-24T05:42:14.632Z</time>
      </trkpt>
      <trkpt lat="41.8354" lon="20.88781">
        <ele>561.342387</ele>
        <time>2022-02-24T05:42:17.771Z</time>
      </trkpt>
      <trkpt lat="41.83526" lon="20.88785">
        <ele>561.367696</ele>
        <time>2022-02-24T05:42:21.645Z</time>
      </trkpt>
      <trkpt lat="41.83455" lon="20.88806">
        <ele>561.493953</ele>
        <time>2022-02-24T05:42:42.487Z</time>
      </trkpt>
      <trkpt lat="41.83416" lon="20.88832">
        <ele>561.570697</ele>
        <time>2022-02-24T05:42:54.839Z</time>
      </trkpt>
      <trkpt lat="41.83392" lon="20.88837">
        <ele>561.612392</ele>
        <time>2022-02-24T05:43:01.183Z</time>
      </trkpt>
      <trkpt lat="41.83345" lon="20.88834">
        <ele>561.692692</ele>
        <time>2022-02-24T05:43:13.877Z</time>
      </trkpt>
      <trkpt lat="41.83295" lon="20.88824">
        <ele>561.780369</ele>
        <time>2022-02-24T05:43:28.186Z</time>
      </trkpt>
      <trkpt lat="41.83276" lon="20.88813">
        <ele>561.816709</ele>
        <time>2022-02-24T05:43:34.313Z</time>
      </trkpt>
      <trkpt lat="41.83232" lon="20.88802">
        <ele>561.893045</ele>
        <time>2022-02-24T05:43:47.373Z</time>
      </trkpt>
      <trkpt lat="41.83161" lon="20.88786">
        <ele>562.503828</ele>
        <time>2022-02-24T05:44:09.824Z</time>
      </trkpt>
      <trkpt lat="41.83084" lon="20.88784">
        <ele>563.178661</ele>
        <time>2022-02-24T05:44:34.996Z</time>
      </trkpt>
      <trkpt lat="41.83004" lon="20.88769">
        <ele>563.680837</ele>
        <time>2022-02-24T05:45:01.895Z</time>
      </trkpt>
      <trkpt lat="41.82964" lon="20.88763">
        <ele>563.853304</ele>
        <time>2022-02-24T05:45:15.058Z</time>
      </trkpt>
      <trkpt lat="41.82934" lon="20.88771">
        <ele>563.980987</ele>
        <time>2022-02-24T05:45:23.693Z</time>
      </trkpt>
      <trkpt lat="41.82825" lon="20.88815">
        <ele>563.838628</ele>
        <time>2022-02-24T05:45:54.170Z</time>
      </trkpt>
      <trkpt lat="41.82814" lon="20.88816">
        <ele>563.748086</ele>
        <time>2022-02-24T05:45:56.917Z</time>
      </trkpt>
      <trkpt lat="41.82812" lon="20.8881">
        <ele>563.709213</ele>
        <time>2022-02-24T05:45:58.179Z</time>
      </trkpt>
      <trkpt lat="41.82805" lon="20.88812">
        <ele>563.655953</ele>
        <time>2022-02-24T05:45:59.572Z</time>
      </trkpt>
      <trkpt lat="41.82787" lon="20.88819">
        <ele>563.501994</ele>
        <time>2022-02-24T05:46:04.319Z</time>
      </trkpt>
      <trkpt lat="41.82663" lon="20.88832">
        <ele>562.609093</ele>
        <time>2022-02-24T05:46:33.784Z</time>
      </trkpt>
      <trkpt lat="41.82589" lon="20.88845">
        <ele>562.229701</ele>
        <time>2022-02-24T05:46:52.862Z</time>
      </trkpt>
      <trkpt lat="41.82546" lon="20.88848">
        <ele>562.006174</ele>
        <time>2022-02-24T05:47:04.610Z</time>
      </trkpt>
      <trkpt lat="41.82457" lon="20.88839">
        <ele>562.14067</ele>
        <time>2022-02-24T05:47:29.628Z</time>
      </trkpt>
      <trkpt lat="41.82373" lon="20.88852">
        <ele>562.492063</ele>
        <time>2022-02-24T05:47:55.483Z</time>
      </trkpt>
      <trkpt lat="41.82367" lon="20.88852">
        <ele>562.515935</ele>
        <time>2022-02-24T05:47:57.474Z</time>
      </trkpt>
      <trkpt lat="41.82354" lon="20.88857">
        <ele>562.571594</ele>
        <time>2022-02-24T05:48:01.637Z</time>
      </trkpt>
      <trkpt lat="41.82321" lon="20.88864">
        <ele>562.804947</ele>
        <time>2022-02-24T05:48:12.316Z</time>
      </trkpt>
      <trkpt lat="41.82289" lon="20.88863">
        <ele>563.069617</ele>
        <time>2022-02-24T05:48:22.371Z</time>
      </trkpt>
      <trkpt lat="41.82288" lon="20.88863">
        <ele>563.082356</ele>
        <time>2022-02-24T05:48:22.819Z</time>
      </trkpt>
      <trkpt lat="41.82274" lon="20.88865">
        <ele>563.204126</ele>
        <time>2022-02-24T05:48:27.423Z</time>
      </trkpt>
      <trkpt lat="41.82257" lon="20.88863">
        <ele>563.344402</ele>
        <time>2022-02-24T05:48:32.837Z</time>
      </trkpt>
      <trkpt lat="41.8225" lon="20.88863">
        <ele>563.402205</ele>
        <time>2022-02-24T05:48:34.921Z</time>
      </trkpt>
      <trkpt lat="41.82229" lon="20.88861">
        <ele>563.580734</ele>
        <time>2022-02-24T05:48:41.615Z</time>
      </trkpt>
      <trkpt lat="41.82222" lon="20.8886">
        <ele>563.643658</ele>
        <time>2022-02-24T05:48:44.119Z</time>
      </trkpt>
      <trkpt lat="41.82197" lon="20.88856">
        <ele>563.858973</ele>
        <time>2022-02-24T05:48:52.104Z</time>
      </trkpt>
      <trkpt lat="41.82176" lon="20.88853">
        <ele>564.033262</ele>
        <time>2022-02-24T05:48:58.562Z</time>
      </trkpt>
      <trkpt lat="41.82173" lon="20.88852">
        <ele>564.060588</ele>
        <time>2022-02-24T05:48:59.640Z</time>
      </trkpt>
      <trkpt lat="41.82164" lon="20.88848">
        <ele>564.14524</ele>
        <time>2022-02-24T05:49:02.842Z</time>
      </trkpt>
      <trkpt lat="41.8215" lon="20.88843">
        <ele>564.249753</ele>
        <time>2022-02-24T05:49:07.454Z</time>
      </trkpt>
      <trkpt lat="41.82026" lon="20.88766">
        <ele>565.24221</ele>
        <time>2022-02-24T05:49:50.990Z</time>
      </trkpt>
      <trkpt lat="41.8199" lon="20.88751">
        <ele>565.497015</ele>
        <time>2022-02-24T05:50:02.571Z</time>
      </trkpt>
      <trkpt lat="41.81988" lon="20.8874">
        <ele>565.532062</ele>
        <time>2022-02-24T05:50:04.862Z</time>
      </trkpt>
      <trkpt lat="41.81981" lon="20.88742">
        <ele>565.564319</ele>
        <time>2022-02-24T05:50:06.854Z</time>
      </trkpt>
      <trkpt lat="41.81959" lon="20.88744">
        <ele>565.6675</ele>
        <time>2022-02-24T05:50:12.671Z</time>
      </trkpt>
      <trkpt lat="41.81956" lon="20.88744">
        <ele>565.682677</ele>
        <time>2022-02-24T05:50:13.565Z</time>
      </trkpt>
      <trkpt lat="41.81939" lon="20.88745">
        <ele>565.758639</ele>
        <time>2022-02-24T05:50:17.918Z</time>
      </trkpt>
      <trkpt lat="41.81937" lon="20.88745">
        <ele>565.770139</ele>
        <time>2022-02-24T05:50:18.637Z</time>
      </trkpt>
      <trkpt lat="41.81925" lon="20.88747">
        <ele>565.825242</ele>
        <time>2022-02-24T05:50:22.004Z</time>
      </trkpt>
      <trkpt lat="41.81915" lon="20.8875">
        <ele>565.869823</ele>
        <time>2022-02-24T05:50:24.852Z</time>
      </trkpt>
      <trkpt lat="41.8191" lon="20.88751">
        <ele>565.894516</ele>
        <time>2022-02-24T05:50:26.365Z</time>
      </trkpt>
      <trkpt lat="41.81884" lon="20.88761">
        <ele>566.018684</ele>
        <time>2022-02-24T05:50:34.518Z</time>
      </trkpt>
      <trkpt lat="41.81864" lon="20.88768">
        <ele>566.112921</ele>
        <time>2022-02-24T05:50:40.633Z</time>
      </trkpt>
      <trkpt lat="41.8185" lon="20.88772">
        <ele>566.180919</ele>
        <time>2022-02-24T05:50:45.033Z</time>
      </trkpt>
      <trkpt lat="41.81846" lon="20.88773">
        <ele>566.20008</ele>
        <time>2022-02-24T05:50:46.147Z</time>
      </trkpt>
      <trkpt lat="41.81839" lon="20.88774">
        <ele>566.231824</ele>
        <time>2022-02-24T05:50:48.146Z</time>
      </trkpt>
      <trkpt lat="41.81825" lon="20.88778">
        <ele>566.297488</ele>
        <time>2022-02-24T05:50:52.258Z</time>
      </trkpt>
      <trkpt lat="41.81803" lon="20.88788">
        <ele>566.429445</ele>
        <time>2022-02-24T05:50:59.139Z</time>
      </trkpt>
      <trkpt lat="41.81801" lon="20.88789">
        <ele>566.438172</ele>
        <time>2022-02-24T05:50:59.624Z</time>
      </trkpt>
      <trkpt lat="41.81792" lon="20.88775">
        <ele>566.514807</ele>
        <time>2022-02-24T05:51:03.907Z</time>
      </trkpt>
      <trkpt lat="41.81789" lon="20.88765">
        <ele>566.558172</ele>
        <time>2022-02-24T05:51:06.367Z</time>
      </trkpt>
      <trkpt lat="41.81785" lon="20.88767">
        <ele>566.58058</ele>
        <time>2022-02-24T05:51:07.461Z</time>
      </trkpt>
      <trkpt lat="41.81781" lon="20.88767">
        <ele>566.603113</ele>
        <time>2022-02-24T05:51:08.569Z</time>
      </trkpt>
      <trkpt lat="41.81771" lon="20.88768">
        <ele>566.655872</ele>
        <time>2022-02-24T05:51:11.761Z</time>
      </trkpt>
      <trkpt lat="41.81722" lon="20.8875">
        <ele>566.934292</ele>
        <time>2022-02-24T05:51:26.946Z</time>
      </trkpt>
      <trkpt lat="41.8162" lon="20.88689">
        <ele>567.702015</ele>
        <time>2022-02-24T05:52:01.502Z</time>
      </trkpt>
      <trkpt lat="41.81619" lon="20.88688">
        <ele>567.713912</ele>
        <time>2022-02-24T05:52:01.976Z</time>
      </trkpt>
      <trkpt lat="41.81603" lon="20.88679">
        <ele>567.861017</ele>
        <time>2022-02-24T05:52:06.912Z</time>
      </trkpt>
      <trkpt lat="41.81568" lon="20.8866">
        <ele>568.180046</ele>
        <time>2022-02-24T05:52:18.532Z</time>
      </trkpt>
      <trkpt lat="41.81562" lon="20.88656">
        <ele>568.235432</ele>
        <time>2022-02-24T05:52:20.449Z</time>
      </trkpt>
      <trkpt lat="41.81553" lon="20.88646">
        <ele>568.338941</ele>
        <time>2022-02-24T05:52:24.787Z</time>
      </trkpt>
      <trkpt lat="41.81544" lon="20.88638">
        <ele>568.42512</ele>
        <time>2022-02-24T05:52:27.851Z</time>
      </trkpt>
      <trkpt lat="41.81479" lon="20.88583">
        <ele>569.20765</ele>
        <time>2022-02-24T05:52:54.176Z</time>
      </trkpt>
      <trkpt lat="41.8147" lon="20.88577">
        <ele>569.323408</ele>
        <time>2022-02-24T05:52:57.438Z</time>
      </trkpt>
      <trkpt lat="41.81463" lon="20.88573">
        <ele>569.422231</ele>
        <time>2022-02-24T05:53:00.663Z</time>
      </trkpt>
      <trkpt lat="41.8142" lon="20.88552">
        <ele>569.988939</ele>
        <time>2022-02-24T05:53:16.203Z</time>
      </trkpt>
      <trkpt lat="41.814" lon="20.8855">
        <ele>570.225223</ele>
        <time>2022-02-24T05:53:22.828Z</time>
      </trkpt>
      <trkpt lat="41.81391" lon="20.88551">
        <ele>570.335378</ele>
        <time>2022-02-24T05:53:26.115Z</time>
      </trkpt>
      <trkpt lat="41.81379" lon="20.88557">
        <ele>570.491058</ele>
        <time>2022-02-24T05:53:30.044Z</time>
      </trkpt>
      <trkpt lat="41.81378" lon="20.88563">
        <ele>570.54583</ele>
        <time>2022-02-24T05:53:31.369Z</time>
      </trkpt>
      <trkpt lat="41.81373" lon="20.8856">
        <ele>570.615626</ele>
        <time>2022-02-24T05:53:33.284Z</time>
      </trkpt>
      <trkpt lat="41.81356" lon="20.88561">
        <ele>570.816932</ele>
        <time>2022-02-24T05:53:38.864Z</time>
      </trkpt>
      <trkpt lat="41.81309" lon="20.88558">
        <ele>571.186568</ele>
        <time>2022-02-24T05:53:54.295Z</time>
      </trkpt>
      <trkpt lat="41.81284" lon="20.88558">
        <ele>571.332244</ele>
        <time>2022-02-24T05:54:02.113Z</time>
      </trkpt>
      <trkpt lat="41.81271" lon="20.88556">
        <ele>571.413056</ele>
        <time>2022-02-24T05:54:06.473Z</time>
      </trkpt>
      <trkpt lat="41.81244" lon="20.88552">
        <ele>571.570046</ele>
        <time>2022-02-24T05:54:14.631Z</time>
      </trkpt>
      <trkpt lat="41.81223" lon="20.88553">
        <ele>571.693054</ele>
        <time>2022-02-24T05:54:20.734Z</time>
      </trkpt>
      <trkpt lat="41.81206" lon="20.88554">
        <ele>571.792715</ele>
        <time>2022-02-24T05:54:25.313Z</time>
      </trkpt>
      <trkpt lat="41.81196" lon="20.88556">
        <ele>571.849309</ele>
        <time>2022-02-24T05:54:28.266Z</time>
      </trkpt>
      <trkpt lat="41.81053" lon="20.88524">
        <ele>572.673569</ele>
        <time>2022-02-24T05:55:11.348Z</time>
      </trkpt>
      <trkpt lat="41.81012" lon="20.88509">
        <ele>572.914284</ele>
        <time>2022-02-24T05:55:24.935Z</time>
      </trkpt>
      <trkpt lat="41.81008" lon="20.88507">
        <ele>572.938698</ele>
        <time>2022-02-24T05:55:26.512Z</time>
      </trkpt>
      <trkpt lat="41.80982" lon="20.88496">
        <ele>573.096532</ele>
        <time>2022-02-24T05:55:35.096Z</time>
      </trkpt>
      <trkpt lat="41.80938" lon="20.88481">
        <ele>573.382154</ele>
        <time>2022-02-24T05:55:49.617Z</time>
      </trkpt>
      <trkpt lat="41.80936" lon="20.8848">
        <ele>573.397059</ele>
        <time>2022-02-24T05:55:50.431Z</time>
      </trkpt>
      <trkpt lat="41.80858" lon="20.88446">
        <ele>573.906164</ele>
        <time>2022-02-24T05:56:15.712Z</time>
      </trkpt>
      <trkpt lat="41.80751" lon="20.88414">
        <ele>573.926786</ele>
        <time>2022-02-24T05:56:48.102Z</time>
      </trkpt>
      <trkpt lat="41.80741" lon="20.88411">
        <ele>573.886816</ele>
        <time>2022-02-24T05:56:50.704Z</time>
      </trkpt>
      <trkpt lat="41.80727" lon="20.88406">
        <ele>573.825292</ele>
        <time>2022-02-24T05:56:54.653Z</time>
      </trkpt>
      <trkpt lat="41.80687" lon="20.88384">
        <ele>573.642647</ele>
        <time>2022-02-24T05:57:05.639Z</time>
      </trkpt>
      <trkpt lat="41.80674" lon="20.88378">
        <ele>573.587373</ele>
        <time>2022-02-24T05:57:08.844Z</time>
      </trkpt>
      <trkpt lat="41.80662" lon="20.88373">
        <ele>573.534677</ele>
        <time>2022-02-24T05:57:11.832Z</time>
      </trkpt>
      <trkpt lat="41.8066" lon="20.88372">
        <ele>573.524665</ele>
        <time>2022-02-24T05:57:12.418Z</time>
      </trkpt>
      <trkpt lat="41.80658" lon="20.88371">
        <ele>573.514163</ele>
        <time>2022-02-24T05:57:13.013Z</time>
      </trkpt>
      <trkpt lat="41.80609" lon="20.88351">
        <ele>572.847596</ele>
        <time>2022-02-24T05:57:24.879Z</time>
      </trkpt>
      <trkpt lat="41.806" lon="20.88353">
        <ele>572.6934</ele>
        <time>2022-02-24T05:57:26.856Z</time>
      </trkpt>
      <trkpt lat="41.80588" lon="20.88353">
        <ele>572.477162</ele>
        <time>2022-02-24T05:57:29.664Z</time>
      </trkpt>
      <trkpt lat="41.80522" lon="20.88345">
        <ele>571.310817</ele>
        <time>2022-02-24T05:57:44.376Z</time>
      </trkpt>
      <trkpt lat="41.80376" lon="20.88323">
        <ele>569.282097</ele>
        <time>2022-02-24T05:58:16.930Z</time>
      </trkpt>
      <trkpt lat="41.80349" lon="20.88328">
        <ele>568.962802</ele>
        <time>2022-02-24T05:58:24.126Z</time>
      </trkpt>
      <trkpt lat="41.80268" lon="20.88345">
        <ele>568.240997</ele>
        <time>2022-02-24T05:58:45.380Z</time>
      </trkpt>
      <trkpt lat="41.80262" lon="20.88347">
        <ele>568.242966</ele>
        <time>2022-02-24T05:58:47.284Z</time>
      </trkpt>
      <trkpt lat="41.80237" lon="20.88353">
        <ele>568.251615</ele>
        <time>2022-02-24T05:58:54.094Z</time>
      </trkpt>
      <trkpt lat="41.80215" lon="20.88358">
        <ele>568.259043</ele>
        <time>2022-02-24T05:59:00.405Z</time>
      </trkpt>
      <trkpt lat="41.80155" lon="20.88365">
        <ele>568.279342</ele>
        <time>2022-02-24T05:59:17.919Z</time>
      </trkpt>
      <trkpt lat="41.80125" lon="20.88367">
        <ele>568.289226</ele>
        <time>2022-02-24T05:59:26.352Z</time>
      </trkpt>
      <trkpt lat="41.80116" lon="20.88368">
        <ele>568.29225</ele>
        <time>2022-02-24T05:59:29.384Z</time>
      </trkpt>
      <trkpt lat="41.80074" lon="20.88375">
        <ele>567.98875</ele>
        <time>2022-02-24T05:59:41.531Z</time>
      </trkpt>
      <trkpt lat="41.80065" lon="20.88379">
        <ele>567.899204</ele>
        <time>2022-02-24T05:59:43.801Z</time>
      </trkpt>
      <trkpt lat="41.80043" lon="20.88389">
        <ele>567.68376</ele>
        <time>2022-02-24T05:59:50.166Z</time>
      </trkpt>
      <trkpt lat="41.80005" lon="20.884">
        <ele>567.328422</ele>
        <time>2022-02-24T05:59:59.929Z</time>
      </trkpt>
      <trkpt lat="41.7996" lon="20.88416">
        <ele>566.892614</ele>
        <time>2022-02-24T06:00:10.536Z</time>
      </trkpt>
      <trkpt lat="41.79936" lon="20.8842">
        <ele>566.670223</ele>
        <time>2022-02-24T06:00:16.372Z</time>
      </trkpt>
      <trkpt lat="41.79925" lon="20.88422">
        <ele>566.409403</ele>
        <time>2022-02-24T06:00:18.654Z</time>
      </trkpt>
      <trkpt lat="41.79865" lon="20.88415">
        <ele>564.510499</ele>
        <time>2022-02-24T06:00:31.575Z</time>
      </trkpt>
      <trkpt lat="41.79855" lon="20.88415">
        <ele>564.210464</ele>
        <time>2022-02-24T06:00:33.407Z</time>
      </trkpt>
      <trkpt lat="41.79831" lon="20.88414">
        <ele>563.449289</ele>
        <time>2022-02-24T06:00:38.385Z</time>
      </trkpt>
      <trkpt lat="41.7977" lon="20.88426">
        <ele>561.507412</ele>
        <time>2022-02-24T06:00:50.551Z</time>
      </trkpt>
      <trkpt lat="41.79751" lon="20.88424">
        <ele>560.898898</ele>
        <time>2022-02-24T06:00:54.324Z</time>
      </trkpt>
      <trkpt lat="41.79746" lon="20.88423">
        <ele>560.749253</ele>
        <time>2022-02-24T06:00:55.444Z</time>
      </trkpt>
      <trkpt lat="41.79739" lon="20.88423">
        <ele>560.563137</ele>
        <time>2022-02-24T06:00:56.832Z</time>
      </trkpt>
      <trkpt lat="41.79723" lon="20.8842">
        <ele>560.112221</ele>
        <time>2022-02-24T06:01:00.042Z</time>
      </trkpt>
      <trkpt lat="41.79717" lon="20.88419">
        <ele>559.947696</ele>
        <time>2022-02-24T06:01:01.161Z</time>
      </trkpt>
      <trkpt lat="41.797" lon="20.88412">
        <ele>559.428515</ele>
        <time>2022-02-24T06:01:04.976Z</time>
      </trkpt>
      <trkpt lat="41.79674" lon="20.88402">
        <ele>558.662478</ele>
        <time>2022-02-24T06:01:10.480Z</time>
      </trkpt>
      <trkpt lat="41.79647" lon="20.88389">
        <ele>557.881499</ele>
        <time>2022-02-24T06:01:16.217Z</time>
      </trkpt>
      <trkpt lat="41.79646" lon="20.88383">
        <ele>557.734766</ele>
        <time>2022-02-24T06:01:17.429Z</time>
      </trkpt>
      <trkpt lat="41.79639" lon="20.88365">
        <ele>557.323232</ele>
        <time>2022-02-24T06:01:20.668Z</time>
      </trkpt>
      <trkpt lat="41.79622" lon="20.88342">
        <ele>556.636952</ele>
        <time>2022-02-24T06:01:25.805Z</time>
      </trkpt>
      <trkpt lat="41.79605" lon="20.88327">
        <ele>556.059649</ele>
        <time>2022-02-24T06:01:30.464Z</time>
      </trkpt>
      <trkpt lat="41.7959" lon="20.88321">
        <ele>555.796903</ele>
        <time>2022-02-24T06:01:33.976Z</time>
      </trkpt>
      <trkpt lat="41.79566" lon="20.88309">
        <ele>555.532101</ele>
        <time>2022-02-24T06:01:40.033Z</time>
      </trkpt>
      <trkpt lat="41.79492" lon="20.88277">
        <ele>554.743125</ele>
        <time>2022-02-24T06:01:59.372Z</time>
      </trkpt>
      <trkpt lat="41.79473" lon="20.88274">
        <ele>554.545804</ele>
        <time>2022-02-24T06:02:04.356Z</time>
      </trkpt>
      <trkpt lat="41.79434" lon="20.88274">
        <ele>554.146871</ele>
        <time>2022-02-24T06:02:13.804Z</time>
      </trkpt>
      <trkpt lat="41.79398" lon="20.88274">
        <ele>553.82744</ele>
        <time>2022-02-24T06:02:22.576Z</time>
      </trkpt>
      <trkpt lat="41.79379" lon="20.88266">
        <ele>553.656601</ele>
        <time>2022-02-24T06:02:27.357Z</time>
      </trkpt>
      <trkpt lat="41.79331" lon="20.8823">
        <ele>553.185679</ele>
        <time>2022-02-24T06:02:41.088Z</time>
      </trkpt>
      <trkpt lat="41.79317" lon="20.88225">
        <ele>553.064298</ele>
        <time>2022-02-24T06:02:44.390Z</time>
      </trkpt>
      <trkpt lat="41.79295" lon="20.88184">
        <ele>552.741255</ele>
        <time>2022-02-24T06:02:53.324Z</time>
      </trkpt>
      <trkpt lat="41.79273" lon="20.88151">
        <ele>552.590368</ele>
        <time>2022-02-24T06:03:01.215Z</time>
      </trkpt>
      <trkpt lat="41.79245" lon="20.88116">
        <ele>552.938259</ele>
        <time>2022-02-24T06:03:10.504Z</time>
      </trkpt>
      <trkpt lat="41.79202" lon="20.88077">
        <ele>553.407949</ele>
        <time>2022-02-24T06:03:23.551Z</time>
      </trkpt>
      <trkpt lat="41.79155" lon="20.88053">
        <ele>553.866978</ele>
        <time>2022-02-24T06:03:39.623Z</time>
      </trkpt>
      <trkpt lat="41.79091" lon="20.8803">
        <ele>556.259873</ele>
        <time>2022-02-24T06:04:09.776Z</time>
      </trkpt>
      <trkpt lat="41.79066" lon="20.88021">
        <ele>557.895699</ele>
        <time>2022-02-24T06:04:23.043Z</time>
      </trkpt>
      <trkpt lat="41.79043" lon="20.88008">
        <ele>559.426325</ele>
        <time>2022-02-24T06:04:37.420Z</time>
      </trkpt>
      <trkpt lat="41.79025" lon="20.87991">
        <ele>560.761697</ele>
        <time>2022-02-24T06:04:49.530Z</time>
      </trkpt>
      <trkpt lat="41.79008" lon="20.87969">
        <ele>562.231298</ele>
        <time>2022-02-24T06:05:03.018Z</time>
      </trkpt>
      <trkpt lat="41.78996" lon="20.87943">
        <ele>563.633806</ele>
        <time>2022-02-24T06:05:18.205Z</time>
      </trkpt>
      <trkpt lat="41.78953" lon="20.87822">
        <ele>571.329123</ele>
        <time>2022-02-24T06:06:28.057Z</time>
      </trkpt>
      <trkpt lat="41.78909" lon="20.87769">
        <ele>576.242718</ele>
        <time>2022-02-24T06:07:10.168Z</time>
      </trkpt>
      <trkpt lat="41.78881" lon="20.87755">
        <ele>578.697883</ele>
        <time>2022-02-24T06:07:28.787Z</time>
      </trkpt>
      <trkpt lat="41.78831" lon="20.8771">
        <ele>581.700659</ele>
        <time>2022-02-24T06:08:02.641Z</time>
      </trkpt>
      <trkpt lat="41.78822" lon="20.87699">
        <ele>582.151491</ele>
        <time>2022-02-24T06:08:09.546Z</time>
      </trkpt>
      <trkpt lat="41.78784" lon="20.87646">
        <ele>584.177501</ele>
        <time>2022-02-24T06:08:34.785Z</time>
      </trkpt>
      <trkpt lat="41.78762" lon="20.87612">
        <ele>585.425567</ele>
        <time>2022-02-24T06:08:48.123Z</time>
      </trkpt>
      <trkpt lat="41.78709" lon="20.87528">
        <ele>586.697826</ele>
        <time>2022-02-24T06:09:10.286Z</time>
      </trkpt>
      <trkpt lat="41.7867" lon="20.87462">
        <ele>586.639428</ele>
        <time>2022-02-24T06:09:25.488Z</time>
      </trkpt>
      <trkpt lat="41.78615" lon="20.87404">
        <ele>586.573604</ele>
        <time>2022-02-24T06:09:42.387Z</time>
      </trkpt>
      <trkpt lat="41.786" lon="20.87395">
        <ele>586.904998</ele>
        <time>2022-02-24T06:09:46.123Z</time>
      </trkpt>
      <trkpt lat="41.78591" lon="20.87389">
        <ele>587.137705</ele>
        <time>2022-02-24T06:09:50.176Z</time>
      </trkpt>
      <trkpt lat="41.78512" lon="20.87354">
        <ele>589.000124</ele>
        <time>2022-02-24T06:10:19.277Z</time>
      </trkpt>
      <trkpt lat="41.7849" lon="20.87338">
        <ele>589.562864</ele>
        <time>2022-02-24T06:10:29.758Z</time>
      </trkpt>
      <trkpt lat="41.78449" lon="20.87299">
        <ele>590.804358</ele>
        <time>2022-02-24T06:10:52.901Z</time>
      </trkpt>
      <trkpt lat="41.78369" lon="20.87201">
        <ele>596.250769</ele>
        <time>2022-02-24T06:11:47.754Z</time>
      </trkpt>
      <trkpt lat="41.78344" lon="20.87178">
        <ele>597.754476</ele>
        <time>2022-02-24T06:12:03.380Z</time>
      </trkpt>
      <trkpt lat="41.78161" lon="20.87049">
        <ele>608.973495</ele>
        <time>2022-02-24T06:13:54.037Z</time>
      </trkpt>
      <trkpt lat="41.78085" lon="20.86981">
        <ele>612.919013</ele>
        <time>2022-02-24T06:14:41.231Z</time>
      </trkpt>
      <trkpt lat="41.78045" lon="20.86937">
        <ele>615.102731</ele>
        <time>2022-02-24T06:15:05.536Z</time>
      </trkpt>
      <trkpt lat="41.77986" lon="20.86853">
        <ele>617.449287</ele>
        <time>2022-02-24T06:15:39.991Z</time>
      </trkpt>
      <trkpt lat="41.7786" lon="20.86646">
        <ele>619.511208</ele>
        <time>2022-02-24T06:16:36.432Z</time>
      </trkpt>
      <trkpt lat="41.77758" lon="20.86541">
        <ele>621.098006</ele>
        <time>2022-02-24T06:17:18.293Z</time>
      </trkpt>
      <trkpt lat="41.77733" lon="20.86517">
        <ele>622.167903</ele>
        <time>2022-02-24T06:17:30.384Z</time>
      </trkpt>
      <trkpt lat="41.77708" lon="20.86492">
        <ele>623.237802</ele>
        <time>2022-02-24T06:17:43.327Z</time>
      </trkpt>
      <trkpt lat="41.77491" lon="20.86287">
        <ele>633.801096</ele>
        <time>2022-02-24T06:19:47.634Z</time>
      </trkpt>
      <trkpt lat="41.77428" lon="20.86242">
        <ele>637.565061</ele>
        <time>2022-02-24T06:20:24.044Z</time>
      </trkpt>
      <trkpt lat="41.77375" lon="20.86214">
        <ele>640.827133</ele>
        <time>2022-02-24T06:20:54.775Z</time>
      </trkpt>
      <trkpt lat="41.77184" lon="20.86162">
        <ele>651.959365</ele>
        <time>2022-02-24T06:22:45.526Z</time>
      </trkpt>
      <trkpt lat="41.77136" lon="20.86132">
        <ele>654.997958</ele>
        <time>2022-02-24T06:23:12.958Z</time>
      </trkpt>
      <trkpt lat="41.77113" lon="20.86093">
        <ele>656.489875</ele>
        <time>2022-02-24T06:23:30.601Z</time>
      </trkpt>
      <trkpt lat="41.77106" lon="20.86065">
        <ele>657.275908</ele>
        <time>2022-02-24T06:23:40.774Z</time>
      </trkpt>
      <trkpt lat="41.77093" lon="20.85937">
        <ele>660.626661</ele>
        <time>2022-02-24T06:24:20.581Z</time>
      </trkpt>
      <trkpt lat="41.77083" lon="20.85901">
        <ele>661.626713</ele>
        <time>2022-02-24T06:24:32.063Z</time>
      </trkpt>
      <trkpt lat="41.77064" lon="20.85861">
        <ele>663.120953</ele>
        <time>2022-02-24T06:24:46.454Z</time>
      </trkpt>
      <trkpt lat="41.77008" lon="20.85809">
        <ele>666.051752</ele>
        <time>2022-02-24T06:25:16.131Z</time>
      </trkpt>
      <trkpt lat="41.76968" lon="20.85781">
        <ele>668.022049</ele>
        <time>2022-02-24T06:25:38.343Z</time>
      </trkpt>
      <trkpt lat="41.76946" lon="20.85775">
        <ele>668.981838</ele>
        <time>2022-02-24T06:25:49.924Z</time>
      </trkpt>
      <trkpt lat="41.76853" lon="20.85776">
        <ele>675.856397</ele>
        <time>2022-02-24T06:26:45.927Z</time>
      </trkpt>
      <trkpt lat="41.76817" lon="20.85765">
        <ele>678.755898</ele>
        <time>2022-02-24T06:27:10.602Z</time>
      </trkpt>
      <trkpt lat="41.76802" lon="20.85754">
        <ele>680.10386</ele>
        <time>2022-02-24T06:27:22.480Z</time>
      </trkpt>
      <trkpt lat="41.76779" lon="20.85726">
        <ele>682.568819</ele>
        <time>2022-02-24T06:27:44.868Z</time>
      </trkpt>
      <trkpt lat="41.76727" lon="20.85592">
        <ele>692.022543</ele>
        <time>2022-02-24T06:29:06.057Z</time>
      </trkpt>
      <trkpt lat="41.76681" lon="20.85521">
        <ele>697.897952</ele>
        <time>2022-02-24T06:29:52.401Z</time>
      </trkpt>
      <trkpt lat="41.76572" lon="20.85396">
        <ele>706.091379</ele>
        <time>2022-02-24T06:31:09.258Z</time>
      </trkpt>
      <trkpt lat="41.76543" lon="20.85373">
        <ele>707.950433</ele>
        <time>2022-02-24T06:31:25.453Z</time>
      </trkpt>
      <trkpt lat="41.76505" lon="20.85364">
        <ele>709.709296</ele>
        <time>2022-02-24T06:31:43.428Z</time>
      </trkpt>
      <trkpt lat="41.7647" lon="20.85367">
        <ele>711.191023</ele>
        <time>2022-02-24T06:32:00.463Z</time>
      </trkpt>
      <trkpt lat="41.76432" lon="20.85372">
        <ele>712.738625</ele>
        <time>2022-02-24T06:32:17.924Z</time>
      </trkpt>
      <trkpt lat="41.76381" lon="20.85361">
        <ele>714.898975</ele>
        <time>2022-02-24T06:32:41.717Z</time>
      </trkpt>
      <trkpt lat="41.76342" lon="20.8532">
        <ele>716.842099</ele>
        <time>2022-02-24T06:33:04.720Z</time>
      </trkpt>
      <trkpt lat="41.76183" lon="20.85007">
        <ele>727.797085</ele>
        <time>2022-02-24T06:35:07.757Z</time>
      </trkpt>
      <trkpt lat="41.76156" lon="20.84981">
        <ele>729.206176</ele>
        <time>2022-02-24T06:35:24.331Z</time>
      </trkpt>
      <trkpt lat="41.7613" lon="20.8497">
        <ele>730.422091</ele>
        <time>2022-02-24T06:35:38.811Z</time>
      </trkpt>
      <trkpt lat="41.761" lon="20.84975">
        <ele>732.617707</ele>
        <time>2022-02-24T06:35:55.770Z</time>
      </trkpt>
      <trkpt lat="41.76025" lon="20.85038">
        <ele>739.041025</ele>
        <time>2022-02-24T06:36:50.707Z</time>
      </trkpt>
      <trkpt lat="41.76005" lon="20.85041">
        <ele>740.485504</ele>
        <time>2022-02-24T06:37:04.024Z</time>
      </trkpt>
      <trkpt lat="41.75971" lon="20.85036">
        <ele>742.974096</ele>
        <time>2022-02-24T06:37:26.867Z</time>
      </trkpt>
      <trkpt lat="41.75945" lon="20.85016">
        <ele>745.316765</ele>
        <time>2022-02-24T06:37:47.068Z</time>
      </trkpt>
      <trkpt lat="41.75881" lon="20.84938">
        <ele>752.052202</ele>
        <time>2022-02-24T06:38:43.552Z</time>
      </trkpt>
      <trkpt lat="41.75827" lon="20.8489">
        <ele>757.056335</ele>
        <time>2022-02-24T06:39:23.968Z</time>
      </trkpt>
      <trkpt lat="41.75771" lon="20.84859">
        <ele>761.109135</ele>
        <time>2022-02-24T06:40:00.671Z</time>
      </trkpt>
      <trkpt lat="41.75628" lon="20.84809">
        <ele>770.484689</ele>
        <time>2022-02-24T06:41:24.786Z</time>
      </trkpt>
      <trkpt lat="41.75594" lon="20.84785">
        <ele>772.535352</ele>
        <time>2022-02-24T06:41:45.602Z</time>
      </trkpt>
      <trkpt lat="41.75577" lon="20.84762">
        <ele>773.825289</ele>
        <time>2022-02-24T06:41:58.356Z</time>
      </trkpt>
      <trkpt lat="41.75558" lon="20.84713">
        <ele>776.036641</ele>
        <time>2022-02-24T06:42:19.607Z</time>
      </trkpt>
      <trkpt lat="41.7554" lon="20.84574">
        <ele>781.719106</ele>
        <time>2022-02-24T06:43:11.130Z</time>
      </trkpt>
      <trkpt lat="41.7552" lon="20.84515">
        <ele>784.345472</ele>
        <time>2022-02-24T06:43:35.259Z</time>
      </trkpt>
      <trkpt lat="41.75494" lon="20.84467">
        <ele>786.769719</ele>
        <time>2022-02-24T06:43:59.146Z</time>
      </trkpt>
      <trkpt lat="41.75434" lon="20.84404">
        <ele>791.945488</ele>
        <time>2022-02-24T06:44:44.512Z</time>
      </trkpt>
      <trkpt lat="41.75409" lon="20.84388">
        <ele>794.132328</ele>
        <time>2022-02-24T06:45:02.579Z</time>
      </trkpt>
      <trkpt lat="41.75367" lon="20.84372">
        <ele>797.541362</ele>
        <time>2022-02-24T06:45:32.071Z</time>
      </trkpt>
      <trkpt lat="41.75233" lon="20.84346">
        <ele>806.692281</ele>
        <time>2022-02-24T06:47:02.213Z</time>
      </trkpt>
      <trkpt lat="41.75192" lon="20.84321">
        <ele>809.277583</ele>
        <time>2022-02-24T06:47:27.323Z</time>
      </trkpt>
      <trkpt lat="41.75171" lon="20.84291">
        <ele>811.061759</ele>
        <time>2022-02-24T06:47:40.624Z</time>
      </trkpt>
      <trkpt lat="41.75154" lon="20.84239">
        <ele>813.135427</ele>
        <time>2022-02-24T06:47:58.183Z</time>
      </trkpt>
      <trkpt lat="41.75147" lon="20.8414">
        <ele>814.252749</ele>
        <time>2022-02-24T06:48:23.532Z</time>
      </trkpt>
      <trkpt lat="41.75143" lon="20.841">
        <ele>814.715786</ele>
        <time>2022-02-24T06:48:32.280Z</time>
      </trkpt>
      <trkpt lat="41.75138" lon="20.84073">
        <ele>815.02923</ele>
        <time>2022-02-24T06:48:39.118Z</time>
      </trkpt>
      <trkpt lat="41.75107" lon="20.8402">
        <ele>815.848299</ele>
        <time>2022-02-24T06:48:53.609Z</time>
      </trkpt>
      <trkpt lat="41.75047" lon="20.83947">
        <ele>818.727561</ele>
        <time>2022-02-24T06:49:24.012Z</time>
      </trkpt>
      <trkpt lat="41.75003" lon="20.83905">
        <ele>820.649594</ele>
        <time>2022-02-24T06:49:50.216Z</time>
      </trkpt>
      <trkpt lat="41.74963" lon="20.83893">
        <ele>822.09971</ele>
        <time>2022-02-24T06:50:11.454Z</time>
      </trkpt>
      <trkpt lat="41.74869" lon="20.83924">
        <ele>827.252809</ele>
        <time>2022-02-24T06:51:06.568Z</time>
      </trkpt>
      <trkpt lat="41.74851" lon="20.83924">
        <ele>828.222998</ele>
        <time>2022-02-24T06:51:18.332Z</time>
      </trkpt>
      <trkpt lat="41.7482" lon="20.83912">
        <ele>829.929692</ele>
        <time>2022-02-24T06:51:34.018Z</time>
      </trkpt>
      <trkpt lat="41.74798" lon="20.83895">
        <ele>831.268449</ele>
        <time>2022-02-24T06:51:44.370Z</time>
      </trkpt>
      <trkpt lat="41.74786" lon="20.83881">
        <ele>831.82296</ele>
        <time>2022-02-24T06:51:53.988Z</time>
      </trkpt>
      <trkpt lat="41.74771" lon="20.83863">
        <ele>832.183216</ele>
        <time>2022-02-24T06:52:00.391Z</time>
      </trkpt>
      <trkpt lat="41.74723" lon="20.83795">
        <ele>833.401386</ele>
        <time>2022-02-24T06:52:26.673Z</time>
      </trkpt>
      <trkpt lat="41.74661" lon="20.83671">
        <ele>835.282114</ele>
        <time>2022-02-24T06:52:58.211Z</time>
      </trkpt>
      <trkpt lat="41.74631" lon="20.83637">
        <ele>835.908887</ele>
        <time>2022-02-24T06:53:09.791Z</time>
      </trkpt>
      <trkpt lat="41.74593" lon="20.83614">
        <ele>836.561867</ele>
        <time>2022-02-24T06:53:23.336Z</time>
      </trkpt>
      <trkpt lat="41.74423" lon="20.8357">
        <ele>841.274755</ele>
        <time>2022-02-24T06:54:33.982Z</time>
      </trkpt>
      <trkpt lat="41.7437" lon="20.8354">
        <ele>843.282966</ele>
        <time>2022-02-24T06:55:00.331Z</time>
      </trkpt>
      <trkpt lat="41.74248" lon="20.83446">
        <ele>849.892862</ele>
        <time>2022-02-24T06:56:08.713Z</time>
      </trkpt>
      <trkpt lat="41.74221" lon="20.83437">
        <ele>851.249852</ele>
        <time>2022-02-24T06:56:23.413Z</time>
      </trkpt>
      <trkpt lat="41.74173" lon="20.83441">
        <ele>853.814174</ele>
        <time>2022-02-24T06:56:49.543Z</time>
      </trkpt>
      <trkpt lat="41.74127" lon="20.83466">
        <ele>856.765402</ele>
        <time>2022-02-24T06:57:16.657Z</time>
      </trkpt>
      <trkpt lat="41.74069" lon="20.83519">
        <ele>860.968687</ele>
        <time>2022-02-24T06:57:55.969Z</time>
      </trkpt>
      <trkpt lat="41.73996" lon="20.83602">
        <ele>866.788351</ele>
        <time>2022-02-24T06:58:50.215Z</time>
      </trkpt>
      <trkpt lat="41.73951" lon="20.83635">
        <ele>869.928219</ele>
        <time>2022-02-24T06:59:18.753Z</time>
      </trkpt>
      <trkpt lat="41.73916" lon="20.83644">
        <ele>872.123755</ele>
        <time>2022-02-24T06:59:39.430Z</time>
      </trkpt>
      <trkpt lat="41.7383" lon="20.83639">
        <ele>875.864817</ele>
        <time>2022-02-24T07:00:28.801Z</time>
      </trkpt>
      <trkpt lat="41.73781" lon="20.83652">
        <ele>877.307874</ele>
        <time>2022-02-24T07:00:49.458Z</time>
      </trkpt>
      <trkpt lat="41.7376" lon="20.83663">
        <ele>877.943326</ele>
        <time>2022-02-24T07:00:59.127Z</time>
      </trkpt>
      <trkpt lat="41.73738" lon="20.83677">
        <ele>878.65759</ele>
        <time>2022-02-24T07:01:06.610Z</time>
      </trkpt>
      <trkpt lat="41.73683" lon="20.83708">
        <ele>878.859918</ele>
        <time>2022-02-24T07:01:21.541Z</time>
      </trkpt>
      <trkpt lat="41.73649" lon="20.83718">
        <ele>877.710172</ele>
        <time>2022-02-24T07:01:28.900Z</time>
      </trkpt>
      <trkpt lat="41.73606" lon="20.83714">
        <ele>876.268321</ele>
        <time>2022-02-24T07:01:37.178Z</time>
      </trkpt>
      <trkpt lat="41.73583" lon="20.83697">
        <ele>875.408314</ele>
        <time>2022-02-24T07:01:41.745Z</time>
      </trkpt>
      <trkpt lat="41.73564" lon="20.83661">
        <ele>874.31173</ele>
        <time>2022-02-24T07:01:47.628Z</time>
      </trkpt>
      <trkpt lat="41.73543" lon="20.83516">
        <ele>871.448766</ele>
        <time>2022-02-24T07:02:08.070Z</time>
      </trkpt>
      <trkpt lat="41.73521" lon="20.83469">
        <ele>870.421441</ele>
        <time>2022-02-24T07:02:16.819Z</time>
      </trkpt>
      <trkpt lat="41.73474" lon="20.83399">
        <ele>870.856517</ele>
        <time>2022-02-24T07:02:33.701Z</time>
      </trkpt>
      <trkpt lat="41.73453" lon="20.83364">
        <ele>873.131243</ele>
        <time>2022-02-24T07:02:51.737Z</time>
      </trkpt>
      <trkpt lat="41.73405" lon="20.83282">
        <ele>878.352789</ele>
        <time>2022-02-24T07:03:41.509Z</time>
      </trkpt>
      <trkpt lat="41.73379" lon="20.83259">
        <ele>880.440139</ele>
        <time>2022-02-24T07:04:05.682Z</time>
      </trkpt>
      <trkpt lat="41.73369" lon="20.83252">
        <ele>881.204117</ele>
        <time>2022-02-24T07:04:13.290Z</time>
      </trkpt>
      <trkpt lat="41.73355" lon="20.8325">
        <ele>882.606434</ele>
        <time>2022-02-24T07:04:28.030Z</time>
      </trkpt>
      <trkpt lat="41.73332" lon="20.83254">
        <ele>885.220144</ele>
        <time>2022-02-24T07:04:43.866Z</time>
      </trkpt>
      <trkpt lat="41.73316" lon="20.83265">
        <ele>887.214161</ele>
        <time>2022-02-24T07:05:01.379Z</time>
      </trkpt>
      <trkpt lat="41.73301" lon="20.83288">
        <ele>889.787739</ele>
        <time>2022-02-24T07:05:19.994Z</time>
      </trkpt>
      <trkpt lat="41.73292" lon="20.83319">
        <ele>892.511079</ele>
        <time>2022-02-24T07:05:40.592Z</time>
      </trkpt>
      <trkpt lat="41.73292" lon="20.83355">
        <ele>895.513622</ele>
        <time>2022-02-24T07:06:05.731Z</time>
      </trkpt>
      <trkpt lat="41.73316" lon="20.8348">
        <ele>904.5119</ele>
        <time>2022-02-24T07:07:16.921Z</time>
      </trkpt>
      <trkpt lat="41.73317" lon="20.83523">
        <ele>906.733456</ele>
        <time>2022-02-24T07:07:36.218Z</time>
      </trkpt>
      <trkpt lat="41.73308" lon="20.83557">
        <ele>908.612172</ele>
        <time>2022-02-24T07:07:51.857Z</time>
      </trkpt>
      <trkpt lat="41.7327" lon="20.83638">
        <ele>913.642426</ele>
        <time>2022-02-24T07:08:30.719Z</time>
      </trkpt>
      <trkpt lat="41.7327" lon="20.83662">
        <ele>914.43838</ele>
        <time>2022-02-24T07:08:39.310Z</time>
      </trkpt>
      <trkpt lat="41.73279" lon="20.8371">
        <ele>915.623084</ele>
        <time>2022-02-24T07:08:56.375Z</time>
      </trkpt>
      <trkpt lat="41.73277" lon="20.83753">
        <ele>916.632406</ele>
        <time>2022-02-24T07:09:10.726Z</time>
      </trkpt>
      <trkpt lat="41.73268" lon="20.83777">
        <ele>917.259918</ele>
        <time>2022-02-24T07:09:17.512Z</time>
      </trkpt>
      <trkpt lat="41.73226" lon="20.83837">
        <ele>919.212369</ele>
        <time>2022-02-24T07:09:39.613Z</time>
      </trkpt>
      <trkpt lat="41.73205" lon="20.83888">
        <ele>920.924556</ele>
        <time>2022-02-24T07:09:56.291Z</time>
      </trkpt>
      <trkpt lat="41.73197" lon="20.83917">
        <ele>921.967668</ele>
        <time>2022-02-24T07:10:06.044Z</time>
      </trkpt>
      <trkpt lat="41.73192" lon="20.83936">
        <ele>922.648163</ele>
        <time>2022-02-24T07:10:11.977Z</time>
      </trkpt>
      <trkpt lat="41.73187" lon="20.8395">
        <ele>923.155007</ele>
        <time>2022-02-24T07:10:17.891Z</time>
      </trkpt>
      <trkpt lat="41.73181" lon="20.83964">
        <ele>923.694652</ele>
        <time>2022-02-24T07:10:22.221Z</time>
      </trkpt>
      <trkpt lat="41.73173" lon="20.83979">
        <ele>924.323887</ele>
        <time>2022-02-24T07:10:29.039Z</time>
      </trkpt>
      <trkpt lat="41.73153" lon="20.84">
        <ele>925.457173</ele>
        <time>2022-02-24T07:10:41.384Z</time>
      </trkpt>
      <trkpt lat="41.73135" lon="20.84006">
        <ele>926.29504</ele>
        <time>2022-02-24T07:10:52.241Z</time>
      </trkpt>
      <trkpt lat="41.73106" lon="20.84002">
        <ele>927.615083</ele>
        <time>2022-02-24T07:11:08.553Z</time>
      </trkpt>
      <trkpt lat="41.73083" lon="20.83982">
        <ele>929.669537</ele>
        <time>2022-02-24T07:11:24.581Z</time>
      </trkpt>
      <trkpt lat="41.73034" lon="20.83894">
        <ele>936.659409</ele>
        <time>2022-02-24T07:12:23.020Z</time>
      </trkpt>
      <trkpt lat="41.73005" lon="20.83876">
        <ele>939.323659</ele>
        <time>2022-02-24T07:12:46.185Z</time>
      </trkpt>
      <trkpt lat="41.72985" lon="20.83877">
        <ele>941.086995</ele>
        <time>2022-02-24T07:13:01.232Z</time>
      </trkpt>
      <trkpt lat="41.72962" lon="20.83891">
        <ele>943.198656</ele>
        <time>2022-02-24T07:13:18.494Z</time>
      </trkpt>
      <trkpt lat="41.72947" lon="20.83917">
        <ele>944.488452</ele>
        <time>2022-02-24T07:13:34.291Z</time>
      </trkpt>
      <trkpt lat="41.72941" lon="20.83951">
        <ele>945.878519</ele>
        <time>2022-02-24T07:13:50.080Z</time>
      </trkpt>
      <trkpt lat="41.72948" lon="20.84046">
        <ele>949.688668</ele>
        <time>2022-02-24T07:14:26.549Z</time>
      </trkpt>
      <trkpt lat="41.72942" lon="20.84079">
        <ele>951.024822</ele>
        <time>2022-02-24T07:14:37.374Z</time>
      </trkpt>
      <trkpt lat="41.72916" lon="20.84121">
        <ele>953.042503</ele>
        <time>2022-02-24T07:14:53.682Z</time>
      </trkpt>
      <trkpt lat="41.72893" lon="20.84137">
        <ele>953.983744</ele>
        <time>2022-02-24T07:15:03.782Z</time>
      </trkpt>
      <trkpt lat="41.72867" lon="20.84141">
        <ele>954.903729</ele>
        <time>2022-02-24T07:15:13.795Z</time>
      </trkpt>
      <trkpt lat="41.7284" lon="20.84135">
        <ele>955.900359</ele>
        <time>2022-02-24T07:15:27.823Z</time>
      </trkpt>
      <trkpt lat="41.7279" lon="20.84109">
        <ele>957.813744</ele>
        <time>2022-02-24T07:15:51.098Z</time>
      </trkpt>
      <trkpt lat="41.72762" lon="20.84101">
        <ele>958.839876</ele>
        <time>2022-02-24T07:16:04.553Z</time>
      </trkpt>
      <trkpt lat="41.72746" lon="20.84101">
        <ele>959.342151</ele>
        <time>2022-02-24T07:16:12.574Z</time>
      </trkpt>
      <trkpt lat="41.72721" lon="20.84113">
        <ele>960.032364</ele>
        <time>2022-02-24T07:16:23.220Z</time>
      </trkpt>
      <trkpt lat="41.7271" lon="20.84121">
        <ele>960.350509</ele>
        <time>2022-02-24T07:16:30.696Z</time>
      </trkpt>
      <trkpt lat="41.72693" lon="20.84139">
        <ele>960.908524</ele>
        <time>2022-02-24T07:16:38.336Z</time>
      </trkpt>
      <trkpt lat="41.72655" lon="20.84166">
        <ele>962.020451</ele>
        <time>2022-02-24T07:16:56.923Z</time>
      </trkpt>
      <trkpt lat="41.72619" lon="20.84171">
        <ele>962.944704</ele>
        <time>2022-02-24T07:17:10.581Z</time>
      </trkpt>
      <trkpt lat="41.72599" lon="20.84163">
        <ele>963.489336</ele>
        <time>2022-02-24T07:17:17.822Z</time>
      </trkpt>
      <trkpt lat="41.72541" lon="20.8412">
        <ele>963.278464</ele>
        <time>2022-02-24T07:17:35.231Z</time>
      </trkpt>
      <trkpt lat="41.72435" lon="20.84095">
        <ele>962.19032</ele>
        <time>2022-02-24T07:17:58.486Z</time>
      </trkpt>
      <trkpt lat="41.7241" lon="20.84076">
        <ele>961.889582</ele>
        <time>2022-02-24T07:18:04.680Z</time>
      </trkpt>
      <trkpt lat="41.724" lon="20.84062">
        <ele>961.731379</ele>
        <time>2022-02-24T07:18:07.750Z</time>
      </trkpt>
      <trkpt lat="41.72386" lon="20.84028">
        <ele>961.410732</ele>
        <time>2022-02-24T07:18:13.980Z</time>
      </trkpt>
      <trkpt lat="41.72377" lon="20.83971">
        <ele>960.928097</ele>
        <time>2022-02-24T07:18:23.510Z</time>
      </trkpt>
      <trkpt lat="41.7236" lon="20.83754">
        <ele>960.476347</ele>
        <time>2022-02-24T07:19:03.623Z</time>
      </trkpt>
      <trkpt lat="41.72287" lon="20.835">
        <ele>963.632452</ele>
        <time>2022-02-24T07:20:12.422Z</time>
      </trkpt>
      <trkpt lat="41.72275" lon="20.83375">
        <ele>966.219901</ele>
        <time>2022-02-24T07:20:54.256Z</time>
      </trkpt>
      <trkpt lat="41.72266" lon="20.83341">
        <ele>967.291981</ele>
        <time>2022-02-24T07:21:06.704Z</time>
      </trkpt>
      <trkpt lat="41.72242" lon="20.83281">
        <ele>969.333024</ele>
        <time>2022-02-24T07:21:30.293Z</time>
      </trkpt>
      <trkpt lat="41.72238" lon="20.83257">
        <ele>970.087674</ele>
        <time>2022-02-24T07:21:39.051Z</time>
      </trkpt>
      <trkpt lat="41.72239" lon="20.83215">
        <ele>971.356235</ele>
        <time>2022-02-24T07:21:53.754Z</time>
      </trkpt>
      <trkpt lat="41.72252" lon="20.83147">
        <ele>973.813218</ele>
        <time>2022-02-24T07:22:17.818Z</time>
      </trkpt>
      <trkpt lat="41.7225" lon="20.83112">
        <ele>975.366704</ele>
        <time>2022-02-24T07:22:29.194Z</time>
      </trkpt>
      <trkpt lat="41.72243" lon="20.83085">
        <ele>976.662208</ele>
        <time>2022-02-24T07:22:39.246Z</time>
      </trkpt>
      <trkpt lat="41.7223" lon="20.83065">
        <ele>977.881542</ele>
        <time>2022-02-24T07:22:48.861Z</time>
      </trkpt>
      <trkpt lat="41.72211" lon="20.83048">
        <ele>979.220042</ele>
        <time>2022-02-24T07:23:00.480Z</time>
      </trkpt>
      <trkpt lat="41.72127" lon="20.83015">
        <ele>985.518454</ele>
        <time>2022-02-24T07:23:55.146Z</time>
      </trkpt>
      <trkpt lat="41.72044" lon="20.82946">
        <ele>998.056485</ele>
        <time>2022-02-24T07:25:19.803Z</time>
      </trkpt>
      <trkpt lat="41.7201" lon="20.82928">
        <ele>1002.732284</ele>
        <time>2022-02-24T07:25:56.145Z</time>
      </trkpt>
      <trkpt lat="41.71989" lon="20.82932">
        <ele>1005.492848</ele>
        <time>2022-02-24T07:26:18.723Z</time>
      </trkpt>
      <trkpt lat="41.71967" lon="20.82947">
        <ele>1008.58309</ele>
        <time>2022-02-24T07:26:44.734Z</time>
      </trkpt>
      <trkpt lat="41.71952" lon="20.8297">
        <ele>1011.363276</ele>
        <time>2022-02-24T07:27:08.228Z</time>
      </trkpt>
      <trkpt lat="41.71943" lon="20.82998">
        <ele>1014.131088</ele>
        <time>2022-02-24T07:27:31.351Z</time>
      </trkpt>
      <trkpt lat="41.71945" lon="20.83048">
        <ele>1018.736409</ele>
        <time>2022-02-24T07:28:06.779Z</time>
      </trkpt>
      <trkpt lat="41.72008" lon="20.83146">
        <ele>1029.440227</ele>
        <time>2022-02-24T07:29:17.664Z</time>
      </trkpt>
      <trkpt lat="41.7202" lon="20.83175">
        <ele>1030.384283</ele>
        <time>2022-02-24T07:29:31.461Z</time>
      </trkpt>
      <trkpt lat="41.72029" lon="20.83216">
        <ele>1031.587891</ele>
        <time>2022-02-24T07:29:47.145Z</time>
      </trkpt>
      <trkpt lat="41.72008" lon="20.83337">
        <ele>1035.109169</ele>
        <time>2022-02-24T07:30:21.961Z</time>
      </trkpt>
      <trkpt lat="41.72" lon="20.83427">
        <ele>1035.70309</ele>
        <time>2022-02-24T07:30:39.567Z</time>
      </trkpt>
      <trkpt lat="41.71992" lon="20.83458">
        <ele>1035.696373</ele>
        <time>2022-02-24T07:30:46.351Z</time>
      </trkpt>
      <trkpt lat="41.71936" lon="20.83566">
        <ele>1035.669765</ele>
        <time>2022-02-24T07:31:12.797Z</time>
      </trkpt>
      <trkpt lat="41.71934" lon="20.83606">
        <ele>1035.144958</ele>
        <time>2022-02-24T07:31:19.580Z</time>
      </trkpt>
      <trkpt lat="41.71938" lon="20.83638">
        <ele>1034.63038</ele>
        <time>2022-02-24T07:31:24.780Z</time>
      </trkpt>
      <trkpt lat="41.71933" lon="20.83678">
        <ele>1033.981862</ele>
        <time>2022-02-24T07:31:30.995Z</time>
      </trkpt>
      <trkpt lat="41.71905" lon="20.83721">
        <ele>1033.067922</ele>
        <time>2022-02-24T07:31:39.568Z</time>
      </trkpt>
      <trkpt lat="41.71868" lon="20.83746">
        <ele>1032.165286</ele>
        <time>2022-02-24T07:31:47.858Z</time>
      </trkpt>
      <trkpt lat="41.71758" lon="20.83843">
        <ele>1030.482831</ele>
        <time>2022-02-24T07:32:14.407Z</time>
      </trkpt>
      <trkpt lat="41.71723" lon="20.83857">
        <ele>1030.067744</ele>
        <time>2022-02-24T07:32:23.416Z</time>
      </trkpt>
      <trkpt lat="41.71672" lon="20.83858">
        <ele>1031.024529</ele>
        <time>2022-02-24T07:32:41.600Z</time>
      </trkpt>
      <trkpt lat="41.71587" lon="20.83842">
        <ele>1035.953005</ele>
        <time>2022-02-24T07:33:24.815Z</time>
      </trkpt>
      <trkpt lat="41.71505" lon="20.83835">
        <ele>1041.02377</ele>
        <time>2022-02-24T07:34:20.349Z</time>
      </trkpt>
      <trkpt lat="41.71446" lon="20.83823">
        <ele>1046.460484</ele>
        <time>2022-02-24T07:35:04.662Z</time>
      </trkpt>
      <trkpt lat="41.71402" lon="20.83814">
        <ele>1050.473178</ele>
        <time>2022-02-24T07:35:37.777Z</time>
      </trkpt>
      <trkpt lat="41.71327" lon="20.83823">
        <ele>1057.091766</ele>
        <time>2022-02-24T07:36:29.931Z</time>
      </trkpt>
      <trkpt lat="41.71273" lon="20.83822">
        <ele>1060.52182</ele>
        <time>2022-02-24T07:37:03.214Z</time>
      </trkpt>
      <trkpt lat="41.71253" lon="20.83828">
        <ele>1061.834955</ele>
        <time>2022-02-24T07:37:15.163Z</time>
      </trkpt>
      <trkpt lat="41.71184" lon="20.83872">
        <ele>1066.659353</ele>
        <time>2022-02-24T07:37:55.010Z</time>
      </trkpt>
      <trkpt lat="41.71158" lon="20.83877">
        <ele>1068.333116</ele>
        <time>2022-02-24T07:38:07.824Z</time>
      </trkpt>
      <trkpt lat="41.71131" lon="20.83872">
        <ele>1070.026537</ele>
        <time>2022-02-24T07:38:20.610Z</time>
      </trkpt>
      <trkpt lat="41.70963" lon="20.83801">
        <ele>1082.965141</ele>
        <time>2022-02-24T07:40:02.002Z</time>
      </trkpt>
      <trkpt lat="41.70926" lon="20.83775">
        <ele>1088.190931</ele>
        <time>2022-02-24T07:40:36.270Z</time>
      </trkpt>
      <trkpt lat="41.70915" lon="20.83763">
        <ele>1089.865396</ele>
        <time>2022-02-24T07:40:48.216Z</time>
      </trkpt>
      <trkpt lat="41.70899" lon="20.83731">
        <ele>1093.459836</ele>
        <time>2022-02-24T07:41:15.347Z</time>
      </trkpt>
      <trkpt lat="41.70882" lon="20.83629">
        <ele>1103.227801</ele>
        <time>2022-02-24T07:42:34.188Z</time>
      </trkpt>
      <trkpt lat="41.70874" lon="20.83609">
        <ele>1105.663933</ele>
        <time>2022-02-24T07:42:52.943Z</time>
      </trkpt>
      <trkpt lat="41.70849" lon="20.83577">
        <ele>1110.444458</ele>
        <time>2022-02-24T07:43:29.249Z</time>
      </trkpt>
      <trkpt lat="41.70825" lon="20.83564">
        <ele>1114.031651</ele>
        <time>2022-02-24T07:43:55.403Z</time>
      </trkpt>
      <trkpt lat="41.70801" lon="20.8356">
        <ele>1117.422534</ele>
        <time>2022-02-24T07:44:19.383Z</time>
      </trkpt>
      <trkpt lat="41.70767" lon="20.83573">
        <ele>1122.375836</ele>
        <time>2022-02-24T07:44:51.806Z</time>
      </trkpt>
      <trkpt lat="41.70742" lon="20.83597">
        <ele>1126.46027</ele>
        <time>2022-02-24T07:45:16.642Z</time>
      </trkpt>
      <trkpt lat="41.70725" lon="20.83631">
        <ele>1127.689478</ele>
        <time>2022-02-24T07:45:38.522Z</time>
      </trkpt>
      <trkpt lat="41.70697" lon="20.83719">
        <ele>1130.500417</ele>
        <time>2022-02-24T07:46:14.628Z</time>
      </trkpt>
      <trkpt lat="41.70665" lon="20.83781">
        <ele>1132.721905</ele>
        <time>2022-02-24T07:46:30.685Z</time>
      </trkpt>
      <trkpt lat="41.70635" lon="20.83813">
        <ele>1133.04127</ele>
        <time>2022-02-24T07:46:38.933Z</time>
      </trkpt>
      <trkpt lat="41.70582" lon="20.83848">
        <ele>1131.617652</ele>
        <time>2022-02-24T07:46:50.836Z</time>
      </trkpt>
      <trkpt lat="41.70574" lon="20.83851">
        <ele>1131.422896</ele>
        <time>2022-02-24T07:46:52.317Z</time>
      </trkpt>
      <trkpt lat="41.70529" lon="20.83866">
        <ele>1130.311563</ele>
        <time>2022-02-24T07:47:01.127Z</time>
      </trkpt>
      <trkpt lat="41.7034" lon="20.83924">
        <ele>1128.898501</ele>
        <time>2022-02-24T07:47:43.439Z</time>
      </trkpt>
      <trkpt lat="41.70319" lon="20.83922">
        <ele>1128.856637</ele>
        <time>2022-02-24T07:47:52.240Z</time>
      </trkpt>
      <trkpt lat="41.70255" lon="20.83897">
        <ele>1131.875993</ele>
        <time>2022-02-24T07:48:26.283Z</time>
      </trkpt>
      <trkpt lat="41.70223" lon="20.83906">
        <ele>1133.671004</ele>
        <time>2022-02-24T07:48:44.471Z</time>
      </trkpt>
      <trkpt lat="41.70202" lon="20.83929">
        <ele>1135.202745</ele>
        <time>2022-02-24T07:49:00.798Z</time>
      </trkpt>
      <trkpt lat="41.70163" lon="20.83995">
        <ele>1138.697766</ele>
        <time>2022-02-24T07:49:38.198Z</time>
      </trkpt>
      <trkpt lat="41.70095" lon="20.84042">
        <ele>1141.154375</ele>
        <time>2022-02-24T07:50:20.210Z</time>
      </trkpt>
      <trkpt lat="41.70076" lon="20.84064">
        <ele>1141.947638</ele>
        <time>2022-02-24T07:50:31.480Z</time>
      </trkpt>
      <trkpt lat="41.70062" lon="20.84101">
        <ele>1142.915925</ele>
        <time>2022-02-24T07:50:42.811Z</time>
      </trkpt>
      <trkpt lat="41.70048" lon="20.84166">
        <ele>1144.469812</ele>
        <time>2022-02-24T07:50:56.304Z</time>
      </trkpt>
      <trkpt lat="41.70026" lon="20.84202">
        <ele>1143.55721</ele>
        <time>2022-02-24T07:51:03.876Z</time>
      </trkpt>
      <trkpt lat="41.69954" lon="20.84247">
        <ele>1141.412692</ele>
        <time>2022-02-24T07:51:20.015Z</time>
      </trkpt>
      <trkpt lat="41.69903" lon="20.84318">
        <ele>1139.403699</ele>
        <time>2022-02-24T07:51:33.723Z</time>
      </trkpt>
      <trkpt lat="41.69885" lon="20.84335">
        <ele>1138.702145</ele>
        <time>2022-02-24T07:51:37.682Z</time>
      </trkpt>
      <trkpt lat="41.69819" lon="20.84362">
        <ele>1136.46625</ele>
        <time>2022-02-24T07:51:50.721Z</time>
      </trkpt>
      <trkpt lat="41.69753" lon="20.84422">
        <ele>1133.874135</ele>
        <time>2022-02-24T07:52:06.883Z</time>
      </trkpt>
      <trkpt lat="41.69718" lon="20.84436">
        <ele>1133.795942</ele>
        <time>2022-02-24T07:52:14.985Z</time>
      </trkpt>
      <trkpt lat="41.69677" lon="20.84439">
        <ele>1133.743201</ele>
        <time>2022-02-24T07:52:25.367Z</time>
      </trkpt>
      <trkpt lat="41.69649" lon="20.84431">
        <ele>1133.707275</ele>
        <time>2022-02-24T07:52:33.305Z</time>
      </trkpt>
      <trkpt lat="41.69616" lon="20.84401">
        <ele>1133.656746</ele>
        <time>2022-02-24T07:52:45.858Z</time>
      </trkpt>
      <trkpt lat="41.69591" lon="20.8436">
        <ele>1133.600484</ele>
        <time>2022-02-24T07:52:58.836Z</time>
      </trkpt>
      <trkpt lat="41.69572" lon="20.84341">
        <ele>1133.534836</ele>
        <time>2022-02-24T07:53:06.338Z</time>
      </trkpt>
      <trkpt lat="41.69535" lon="20.84329">
        <ele>1133.429773</ele>
        <time>2022-02-24T07:53:16.846Z</time>
      </trkpt>
      <trkpt lat="41.69506" lon="20.8434">
        <ele>1133.346904</ele>
        <time>2022-02-24T07:53:24.366Z</time>
      </trkpt>
      <trkpt lat="41.69457" lon="20.84393">
        <ele>1133.173672</ele>
        <time>2022-02-24T07:53:38.471Z</time>
      </trkpt>
      <trkpt lat="41.69433" lon="20.84411">
        <ele>1133.313202</ele>
        <time>2022-02-24T07:53:44.731Z</time>
      </trkpt>
      <trkpt lat="41.69396" lon="20.84417">
        <ele>1134.291371</ele>
        <time>2022-02-24T07:53:54.185Z</time>
      </trkpt>
      <trkpt lat="41.69365" lon="20.84408">
        <ele>1135.09794</ele>
        <time>2022-02-24T07:54:03.113Z</time>
      </trkpt>
      <trkpt lat="41.69342" lon="20.8439">
        <ele>1135.797546</ele>
        <time>2022-02-24T07:54:12.002Z</time>
      </trkpt>
      <trkpt lat="41.69324" lon="20.84368">
        <ele>1136.414909</ele>
        <time>2022-02-24T07:54:20.852Z</time>
      </trkpt>
      <trkpt lat="41.69242" lon="20.84142">
        <ele>1148.025645</ele>
        <time>2022-02-24T07:56:18.103Z</time>
      </trkpt>
      <trkpt lat="41.69226" lon="20.84124">
        <ele>1149.600074</ele>
        <time>2022-02-24T07:56:33.390Z</time>
      </trkpt>
      <trkpt lat="41.69206" lon="20.84113">
        <ele>1151.199194</ele>
        <time>2022-02-24T07:56:47.648Z</time>
      </trkpt>
      <trkpt lat="41.69173" lon="20.8412">
        <ele>1152.616897</ele>
        <time>2022-02-24T07:57:09.387Z</time>
      </trkpt>
      <trkpt lat="41.69157" lon="20.84136">
        <ele>1153.4361</ele>
        <time>2022-02-24T07:57:22.070Z</time>
      </trkpt>
      <trkpt lat="41.69144" lon="20.84172">
        <ele>1154.629805</ele>
        <time>2022-02-24T07:57:39.390Z</time>
      </trkpt>
      <trkpt lat="41.69099" lon="20.84366">
        <ele>1157.342358</ele>
        <time>2022-02-24T07:58:29.181Z</time>
      </trkpt>
      <trkpt lat="41.69083" lon="20.84508">
        <ele>1154.781819</ele>
        <time>2022-02-24T07:58:49.525Z</time>
      </trkpt>
      <trkpt lat="41.69066" lon="20.84546">
        <ele>1153.906114</ele>
        <time>2022-02-24T07:58:55.490Z</time>
      </trkpt>
      <trkpt lat="41.69055" lon="20.8456">
        <ele>1153.417873</ele>
        <time>2022-02-24T07:58:58.313Z</time>
      </trkpt>
      <trkpt lat="41.69024" lon="20.84578">
        <ele>1152.365771</ele>
        <time>2022-02-24T07:59:04.474Z</time>
      </trkpt>
      <trkpt lat="41.68944" lon="20.84589">
        <ele>1149.844013</ele>
        <time>2022-02-24T07:59:20.259Z</time>
      </trkpt>
      <trkpt lat="41.68912" lon="20.84604">
        <ele>1148.76379</ele>
        <time>2022-02-24T07:59:27.664Z</time>
      </trkpt>
      <trkpt lat="41.68886" lon="20.84629">
        <ele>1148.527949</ele>
        <time>2022-02-24T07:59:34.812Z</time>
      </trkpt>
      <trkpt lat="41.68816" lon="20.84716">
        <ele>1148.060269</ele>
        <time>2022-02-24T07:59:58.942Z</time>
      </trkpt>
      <trkpt lat="41.68779" lon="20.84735">
        <ele>1147.869813</ele>
        <time>2022-02-24T08:00:10.018Z</time>
      </trkpt>
      <trkpt lat="41.68512" lon="20.84836">
        <ele>1147.07143</ele>
        <time>2022-02-24T08:01:24.515Z</time>
      </trkpt>
      <trkpt lat="41.68453" lon="20.84878">
        <ele>1146.416916</ele>
        <time>2022-02-24T08:01:38.824Z</time>
      </trkpt>
      <trkpt lat="41.68375" lon="20.84954">
        <ele>1145.950313</ele>
        <time>2022-02-24T08:01:59.453Z</time>
      </trkpt>
      <trkpt lat="41.68345" lon="20.84964">
        <ele>1145.874965</ele>
        <time>2022-02-24T08:02:06.295Z</time>
      </trkpt>
      <trkpt lat="41.68329" lon="20.84963">
        <ele>1145.835894</ele>
        <time>2022-02-24T08:02:10.072Z</time>
      </trkpt>
      <trkpt lat="41.68304" lon="20.8495">
        <ele>1145.77078</ele>
        <time>2022-02-24T08:02:17.288Z</time>
      </trkpt>
      <trkpt lat="41.68246" lon="20.84866">
        <ele>1147.796795</ele>
        <time>2022-02-24T08:02:50.889Z</time>
      </trkpt>
      <trkpt lat="41.68219" lon="20.84854">
        <ele>1149.188198</ele>
        <time>2022-02-24T08:03:05.152Z</time>
      </trkpt>
      <trkpt lat="41.68189" lon="20.84858">
        <ele>1150.649883</ele>
        <time>2022-02-24T08:03:21.124Z</time>
      </trkpt>
      <trkpt lat="41.68133" lon="20.8489">
        <ele>1153.559468</ele>
        <time>2022-02-24T08:03:54.615Z</time>
      </trkpt>
      <trkpt lat="41.68106" lon="20.84898">
        <ele>1155.027476</ele>
        <time>2022-02-24T08:04:10.742Z</time>
      </trkpt>
      <trkpt lat="41.67958" lon="20.84885">
        <ele>1164.194729</ele>
        <time>2022-02-24T08:05:37.389Z</time>
      </trkpt>
      <trkpt lat="41.67931" lon="20.84899">
        <ele>1165.919478</ele>
        <time>2022-02-24T08:05:51.631Z</time>
      </trkpt>
      <trkpt lat="41.67881" lon="20.84947">
        <ele>1169.340121</ele>
        <time>2022-02-24T08:06:21.456Z</time>
      </trkpt>
      <trkpt lat="41.67851" lon="20.84955">
        <ele>1171.03588</ele>
        <time>2022-02-24T08:06:36.875Z</time>
      </trkpt>
      <trkpt lat="41.67818" lon="20.84947">
        <ele>1172.851184</ele>
        <time>2022-02-24T08:06:54.070Z</time>
      </trkpt>
      <trkpt lat="41.67757" lon="20.84907">
        <ele>1177.3315</ele>
        <time>2022-02-24T08:07:32.927Z</time>
      </trkpt>
      <trkpt lat="41.67668" lon="20.84865">
        <ele>1185.53785</ele>
        <time>2022-02-24T08:08:35.547Z</time>
      </trkpt>
      <trkpt lat="41.6763" lon="20.84853">
        <ele>1188.983699</ele>
        <time>2022-02-24T08:09:05.504Z</time>
      </trkpt>
      <trkpt lat="41.67576" lon="20.8485">
        <ele>1193.741025</ele>
        <time>2022-02-24T08:09:48.900Z</time>
      </trkpt>
      <trkpt lat="41.67532" lon="20.84877">
        <ele>1198.084845</ele>
        <time>2022-02-24T08:10:26.638Z</time>
      </trkpt>
      <trkpt lat="41.67473" lon="20.84967">
        <ele>1206.012135</ele>
        <time>2022-02-24T08:11:26.325Z</time>
      </trkpt>
      <trkpt lat="41.67422" lon="20.85016">
        <ele>1208.444838</ele>
        <time>2022-02-24T08:12:00.071Z</time>
      </trkpt>
      <trkpt lat="41.67416" lon="20.85028">
        <ele>1208.73379</ele>
        <time>2022-02-24T08:12:05.052Z</time>
      </trkpt>
      <trkpt lat="41.67407" lon="20.8506">
        <ele>1209.407672</ele>
        <time>2022-02-24T08:12:15.726Z</time>
      </trkpt>
      <trkpt lat="41.67405" lon="20.85085">
        <ele>1209.909079</ele>
        <time>2022-02-24T08:12:22.511Z</time>
      </trkpt>
      <trkpt lat="41.6741" lon="20.85209">
        <ele>1211.735042</ele>
        <time>2022-02-24T08:12:47.129Z</time>
      </trkpt>
      <trkpt lat="41.67407" lon="20.85232">
        <ele>1211.620001</ele>
        <time>2022-02-24T08:12:50.900Z</time>
      </trkpt>
      <trkpt lat="41.67386" lon="20.8527">
        <ele>1211.381826</ele>
        <time>2022-02-24T08:12:58.993Z</time>
      </trkpt>
      <trkpt lat="41.67371" lon="20.85283">
        <ele>1211.261022</ele>
        <time>2022-02-24T08:13:03.382Z</time>
      </trkpt>
      <trkpt lat="41.67354" lon="20.85289">
        <ele>1211.145164</ele>
        <time>2022-02-24T08:13:07.573Z</time>
      </trkpt>
      <trkpt lat="41.67284" lon="20.85296">
        <ele>1210.668391</ele>
        <time>2022-02-24T08:13:23.862Z</time>
      </trkpt>
      <trkpt lat="41.67257" lon="20.85304">
        <ele>1210.66081</ele>
        <time>2022-02-24T08:13:31.190Z</time>
      </trkpt>
      <trkpt lat="41.67212" lon="20.85349">
        <ele>1210.680327</ele>
        <time>2022-02-24T08:13:45.220Z</time>
      </trkpt>
      <trkpt lat="41.67208" lon="20.85356">
        <ele>1210.682608</ele>
        <time>2022-02-24T08:13:47.862Z</time>
      </trkpt>
      <trkpt lat="41.67193" lon="20.85377">
        <ele>1210.690144</ele>
        <time>2022-02-24T08:13:52.557Z</time>
      </trkpt>
      <trkpt lat="41.67182" lon="20.85386">
        <ele>1210.694717</ele>
        <time>2022-02-24T08:13:57.901Z</time>
      </trkpt>
      <trkpt lat="41.67161" lon="20.854">
        <ele>1210.702951</ele>
        <time>2022-02-24T08:14:03.735Z</time>
      </trkpt>
      <trkpt lat="41.6716" lon="20.85401">
        <ele>1210.703312</ele>
        <time>2022-02-24T08:14:04.302Z</time>
      </trkpt>
      <trkpt lat="41.67143" lon="20.85415">
        <ele>1210.710158</ele>
        <time>2022-02-24T08:14:11.549Z</time>
      </trkpt>
      <trkpt lat="41.67126" lon="20.8543">
        <ele>1210.805082</ele>
        <time>2022-02-24T08:14:17.433Z</time>
      </trkpt>
      <trkpt lat="41.67117" lon="20.85444">
        <ele>1210.962009</ele>
        <time>2022-02-24T08:14:22.870Z</time>
      </trkpt>
      <trkpt lat="41.67105" lon="20.85451">
        <ele>1211.109925</ele>
        <time>2022-02-24T08:14:25.894Z</time>
      </trkpt>
      <trkpt lat="41.67084" lon="20.85467">
        <ele>1211.374542</ele>
        <time>2022-02-24T08:14:34.371Z</time>
      </trkpt>
      <trkpt lat="41.66984" lon="20.85579">
        <ele>1212.588227</ele>
        <time>2022-02-24T08:15:17.334Z</time>
      </trkpt>
      <trkpt lat="41.66957" lon="20.85618">
        <ele>1211.962188</ele>
        <time>2022-02-24T08:15:29.389Z</time>
      </trkpt>
      <trkpt lat="41.66942" lon="20.85632">
        <ele>1211.680015</ele>
        <time>2022-02-24T08:15:34.499Z</time>
      </trkpt>
      <trkpt lat="41.66921" lon="20.85638">
        <ele>1211.344861</ele>
        <time>2022-02-24T08:15:39.940Z</time>
      </trkpt>
      <trkpt lat="41.66902" lon="20.85636">
        <ele>1211.042194</ele>
        <time>2022-02-24T08:15:44.279Z</time>
      </trkpt>
      <trkpt lat="41.66879" lon="20.85623">
        <ele>1210.650003</ele>
        <time>2022-02-24T08:15:49.527Z</time>
      </trkpt>
      <trkpt lat="41.668" lon="20.85534">
        <ele>1205.331666</ele>
        <time>2022-02-24T08:16:08.336Z</time>
      </trkpt>
      <trkpt lat="41.66755" lon="20.85507">
        <ele>1201.37761</ele>
        <time>2022-02-24T08:16:16.466Z</time>
      </trkpt>
      <trkpt lat="41.66727" lon="20.855">
        <ele>1199.098293</ele>
        <time>2022-02-24T08:16:21.077Z</time>
      </trkpt>
      <trkpt lat="41.66704" lon="20.85503">
        <ele>1197.221078</ele>
        <time>2022-02-24T08:16:24.863Z</time>
      </trkpt>
      <trkpt lat="41.66671" lon="20.85516">
        <ele>1194.365046</ele>
        <time>2022-02-24T08:16:30.394Z</time>
      </trkpt>
      <trkpt lat="41.66623" lon="20.85548">
        <ele>1189.494207</ele>
        <time>2022-02-24T08:16:39.159Z</time>
      </trkpt>
      <trkpt lat="41.66551" lon="20.85561">
        <ele>1182.907324</ele>
        <time>2022-02-24T08:16:51.195Z</time>
      </trkpt>
      <trkpt lat="41.66504" lon="20.85576">
        <ele>1178.72209</ele>
        <time>2022-02-24T08:16:59.393Z</time>
      </trkpt>
      <trkpt lat="41.66469" lon="20.85616">
        <ele>1175.825378</ele>
        <time>2022-02-24T08:17:07.400Z</time>
      </trkpt>
      <trkpt lat="41.66432" lon="20.85683">
        <ele>1171.848555</ele>
        <time>2022-02-24T08:17:18.640Z</time>
      </trkpt>
      <trkpt lat="41.66413" lon="20.85698">
        <ele>1170.425017</ele>
        <time>2022-02-24T08:17:22.628Z</time>
      </trkpt>
      <trkpt lat="41.66373" lon="20.85707">
        <ele>1167.87701</ele>
        <time>2022-02-24T08:17:29.620Z</time>
      </trkpt>
      <trkpt lat="41.66331" lon="20.85697">
        <ele>1163.511756</ele>
        <time>2022-02-24T08:17:36.878Z</time>
      </trkpt>
      <trkpt lat="41.66246" lon="20.85715">
        <ele>1154.502176</ele>
        <time>2022-02-24T08:17:50.919Z</time>
      </trkpt>
      <trkpt lat="41.66137" lon="20.85691">
        <ele>1141.984065</ele>
        <time>2022-02-24T08:18:08.272Z</time>
      </trkpt>
      <trkpt lat="41.66101" lon="20.8571">
        <ele>1137.220059</ele>
        <time>2022-02-24T08:18:14.359Z</time>
      </trkpt>
      <trkpt lat="41.66089" lon="20.85728">
        <ele>1135.009412</ele>
        <time>2022-02-24T08:18:17.192Z</time>
      </trkpt>
      <trkpt lat="41.66079" lon="20.85768">
        <ele>1131.105563</ele>
        <time>2022-02-24T08:18:22.243Z</time>
      </trkpt>
      <trkpt lat="41.66099" lon="20.85856">
        <ele>1124.098987</ele>
        <time>2022-02-24T08:18:33.389Z</time>
      </trkpt>
      <trkpt lat="41.66103" lon="20.85885">
        <ele>1122.299275</ele>
        <time>2022-02-24T08:18:37.129Z</time>
      </trkpt>
      <trkpt lat="41.66099" lon="20.8591">
        <ele>1120.761295</ele>
        <time>2022-02-24T08:18:40.347Z</time>
      </trkpt>
      <trkpt lat="41.66078" lon="20.8595">
        <ele>1117.844042</ele>
        <time>2022-02-24T08:18:46.520Z</time>
      </trkpt>
      <trkpt lat="41.65981" lon="20.86057">
        <ele>1108.467501</ele>
        <time>2022-02-24T08:19:08.113Z</time>
      </trkpt>
      <trkpt lat="41.6596" lon="20.86109">
        <ele>1105.419705</ele>
        <time>2022-02-24T08:19:15.860Z</time>
      </trkpt>
      <trkpt lat="41.65939" lon="20.86176">
        <ele>1101.763051</ele>
        <time>2022-02-24T08:19:25.167Z</time>
      </trkpt>
      <trkpt lat="41.65887" lon="20.86275">
        <ele>1096.354336</ele>
        <time>2022-02-24T08:19:40.787Z</time>
      </trkpt>
      <trkpt lat="41.65882" lon="20.86316">
        <ele>1094.574925</ele>
        <time>2022-02-24T08:19:46.273Z</time>
      </trkpt>
      <trkpt lat="41.65883" lon="20.86342">
        <ele>1093.429044</ele>
        <time>2022-02-24T08:19:49.887Z</time>
      </trkpt>
      <trkpt lat="41.65906" lon="20.86462">
        <ele>1088.463003</ele>
        <time>2022-02-24T08:20:06.774Z</time>
      </trkpt>
      <trkpt lat="41.65907" lon="20.86477">
        <ele>1087.944791</ele>
        <time>2022-02-24T08:20:08.795Z</time>
      </trkpt>
      <trkpt lat="41.65908" lon="20.86485">
        <ele>1087.659274</ele>
        <time>2022-02-24T08:20:09.811Z</time>
      </trkpt>
      <trkpt lat="41.65904" lon="20.86537">
        <ele>1085.823523</ele>
        <time>2022-02-24T08:20:16.989Z</time>
      </trkpt>
      <trkpt lat="41.65893" lon="20.86596">
        <ele>1083.679008</ele>
        <time>2022-02-24T08:20:25.540Z</time>
      </trkpt>
      <trkpt lat="41.65893" lon="20.86647">
        <ele>1081.918132</ele>
        <time>2022-02-24T08:20:32.489Z</time>
      </trkpt>
      <trkpt lat="41.65899" lon="20.86671">
        <ele>1080.91647</ele>
        <time>2022-02-24T08:20:35.843Z</time>
      </trkpt>
      <trkpt lat="41.6591" lon="20.86695">
        <ele>1079.59186</ele>
        <time>2022-02-24T08:20:39.756Z</time>
      </trkpt>
      <trkpt lat="41.65934" lon="20.86745">
        <ele>1076.801109</ele>
        <time>2022-02-24T08:20:47.654Z</time>
      </trkpt>
      <trkpt lat="41.65942" lon="20.86774">
        <ele>1075.323005</ele>
        <time>2022-02-24T08:20:51.893Z</time>
      </trkpt>
      <trkpt lat="41.65945" lon="20.86814">
        <ele>1073.465393</ele>
        <time>2022-02-24T08:20:57.027Z</time>
      </trkpt>
      <trkpt lat="41.65934" lon="20.86847">
        <ele>1071.771729</ele>
        <time>2022-02-24T08:21:01.643Z</time>
      </trkpt>
      <trkpt lat="41.65806" lon="20.87043">
        <ele>1055.720876</ele>
        <time>2022-02-24T08:21:34.112Z</time>
      </trkpt>
      <trkpt lat="41.65792" lon="20.87079">
        <ele>1053.24483</ele>
        <time>2022-02-24T08:21:39.121Z</time>
      </trkpt>
      <trkpt lat="41.65788" lon="20.87125">
        <ele>1050.583428</ele>
        <time>2022-02-24T08:21:44.782Z</time>
      </trkpt>
      <trkpt lat="41.65798" lon="20.87168">
        <ele>1048.0227</ele>
        <time>2022-02-24T08:21:50.269Z</time>
      </trkpt>
      <trkpt lat="41.65826" lon="20.8722">
        <ele>1044.390703</ele>
        <time>2022-02-24T08:21:58.255Z</time>
      </trkpt>
      <trkpt lat="41.65852" lon="20.87327">
        <ele>1040.295944</ele>
        <time>2022-02-24T08:22:13.715Z</time>
      </trkpt>
      <trkpt lat="41.65903" lon="20.87387">
        <ele>1039.274792</ele>
        <time>2022-02-24T08:22:29.300Z</time>
      </trkpt>
      <trkpt lat="41.6592" lon="20.87423">
        <ele>1038.786689</ele>
        <time>2022-02-24T08:22:38.398Z</time>
      </trkpt>
      <trkpt lat="41.65924" lon="20.87445">
        <ele>1038.538306</ele>
        <time>2022-02-24T08:22:43.231Z</time>
      </trkpt>
      <trkpt lat="41.65919" lon="20.8749">
        <ele>1037.737234</ele>
        <time>2022-02-24T08:22:53.364Z</time>
      </trkpt>
      <trkpt lat="41.65896" lon="20.87523">
        <ele>1036.125455</ele>
        <time>2022-02-24T08:23:03.648Z</time>
      </trkpt>
      <trkpt lat="41.65867" lon="20.87537">
        <ele>1034.65335</ele>
        <time>2022-02-24T08:23:10.815Z</time>
      </trkpt>
      <trkpt lat="41.65752" lon="20.87504">
        <ele>1028.291979</ele>
        <time>2022-02-24T08:23:30.748Z</time>
      </trkpt>
      <trkpt lat="41.65728" lon="20.87505">
        <ele>1025.616973</ele>
        <time>2022-02-24T08:23:34.741Z</time>
      </trkpt>
      <trkpt lat="41.65704" lon="20.8751">
        <ele>1022.880216</ele>
        <time>2022-02-24T08:23:38.663Z</time>
      </trkpt>
      <trkpt lat="41.6568" lon="20.87519">
        <ele>1020.143045</ele>
        <time>2022-02-24T08:23:42.627Z</time>
      </trkpt>
      <trkpt lat="41.65633" lon="20.87565">
        <ele>1013.715145</ele>
        <time>2022-02-24T08:23:51.891Z</time>
      </trkpt>
      <trkpt lat="41.65594" lon="20.87621">
        <ele>1007.558606</ele>
        <time>2022-02-24T08:24:00.876Z</time>
      </trkpt>
      <trkpt lat="41.65562" lon="20.87656">
        <ele>1003.36294</ele>
        <time>2022-02-24T08:24:07.597Z</time>
      </trkpt>
      <trkpt lat="41.65539" lon="20.87666">
        <ele>1000.897939</ele>
        <time>2022-02-24T08:24:11.619Z</time>
      </trkpt>
      <trkpt lat="41.65479" lon="20.87677">
        <ele>994.755494</ele>
        <time>2022-02-24T08:24:21.563Z</time>
      </trkpt>
      <trkpt lat="41.65455" lon="20.8769">
        <ele>992.087443</ele>
        <time>2022-02-24T08:24:25.884Z</time>
      </trkpt>
      <trkpt lat="41.6543" lon="20.87722">
        <ele>988.943138</ele>
        <time>2022-02-24T08:24:31.529Z</time>
      </trkpt>
      <trkpt lat="41.65423" lon="20.87741">
        <ele>987.496661</ele>
        <time>2022-02-24T08:24:34.214Z</time>
      </trkpt>
      <trkpt lat="41.65405" lon="20.87843">
        <ele>980.575505</ele>
        <time>2022-02-24T08:24:47.149Z</time>
      </trkpt>
      <trkpt lat="41.65387" lon="20.87896">
        <ele>976.683912</ele>
        <time>2022-02-24T08:24:54.447Z</time>
      </trkpt>
      <trkpt lat="41.65364" lon="20.87935">
        <ele>973.203322</ele>
        <time>2022-02-24T08:25:00.694Z</time>
      </trkpt>
      <trkpt lat="41.6533" lon="20.87969">
        <ele>969.21978</ele>
        <time>2022-02-24T08:25:07.589Z</time>
      </trkpt>
      <trkpt lat="41.65241" lon="20.88004">
        <ele>960.319149</ele>
        <time>2022-02-24T08:25:22.751Z</time>
      </trkpt>
      <trkpt lat="41.65217" lon="20.88034">
        <ele>957.18411</ele>
        <time>2022-02-24T08:25:28.114Z</time>
      </trkpt>
      <trkpt lat="41.65177" lon="20.88133">
        <ele>949.305033</ele>
        <time>2022-02-24T08:25:41.769Z</time>
      </trkpt>
      <trkpt lat="41.65098" lon="20.88276">
        <ele>939.290222</ele>
        <time>2022-02-24T08:26:03.892Z</time>
      </trkpt>
      <trkpt lat="41.65089" lon="20.88304">
        <ele>938.321065</ele>
        <time>2022-02-24T08:26:08.036Z</time>
      </trkpt>
      <trkpt lat="41.65086" lon="20.88325">
        <ele>937.631672</ele>
        <time>2022-02-24T08:26:11.061Z</time>
      </trkpt>
      <trkpt lat="41.65097" lon="20.8837">
        <ele>936.14684</ele>
        <time>2022-02-24T08:26:17.946Z</time>
      </trkpt>
      <trkpt lat="41.65147" lon="20.88435">
        <ele>933.490301</ele>
        <time>2022-02-24T08:26:33.719Z</time>
      </trkpt>
      <trkpt lat="41.65159" lon="20.8847">
        <ele>932.997652</ele>
        <time>2022-02-24T08:26:41.424Z</time>
      </trkpt>
      <trkpt lat="41.65161" lon="20.88487">
        <ele>932.769306</ele>
        <time>2022-02-24T08:26:45.052Z</time>
      </trkpt>
      <trkpt lat="41.65156" lon="20.88509">
        <ele>932.475964</ele>
        <time>2022-02-24T08:26:49.433Z</time>
      </trkpt>
      <trkpt lat="41.65133" lon="20.88544">
        <ele>931.892471</ele>
        <time>2022-02-24T08:26:57.805Z</time>
      </trkpt>
      <trkpt lat="41.65118" lon="20.88552">
        <ele>931.601745</ele>
        <time>2022-02-24T08:27:01.781Z</time>
      </trkpt>
      <trkpt lat="41.6509" lon="20.8855">
        <ele>931.119235</ele>
        <time>2022-02-24T08:27:07.773Z</time>
      </trkpt>
      <trkpt lat="41.65044" lon="20.88545">
        <ele>929.165399</ele>
        <time>2022-02-24T08:27:16.924Z</time>
      </trkpt>
      <trkpt lat="41.64997" lon="20.88527">
        <ele>924.584895</ele>
        <time>2022-02-24T08:27:25.111Z</time>
      </trkpt>
      <trkpt lat="41.64899" lon="20.88446">
        <ele>913.610863</ele>
        <time>2022-02-24T08:27:43.530Z</time>
      </trkpt>
      <trkpt lat="41.64887" lon="20.88439">
        <ele>912.239929</ele>
        <time>2022-02-24T08:27:45.662Z</time>
      </trkpt>
      <trkpt lat="41.64874" lon="20.88436">
        <ele>910.963818</ele>
        <time>2022-02-24T08:27:47.780Z</time>
      </trkpt>
      <trkpt lat="41.64859" lon="20.88437">
        <ele>909.43153</ele>
        <time>2022-02-24T08:27:50.263Z</time>
      </trkpt>
      <trkpt lat="41.64844" lon="20.88444">
        <ele>907.890318</ele>
        <time>2022-02-24T08:27:52.693Z</time>
      </trkpt>
      <trkpt lat="41.64829" lon="20.88455">
        <ele>906.175496</ele>
        <time>2022-02-24T08:27:55.578Z</time>
      </trkpt>
      <trkpt lat="41.64805" lon="20.88479">
        <ele>903.167605</ele>
        <time>2022-02-24T08:28:00.471Z</time>
      </trkpt>
      <trkpt lat="41.64767" lon="20.88522">
        <ele>898.323336</ele>
        <time>2022-02-24T08:28:08.369Z</time>
      </trkpt>
      <trkpt lat="41.64681" lon="20.8861">
        <ele>891.828625</ele>
        <time>2022-02-24T08:28:28.278Z</time>
      </trkpt>
      <trkpt lat="41.64649" lon="20.88634">
        <ele>890.157815</ele>
        <time>2022-02-24T08:28:35.335Z</time>
      </trkpt>
      <trkpt lat="41.6456" lon="20.88671">
        <ele>885.629785</ele>
        <time>2022-02-24T08:28:53.064Z</time>
      </trkpt>
      <trkpt lat="41.64486" lon="20.8872">
        <ele>881.351257</ele>
        <time>2022-02-24T08:29:07.834Z</time>
      </trkpt>
      <trkpt lat="41.64399" lon="20.88755">
        <ele>876.289476</ele>
        <time>2022-02-24T08:29:23.764Z</time>
      </trkpt>
      <trkpt lat="41.64358" lon="20.88783">
        <ele>873.328458</ele>
        <time>2022-02-24T08:29:31.742Z</time>
      </trkpt>
      <trkpt lat="41.64325" lon="20.88823">
        <ele>870.486751</ele>
        <time>2022-02-24T08:29:39.401Z</time>
      </trkpt>
      <trkpt lat="41.64278" lon="20.88894">
        <ele>866.012552</ele>
        <time>2022-02-24T08:29:51.807Z</time>
      </trkpt>
      <trkpt lat="41.64178" lon="20.89013">
        <ele>859.844572</ele>
        <time>2022-02-24T08:30:15.838Z</time>
      </trkpt>
      <trkpt lat="41.64161" lon="20.89052">
        <ele>858.269443</ele>
        <time>2022-02-24T08:30:22.500Z</time>
      </trkpt>
      <trkpt lat="41.64118" lon="20.89184">
        <ele>856.0823</ele>
        <time>2022-02-24T08:30:45.397Z</time>
      </trkpt>
      <trkpt lat="41.64086" lon="20.89249">
        <ele>854.993671</ele>
        <time>2022-02-24T08:30:58.772Z</time>
      </trkpt>
      <trkpt lat="41.64078" lon="20.89277">
        <ele>854.547536</ele>
        <time>2022-02-24T08:31:03.841Z</time>
      </trkpt>
      <trkpt lat="41.64069" lon="20.89339">
        <ele>853.156443</ele>
        <time>2022-02-24T08:31:13.993Z</time>
      </trkpt>
      <trkpt lat="41.6407" lon="20.89495">
        <ele>849.695056</ele>
        <time>2022-02-24T08:31:36.708Z</time>
      </trkpt>
      <trkpt lat="41.64066" lon="20.8958">
        <ele>847.170147</ele>
        <time>2022-02-24T08:31:48.525Z</time>
      </trkpt>
      <trkpt lat="41.6405" lon="20.89652">
        <ele>844.818862</ele>
        <time>2022-02-24T08:31:58.813Z</time>
      </trkpt>
      <trkpt lat="41.64036" lon="20.8969">
        <ele>843.502429</ele>
        <time>2022-02-24T08:32:04.591Z</time>
      </trkpt>
      <trkpt lat="41.63992" lon="20.89774">
        <ele>840.625072</ele>
        <time>2022-02-24T08:32:19.036Z</time>
      </trkpt>
      <trkpt lat="41.63841" lon="20.89944">
        <ele>834.678873</ele>
        <time>2022-02-24T08:32:58.399Z</time>
      </trkpt>
      <trkpt lat="41.63796" lon="20.90006">
        <ele>833.022172</ele>
        <time>2022-02-24T08:33:11.512Z</time>
      </trkpt>
      <trkpt lat="41.63759" lon="20.90086">
        <ele>831.164952</ele>
        <time>2022-02-24T08:33:26.009Z</time>
      </trkpt>
      <trkpt lat="41.6374" lon="20.90146">
        <ele>829.74656</ele>
        <time>2022-02-24T08:33:35.856Z</time>
      </trkpt>
      <trkpt lat="41.63718" lon="20.90208">
        <ele>828.238152</ele>
        <time>2022-02-24T08:33:46.115Z</time>
      </trkpt>
      <trkpt lat="41.63712" lon="20.90224">
        <ele>827.858445</ele>
        <time>2022-02-24T08:33:48.600Z</time>
      </trkpt>
      <trkpt lat="41.63692" lon="20.90282">
        <ele>826.452706</ele>
        <time>2022-02-24T08:33:58.053Z</time>
      </trkpt>
      <trkpt lat="41.6368" lon="20.90319">
        <ele>825.404299</ele>
        <time>2022-02-24T08:34:03.878Z</time>
      </trkpt>
      <trkpt lat="41.63672" lon="20.90354">
        <ele>824.349907</ele>
        <time>2022-02-24T08:34:09.124Z</time>
      </trkpt>
      <trkpt lat="41.63646" lon="20.90543">
        <ele>818.817234</ele>
        <time>2022-02-24T08:34:36.130Z</time>
      </trkpt>
      <trkpt lat="41.63617" lon="20.90645">
        <ele>815.499495</ele>
        <time>2022-02-24T08:34:51.329Z</time>
      </trkpt>
      <trkpt lat="41.63604" lon="20.90676">
        <ele>814.427608</ele>
        <time>2022-02-24T08:34:56.248Z</time>
      </trkpt>
      <trkpt lat="41.63585" lon="20.90722">
        <ele>812.829348</ele>
        <time>2022-02-24T08:35:03.714Z</time>
      </trkpt>
      <trkpt lat="41.63563" lon="20.90771">
        <ele>811.321193</ele>
        <time>2022-02-24T08:35:11.825Z</time>
      </trkpt>
      <trkpt lat="41.63538" lon="20.90832">
        <ele>809.769045</ele>
        <time>2022-02-24T08:35:21.808Z</time>
      </trkpt>
      <trkpt lat="41.63529" lon="20.90835">
        <ele>809.480917</ele>
        <time>2022-02-24T08:35:23.921Z</time>
      </trkpt>
      <trkpt lat="41.635" lon="20.90848">
        <ele>808.570172</ele>
        <time>2022-02-24T08:35:30.387Z</time>
      </trkpt>
      <trkpt lat="41.6349" lon="20.90855">
        <ele>808.250832</ele>
        <time>2022-02-24T08:35:32.781Z</time>
      </trkpt>
      <trkpt lat="41.63486" lon="20.90868">
        <ele>807.934246</ele>
        <time>2022-02-24T08:35:34.909Z</time>
      </trkpt>
      <trkpt lat="41.63489" lon="20.90962">
        <ele>806.176468</ele>
        <time>2022-02-24T08:35:49.451Z</time>
      </trkpt>
      <trkpt lat="41.63474" lon="20.91052">
        <ele>805.114308</ele>
        <time>2022-02-24T08:36:06.109Z</time>
      </trkpt>
      <trkpt lat="41.6347" lon="20.91086">
        <ele>804.712706</ele>
        <time>2022-02-24T08:36:12.757Z</time>
      </trkpt>
      <trkpt lat="41.63461" lon="20.91104">
        <ele>804.457401</ele>
        <time>2022-02-24T08:36:16.886Z</time>
      </trkpt>
      <trkpt lat="41.63451" lon="20.91125">
        <ele>804.173427</ele>
        <time>2022-02-24T08:36:21.437Z</time>
      </trkpt>
      <trkpt lat="41.63446" lon="20.9114">
        <ele>803.989633</ele>
        <time>2022-02-24T08:36:23.975Z</time>
      </trkpt>
      <trkpt lat="41.63437" lon="20.91165">
        <ele>803.610658</ele>
        <time>2022-02-24T08:36:29.663Z</time>
      </trkpt>
      <trkpt lat="41.63407" lon="20.91277">
        <ele>801.374902</ele>
        <time>2022-02-24T08:36:48.301Z</time>
      </trkpt>
      <trkpt lat="41.63405" lon="20.91297">
        <ele>800.996729</ele>
        <time>2022-02-24T08:36:52.814Z</time>
      </trkpt>
      <trkpt lat="41.63407" lon="20.91313">
        <ele>800.693775</ele>
        <time>2022-02-24T08:36:55.026Z</time>
      </trkpt>
      <trkpt lat="41.63418" lon="20.91387">
        <ele>799.27678</ele>
        <time>2022-02-24T08:37:07.499Z</time>
      </trkpt>
      <trkpt lat="41.6342" lon="20.91405">
        <ele>798.836207</ele>
        <time>2022-02-24T08:37:10.050Z</time>
      </trkpt>
      <trkpt lat="41.63402" lon="20.91453">
        <ele>797.542259</ele>
        <time>2022-02-24T08:37:17.674Z</time>
      </trkpt>
      <trkpt lat="41.63375" lon="20.9151">
        <ele>795.929596</ele>
        <time>2022-02-24T08:37:27.231Z</time>
      </trkpt>
      <trkpt lat="41.6334" lon="20.91566">
        <ele>794.153019</ele>
        <time>2022-02-24T08:37:37.787Z</time>
      </trkpt>
      <trkpt lat="41.63289" lon="20.91629">
        <ele>792.635929</ele>
        <time>2022-02-24T08:37:52.571Z</time>
      </trkpt>
      <trkpt lat="41.63202" lon="20.91709">
        <ele>790.808092</ele>
        <time>2022-02-24T08:38:16.441Z</time>
      </trkpt>
      <trkpt lat="41.63029" lon="20.91824">
        <ele>786.847848</ele>
        <time>2022-02-24T08:38:56.745Z</time>
      </trkpt>
      <trkpt lat="41.62989" lon="20.91861">
        <ele>785.651025</ele>
        <time>2022-02-24T08:39:06.787Z</time>
      </trkpt>
      <trkpt lat="41.62957" lon="20.91893">
        <ele>784.642463</ele>
        <time>2022-02-24T08:39:14.792Z</time>
      </trkpt>
      <trkpt lat="41.62929" lon="20.91929">
        <ele>783.64737</ele>
        <time>2022-02-24T08:39:22.733Z</time>
      </trkpt>
      <trkpt lat="41.62904" lon="20.91964">
        <ele>782.742887</ele>
        <time>2022-02-24T08:39:29.930Z</time>
      </trkpt>
      <trkpt lat="41.62812" lon="20.92139">
        <ele>778.839936</ele>
        <time>2022-02-24T08:40:02.521Z</time>
      </trkpt>
      <trkpt lat="41.62763" lon="20.92218">
        <ele>777.200367</ele>
        <time>2022-02-24T08:40:18.404Z</time>
      </trkpt>
      <trkpt lat="41.62751" lon="20.92233">
        <ele>776.930313</ele>
        <time>2022-02-24T08:40:21.805Z</time>
      </trkpt>
      <trkpt lat="41.62715" lon="20.92262">
        <ele>776.235687</ele>
        <time>2022-02-24T08:40:31.015Z</time>
      </trkpt>
      <trkpt lat="41.62698" lon="20.92275">
        <ele>775.898523</ele>
        <time>2022-02-24T08:40:35.443Z</time>
      </trkpt>
      <trkpt lat="41.62684" lon="20.92287">
        <ele>775.626528</ele>
        <time>2022-02-24T08:40:39.165Z</time>
      </trkpt>
      <trkpt lat="41.62668" lon="20.92301">
        <ele>775.320441</ele>
        <time>2022-02-24T08:40:43.296Z</time>
      </trkpt>
      <trkpt lat="41.62636" lon="20.92342">
        <ele>774.589678</ele>
        <time>2022-02-24T08:40:53.356Z</time>
      </trkpt>
      <trkpt lat="41.62546" lon="20.9252">
        <ele>772.118014</ele>
        <time>2022-02-24T08:41:29.400Z</time>
      </trkpt>
      <trkpt lat="41.62539" lon="20.92532">
        <ele>771.942694</ele>
        <time>2022-02-24T08:41:31.525Z</time>
      </trkpt>
      <trkpt lat="41.62527" lon="20.92551">
        <ele>771.488631</ele>
        <time>2022-02-24T08:41:35.751Z</time>
      </trkpt>
      <trkpt lat="41.62512" lon="20.92573">
        <ele>770.936308</ele>
        <time>2022-02-24T08:41:39.998Z</time>
      </trkpt>
      <trkpt lat="41.62451" lon="20.92651">
        <ele>768.79075</ele>
        <time>2022-02-24T08:41:56.962Z</time>
      </trkpt>
      <trkpt lat="41.62397" lon="20.92707">
        <ele>767.105041</ele>
        <time>2022-02-24T08:42:10.629Z</time>
      </trkpt>
      <trkpt lat="41.62336" lon="20.9276">
        <ele>765.612474</ele>
        <time>2022-02-24T08:42:25.992Z</time>
      </trkpt>
      <trkpt lat="41.62175" lon="20.92874">
        <ele>761.827863</ele>
        <time>2022-02-24T08:43:04.917Z</time>
      </trkpt>
      <trkpt lat="41.62163" lon="20.92884">
        <ele>761.530528</ele>
        <time>2022-02-24T08:43:07.845Z</time>
      </trkpt>
      <trkpt lat="41.62152" lon="20.92894">
        <ele>761.245637</ele>
        <time>2022-02-24T08:43:10.670Z</time>
      </trkpt>
      <trkpt lat="41.62131" lon="20.92915">
        <ele>760.673578</ele>
        <time>2022-02-24T08:43:16.203Z</time>
      </trkpt>
      <trkpt lat="41.62076" lon="20.92988">
        <ele>758.659526</ele>
        <time>2022-02-24T08:43:31.775Z</time>
      </trkpt>
      <trkpt lat="41.61991" lon="20.93159">
        <ele>753.871882</ele>
        <time>2022-02-24T08:44:01.605Z</time>
      </trkpt>
      <trkpt lat="41.61934" lon="20.93248">
        <ele>751.363061</ele>
        <time>2022-02-24T08:44:18.845Z</time>
      </trkpt>
      <trkpt lat="41.61845" lon="20.93346">
        <ele>748.243609</ele>
        <time>2022-02-24T08:44:42.402Z</time>
      </trkpt>
      <trkpt lat="41.61746" lon="20.93435">
        <ele>745.436618</ele>
        <time>2022-02-24T08:45:07.152Z</time>
      </trkpt>
      <trkpt lat="41.61699" lon="20.93492">
        <ele>743.985607</ele>
        <time>2022-02-24T08:45:20.062Z</time>
      </trkpt>
      <trkpt lat="41.61664" lon="20.93549">
        <ele>742.731153</ele>
        <time>2022-02-24T08:45:30.988Z</time>
      </trkpt>
      <trkpt lat="41.61639" lon="20.93607">
        <ele>741.588263</ele>
        <time>2022-02-24T08:45:41.481Z</time>
      </trkpt>
      <trkpt lat="41.61623" lon="20.93657">
        <ele>740.715455</ele>
        <time>2022-02-24T08:45:50.085Z</time>
      </trkpt>
      <trkpt lat="41.61619" lon="20.93673">
        <ele>740.663188</ele>
        <time>2022-02-24T08:45:52.739Z</time>
      </trkpt>
      <trkpt lat="41.61605" lon="20.93635">
        <ele>740.535975</ele>
        <time>2022-02-24T08:46:00.577Z</time>
      </trkpt>
      <trkpt lat="41.616" lon="20.93625">
        <ele>740.501324</ele>
        <time>2022-02-24T08:46:02.688Z</time>
      </trkpt>
      <trkpt lat="41.6159" lon="20.9362">
        <ele>740.456654</ele>
        <time>2022-02-24T08:46:05.904Z</time>
      </trkpt>
      <trkpt lat="41.61536" lon="20.9363">
        <ele>740.240793</ele>
        <time>2022-02-24T08:46:20.056Z</time>
      </trkpt>
      <trkpt lat="41.61508" lon="20.93648">
        <ele>740.117854</ele>
        <time>2022-02-24T08:46:29.320Z</time>
      </trkpt>
      <trkpt lat="41.61404" lon="20.93658">
        <ele>740.327931</ele>
        <time>2022-02-24T08:47:02.366Z</time>
      </trkpt>
      <trkpt lat="41.61341" lon="20.93649">
        <ele>740.591917</ele>
        <time>2022-02-24T08:47:21.900Z</time>
      </trkpt>
      <trkpt lat="41.61326" lon="20.93654">
        <ele>740.655407</ele>
        <time>2022-02-24T08:47:26.261Z</time>
      </trkpt>
      <trkpt lat="41.61277" lon="20.93696">
        <ele>740.430306</ele>
        <time>2022-02-24T08:47:41.720Z</time>
      </trkpt>
      <trkpt lat="41.61219" lon="20.93711">
        <ele>739.884509</ele>
        <time>2022-02-24T08:47:56.112Z</time>
      </trkpt>
      <trkpt lat="41.61167" lon="20.93743">
        <ele>739.352004</ele>
        <time>2022-02-24T08:48:09.595Z</time>
      </trkpt>
      <trkpt lat="41.61095" lon="20.93745">
        <ele>738.577609</ele>
        <time>2022-02-24T08:48:26.364Z</time>
      </trkpt>
      <trkpt lat="41.61024" lon="20.93779">
        <ele>737.686129</ele>
        <time>2022-02-24T08:48:44.075Z</time>
      </trkpt>
      <trkpt lat="41.60987" lon="20.93783">
        <ele>737.245182</ele>
        <time>2022-02-24T08:48:53.053Z</time>
      </trkpt>
      <trkpt lat="41.60959" lon="20.93803">
        <ele>736.973448</ele>
        <time>2022-02-24T08:49:00.886Z</time>
      </trkpt>
      <trkpt lat="41.60933" lon="20.93847">
        <ele>737.047172</ele>
        <time>2022-02-24T08:49:11.212Z</time>
      </trkpt>
      <trkpt lat="41.60883" lon="20.93875">
        <ele>737.144218</ele>
        <time>2022-02-24T08:49:26.036Z</time>
      </trkpt>
      <trkpt lat="41.60877" lon="20.93876">
        <ele>737.154793</ele>
        <time>2022-02-24T08:49:27.583Z</time>
      </trkpt>
      <trkpt lat="41.6086" lon="20.93886">
        <ele>737.187784</ele>
        <time>2022-02-24T08:49:33.641Z</time>
      </trkpt>
      <trkpt lat="41.60848" lon="20.93889">
        <ele>737.208871</ele>
        <time>2022-02-24T08:49:37.104Z</time>
      </trkpt>
      <trkpt lat="41.60834" lon="20.93888">
        <ele>737.234279</ele>
        <time>2022-02-24T08:49:41.806Z</time>
      </trkpt>
      <trkpt lat="41.60826" lon="20.93898">
        <ele>737.253375</ele>
        <time>2022-02-24T08:49:45.472Z</time>
      </trkpt>
      <trkpt lat="41.60792" lon="20.93924">
        <ele>738.037375</ele>
        <time>2022-02-24T08:49:58.966Z</time>
      </trkpt>
      <trkpt lat="41.60778" lon="20.93929">
        <ele>738.471871</ele>
        <time>2022-02-24T08:50:03.691Z</time>
      </trkpt>
      <trkpt lat="41.60763" lon="20.93932">
        <ele>738.95433</ele>
        <time>2022-02-24T08:50:10.085Z</time>
      </trkpt>
      <trkpt lat="41.60718" lon="20.93925">
        <ele>740.351951</ele>
        <time>2022-02-24T08:50:27.813Z</time>
      </trkpt>
      <trkpt lat="41.60663" lon="20.93934">
        <ele>742.045557</ele>
        <time>2022-02-24T08:50:54.285Z</time>
      </trkpt>
      <trkpt lat="41.6062" lon="20.93962">
        <ele>743.638497</ele>
        <time>2022-02-24T08:51:20.161Z</time>
      </trkpt>
      <trkpt lat="41.60581" lon="20.93947">
        <ele>745.070277</ele>
        <time>2022-02-24T08:51:39.251Z</time>
      </trkpt>
      <trkpt lat="41.60557" lon="20.93931">
        <ele>746.028954</ele>
        <time>2022-02-24T08:51:52.405Z</time>
      </trkpt>
      <trkpt lat="41.6054" lon="20.93947">
        <ele>746.793251</ele>
        <time>2022-02-24T08:52:01.424Z</time>
      </trkpt>
      <trkpt lat="41.60522" lon="20.93927">
        <ele>747.608661</ele>
        <time>2022-02-24T08:52:11.343Z</time>
      </trkpt>
      <trkpt lat="41.605" lon="20.93922">
        <ele>748.414312</ele>
        <time>2022-02-24T08:52:21.504Z</time>
      </trkpt>
      <trkpt lat="41.60498" lon="20.93943">
        <ele>748.988497</ele>
        <time>2022-02-24T08:52:27.312Z</time>
      </trkpt>
      <trkpt lat="41.60493" lon="20.93959">
        <ele>749.28828</ele>
        <time>2022-02-24T08:52:32.709Z</time>
      </trkpt>
      <trkpt lat="41.60478" lon="20.93983">
        <ele>749.46539</ele>
        <time>2022-02-24T08:52:41.302Z</time>
      </trkpt>
      <trkpt lat="41.6036" lon="20.94035">
        <ele>750.436387</ele>
        <time>2022-02-24T08:53:18.422Z</time>
      </trkpt>
      <trkpt lat="41.60312" lon="20.94048">
        <ele>750.814832</ele>
        <time>2022-02-24T08:53:31.709Z</time>
      </trkpt>
      <trkpt lat="41.60276" lon="20.94071">
        <ele>751.113885</ele>
        <time>2022-02-24T08:53:43.134Z</time>
      </trkpt>
      <trkpt lat="41.60259" lon="20.94073">
        <ele>751.245868</ele>
        <time>2022-02-24T08:53:48.300Z</time>
      </trkpt>
      <trkpt lat="41.60229" lon="20.94064">
        <ele>751.478759</ele>
        <time>2022-02-24T08:53:57.622Z</time>
      </trkpt>
      <trkpt lat="41.60238" lon="20.94052">
        <ele>751.575326</ele>
        <time>2022-02-24T08:54:01.826Z</time>
      </trkpt>
      <trkpt lat="41.60204" lon="20.94039">
        <ele>751.841394</ele>
        <time>2022-02-24T08:54:13.147Z</time>
      </trkpt>
      <trkpt lat="41.60111" lon="20.93981">
        <ele>753.986128</ele>
        <time>2022-02-24T08:54:51.631Z</time>
      </trkpt>
      <trkpt lat="41.60082" lon="20.93972">
        <ele>754.71238</ele>
        <time>2022-02-24T08:55:03.437Z</time>
      </trkpt>
      <trkpt lat="41.60052" lon="20.93953">
        <ele>755.540073</ele>
        <time>2022-02-24T08:55:17.235Z</time>
      </trkpt>
      <trkpt lat="41.60037" lon="20.93953">
        <ele>755.893303</ele>
        <time>2022-02-24T08:55:23.880Z</time>
      </trkpt>
      <trkpt lat="41.60002" lon="20.93962">
        <ele>756.911511</ele>
        <time>2022-02-24T08:55:39.078Z</time>
      </trkpt>
      <trkpt lat="41.59969" lon="20.93966">
        <ele>758.047201</ele>
        <time>2022-02-24T08:55:53.424Z</time>
      </trkpt>
      <trkpt lat="41.59866" lon="20.93925">
        <ele>761.725565</ele>
        <time>2022-02-24T08:56:41.951Z</time>
      </trkpt>
      <trkpt lat="41.59771" lon="20.93915">
        <ele>764.001625</ele>
        <time>2022-02-24T08:57:24.405Z</time>
      </trkpt>
      <trkpt lat="41.59715" lon="20.93885">
        <ele>765.235888</ele>
        <time>2022-02-24T08:57:45.871Z</time>
      </trkpt>
      <trkpt lat="41.59704" lon="20.93886">
        <ele>765.454778</ele>
        <time>2022-02-24T08:57:50.808Z</time>
      </trkpt>
      <trkpt lat="41.59694" lon="20.93887">
        <ele>765.66135</ele>
        <time>2022-02-24T08:57:53.315Z</time>
      </trkpt>
      <trkpt lat="41.59662" lon="20.93901">
        <ele>766.116496</ele>
        <time>2022-02-24T08:58:03.875Z</time>
      </trkpt>
      <trkpt lat="41.59632" lon="20.93904">
        <ele>765.45118</ele>
        <time>2022-02-24T08:58:12.899Z</time>
      </trkpt>
      <trkpt lat="41.59534" lon="20.93968">
        <ele>763.10683</ele>
        <time>2022-02-24T08:58:36.648Z</time>
      </trkpt>
      <trkpt lat="41.59499" lon="20.94016">
        <ele>761.362705</ele>
        <time>2022-02-24T08:58:46.172Z</time>
      </trkpt>
      <trkpt lat="41.59458" lon="20.94048">
        <ele>758.213395</ele>
        <time>2022-02-24T08:58:55.124Z</time>
      </trkpt>
      <trkpt lat="41.59447" lon="20.94052">
        <ele>757.439959</ele>
        <time>2022-02-24T08:58:57.224Z</time>
      </trkpt>
      <trkpt lat="41.59383" lon="20.94098">
        <ele>752.626475</ele>
        <time>2022-02-24T08:59:10.101Z</time>
      </trkpt>
      <trkpt lat="41.5936" lon="20.94117">
        <ele>750.80678</ele>
        <time>2022-02-24T08:59:14.979Z</time>
      </trkpt>
      <trkpt lat="41.59328" lon="20.94132">
        <ele>748.312955</ele>
        <time>2022-02-24T08:59:20.968Z</time>
      </trkpt>
      <trkpt lat="41.59306" lon="20.94151">
        <ele>746.402499</ele>
        <time>2022-02-24T08:59:25.451Z</time>
      </trkpt>
      <trkpt lat="41.59295" lon="20.9416">
        <ele>745.444287</ele>
        <time>2022-02-24T08:59:27.669Z</time>
      </trkpt>
      <trkpt lat="41.5928" lon="20.94163">
        <ele>744.269132</ele>
        <time>2022-02-24T08:59:30.378Z</time>
      </trkpt>
      <trkpt lat="41.59251" lon="20.94163">
        <ele>742.10233</ele>
        <time>2022-02-24T08:59:35.527Z</time>
      </trkpt>
      <trkpt lat="41.59235" lon="20.94152">
        <ele>740.712601</ele>
        <time>2022-02-24T08:59:38.902Z</time>
      </trkpt>
      <trkpt lat="41.59204" lon="20.94114">
        <ele>737.617035</ele>
        <time>2022-02-24T08:59:46.381Z</time>
      </trkpt>
      <trkpt lat="41.5916" lon="20.94111">
        <ele>735.317551</ele>
        <time>2022-02-24T08:59:54.463Z</time>
      </trkpt>
      <trkpt lat="41.5916" lon="20.94123">
        <ele>734.903047</ele>
        <time>2022-02-24T08:59:56.048Z</time>
      </trkpt>
      <trkpt lat="41.59148" lon="20.94183">
        <ele>732.801535</ele>
        <time>2022-02-24T09:00:05.253Z</time>
      </trkpt>
      <trkpt lat="41.59149" lon="20.94247">
        <ele>730.619821</ele>
        <time>2022-02-24T09:00:15.085Z</time>
      </trkpt>
      <trkpt lat="41.59143" lon="20.94273">
        <ele>729.694006</ele>
        <time>2022-02-24T09:00:18.973Z</time>
      </trkpt>
      <trkpt lat="41.59112" lon="20.94269">
        <ele>728.420699</ele>
        <time>2022-02-24T09:00:25.220Z</time>
      </trkpt>
      <trkpt lat="41.59048" lon="20.94274">
        <ele>726.359004</ele>
        <time>2022-02-24T09:00:38.639Z</time>
      </trkpt>
      <trkpt lat="41.59032" lon="20.9427">
        <ele>725.80811</ele>
        <time>2022-02-24T09:00:42.121Z</time>
      </trkpt>
      <trkpt lat="41.59009" lon="20.94302">
        <ele>724.742434</ele>
        <time>2022-02-24T09:00:48.790Z</time>
      </trkpt>
      <trkpt lat="41.58979" lon="20.94328">
        <ele>723.571483</ele>
        <time>2022-02-24T09:00:56.333Z</time>
      </trkpt>
      <trkpt lat="41.58922" lon="20.94391">
        <ele>720.607568</ele>
        <time>2022-02-24T09:01:11.050Z</time>
      </trkpt>
      <trkpt lat="41.58798" lon="20.94461">
        <ele>714.761889</ele>
        <time>2022-02-24T09:01:36.913Z</time>
      </trkpt>
      <trkpt lat="41.58768" lon="20.9449">
        <ele>713.15282</ele>
        <time>2022-02-24T09:01:43.985Z</time>
      </trkpt>
      <trkpt lat="41.58718" lon="20.94513">
        <ele>710.801846</ele>
        <time>2022-02-24T09:01:54.462Z</time>
      </trkpt>
      <trkpt lat="41.58696" lon="20.94515">
        <ele>709.859128</ele>
        <time>2022-02-24T09:01:58.697Z</time>
      </trkpt>
      <trkpt lat="41.58585" lon="20.94519">
        <ele>705.341051</ele>
        <time>2022-02-24T09:02:20.530Z</time>
      </trkpt>
      <trkpt lat="41.58516" lon="20.94509">
        <ele>702.793425</ele>
        <time>2022-02-24T09:02:34.438Z</time>
      </trkpt>
      <trkpt lat="41.58488" lon="20.94504">
        <ele>701.772002</ele>
        <time>2022-02-24T09:02:40.180Z</time>
      </trkpt>
      <trkpt lat="41.58489" lon="20.94515">
        <ele>701.476626</ele>
        <time>2022-02-24T09:02:41.653Z</time>
      </trkpt>
      <trkpt lat="41.58481" lon="20.9454">
        <ele>700.724655</ele>
        <time>2022-02-24T09:02:45.678Z</time>
      </trkpt>
      <trkpt lat="41.58325" lon="20.94632">
        <ele>696.121627</ele>
        <time>2022-02-24T09:03:19.445Z</time>
      </trkpt>
      <trkpt lat="41.58311" lon="20.94658">
        <ele>695.639426</ele>
        <time>2022-02-24T09:03:24.666Z</time>
      </trkpt>
      <trkpt lat="41.58257" lon="20.94822">
        <ele>693.850101</ele>
        <time>2022-02-24T09:03:55.391Z</time>
      </trkpt>
      <trkpt lat="41.58243" lon="20.94836">
        <ele>693.620707</ele>
        <time>2022-02-24T09:03:59.391Z</time>
      </trkpt>
      <trkpt lat="41.58208" lon="20.94861">
        <ele>692.95359</ele>
        <time>2022-02-24T09:04:08.605Z</time>
      </trkpt>
      <trkpt lat="41.58165" lon="20.94878">
        <ele>692.107955</ele>
        <time>2022-02-24T09:04:18.546Z</time>
      </trkpt>
      <trkpt lat="41.58056" lon="20.94884">
        <ele>690.026785</ele>
        <time>2022-02-24T09:04:41.503Z</time>
      </trkpt>
      <trkpt lat="41.5801" lon="20.94922">
        <ele>688.397268</ele>
        <time>2022-02-24T09:04:52.074Z</time>
      </trkpt>
      <trkpt lat="41.57995" lon="20.94956">
        <ele>687.496953</ele>
        <time>2022-02-24T09:04:57.712Z</time>
      </trkpt>
      <trkpt lat="41.57982" lon="20.95025">
        <ele>685.867593</ele>
        <time>2022-02-24T09:05:08.145Z</time>
      </trkpt>
      <trkpt lat="41.57977" lon="20.95043">
        <ele>685.420021</ele>
        <time>2022-02-24T09:05:10.848Z</time>
      </trkpt>
      <trkpt lat="41.57819" lon="20.95082">
        <ele>681.396186</ele>
        <time>2022-02-24T09:05:43.036Z</time>
      </trkpt>
      <trkpt lat="41.57742" lon="20.95101">
        <ele>679.718853</ele>
        <time>2022-02-24T09:06:00.386Z</time>
      </trkpt>
      <trkpt lat="41.5769" lon="20.95123">
        <ele>678.828525</ele>
        <time>2022-02-24T09:06:12.227Z</time>
      </trkpt>
      <trkpt lat="41.57666" lon="20.95138">
        <ele>678.396052</ele>
        <time>2022-02-24T09:06:17.993Z</time>
      </trkpt>
      <trkpt lat="41.57591" lon="20.95229">
        <ele>676.703383</ele>
        <time>2022-02-24T09:06:39.881Z</time>
      </trkpt>
      <trkpt lat="41.57551" lon="20.95264">
        <ele>675.892754</ele>
        <time>2022-02-24T09:06:50.064Z</time>
      </trkpt>
      <trkpt lat="41.57421" lon="20.95311">
        <ele>673.502163</ele>
        <time>2022-02-24T09:07:19.440Z</time>
      </trkpt>
      <trkpt lat="41.57398" lon="20.95329">
        <ele>672.989895</ele>
        <time>2022-02-24T09:07:25.342Z</time>
      </trkpt>
      <trkpt lat="41.57384" lon="20.95346">
        <ele>672.615779</ele>
        <time>2022-02-24T09:07:29.302Z</time>
      </trkpt>
      <trkpt lat="41.57249" lon="20.95521">
        <ele>668.859823</ele>
        <time>2022-02-24T09:08:08.537Z</time>
      </trkpt>
      <trkpt lat="41.57214" lon="20.95557">
        <ele>667.946168</ele>
        <time>2022-02-24T09:08:17.693Z</time>
      </trkpt>
      <trkpt lat="41.57155" lon="20.95607">
        <ele>666.633204</ele>
        <time>2022-02-24T09:08:32.630Z</time>
      </trkpt>
      <trkpt lat="41.57125" lon="20.95628">
        <ele>666.148544</ele>
        <time>2022-02-24T09:08:40.009Z</time>
      </trkpt>
      <trkpt lat="41.57096" lon="20.95642">
        <ele>665.711793</ele>
        <time>2022-02-24T09:08:46.795Z</time>
      </trkpt>
      <trkpt lat="41.57026" lon="20.95675">
        <ele>664.651155</ele>
        <time>2022-02-24T09:09:03.382Z</time>
      </trkpt>
      <trkpt lat="41.56955" lon="20.95703">
        <ele>663.790104</ele>
        <time>2022-02-24T09:09:20.324Z</time>
      </trkpt>
      <trkpt lat="41.56901" lon="20.95724">
        <ele>663.196087</ele>
        <time>2022-02-24T09:09:33.244Z</time>
      </trkpt>
      <trkpt lat="41.56864" lon="20.95738">
        <ele>662.791216</ele>
        <time>2022-02-24T09:09:42.113Z</time>
      </trkpt>
      <trkpt lat="41.56773" lon="20.95774">
        <ele>661.925772</ele>
        <time>2022-02-24T09:10:04.469Z</time>
      </trkpt>
      <trkpt lat="41.56692" lon="20.95813">
        <ele>661.208116</ele>
        <time>2022-02-24T09:10:25.120Z</time>
      </trkpt>
      <trkpt lat="41.5661" lon="20.95868">
        <ele>660.075962</ele>
        <time>2022-02-24T09:10:46.423Z</time>
      </trkpt>
      <trkpt lat="41.56433" lon="20.96018">
        <ele>656.712445</ele>
        <time>2022-02-24T09:11:31.626Z</time>
      </trkpt>
      <trkpt lat="41.56385" lon="20.96046">
        <ele>655.759601</ele>
        <time>2022-02-24T09:11:42.661Z</time>
      </trkpt>
      <trkpt lat="41.56217" lon="20.96107">
        <ele>653.014164</ele>
        <time>2022-02-24T09:12:20.123Z</time>
      </trkpt>
      <trkpt lat="41.56196" lon="20.96116">
        <ele>652.674565</ele>
        <time>2022-02-24T09:12:25.261Z</time>
      </trkpt>
      <trkpt lat="41.56169" lon="20.96128">
        <ele>652.297045</ele>
        <time>2022-02-24T09:12:32.152Z</time>
      </trkpt>
      <trkpt lat="41.56124" lon="20.96151">
        <ele>651.892926</ele>
        <time>2022-02-24T09:12:43.276Z</time>
      </trkpt>
      <trkpt lat="41.56041" lon="20.962">
        <ele>651.126316</ele>
        <time>2022-02-24T09:13:04.910Z</time>
      </trkpt>
      <trkpt lat="41.55974" lon="20.9624">
        <ele>650.395006</ele>
        <time>2022-02-24T09:13:22.789Z</time>
      </trkpt>
      <trkpt lat="41.55886" lon="20.96293">
        <ele>649.325882</ele>
        <time>2022-02-24T09:13:44.425Z</time>
      </trkpt>
      <trkpt lat="41.55844" lon="20.96314">
        <ele>648.831461</ele>
        <time>2022-02-24T09:13:54.380Z</time>
      </trkpt>
      <trkpt lat="41.55834" lon="20.9632">
        <ele>648.706682</ele>
        <time>2022-02-24T09:13:56.893Z</time>
      </trkpt>
      <trkpt lat="41.55799" lon="20.9633">
        <ele>648.309389</ele>
        <time>2022-02-24T09:14:05.007Z</time>
      </trkpt>
      <trkpt lat="41.5577" lon="20.96337">
        <ele>647.972629</ele>
        <time>2022-02-24T09:14:11.884Z</time>
      </trkpt>
      <trkpt lat="41.55633" lon="20.96348">
        <ele>646.409718</ele>
        <time>2022-02-24T09:14:43.145Z</time>
      </trkpt>
      <trkpt lat="41.55557" lon="20.96351">
        <ele>645.515475</ele>
        <time>2022-02-24T09:15:00.708Z</time>
      </trkpt>
      <trkpt lat="41.55552" lon="20.96351">
        <ele>645.459365</ele>
        <time>2022-02-24T09:15:01.821Z</time>
      </trkpt>
      <trkpt lat="41.55491" lon="20.96354">
        <ele>644.742792</ele>
        <time>2022-02-24T09:15:15.660Z</time>
      </trkpt>
      <trkpt lat="41.55363" lon="20.96338">
        <ele>643.11746</ele>
        <time>2022-02-24T09:15:44.183Z</time>
      </trkpt>
      <trkpt lat="41.54703" lon="20.96209">
        <ele>636.007141</ele>
        <time>2022-02-24T09:18:17.415Z</time>
      </trkpt>
      <trkpt lat="41.54631" lon="20.96205">
        <ele>635.428241</ele>
        <time>2022-02-24T09:18:34.805Z</time>
      </trkpt>
      <trkpt lat="41.54526" lon="20.9621">
        <ele>634.819025</ele>
        <time>2022-02-24T09:19:00.732Z</time>
      </trkpt>
      <trkpt lat="41.54466" lon="20.96204">
        <ele>634.533997</ele>
        <time>2022-02-24T09:19:15.521Z</time>
      </trkpt>
      <trkpt lat="41.54377" lon="20.96179">
        <ele>634.208539</ele>
        <time>2022-02-24T09:19:37.890Z</time>
      </trkpt>
      <trkpt lat="41.54243" lon="20.96127">
        <ele>633.907269</ele>
        <time>2022-02-24T09:20:14.257Z</time>
      </trkpt>
      <trkpt lat="41.54154" lon="20.96111">
        <ele>634.217331</ele>
        <time>2022-02-24T09:20:39.238Z</time>
      </trkpt>
      <trkpt lat="41.54089" lon="20.96108">
        <ele>634.442323</ele>
        <time>2022-02-24T09:20:58.204Z</time>
      </trkpt>
      <trkpt lat="41.54002" lon="20.96116">
        <ele>634.80593</ele>
        <time>2022-02-24T09:21:23.791Z</time>
      </trkpt>
      <trkpt lat="41.5392" lon="20.96111">
        <ele>635.169339</ele>
        <time>2022-02-24T09:21:47.333Z</time>
      </trkpt>
      <trkpt lat="41.53865" lon="20.96097">
        <ele>635.412655</ele>
        <time>2022-02-24T09:22:03.044Z</time>
      </trkpt>
      <trkpt lat="41.5378" lon="20.96055">
        <ele>635.812159</ele>
        <time>2022-02-24T09:22:29.013Z</time>
      </trkpt>
      <trkpt lat="41.53595" lon="20.95905">
        <ele>636.961316</ele>
        <time>2022-02-24T09:23:32.544Z</time>
      </trkpt>
      <trkpt lat="41.53519" lon="20.95867">
        <ele>637.266799</ele>
        <time>2022-02-24T09:23:56.289Z</time>
      </trkpt>
      <trkpt lat="41.53472" lon="20.95853">
        <ele>637.39031</ele>
        <time>2022-02-24T09:24:09.895Z</time>
      </trkpt>
      <trkpt lat="41.53297" lon="20.95818">
        <ele>637.523407</ele>
        <time>2022-02-24T09:24:57.376Z</time>
      </trkpt>
      <trkpt lat="41.53006" lon="20.95762">
        <ele>637.3373</ele>
        <time>2022-02-24T09:26:13.415Z</time>
      </trkpt>
      <trkpt lat="41.52918" lon="20.95735">
        <ele>637.699938</ele>
        <time>2022-02-24T09:26:39.496Z</time>
      </trkpt>
      <trkpt lat="41.52874" lon="20.95713">
        <ele>637.89212</ele>
        <time>2022-02-24T09:26:53.892Z</time>
      </trkpt>
      <trkpt lat="41.52848" lon="20.95698">
        <ele>637.996014</ele>
        <time>2022-02-24T09:27:02.279Z</time>
      </trkpt>
      <trkpt lat="41.52813" lon="20.95673">
        <ele>638.132112</ele>
        <time>2022-02-24T09:27:14.341Z</time>
      </trkpt>
      <trkpt lat="41.52611" lon="20.95509">
        <ele>638.29892</ele>
        <time>2022-02-24T09:28:18.813Z</time>
      </trkpt>
      <trkpt lat="41.52552" lon="20.95476">
        <ele>638.152001</ele>
        <time>2022-02-24T09:28:34.555Z</time>
      </trkpt>
      <trkpt lat="41.52416" lon="20.95425">
        <ele>636.559679</ele>
        <time>2022-02-24T09:29:06.856Z</time>
      </trkpt>
      <trkpt lat="41.52362" lon="20.95401">
        <ele>635.871296</ele>
        <time>2022-02-24T09:29:19.383Z</time>
      </trkpt>
      <trkpt lat="41.52221" lon="20.95341">
        <ele>633.790033</ele>
        <time>2022-02-24T09:29:52.145Z</time>
      </trkpt>
      <trkpt lat="41.5211" lon="20.95278">
        <ele>632.413669</ele>
        <time>2022-02-24T09:30:19.567Z</time>
      </trkpt>
      <trkpt lat="41.52099" lon="20.95261">
        <ele>632.233666</ele>
        <time>2022-02-24T09:30:23.234Z</time>
      </trkpt>
      <trkpt lat="41.52035" lon="20.95229">
        <ele>631.518308</ele>
        <time>2022-02-24T09:30:39.312Z</time>
      </trkpt>
      <trkpt lat="41.52026" lon="20.95217">
        <ele>631.432403</ele>
        <time>2022-02-24T09:30:42.024Z</time>
      </trkpt>
      <trkpt lat="41.52036" lon="20.95203">
        <ele>631.333041</ele>
        <time>2022-02-24T09:30:45.643Z</time>
      </trkpt>
      <trkpt lat="41.52047" lon="20.95193">
        <ele>631.233712</ele>
        <time>2022-02-24T09:30:48.775Z</time>
      </trkpt>
      <trkpt lat="41.52065" lon="20.95182">
        <ele>631.096189</ele>
        <time>2022-02-24T09:30:53.608Z</time>
      </trkpt>
      <trkpt lat="41.52055" lon="20.95173">
        <ele>631.012135</ele>
        <time>2022-02-24T09:30:56.333Z</time>
      </trkpt>
      <trkpt lat="41.52042" lon="20.95162">
        <ele>630.903401</ele>
        <time>2022-02-24T09:30:59.898Z</time>
      </trkpt>
      <trkpt lat="41.51988" lon="20.95142">
        <ele>630.507092</ele>
        <time>2022-02-24T09:31:13.875Z</time>
      </trkpt>
      <trkpt lat="41.51858" lon="20.95093">
        <ele>629.757447</ele>
        <time>2022-02-24T09:31:46.954Z</time>
      </trkpt>
      <trkpt lat="41.51841" lon="20.95086">
        <ele>629.665672</ele>
        <time>2022-02-24T09:31:51.238Z</time>
      </trkpt>
      <trkpt lat="41.5173" lon="20.95053">
        <ele>629.402333</ele>
        <time>2022-02-24T09:32:19.500Z</time>
      </trkpt>
      <trkpt lat="41.51632" lon="20.95021">
        <ele>629.434275</ele>
        <time>2022-02-24T09:32:47.567Z</time>
      </trkpt>
      <trkpt lat="41.51608" lon="20.95013">
        <ele>629.45259</ele>
        <time>2022-02-24T09:32:54.810Z</time>
      </trkpt>
      <trkpt lat="41.51536" lon="20.94998">
        <ele>629.621078</ele>
        <time>2022-02-24T09:33:15.094Z</time>
      </trkpt>
      <trkpt lat="41.51515" lon="20.94991">
        <ele>629.670843</ele>
        <time>2022-02-24T09:33:20.863Z</time>
      </trkpt>
      <trkpt lat="41.51497" lon="20.94986">
        <ele>629.713046</ele>
        <time>2022-02-24T09:33:26.024Z</time>
      </trkpt>
      <trkpt lat="41.5147" lon="20.94979">
        <ele>629.776708</ele>
        <time>2022-02-24T09:33:33.811Z</time>
      </trkpt>
      <trkpt lat="41.51429" lon="20.9497">
        <ele>629.860903</ele>
        <time>2022-02-24T09:33:45.437Z</time>
      </trkpt>
      <trkpt lat="41.51394" lon="20.94962">
        <ele>629.884294</ele>
        <time>2022-02-24T09:33:55.192Z</time>
      </trkpt>
      <trkpt lat="41.51372" lon="20.94957">
        <ele>629.899137</ele>
        <time>2022-02-24T09:34:01.176Z</time>
      </trkpt>
      <trkpt lat="41.5133" lon="20.94946">
        <ele>629.926913</ele>
        <time>2022-02-24T09:34:12.442Z</time>
      </trkpt>
      <trkpt lat="41.51308" lon="20.94942">
        <ele>629.941163</ele>
        <time>2022-02-24T09:34:18.317Z</time>
      </trkpt>
      <trkpt lat="41.51238" lon="20.94922">
        <ele>630.135483</ele>
        <time>2022-02-24T09:34:37.201Z</time>
      </trkpt>
      <trkpt lat="41.51207" lon="20.94919">
        <ele>630.378224</ele>
        <time>2022-02-24T09:34:45.990Z</time>
      </trkpt>
      <trkpt lat="41.51183" lon="20.94911">
        <ele>630.571119</ele>
        <time>2022-02-24T09:34:52.900Z</time>
      </trkpt>
      <trkpt lat="41.51148" lon="20.94904">
        <ele>630.847431</ele>
        <time>2022-02-24T09:35:03.559Z</time>
      </trkpt>
      <trkpt lat="41.51119" lon="20.94895">
        <ele>631.077167</ele>
        <time>2022-02-24T09:35:13.180Z</time>
      </trkpt>
      <trkpt lat="41.51104" lon="20.9489">
        <ele>631.194049</ele>
        <time>2022-02-24T09:35:18.325Z</time>
      </trkpt>
      <trkpt lat="41.51085" lon="20.94877">
        <ele>631.362942</ele>
        <time>2022-02-24T09:35:25.561Z</time>
      </trkpt>
      <trkpt lat="41.51052" lon="20.94851">
        <ele>631.96937</ele>
        <time>2022-02-24T09:35:39.350Z</time>
      </trkpt>
      <trkpt lat="41.5103" lon="20.94833">
        <ele>632.38981</ele>
        <time>2022-02-24T09:35:49.349Z</time>
      </trkpt>
      <trkpt lat="41.5102" lon="20.94827">
        <ele>632.556583</ele>
        <time>2022-02-24T09:35:53.045Z</time>
      </trkpt>
      <trkpt lat="41.50987" lon="20.94803">
        <ele>633.164084</ele>
        <time>2022-02-24T09:36:07.088Z</time>
      </trkpt>
      <trkpt lat="41.50946" lon="20.94773">
        <ele>633.914871</ele>
        <time>2022-02-24T09:36:22.479Z</time>
      </trkpt>
      <trkpt lat="41.50936" lon="20.94766">
        <ele>634.092131</ele>
        <time>2022-02-24T09:36:26.194Z</time>
      </trkpt>
      <trkpt lat="41.50896" lon="20.94738">
        <ele>633.846386</ele>
        <time>2022-02-24T09:36:39.869Z</time>
      </trkpt>
      <trkpt lat="41.5089" lon="20.9474">
        <ele>633.782936</ele>
        <time>2022-02-24T09:36:41.345Z</time>
      </trkpt>
      <trkpt lat="41.50858" lon="20.94735">
        <ele>633.400767</ele>
        <time>2022-02-24T09:36:50.152Z</time>
      </trkpt>
      <trkpt lat="41.50844" lon="20.94729">
        <ele>633.236396</ele>
        <time>2022-02-24T09:36:53.414Z</time>
      </trkpt>
      <trkpt lat="41.5083" lon="20.94725">
        <ele>633.065706</ele>
        <time>2022-02-24T09:36:56.384Z</time>
      </trkpt>
      <trkpt lat="41.50817" lon="20.94735">
        <ele>632.891818</ele>
        <time>2022-02-24T09:36:59.722Z</time>
      </trkpt>
      <trkpt lat="41.50814" lon="20.94746">
        <ele>632.786494</ele>
        <time>2022-02-24T09:37:01.642Z</time>
      </trkpt>
      <trkpt lat="41.50795" lon="20.9488">
        <ele>631.272651</ele>
        <time>2022-02-24T09:37:22.095Z</time>
      </trkpt>
      <trkpt lat="41.50791" lon="20.94896">
        <ele>631.048355</ele>
        <time>2022-02-24T09:37:24.326Z</time>
      </trkpt>
      <trkpt lat="41.50787" lon="20.9491">
        <ele>630.845365</ele>
        <time>2022-02-24T09:37:26.574Z</time>
      </trkpt>
      <trkpt lat="41.50768" lon="20.94957">
        <ele>630.107116</ele>
        <time>2022-02-24T09:37:35.104Z</time>
      </trkpt>
      <trkpt lat="41.50684" lon="20.94914">
        <ele>629.277825</ele>
        <time>2022-02-24T09:37:57.108Z</time>
      </trkpt>
      <trkpt lat="41.50601" lon="20.94865">
        <ele>630.803563</ele>
        <time>2022-02-24T09:38:30.115Z</time>
      </trkpt>
      <trkpt lat="41.50591" lon="20.9485">
        <ele>631.044907</ele>
        <time>2022-02-24T09:38:35.389Z</time>
      </trkpt>
      <trkpt lat="41.50588" lon="20.94845">
        <ele>631.134361</ele>
        <time>2022-02-24T09:38:38.521Z</time>
      </trkpt>
      <trkpt lat="41.50518" lon="20.94717">
        <ele>634.358369</ele>
        <time>2022-02-24T09:39:28.131Z</time>
      </trkpt>
      <trkpt lat="41.50464" lon="20.94591">
        <ele>638.025202</ele>
        <time>2022-02-24T09:40:17.628Z</time>
      </trkpt>
      <trkpt lat="41.5044" lon="20.94521">
        <ele>640.188906</ele>
        <time>2022-02-24T09:40:44.036Z</time>
      </trkpt>
      <trkpt lat="41.50425" lon="20.94479">
        <ele>641.509896</ele>
        <time>2022-02-24T09:41:00.072Z</time>
      </trkpt>
      <trkpt lat="41.50396" lon="20.94422">
        <ele>643.440832</ele>
        <time>2022-02-24T09:41:22.713Z</time>
      </trkpt>
      <trkpt lat="41.50393" lon="20.94415">
        <ele>643.668019</ele>
        <time>2022-02-24T09:41:26.136Z</time>
      </trkpt>
      <trkpt lat="41.5037" lon="20.94367">
        <ele>645.372546</ele>
        <time>2022-02-24T09:41:46.065Z</time>
      </trkpt>
      <trkpt lat="41.50347" lon="20.94312">
        <ele>647.48734</ele>
        <time>2022-02-24T09:42:08.244Z</time>
      </trkpt>
      <trkpt lat="41.5034" lon="20.94297">
        <ele>648.075299</ele>
        <time>2022-02-24T09:42:14.100Z</time>
      </trkpt>
      <trkpt lat="41.50325" lon="20.94259">
        <ele>649.515125</ele>
        <time>2022-02-24T09:42:29.373Z</time>
      </trkpt>
      <trkpt lat="41.50283" lon="20.94212">
        <ele>651.973216</ele>
        <time>2022-02-24T09:42:56.880Z</time>
      </trkpt>
      <trkpt lat="41.50241" lon="20.94142">
        <ele>655.927891</ele>
        <time>2022-02-24T09:43:34.692Z</time>
      </trkpt>
      <trkpt lat="41.5018" lon="20.94067">
        <ele>661.198355</ele>
        <time>2022-02-24T09:44:22.403Z</time>
      </trkpt>
      <trkpt lat="41.50161" lon="20.94044">
        <ele>662.862545</ele>
        <time>2022-02-24T09:44:39.507Z</time>
      </trkpt>
      <trkpt lat="41.50142" lon="20.94036">
        <ele>664.1405</ele>
        <time>2022-02-24T09:44:52.763Z</time>
      </trkpt>
      <trkpt lat="41.50128" lon="20.94025">
        <ele>665.176647</ele>
        <time>2022-02-24T09:45:02.355Z</time>
      </trkpt>
      <trkpt lat="41.5011" lon="20.93995">
        <ele>667.009697</ele>
        <time>2022-02-24T09:45:20.888Z</time>
      </trkpt>
      <trkpt lat="41.50082" lon="20.93924">
        <ele>670.846585</ele>
        <time>2022-02-24T09:45:55.840Z</time>
      </trkpt>
      <trkpt lat="41.50081" lon="20.93922">
        <ele>670.973225</ele>
        <time>2022-02-24T09:45:58.602Z</time>
      </trkpt>
      <trkpt lat="41.50062" lon="20.93807">
        <ele>676.305422</ele>
        <time>2022-02-24T09:46:46.134Z</time>
      </trkpt>
      <trkpt lat="41.49987" lon="20.93722">
        <ele>680.50988</ele>
        <time>2022-02-24T09:47:36.003Z</time>
      </trkpt>
      <trkpt lat="41.49967" lon="20.93718">
        <ele>681.399004</ele>
        <time>2022-02-24T09:47:47.221Z</time>
      </trkpt>
      <trkpt lat="41.4995" lon="20.93724">
        <ele>682.140974</ele>
        <time>2022-02-24T09:47:55.991Z</time>
      </trkpt>
      <trkpt lat="41.49932" lon="20.93722">
        <ele>682.903433</ele>
        <time>2022-02-24T09:48:05.351Z</time>
      </trkpt>
      <trkpt lat="41.49896" lon="20.93707">
        <ele>683.372284</ele>
        <time>2022-02-24T09:48:23.894Z</time>
      </trkpt>
      <trkpt lat="41.4986" lon="20.93658">
        <ele>683.174388</ele>
        <time>2022-02-24T09:48:46.242Z</time>
      </trkpt>
      <trkpt lat="41.49853" lon="20.93629">
        <ele>683.086899</ele>
        <time>2022-02-24T09:48:53.548Z</time>
      </trkpt>
      <trkpt lat="41.49829" lon="20.93604">
        <ele>682.97137</ele>
        <time>2022-02-24T09:49:02.829Z</time>
      </trkpt>
      <trkpt lat="41.4982" lon="20.93601">
        <ele>682.935701</ele>
        <time>2022-02-24T09:49:05.643Z</time>
      </trkpt>
      <trkpt lat="41.49808" lon="20.93603">
        <ele>682.889514</ele>
        <time>2022-02-24T09:49:09.797Z</time>
      </trkpt>
      <trkpt lat="41.49796" lon="20.9361">
        <ele>682.837928</ele>
        <time>2022-02-24T09:49:13.368Z</time>
      </trkpt>
      <trkpt lat="41.49779" lon="20.93611">
        <ele>682.665182</ele>
        <time>2022-02-24T09:49:17.638Z</time>
      </trkpt>
      <trkpt lat="41.49751" lon="20.9361">
        <ele>680.251039</ele>
        <time>2022-02-24T09:49:24.788Z</time>
      </trkpt>
      <trkpt lat="41.49715" lon="20.93621">
        <ele>677.027986</ele>
        <time>2022-02-24T09:49:33.600Z</time>
      </trkpt>
      <trkpt lat="41.49651" lon="20.93664">
        <ele>670.807063</ele>
        <time>2022-02-24T09:49:49.536Z</time>
      </trkpt>
      <trkpt lat="41.49647" lon="20.93666">
        <ele>670.4146</ele>
        <time>2022-02-24T09:49:50.457Z</time>
      </trkpt>
      <trkpt lat="41.49635" lon="20.93674">
        <ele>669.271002</ele>
        <time>2022-02-24T09:49:53.355Z</time>
      </trkpt>
      <trkpt lat="41.49627" lon="20.93688">
        <ele>668.110809</ele>
        <time>2022-02-24T09:49:56.452Z</time>
      </trkpt>
      <trkpt lat="41.49627" lon="20.93709">
        <ele>666.621429</ele>
        <time>2022-02-24T09:49:59.859Z</time>
      </trkpt>
      <trkpt lat="41.49635" lon="20.93742">
        <ele>663.855409</ele>
        <time>2022-02-24T09:50:05.749Z</time>
      </trkpt>
      <trkpt lat="41.49631" lon="20.93745">
        <ele>663.317901</ele>
        <time>2022-02-24T09:50:06.787Z</time>
      </trkpt>
      <trkpt lat="41.49598" lon="20.93767">
        <ele>659.334565</ele>
        <time>2022-02-24T09:50:15.008Z</time>
      </trkpt>
      <trkpt lat="41.49585" lon="20.93793">
        <ele>656.810073</ele>
        <time>2022-02-24T09:50:20.410Z</time>
      </trkpt>
      <trkpt lat="41.49559" lon="20.9381">
        <ele>653.757016</ele>
        <time>2022-02-24T09:50:26.516Z</time>
      </trkpt>
      <trkpt lat="41.49544" lon="20.9383">
        <ele>651.505421</ele>
        <time>2022-02-24T09:50:31.153Z</time>
      </trkpt>
      <trkpt lat="41.49492" lon="20.93829">
        <ele>646.385981</ele>
        <time>2022-02-24T09:50:42.881Z</time>
      </trkpt>
      <trkpt lat="41.49484" lon="20.93805">
        <ele>644.794498</ele>
        <time>2022-02-24T09:50:47.507Z</time>
      </trkpt>
      <trkpt lat="41.4947" lon="20.93768">
        <ele>642.260819</ele>
        <time>2022-02-24T09:50:54.806Z</time>
      </trkpt>
      <trkpt lat="41.49459" lon="20.93759">
        <ele>641.21645</ele>
        <time>2022-02-24T09:50:56.902Z</time>
      </trkpt>
      <trkpt lat="41.49378" lon="20.93816">
        <ele>633.737718</ele>
        <time>2022-02-24T09:51:12.442Z</time>
      </trkpt>
      <trkpt lat="41.49315" lon="20.93865">
        <ele>630.116324</ele>
        <time>2022-02-24T09:51:24.884Z</time>
      </trkpt>
      <trkpt lat="41.49235" lon="20.93922">
        <ele>625.868136</ele>
        <time>2022-02-24T09:51:41.914Z</time>
      </trkpt>
      <trkpt lat="41.4917" lon="20.93767">
        <ele>624.877801</ele>
        <time>2022-02-24T09:52:13.131Z</time>
      </trkpt>
      <trkpt lat="41.49122" lon="20.93722">
        <ele>624.926519</ele>
        <time>2022-02-24T09:52:33.805Z</time>
      </trkpt>
      <trkpt lat="41.49076" lon="20.93697">
        <ele>626.057973</ele>
        <time>2022-02-24T09:52:53.599Z</time>
      </trkpt>
      <trkpt lat="41.49068" lon="20.93686">
        <ele>626.397486</ele>
        <time>2022-02-24T09:52:58.192Z</time>
      </trkpt>
      <trkpt lat="41.49038" lon="20.93648">
        <ele>627.598498</ele>
        <time>2022-02-24T09:53:15.447Z</time>
      </trkpt>
      <trkpt lat="41.48993" lon="20.9363">
        <ele>628.937435</ele>
        <time>2022-02-24T09:53:34.130Z</time>
      </trkpt>
      <trkpt lat="41.48985" lon="20.93624">
        <ele>629.209093</ele>
        <time>2022-02-24T09:53:38.556Z</time>
      </trkpt>
      <trkpt lat="41.48925" lon="20.93589">
        <ele>630.887094</ele>
        <time>2022-02-24T09:54:05.785Z</time>
      </trkpt>
      <trkpt lat="41.48909" lon="20.93577">
        <ele>631.306308</ele>
        <time>2022-02-24T09:54:14.076Z</time>
      </trkpt>
      <trkpt lat="41.48841" lon="20.93525">
        <ele>633.079773</ele>
        <time>2022-02-24T09:54:45.093Z</time>
      </trkpt>
      <trkpt lat="41.48832" lon="20.93515">
        <ele>633.355497</ele>
        <time>2022-02-24T09:54:49.289Z</time>
      </trkpt>
      <trkpt lat="41.48813" lon="20.93492">
        <ele>633.919349</ele>
        <time>2022-02-24T09:54:57.408Z</time>
      </trkpt>
      <trkpt lat="41.48799" lon="20.93472">
        <ele>634.1337</ele>
        <time>2022-02-24T09:55:03.340Z</time>
      </trkpt>
      <trkpt lat="41.48788" lon="20.93447">
        <ele>633.921959</ele>
        <time>2022-02-24T09:55:09.596Z</time>
      </trkpt>
      <trkpt lat="41.48771" lon="20.93394">
        <ele>633.513027</ele>
        <time>2022-02-24T09:55:20.047Z</time>
      </trkpt>
      <trkpt lat="41.48756" lon="20.93351">
        <ele>633.173669</ele>
        <time>2022-02-24T09:55:28.372Z</time>
      </trkpt>
      <trkpt lat="41.48746" lon="20.93308">
        <ele>632.850414</ele>
        <time>2022-02-24T09:55:35.750Z</time>
      </trkpt>
      <trkpt lat="41.48738" lon="20.93292">
        <ele>632.708446</ele>
        <time>2022-02-24T09:55:38.872Z</time>
      </trkpt>
      <trkpt lat="41.48703" lon="20.93275">
        <ele>632.204266</ele>
        <time>2022-02-24T09:55:46.341Z</time>
      </trkpt>
      <trkpt lat="41.4869" lon="20.93263">
        <ele>631.891245</ele>
        <time>2022-02-24T09:55:49.390Z</time>
      </trkpt>
      <trkpt lat="41.48677" lon="20.93241">
        <ele>631.453164</ele>
        <time>2022-02-24T09:55:53.714Z</time>
      </trkpt>
      <trkpt lat="41.48653" lon="20.932">
        <ele>630.657711</ele>
        <time>2022-02-24T09:56:01.603Z</time>
      </trkpt>
      <trkpt lat="41.48633" lon="20.93209">
        <ele>630.245696</ele>
        <time>2022-02-24T09:56:05.623Z</time>
      </trkpt>
      <trkpt lat="41.48616" lon="20.93218">
        <ele>629.861493</ele>
        <time>2022-02-24T09:56:09.878Z</time>
      </trkpt>
      <trkpt lat="41.48593" lon="20.93228">
        <ele>629.373791</ele>
        <time>2022-02-24T09:56:14.959Z</time>
      </trkpt>
      <trkpt lat="41.4859" lon="20.93209">
        <ele>629.078527</ele>
        <time>2022-02-24T09:56:18.438Z</time>
      </trkpt>
      <trkpt lat="41.48586" lon="20.93181">
        <ele>628.830723</ele>
        <time>2022-02-24T09:56:23.129Z</time>
      </trkpt>
      <trkpt lat="41.48583" lon="20.93146">
        <ele>628.833394</ele>
        <time>2022-02-24T09:56:29.824Z</time>
      </trkpt>
      <trkpt lat="41.48586" lon="20.93085">
        <ele>628.838027</ele>
        <time>2022-02-24T09:56:41.528Z</time>
      </trkpt>
      <trkpt lat="41.48587" lon="20.93061">
        <ele>628.839846</ele>
        <time>2022-02-24T09:56:47.162Z</time>
      </trkpt>
      <trkpt lat="41.48591" lon="20.93014">
        <ele>628.84344</ele>
        <time>2022-02-24T09:56:57.373Z</time>
      </trkpt>
      <trkpt lat="41.486" lon="20.92963">
        <ele>628.847385</ele>
        <time>2022-02-24T09:57:09.198Z</time>
      </trkpt>
      <trkpt lat="41.486" lon="20.92948">
        <ele>628.858946</ele>
        <time>2022-02-24T09:57:12.322Z</time>
      </trkpt>
      <trkpt lat="41.48596" lon="20.9292">
        <ele>628.901194</ele>
        <time>2022-02-24T09:57:19.101Z</time>
      </trkpt>
      <trkpt lat="41.48591" lon="20.92908">
        <ele>628.922719</ele>
        <time>2022-02-24T09:57:21.938Z</time>
      </trkpt>
      <trkpt lat="41.48529" lon="20.92738">
        <ele>629.205768</ele>
        <time>2022-02-24T09:57:59.890Z</time>
      </trkpt>
      <trkpt lat="41.48515" lon="20.92682">
        <ele>629.407441</ele>
        <time>2022-02-24T09:58:11.683Z</time>
      </trkpt>
      <trkpt lat="41.48475" lon="20.92591">
        <ele>629.773422</ele>
        <time>2022-02-24T09:58:34.487Z</time>
      </trkpt>
      <trkpt lat="41.4846" lon="20.92522">
        <ele>630.023539</ele>
        <time>2022-02-24T09:58:51.105Z</time>
      </trkpt>
      <trkpt lat="41.48443" lon="20.92492">
        <ele>630.203738</ele>
        <time>2022-02-24T09:59:00.055Z</time>
      </trkpt>
      <trkpt lat="41.48356" lon="20.92364">
        <ele>631.066368</ele>
        <time>2022-02-24T09:59:38.649Z</time>
      </trkpt>
      <trkpt lat="41.4831" lon="20.92309">
        <ele>631.435952</ele>
        <time>2022-02-24T09:59:56.257Z</time>
      </trkpt>
      <trkpt lat="41.48284" lon="20.9228">
        <ele>631.613785</ele>
        <time>2022-02-24T10:00:05.640Z</time>
      </trkpt>
      <trkpt lat="41.48246" lon="20.92245">
        <ele>631.862678</ele>
        <time>2022-02-24T10:00:19.069Z</time>
      </trkpt>
      <trkpt lat="41.48175" lon="20.92201">
        <ele>632.352804</ele>
        <time>2022-02-24T10:00:42.258Z</time>
      </trkpt>
      <trkpt lat="41.48118" lon="20.92138">
        <ele>633.133723</ele>
        <time>2022-02-24T10:01:06.287Z</time>
      </trkpt>
      <trkpt lat="41.48105" lon="20.92048">
        <ele>633.855851</ele>
        <time>2022-02-24T10:01:28.641Z</time>
      </trkpt>
      <trkpt lat="41.48061" lon="20.91945">
        <ele>634.549996</ele>
        <time>2022-02-24T10:01:56.445Z</time>
      </trkpt>
      <trkpt lat="41.48056" lon="20.91914">
        <ele>634.716737</ele>
        <time>2022-02-24T10:02:02.957Z</time>
      </trkpt>
      <trkpt lat="41.48055" lon="20.91907">
        <ele>634.74878</ele>
        <time>2022-02-24T10:02:04.950Z</time>
      </trkpt>
      <trkpt lat="41.48044" lon="20.91898">
        <ele>634.843228</ele>
        <time>2022-02-24T10:02:08.679Z</time>
      </trkpt>
      <trkpt lat="41.47964" lon="20.91845">
        <ele>635.562019</ele>
        <time>2022-02-24T10:02:35.693Z</time>
      </trkpt>
      <trkpt lat="41.47956" lon="20.91846">
        <ele>635.667216</ele>
        <time>2022-02-24T10:02:38.719Z</time>
      </trkpt>
      <trkpt lat="41.47951" lon="20.91855">
        <ele>635.78246</ele>
        <time>2022-02-24T10:02:41.192Z</time>
      </trkpt>
      <trkpt lat="41.47949" lon="20.91864">
        <ele>635.876808</ele>
        <time>2022-02-24T10:02:42.943Z</time>
      </trkpt>
      <trkpt lat="41.4794" lon="20.91809">
        <ele>636.439466</ele>
        <time>2022-02-24T10:02:56.299Z</time>
      </trkpt>
      <trkpt lat="41.47933" lon="20.91682">
        <ele>637.70067</ele>
        <time>2022-02-24T10:03:29.562Z</time>
      </trkpt>
      <trkpt lat="41.47937" lon="20.91611">
        <ele>638.743049</ele>
        <time>2022-02-24T10:03:49.614Z</time>
      </trkpt>
      <trkpt lat="41.47946" lon="20.91572">
        <ele>639.341901</ele>
        <time>2022-02-24T10:04:01.082Z</time>
      </trkpt>
      <trkpt lat="41.47971" lon="20.91497">
        <ele>640.550467</ele>
        <time>2022-02-24T10:04:23.513Z</time>
      </trkpt>
      <trkpt lat="41.48009" lon="20.91413">
        <ele>641.663528</ele>
        <time>2022-02-24T10:04:49.555Z</time>
      </trkpt>
      <trkpt lat="41.4804" lon="20.91347">
        <ele>642.308998</ele>
        <time>2022-02-24T10:05:07.831Z</time>
      </trkpt>
      <trkpt lat="41.48045" lon="20.91335">
        <ele>642.420566</ele>
        <time>2022-02-24T10:05:11.143Z</time>
      </trkpt>
      <trkpt lat="41.48071" lon="20.91264">
        <ele>643.081809</ele>
        <time>2022-02-24T10:05:29.242Z</time>
      </trkpt>
      <trkpt lat="41.48082" lon="20.91216">
        <ele>643.371688</ele>
        <time>2022-02-24T10:05:40.545Z</time>
      </trkpt>
      <trkpt lat="41.48099" lon="20.91092">
        <ele>643.905713</ele>
        <time>2022-02-24T10:06:08.572Z</time>
      </trkpt>
      <trkpt lat="41.48093" lon="20.90962">
        <ele>644.492122</ele>
        <time>2022-02-24T10:06:36.518Z</time>
      </trkpt>
      <trkpt lat="41.48074" lon="20.90861">
        <ele>645.009197</ele>
        <time>2022-02-24T10:06:58.958Z</time>
      </trkpt>
      <trkpt lat="41.47967" lon="20.90516">
        <ele>648.128887</ele>
        <time>2022-02-24T10:08:26.665Z</time>
      </trkpt>
      <trkpt lat="41.47951" lon="20.90434">
        <ele>649.66862</ele>
        <time>2022-02-24T10:08:51.515Z</time>
      </trkpt>
      <trkpt lat="41.47944" lon="20.90362">
        <ele>650.991289</ele>
        <time>2022-02-24T10:09:14.126Z</time>
      </trkpt>
      <trkpt lat="41.47955" lon="20.90274">
        <ele>652.468555</ele>
        <time>2022-02-24T10:09:41.983Z</time>
      </trkpt>
      <trkpt lat="41.47972" lon="20.9022">
        <ele>653.373381</ele>
        <time>2022-02-24T10:10:00.088Z</time>
      </trkpt>
      <trkpt lat="41.48097" lon="20.89949">
        <ele>656.623707</ele>
        <time>2022-02-24T10:11:17.411Z</time>
      </trkpt>
      <trkpt lat="41.48131" lon="20.89869">
        <ele>657.302291</ele>
        <time>2022-02-24T10:11:35.267Z</time>
      </trkpt>
      <trkpt lat="41.4815" lon="20.89805">
        <ele>657.878108</ele>
        <time>2022-02-24T10:11:49.131Z</time>
      </trkpt>
      <trkpt lat="41.48165" lon="20.89725">
        <ele>658.580767</ele>
        <time>2022-02-24T10:12:10.040Z</time>
      </trkpt>
      <trkpt lat="41.48167" lon="20.8966">
        <ele>659.28423</ele>
        <time>2022-02-24T10:12:28.741Z</time>
      </trkpt>
      <trkpt lat="41.48166" lon="20.89629">
        <ele>659.870519</ele>
        <time>2022-02-24T10:12:38.510Z</time>
      </trkpt>
      <trkpt lat="41.48162" lon="20.89595">
        <ele>660.504953</ele>
        <time>2022-02-24T10:12:48.872Z</time>
      </trkpt>
      <trkpt lat="41.48158" lon="20.89571">
        <ele>660.959274</ele>
        <time>2022-02-24T10:12:57.397Z</time>
      </trkpt>
      <trkpt lat="41.48114" lon="20.89352">
        <ele>663.254628</ele>
        <time>2022-02-24T10:14:00.211Z</time>
      </trkpt>
      <trkpt lat="41.48098" lon="20.89121">
        <ele>661.851297</ele>
        <time>2022-02-24T10:14:37.463Z</time>
      </trkpt>
      <trkpt lat="41.48086" lon="20.89054">
        <ele>660.946835</ele>
        <time>2022-02-24T10:14:48.143Z</time>
      </trkpt>
      <trkpt lat="41.4806" lon="20.88981">
        <ele>659.901417</ele>
        <time>2022-02-24T10:15:01.110Z</time>
      </trkpt>
      <trkpt lat="41.47986" lon="20.88829">
        <ele>659.815371</ele>
        <time>2022-02-24T10:15:36.027Z</time>
      </trkpt>
      <trkpt lat="41.47968" lon="20.88779">
        <ele>659.810609</ele>
        <time>2022-02-24T10:15:48.912Z</time>
      </trkpt>
      <trkpt lat="41.47955" lon="20.88709">
        <ele>660.416749</ele>
        <time>2022-02-24T10:16:06.641Z</time>
      </trkpt>
      <trkpt lat="41.47947" lon="20.88612">
        <ele>661.343426</ele>
        <time>2022-02-24T10:16:30.783Z</time>
      </trkpt>
      <trkpt lat="41.47938" lon="20.88579">
        <ele>661.673276</ele>
        <time>2022-02-24T10:16:39.524Z</time>
      </trkpt>
      <trkpt lat="41.47926" lon="20.88499">
        <ele>662.563867</ele>
        <time>2022-02-24T10:16:59.810Z</time>
      </trkpt>
      <trkpt lat="41.47903" lon="20.88425">
        <ele>663.565368</ele>
        <time>2022-02-24T10:17:20.050Z</time>
      </trkpt>
      <trkpt lat="41.47888" lon="20.88386">
        <ele>664.112795</ele>
        <time>2022-02-24T10:17:31.157Z</time>
      </trkpt>
      <trkpt lat="41.47878" lon="20.88366">
        <ele>664.413171</ele>
        <time>2022-02-24T10:17:37.295Z</time>
      </trkpt>
      <trkpt lat="41.47862" lon="20.88332">
        <ele>664.920722</ele>
        <time>2022-02-24T10:17:48.249Z</time>
      </trkpt>
      <trkpt lat="41.47815" lon="20.88223">
        <ele>667.558323</ele>
        <time>2022-02-24T10:18:24.799Z</time>
      </trkpt>
      <trkpt lat="41.47794" lon="20.88163">
        <ele>669.031835</ele>
        <time>2022-02-24T10:18:46.052Z</time>
      </trkpt>
      <trkpt lat="41.47784" lon="20.8812">
        <ele>670.015</ele>
        <time>2022-02-24T10:19:00.819Z</time>
      </trkpt>
      <trkpt lat="41.47763" lon="20.87934">
        <ele>674.074226</ele>
        <time>2022-02-24T10:20:01.832Z</time>
      </trkpt>
      <trkpt lat="41.47764" lon="20.87875">
        <ele>675.346851</ele>
        <time>2022-02-24T10:20:18.614Z</time>
      </trkpt>
      <trkpt lat="41.47804" lon="20.87514">
        <ele>678.016115</ele>
        <time>2022-02-24T10:21:40.295Z</time>
      </trkpt>
      <trkpt lat="41.47798" lon="20.87477">
        <ele>678.301541</ele>
        <time>2022-02-24T10:21:48.986Z</time>
      </trkpt>
      <trkpt lat="41.47782" lon="20.87444">
        <ele>678.609425</ele>
        <time>2022-02-24T10:21:58.692Z</time>
      </trkpt>
      <trkpt lat="41.47753" lon="20.87399">
        <ele>679.148157</ele>
        <time>2022-02-24T10:22:13.856Z</time>
      </trkpt>
      <trkpt lat="41.47715" lon="20.87354">
        <ele>680.198246</ele>
        <time>2022-02-24T10:22:32.328Z</time>
      </trkpt>
      <trkpt lat="41.47694" lon="20.87316">
        <ele>680.932191</ele>
        <time>2022-02-24T10:22:45.667Z</time>
      </trkpt>
      <trkpt lat="41.47686" lon="20.87284">
        <ele>681.44844</ele>
        <time>2022-02-24T10:22:55.137Z</time>
      </trkpt>
      <trkpt lat="41.47683" lon="20.87254">
        <ele>681.925941</ele>
        <time>2022-02-24T10:23:03.621Z</time>
      </trkpt>
      <trkpt lat="41.47692" lon="20.87198">
        <ele>682.828463</ele>
        <time>2022-02-24T10:23:19.007Z</time>
      </trkpt>
      <trkpt lat="41.47728" lon="20.87108">
        <ele>684.840246</ele>
        <time>2022-02-24T10:23:48.432Z</time>
      </trkpt>
      <trkpt lat="41.47738" lon="20.87077">
        <ele>685.505325</ele>
        <time>2022-02-24T10:23:58.738Z</time>
      </trkpt>
      <trkpt lat="41.47743" lon="20.87043">
        <ele>686.187829</ele>
        <time>2022-02-24T10:24:09.429Z</time>
      </trkpt>
      <trkpt lat="41.4773" lon="20.86976">
        <ele>687.528795</ele>
        <time>2022-02-24T10:24:30.760Z</time>
      </trkpt>
      <trkpt lat="41.47678" lon="20.8687">
        <ele>689.677235</ele>
        <time>2022-02-24T10:25:08.552Z</time>
      </trkpt>
      <trkpt lat="41.47662" lon="20.86806">
        <ele>690.826121</ele>
        <time>2022-02-24T10:25:27.178Z</time>
      </trkpt>
      <trkpt lat="41.47652" lon="20.86735">
        <ele>691.615114</ele>
        <time>2022-02-24T10:25:44.970Z</time>
      </trkpt>
      <trkpt lat="41.47655" lon="20.86674">
        <ele>691.875085</ele>
        <time>2022-02-24T10:25:58.218Z</time>
      </trkpt>
      <trkpt lat="41.47673" lon="20.86601">
        <ele>692.203935</ele>
        <time>2022-02-24T10:26:12.977Z</time>
      </trkpt>
      <trkpt lat="41.47753" lon="20.86398">
        <ele>694.218971</ele>
        <time>2022-02-24T10:27:04.560Z</time>
      </trkpt>
      <trkpt lat="41.47769" lon="20.86324">
        <ele>695.050297</ele>
        <time>2022-02-24T10:27:27.351Z</time>
      </trkpt>
      <trkpt lat="41.47768" lon="20.86252">
        <ele>696.715029</ele>
        <time>2022-02-24T10:27:50.289Z</time>
      </trkpt>
      <trkpt lat="41.4773" lon="20.8609">
        <ele>700.715166</ele>
        <time>2022-02-24T10:28:45.937Z</time>
      </trkpt>
      <trkpt lat="41.47723" lon="20.86029">
        <ele>701.352625</ele>
        <time>2022-02-24T10:29:02.721Z</time>
      </trkpt>
      <trkpt lat="41.47733" lon="20.85967">
        <ele>701.997468</ele>
        <time>2022-02-24T10:29:18.649Z</time>
      </trkpt>
      <trkpt lat="41.47758" lon="20.85881">
        <ele>702.931536</ele>
        <time>2022-02-24T10:29:39.860Z</time>
      </trkpt>
      <trkpt lat="41.47774" lon="20.85756">
        <ele>703.375762</ele>
        <time>2022-02-24T10:30:05.309Z</time>
      </trkpt>
      <trkpt lat="41.47782" lon="20.85728">
        <ele>703.434356</ele>
        <time>2022-02-24T10:30:11.283Z</time>
      </trkpt>
      <trkpt lat="41.47812" lon="20.85662">
        <ele>703.585904</ele>
        <time>2022-02-24T10:30:27.665Z</time>
      </trkpt>
      <trkpt lat="41.47822" lon="20.8561">
        <ele>703.755391</ele>
        <time>2022-02-24T10:30:39.413Z</time>
      </trkpt>
      <trkpt lat="41.47815" lon="20.85543">
        <ele>704.059252</ele>
        <time>2022-02-24T10:30:54.202Z</time>
      </trkpt>
      <trkpt lat="41.47778" lon="20.85449">
        <ele>704.539552</ele>
        <time>2022-02-24T10:31:18.075Z</time>
      </trkpt>
      <trkpt lat="41.4777" lon="20.85397">
        <ele>704.765654</ele>
        <time>2022-02-24T10:31:30.238Z</time>
      </trkpt>
      <trkpt lat="41.4777" lon="20.85366">
        <ele>704.869616</ele>
        <time>2022-02-24T10:31:37.342Z</time>
      </trkpt>
      <trkpt lat="41.47782" lon="20.85318">
        <ele>705.035296</ele>
        <time>2022-02-24T10:31:47.975Z</time>
      </trkpt>
      <trkpt lat="41.47819" lon="20.85238">
        <ele>705.342017</ele>
        <time>2022-02-24T10:32:07.470Z</time>
      </trkpt>
      <trkpt lat="41.47841" lon="20.85177">
        <ele>705.656151</ele>
        <time>2022-02-24T10:32:21.956Z</time>
      </trkpt>
      <trkpt lat="41.47855" lon="20.85115">
        <ele>706.278293</ele>
        <time>2022-02-24T10:32:36.331Z</time>
      </trkpt>
      <trkpt lat="41.47862" lon="20.85065">
        <ele>706.771789</ele>
        <time>2022-02-24T10:32:48.402Z</time>
      </trkpt>
      <trkpt lat="41.47864" lon="20.85007">
        <ele>707.333759</ele>
        <time>2022-02-24T10:33:03.013Z</time>
      </trkpt>
      <trkpt lat="41.4786" lon="20.84961">
        <ele>707.779777</ele>
        <time>2022-02-24T10:33:15.701Z</time>
      </trkpt>
      <trkpt lat="41.47852" lon="20.84904">
        <ele>708.949454</ele>
        <time>2022-02-24T10:33:33.029Z</time>
      </trkpt>
      <trkpt lat="41.47829" lon="20.84796">
        <ele>711.332993</ele>
        <time>2022-02-24T10:34:08.224Z</time>
      </trkpt>
      <trkpt lat="41.47825" lon="20.84752">
        <ele>712.26039</ele>
        <time>2022-02-24T10:34:21.740Z</time>
      </trkpt>
      <trkpt lat="41.47833" lon="20.84683">
        <ele>713.620361</ele>
        <time>2022-02-24T10:34:43.140Z</time>
      </trkpt>
      <trkpt lat="41.47885" lon="20.84468">
        <ele>717.66922</ele>
        <time>2022-02-24T10:35:46.167Z</time>
      </trkpt>
      <trkpt lat="41.4789" lon="20.84434">
        <ele>718.323608</ele>
        <time>2022-02-24T10:35:55.924Z</time>
      </trkpt>
      <trkpt lat="41.47884" lon="20.84364">
        <ele>719.630653</ele>
        <time>2022-02-24T10:36:15.852Z</time>
      </trkpt>
      <trkpt lat="41.47865" lon="20.84284">
        <ele>721.198907</ele>
        <time>2022-02-24T10:36:40.903Z</time>
      </trkpt>
      <trkpt lat="41.47864" lon="20.84232">
        <ele>722.14361</ele>
        <time>2022-02-24T10:36:56.698Z</time>
      </trkpt>
      <trkpt lat="41.47874" lon="20.84194">
        <ele>722.850221</ele>
        <time>2022-02-24T10:37:08.954Z</time>
      </trkpt>
      <trkpt lat="41.47916" lon="20.84079">
        <ele>725.078294</ele>
        <time>2022-02-24T10:37:46.037Z</time>
      </trkpt>
      <trkpt lat="41.47919" lon="20.84047">
        <ele>725.651922</ele>
        <time>2022-02-24T10:37:54.261Z</time>
      </trkpt>
      <trkpt lat="41.47919" lon="20.84023">
        <ele>726.016154</ele>
        <time>2022-02-24T10:38:00.414Z</time>
      </trkpt>
      <trkpt lat="41.479" lon="20.83926">
        <ele>727.212025</ele>
        <time>2022-02-24T10:38:24.685Z</time>
      </trkpt>
      <trkpt lat="41.47893" lon="20.8386">
        <ele>728.006097</ele>
        <time>2022-02-24T10:38:41.063Z</time>
      </trkpt>
      <trkpt lat="41.47901" lon="20.8381">
        <ele>728.615162</ele>
        <time>2022-02-24T10:38:54.567Z</time>
      </trkpt>
      <trkpt lat="41.47926" lon="20.83754">
        <ele>729.984893</ele>
        <time>2022-02-24T10:39:12.892Z</time>
      </trkpt>
      <trkpt lat="41.47974" lon="20.8367">
        <ele>732.457554</ele>
        <time>2022-02-24T10:39:45.850Z</time>
      </trkpt>
      <trkpt lat="41.48001" lon="20.83585">
        <ele>734.603748</ele>
        <time>2022-02-24T10:40:18.072Z</time>
      </trkpt>
      <trkpt lat="41.48039" lon="20.83502">
        <ele>736.67306</ele>
        <time>2022-02-24T10:40:49.805Z</time>
      </trkpt>
      <trkpt lat="41.48088" lon="20.8344">
        <ele>738.611955</ele>
        <time>2022-02-24T10:41:16.371Z</time>
      </trkpt>
      <trkpt lat="41.48155" lon="20.8338">
        <ele>740.00289</ele>
        <time>2022-02-24T10:41:43.931Z</time>
      </trkpt>
      <trkpt lat="41.48189" lon="20.83334">
        <ele>740.509171</ele>
        <time>2022-02-24T10:41:59.282Z</time>
      </trkpt>
      <trkpt lat="41.482" lon="20.83304">
        <ele>740.768015</ele>
        <time>2022-02-24T10:42:06.541Z</time>
      </trkpt>
      <trkpt lat="41.4821" lon="20.83259">
        <ele>741.132655</ele>
        <time>2022-02-24T10:42:16.545Z</time>
      </trkpt>
      <trkpt lat="41.48222" lon="20.83161">
        <ele>741.899526</ele>
        <time>2022-02-24T10:42:38.899Z</time>
      </trkpt>
      <trkpt lat="41.48233" lon="20.83123">
        <ele>742.202954</ele>
        <time>2022-02-24T10:42:48.138Z</time>
      </trkpt>
      <trkpt lat="41.48267" lon="20.8305">
        <ele>742.852384</ele>
        <time>2022-02-24T10:43:08.991Z</time>
      </trkpt>
      <trkpt lat="41.48289" lon="20.82987">
        <ele>743.538586</ele>
        <time>2022-02-24T10:43:26.389Z</time>
      </trkpt>
      <trkpt lat="41.48292" lon="20.82926">
        <ele>744.38182</ele>
        <time>2022-02-24T10:43:42.073Z</time>
      </trkpt>
      <trkpt lat="41.48268" lon="20.82757">
        <ele>746.742023</ele>
        <time>2022-02-24T10:44:29.202Z</time>
      </trkpt>
      <trkpt lat="41.48264" lon="20.82706">
        <ele>747.415447</ele>
        <time>2022-02-24T10:44:43.196Z</time>
      </trkpt>
      <trkpt lat="41.48267" lon="20.82583">
        <ele>749.044218</ele>
        <time>2022-02-24T10:45:16.190Z</time>
      </trkpt>
      <trkpt lat="41.48256" lon="20.82489">
        <ele>749.949621</ele>
        <time>2022-02-24T10:45:39.548Z</time>
      </trkpt>
      <trkpt lat="41.48242" lon="20.82449">
        <ele>750.216983</ele>
        <time>2022-02-24T10:45:49.850Z</time>
      </trkpt>
      <trkpt lat="41.48244" lon="20.82436">
        <ele>750.295021</ele>
        <time>2022-02-24T10:45:52.442Z</time>
      </trkpt>
      <trkpt lat="41.48244" lon="20.82419">
        <ele>750.396067</ele>
        <time>2022-02-24T10:45:56.297Z</time>
      </trkpt>
      <trkpt lat="41.48208" lon="20.82355">
        <ele>750.888826</ele>
        <time>2022-02-24T10:46:13.790Z</time>
      </trkpt>
      <trkpt lat="41.48176" lon="20.82324">
        <ele>751.241503</ele>
        <time>2022-02-24T10:46:25.104Z</time>
      </trkpt>
      <trkpt lat="41.48132" lon="20.82303">
        <ele>751.7542</ele>
        <time>2022-02-24T10:46:39.805Z</time>
      </trkpt>
      <trkpt lat="41.48087" lon="20.8222">
        <ele>752.594183</ele>
        <time>2022-02-24T10:47:05.162Z</time>
      </trkpt>
      <trkpt lat="41.48079" lon="20.82195">
        <ele>752.816548</ele>
        <time>2022-02-24T10:47:11.581Z</time>
      </trkpt>
      <trkpt lat="41.48073" lon="20.82187">
        <ele>752.904126</ele>
        <time>2022-02-24T10:47:14.216Z</time>
      </trkpt>
      <trkpt lat="41.48068" lon="20.82183">
        <ele>752.971059</ele>
        <time>2022-02-24T10:47:16.555Z</time>
      </trkpt>
      <trkpt lat="41.48056" lon="20.82175">
        <ele>753.116705</ele>
        <time>2022-02-24T10:47:20.997Z</time>
      </trkpt>
      <trkpt lat="41.47994" lon="20.82093">
        <ele>754.041053</ele>
        <time>2022-02-24T10:47:49.143Z</time>
      </trkpt>
      <trkpt lat="41.4799" lon="20.82084">
        <ele>754.120409</ele>
        <time>2022-02-24T10:47:51.966Z</time>
      </trkpt>
      <trkpt lat="41.47982" lon="20.82066">
        <ele>754.289649</ele>
        <time>2022-02-24T10:47:56.994Z</time>
      </trkpt>
      <trkpt lat="41.47949" lon="20.81988">
        <ele>754.988423</ele>
        <time>2022-02-24T10:48:17.513Z</time>
      </trkpt>
      <trkpt lat="41.47933" lon="20.81893">
        <ele>755.351593</ele>
        <time>2022-02-24T10:48:38.649Z</time>
      </trkpt>
      <trkpt lat="41.47889" lon="20.81745">
        <ele>756.04372</ele>
        <time>2022-02-24T10:49:12.509Z</time>
      </trkpt>
      <trkpt lat="41.47887" lon="20.81733">
        <ele>756.153382</ele>
        <time>2022-02-24T10:49:15.778Z</time>
      </trkpt>
      <trkpt lat="41.47883" lon="20.81723">
        <ele>756.258019</ele>
        <time>2022-02-24T10:49:18.113Z</time>
      </trkpt>
      <trkpt lat="41.47832" lon="20.8163">
        <ele>757.302654</ele>
        <time>2022-02-24T10:49:46.783Z</time>
      </trkpt>
      <trkpt lat="41.47817" lon="20.81605">
        <ele>757.589864</ele>
        <time>2022-02-24T10:49:55.186Z</time>
      </trkpt>
      <trkpt lat="41.47797" lon="20.81569">
        <ele>757.988975</ele>
        <time>2022-02-24T10:50:07.403Z</time>
      </trkpt>
      <trkpt lat="41.47763" lon="20.81517">
        <ele>759.065103</ele>
        <time>2022-02-24T10:50:26.557Z</time>
      </trkpt>
      <trkpt lat="41.47736" lon="20.81503">
        <ele>759.695701</ele>
        <time>2022-02-24T10:50:37.548Z</time>
      </trkpt>
      <trkpt lat="41.47657" lon="20.81493">
        <ele>761.392891</ele>
        <time>2022-02-24T10:51:08.871Z</time>
      </trkpt>
      <trkpt lat="41.47542" lon="20.81504">
        <ele>763.671716</ele>
        <time>2022-02-24T10:51:52.385Z</time>
      </trkpt>
      <trkpt lat="41.475" lon="20.81494">
        <ele>764.478409</ele>
        <time>2022-02-24T10:52:07.294Z</time>
      </trkpt>
      <trkpt lat="41.47377" lon="20.8142">
        <ele>767.230319</ele>
        <time>2022-02-24T10:52:57.159Z</time>
      </trkpt>
      <trkpt lat="41.47287" lon="20.81384">
        <ele>769.213831</ele>
        <time>2022-02-24T10:53:33.854Z</time>
      </trkpt>
      <trkpt lat="41.47236" lon="20.81348">
        <ele>770.517366</ele>
        <time>2022-02-24T10:53:56.089Z</time>
      </trkpt>
      <trkpt lat="41.47216" lon="20.81345">
        <ele>770.974372</ele>
        <time>2022-02-24T10:54:04.004Z</time>
      </trkpt>
      <trkpt lat="41.47186" lon="20.81355">
        <ele>771.688475</ele>
        <time>2022-02-24T10:54:16.190Z</time>
      </trkpt>
      <trkpt lat="41.47158" lon="20.81348">
        <ele>772.338807</ele>
        <time>2022-02-24T10:54:27.073Z</time>
      </trkpt>
      <trkpt lat="41.47125" lon="20.8131">
        <ele>773.327679</ele>
        <time>2022-02-24T10:54:43.376Z</time>
      </trkpt>
      <trkpt lat="41.47099" lon="20.81291">
        <ele>774.044818</ele>
        <time>2022-02-24T10:54:54.610Z</time>
      </trkpt>
      <trkpt lat="41.46802" lon="20.81275">
        <ele>781.491859</ele>
        <time>2022-02-24T10:56:52.815Z</time>
      </trkpt>
      <trkpt lat="41.46703" lon="20.81249">
        <ele>784.07485</ele>
        <time>2022-02-24T10:57:36.076Z</time>
      </trkpt>
      <trkpt lat="41.46651" lon="20.81216">
        <ele>785.520476</ele>
        <time>2022-02-24T10:57:59.392Z</time>
      </trkpt>
      <trkpt lat="41.46611" lon="20.81213">
        <ele>786.539658</ele>
        <time>2022-02-24T10:58:14.833Z</time>
      </trkpt>
      <trkpt lat="41.4654" lon="20.81189">
        <ele>787.371317</ele>
        <time>2022-02-24T10:58:39.754Z</time>
      </trkpt>
      <trkpt lat="41.46461" lon="20.8118">
        <ele>788.08354</ele>
        <time>2022-02-24T10:59:03.301Z</time>
      </trkpt>
      <trkpt lat="41.46414" lon="20.81179">
        <ele>788.594955</ele>
        <time>2022-02-24T10:59:16.206Z</time>
      </trkpt>
      <trkpt lat="41.46239" lon="20.81208">
        <ele>792.046305</ele>
        <time>2022-02-24T11:00:21.576Z</time>
      </trkpt>
      <trkpt lat="41.46197" lon="20.81214">
        <ele>793.57414</ele>
        <time>2022-02-24T11:00:41.701Z</time>
      </trkpt>
      <trkpt lat="41.46175" lon="20.81218">
        <ele>794.397786</ele>
        <time>2022-02-24T11:00:53.123Z</time>
      </trkpt>
      <trkpt lat="41.4613" lon="20.81227">
        <ele>796.033891</ele>
        <time>2022-02-24T11:01:13.042Z</time>
      </trkpt>
      <trkpt lat="41.46119" lon="20.81228">
        <ele>796.45015</ele>
        <time>2022-02-24T11:01:20.009Z</time>
      </trkpt>
      <trkpt lat="41.46109" lon="20.81233">
        <ele>796.83222</ele>
        <time>2022-02-24T11:01:24.651Z</time>
      </trkpt>
      <trkpt lat="41.46082" lon="20.81259">
        <ele>798.035162</ele>
        <time>2022-02-24T11:01:40.111Z</time>
      </trkpt>
      <trkpt lat="41.46028" lon="20.81325">
        <ele>800.466557</ele>
        <time>2022-02-24T11:02:11.017Z</time>
      </trkpt>
      <trkpt lat="41.45942" lon="20.81389">
        <ele>803.712588</ele>
        <time>2022-02-24T11:02:51.084Z</time>
      </trkpt>
      <trkpt lat="41.45875" lon="20.81436">
        <ele>808.300224</ele>
        <time>2022-02-24T11:03:28.787Z</time>
      </trkpt>
      <trkpt lat="41.45874" lon="20.81446">
        <ele>808.79468</ele>
        <time>2022-02-24T11:03:34.387Z</time>
      </trkpt>
      <trkpt lat="41.45874" lon="20.81502">
        <ele>811.675789</ele>
        <time>2022-02-24T11:03:59.188Z</time>
      </trkpt>
      <trkpt lat="41.45852" lon="20.81525">
        <ele>813.604141</ele>
        <time>2022-02-24T11:04:17.732Z</time>
      </trkpt>
      <trkpt lat="41.45835" lon="20.81559">
        <ele>815.682228</ele>
        <time>2022-02-24T11:04:38.058Z</time>
      </trkpt>
      <trkpt lat="41.45811" lon="20.81578">
        <ele>818.205935</ele>
        <time>2022-02-24T11:04:59.280Z</time>
      </trkpt>
      <trkpt lat="41.45809" lon="20.81586">
        <ele>818.957376</ele>
        <time>2022-02-24T11:05:04.496Z</time>
      </trkpt>
      <trkpt lat="41.45836" lon="20.8159">
        <ele>822.013809</ele>
        <time>2022-02-24T11:05:27.122Z</time>
      </trkpt>
      <trkpt lat="41.45842" lon="20.816">
        <ele>823.028922</ele>
        <time>2022-02-24T11:05:34.647Z</time>
      </trkpt>
      <trkpt lat="41.45841" lon="20.81605">
        <ele>823.533352</ele>
        <time>2022-02-24T11:05:38.246Z</time>
      </trkpt>
      <trkpt lat="41.45759" lon="20.81661">
        <ele>833.584446</ele>
        <time>2022-02-24T11:06:52.659Z</time>
      </trkpt>
      <trkpt lat="41.45736" lon="20.81686">
        <ele>836.873576</ele>
        <time>2022-02-24T11:07:18.542Z</time>
      </trkpt>
      <trkpt lat="41.45738" lon="20.81698">
        <ele>837.932625</ele>
        <time>2022-02-24T11:07:26.505Z</time>
      </trkpt>
      <trkpt lat="41.45748" lon="20.81704">
        <ele>839.202368</ele>
        <time>2022-02-24T11:07:36.413Z</time>
      </trkpt>
      <trkpt lat="41.45829" lon="20.81727">
        <ele>848.722312</ele>
        <time>2022-02-24T11:08:49.946Z</time>
      </trkpt>
      <trkpt lat="41.45845" lon="20.81739">
        <ele>850.879026</ele>
        <time>2022-02-24T11:09:05.857Z</time>
      </trkpt>
      <trkpt lat="41.45845" lon="20.81751">
        <ele>851.895263</ele>
        <time>2022-02-24T11:09:15.408Z</time>
      </trkpt>
      <trkpt lat="41.45838" lon="20.81764">
        <ele>853.3046</ele>
        <time>2022-02-24T11:09:21.584Z</time>
      </trkpt>
      <trkpt lat="41.45799" lon="20.81796">
        <ele>858.31027</ele>
        <time>2022-02-24T11:09:55.328Z</time>
      </trkpt>
      <trkpt lat="41.45788" lon="20.81806">
        <ele>859.53097</ele>
        <time>2022-02-24T11:10:08.993Z</time>
      </trkpt>
      <trkpt lat="41.45782" lon="20.81802">
        <ele>860.111991</ele>
        <time>2022-02-24T11:10:10.442Z</time>
      </trkpt>
      <trkpt lat="41.45747" lon="20.81803">
        <ele>863.300188</ele>
        <time>2022-02-24T11:10:34.715Z</time>
      </trkpt>
      <trkpt lat="41.45707" lon="20.8182">
        <ele>867.058707</ele>
        <time>2022-02-24T11:11:02.024Z</time>
      </trkpt>
      <trkpt lat="41.45673" lon="20.81864">
        <ele>871.34249</ele>
        <time>2022-02-24T11:11:34.151Z</time>
      </trkpt>
      <trkpt lat="41.45662" lon="20.81887">
        <ele>873.197774</ele>
        <time>2022-02-24T11:11:49.847Z</time>
      </trkpt>
      <trkpt lat="41.45657" lon="20.81945">
        <ele>878.140969</ele>
        <time>2022-02-24T11:12:20.881Z</time>
      </trkpt>
      <trkpt lat="41.4567" lon="20.82039">
        <ele>886.204146</ele>
        <time>2022-02-24T11:13:19.804Z</time>
      </trkpt>
      <trkpt lat="41.45669" lon="20.82065">
        <ele>888.426978</ele>
        <time>2022-02-24T11:13:36.980Z</time>
      </trkpt>
      <trkpt lat="41.45665" lon="20.8209">
        <ele>890.601138</ele>
        <time>2022-02-24T11:13:53.906Z</time>
      </trkpt>
      <trkpt lat="41.45639" lon="20.8213">
        <ele>894.929011</ele>
        <time>2022-02-24T11:14:29.310Z</time>
      </trkpt>
      <trkpt lat="41.45598" lon="20.82143">
        <ele>898.799799</ele>
        <time>2022-02-24T11:15:04.713Z</time>
      </trkpt>
      <trkpt lat="41.45576" lon="20.82134">
        <ele>901.040148</ele>
        <time>2022-02-24T11:15:23.967Z</time>
      </trkpt>
      <trkpt lat="41.45495" lon="20.82035">
        <ele>910.95417</ele>
        <time>2022-02-24T11:16:35.345Z</time>
      </trkpt>
      <trkpt lat="41.45461" lon="20.8201">
        <ele>912.239545</ele>
        <time>2022-02-24T11:16:53.977Z</time>
      </trkpt>
      <trkpt lat="41.45426" lon="20.81997">
        <ele>913.473146</ele>
        <time>2022-02-24T11:17:09.644Z</time>
      </trkpt>
      <trkpt lat="41.45397" lon="20.81996">
        <ele>914.450795</ele>
        <time>2022-02-24T11:17:21.211Z</time>
      </trkpt>
      <trkpt lat="41.45336" lon="20.82014">
        <ele>916.549346</ele>
        <time>2022-02-24T11:17:43.766Z</time>
      </trkpt>
      <trkpt lat="41.45122" lon="20.82142">
        <ele>919.623816</ele>
        <time>2022-02-24T11:18:55.587Z</time>
      </trkpt>
      <trkpt lat="41.45087" lon="20.82173">
        <ele>920.592996</ele>
        <time>2022-02-24T11:19:08.256Z</time>
      </trkpt>
      <trkpt lat="41.45076" lon="20.82193">
        <ele>921.020408</ele>
        <time>2022-02-24T11:19:13.885Z</time>
      </trkpt>
      <trkpt lat="41.45069" lon="20.82239">
        <ele>921.855615</ele>
        <time>2022-02-24T11:19:25.721Z</time>
      </trkpt>
      <trkpt lat="41.45124" lon="20.82582">
        <ele>940.8644</ele>
        <time>2022-02-24T11:21:59.994Z</time>
      </trkpt>
      <trkpt lat="41.45123" lon="20.8259">
        <ele>941.702098</ele>
        <time>2022-02-24T11:22:07.184Z</time>
      </trkpt>
      <trkpt lat="41.4512" lon="20.82632">
        <ele>945.944109</ele>
        <time>2022-02-24T11:22:35.569Z</time>
      </trkpt>
      <trkpt lat="41.45113" lon="20.8267">
        <ele>949.884217</ele>
        <time>2022-02-24T11:23:04.598Z</time>
      </trkpt>
      <trkpt lat="41.45085" lon="20.82738">
        <ele>957.733739</ele>
        <time>2022-02-24T11:24:09.425Z</time>
      </trkpt>
      <trkpt lat="41.45044" lon="20.82783">
        <ele>965.645079</ele>
        <time>2022-02-24T11:25:10.782Z</time>
      </trkpt>
      <trkpt lat="41.44998" lon="20.82806">
        <ele>973.144009</ele>
        <time>2022-02-24T11:25:59.962Z</time>
      </trkpt>
      <trkpt lat="41.44952" lon="20.82805">
        <ele>980.058968</ele>
        <time>2022-02-24T11:26:43.909Z</time>
      </trkpt>
      <trkpt lat="41.44931" lon="20.82791">
        <ele>983.621913</ele>
        <time>2022-02-24T11:27:06.441Z</time>
      </trkpt>
      <trkpt lat="41.44877" lon="20.8275">
        <ele>990.362163</ele>
        <time>2022-02-24T11:28:00.754Z</time>
      </trkpt>
      <trkpt lat="41.4481" lon="20.8268">
        <ele>998.308676</ele>
        <time>2022-02-24T11:29:00.812Z</time>
      </trkpt>
      <trkpt lat="41.44778" lon="20.82659">
        <ele>1001.597554</ele>
        <time>2022-02-24T11:29:21.515Z</time>
      </trkpt>
      <trkpt lat="41.44745" lon="20.82647">
        <ele>1004.050958</ele>
        <time>2022-02-24T11:29:40.484Z</time>
      </trkpt>
      <trkpt lat="41.44689" lon="20.82655">
        <ele>1007.171481</ele>
        <time>2022-02-24T11:30:08.563Z</time>
      </trkpt>
      <trkpt lat="41.44466" lon="20.82716">
        <ele>1021.463003</ele>
        <time>2022-02-24T11:32:09.707Z</time>
      </trkpt>
      <trkpt lat="41.44439" lon="20.82726">
        <ele>1023.389573</ele>
        <time>2022-02-24T11:32:29.942Z</time>
      </trkpt>
      <trkpt lat="41.44347" lon="20.82801">
        <ele>1031.459006</ele>
        <time>2022-02-24T11:33:49.749Z</time>
      </trkpt>
      <trkpt lat="41.44324" lon="20.82806">
        <ele>1033.226959</ele>
        <time>2022-02-24T11:34:05.987Z</time>
      </trkpt>
      <trkpt lat="41.44303" lon="20.82804">
        <ele>1034.832449</ele>
        <time>2022-02-24T11:34:20.105Z</time>
      </trkpt>
      <trkpt lat="41.44281" lon="20.82794">
        <ele>1036.588149</ele>
        <time>2022-02-24T11:34:35.003Z</time>
      </trkpt>
      <trkpt lat="41.44098" lon="20.82692">
        <ele>1043.839622</ele>
        <time>2022-02-24T11:35:54.102Z</time>
      </trkpt>
      <trkpt lat="41.44078" lon="20.82686">
        <ele>1044.535456</ele>
        <time>2022-02-24T11:36:00.042Z</time>
      </trkpt>
      <trkpt lat="41.44042" lon="20.82689">
        <ele>1046.200785</ele>
        <time>2022-02-24T11:36:13.302Z</time>
      </trkpt>
      <trkpt lat="41.44012" lon="20.82715">
        <ele>1047.857052</ele>
        <time>2022-02-24T11:36:28.800Z</time>
      </trkpt>
      <trkpt lat="41.4398" lon="20.82754">
        <ele>1049.881406</ele>
        <time>2022-02-24T11:36:50.713Z</time>
      </trkpt>
      <trkpt lat="41.43959" lon="20.82768">
        <ele>1050.933799</ele>
        <time>2022-02-24T11:37:02.816Z</time>
      </trkpt>
      <trkpt lat="41.43935" lon="20.82772">
        <ele>1052.066613</ele>
        <time>2022-02-24T11:37:17.398Z</time>
      </trkpt>
      <trkpt lat="41.43911" lon="20.8277">
        <ele>1053.733508</ele>
        <time>2022-02-24T11:37:32.247Z</time>
      </trkpt>
      <trkpt lat="41.4389" lon="20.82753">
        <ele>1055.887938</ele>
        <time>2022-02-24T11:37:48.548Z</time>
      </trkpt>
      <trkpt lat="41.43879" lon="20.82737">
        <ele>1057.349782</ele>
        <time>2022-02-24T11:38:00.367Z</time>
      </trkpt>
      <trkpt lat="41.43844" lon="20.8264">
        <ele>1064.531486</ele>
        <time>2022-02-24T11:38:59.713Z</time>
      </trkpt>
      <trkpt lat="41.4382" lon="20.82599">
        <ele>1067.985009</ele>
        <time>2022-02-24T11:39:27.697Z</time>
      </trkpt>
      <trkpt lat="41.43804" lon="20.82581">
        <ele>1069.804727</ele>
        <time>2022-02-24T11:39:42.390Z</time>
      </trkpt>
      <trkpt lat="41.43752" lon="20.82553">
        <ele>1074.545045</ele>
        <time>2022-02-24T11:40:20.289Z</time>
      </trkpt>
      <trkpt lat="41.43664" lon="20.82545">
        <ele>1082.105175</ele>
        <time>2022-02-24T11:41:20.329Z</time>
      </trkpt>
      <trkpt lat="41.43639" lon="20.82535">
        <ele>1084.213387</ele>
        <time>2022-02-24T11:41:37.294Z</time>
      </trkpt>
      <trkpt lat="41.43546" lon="20.82443">
        <ele>1092.340172</ele>
        <time>2022-02-24T11:42:49.323Z</time>
      </trkpt>
      <trkpt lat="41.43525" lon="20.82428">
        <ele>1094.011074</ele>
        <time>2022-02-24T11:43:03.241Z</time>
      </trkpt>
      <trkpt lat="41.43483" lon="20.82413">
        <ele>1096.668834</ele>
        <time>2022-02-24T11:43:27.711Z</time>
      </trkpt>
      <trkpt lat="41.43432" lon="20.82382">
        <ele>1098.233994</ele>
        <time>2022-02-24T11:43:55.882Z</time>
      </trkpt>
      <trkpt lat="41.4335" lon="20.82294">
        <ele>1101.211338</ele>
        <time>2022-02-24T11:44:34.560Z</time>
      </trkpt>
      <trkpt lat="41.43307" lon="20.82269">
        <ele>1100.004319</ele>
        <time>2022-02-24T11:44:46.478Z</time>
      </trkpt>
      <trkpt lat="41.43178" lon="20.82229">
        <ele>1094.622028</ele>
        <time>2022-02-24T11:45:11.013Z</time>
      </trkpt>
      <trkpt lat="41.4312" lon="20.82191">
        <ele>1087.926378</ele>
        <time>2022-02-24T11:45:21.581Z</time>
      </trkpt>
      <trkpt lat="41.43058" lon="20.82163">
        <ele>1080.322337</ele>
        <time>2022-02-24T11:45:32.012Z</time>
      </trkpt>
      <trkpt lat="41.43002" lon="20.82155">
        <ele>1073.785718</ele>
        <time>2022-02-24T11:45:40.831Z</time>
      </trkpt>
      <trkpt lat="41.42952" lon="20.82164">
        <ele>1066.747163</ele>
        <time>2022-02-24T11:45:48.697Z</time>
      </trkpt>
      <trkpt lat="41.42894" lon="20.82193">
        <ele>1057.887855</ele>
        <time>2022-02-24T11:45:58.460Z</time>
      </trkpt>
      <trkpt lat="41.42866" lon="20.82217">
        <ele>1053.218001</ele>
        <time>2022-02-24T11:46:03.618Z</time>
      </trkpt>
      <trkpt lat="41.42821" lon="20.82275">
        <ele>1045.144085</ele>
        <time>2022-02-24T11:46:13.475Z</time>
      </trkpt>
      <trkpt lat="41.42804" lon="20.82309">
        <ele>1041.801273</ele>
        <time>2022-02-24T11:46:18.337Z</time>
      </trkpt>
      <trkpt lat="41.42742" lon="20.82472">
        <ele>1027.516148</ele>
        <time>2022-02-24T11:46:40.588Z</time>
      </trkpt>
      <trkpt lat="41.42689" lon="20.82564">
        <ele>1022.732834</ele>
        <time>2022-02-24T11:46:55.738Z</time>
      </trkpt>
      <trkpt lat="41.42677" lon="20.82597">
        <ele>1021.224841</ele>
        <time>2022-02-24T11:47:00.822Z</time>
      </trkpt>
      <trkpt lat="41.42668" lon="20.8265">
        <ele>1018.986795</ele>
        <time>2022-02-24T11:47:08.816Z</time>
      </trkpt>
      <trkpt lat="41.42664" lon="20.82774">
        <ele>1017.711961</ele>
        <time>2022-02-24T11:47:29.860Z</time>
      </trkpt>
      <trkpt lat="41.42656" lon="20.82802">
        <ele>1017.546843</ele>
        <time>2022-02-24T11:47:35.727Z</time>
      </trkpt>
      <trkpt lat="41.42632" lon="20.82846">
        <ele>1017.242884</ele>
        <time>2022-02-24T11:47:47.193Z</time>
      </trkpt>
      <trkpt lat="41.42611" lon="20.82862">
        <ele>1017.065574</ele>
        <time>2022-02-24T11:47:53.829Z</time>
      </trkpt>
      <trkpt lat="41.42592" lon="20.82873">
        <ele>1016.934638</ele>
        <time>2022-02-24T11:47:59.482Z</time>
      </trkpt>
      <trkpt lat="41.42551" lon="20.82874">
        <ele>1016.732654</ele>
        <time>2022-02-24T11:48:09.939Z</time>
      </trkpt>
      <trkpt lat="41.42509" lon="20.82854">
        <ele>1016.516843</ele>
        <time>2022-02-24T11:48:20.740Z</time>
      </trkpt>
      <trkpt lat="41.42495" lon="20.82835">
        <ele>1016.417841</ele>
        <time>2022-02-24T11:48:25.665Z</time>
      </trkpt>
      <trkpt lat="41.42477" lon="20.82801">
        <ele>1016.265499</ele>
        <time>2022-02-24T11:48:33.166Z</time>
      </trkpt>
      <trkpt lat="41.42467" lon="20.8275">
        <ele>1016.020564</ele>
        <time>2022-02-24T11:48:42.816Z</time>
      </trkpt>
      <trkpt lat="41.42469" lon="20.82713">
        <ele>1015.651257</ele>
        <time>2022-02-24T11:48:49.316Z</time>
      </trkpt>
      <trkpt lat="41.42519" lon="20.82565">
        <ele>1014.041548</ele>
        <time>2022-02-24T11:49:16.328Z</time>
      </trkpt>
      <trkpt lat="41.42549" lon="20.82456">
        <ele>1012.268353</ele>
        <time>2022-02-24T11:49:34.971Z</time>
      </trkpt>
      <trkpt lat="41.42594" lon="20.82243">
        <ele>1007.616323</ele>
        <time>2022-02-24T11:50:08.479Z</time>
      </trkpt>
      <trkpt lat="41.42594" lon="20.82162">
        <ele>1005.202595</ele>
        <time>2022-02-24T11:50:20.095Z</time>
      </trkpt>
      <trkpt lat="41.42585" lon="20.8212">
        <ele>1003.892391</ele>
        <time>2022-02-24T11:50:26.222Z</time>
      </trkpt>
      <trkpt lat="41.42557" lon="20.82042">
        <ele>1000.35963</ele>
        <time>2022-02-24T11:50:37.992Z</time>
      </trkpt>
      <trkpt lat="41.42505" lon="20.81903">
        <ele>991.741591</ele>
        <time>2022-02-24T11:50:57.674Z</time>
      </trkpt>
      <trkpt lat="41.42491" lon="20.81877">
        <ele>989.968616</ele>
        <time>2022-02-24T11:51:01.633Z</time>
      </trkpt>
      <trkpt lat="41.42475" lon="20.81859">
        <ele>988.26864</ele>
        <time>2022-02-24T11:51:05.157Z</time>
      </trkpt>
      <trkpt lat="41.42435" lon="20.81829">
        <ele>984.354782</ele>
        <time>2022-02-24T11:51:12.613Z</time>
      </trkpt>
      <trkpt lat="41.42411" lon="20.81818">
        <ele>982.121502</ele>
        <time>2022-02-24T11:51:16.872Z</time>
      </trkpt>
      <trkpt lat="41.42373" lon="20.81813">
        <ele>978.829109</ele>
        <time>2022-02-24T11:51:23.135Z</time>
      </trkpt>
      <trkpt lat="41.42159" lon="20.81835">
        <ele>962.326988</ele>
        <time>2022-02-24T11:51:59.400Z</time>
      </trkpt>
      <trkpt lat="41.42097" lon="20.81835">
        <ele>958.412587</ele>
        <time>2022-02-24T11:52:10.421Z</time>
      </trkpt>
      <trkpt lat="41.41992" lon="20.81821">
        <ele>952.702281</ele>
        <time>2022-02-24T11:52:29.282Z</time>
      </trkpt>
      <trkpt lat="41.41959" lon="20.81811">
        <ele>950.855761</ele>
        <time>2022-02-24T11:52:35.481Z</time>
      </trkpt>
      <trkpt lat="41.41888" lon="20.81782">
        <ele>946.952183</ele>
        <time>2022-02-24T11:52:49.173Z</time>
      </trkpt>
      <trkpt lat="41.41828" lon="20.8175">
        <ele>943.594298</ele>
        <time>2022-02-24T11:53:00.861Z</time>
      </trkpt>
      <trkpt lat="41.41766" lon="20.81706">
        <ele>939.523651</ele>
        <time>2022-02-24T11:53:13.352Z</time>
      </trkpt>
      <trkpt lat="41.41668" lon="20.8162">
        <ele>931.315724</ele>
        <time>2022-02-24T11:53:33.505Z</time>
      </trkpt>
      <trkpt lat="41.41596" lon="20.81534">
        <ele>923.911281</ele>
        <time>2022-02-24T11:53:49.650Z</time>
      </trkpt>
      <trkpt lat="41.41559" lon="20.81502">
        <ele>920.367556</ele>
        <time>2022-02-24T11:53:56.951Z</time>
      </trkpt>
      <trkpt lat="41.41535" lon="20.81492">
        <ele>918.349215</ele>
        <time>2022-02-24T11:54:01.135Z</time>
      </trkpt>
      <trkpt lat="41.41492" lon="20.81488">
        <ele>914.861042</ele>
        <time>2022-02-24T11:54:08.428Z</time>
      </trkpt>
      <trkpt lat="41.41471" lon="20.81493">
        <ele>913.384926</ele>
        <time>2022-02-24T11:54:12.163Z</time>
      </trkpt>
      <trkpt lat="41.4142" lon="20.81522">
        <ele>910.264174</ele>
        <time>2022-02-24T11:54:21.836Z</time>
      </trkpt>
      <trkpt lat="41.41348" lon="20.81579">
        <ele>905.594379</ele>
        <time>2022-02-24T11:54:36.956Z</time>
      </trkpt>
      <trkpt lat="41.41331" lon="20.81595">
        <ele>904.432353</ele>
        <time>2022-02-24T11:54:40.775Z</time>
      </trkpt>
      <trkpt lat="41.41303" lon="20.81614">
        <ele>902.837915</ele>
        <time>2022-02-24T11:54:46.579Z</time>
      </trkpt>
      <trkpt lat="41.41246" lon="20.81635">
        <ele>899.903608</ele>
        <time>2022-02-24T11:54:57.683Z</time>
      </trkpt>
      <trkpt lat="41.4111" lon="20.81653">
        <ele>893.190088</ele>
        <time>2022-02-24T11:55:22.149Z</time>
      </trkpt>
      <trkpt lat="41.41011" lon="20.81681">
        <ele>888.067501</ele>
        <time>2022-02-24T11:55:40.309Z</time>
      </trkpt>
      <trkpt lat="41.40987" lon="20.81694">
        <ele>886.788362</ele>
        <time>2022-02-24T11:55:44.924Z</time>
      </trkpt>
      <trkpt lat="41.40935" lon="20.81747">
        <ele>885.20397</ele>
        <time>2022-02-24T11:55:57.579Z</time>
      </trkpt>
      <trkpt lat="41.4085" lon="20.81842">
        <ele>883.28506</ele>
        <time>2022-02-24T11:56:22.773Z</time>
      </trkpt>
      <trkpt lat="41.40809" lon="20.81876">
        <ele>883.074642</ele>
        <time>2022-02-24T11:56:36.944Z</time>
      </trkpt>
      <trkpt lat="41.4072" lon="20.81924">
        <ele>883.329667</ele>
        <time>2022-02-24T11:57:06.262Z</time>
      </trkpt>
      <trkpt lat="41.40552" lon="20.81974">
        <ele>882.508089</ele>
        <time>2022-02-24T11:57:49.746Z</time>
      </trkpt>
      <trkpt lat="41.405" lon="20.82001">
        <ele>882.055861</ele>
        <time>2022-02-24T11:58:01.888Z</time>
      </trkpt>
      <trkpt lat="41.40413" lon="20.82065">
        <ele>880.552074</ele>
        <time>2022-02-24T11:58:23.162Z</time>
      </trkpt>
      <trkpt lat="41.40246" lon="20.82211">
        <ele>878.185169</ele>
        <time>2022-02-24T11:59:08.203Z</time>
      </trkpt>
      <trkpt lat="41.40201" lon="20.82239">
        <ele>877.73962</ele>
        <time>2022-02-24T11:59:20.382Z</time>
      </trkpt>
      <trkpt lat="41.4016" lon="20.82256">
        <ele>877.409093</ele>
        <time>2022-02-24T11:59:31.323Z</time>
      </trkpt>
      <trkpt lat="41.40104" lon="20.82271">
        <ele>877.02352</ele>
        <time>2022-02-24T11:59:45.752Z</time>
      </trkpt>
      <trkpt lat="41.40001" lon="20.82284">
        <ele>876.256287</ele>
        <time>2022-02-24T12:00:10.349Z</time>
      </trkpt>
      <trkpt lat="41.39845" lon="20.82314">
        <ele>873.624087</ele>
        <time>2022-02-24T12:00:44.472Z</time>
      </trkpt>
      <trkpt lat="41.39494" lon="20.82429">
        <ele>865.445174</ele>
        <time>2022-02-24T12:01:59.113Z</time>
      </trkpt>
      <trkpt lat="41.39366" lon="20.82458">
        <ele>861.781933</ele>
        <time>2022-02-24T12:02:25.225Z</time>
      </trkpt>
      <trkpt lat="41.39259" lon="20.82473">
        <ele>858.808266</ele>
        <time>2022-02-24T12:02:46.450Z</time>
      </trkpt>
      <trkpt lat="41.39162" lon="20.82479">
        <ele>856.256692</ele>
        <time>2022-02-24T12:03:05.858Z</time>
      </trkpt>
      <trkpt lat="41.3899" lon="20.8247">
        <ele>853.26205</ele>
        <time>2022-02-24T12:03:42.531Z</time>
      </trkpt>
      <trkpt lat="41.38832" lon="20.82446">
        <ele>851.799221</ele>
        <time>2022-02-24T12:04:21.921Z</time>
      </trkpt>
      <trkpt lat="41.38813" lon="20.82441">
        <ele>851.669827</ele>
        <time>2022-02-24T12:04:26.715Z</time>
      </trkpt>
      <trkpt lat="41.38766" lon="20.82429">
        <ele>851.330737</ele>
        <time>2022-02-24T12:04:38.069Z</time>
      </trkpt>
      <trkpt lat="41.38572" lon="20.82361">
        <ele>848.736396</ele>
        <time>2022-02-24T12:05:22.233Z</time>
      </trkpt>
      <trkpt lat="41.38199" lon="20.82213">
        <ele>845.491147</ele>
        <time>2022-02-24T12:06:55.333Z</time>
      </trkpt>
      <trkpt lat="41.38158" lon="20.82198">
        <ele>845.025709</ele>
        <time>2022-02-24T12:07:05.123Z</time>
      </trkpt>
      <trkpt lat="41.38111" lon="20.82174">
        <ele>844.469707</ele>
        <time>2022-02-24T12:07:16.664Z</time>
      </trkpt>
      <trkpt lat="41.37966" lon="20.82094">
        <ele>842.405358</ele>
        <time>2022-02-24T12:07:51.266Z</time>
      </trkpt>
      <trkpt lat="41.37838" lon="20.82003">
        <ele>840.937217</ele>
        <time>2022-02-24T12:08:23.557Z</time>
      </trkpt>
      <trkpt lat="41.37754" lon="20.81931">
        <ele>840.324608</ele>
        <time>2022-02-24T12:08:48.651Z</time>
      </trkpt>
      <trkpt lat="41.37728" lon="20.81908">
        <ele>840.806589</ele>
        <time>2022-02-24T12:08:57.493Z</time>
      </trkpt>
      <trkpt lat="41.37706" lon="20.81887">
        <ele>841.226672</ele>
        <time>2022-02-24T12:09:05.737Z</time>
      </trkpt>
      <trkpt lat="41.37505" lon="20.8167">
        <ele>847.023999</ele>
        <time>2022-02-24T12:10:44.047Z</time>
      </trkpt>
      <trkpt lat="41.37424" lon="20.81591">
        <ele>851.073283</ele>
        <time>2022-02-24T12:11:30.484Z</time>
      </trkpt>
      <trkpt lat="41.3735" lon="20.81532">
        <ele>855.161439</ele>
        <time>2022-02-24T12:12:14.280Z</time>
      </trkpt>
      <trkpt lat="41.37261" lon="20.81485">
        <ele>860.629828</ele>
        <time>2022-02-24T12:13:05.605Z</time>
      </trkpt>
      <trkpt lat="41.37059" lon="20.81404">
        <ele>874.355708</ele>
        <time>2022-02-24T12:15:08.682Z</time>
      </trkpt>
      <trkpt lat="41.36972" lon="20.81352">
        <ele>880.856835</ele>
        <time>2022-02-24T12:16:07.133Z</time>
      </trkpt>
      <trkpt lat="41.36759" lon="20.81202">
        <ele>897.043132</ele>
        <time>2022-02-24T12:18:32.622Z</time>
      </trkpt>
      <trkpt lat="41.36697" lon="20.81163">
        <ele>901.149476</ele>
        <time>2022-02-24T12:19:09.292Z</time>
      </trkpt>
      <trkpt lat="41.36655" lon="20.81139">
        <ele>903.777846</ele>
        <time>2022-02-24T12:19:32.678Z</time>
      </trkpt>
      <trkpt lat="41.36539" lon="20.81092">
        <ele>908.966129</ele>
        <time>2022-02-24T12:20:30.651Z</time>
      </trkpt>
      <trkpt lat="41.3644" lon="20.81064">
        <ele>912.097725</ele>
        <time>2022-02-24T12:21:16.354Z</time>
      </trkpt>
      <trkpt lat="41.36313" lon="20.81044">
        <ele>914.50397</ele>
        <time>2022-02-24T12:22:01.338Z</time>
      </trkpt>
      <trkpt lat="41.36053" lon="20.81031">
        <ele>908.013951</ele>
        <time>2022-02-24T12:22:54.436Z</time>
      </trkpt>
      <trkpt lat="41.35925" lon="20.81019">
        <ele>902.676946</ele>
        <time>2022-02-24T12:23:17.868Z</time>
      </trkpt>
      <trkpt lat="41.35509" lon="20.80932">
        <ele>879.789428</ele>
        <time>2022-02-24T12:24:33.075Z</time>
      </trkpt>
      <trkpt lat="41.35329" lon="20.80943">
        <ele>870.045422</ele>
        <time>2022-02-24T12:25:05.655Z</time>
      </trkpt>
      <trkpt lat="41.35246" lon="20.80939">
        <ele>865.526929</ele>
        <time>2022-02-24T12:25:20.238Z</time>
      </trkpt>
      <trkpt lat="41.35171" lon="20.80927">
        <ele>860.847424</ele>
        <time>2022-02-24T12:25:33.560Z</time>
      </trkpt>
      <trkpt lat="41.35114" lon="20.80906">
        <ele>857.209459</ele>
        <time>2022-02-24T12:25:43.773Z</time>
      </trkpt>
      <trkpt lat="41.35062" lon="20.80879">
        <ele>853.794046</ele>
        <time>2022-02-24T12:25:53.432Z</time>
      </trkpt>
      <trkpt lat="41.34861" lon="20.80719">
        <ele>843.671214</ele>
        <time>2022-02-24T12:26:36.142Z</time>
      </trkpt>
      <trkpt lat="41.34776" lon="20.8068">
        <ele>841.650572</ele>
        <time>2022-02-24T12:26:56.253Z</time>
      </trkpt>
      <trkpt lat="41.34727" lon="20.80669">
        <ele>840.727543</ele>
        <time>2022-02-24T12:27:08.700Z</time>
      </trkpt>
      <trkpt lat="41.34661" lon="20.80663">
        <ele>840.011005</ele>
        <time>2022-02-24T12:27:26.609Z</time>
      </trkpt>
      <trkpt lat="41.34289" lon="20.807">
        <ele>835.217116</ele>
        <time>2022-02-24T12:28:49.980Z</time>
      </trkpt>
      <trkpt lat="41.34239" lon="20.80701">
        <ele>834.306613</ele>
        <time>2022-02-24T12:29:00.209Z</time>
      </trkpt>
      <trkpt lat="41.34147" lon="20.80704">
        <ele>832.114075</ele>
        <time>2022-02-24T12:29:19.059Z</time>
      </trkpt>
      <trkpt lat="41.34048" lon="20.80698">
        <ele>829.451605</ele>
        <time>2022-02-24T12:29:38.961Z</time>
      </trkpt>
      <trkpt lat="41.33964" lon="20.80686">
        <ele>826.547013</ele>
        <time>2022-02-24T12:29:55.682Z</time>
      </trkpt>
      <trkpt lat="41.3381" lon="20.80649">
        <ele>820.356575</ele>
        <time>2022-02-24T12:30:25.068Z</time>
      </trkpt>
      <trkpt lat="41.3375" lon="20.80626">
        <ele>817.388674</ele>
        <time>2022-02-24T12:30:36.372Z</time>
      </trkpt>
      <trkpt lat="41.33668" lon="20.80591">
        <ele>813.274225</ele>
        <time>2022-02-24T12:30:51.971Z</time>
      </trkpt>
      <trkpt lat="41.33581" lon="20.80545">
        <ele>808.958459</ele>
        <time>2022-02-24T12:31:08.921Z</time>
      </trkpt>
      <trkpt lat="41.33519" lon="20.80507">
        <ele>805.804244</ele>
        <time>2022-02-24T12:31:21.546Z</time>
      </trkpt>
      <trkpt lat="41.33388" lon="20.80412">
        <ele>800.851655</ele>
        <time>2022-02-24T12:31:50.441Z</time>
      </trkpt>
      <trkpt lat="41.33255" lon="20.8029">
        <ele>797.108436</ele>
        <time>2022-02-24T12:32:23.822Z</time>
      </trkpt>
      <trkpt lat="41.33111" lon="20.80126">
        <ele>794.363156</ele>
        <time>2022-02-24T12:33:05.999Z</time>
      </trkpt>
      <trkpt lat="41.33066" lon="20.80089">
        <ele>793.763463</ele>
        <time>2022-02-24T12:33:18.261Z</time>
      </trkpt>
      <trkpt lat="41.33047" lon="20.80061">
        <ele>793.726823</ele>
        <time>2022-02-24T12:33:25.011Z</time>
      </trkpt>
      <trkpt lat="41.32922" lon="20.79848">
        <ele>794.206028</ele>
        <time>2022-02-24T12:34:19.769Z</time>
      </trkpt>
      <trkpt lat="41.32825" lon="20.79642">
        <ele>796.301145</ele>
        <time>2022-02-24T12:35:24.403Z</time>
      </trkpt>
      <trkpt lat="41.32771" lon="20.79547">
        <ele>797.15898</ele>
        <time>2022-02-24T12:35:54.111Z</time>
      </trkpt>
      <trkpt lat="41.32728" lon="20.79484">
        <ele>796.87028</ele>
        <time>2022-02-24T12:36:09.318Z</time>
      </trkpt>
      <trkpt lat="41.32702" lon="20.79451">
        <ele>796.132096</ele>
        <time>2022-02-24T12:36:17.209Z</time>
      </trkpt>
      <trkpt lat="41.32645" lon="20.79384">
        <ele>794.604301</ele>
        <time>2022-02-24T12:36:32.582Z</time>
      </trkpt>
      <trkpt lat="41.32583" lon="20.79329">
        <ele>793.106837</ele>
        <time>2022-02-24T12:36:47.175Z</time>
      </trkpt>
      <trkpt lat="41.32507" lon="20.79274">
        <ele>791.355132</ele>
        <time>2022-02-24T12:37:05.015Z</time>
      </trkpt>
      <trkpt lat="41.3243" lon="20.79232">
        <ele>790.072668</ele>
        <time>2022-02-24T12:37:24.403Z</time>
      </trkpt>
      <trkpt lat="41.32336" lon="20.79194">
        <ele>789.51704</ele>
        <time>2022-02-24T12:37:49.147Z</time>
      </trkpt>
      <trkpt lat="41.32282" lon="20.7918">
        <ele>789.207808</ele>
        <time>2022-02-24T12:38:02.742Z</time>
      </trkpt>
      <trkpt lat="41.3218" lon="20.7917">
        <ele>788.495446</ele>
        <time>2022-02-24T12:38:27.183Z</time>
      </trkpt>
      <trkpt lat="41.32109" lon="20.79175">
        <ele>787.998909</ele>
        <time>2022-02-24T12:38:44.139Z</time>
      </trkpt>
      <trkpt lat="41.32058" lon="20.79179">
        <ele>787.732219</ele>
        <time>2022-02-24T12:38:56.394Z</time>
      </trkpt>
      <trkpt lat="41.31942" lon="20.792">
        <ele>787.145829</ele>
        <time>2022-02-24T12:39:25.399Z</time>
      </trkpt>
      <trkpt lat="41.31821" lon="20.79231">
        <ele>786.499642</ele>
        <time>2022-02-24T12:39:56.690Z</time>
      </trkpt>
      <trkpt lat="41.31705" lon="20.79265">
        <ele>785.583527</ele>
        <time>2022-02-24T12:40:24.956Z</time>
      </trkpt>
      <trkpt lat="41.31639" lon="20.79293">
        <ele>784.753666</ele>
        <time>2022-02-24T12:40:40.762Z</time>
      </trkpt>
      <trkpt lat="41.31571" lon="20.79329">
        <ele>783.846769</ele>
        <time>2022-02-24T12:40:57.030Z</time>
      </trkpt>
      <trkpt lat="41.31467" lon="20.79413">
        <ele>781.975346</ele>
        <time>2022-02-24T12:41:23.277Z</time>
      </trkpt>
      <trkpt lat="41.31292" lon="20.79526">
        <ele>779.767646</ele>
        <time>2022-02-24T12:42:06.984Z</time>
      </trkpt>
      <trkpt lat="41.31159" lon="20.79583">
        <ele>779.36886</ele>
        <time>2022-02-24T12:42:43.183Z</time>
      </trkpt>
      <trkpt lat="41.31072" lon="20.79609">
        <ele>779.315946</ele>
        <time>2022-02-24T12:43:08.413Z</time>
      </trkpt>
      <trkpt lat="41.30992" lon="20.79645">
        <ele>779.106256</ele>
        <time>2022-02-24T12:43:31.637Z</time>
      </trkpt>
      <trkpt lat="41.30828" lon="20.79739">
        <ele>777.442328</ele>
        <time>2022-02-24T12:44:13.885Z</time>
      </trkpt>
      <trkpt lat="41.30747" lon="20.79762">
        <ele>776.17501</ele>
        <time>2022-02-24T12:44:31.374Z</time>
      </trkpt>
      <trkpt lat="41.30679" lon="20.79802">
        <ele>773.901712</ele>
        <time>2022-02-24T12:44:46.031Z</time>
      </trkpt>
      <trkpt lat="41.30658" lon="20.79808">
        <ele>773.239805</ele>
        <time>2022-02-24T12:44:50.241Z</time>
      </trkpt>
      <trkpt lat="41.30583" lon="20.7982">
        <ele>770.886993</ele>
        <time>2022-02-24T12:45:04.815Z</time>
      </trkpt>
      <trkpt lat="41.30574" lon="20.79821">
        <ele>770.603227</ele>
        <time>2022-02-24T12:45:06.558Z</time>
      </trkpt>
      <trkpt lat="41.30515" lon="20.79822">
        <ele>769.007909</ele>
        <time>2022-02-24T12:45:18.081Z</time>
      </trkpt>
      <trkpt lat="41.30511" lon="20.79822">
        <ele>768.887517</ele>
        <time>2022-02-24T12:45:18.871Z</time>
      </trkpt>
      <trkpt lat="41.30437" lon="20.79815">
        <ele>766.853971</ele>
        <time>2022-02-24T12:45:33.664Z</time>
      </trkpt>
      <trkpt lat="41.30367" lon="20.798">
        <ele>765.390399</ele>
        <time>2022-02-24T12:45:48.553Z</time>
      </trkpt>
      <trkpt lat="41.29896" lon="20.79676">
        <ele>760.948506</ele>
        <time>2022-02-24T12:47:41.729Z</time>
      </trkpt>
      <trkpt lat="41.29688" lon="20.79597">
        <ele>759.48189</ele>
        <time>2022-02-24T12:48:33.631Z</time>
      </trkpt>
      <trkpt lat="41.29554" lon="20.7953">
        <ele>758.911783</ele>
        <time>2022-02-24T12:49:09.696Z</time>
      </trkpt>
      <trkpt lat="41.29378" lon="20.79422">
        <ele>758.220655</ele>
        <time>2022-02-24T12:49:58.766Z</time>
      </trkpt>
      <trkpt lat="41.29257" lon="20.79333">
        <ele>757.859484</ele>
        <time>2022-02-24T12:50:33.783Z</time>
      </trkpt>
      <trkpt lat="41.29039" lon="20.7915">
        <ele>757.246742</ele>
        <time>2022-02-24T12:51:40.781Z</time>
      </trkpt>
      <trkpt lat="41.28974" lon="20.79115">
        <ele>756.77246</ele>
        <time>2022-02-24T12:51:57.802Z</time>
      </trkpt>
      <trkpt lat="41.28817" lon="20.79062">
        <ele>755.8416</ele>
        <time>2022-02-24T12:52:35.800Z</time>
      </trkpt>
      <trkpt lat="41.28794" lon="20.79059">
        <ele>755.743547</ele>
        <time>2022-02-24T12:52:40.962Z</time>
      </trkpt>
      <trkpt lat="41.28789" lon="20.79048">
        <ele>755.700827</ele>
        <time>2022-02-24T12:52:43.697Z</time>
      </trkpt>
      <trkpt lat="41.28765" lon="20.79023">
        <ele>755.565366</ele>
        <time>2022-02-24T12:52:51.487Z</time>
      </trkpt>
      <trkpt lat="41.28711" lon="20.78998">
        <ele>755.990987</ele>
        <time>2022-02-24T12:53:06.737Z</time>
      </trkpt>
      <trkpt lat="41.28692" lon="20.78992">
        <ele>757.147439</ele>
        <time>2022-02-24T12:53:12.765Z</time>
      </trkpt>
      <trkpt lat="41.28666" lon="20.78987">
        <ele>758.713214</ele>
        <time>2022-02-24T12:53:21.516Z</time>
      </trkpt>
      <trkpt lat="41.28621" lon="20.78986">
        <ele>761.445583</ele>
        <time>2022-02-24T12:53:47.067Z</time>
      </trkpt>
      <trkpt lat="41.286" lon="20.78996">
        <ele>762.746561</ele>
        <time>2022-02-24T12:54:03.489Z</time>
      </trkpt>
      <trkpt lat="41.28583" lon="20.7901">
        <ele>763.961836</ele>
        <time>2022-02-24T12:54:19.552Z</time>
      </trkpt>
      <trkpt lat="41.28576" lon="20.79024">
        <ele>764.721809</ele>
        <time>2022-02-24T12:54:28.941Z</time>
      </trkpt>
      <trkpt lat="41.2857" lon="20.79034">
        <ele>765.322666</ele>
        <time>2022-02-24T12:54:35.269Z</time>
      </trkpt>
      <trkpt lat="41.28552" lon="20.79052">
        <ele>766.899645</ele>
        <time>2022-02-24T12:54:54.508Z</time>
      </trkpt>
      <trkpt lat="41.28546" lon="20.79056">
        <ele>767.459944</ele>
        <time>2022-02-24T12:54:58.792Z</time>
      </trkpt>
      <trkpt lat="41.2854" lon="20.79059">
        <ele>768.012188</ele>
        <time>2022-02-24T12:55:02.621Z</time>
      </trkpt>
      <trkpt lat="41.28521" lon="20.7906">
        <ele>769.690496</ele>
        <time>2022-02-24T12:55:20.055Z</time>
      </trkpt>
      <trkpt lat="41.28498" lon="20.79064">
        <ele>771.7846</ele>
        <time>2022-02-24T12:55:36.936Z</time>
      </trkpt>
      <trkpt lat="41.28473" lon="20.79071">
        <ele>773.96302</ele>
        <time>2022-02-24T12:55:57.446Z</time>
      </trkpt>
      <trkpt lat="41.2846" lon="20.79059">
        <ele>775.367393</ele>
        <time>2022-02-24T12:56:10.718Z</time>
      </trkpt>
      <trkpt lat="41.28305" lon="20.78897">
        <ele>786.490597</ele>
        <time>2022-02-24T12:58:01.820Z</time>
      </trkpt>
      <trkpt lat="41.28273" lon="20.78845">
        <ele>788.359702</ele>
        <time>2022-02-24T12:58:13.891Z</time>
      </trkpt>
      <trkpt lat="41.28206" lon="20.78684">
        <ele>786.312622</ele>
        <time>2022-02-24T12:58:43.241Z</time>
      </trkpt>
      <trkpt lat="41.28155" lon="20.78613">
        <ele>784.859776</ele>
        <time>2022-02-24T12:58:58.515Z</time>
      </trkpt>
      <trkpt lat="41.27722" lon="20.78262">
        <ele>772.582474</ele>
        <time>2022-02-24T13:00:42.788Z</time>
      </trkpt>
      <trkpt lat="41.27629" lon="20.78196">
        <ele>769.181074</ele>
        <time>2022-02-24T13:01:02.868Z</time>
      </trkpt>
      <trkpt lat="41.27608" lon="20.7819">
        <ele>768.472149</ele>
        <time>2022-02-24T13:01:07.001Z</time>
      </trkpt>
      <trkpt lat="41.27565" lon="20.78188">
        <ele>767.056627</ele>
        <time>2022-02-24T13:01:15.287Z</time>
      </trkpt>
      <trkpt lat="41.27541" lon="20.78193">
        <ele>766.353204</ele>
        <time>2022-02-24T13:01:20.142Z</time>
      </trkpt>
      <trkpt lat="41.27463" lon="20.78227">
        <ele>765.026427</ele>
        <time>2022-02-24T13:01:37.314Z</time>
      </trkpt>
      <trkpt lat="41.274" lon="20.7824">
        <ele>764.001582</ele>
        <time>2022-02-24T13:01:52.179Z</time>
      </trkpt>
      <trkpt lat="41.27353" lon="20.7824">
        <ele>763.429816</ele>
        <time>2022-02-24T13:02:03.661Z</time>
      </trkpt>
      <trkpt lat="41.27297" lon="20.78227">
        <ele>763.091437</ele>
        <time>2022-02-24T13:02:17.378Z</time>
      </trkpt>
      <trkpt lat="41.27232" lon="20.78193">
        <ele>762.667275</ele>
        <time>2022-02-24T13:02:34.895Z</time>
      </trkpt>
      <trkpt lat="41.27179" lon="20.78147">
        <ele>762.129495</ele>
        <time>2022-02-24T13:02:50.173Z</time>
      </trkpt>
      <trkpt lat="41.2713" lon="20.78083">
        <ele>761.342935</ele>
        <time>2022-02-24T13:03:06.035Z</time>
      </trkpt>
      <trkpt lat="41.27056" lon="20.77956">
        <ele>759.918833</ele>
        <time>2022-02-24T13:03:32.738Z</time>
      </trkpt>
      <trkpt lat="41.27023" lon="20.77915">
        <ele>759.3582</ele>
        <time>2022-02-24T13:03:42.275Z</time>
      </trkpt>
      <trkpt lat="41.2699" lon="20.77889">
        <ele>758.879833</ele>
        <time>2022-02-24T13:03:50.454Z</time>
      </trkpt>
      <trkpt lat="41.26946" lon="20.77866">
        <ele>758.291869</ele>
        <time>2022-02-24T13:04:01.444Z</time>
      </trkpt>
      <trkpt lat="41.26896" lon="20.77857">
        <ele>758.922424</ele>
        <time>2022-02-24T13:04:15.364Z</time>
      </trkpt>
      <trkpt lat="41.26849" lon="20.77861">
        <ele>759.788986</ele>
        <time>2022-02-24T13:04:30.706Z</time>
      </trkpt>
      <trkpt lat="41.2671" lon="20.77898">
        <ele>762.443613</ele>
        <time>2022-02-24T13:05:30.308Z</time>
      </trkpt>
      <trkpt lat="41.26642" lon="20.77895">
        <ele>763.763208</ele>
        <time>2022-02-24T13:05:58.825Z</time>
      </trkpt>
      <trkpt lat="41.26609" lon="20.7788">
        <ele>764.443927</ele>
        <time>2022-02-24T13:06:11.001Z</time>
      </trkpt>
      <trkpt lat="41.26588" lon="20.77861">
        <ele>764.942773</ele>
        <time>2022-02-24T13:06:18.109Z</time>
      </trkpt>
      <trkpt lat="41.26499" lon="20.77761">
        <ele>761.331978</ele>
        <time>2022-02-24T13:06:41.254Z</time>
      </trkpt>
      <trkpt lat="41.26445" lon="20.77725">
        <ele>759.383169</ele>
        <time>2022-02-24T13:06:52.210Z</time>
      </trkpt>
      <trkpt lat="41.26398" lon="20.77707">
        <ele>757.920748</ele>
        <time>2022-02-24T13:07:01.060Z</time>
      </trkpt>
      <trkpt lat="41.26339" lon="20.77702">
        <ele>756.163768</ele>
        <time>2022-02-24T13:07:12.132Z</time>
      </trkpt>
      <trkpt lat="41.26288" lon="20.77712">
        <ele>754.617215</ele>
        <time>2022-02-24T13:07:22.785Z</time>
      </trkpt>
      <trkpt lat="41.26251" lon="20.77727">
        <ele>754.1658</ele>
        <time>2022-02-24T13:07:32.308Z</time>
      </trkpt>
      <trkpt lat="41.26142" lon="20.7779">
        <ele>756.825357</ele>
        <time>2022-02-24T13:08:17.598Z</time>
      </trkpt>
      <trkpt lat="41.26093" lon="20.77805">
        <ele>757.955482</ele>
        <time>2022-02-24T13:08:40.242Z</time>
      </trkpt>
      <trkpt lat="41.26029" lon="20.77807">
        <ele>759.892393</ele>
        <time>2022-02-24T13:09:09.589Z</time>
      </trkpt>
      <trkpt lat="41.25961" lon="20.7779">
        <ele>761.958471</ele>
        <time>2022-02-24T13:09:40.266Z</time>
      </trkpt>
      <trkpt lat="41.25746" lon="20.77703">
        <ele>764.399798</ele>
        <time>2022-02-24T13:10:52.443Z</time>
      </trkpt>
      <trkpt lat="41.25673" lon="20.77664">
        <ele>760.526373</ele>
        <time>2022-02-24T13:11:07.577Z</time>
      </trkpt>
      <trkpt lat="41.25639" lon="20.77639">
        <ele>758.634749</ele>
        <time>2022-02-24T13:11:14.387Z</time>
      </trkpt>
      <trkpt lat="41.25453" lon="20.77457">
        <ele>743.042962</ele>
        <time>2022-02-24T13:11:53.460Z</time>
      </trkpt>
      <trkpt lat="41.25405" lon="20.77419">
        <ele>740.611226</ele>
        <time>2022-02-24T13:12:03.366Z</time>
      </trkpt>
      <trkpt lat="41.25318" lon="20.77375">
        <ele>737.156632</ele>
        <time>2022-02-24T13:12:21.286Z</time>
      </trkpt>
      <trkpt lat="41.25214" lon="20.77354">
        <ele>735.012235</ele>
        <time>2022-02-24T13:12:44.571Z</time>
      </trkpt>
      <trkpt lat="41.2516" lon="20.77352">
        <ele>734.50599</ele>
        <time>2022-02-24T13:12:57.387Z</time>
      </trkpt>
      <trkpt lat="41.25044" lon="20.77348">
        <ele>734.119747</ele>
        <time>2022-02-24T13:13:26.570Z</time>
      </trkpt>
      <trkpt lat="41.24921" lon="20.7734">
        <ele>734.56258</ele>
        <time>2022-02-24T13:14:02.939Z</time>
      </trkpt>
      <trkpt lat="41.24791" lon="20.77319">
        <ele>736.143756</ele>
        <time>2022-02-24T13:14:45.558Z</time>
      </trkpt>
      <trkpt lat="41.24627" lon="20.77274">
        <ele>738.007913</ele>
        <time>2022-02-24T13:15:42.267Z</time>
      </trkpt>
      <trkpt lat="41.24546" lon="20.77244">
        <ele>738.565417</ele>
        <time>2022-02-24T13:16:06.699Z</time>
      </trkpt>
      <trkpt lat="41.24482" lon="20.77215">
        <ele>738.172335</ele>
        <time>2022-02-24T13:16:23.700Z</time>
      </trkpt>
      <trkpt lat="41.24469" lon="20.77209">
        <ele>738.092428</ele>
        <time>2022-02-24T13:16:27.086Z</time>
      </trkpt>
      <trkpt lat="41.24457" lon="20.77204">
        <ele>738.023505</ele>
        <time>2022-02-24T13:16:29.683Z</time>
      </trkpt>
      <trkpt lat="41.24314" lon="20.77121">
        <ele>737.171804</ele>
        <time>2022-02-24T13:17:05.358Z</time>
      </trkpt>
      <trkpt lat="41.24271" lon="20.77097">
        <ele>736.929139</ele>
        <time>2022-02-24T13:17:17.133Z</time>
      </trkpt>
      <trkpt lat="41.24225" lon="20.77178">
        <ele>737.099757</ele>
        <time>2022-02-24T13:17:39.306Z</time>
      </trkpt>
      <trkpt lat="41.2418" lon="20.77172">
        <ele>737.648673</ele>
        <time>2022-02-24T13:17:53.658Z</time>
      </trkpt>
      <trkpt lat="41.24072" lon="20.77163">
        <ele>738.988545</ele>
        <time>2022-02-24T13:18:32.282Z</time>
      </trkpt>
      <trkpt lat="41.23963" lon="20.77187">
        <ele>740.98898</ele>
        <time>2022-02-24T13:19:14.432Z</time>
      </trkpt>
      <trkpt lat="41.23875" lon="20.77201">
        <ele>742.117478</ele>
        <time>2022-02-24T13:19:45.752Z</time>
      </trkpt>
      <trkpt lat="41.23877" lon="20.77218">
        <ele>742.104708</ele>
        <time>2022-02-24T13:19:50.478Z</time>
      </trkpt>
      <trkpt lat="41.23843" lon="20.77181">
        <ele>742.061934</ele>
        <time>2022-02-24T13:20:03.503Z</time>
      </trkpt>
      <trkpt lat="41.23812" lon="20.77159">
        <ele>742.027236</ele>
        <time>2022-02-24T13:20:13.270Z</time>
      </trkpt>
      <trkpt lat="41.23765" lon="20.77102">
        <ele>741.956006</ele>
        <time>2022-02-24T13:20:28.323Z</time>
      </trkpt>
      <trkpt lat="41.23726" lon="20.77017">
        <ele>740.056311</ele>
        <time>2022-02-24T13:20:44.231Z</time>
      </trkpt>
      <trkpt lat="41.23697" lon="20.76934">
        <ele>738.323447</ele>
        <time>2022-02-24T13:20:58.599Z</time>
      </trkpt>
      <trkpt lat="41.23684" lon="20.76914">
        <ele>737.808539</ele>
        <time>2022-02-24T13:21:02.869Z</time>
      </trkpt>
      <trkpt lat="41.23675" lon="20.76848">
        <ele>736.394364</ele>
        <time>2022-02-24T13:21:13.418Z</time>
      </trkpt>
      <trkpt lat="41.23653" lon="20.76787">
        <ele>734.905938</ele>
        <time>2022-02-24T13:21:24.353Z</time>
      </trkpt>
      <trkpt lat="41.23653" lon="20.76774">
        <ele>734.628424</ele>
        <time>2022-02-24T13:21:26.233Z</time>
      </trkpt>
      <trkpt lat="41.23618" lon="20.7677">
        <ele>733.598803</ele>
        <time>2022-02-24T13:21:33.137Z</time>
      </trkpt>
      <trkpt lat="41.23615" lon="20.76753">
        <ele>733.212406</ele>
        <time>2022-02-24T13:21:35.746Z</time>
      </trkpt>
      <trkpt lat="41.23611" lon="20.76737">
        <ele>732.841372</ele>
        <time>2022-02-24T13:21:38.434Z</time>
      </trkpt>
      <trkpt lat="41.2359" lon="20.767">
        <ele>731.793331</ele>
        <time>2022-02-24T13:21:45.152Z</time>
      </trkpt>
      <trkpt lat="41.23571" lon="20.76663">
        <ele>730.682951</ele>
        <time>2022-02-24T13:21:51.723Z</time>
      </trkpt>
      <trkpt lat="41.23558" lon="20.7664">
        <ele>730.00828</ele>
        <time>2022-02-24T13:21:55.583Z</time>
      </trkpt>
      <trkpt lat="41.23551" lon="20.76615">
        <ele>729.339904</ele>
        <time>2022-02-24T13:21:59.809Z</time>
      </trkpt>
      <trkpt lat="41.2355" lon="20.76601">
        <ele>728.999037</ele>
        <time>2022-02-24T13:22:01.743Z</time>
      </trkpt>
      <trkpt lat="41.23544" lon="20.76546">
        <ele>727.622596</ele>
        <time>2022-02-24T13:22:09.978Z</time>
      </trkpt>
      <trkpt lat="41.23544" lon="20.76426">
        <ele>725.070694</ele>
        <time>2022-02-24T13:22:27.638Z</time>
      </trkpt>
      <trkpt lat="41.23535" lon="20.76211">
        <ele>721.36011</ele>
        <time>2022-02-24T13:23:01.303Z</time>
      </trkpt>
      <trkpt lat="41.23529" lon="20.76173">
        <ele>720.902075</ele>
        <time>2022-02-24T13:23:07.609Z</time>
      </trkpt>
      <trkpt lat="41.23518" lon="20.76146">
        <ele>720.537705</ele>
        <time>2022-02-24T13:23:12.657Z</time>
      </trkpt>
      <trkpt lat="41.2348" lon="20.76071">
        <ele>719.467364</ele>
        <time>2022-02-24T13:23:27.683Z</time>
      </trkpt>
      <trkpt lat="41.23463" lon="20.76045">
        <ele>719.050495</ele>
        <time>2022-02-24T13:23:33.611Z</time>
      </trkpt>
      <trkpt lat="41.23342" lon="20.7592">
        <ele>717.358989</ele>
        <time>2022-02-24T13:24:08.559Z</time>
      </trkpt>
      <trkpt lat="41.23318" lon="20.75885">
        <ele>716.980128</ele>
        <time>2022-02-24T13:24:16.900Z</time>
      </trkpt>
      <trkpt lat="41.23132" lon="20.75504">
        <ele>714.282042</ele>
        <time>2022-02-24T13:25:37.776Z</time>
      </trkpt>
      <trkpt lat="41.23106" lon="20.75437">
        <ele>714.031423</ele>
        <time>2022-02-24T13:25:51.798Z</time>
      </trkpt>
      <trkpt lat="41.23068" lon="20.75315">
        <ele>713.669541</ele>
        <time>2022-02-24T13:26:16.941Z</time>
      </trkpt>
      <trkpt lat="41.2303" lon="20.75282">
        <ele>713.513364</ele>
        <time>2022-02-24T13:26:28.796Z</time>
      </trkpt>
      <trkpt lat="41.2302" lon="20.75265">
        <ele>713.471726</ele>
        <time>2022-02-24T13:26:33.072Z</time>
      </trkpt>
      <trkpt lat="41.23015" lon="20.75213">
        <ele>713.370024</ele>
        <time>2022-02-24T13:26:43.392Z</time>
      </trkpt>
      <trkpt lat="41.22963" lon="20.75076">
        <ele>713.071638</ele>
        <time>2022-02-24T13:27:12.839Z</time>
      </trkpt>
      <trkpt lat="41.22916" lon="20.74989">
        <ele>712.671946</ele>
        <time>2022-02-24T13:27:32.758Z</time>
      </trkpt>
      <trkpt lat="41.22777" lon="20.74758">
        <ele>711.464353</ele>
        <time>2022-02-24T13:28:26.739Z</time>
      </trkpt>
      <trkpt lat="41.22739" lon="20.74706">
        <ele>711.151801</ele>
        <time>2022-02-24T13:28:39.974Z</time>
      </trkpt>
      <trkpt lat="41.22639" lon="20.74628">
        <ele>710.73427</ele>
        <time>2022-02-24T13:29:09.294Z</time>
      </trkpt>
      <trkpt lat="41.22592" lon="20.74586">
        <ele>710.535158</ele>
        <time>2022-02-24T13:29:23.524Z</time>
      </trkpt>
      <trkpt lat="41.22583" lon="20.74581">
        <ele>710.501777</ele>
        <time>2022-02-24T13:29:26.031Z</time>
      </trkpt>
      <trkpt lat="41.2255" lon="20.74586">
        <ele>710.425115</ele>
        <time>2022-02-24T13:29:34.669Z</time>
      </trkpt>
      <trkpt lat="41.22539" lon="20.74578">
        <ele>710.397774</ele>
        <time>2022-02-24T13:29:37.826Z</time>
      </trkpt>
      <trkpt lat="41.22535" lon="20.74565">
        <ele>710.373198</ele>
        <time>2022-02-24T13:29:40.554Z</time>
      </trkpt>
      <trkpt lat="41.22531" lon="20.74532">
        <ele>710.316713</ele>
        <time>2022-02-24T13:29:47.018Z</time>
      </trkpt>
      <trkpt lat="41.2253" lon="20.74524">
        <ele>710.302446</ele>
        <time>2022-02-24T13:29:48.645Z</time>
      </trkpt>
      <trkpt lat="41.22507" lon="20.74523">
        <ele>710.24985</ele>
        <time>2022-02-24T13:29:54.842Z</time>
      </trkpt>
      <trkpt lat="41.22386" lon="20.74498">
        <ele>710.040608</ele>
        <time>2022-02-24T13:30:28.058Z</time>
      </trkpt>
      <trkpt lat="41.22237" lon="20.74439">
        <ele>709.868905</ele>
        <time>2022-02-24T13:31:10.477Z</time>
      </trkpt>
      <trkpt lat="41.22164" lon="20.7443">
        <ele>709.763814</ele>
        <time>2022-02-24T13:31:30.525Z</time>
      </trkpt>
      <trkpt lat="41.22129" lon="20.74412">
        <ele>709.710575</ele>
        <time>2022-02-24T13:31:40.652Z</time>
      </trkpt>
      <trkpt lat="41.22088" lon="20.74404">
        <ele>709.65141</ele>
        <time>2022-02-24T13:31:51.973Z</time>
      </trkpt>
      <trkpt lat="41.2208" lon="20.74392">
        <ele>709.636398</ele>
        <time>2022-02-24T13:31:55.210Z</time>
      </trkpt>
      <trkpt lat="41.22079" lon="20.74384">
        <ele>709.628794</ele>
        <time>2022-02-24T13:31:56.764Z</time>
      </trkpt>
      <trkpt lat="41.22079" lon="20.7438">
        <ele>709.625612</ele>
        <time>2022-02-24T13:31:57.479Z</time>
      </trkpt>
      <trkpt lat="41.22076" lon="20.74293">
        <ele>709.54246</ele>
        <time>2022-02-24T13:32:15.235Z</time>
      </trkpt>
      <trkpt lat="41.22052" lon="20.74161">
        <ele>709.403614</ele>
        <time>2022-02-24T13:32:43.270Z</time>
      </trkpt>
      <trkpt lat="41.2205" lon="20.7411">
        <ele>709.328014</ele>
        <time>2022-02-24T13:32:53.783Z</time>
      </trkpt>
      <trkpt lat="41.22039" lon="20.7409">
        <ele>709.29123</ele>
        <time>2022-02-24T13:32:58.751Z</time>
      </trkpt>
      <trkpt lat="41.22032" lon="20.74096">
        <ele>709.27466</ele>
        <time>2022-02-24T13:33:00.946Z</time>
      </trkpt>
      <trkpt lat="41.22028" lon="20.74084">
        <ele>709.255525</ele>
        <time>2022-02-24T13:33:03.667Z</time>
      </trkpt>
      <trkpt lat="41.22023" lon="20.74068">
        <ele>709.229528</ele>
        <time>2022-02-24T13:33:07.173Z</time>
      </trkpt>
      <trkpt lat="41.22015" lon="20.7405">
        <ele>709.198212</ele>
        <time>2022-02-24T13:33:11.436Z</time>
      </trkpt>
      <trkpt lat="41.22" lon="20.7404">
        <ele>709.164204</ele>
        <time>2022-02-24T13:33:15.949Z</time>
      </trkpt>
      <trkpt lat="41.21973" lon="20.7402">
        <ele>709.103025</ele>
        <time>2022-02-24T13:33:23.921Z</time>
      </trkpt>
      <trkpt lat="41.21893" lon="20.73999">
        <ele>708.578356</ele>
        <time>2022-02-24T13:33:43.722Z</time>
      </trkpt>
      <trkpt lat="41.21834" lon="20.73962">
        <ele>708.090608</ele>
        <time>2022-02-24T13:33:59.005Z</time>
      </trkpt>
      <trkpt lat="41.21818" lon="20.73948">
        <ele>707.947341</ele>
        <time>2022-02-24T13:34:03.299Z</time>
      </trkpt>
      <trkpt lat="41.21804" lon="20.73925">
        <ele>707.780574</ele>
        <time>2022-02-24T13:34:08.573Z</time>
      </trkpt>
      <trkpt lat="41.21752" lon="20.7385">
        <ele>707.358696</ele>
        <time>2022-02-24T13:34:26.703Z</time>
      </trkpt>
      <trkpt lat="41.2175" lon="20.73847">
        <ele>707.342281</ele>
        <time>2022-02-24T13:34:27.373Z</time>
      </trkpt>
      <trkpt lat="41.2174" lon="20.7383">
        <ele>707.256368</ele>
        <time>2022-02-24T13:34:31.392Z</time>
      </trkpt>
      <trkpt lat="41.21686" lon="20.73735">
        <ele>706.786045</ele>
        <time>2022-02-24T13:34:54.005Z</time>
      </trkpt>
      <trkpt lat="41.21637" lon="20.73621">
        <ele>706.655292</ele>
        <time>2022-02-24T13:35:20.512Z</time>
      </trkpt>
      <trkpt lat="41.2159" lon="20.73551">
        <ele>706.569595</ele>
        <time>2022-02-24T13:35:39.089Z</time>
      </trkpt>
      <trkpt lat="41.21583" lon="20.73522">
        <ele>706.491963</ele>
        <time>2022-02-24T13:35:44.891Z</time>
      </trkpt>
      <trkpt lat="41.21586" lon="20.73465">
        <ele>706.212573</ele>
        <time>2022-02-24T13:35:55.570Z</time>
      </trkpt>
      <trkpt lat="41.2162" lon="20.7328">
        <ele>705.276311</ele>
        <time>2022-02-24T13:36:29.527Z</time>
      </trkpt>
      <trkpt lat="41.21628" lon="20.73201">
        <ele>704.847746</ele>
        <time>2022-02-24T13:36:43.547Z</time>
      </trkpt>
      <trkpt lat="41.21616" lon="20.72945">
        <ele>703.801442</ele>
        <time>2022-02-24T13:37:30.498Z</time>
      </trkpt>
      <trkpt lat="41.21622" lon="20.7283">
        <ele>703.502802</ele>
        <time>2022-02-24T13:37:53.082Z</time>
      </trkpt>
      <trkpt lat="41.21642" lon="20.72755">
        <ele>703.405024</ele>
        <time>2022-02-24T13:38:08.877Z</time>
      </trkpt>
      <trkpt lat="41.21647" lon="20.72708">
        <ele>703.35176</ele>
        <time>2022-02-24T13:38:18.358Z</time>
      </trkpt>
      <trkpt lat="41.21652" lon="20.72606">
        <ele>703.237604</ele>
        <time>2022-02-24T13:38:38.284Z</time>
      </trkpt>
      <trkpt lat="41.21643" lon="20.7254">
        <ele>703.106029</ele>
        <time>2022-02-24T13:38:51.175Z</time>
      </trkpt>
      <trkpt lat="41.21621" lon="20.72428">
        <ele>702.850489</ele>
        <time>2022-02-24T13:39:13.086Z</time>
      </trkpt>
      <trkpt lat="41.21564" lon="20.72231">
        <ele>702.307183</ele>
        <time>2022-02-24T13:39:53.223Z</time>
      </trkpt>
      <trkpt lat="41.21497" lon="20.72065">
        <ele>701.745931</ele>
        <time>2022-02-24T13:40:28.652Z</time>
      </trkpt>
      <trkpt lat="41.2148" lon="20.72006">
        <ele>701.536907</ele>
        <time>2022-02-24T13:40:40.620Z</time>
      </trkpt>
      <trkpt lat="41.21466" lon="20.7198">
        <ele>701.432238</ele>
        <time>2022-02-24T13:40:46.584Z</time>
      </trkpt>
      <trkpt lat="41.21388" lon="20.71887">
        <ele>700.893881</ele>
        <time>2022-02-24T13:41:12.115Z</time>
      </trkpt>
      <trkpt lat="41.21344" lon="20.71846">
        <ele>700.588841</ele>
        <time>2022-02-24T13:41:25.207Z</time>
      </trkpt>
      <trkpt lat="41.21293" lon="20.718">
        <ele>700.239738</ele>
        <time>2022-02-24T13:41:40.218Z</time>
      </trkpt>
      <trkpt lat="41.21217" lon="20.71699">
        <ele>699.76027</ele>
        <time>2022-02-24T13:42:06.562Z</time>
      </trkpt>
      <trkpt lat="41.21204" lon="20.71662">
        <ele>699.62318</ele>
        <time>2022-02-24T13:42:14.305Z</time>
      </trkpt>
      <trkpt lat="41.21201" lon="20.71628">
        <ele>699.507416</ele>
        <time>2022-02-24T13:42:20.889Z</time>
      </trkpt>
      <trkpt lat="41.21226" lon="20.71521">
        <ele>699.289107</ele>
        <time>2022-02-24T13:42:42.531Z</time>
      </trkpt>
      <trkpt lat="41.21228" lon="20.71493">
        <ele>699.246122</ele>
        <time>2022-02-24T13:42:47.849Z</time>
      </trkpt>
      <trkpt lat="41.21224" lon="20.71482">
        <ele>699.226702</ele>
        <time>2022-02-24T13:42:50.250Z</time>
      </trkpt>
      <trkpt lat="41.21194" lon="20.71442">
        <ele>699.13828</ele>
        <time>2022-02-24T13:43:01.218Z</time>
      </trkpt>
      <trkpt lat="41.2118" lon="20.71394">
        <ele>699.05782</ele>
        <time>2022-02-24T13:43:11.312Z</time>
      </trkpt>
      <trkpt lat="41.21096" lon="20.71299">
        <ele>698.962492</ele>
        <time>2022-02-24T13:43:40.275Z</time>
      </trkpt>
      <trkpt lat="41.21066" lon="20.71282">
        <ele>698.934218</ele>
        <time>2022-02-24T13:43:49.111Z</time>
      </trkpt>
      <trkpt lat="41.2104" lon="20.71251">
        <ele>698.9054</ele>
        <time>2022-02-24T13:43:58.088Z</time>
      </trkpt>
      <trkpt lat="41.21031" lon="20.71231">
        <ele>698.875531</ele>
        <time>2022-02-24T13:44:02.809Z</time>
      </trkpt>
      <trkpt lat="41.21029" lon="20.71214">
        <ele>698.850875</ele>
        <time>2022-02-24T13:44:06.152Z</time>
      </trkpt>
      <trkpt lat="41.21035" lon="20.71188">
        <ele>698.810253</ele>
        <time>2022-02-24T13:44:11.680Z</time>
      </trkpt>
      <trkpt lat="41.2105" lon="20.71164">
        <ele>698.766642</ele>
        <time>2022-02-24T13:44:17.588Z</time>
      </trkpt>
      <trkpt lat="41.21054" lon="20.71149">
        <ele>698.743294</ele>
        <time>2022-02-24T13:44:20.757Z</time>
      </trkpt>
      <trkpt lat="41.21032" lon="20.71099">
        <ele>698.659496</ele>
        <time>2022-02-24T13:44:32.014Z</time>
      </trkpt>
      <trkpt lat="41.20996" lon="20.7106">
        <ele>698.570583</ele>
        <time>2022-02-24T13:44:43.824Z</time>
      </trkpt>
      <trkpt lat="41.20975" lon="20.71019">
        <ele>698.468952</ele>
        <time>2022-02-24T13:44:53.197Z</time>
      </trkpt>
      <trkpt lat="41.20922" lon="20.70951">
        <ele>698.248273</ele>
        <time>2022-02-24T13:45:11.948Z</time>
      </trkpt>
      <trkpt lat="41.20837" lon="20.70819">
        <ele>697.85796</ele>
        <time>2022-02-24T13:45:45.136Z</time>
      </trkpt>
      <trkpt lat="41.20813" lon="20.70794">
        <ele>697.766285</ele>
        <time>2022-02-24T13:45:52.815Z</time>
      </trkpt>
      <trkpt lat="41.20779" lon="20.70769">
        <ele>697.647306</ele>
        <time>2022-02-24T13:46:02.738Z</time>
      </trkpt>
      <trkpt lat="41.20746" lon="20.70752">
        <ele>697.53915</ele>
        <time>2022-02-24T13:46:11.756Z</time>
      </trkpt>
      <trkpt lat="41.20725" lon="20.70719">
        <ele>697.448679</ele>
        <time>2022-02-24T13:46:19.921Z</time>
      </trkpt>
      <trkpt lat="41.20696" lon="20.70658">
        <ele>697.319549</ele>
        <time>2022-02-24T13:46:33.660Z</time>
      </trkpt>
      <trkpt lat="41.20686" lon="20.70607">
        <ele>697.225201</ele>
        <time>2022-02-24T13:46:43.716Z</time>
      </trkpt>
      <trkpt lat="41.20665" lon="20.70565">
        <ele>697.135755</ele>
        <time>2022-02-24T13:46:53.468Z</time>
      </trkpt>
      <trkpt lat="41.20655" lon="20.7049">
        <ele>697.08412</ele>
        <time>2022-02-24T13:47:08.733Z</time>
      </trkpt>
      <trkpt lat="41.20646" lon="20.70428">
        <ele>697.160692</ele>
        <time>2022-02-24T13:47:21.550Z</time>
      </trkpt>
      <trkpt lat="41.20588" lon="20.70404">
        <ele>697.258419</ele>
        <time>2022-02-24T13:47:38.328Z</time>
      </trkpt>
      <trkpt lat="41.20522" lon="20.70368">
        <ele>697.368566</ele>
        <time>2022-02-24T13:47:58.520Z</time>
      </trkpt>
      <trkpt lat="41.20405" lon="20.70297">
        <ele>697.541709</ele>
        <time>2022-02-24T13:48:33.902Z</time>
      </trkpt>
      <trkpt lat="41.2036" lon="20.70262">
        <ele>697.515718</ele>
        <time>2022-02-24T13:48:47.667Z</time>
      </trkpt>
      <trkpt lat="41.20334" lon="20.70242">
        <ele>697.422892</ele>
        <time>2022-02-24T13:48:55.397Z</time>
      </trkpt>
      <trkpt lat="41.20317" lon="20.70204">
        <ele>697.32044</ele>
        <time>2022-02-24T13:49:03.747Z</time>
      </trkpt>
      <trkpt lat="41.20308" lon="20.70168">
        <ele>697.233166</ele>
        <time>2022-02-24T13:49:10.870Z</time>
      </trkpt>
      <trkpt lat="41.20272" lon="20.70094">
        <ele>697.027162</ele>
        <time>2022-02-24T13:49:27.605Z</time>
      </trkpt>
      <trkpt lat="41.20257" lon="20.70065">
        <ele>696.879353</ele>
        <time>2022-02-24T13:49:34.120Z</time>
      </trkpt>
      <trkpt lat="41.20245" lon="20.70049">
        <ele>696.782759</ele>
        <time>2022-02-24T13:49:38.340Z</time>
      </trkpt>
      <trkpt lat="41.20237" lon="20.70053">
        <ele>696.734746</ele>
        <time>2022-02-24T13:49:40.452Z</time>
      </trkpt>
      <trkpt lat="41.20177" lon="20.70033">
        <ele>696.390835</ele>
        <time>2022-02-24T13:49:55.603Z</time>
      </trkpt>
      <trkpt lat="41.20141" lon="20.70011">
        <ele>696.171449</ele>
        <time>2022-02-24T13:50:05.220Z</time>
      </trkpt>
      <trkpt lat="41.20094" lon="20.70006">
        <ele>695.859576</ele>
        <time>2022-02-24T13:50:16.642Z</time>
      </trkpt>
      <trkpt lat="41.2006" lon="20.70028">
        <ele>695.555401</ele>
        <time>2022-02-24T13:50:25.756Z</time>
      </trkpt>
      <trkpt lat="41.20042" lon="20.70068">
        <ele>695.271472</ele>
        <time>2022-02-24T13:50:34.110Z</time>
      </trkpt>
      <trkpt lat="41.2001" lon="20.70095">
        <ele>694.972001</ele>
        <time>2022-02-24T13:50:42.784Z</time>
      </trkpt>
      <trkpt lat="41.19934" lon="20.70119">
        <ele>694.397419</ele>
        <time>2022-02-24T13:51:01.130Z</time>
      </trkpt>
      <trkpt lat="41.19875" lon="20.7013">
        <ele>694.030214</ele>
        <time>2022-02-24T13:51:15.355Z</time>
      </trkpt>
      <trkpt lat="41.1985" lon="20.70152">
        <ele>693.850787</ele>
        <time>2022-02-24T13:51:22.427Z</time>
      </trkpt>
      <trkpt lat="41.19806" lon="20.70217">
        <ele>693.476754</ele>
        <time>2022-02-24T13:51:38.893Z</time>
      </trkpt>
      <trkpt lat="41.19781" lon="20.70227">
        <ele>693.467989</ele>
        <time>2022-02-24T13:51:45.558Z</time>
      </trkpt>
      <trkpt lat="41.19625" lon="20.70233">
        <ele>693.426396</ele>
        <time>2022-02-24T13:52:27.923Z</time>
      </trkpt>
      <trkpt lat="41.19578" lon="20.70226">
        <ele>693.475819</ele>
        <time>2022-02-24T13:52:41.064Z</time>
      </trkpt>
      <trkpt lat="41.19343" lon="20.70255">
        <ele>693.568837</ele>
        <time>2022-02-24T13:53:44.930Z</time>
      </trkpt>
      <trkpt lat="41.18796" lon="20.70253">
        <ele>692.815858</ele>
        <time>2022-02-24T13:56:05.532Z</time>
      </trkpt>
      <trkpt lat="41.18781" lon="20.70258">
        <ele>692.822774</ele>
        <time>2022-02-24T13:56:09.744Z</time>
      </trkpt>
      <trkpt lat="41.18754" lon="20.70272">
        <ele>692.836322</ele>
        <time>2022-02-24T13:56:18.055Z</time>
      </trkpt>
      <trkpt lat="41.1874" lon="20.70276">
        <ele>692.84295</ele>
        <time>2022-02-24T13:56:22.553Z</time>
      </trkpt>
      <trkpt lat="41.18714" lon="20.7029">
        <ele>693.03507</ele>
        <time>2022-02-24T13:56:30.463Z</time>
      </trkpt>
      <trkpt lat="41.18694" lon="20.70317">
        <ele>693.251223</ele>
        <time>2022-02-24T13:56:38.897Z</time>
      </trkpt>
      <trkpt lat="41.18689" lon="20.70328">
        <ele>693.323594</ele>
        <time>2022-02-24T13:56:41.926Z</time>
      </trkpt>
      <trkpt lat="41.18685" lon="20.70337">
        <ele>693.382303</ele>
        <time>2022-02-24T13:56:44.524Z</time>
      </trkpt>
      <trkpt lat="41.18664" lon="20.70429">
        <ele>693.926542</ele>
        <time>2022-02-24T13:57:06.721Z</time>
      </trkpt>
      <trkpt lat="41.18648" lon="20.70553">
        <ele>694.547548</ele>
        <time>2022-02-24T13:57:36.093Z</time>
      </trkpt>
      <trkpt lat="41.18633" lon="20.70597">
        <ele>694.764588</ele>
        <time>2022-02-24T13:57:46.842Z</time>
      </trkpt>
      <trkpt lat="41.18628" lon="20.7061">
        <ele>694.829065</ele>
        <time>2022-02-24T13:57:50.048Z</time>
      </trkpt>
      <trkpt lat="41.18621" lon="20.70634">
        <ele>694.944684</ele>
        <time>2022-02-24T13:57:55.691Z</time>
      </trkpt>
      <trkpt lat="41.18614" lon="20.70657">
        <ele>695.058829</ele>
        <time>2022-02-24T13:58:01.216Z</time>
      </trkpt>
      <trkpt lat="41.18609" lon="20.70681">
        <ele>695.168003</ele>
        <time>2022-02-24T13:58:06.401Z</time>
      </trkpt>
      <trkpt lat="41.18598" lon="20.70723">
        <ele>695.270423</ele>
        <time>2022-02-24T13:58:15.945Z</time>
      </trkpt>
      <trkpt lat="41.18594" lon="20.70747">
        <ele>695.272812</ele>
        <time>2022-02-24T13:58:20.935Z</time>
      </trkpt>
      <trkpt lat="41.18593" lon="20.70753">
        <ele>695.273474</ele>
        <time>2022-02-24T13:58:22.323Z</time>
      </trkpt>
      <trkpt lat="41.18585" lon="20.70777">
        <ele>695.276111</ele>
        <time>2022-02-24T13:58:27.676Z</time>
      </trkpt>
      <trkpt lat="41.18565" lon="20.70826">
        <ele>695.281636</ele>
        <time>2022-02-24T13:58:38.901Z</time>
      </trkpt>
      <trkpt lat="41.18558" lon="20.70835">
        <ele>695.282975</ele>
        <time>2022-02-24T13:58:41.617Z</time>
      </trkpt>
      <trkpt lat="41.18537" lon="20.70843">
        <ele>695.285889</ele>
        <time>2022-02-24T13:58:47.390Z</time>
      </trkpt>
      <trkpt lat="41.18498" lon="20.70859">
        <ele>695.291321</ele>
        <time>2022-02-24T13:58:57.985Z</time>
      </trkpt>
      <trkpt lat="41.18482" lon="20.7086">
        <ele>695.254775</ele>
        <time>2022-02-24T13:59:01.880Z</time>
      </trkpt>
      <trkpt lat="41.1848" lon="20.70833">
        <ele>695.176974</ele>
        <time>2022-02-24T13:59:06.987Z</time>
      </trkpt>
      <trkpt lat="41.18472" lon="20.7081">
        <ele>695.103894</ele>
        <time>2022-02-24T13:59:11.815Z</time>
      </trkpt>
      <trkpt lat="41.18463" lon="20.70799">
        <ele>695.057877</ele>
        <time>2022-02-24T13:59:14.796Z</time>
      </trkpt>
      <trkpt lat="41.184" lon="20.70769">
        <ele>694.800001</ele>
        <time>2022-02-24T13:59:31.699Z</time>
      </trkpt>
      <trkpt lat="41.18375" lon="20.70758">
        <ele>694.703449</ele>
        <time>2022-02-24T13:59:38.031Z</time>
      </trkpt>
      <trkpt lat="41.18356" lon="20.70754">
        <ele>694.62921</ele>
        <time>2022-02-24T13:59:42.839Z</time>
      </trkpt>
      <trkpt lat="41.1832" lon="20.70749">
        <ele>694.480528</ele>
        <time>2022-02-24T13:59:51.995Z</time>
      </trkpt>
      <trkpt lat="41.1827" lon="20.70742">
        <ele>694.272688</ele>
        <time>2022-02-24T14:00:04.576Z</time>
      </trkpt>
      <trkpt lat="41.18238" lon="20.70731">
        <ele>694.137595</ele>
        <time>2022-02-24T14:00:12.697Z</time>
      </trkpt>
      <trkpt lat="41.18188" lon="20.70719">
        <ele>693.928849</ele>
        <time>2022-02-24T14:00:25.298Z</time>
      </trkpt>
      <trkpt lat="41.18122" lon="20.70707">
        <ele>693.650275</ele>
        <time>2022-02-24T14:00:42.186Z</time>
      </trkpt>
      <trkpt lat="41.18079" lon="20.70699">
        <ele>693.467793</ele>
        <time>2022-02-24T14:00:53.040Z</time>
      </trkpt>
      <trkpt lat="41.18048" lon="20.70686">
        <ele>693.332655</ele>
        <time>2022-02-24T14:01:01.045Z</time>
      </trkpt>
      <trkpt lat="41.18013" lon="20.70676">
        <ele>693.180542</ele>
        <time>2022-02-24T14:01:10.068Z</time>
      </trkpt>
      <trkpt lat="41.17936" lon="20.70666">
        <ele>692.835226</ele>
        <time>2022-02-24T14:01:29.129Z</time>
      </trkpt>
      <trkpt lat="41.1785" lon="20.70666">
        <ele>692.440801</ele>
        <time>2022-02-24T14:01:50.358Z</time>
      </trkpt>
      <trkpt lat="41.17741" lon="20.7069">
        <ele>692.093767</ele>
        <time>2022-02-24T14:02:18.029Z</time>
      </trkpt>
      <trkpt lat="41.17729" lon="20.7069">
        <ele>692.062012</ele>
        <time>2022-02-24T14:02:21.214Z</time>
      </trkpt>
      <trkpt lat="41.17625" lon="20.70682">
        <ele>691.822107</ele>
        <time>2022-02-24T14:02:48.157Z</time>
      </trkpt>
      <trkpt lat="41.17508" lon="20.70637">
        <ele>691.740443</ele>
        <time>2022-02-24T14:03:19.918Z</time>
      </trkpt>
      <trkpt lat="41.17415" lon="20.70601">
        <ele>691.995786</ele>
        <time>2022-02-24T14:03:46.451Z</time>
      </trkpt>
      <trkpt lat="41.17399" lon="20.70587">
        <ele>692.097514</ele>
        <time>2022-02-24T14:03:51.768Z</time>
      </trkpt>
      <trkpt lat="41.17398" lon="20.70585">
        <ele>692.108842</ele>
        <time>2022-02-24T14:03:52.379Z</time>
      </trkpt>
      <trkpt lat="41.17392" lon="20.70584">
        <ele>692.141156</ele>
        <time>2022-02-24T14:03:54.047Z</time>
      </trkpt>
      <trkpt lat="41.1739" lon="20.70585">
        <ele>692.151697</ele>
        <time>2022-02-24T14:03:54.623Z</time>
      </trkpt>
      <trkpt lat="41.17371" lon="20.70585">
        <ele>692.251653</ele>
        <time>2022-02-24T14:04:00.172Z</time>
      </trkpt>
      <trkpt lat="41.1736" lon="20.7058">
        <ele>692.313961</ele>
        <time>2022-02-24T14:04:03.761Z</time>
      </trkpt>
      <trkpt lat="41.17249" lon="20.70536">
        <ele>692.889462</ele>
        <time>2022-02-24T14:04:39.661Z</time>
      </trkpt>
      <trkpt lat="41.17225" lon="20.70526">
        <ele>692.99517</ele>
        <time>2022-02-24T14:04:47.544Z</time>
      </trkpt>
      <trkpt lat="41.17201" lon="20.70518">
        <ele>693.101409</ele>
        <time>2022-02-24T14:04:54.952Z</time>
      </trkpt>
      <trkpt lat="41.17186" lon="20.70514">
        <ele>693.162895</ele>
        <time>2022-02-24T14:04:59.293Z</time>
      </trkpt>
      <trkpt lat="41.17174" lon="20.70512">
        <ele>693.217132</ele>
        <time>2022-02-24T14:05:02.542Z</time>
      </trkpt>
      <trkpt lat="41.17045" lon="20.70502">
        <ele>693.024554</ele>
        <time>2022-02-24T14:05:36.048Z</time>
      </trkpt>
      <trkpt lat="41.1704" lon="20.70496">
        <ele>692.988071</ele>
        <time>2022-02-24T14:05:37.525Z</time>
      </trkpt>
      <trkpt lat="41.17038" lon="20.70484">
        <ele>692.936441</ele>
        <time>2022-02-24T14:05:39.562Z</time>
      </trkpt>
      <trkpt lat="41.17055" lon="20.70348">
        <ele>692.399552</ele>
        <time>2022-02-24T14:06:04.025Z</time>
      </trkpt>
      <trkpt lat="41.17158" lon="20.69535">
        <ele>691.492681</ele>
        <time>2022-02-24T14:08:43.967Z</time>
      </trkpt>
      <trkpt lat="41.17159" lon="20.69527">
        <ele>691.513239</ele>
        <time>2022-02-24T14:08:46.006Z</time>
      </trkpt>
      <trkpt lat="41.17166" lon="20.6947">
        <ele>691.652663</ele>
        <time>2022-02-24T14:08:59.325Z</time>
      </trkpt>
      <trkpt lat="41.17175" lon="20.69405">
        <ele>691.88239</ele>
        <time>2022-02-24T14:09:15.035Z</time>
      </trkpt>
      <trkpt lat="41.172" lon="20.69229">
        <ele>692.957249</ele>
        <time>2022-02-24T14:09:57.700Z</time>
      </trkpt>
      <trkpt lat="41.17208" lon="20.69177">
        <ele>693.188179</ele>
        <time>2022-02-24T14:10:08.793Z</time>
      </trkpt>
      <trkpt lat="41.17219" lon="20.69101">
        <ele>693.16679</ele>
        <time>2022-02-24T14:10:23.504Z</time>
      </trkpt>
      <trkpt lat="41.17231" lon="20.69017">
        <ele>693.142865</ele>
        <time>2022-02-24T14:10:40.304Z</time>
      </trkpt>
      <trkpt lat="41.17233" lon="20.69007">
        <ele>693.139932</ele>
        <time>2022-02-24T14:10:42.273Z</time>
      </trkpt>
      <trkpt lat="41.17245" lon="20.68917">
        <ele>693.162131</ele>
        <time>2022-02-24T14:11:00.455Z</time>
      </trkpt>
      <trkpt lat="41.17258" lon="20.68842">
        <ele>693.235534</ele>
        <time>2022-02-24T14:11:16.777Z</time>
      </trkpt>
      <trkpt lat="41.17263" lon="20.688">
        <ele>693.275748</ele>
        <time>2022-02-24T14:11:25.390Z</time>
      </trkpt>
      <trkpt lat="41.17273" lon="20.68745">
        <ele>693.328832</ele>
        <time>2022-02-24T14:11:37.138Z</time>
      </trkpt>
      <trkpt lat="41.17282" lon="20.68725">
        <ele>693.350895</ele>
        <time>2022-02-24T14:11:41.968Z</time>
      </trkpt>
      <trkpt lat="41.17289" lon="20.68717">
        <ele>693.31509</ele>
        <time>2022-02-24T14:11:44.753Z</time>
      </trkpt>
      <trkpt lat="41.17294" lon="20.68716">
        <ele>693.294189</ele>
        <time>2022-02-24T14:11:46.319Z</time>
      </trkpt>
      <trkpt lat="41.17298" lon="20.68712">
        <ele>693.273697</ele>
        <time>2022-02-24T14:11:47.681Z</time>
      </trkpt>
      <trkpt lat="41.17301" lon="20.68707">
        <ele>693.255592</ele>
        <time>2022-02-24T14:11:48.949Z</time>
      </trkpt>
      <trkpt lat="41.17301" lon="20.68702">
        <ele>693.241304</ele>
        <time>2022-02-24T14:11:49.858Z</time>
      </trkpt>
      <trkpt lat="41.173" lon="20.68696">
        <ele>693.220083</ele>
        <time>2022-02-24T14:11:51.302Z</time>
      </trkpt>
      <trkpt lat="41.17296" lon="20.6869">
        <ele>693.198544</ele>
        <time>2022-02-24T14:11:52.828Z</time>
      </trkpt>
      <trkpt lat="41.17291" lon="20.68682">
        <ele>693.168233</ele>
        <time>2022-02-24T14:11:54.840Z</time>
      </trkpt>
      <trkpt lat="41.1729" lon="20.68673">
        <ele>693.139036</ele>
        <time>2022-02-24T14:11:56.829Z</time>
      </trkpt>
      <trkpt lat="41.17291" lon="20.68645">
        <ele>693.053845</ele>
        <time>2022-02-24T14:12:02.283Z</time>
      </trkpt>
      <trkpt lat="41.17325" lon="20.68488">
        <ele>692.507671</ele>
        <time>2022-02-24T14:12:31.670Z</time>
      </trkpt>
      <trkpt lat="41.17352" lon="20.68348">
        <ele>691.710959</ele>
        <time>2022-02-24T14:12:56.435Z</time>
      </trkpt>
      <trkpt lat="41.1736" lon="20.68296">
        <ele>691.420016</ele>
        <time>2022-02-24T14:13:06.417Z</time>
      </trkpt>
      <trkpt lat="41.17363" lon="20.68278">
        <ele>691.321447</ele>
        <time>2022-02-24T14:13:10.228Z</time>
      </trkpt>
      <trkpt lat="41.17366" lon="20.68258">
        <ele>691.482833</ele>
        <time>2022-02-24T14:13:14.014Z</time>
      </trkpt>
      <trkpt lat="41.17374" lon="20.68206">
        <ele>691.913199</ele>
        <time>2022-02-24T14:13:25.957Z</time>
      </trkpt>
      <trkpt lat="41.17377" lon="20.68206">
        <ele>691.946508</ele>
        <time>2022-02-24T14:13:27.143Z</time>
      </trkpt>
      <trkpt lat="41.17382" lon="20.68203">
        <ele>692.011388</ele>
        <time>2022-02-24T14:13:29.056Z</time>
      </trkpt>
      <trkpt lat="41.17384" lon="20.682">
        <ele>692.043569</ele>
        <time>2022-02-24T14:13:30.197Z</time>
      </trkpt>
      <trkpt lat="41.17385" lon="20.68196">
        <ele>692.075974</ele>
        <time>2022-02-24T14:13:31.208Z</time>
      </trkpt>
      <trkpt lat="41.17385" lon="20.68192">
        <ele>692.108191</ele>
        <time>2022-02-24T14:13:32.049Z</time>
      </trkpt>
      <trkpt lat="41.1738" lon="20.68183">
        <ele>692.201506</ele>
        <time>2022-02-24T14:13:34.781Z</time>
      </trkpt>
      <trkpt lat="41.17377" lon="20.68181">
        <ele>692.233989</ele>
        <time>2022-02-24T14:13:35.578Z</time>
      </trkpt>
      <trkpt lat="41.17395" lon="20.68068">
        <ele>693.165263</ele>
        <time>2022-02-24T14:14:05.812Z</time>
      </trkpt>
      <trkpt lat="41.17397" lon="20.68053">
        <ele>693.282392</ele>
        <time>2022-02-24T14:14:10.223Z</time>
      </trkpt>
      <trkpt lat="41.17413" lon="20.67955">
        <ele>693.962962</ele>
        <time>2022-02-24T14:14:35.800Z</time>
      </trkpt>
      <trkpt lat="41.17429" lon="20.67851">
        <ele>694.682285</ele>
        <time>2022-02-24T14:15:00.025Z</time>
      </trkpt>
      <trkpt lat="41.1743" lon="20.67845">
        <ele>694.72522</ele>
        <time>2022-02-24T14:15:01.190Z</time>
      </trkpt>
      <trkpt lat="41.17432" lon="20.67833">
        <ele>694.807939</ele>
        <time>2022-02-24T14:15:03.645Z</time>
      </trkpt>
      <trkpt lat="41.17438" lon="20.67791">
        <ele>694.609222</ele>
        <time>2022-02-24T14:15:11.653Z</time>
      </trkpt>
      <trkpt lat="41.1744" lon="20.67777">
        <ele>694.502831</ele>
        <time>2022-02-24T14:15:14.434Z</time>
      </trkpt>
      <trkpt lat="41.17441" lon="20.67763">
        <ele>694.397338</ele>
        <time>2022-02-24T14:15:16.859Z</time>
      </trkpt>
      <trkpt lat="41.17443" lon="20.6773">
        <ele>694.147217</ele>
        <time>2022-02-24T14:15:22.434Z</time>
      </trkpt>
      <trkpt lat="41.17441" lon="20.6768">
        <ele>693.77039</ele>
        <time>2022-02-24T14:15:30.665Z</time>
      </trkpt>
      <trkpt lat="41.17443" lon="20.67649">
        <ele>693.533069</ele>
        <time>2022-02-24T14:15:35.656Z</time>
      </trkpt>
      <trkpt lat="41.17445" lon="20.67647">
        <ele>693.504161</ele>
        <time>2022-02-24T14:15:36.307Z</time>
      </trkpt>
      <trkpt lat="41.17447" lon="20.67644">
        <ele>693.475114</ele>
        <time>2022-02-24T14:15:36.978Z</time>
      </trkpt>
      <trkpt lat="41.17448" lon="20.67641">
        <ele>693.446831</ele>
        <time>2022-02-24T14:15:37.599Z</time>
      </trkpt>
      <trkpt lat="41.17448" lon="20.67637">
        <ele>693.418877</ele>
        <time>2022-02-24T14:15:38.214Z</time>
      </trkpt>
      <trkpt lat="41.17447" lon="20.67634">
        <ele>693.390935</ele>
        <time>2022-02-24T14:15:38.831Z</time>
      </trkpt>
      <trkpt lat="41.17446" lon="20.67631">
        <ele>693.363165</ele>
        <time>2022-02-24T14:15:39.457Z</time>
      </trkpt>
      <trkpt lat="41.17443" lon="20.67629">
        <ele>693.334729</ele>
        <time>2022-02-24T14:15:40.076Z</time>
      </trkpt>
      <trkpt lat="41.17441" lon="20.67628">
        <ele>693.305983</ele>
        <time>2022-02-24T14:15:40.690Z</time>
      </trkpt>
      <trkpt lat="41.17432" lon="20.67595">
        <ele>693.053948</ele>
        <time>2022-02-24T14:15:46.790Z</time>
      </trkpt>
      <trkpt lat="41.17426" lon="20.67536">
        <ele>692.835801</ele>
        <time>2022-02-24T14:15:57.809Z</time>
      </trkpt>
      <trkpt lat="41.17414" lon="20.67454">
        <ele>692.53556</ele>
        <time>2022-02-24T14:16:13.118Z</time>
      </trkpt>
      <trkpt lat="41.17403" lon="20.67401">
        <ele>692.333702</ele>
        <time>2022-02-24T14:16:23.490Z</time>
      </trkpt>
      <trkpt lat="41.17389" lon="20.67335">
        <ele>692.232141</ele>
        <time>2022-02-24T14:16:37.000Z</time>
      </trkpt>
      <trkpt lat="41.1736" lon="20.67195">
        <ele>692.405793</ele>
        <time>2022-02-24T14:17:08.267Z</time>
      </trkpt>
      <trkpt lat="41.17349" lon="20.67143">
        <ele>692.470581</ele>
        <time>2022-02-24T14:17:19.156Z</time>
      </trkpt>
      <trkpt lat="41.17339" lon="20.67091">
        <ele>692.391878</ele>
        <time>2022-02-24T14:17:29.826Z</time>
      </trkpt>
      <trkpt lat="41.17331" lon="20.67053">
        <ele>692.312371</ele>
        <time>2022-02-24T14:17:37.750Z</time>
      </trkpt>
      <trkpt lat="41.17325" lon="20.67024">
        <ele>692.252143</ele>
        <time>2022-02-24T14:17:43.710Z</time>
      </trkpt>
      <trkpt lat="41.17317" lon="20.66989">
        <ele>692.179757</ele>
        <time>2022-02-24T14:17:50.673Z</time>
      </trkpt>
      <trkpt lat="41.17304" lon="20.66924">
        <ele>692.043302</ele>
        <time>2022-02-24T14:18:03.447Z</time>
      </trkpt>
      <trkpt lat="41.17297" lon="20.66889">
        <ele>691.94135</ele>
        <time>2022-02-24T14:18:09.969Z</time>
      </trkpt>
      <trkpt lat="41.17293" lon="20.66867">
        <ele>691.853542</ele>
        <time>2022-02-24T14:18:13.909Z</time>
      </trkpt>
      <trkpt lat="41.17288" lon="20.66845">
        <ele>691.765645</ele>
        <time>2022-02-24T14:18:17.890Z</time>
      </trkpt>
      <trkpt lat="41.17285" lon="20.66832">
        <ele>691.713084</ele>
        <time>2022-02-24T14:18:20.331Z</time>
      </trkpt>
      <trkpt lat="41.17283" lon="20.66822">
        <ele>691.671564</ele>
        <time>2022-02-24T14:18:22.244Z</time>
      </trkpt>
      <trkpt lat="41.17271" lon="20.66812">
        <ele>691.59791</ele>
        <time>2022-02-24T14:18:26.816Z</time>
      </trkpt>
      <trkpt lat="41.17257" lon="20.66804">
        <ele>691.520909</ele>
        <time>2022-02-24T14:18:31.788Z</time>
      </trkpt>
      <trkpt lat="41.17252" lon="20.66795">
        <ele>691.477421</ele>
        <time>2022-02-24T14:18:34.603Z</time>
      </trkpt>
      <trkpt lat="41.17247" lon="20.66785">
        <ele>691.429951</ele>
        <time>2022-02-24T14:18:37.638Z</time>
      </trkpt>
      <trkpt lat="41.17247" lon="20.66771">
        <ele>691.375961</ele>
        <time>2022-02-24T14:18:41.274Z</time>
      </trkpt>
      <trkpt lat="41.1723" lon="20.66778">
        <ele>691.285467</ele>
        <time>2022-02-24T14:18:47.129Z</time>
      </trkpt>
      <trkpt lat="41.17225" lon="20.6678">
        <ele>691.259296</ele>
        <time>2022-02-24T14:18:48.825Z</time>
      </trkpt>
      <trkpt lat="41.17202" lon="20.66791">
        <ele>691.13407</ele>
        <time>2022-02-24T14:18:57.122Z</time>
      </trkpt>
      <trkpt lat="41.17199" lon="20.66791">
        <ele>691.117536</ele>
        <time>2022-02-24T14:18:58.225Z</time>
      </trkpt>
      <trkpt lat="41.17193" lon="20.66792">
        <ele>691.086009</ele>
        <time>2022-02-24T14:19:00.225Z</time>
      </trkpt>
      <trkpt lat="41.17189" lon="20.66776">
        <ele>691.05653</ele>
        <time>2022-02-24T14:19:03.467Z</time>
      </trkpt>
      <trkpt lat="41.17185" lon="20.66759">
        <ele>691.032883</ele>
        <time>2022-02-24T14:19:07.026Z</time>
      </trkpt>
      <trkpt lat="41.17176" lon="20.66736">
        <ele>690.998076</ele>
        <time>2022-02-24T14:19:12.185Z</time>
      </trkpt>
      <trkpt lat="41.17146" lon="20.6658">
        <ele>690.787984</ele>
        <time>2022-02-24T14:19:44.802Z</time>
      </trkpt>
      <trkpt lat="41.17136" lon="20.66459">
        <ele>690.881757</ele>
        <time>2022-02-24T14:20:10.949Z</time>
      </trkpt>
      <trkpt lat="41.17131" lon="20.66395">
        <ele>690.959951</ele>
        <time>2022-02-24T14:20:24.796Z</time>
      </trkpt>
      <trkpt lat="41.17097" lon="20.66282">
        <ele>691.205649</ele>
        <time>2022-02-24T14:20:51.444Z</time>
      </trkpt>
      <trkpt lat="41.1705" lon="20.66129">
        <ele>691.743562</ele>
        <time>2022-02-24T14:21:29.066Z</time>
      </trkpt>
      <trkpt lat="41.17037" lon="20.66084">
        <ele>691.874818</ele>
        <time>2022-02-24T14:21:40.000Z</time>
      </trkpt>
      <trkpt lat="41.17088" lon="20.6605">
        <ele>692.030644</ele>
        <time>2022-02-24T14:21:56.793Z</time>
      </trkpt>
      <trkpt lat="41.17083" lon="20.66036">
        <ele>692.062355</ele>
        <time>2022-02-24T14:21:59.992Z</time>
      </trkpt>
      <trkpt lat="41.17028" lon="20.65857">
        <ele>692.314595</ele>
        <time>2022-02-24T14:22:40.004Z</time>
      </trkpt>
      <trkpt lat="41.16971" lon="20.65725">
        <ele>692.302262</ele>
        <time>2022-02-24T14:23:10.173Z</time>
      </trkpt>
      <trkpt lat="41.16847" lon="20.6547">
        <ele>692.215057</ele>
        <time>2022-02-24T14:24:10.325Z</time>
      </trkpt>
      <trkpt lat="41.16748" lon="20.65318">
        <ele>692.19551</ele>
        <time>2022-02-24T14:24:50.764Z</time>
      </trkpt>
      <trkpt lat="41.16696" lon="20.65265">
        <ele>692.155414</ele>
        <time>2022-02-24T14:25:08.183Z</time>
      </trkpt>
      <trkpt lat="41.16587" lon="20.65191">
        <ele>692.055033</ele>
        <time>2022-02-24T14:25:40.370Z</time>
      </trkpt>
      <trkpt lat="41.16503" lon="20.65148">
        <ele>691.835733</ele>
        <time>2022-02-24T14:26:03.526Z</time>
      </trkpt>
      <trkpt lat="41.16357" lon="20.65094">
        <ele>691.520094</ele>
        <time>2022-02-24T14:26:42.233Z</time>
      </trkpt>
      <trkpt lat="41.16296" lon="20.65072">
        <ele>691.412493</ele>
        <time>2022-02-24T14:26:58.521Z</time>
      </trkpt>
      <trkpt lat="41.16306" lon="20.64874">
        <ele>691.500503</ele>
        <time>2022-02-24T14:27:38.594Z</time>
      </trkpt>
      <trkpt lat="41.16327" lon="20.64453">
        <ele>692.463297</ele>
        <time>2022-02-24T14:29:07.940Z</time>
      </trkpt>
      <trkpt lat="41.16344" lon="20.64387">
        <ele>692.740525</ele>
        <time>2022-02-24T14:29:23.498Z</time>
      </trkpt>
      <trkpt lat="41.16368" lon="20.64327">
        <ele>693.007491</ele>
        <time>2022-02-24T14:29:38.802Z</time>
      </trkpt>
      <trkpt lat="41.16369" lon="20.64248">
        <ele>693.457252</ele>
        <time>2022-02-24T14:29:56.938Z</time>
      </trkpt>
      <trkpt lat="41.16388" lon="20.64143">
        <ele>694.109303</ele>
        <time>2022-02-24T14:30:21.853Z</time>
      </trkpt>
      <trkpt lat="41.16408" lon="20.64106">
        <ele>694.37864</ele>
        <time>2022-02-24T14:30:32.124Z</time>
      </trkpt>
      <trkpt lat="41.16423" lon="20.64057">
        <ele>694.735851</ele>
        <time>2022-02-24T14:30:44.306Z</time>
      </trkpt>
      <trkpt lat="41.16431" lon="20.63958">
        <ele>695.448121</ele>
        <time>2022-02-24T14:31:07.058Z</time>
      </trkpt>
      <trkpt lat="41.16434" lon="20.63837">
        <ele>696.356864</ele>
        <time>2022-02-24T14:31:36.511Z</time>
      </trkpt>
      <trkpt lat="41.16464" lon="20.63786">
        <ele>696.979177</ele>
        <time>2022-02-24T14:31:52.337Z</time>
      </trkpt>
      <trkpt lat="41.16455" lon="20.63768">
        <ele>697.190264</ele>
        <time>2022-02-24T14:31:58.122Z</time>
      </trkpt>
      <trkpt lat="41.16418" lon="20.63709">
        <ele>697.924442</ele>
        <time>2022-02-24T14:32:17.027Z</time>
      </trkpt>
      <trkpt lat="41.16338" lon="20.63623">
        <ele>699.023993</ele>
        <time>2022-02-24T14:32:51.448Z</time>
      </trkpt>
      <trkpt lat="41.16133" lon="20.63505">
        <ele>700.665746</ele>
        <time>2022-02-24T14:33:57.996Z</time>
      </trkpt>
      <trkpt lat="41.16105" lon="20.63491">
        <ele>700.831272</ele>
        <time>2022-02-24T14:34:06.516Z</time>
      </trkpt>
      <trkpt lat="41.16099" lon="20.63488">
        <ele>700.861938</ele>
        <time>2022-02-24T14:34:07.919Z</time>
      </trkpt>
      <trkpt lat="41.16053" lon="20.63476">
        <ele>701.151322</ele>
        <time>2022-02-24T14:34:21.175Z</time>
      </trkpt>
      <trkpt lat="41.15985" lon="20.63464">
        <ele>701.96823</ele>
        <time>2022-02-24T14:34:41.732Z</time>
      </trkpt>
      <trkpt lat="41.15929" lon="20.63457">
        <ele>702.640883</ele>
        <time>2022-02-24T14:34:59.396Z</time>
      </trkpt>
      <trkpt lat="41.159" lon="20.63452">
        <ele>702.99297</ele>
        <time>2022-02-24T14:35:09.609Z</time>
      </trkpt>
      <trkpt lat="41.15883" lon="20.63448">
        <ele>703.194727</ele>
        <time>2022-02-24T14:35:15.907Z</time>
      </trkpt>
      <trkpt lat="41.15832" lon="20.63442">
        <ele>704.850258</ele>
        <time>2022-02-24T14:35:36.546Z</time>
      </trkpt>
      <trkpt lat="41.15825" lon="20.63441">
        <ele>705.077858</ele>
        <time>2022-02-24T14:35:39.368Z</time>
      </trkpt>
      <trkpt lat="41.15775" lon="20.63433">
        <ele>706.795003</ele>
        <time>2022-02-24T14:36:02.026Z</time>
      </trkpt>
      <trkpt lat="41.15732" lon="20.63427">
        <ele>708.22233</ele>
        <time>2022-02-24T14:36:21.609Z</time>
      </trkpt>
      <trkpt lat="41.15633" lon="20.63411">
        <ele>711.513039</ele>
        <time>2022-02-24T14:37:06.273Z</time>
      </trkpt>
      <trkpt lat="41.15605" lon="20.63406">
        <ele>712.438502</ele>
        <time>2022-02-24T14:37:18.987Z</time>
      </trkpt>
      <trkpt lat="41.15461" lon="20.6338">
        <ele>716.414299</ele>
        <time>2022-02-24T14:38:16.281Z</time>
      </trkpt>
      <trkpt lat="41.15443" lon="20.63377">
        <ele>716.786498</ele>
        <time>2022-02-24T14:38:22.693Z</time>
      </trkpt>
      <trkpt lat="41.15435" lon="20.63376">
        <ele>716.955823</ele>
        <time>2022-02-24T14:38:25.662Z</time>
      </trkpt>
      <trkpt lat="41.15365" lon="20.63363">
        <ele>718.384598</ele>
        <time>2022-02-24T14:38:50.612Z</time>
      </trkpt>
      <trkpt lat="41.15275" lon="20.63351">
        <ele>719.249113</ele>
        <time>2022-02-24T14:39:20.451Z</time>
      </trkpt>
      <trkpt lat="41.15268" lon="20.63349">
        <ele>719.299684</ele>
        <time>2022-02-24T14:39:23.103Z</time>
      </trkpt>
      <trkpt lat="41.15211" lon="20.63326">
        <ele>719.677781</ele>
        <time>2022-02-24T14:39:40.549Z</time>
      </trkpt>
      <trkpt lat="41.15178" lon="20.63308">
        <ele>719.906339</ele>
        <time>2022-02-24T14:39:50.497Z</time>
      </trkpt>
      <trkpt lat="41.15154" lon="20.63296">
        <ele>719.779018</ele>
        <time>2022-02-24T14:39:56.633Z</time>
      </trkpt>
      <trkpt lat="41.15053" lon="20.63261">
        <ele>718.71826</ele>
        <time>2022-02-24T14:40:20.014Z</time>
      </trkpt>
      <trkpt lat="41.15038" lon="20.6325">
        <ele>718.545179</ele>
        <time>2022-02-24T14:40:23.779Z</time>
      </trkpt>
      <trkpt lat="41.15021" lon="20.63243">
        <ele>718.36382</ele>
        <time>2022-02-24T14:40:27.624Z</time>
      </trkpt>
      <trkpt lat="41.15013" lon="20.63241">
        <ele>718.279656</ele>
        <time>2022-02-24T14:40:29.304Z</time>
      </trkpt>
      <trkpt lat="41.14968" lon="20.63224">
        <ele>718.254424</ele>
        <time>2022-02-24T14:40:40.441Z</time>
      </trkpt>
      <trkpt lat="41.14913" lon="20.632">
        <ele>718.491038</ele>
        <time>2022-02-24T14:40:55.239Z</time>
      </trkpt>
      <trkpt lat="41.14871" lon="20.6318">
        <ele>718.67794</ele>
        <time>2022-02-24T14:41:08.789Z</time>
      </trkpt>
      <trkpt lat="41.14801" lon="20.63151">
        <ele>719.567866</ele>
        <time>2022-02-24T14:41:35.047Z</time>
      </trkpt>
      <trkpt lat="41.14774" lon="20.63139">
        <ele>720.270521</ele>
        <time>2022-02-24T14:41:46.126Z</time>
      </trkpt>
      <trkpt lat="41.14603" lon="20.63036">
        <ele>724.75486</ele>
        <time>2022-02-24T14:43:01.192Z</time>
      </trkpt>
      <trkpt lat="41.14537" lon="20.63027">
        <ele>726.143125</ele>
        <time>2022-02-24T14:43:24.694Z</time>
      </trkpt>
      <trkpt lat="41.14487" lon="20.62994">
        <ele>727.303812</ele>
        <time>2022-02-24T14:43:43.467Z</time>
      </trkpt>
      <trkpt lat="41.14482" lon="20.62989">
        <ele>727.429928</ele>
        <time>2022-02-24T14:43:45.741Z</time>
      </trkpt>
      <trkpt lat="41.1447" lon="20.62982">
        <ele>727.718042</ele>
        <time>2022-02-24T14:43:50.496Z</time>
      </trkpt>
      <trkpt lat="41.14397" lon="20.62968">
        <ele>729.257258</ele>
        <time>2022-02-24T14:44:16.537Z</time>
      </trkpt>
      <trkpt lat="41.14336" lon="20.62948">
        <ele>730.559148</ele>
        <time>2022-02-24T14:44:39.727Z</time>
      </trkpt>
      <trkpt lat="41.14293" lon="20.62932">
        <ele>732.034141</ele>
        <time>2022-02-24T14:44:56.944Z</time>
      </trkpt>
      <trkpt lat="41.1416" lon="20.62857">
        <ele>737.900299</ele>
        <time>2022-02-24T14:46:05.430Z</time>
      </trkpt>
      <trkpt lat="41.14112" lon="20.62837">
        <ele>740.073577</ele>
        <time>2022-02-24T14:46:31.728Z</time>
      </trkpt>
      <trkpt lat="41.14093" lon="20.62833">
        <ele>740.922709</ele>
        <time>2022-02-24T14:46:42.244Z</time>
      </trkpt>
      <trkpt lat="41.14071" lon="20.62831">
        <ele>741.877773</ele>
        <time>2022-02-24T14:46:53.443Z</time>
      </trkpt>
      <trkpt lat="41.14039" lon="20.62829">
        <ele>743.315115</ele>
        <time>2022-02-24T14:47:09.729Z</time>
      </trkpt>
      <trkpt lat="41.1391" lon="20.62815">
        <ele>747.102163</ele>
        <time>2022-02-24T14:48:04.417Z</time>
      </trkpt>
      <trkpt lat="41.13905" lon="20.62814">
        <ele>747.184482</ele>
        <time>2022-02-24T14:48:06.548Z</time>
      </trkpt>
      <trkpt lat="41.13886" lon="20.62808">
        <ele>747.469427</ele>
        <time>2022-02-24T14:48:11.682Z</time>
      </trkpt>
      <trkpt lat="41.13828" lon="20.62781">
        <ele>748.405996</ele>
        <time>2022-02-24T14:48:29.546Z</time>
      </trkpt>
      <trkpt lat="41.13774" lon="20.62787">
        <ele>749.19619</ele>
        <time>2022-02-24T14:48:44.777Z</time>
      </trkpt>
      <trkpt lat="41.13733" lon="20.62796">
        <ele>749.779069</ele>
        <time>2022-02-24T14:48:56.922Z</time>
      </trkpt>
      <trkpt lat="41.13575" lon="20.62835">
        <ele>753.229859</ele>
        <time>2022-02-24T14:49:54.304Z</time>
      </trkpt>
      <trkpt lat="41.13542" lon="20.62843">
        <ele>754.597103</ele>
        <time>2022-02-24T14:50:09.017Z</time>
      </trkpt>
      <trkpt lat="41.13487" lon="20.6286">
        <ele>756.823423</ele>
        <time>2022-02-24T14:50:35.107Z</time>
      </trkpt>
      <trkpt lat="41.13478" lon="20.62863">
        <ele>757.195122</ele>
        <time>2022-02-24T14:50:40.435Z</time>
      </trkpt>
      <trkpt lat="41.13428" lon="20.62877">
        <ele>759.919658</ele>
        <time>2022-02-24T14:51:07.375Z</time>
      </trkpt>
      <trkpt lat="41.13268" lon="20.62883">
        <ele>772.792946</ele>
        <time>2022-02-24T14:52:55.174Z</time>
      </trkpt>
      <trkpt lat="41.13223" lon="20.62904">
        <ele>776.347859</ele>
        <time>2022-02-24T14:53:30.754Z</time>
      </trkpt>
      <trkpt lat="41.1321" lon="20.62904">
        <ele>777.320675</ele>
        <time>2022-02-24T14:53:40.618Z</time>
      </trkpt>
      <trkpt lat="41.13048" lon="20.62854">
        <ele>787.523754</ele>
        <time>2022-02-24T14:55:16.660Z</time>
      </trkpt>
      <trkpt lat="41.13036" lon="20.62855">
        <ele>787.8822</ele>
        <time>2022-02-24T14:55:23.970Z</time>
      </trkpt>
      <trkpt lat="41.13021" lon="20.62841">
        <ele>788.378085</ele>
        <time>2022-02-24T14:55:28.499Z</time>
      </trkpt>
      <trkpt lat="41.12974" lon="20.62802">
        <ele>789.926654</ele>
        <time>2022-02-24T14:55:48.657Z</time>
      </trkpt>
      <trkpt lat="41.12964" lon="20.62793">
        <ele>790.278295</ele>
        <time>2022-02-24T14:55:51.224Z</time>
      </trkpt>
      <trkpt lat="41.12913" lon="20.62767">
        <ele>791.699799</ele>
        <time>2022-02-24T14:56:07.346Z</time>
      </trkpt>
      <trkpt lat="41.1281" lon="20.62756">
        <ele>794.043606</ele>
        <time>2022-02-24T14:56:41.074Z</time>
      </trkpt>
      <trkpt lat="41.12801" lon="20.62755">
        <ele>794.258196</ele>
        <time>2022-02-24T14:56:45.638Z</time>
      </trkpt>
      <trkpt lat="41.12753" lon="20.62752">
        <ele>795.349943</ele>
        <time>2022-02-24T14:57:08.341Z</time>
      </trkpt>
      <trkpt lat="41.1272" lon="20.62751">
        <ele>796.972306</ele>
        <time>2022-02-24T14:57:24.685Z</time>
      </trkpt>
      <trkpt lat="41.12597" lon="20.62756">
        <ele>803.275016</ele>
        <time>2022-02-24T14:58:30.017Z</time>
      </trkpt>
      <trkpt lat="41.1242" lon="20.62757">
        <ele>812.182559</ele>
        <time>2022-02-24T14:59:58.672Z</time>
      </trkpt>
      <trkpt lat="41.12403" lon="20.62755">
        <ele>813.066488</ele>
        <time>2022-02-24T15:00:07.997Z</time>
      </trkpt>
      <trkpt lat="41.12326" lon="20.62732">
        <ele>817.792777</ele>
        <time>2022-02-24T15:00:49.130Z</time>
      </trkpt>
      <trkpt lat="41.1226" lon="20.62704">
        <ele>822.05861</ele>
        <time>2022-02-24T15:01:28.627Z</time>
      </trkpt>
      <trkpt lat="41.12173" lon="20.62602">
        <ele>831.100314</ele>
        <time>2022-02-24T15:02:39.737Z</time>
      </trkpt>
      <trkpt lat="41.12071" lon="20.62538">
        <ele>841.177296</ele>
        <time>2022-02-24T15:04:03.493Z</time>
      </trkpt>
      <trkpt lat="41.12034" lon="20.62492">
        <ele>846.467234</ele>
        <time>2022-02-24T15:04:42.661Z</time>
      </trkpt>
      <trkpt lat="41.12019" lon="20.62461">
        <ele>849.360905</ele>
        <time>2022-02-24T15:05:02.268Z</time>
      </trkpt>
      <trkpt lat="41.12007" lon="20.62424">
        <ele>852.586056</ele>
        <time>2022-02-24T15:05:26.086Z</time>
      </trkpt>
      <trkpt lat="41.12002" lon="20.62408">
        <ele>853.929945</ele>
        <time>2022-02-24T15:05:36.603Z</time>
      </trkpt>
      <trkpt lat="41.11978" lon="20.62352">
        <ele>859.011173</ele>
        <time>2022-02-24T15:06:15.154Z</time>
      </trkpt>
      <trkpt lat="41.11952" lon="20.62321">
        <ele>862.752823</ele>
        <time>2022-02-24T15:06:43.385Z</time>
      </trkpt>
      <trkpt lat="41.11923" lon="20.62304">
        <ele>866.067429</ele>
        <time>2022-02-24T15:07:08.217Z</time>
      </trkpt>
      <trkpt lat="41.11908" lon="20.62299">
        <ele>867.719904</ele>
        <time>2022-02-24T15:07:21.240Z</time>
      </trkpt>
      <trkpt lat="41.11875" lon="20.62287">
        <ele>871.390062</ele>
        <time>2022-02-24T15:07:46.685Z</time>
      </trkpt>
      <trkpt lat="41.11728" lon="20.62227">
        <ele>887.30654</ele>
        <time>2022-02-24T15:09:44.491Z</time>
      </trkpt>
      <trkpt lat="41.11569" lon="20.62212">
        <ele>903.295077</ele>
        <time>2022-02-24T15:11:44.119Z</time>
      </trkpt>
      <trkpt lat="41.11456" lon="20.62155">
        <ele>914.970784</ele>
        <time>2022-02-24T15:13:11.537Z</time>
      </trkpt>
      <trkpt lat="41.11349" lon="20.62126">
        <ele>925.423318</ele>
        <time>2022-02-24T15:14:30.317Z</time>
      </trkpt>
      <trkpt lat="41.11271" lon="20.62098">
        <ele>933.063355</ele>
        <time>2022-02-24T15:15:29.781Z</time>
      </trkpt>
      <trkpt lat="41.11196" lon="20.62018">
        <ele>941.893657</ele>
        <time>2022-02-24T15:16:39.521Z</time>
      </trkpt>
      <trkpt lat="41.11106" lon="20.61895">
        <ele>953.040492</ele>
        <time>2022-02-24T15:18:07.732Z</time>
      </trkpt>
      <trkpt lat="41.11065" lon="20.61778">
        <ele>960.748336</ele>
        <time>2022-02-24T15:19:09.082Z</time>
      </trkpt>
      <trkpt lat="41.11046" lon="20.61743">
        <ele>963.198822</ele>
        <time>2022-02-24T15:19:29.535Z</time>
      </trkpt>
      <trkpt lat="41.11011" lon="20.61713">
        <ele>966.142035</ele>
        <time>2022-02-24T15:19:55.690Z</time>
      </trkpt>
      <trkpt lat="41.10961" lon="20.61682">
        <ele>970.02081</ele>
        <time>2022-02-24T15:20:29.620Z</time>
      </trkpt>
      <trkpt lat="41.10926" lon="20.61673">
        <ele>972.533677</ele>
        <time>2022-02-24T15:20:50.879Z</time>
      </trkpt>
      <trkpt lat="41.10835" lon="20.61665">
        <ele>978.210899</ele>
        <time>2022-02-24T15:21:42.334Z</time>
      </trkpt>
      <trkpt lat="41.10793" lon="20.61655">
        <ele>980.707644</ele>
        <time>2022-02-24T15:22:05.079Z</time>
      </trkpt>
      <trkpt lat="41.10678" lon="20.61597">
        <ele>988.30166</ele>
        <time>2022-02-24T15:23:10.265Z</time>
      </trkpt>
      <trkpt lat="41.10644" lon="20.61553">
        <ele>991.480109</ele>
        <time>2022-02-24T15:23:39.662Z</time>
      </trkpt>
      <trkpt lat="41.10605" lon="20.61463">
        <ele>996.820548</ele>
        <time>2022-02-24T15:24:28.339Z</time>
      </trkpt>
      <trkpt lat="41.106" lon="20.61451">
        <ele>997.470193</ele>
        <time>2022-02-24T15:24:35.299Z</time>
      </trkpt>
      <trkpt lat="41.10585" lon="20.61432">
        <ele>998.564507</ele>
        <time>2022-02-24T15:24:48.109Z</time>
      </trkpt>
      <trkpt lat="41.10489" lon="20.61351">
        <ele>1004.248222</ele>
        <time>2022-02-24T15:25:52.132Z</time>
      </trkpt>
      <trkpt lat="41.10396" lon="20.61292">
        <ele>1005.998183</ele>
        <time>2022-02-24T15:26:26.404Z</time>
      </trkpt>
      <trkpt lat="41.10351" lon="20.61265">
        <ele>1005.552964</ele>
        <time>2022-02-24T15:26:37.246Z</time>
      </trkpt>
      <trkpt lat="41.10252" lon="20.61208">
        <ele>1003.912824</ele>
        <time>2022-02-24T15:26:59.000Z</time>
      </trkpt>
      <trkpt lat="41.10169" lon="20.61172">
        <ele>1001.463097</ele>
        <time>2022-02-24T15:27:16.204Z</time>
      </trkpt>
      <trkpt lat="41.10138" lon="20.61163">
        <ele>1000.569211</ele>
        <time>2022-02-24T15:27:22.611Z</time>
      </trkpt>
      <trkpt lat="41.10089" lon="20.61157">
        <ele>999.24078</ele>
        <time>2022-02-24T15:27:32.650Z</time>
      </trkpt>
      <trkpt lat="41.09817" lon="20.61147">
        <ele>991.986589</ele>
        <time>2022-02-24T15:28:27.640Z</time>
      </trkpt>
      <trkpt lat="41.09738" lon="20.61147">
        <ele>989.923008</ele>
        <time>2022-02-24T15:28:43.153Z</time>
      </trkpt>
      <trkpt lat="41.09615" lon="20.61156">
        <ele>987.273254</ele>
        <time>2022-02-24T15:29:08.304Z</time>
      </trkpt>
      <trkpt lat="41.09578" lon="20.61153">
        <ele>986.473802</ele>
        <time>2022-02-24T15:29:16.567Z</time>
      </trkpt>
      <trkpt lat="41.0956" lon="20.61149">
        <ele>986.394268</ele>
        <time>2022-02-24T15:29:20.711Z</time>
      </trkpt>
      <trkpt lat="41.09541" lon="20.6114">
        <ele>986.438834</ele>
        <time>2022-02-24T15:29:25.570Z</time>
      </trkpt>
      <trkpt lat="41.09437" lon="20.6107">
        <ele>986.702411</ele>
        <time>2022-02-24T15:29:58.202Z</time>
      </trkpt>
      <trkpt lat="41.09309" lon="20.60982">
        <ele>988.8011</ele>
        <time>2022-02-24T15:30:48.745Z</time>
      </trkpt>
      <trkpt lat="41.093" lon="20.60976">
        <ele>988.993992</ele>
        <time>2022-02-24T15:30:52.626Z</time>
      </trkpt>
      <trkpt lat="41.09284" lon="20.60965">
        <ele>989.311073</ele>
        <time>2022-02-24T15:30:59.035Z</time>
      </trkpt>
      <trkpt lat="41.09273" lon="20.60934">
        <ele>989.772948</ele>
        <time>2022-02-24T15:31:08.780Z</time>
      </trkpt>
      <trkpt lat="41.09256" lon="20.60902">
        <ele>990.311166</ele>
        <time>2022-02-24T15:31:19.369Z</time>
      </trkpt>
      <trkpt lat="41.09232" lon="20.60881">
        <ele>990.847643</ele>
        <time>2022-02-24T15:31:30.207Z</time>
      </trkpt>
      <trkpt lat="41.09162" lon="20.60831">
        <ele>992.310538</ele>
        <time>2022-02-24T15:31:58.165Z</time>
      </trkpt>
      <trkpt lat="41.09155" lon="20.60826">
        <ele>992.446786</ele>
        <time>2022-02-24T15:32:01.357Z</time>
      </trkpt>
      <trkpt lat="41.09122" lon="20.60824">
        <ele>993.058052</ele>
        <time>2022-02-24T15:32:12.751Z</time>
      </trkpt>
      <trkpt lat="41.09114" lon="20.60821">
        <ele>993.21357</ele>
        <time>2022-02-24T15:32:15.803Z</time>
      </trkpt>
      <trkpt lat="41.09064" lon="20.60794">
        <ele>994.309762</ele>
        <time>2022-02-24T15:32:33.633Z</time>
      </trkpt>
      <trkpt lat="41.09029" lon="20.6077">
        <ele>995.102636</ele>
        <time>2022-02-24T15:32:47.483Z</time>
      </trkpt>
      <trkpt lat="41.09027" lon="20.60765">
        <ele>995.188692</ele>
        <time>2022-02-24T15:32:49.382Z</time>
      </trkpt>
      <trkpt lat="41.09006" lon="20.60734">
        <ele>995.822187</ele>
        <time>2022-02-24T15:33:01.670Z</time>
      </trkpt>
      <trkpt lat="41.08986" lon="20.60711">
        <ele>996.362336</ele>
        <time>2022-02-24T15:33:11.050Z</time>
      </trkpt>
      <trkpt lat="41.08952" lon="20.60686">
        <ele>997.134556</ele>
        <time>2022-02-24T15:33:25.634Z</time>
      </trkpt>
      <trkpt lat="41.08942" lon="20.60679">
        <ele>997.363123</ele>
        <time>2022-02-24T15:33:31.193Z</time>
      </trkpt>
      <trkpt lat="41.08931" lon="20.60671">
        <ele>997.589011</ele>
        <time>2022-02-24T15:33:35.273Z</time>
      </trkpt>
      <trkpt lat="41.08896" lon="20.60647">
        <ele>998.339331</ele>
        <time>2022-02-24T15:33:50.013Z</time>
      </trkpt>
      <trkpt lat="41.08888" lon="20.60644">
        <ele>998.487211</ele>
        <time>2022-02-24T15:33:52.458Z</time>
      </trkpt>
      <trkpt lat="41.08884" lon="20.60643">
        <ele>998.568906</ele>
        <time>2022-02-24T15:33:54.502Z</time>
      </trkpt>
      <trkpt lat="41.08882" lon="20.60642">
        <ele>998.611762</ele>
        <time>2022-02-24T15:33:55.976Z</time>
      </trkpt>
      <trkpt lat="41.08817" lon="20.6063">
        <ele>999.852241</ele>
        <time>2022-02-24T15:34:18.371Z</time>
      </trkpt>
      <trkpt lat="41.08735" lon="20.60579">
        <ele>1000.43988</ele>
        <time>2022-02-24T15:34:47.692Z</time>
      </trkpt>
      <trkpt lat="41.08662" lon="20.6055">
        <ele>1000.535507</ele>
        <time>2022-02-24T15:35:06.724Z</time>
      </trkpt>
      <trkpt lat="41.08634" lon="20.60547">
        <ele>1000.570656</ele>
        <time>2022-02-24T15:35:13.948Z</time>
      </trkpt>
      <trkpt lat="41.08628" lon="20.60552">
        <ele>1000.579108</ele>
        <time>2022-02-24T15:35:15.430Z</time>
      </trkpt>
      <trkpt lat="41.08529" lon="20.60539">
        <ele>1000.23179</ele>
        <time>2022-02-24T15:35:38.902Z</time>
      </trkpt>
      <trkpt lat="41.08486" lon="20.60531">
        <ele>1000.069903</ele>
        <time>2022-02-24T15:35:49.165Z</time>
      </trkpt>
      <trkpt lat="41.08471" lon="20.60526">
        <ele>1000.016255</ele>
        <time>2022-02-24T15:35:53.180Z</time>
      </trkpt>
      <trkpt lat="41.08381" lon="20.60496">
        <ele>1001.330577</ele>
        <time>2022-02-24T15:36:22.381Z</time>
      </trkpt>
      <trkpt lat="41.08377" lon="20.60494">
        <ele>1001.438593</ele>
        <time>2022-02-24T15:36:23.506Z</time>
      </trkpt>
      <trkpt lat="41.08365" lon="20.6049">
        <ele>1001.690496</ele>
        <time>2022-02-24T15:36:28.597Z</time>
      </trkpt>
      <trkpt lat="41.08157" lon="20.6046">
        <ele>1006.294703</ele>
        <time>2022-02-24T15:37:55.922Z</time>
      </trkpt>
      <trkpt lat="41.08112" lon="20.60464">
        <ele>1007.325682</ele>
        <time>2022-02-24T15:38:11.662Z</time>
      </trkpt>
      <trkpt lat="41.08101" lon="20.60468">
        <ele>1007.58719</ele>
        <time>2022-02-24T15:38:15.429Z</time>
      </trkpt>
      <trkpt lat="41.08091" lon="20.60472">
        <ele>1007.809975</ele>
        <time>2022-02-24T15:38:18.104Z</time>
      </trkpt>
      <trkpt lat="41.0808" lon="20.60479">
        <ele>1007.611347</ele>
        <time>2022-02-24T15:38:21.841Z</time>
      </trkpt>
      <trkpt lat="41.08076" lon="20.60482">
        <ele>1007.512068</ele>
        <time>2022-02-24T15:38:23.312Z</time>
      </trkpt>
      <trkpt lat="41.08069" lon="20.60487">
        <ele>1007.381219</ele>
        <time>2022-02-24T15:38:25.129Z</time>
      </trkpt>
      <trkpt lat="41.08049" lon="20.60509">
        <ele>1006.884562</ele>
        <time>2022-02-24T15:38:32.078Z</time>
      </trkpt>
      <trkpt lat="41.07971" lon="20.60617">
        <ele>1004.820746</ele>
        <time>2022-02-24T15:38:54.744Z</time>
      </trkpt>
      <trkpt lat="41.07935" lon="20.60648">
        <ele>1003.597229</ele>
        <time>2022-02-24T15:39:03.001Z</time>
      </trkpt>
      <trkpt lat="41.07931" lon="20.60651">
        <ele>1003.420137</ele>
        <time>2022-02-24T15:39:03.884Z</time>
      </trkpt>
      <trkpt lat="41.07924" lon="20.60654">
        <ele>1003.182275</ele>
        <time>2022-02-24T15:39:05.153Z</time>
      </trkpt>
      <trkpt lat="41.0783" lon="20.60677">
        <ele>999.84627</ele>
        <time>2022-02-24T15:39:23.469Z</time>
      </trkpt>
      <trkpt lat="41.07691" lon="20.60701">
        <ele>995.431124</ele>
        <time>2022-02-24T15:39:50.686Z</time>
      </trkpt>
      <trkpt lat="41.07668" lon="20.60701">
        <ele>994.734436</ele>
        <time>2022-02-24T15:39:55.509Z</time>
      </trkpt>
      <trkpt lat="41.0764" lon="20.60685">
        <ele>993.852267</ele>
        <time>2022-02-24T15:40:01.826Z</time>
      </trkpt>
      <trkpt lat="41.07625" lon="20.60666">
        <ele>993.221732</ele>
        <time>2022-02-24T15:40:06.146Z</time>
      </trkpt>
      <trkpt lat="41.07594" lon="20.60574">
        <ele>991.078451</ele>
        <time>2022-02-24T15:40:21.058Z</time>
      </trkpt>
      <trkpt lat="41.0759" lon="20.60564">
        <ele>990.828812</ele>
        <time>2022-02-24T15:40:23.601Z</time>
      </trkpt>
      <trkpt lat="41.07586" lon="20.60555">
        <ele>990.614684</ele>
        <time>2022-02-24T15:40:25.098Z</time>
      </trkpt>
      <trkpt lat="41.0756" lon="20.60525">
        <ele>989.636929</ele>
        <time>2022-02-24T15:40:32.109Z</time>
      </trkpt>
      <trkpt lat="41.07524" lon="20.60516">
        <ele>988.61404</ele>
        <time>2022-02-24T15:40:39.412Z</time>
      </trkpt>
      <trkpt lat="41.07519" lon="20.60517">
        <ele>988.460256</ele>
        <time>2022-02-24T15:40:40.395Z</time>
      </trkpt>
      <trkpt lat="41.07516" lon="20.60518">
        <ele>988.380418</ele>
        <time>2022-02-24T15:40:40.852Z</time>
      </trkpt>
      <trkpt lat="41.07467" lon="20.60536">
        <ele>986.831039</ele>
        <time>2022-02-24T15:40:51.112Z</time>
      </trkpt>
      <trkpt lat="41.07443" lon="20.60535">
        <ele>986.053144</ele>
        <time>2022-02-24T15:40:55.666Z</time>
      </trkpt>
      <trkpt lat="41.07379" lon="20.60488">
        <ele>983.707944</ele>
        <time>2022-02-24T15:41:09.708Z</time>
      </trkpt>
      <trkpt lat="41.07351" lon="20.60481">
        <ele>982.787587</ele>
        <time>2022-02-24T15:41:15.540Z</time>
      </trkpt>
      <trkpt lat="41.07316" lon="20.60497">
        <ele>981.539009</ele>
        <time>2022-02-24T15:41:22.976Z</time>
      </trkpt>
      <trkpt lat="41.0727" lon="20.60549">
        <ele>979.314606</ele>
        <time>2022-02-24T15:41:35.012Z</time>
      </trkpt>
      <trkpt lat="41.07233" lon="20.60563">
        <ele>977.915372</ele>
        <time>2022-02-24T15:41:42.501Z</time>
      </trkpt>
      <trkpt lat="41.06841" lon="20.60552">
        <ele>958.518592</ele>
        <time>2022-02-24T15:42:54.136Z</time>
      </trkpt>
      <trkpt lat="41.06826" lon="20.60553">
        <ele>957.649981</ele>
        <time>2022-02-24T15:42:56.725Z</time>
      </trkpt>
      <trkpt lat="41.06812" lon="20.60555">
        <ele>956.828824</ele>
        <time>2022-02-24T15:42:59.048Z</time>
      </trkpt>
      <trkpt lat="41.06742" lon="20.60581">
        <ele>950.82679</ele>
        <time>2022-02-24T15:43:11.041Z</time>
      </trkpt>
      <trkpt lat="41.0669" lon="20.6062">
        <ele>945.732192</ele>
        <time>2022-02-24T15:43:20.892Z</time>
      </trkpt>
      <trkpt lat="41.06643" lon="20.60676">
        <ele>940.692897</ele>
        <time>2022-02-24T15:43:31.445Z</time>
      </trkpt>
      <trkpt lat="41.06609" lon="20.60739">
        <ele>937.578265</ele>
        <time>2022-02-24T15:43:41.704Z</time>
      </trkpt>
      <trkpt lat="41.06585" lon="20.60785">
        <ele>935.298657</ele>
        <time>2022-02-24T15:43:49.225Z</time>
      </trkpt>
      <trkpt lat="41.06557" lon="20.60845">
        <ele>932.400858</ele>
        <time>2022-02-24T15:43:59.186Z</time>
      </trkpt>
      <trkpt lat="41.06546" lon="20.6086">
        <ele>931.564801</ele>
        <time>2022-02-24T15:44:01.951Z</time>
      </trkpt>
      <trkpt lat="41.06541" lon="20.60864">
        <ele>931.421677</ele>
        <time>2022-02-24T15:44:03.195Z</time>
      </trkpt>
      <trkpt lat="41.06522" lon="20.60868">
        <ele>930.990546</ele>
        <time>2022-02-24T15:44:07.083Z</time>
      </trkpt>
      <trkpt lat="41.06515" lon="20.60866">
        <ele>930.843682</ele>
        <time>2022-02-24T15:44:08.437Z</time>
      </trkpt>
      <trkpt lat="41.06511" lon="20.60861">
        <ele>930.724018</ele>
        <time>2022-02-24T15:44:09.442Z</time>
      </trkpt>
      <trkpt lat="41.06505" lon="20.60848">
        <ele>930.465327</ele>
        <time>2022-02-24T15:44:12.250Z</time>
      </trkpt>
      <trkpt lat="41.06505" lon="20.60832">
        <ele>930.200463</ele>
        <time>2022-02-24T15:44:14.690Z</time>
      </trkpt>
      <trkpt lat="41.06522" lon="20.60794">
        <ele>929.464613</ele>
        <time>2022-02-24T15:44:22.413Z</time>
      </trkpt>
      <trkpt lat="41.06527" lon="20.60786">
        <ele>929.296463</ele>
        <time>2022-02-24T15:44:23.891Z</time>
      </trkpt>
      <trkpt lat="41.06533" lon="20.60777">
        <ele>929.092265</ele>
        <time>2022-02-24T15:44:26.308Z</time>
      </trkpt>
      <trkpt lat="41.06546" lon="20.60752">
        <ele>928.581286</ele>
        <time>2022-02-24T15:44:31.655Z</time>
      </trkpt>
      <trkpt lat="41.06555" lon="20.60711">
        <ele>927.864931</ele>
        <time>2022-02-24T15:44:39.400Z</time>
      </trkpt>
      <trkpt lat="41.06556" lon="20.60702">
        <ele>927.716346</ele>
        <time>2022-02-24T15:44:40.673Z</time>
      </trkpt>
      <trkpt lat="41.06556" lon="20.6069">
        <ele>927.43306</ele>
        <time>2022-02-24T15:44:42.689Z</time>
      </trkpt>
      <trkpt lat="41.06562" lon="20.60599">
        <ele>923.880602</ele>
        <time>2022-02-24T15:44:55.886Z</time>
      </trkpt>
      <trkpt lat="41.06598" lon="20.6047">
        <ele>918.500606</ele>
        <time>2022-02-24T15:45:14.264Z</time>
      </trkpt>
      <trkpt lat="41.066" lon="20.60459">
        <ele>917.878603</ele>
        <time>2022-02-24T15:45:15.615Z</time>
      </trkpt>
      <trkpt lat="41.06601" lon="20.60455">
        <ele>917.525573</ele>
        <time>2022-02-24T15:45:16.117Z</time>
      </trkpt>
      <trkpt lat="41.06603" lon="20.60417">
        <ele>914.535067</ele>
        <time>2022-02-24T15:45:21.025Z</time>
      </trkpt>
      <trkpt lat="41.06584" lon="20.60346">
        <ele>908.515871</ele>
        <time>2022-02-24T15:45:30.251Z</time>
      </trkpt>
      <trkpt lat="41.06586" lon="20.60309">
        <ele>905.629434</ele>
        <time>2022-02-24T15:45:34.600Z</time>
      </trkpt>
      <trkpt lat="41.06596" lon="20.60284">
        <ele>903.34151</ele>
        <time>2022-02-24T15:45:38.127Z</time>
      </trkpt>
      <trkpt lat="41.06638" lon="20.60234">
        <ele>897.768617</ele>
        <time>2022-02-24T15:45:47.117Z</time>
      </trkpt>
      <trkpt lat="41.06676" lon="20.60109">
        <ele>889.01775</ele>
        <time>2022-02-24T15:46:03.874Z</time>
      </trkpt>
      <trkpt lat="41.06746" lon="20.59928">
        <ele>878.43638</ele>
        <time>2022-02-24T15:46:30.673Z</time>
      </trkpt>
      <trkpt lat="41.06749" lon="20.59921">
        <ele>878.118908</ele>
        <time>2022-02-24T15:46:31.547Z</time>
      </trkpt>
      <trkpt lat="41.0677" lon="20.59894">
        <ele>876.40266</ele>
        <time>2022-02-24T15:46:37.487Z</time>
      </trkpt>
      <trkpt lat="41.06798" lon="20.59877">
        <ele>874.637929</ele>
        <time>2022-02-24T15:46:43.066Z</time>
      </trkpt>
      <trkpt lat="41.06873" lon="20.59852">
        <ele>869.681703</ele>
        <time>2022-02-24T15:46:56.832Z</time>
      </trkpt>
      <trkpt lat="41.0692" lon="20.59852">
        <ele>866.542203</ele>
        <time>2022-02-24T15:47:04.931Z</time>
      </trkpt>
      <trkpt lat="41.06935" lon="20.59835">
        <ele>865.221256</ele>
        <time>2022-02-24T15:47:08.351Z</time>
      </trkpt>
      <trkpt lat="41.06935" lon="20.59819">
        <ele>864.445636</ele>
        <time>2022-02-24T15:47:10.306Z</time>
      </trkpt>
      <trkpt lat="41.06928" lon="20.59805">
        <ele>863.597178</ele>
        <time>2022-02-24T15:47:12.447Z</time>
      </trkpt>
      <trkpt lat="41.06918" lon="20.59799">
        <ele>862.870743</ele>
        <time>2022-02-24T15:47:14.297Z</time>
      </trkpt>
      <trkpt lat="41.06784" lon="20.59821">
        <ele>855.257641</ele>
        <time>2022-02-24T15:47:37.463Z</time>
      </trkpt>
      <trkpt lat="41.06751" lon="20.59837">
        <ele>853.375745</ele>
        <time>2022-02-24T15:47:43.704Z</time>
      </trkpt>
      <trkpt lat="41.06664" lon="20.59917">
        <ele>852.174636</ele>
        <time>2022-02-24T15:48:10.815Z</time>
      </trkpt>
      <trkpt lat="41.06631" lon="20.59923">
        <ele>852.357811</ele>
        <time>2022-02-24T15:48:22.361Z</time>
      </trkpt>
      <trkpt lat="41.06604" lon="20.59912">
        <ele>852.51123</ele>
        <time>2022-02-24T15:48:31.047Z</time>
      </trkpt>
      <trkpt lat="41.06598" lon="20.59906">
        <ele>852.553183</ele>
        <time>2022-02-24T15:48:35.918Z</time>
      </trkpt>
      <trkpt lat="41.06595" lon="20.59904">
        <ele>852.567929</ele>
        <time>2022-02-24T15:48:37.530Z</time>
      </trkpt>
      <trkpt lat="41.06546" lon="20.5984">
        <ele>852.239784</ele>
        <time>2022-02-24T15:49:00.435Z</time>
      </trkpt>
      <trkpt lat="41.0653" lon="20.59744">
        <ele>851.259948</ele>
        <time>2022-02-24T15:49:19.946Z</time>
      </trkpt>
      <trkpt lat="41.0652" lon="20.59721">
        <ele>850.99351</ele>
        <time>2022-02-24T15:49:23.842Z</time>
      </trkpt>
      <trkpt lat="41.06436" lon="20.59609">
        <ele>845.887554</ele>
        <time>2022-02-24T15:49:45.665Z</time>
      </trkpt>
      <trkpt lat="41.06408" lon="20.59562">
        <ele>843.096207</ele>
        <time>2022-02-24T15:49:53.637Z</time>
      </trkpt>
      <trkpt lat="41.06392" lon="20.59432">
        <ele>836.241302</ele>
        <time>2022-02-24T15:50:10.251Z</time>
      </trkpt>
      <trkpt lat="41.06393" lon="20.59393">
        <ele>833.909531</ele>
        <time>2022-02-24T15:50:15.121Z</time>
      </trkpt>
      <trkpt lat="41.06398" lon="20.59373">
        <ele>832.628597</ele>
        <time>2022-02-24T15:50:18.024Z</time>
      </trkpt>
      <trkpt lat="41.06399" lon="20.5937">
        <ele>832.422974</ele>
        <time>2022-02-24T15:50:18.415Z</time>
      </trkpt>
      <trkpt lat="41.06403" lon="20.5936">
        <ele>831.74852</ele>
        <time>2022-02-24T15:50:19.754Z</time>
      </trkpt>
      <trkpt lat="41.06446" lon="20.59276">
        <ele>825.589986</ele>
        <time>2022-02-24T15:50:32.725Z</time>
      </trkpt>
      <trkpt lat="41.06458" lon="20.59236">
        <ele>823.121661</ele>
        <time>2022-02-24T15:50:38.132Z</time>
      </trkpt>
      <trkpt lat="41.06461" lon="20.59206">
        <ele>821.442329</ele>
        <time>2022-02-24T15:50:42.226Z</time>
      </trkpt>
      <trkpt lat="41.06453" lon="20.59158">
        <ele>818.688386</ele>
        <time>2022-02-24T15:50:48.527Z</time>
      </trkpt>
      <trkpt lat="41.0642" lon="20.59063">
        <ele>812.789438</ele>
        <time>2022-02-24T15:51:02.223Z</time>
      </trkpt>
      <trkpt lat="41.06417" lon="20.59041">
        <ele>811.572263</ele>
        <time>2022-02-24T15:51:04.911Z</time>
      </trkpt>
      <trkpt lat="41.06421" lon="20.59026">
        <ele>810.423926</ele>
        <time>2022-02-24T15:51:07.040Z</time>
      </trkpt>
      <trkpt lat="41.06435" lon="20.59016">
        <ele>808.893543</ele>
        <time>2022-02-24T15:51:09.637Z</time>
      </trkpt>
      <trkpt lat="41.06447" lon="20.59021">
        <ele>807.6273</ele>
        <time>2022-02-24T15:51:11.699Z</time>
      </trkpt>
      <trkpt lat="41.06457" lon="20.59039">
        <ele>805.933907</ele>
        <time>2022-02-24T15:51:14.606Z</time>
      </trkpt>
      <trkpt lat="41.06463" lon="20.59058">
        <ele>804.419331</ele>
        <time>2022-02-24T15:51:17.054Z</time>
      </trkpt>
      <trkpt lat="41.06488" lon="20.59127">
        <ele>798.724851</ele>
        <time>2022-02-24T15:51:26.569Z</time>
      </trkpt>
      <trkpt lat="41.06504" lon="20.59173">
        <ele>795.002534</ele>
        <time>2022-02-24T15:51:32.655Z</time>
      </trkpt>
      <trkpt lat="41.06516" lon="20.59207">
        <ele>791.843153</ele>
        <time>2022-02-24T15:51:37.255Z</time>
      </trkpt>
      <trkpt lat="41.06529" lon="20.59242">
        <ele>788.367162</ele>
        <time>2022-02-24T15:51:41.819Z</time>
      </trkpt>
      <trkpt lat="41.06544" lon="20.59256">
        <ele>786.118403</ele>
        <time>2022-02-24T15:51:44.818Z</time>
      </trkpt>
      <trkpt lat="41.06609" lon="20.59271">
        <ele>778.109981</ele>
        <time>2022-02-24T15:51:55.447Z</time>
      </trkpt>
      <trkpt lat="41.06627" lon="20.59268">
        <ele>775.994167</ele>
        <time>2022-02-24T15:51:58.244Z</time>
      </trkpt>
      <trkpt lat="41.06656" lon="20.59245">
        <ele>771.880824</ele>
        <time>2022-02-24T15:52:03.715Z</time>
      </trkpt>
      <trkpt lat="41.06715" lon="20.59167">
        <ele>761.331436</ele>
        <time>2022-02-24T15:52:16.868Z</time>
      </trkpt>
      <trkpt lat="41.06749" lon="20.59111">
        <ele>754.570252</ele>
        <time>2022-02-24T15:52:25.293Z</time>
      </trkpt>
      <trkpt lat="41.06758" lon="20.59085">
        <ele>751.81157</ele>
        <time>2022-02-24T15:52:28.821Z</time>
      </trkpt>
      <trkpt lat="41.06763" lon="20.59057">
        <ele>749.192848</ele>
        <time>2022-02-24T15:52:32.227Z</time>
      </trkpt>
      <trkpt lat="41.06763" lon="20.59024">
        <ele>747.578082</ele>
        <time>2022-02-24T15:52:36.203Z</time>
      </trkpt>
      <trkpt lat="41.06771" lon="20.58973">
        <ele>744.985369</ele>
        <time>2022-02-24T15:52:42.756Z</time>
      </trkpt>
      <trkpt lat="41.06811" lon="20.58857">
        <ele>738.692166</ele>
        <time>2022-02-24T15:52:59.647Z</time>
      </trkpt>
      <trkpt lat="41.06821" lon="20.58847">
        <ele>737.877505</ele>
        <time>2022-02-24T15:53:02.221Z</time>
      </trkpt>
      <trkpt lat="41.06844" lon="20.58842">
        <ele>737.564427</ele>
        <time>2022-02-24T15:53:09.297Z</time>
      </trkpt>
      <trkpt lat="41.06885" lon="20.58859">
        <ele>737.742309</ele>
        <time>2022-02-24T15:53:23.751Z</time>
      </trkpt>
      <trkpt lat="41.06901" lon="20.58874">
        <ele>737.821653</ele>
        <time>2022-02-24T15:53:30.473Z</time>
      </trkpt>
      <trkpt lat="41.06919" lon="20.58907">
        <ele>737.947653</ele>
        <time>2022-02-24T15:53:41.034Z</time>
      </trkpt>
      <trkpt lat="41.06925" lon="20.58958">
        <ele>738.11192</ele>
        <time>2022-02-24T15:53:54.255Z</time>
      </trkpt>
      <trkpt lat="41.06921" lon="20.59019">
        <ele>737.788876</ele>
        <time>2022-02-24T15:54:07.854Z</time>
      </trkpt>
      <trkpt lat="41.069" lon="20.59111">
        <ele>735.761562</ele>
        <time>2022-02-24T15:54:24.092Z</time>
      </trkpt>
      <trkpt lat="41.06863" lon="20.59188">
        <ele>733.806078</ele>
        <time>2022-02-24T15:54:37.434Z</time>
      </trkpt>
      <trkpt lat="41.06857" lon="20.59223">
        <ele>732.836554</ele>
        <time>2022-02-24T15:54:42.220Z</time>
      </trkpt>
      <trkpt lat="41.06863" lon="20.59237">
        <ele>731.71075</ele>
        <time>2022-02-24T15:54:44.405Z</time>
      </trkpt>
      <trkpt lat="41.06882" lon="20.59244">
        <ele>729.979387</ele>
        <time>2022-02-24T15:54:47.604Z</time>
      </trkpt>
      <trkpt lat="41.06933" lon="20.59192">
        <ele>724.365838</ele>
        <time>2022-02-24T15:54:58.102Z</time>
      </trkpt>
      <trkpt lat="41.06986" lon="20.59173">
        <ele>719.517533</ele>
        <time>2022-02-24T15:55:07.211Z</time>
      </trkpt>
      <trkpt lat="41.06997" lon="20.59168">
        <ele>718.517651</ele>
        <time>2022-02-24T15:55:09.036Z</time>
      </trkpt>
      <trkpt lat="41.07007" lon="20.59164">
        <ele>717.605368</ele>
        <time>2022-02-24T15:55:10.690Z</time>
      </trkpt>
      <trkpt lat="41.07066" lon="20.59092">
        <ele>708.959346</ele>
        <time>2022-02-24T15:55:23.864Z</time>
      </trkpt>
      <trkpt lat="41.07161" lon="20.59037">
        <ele>697.618877</ele>
        <time>2022-02-24T15:55:40.497Z</time>
      </trkpt>
      <trkpt lat="41.07195" lon="20.59003">
        <ele>692.540003</ele>
        <time>2022-02-24T15:55:47.230Z</time>
      </trkpt>
      <trkpt lat="41.07208" lon="20.58985">
        <ele>690.286727</ele>
        <time>2022-02-24T15:55:50.244Z</time>
      </trkpt>
      <trkpt lat="41.07225" lon="20.58955">
        <ele>686.839533</ele>
        <time>2022-02-24T15:55:54.772Z</time>
      </trkpt>
      <trkpt lat="41.07246" lon="20.58903">
        <ele>681.511956</ele>
        <time>2022-02-24T15:56:01.937Z</time>
      </trkpt>
      <trkpt lat="41.07249" lon="20.58895">
        <ele>680.746393</ele>
        <time>2022-02-24T15:56:02.914Z</time>
      </trkpt>
      <trkpt lat="41.07257" lon="20.58873">
        <ele>678.509031</ele>
        <time>2022-02-24T15:56:05.952Z</time>
      </trkpt>
      <trkpt lat="41.07258" lon="20.58869">
        <ele>678.12625</ele>
        <time>2022-02-24T15:56:06.454Z</time>
      </trkpt>
      <trkpt lat="41.07273" lon="20.58845">
        <ele>675.526839</ele>
        <time>2022-02-24T15:56:10.100Z</time>
      </trkpt>
      <trkpt lat="41.07314" lon="20.58814">
        <ele>671.130123</ele>
        <time>2022-02-24T15:56:17.601Z</time>
      </trkpt>
      <trkpt lat="41.07342" lon="20.58783">
        <ele>667.675981</ele>
        <time>2022-02-24T15:56:23.632Z</time>
      </trkpt>
      <trkpt lat="41.07357" lon="20.58754">
        <ele>665.168582</ele>
        <time>2022-02-24T15:56:27.990Z</time>
      </trkpt>
      <trkpt lat="41.07357" lon="20.58729">
        <ele>663.433064</ele>
        <time>2022-02-24T15:56:31.229Z</time>
      </trkpt>
      <trkpt lat="41.07354" lon="20.58724">
        <ele>662.913846</ele>
        <time>2022-02-24T15:56:32.111Z</time>
      </trkpt>
      <trkpt lat="41.07349" lon="20.58721">
        <ele>662.457277</ele>
        <time>2022-02-24T15:56:32.942Z</time>
      </trkpt>
      <trkpt lat="41.07335" lon="20.58727">
        <ele>661.028961</ele>
        <time>2022-02-24T15:56:35.799Z</time>
      </trkpt>
      <trkpt lat="41.07314" lon="20.58758">
        <ele>658.587143</ele>
        <time>2022-02-24T15:56:41.292Z</time>
      </trkpt>
      <trkpt lat="41.07289" lon="20.58781">
        <ele>656.892771</ele>
        <time>2022-02-24T15:56:46.564Z</time>
      </trkpt>
      <trkpt lat="41.07249" lon="20.58783">
        <ele>654.629332</ele>
        <time>2022-02-24T15:56:53.691Z</time>
      </trkpt>
      <trkpt lat="41.07155" lon="20.58735">
        <ele>648.8581</ele>
        <time>2022-02-24T15:57:12.067Z</time>
      </trkpt>
      <trkpt lat="41.07094" lon="20.58711">
        <ele>644.109458</ele>
        <time>2022-02-24T15:57:22.940Z</time>
      </trkpt>
      <trkpt lat="41.07071" lon="20.58693">
        <ele>642.073927</ele>
        <time>2022-02-24T15:57:27.421Z</time>
      </trkpt>
      <trkpt lat="41.07044" lon="20.5865">
        <ele>638.923138</ele>
        <time>2022-02-24T15:57:34.521Z</time>
      </trkpt>
      <trkpt lat="41.0704" lon="20.58636">
        <ele>638.065514</ele>
        <time>2022-02-24T15:57:36.518Z</time>
      </trkpt>
      <trkpt lat="41.07037" lon="20.58617">
        <ele>636.915541</ele>
        <time>2022-02-24T15:57:38.947Z</time>
      </trkpt>
      <trkpt lat="41.07036" lon="20.58586">
        <ele>635.138193</ele>
        <time>2022-02-24T15:57:43.018Z</time>
      </trkpt>
      <trkpt lat="41.07036" lon="20.58569">
        <ele>634.145081</ele>
        <time>2022-02-24T15:57:45.004Z</time>
      </trkpt>
      <trkpt lat="41.07045" lon="20.58302">
        <ele>619.459815</ele>
        <time>2022-02-24T15:58:19.073Z</time>
      </trkpt>
      <trkpt lat="41.07046" lon="20.58224">
        <ele>616.545419</ele>
        <time>2022-02-24T15:58:29.959Z</time>
      </trkpt>
      <trkpt lat="41.07048" lon="20.58155">
        <ele>613.985647</ele>
        <time>2022-02-24T15:58:39.659Z</time>
      </trkpt>
      <trkpt lat="41.07048" lon="20.58146">
        <ele>613.627442</ele>
        <time>2022-02-24T15:58:40.982Z</time>
      </trkpt>
      <trkpt lat="41.07049" lon="20.58027">
        <ele>610.543762</ele>
        <time>2022-02-24T15:58:58.775Z</time>
      </trkpt>
      <trkpt lat="41.07048" lon="20.5801">
        <ele>610.165384</ele>
        <time>2022-02-24T15:59:01.280Z</time>
      </trkpt>
      <trkpt lat="41.07047" lon="20.57981">
        <ele>609.506822</ele>
        <time>2022-02-24T15:59:05.716Z</time>
      </trkpt>
      <trkpt lat="41.07045" lon="20.57939">
        <ele>608.564142</ele>
        <time>2022-02-24T15:59:12.021Z</time>
      </trkpt>
      <trkpt lat="41.07034" lon="20.57805">
        <ele>605.743048</ele>
        <time>2022-02-24T15:59:32.366Z</time>
      </trkpt>
      <trkpt lat="41.07027" lon="20.57696">
        <ele>603.549319</ele>
        <time>2022-02-24T15:59:49.260Z</time>
      </trkpt>
      <trkpt lat="41.07009" lon="20.57602">
        <ele>601.451667</ele>
        <time>2022-02-24T16:00:03.905Z</time>
      </trkpt>
      <trkpt lat="41.06941" lon="20.57427">
        <ele>596.804571</ele>
        <time>2022-02-24T16:00:32.930Z</time>
      </trkpt>
      <trkpt lat="41.06935" lon="20.57378">
        <ele>595.907155</ele>
        <time>2022-02-24T16:00:40.107Z</time>
      </trkpt>
      <trkpt lat="41.06932" lon="20.57282">
        <ele>594.179953</ele>
        <time>2022-02-24T16:00:54.496Z</time>
      </trkpt>
      <trkpt lat="41.0693" lon="20.57209">
        <ele>592.846312</ele>
        <time>2022-02-24T16:01:06.281Z</time>
      </trkpt>
      <trkpt lat="41.06929" lon="20.57191">
        <ele>592.517884</ele>
        <time>2022-02-24T16:01:09.379Z</time>
      </trkpt>
      <trkpt lat="41.06929" lon="20.57183">
        <ele>592.500343</ele>
        <time>2022-02-24T16:01:10.733Z</time>
      </trkpt>
      <trkpt lat="41.06926" lon="20.57046">
        <ele>592.360238</ele>
        <time>2022-02-24T16:01:35.977Z</time>
      </trkpt>
      <trkpt lat="41.06924" lon="20.56886">
        <ele>592.920699</ele>
        <time>2022-02-24T16:02:12.854Z</time>
      </trkpt>
      <trkpt lat="41.06924" lon="20.56811">
        <ele>593.677461</ele>
        <time>2022-02-24T16:02:33.809Z</time>
      </trkpt>
      <trkpt lat="41.06923" lon="20.56755">
        <ele>594.237608</ele>
        <time>2022-02-24T16:02:48.435Z</time>
      </trkpt>
      <trkpt lat="41.06922" lon="20.56746">
        <ele>594.327939</ele>
        <time>2022-02-24T16:02:50.714Z</time>
      </trkpt>
      <trkpt lat="41.06922" lon="20.56727">
        <ele>594.520642</ele>
        <time>2022-02-24T16:02:56.142Z</time>
      </trkpt>
      <trkpt lat="41.06922" lon="20.56703">
        <ele>594.645021</ele>
        <time>2022-02-24T16:03:01.007Z</time>
      </trkpt>
      <trkpt lat="41.06921" lon="20.56697">
        <ele>594.637666</ele>
        <time>2022-02-24T16:03:02.176Z</time>
      </trkpt>
      <trkpt lat="41.06921" lon="20.56665">
        <ele>594.598994</ele>
        <time>2022-02-24T16:03:09.565Z</time>
      </trkpt>
      <trkpt lat="41.06921" lon="20.56647">
        <ele>594.578154</ele>
        <time>2022-02-24T16:03:12.605Z</time>
      </trkpt>
      <trkpt lat="41.06921" lon="20.56638">
        <ele>594.566586</ele>
        <time>2022-02-24T16:03:14.762Z</time>
      </trkpt>
      <trkpt lat="41.06922" lon="20.56614">
        <ele>594.538388</ele>
        <time>2022-02-24T16:03:19.827Z</time>
      </trkpt>
      <trkpt lat="41.06923" lon="20.56587">
        <ele>594.505336</ele>
        <time>2022-02-24T16:03:25.117Z</time>
      </trkpt>
      <trkpt lat="41.06925" lon="20.56575">
        <ele>594.490031</ele>
        <time>2022-02-24T16:03:28.283Z</time>
      </trkpt>
      <trkpt lat="41.06927" lon="20.56563">
        <ele>594.4757</ele>
        <time>2022-02-24T16:03:30.180Z</time>
      </trkpt>
      <trkpt lat="41.06945" lon="20.5652">
        <ele>594.416276</ele>
        <time>2022-02-24T16:03:39.726Z</time>
      </trkpt>
      <trkpt lat="41.06952" lon="20.56507">
        <ele>594.397203</ele>
        <time>2022-02-24T16:03:42.505Z</time>
      </trkpt>
      <trkpt lat="41.06954" lon="20.56505">
        <ele>594.39316</ele>
        <time>2022-02-24T16:03:43.430Z</time>
      </trkpt>
      <trkpt lat="41.06977" lon="20.56481">
        <ele>594.088883</ele>
        <time>2022-02-24T16:03:50.136Z</time>
      </trkpt>
      <trkpt lat="41.07075" lon="20.56416">
        <ele>591.986799</ele>
        <time>2022-02-24T16:04:12.331Z</time>
      </trkpt>
      <trkpt lat="41.07103" lon="20.56387">
        <ele>591.306053</ele>
        <time>2022-02-24T16:04:20.197Z</time>
      </trkpt>
      <trkpt lat="41.07111" lon="20.56376">
        <ele>591.091589</ele>
        <time>2022-02-24T16:04:22.492Z</time>
      </trkpt>
      <trkpt lat="41.07114" lon="20.56372">
        <ele>591.01755</ele>
        <time>2022-02-24T16:04:23.315Z</time>
      </trkpt>
      <trkpt lat="41.07138" lon="20.56325">
        <ele>590.706476</ele>
        <time>2022-02-24T16:04:33.260Z</time>
      </trkpt>
      <trkpt lat="41.07149" lon="20.5629">
        <ele>590.546177</ele>
        <time>2022-02-24T16:04:39.578Z</time>
      </trkpt>
      <trkpt lat="41.07156" lon="20.56246">
        <ele>590.351201</ele>
        <time>2022-02-24T16:04:47.523Z</time>
      </trkpt>
      <trkpt lat="41.07157" lon="20.56177">
        <ele>590.05192</ele>
        <time>2022-02-24T16:05:00.731Z</time>
      </trkpt>
      <trkpt lat="41.07149" lon="20.56061">
        <ele>590.690863</ele>
        <time>2022-02-24T16:05:27.680Z</time>
      </trkpt>
      <trkpt lat="41.07146" lon="20.56017">
        <ele>591.131852</ele>
        <time>2022-02-24T16:05:38.747Z</time>
      </trkpt>
      <trkpt lat="41.07171" lon="20.56014">
        <ele>591.449737</ele>
        <time>2022-02-24T16:05:47.740Z</time>
      </trkpt>
      <trkpt lat="41.07203" lon="20.55991">
        <ele>591.932398</ele>
        <time>2022-02-24T16:06:00.867Z</time>
      </trkpt>
      <trkpt lat="41.07218" lon="20.55969">
        <ele>592.217209</ele>
        <time>2022-02-24T16:06:08.560Z</time>
      </trkpt>
      <trkpt lat="41.07221" lon="20.55956">
        <ele>592.404689</ele>
        <time>2022-02-24T16:06:12.801Z</time>
      </trkpt>
      <trkpt lat="41.07214" lon="20.55861">
        <ele>593.720271</ele>
        <time>2022-02-24T16:06:39.870Z</time>
      </trkpt>
      <trkpt lat="41.07203" lon="20.55779">
        <ele>594.875336</ele>
        <time>2022-02-24T16:07:02.403Z</time>
      </trkpt>
      <trkpt lat="41.07159" lon="20.55616">
        <ele>597.893716</ele>
        <time>2022-02-24T16:07:49.703Z</time>
      </trkpt>
      <trkpt lat="41.07173" lon="20.55519">
        <ele>599.769948</ele>
        <time>2022-02-24T16:08:22.514Z</time>
      </trkpt>
      <trkpt lat="41.07201" lon="20.55462">
        <ele>600.788149</ele>
        <time>2022-02-24T16:08:44.606Z</time>
      </trkpt>
      <trkpt lat="41.07212" lon="20.55451">
        <ele>601.050874</ele>
        <time>2022-02-24T16:08:51.803Z</time>
      </trkpt>
      <trkpt lat="41.07215" lon="20.55449">
        <ele>601.099826</ele>
        <time>2022-02-24T16:08:53.551Z</time>
      </trkpt>
      <trkpt lat="41.07216" lon="20.55448">
        <ele>601.128751</ele>
        <time>2022-02-24T16:08:54.042Z</time>
      </trkpt>
      <trkpt lat="41.07227" lon="20.5543">
        <ele>601.455706</ele>
        <time>2022-02-24T16:08:59.678Z</time>
      </trkpt>
      <trkpt lat="41.07229" lon="20.55428">
        <ele>601.499571</ele>
        <time>2022-02-24T16:09:00.889Z</time>
      </trkpt>
      <trkpt lat="41.07231" lon="20.55424">
        <ele>601.561541</ele>
        <time>2022-02-24T16:09:02.568Z</time>
      </trkpt>
      <trkpt lat="41.07244" lon="20.55417">
        <ele>601.829688</ele>
        <time>2022-02-24T16:09:07.596Z</time>
      </trkpt>
      <trkpt lat="41.07292" lon="20.55423">
        <ele>602.712844</ele>
        <time>2022-02-24T16:09:22.732Z</time>
      </trkpt>
      <trkpt lat="41.07331" lon="20.55411">
        <ele>603.341058</ele>
        <time>2022-02-24T16:09:34.628Z</time>
      </trkpt>
      <trkpt lat="41.07334" lon="20.55409">
        <ele>603.296722</ele>
        <time>2022-02-24T16:09:37.335Z</time>
      </trkpt>
      <trkpt lat="41.07333" lon="20.55408">
        <ele>603.274164</ele>
        <time>2022-02-24T16:09:37.588Z</time>
      </trkpt>
      <trkpt lat="41.07327" lon="20.55402">
        <ele>603.169155</ele>
        <time>2022-02-24T16:09:39.459Z</time>
      </trkpt>
      <trkpt lat="41.0732" lon="20.55377">
        <ele>602.88692</ele>
        <time>2022-02-24T16:09:45.402Z</time>
      </trkpt>
      <trkpt lat="41.07318" lon="20.55366">
        <ele>602.764446</ele>
        <time>2022-02-24T16:09:48.028Z</time>
      </trkpt>
      <trkpt lat="41.07322" lon="20.55364">
        <ele>602.695075</ele>
        <time>2022-02-24T16:09:49.185Z</time>
      </trkpt>
      <trkpt lat="41.07339" lon="20.5534">
        <ele>602.345767</ele>
        <time>2022-02-24T16:09:55.818Z</time>
      </trkpt>
      <trkpt lat="41.07336" lon="20.55302">
        <ele>601.9423</ele>
        <time>2022-02-24T16:10:02.663Z</time>
      </trkpt>
      <trkpt lat="41.07336" lon="20.55299">
        <ele>601.911155</ele>
        <time>2022-02-24T16:10:03.046Z</time>
      </trkpt>
      <trkpt lat="41.07336" lon="20.55295">
        <ele>601.863007</ele>
        <time>2022-02-24T16:10:04.305Z</time>
      </trkpt>
      <trkpt lat="41.07347" lon="20.55251">
        <ele>601.375527</ele>
        <time>2022-02-24T16:10:11.486Z</time>
      </trkpt>
      <trkpt lat="41.07374" lon="20.55174">
        <ele>599.840688</ele>
        <time>2022-02-24T16:10:24.645Z</time>
      </trkpt>
      <trkpt lat="41.07391" lon="20.55146">
        <ele>598.83641</ele>
        <time>2022-02-24T16:10:30.001Z</time>
      </trkpt>
      <trkpt lat="41.07406" lon="20.55135">
        <ele>598.187466</ele>
        <time>2022-02-24T16:10:33.347Z</time>
      </trkpt>
      <trkpt lat="41.07412" lon="20.55134">
        <ele>597.978248</ele>
        <time>2022-02-24T16:10:35.020Z</time>
      </trkpt>
      <trkpt lat="41.07413" lon="20.5513">
        <ele>597.850692</ele>
        <time>2022-02-24T16:10:35.575Z</time>
      </trkpt>
      <trkpt lat="41.07403" lon="20.55011">
        <ele>594.524389</ele>
        <time>2022-02-24T16:10:52.962Z</time>
      </trkpt>
      <trkpt lat="41.07402" lon="20.55002">
        <ele>594.271346</ele>
        <time>2022-02-24T16:10:54.112Z</time>
      </trkpt>
      <trkpt lat="41.07401" lon="20.54998">
        <ele>594.157321</ele>
        <time>2022-02-24T16:10:54.730Z</time>
      </trkpt>
      <trkpt lat="41.07397" lon="20.54985">
        <ele>593.803917</ele>
        <time>2022-02-24T16:10:56.816Z</time>
      </trkpt>
      <trkpt lat="41.07395" lon="20.5498">
        <ele>593.676291</ele>
        <time>2022-02-24T16:10:57.616Z</time>
      </trkpt>
      <trkpt lat="41.07393" lon="20.54976">
        <ele>593.559676</ele>
        <time>2022-02-24T16:10:58.351Z</time>
      </trkpt>
      <trkpt lat="41.07391" lon="20.54973">
        <ele>593.466189</ele>
        <time>2022-02-24T16:10:58.958Z</time>
      </trkpt>
      <trkpt lat="41.07387" lon="20.54968">
        <ele>593.289974</ele>
        <time>2022-02-24T16:11:00.038Z</time>
      </trkpt>
      <trkpt lat="41.07375" lon="20.54954">
        <ele>592.776482</ele>
        <time>2022-02-24T16:11:02.873Z</time>
      </trkpt>
      <trkpt lat="41.07346" lon="20.54929">
        <ele>591.657136</ele>
        <time>2022-02-24T16:11:09.379Z</time>
      </trkpt>
      <trkpt lat="41.07323" lon="20.54926">
        <ele>590.903499</ele>
        <time>2022-02-24T16:11:14.051Z</time>
      </trkpt>
      <trkpt lat="41.07318" lon="20.54929">
        <ele>590.73585</ele>
        <time>2022-02-24T16:11:14.923Z</time>
      </trkpt>
      <trkpt lat="41.07318" lon="20.54926">
        <ele>590.65792</ele>
        <time>2022-02-24T16:11:15.413Z</time>
      </trkpt>
      <trkpt lat="41.07317" lon="20.54923">
        <ele>590.578106</ele>
        <time>2022-02-24T16:11:15.938Z</time>
      </trkpt>
      <trkpt lat="41.07293" lon="20.54862">
        <ele>588.898712</ele>
        <time>2022-02-24T16:11:26.357Z</time>
      </trkpt>
      <trkpt lat="41.07271" lon="20.54801">
        <ele>588.302368</ele>
        <time>2022-02-24T16:11:37.527Z</time>
      </trkpt>
      <trkpt lat="41.07253" lon="20.54753">
        <ele>588.210067</ele>
        <time>2022-02-24T16:11:47.428Z</time>
      </trkpt>
      <trkpt lat="41.07248" lon="20.54741">
        <ele>588.187525</ele>
        <time>2022-02-24T16:11:50.151Z</time>
      </trkpt>
      <trkpt lat="41.07234" lon="20.54701">
        <ele>588.112451</ele>
        <time>2022-02-24T16:11:59.154Z</time>
      </trkpt>
      <trkpt lat="41.0722" lon="20.54665">
        <ele>588.044014</ele>
        <time>2022-02-24T16:12:07.473Z</time>
      </trkpt>
      <trkpt lat="41.0721" lon="20.54636">
        <ele>587.989658</ele>
        <time>2022-02-24T16:12:14.184Z</time>
      </trkpt>
      <trkpt lat="41.07197" lon="20.54602">
        <ele>588.662164</ele>
        <time>2022-02-24T16:12:25.131Z</time>
      </trkpt>
      <trkpt lat="41.07196" lon="20.54598">
        <ele>588.760514</ele>
        <time>2022-02-24T16:12:26.332Z</time>
      </trkpt>
      <trkpt lat="41.07185" lon="20.54569">
        <ele>589.517487</ele>
        <time>2022-02-24T16:12:37.948Z</time>
      </trkpt>
      <trkpt lat="41.07171" lon="20.54516">
        <ele>590.826761</ele>
        <time>2022-02-24T16:12:57.643Z</time>
      </trkpt>
      <trkpt lat="41.07179" lon="20.54444">
        <ele>592.51955</ele>
        <time>2022-02-24T16:13:22.189Z</time>
      </trkpt>
      <trkpt lat="41.0718" lon="20.5444">
        <ele>592.606131</ele>
        <time>2022-02-24T16:13:24.035Z</time>
      </trkpt>
      <trkpt lat="41.07194" lon="20.54412">
        <ele>593.384575</ele>
        <time>2022-02-24T16:13:34.492Z</time>
      </trkpt>
      <trkpt lat="41.07195" lon="20.54408">
        <ele>593.49193</ele>
        <time>2022-02-24T16:13:35.768Z</time>
      </trkpt>
      <trkpt lat="41.07196" lon="20.54406">
        <ele>593.530069</ele>
        <time>2022-02-24T16:13:36.420Z</time>
      </trkpt>
      <trkpt lat="41.07196" lon="20.54403">
        <ele>593.571064</ele>
        <time>2022-02-24T16:13:38.105Z</time>
      </trkpt>
      <trkpt lat="41.07197" lon="20.54392">
        <ele>593.72618</ele>
        <time>2022-02-24T16:13:42.208Z</time>
      </trkpt>
      <trkpt lat="41.07196" lon="20.54376">
        <ele>593.943089</ele>
        <time>2022-02-24T16:13:47.683Z</time>
      </trkpt>
      <trkpt lat="41.07196" lon="20.54376">
        <ele>593.943089</ele>
        <time>2022-02-24T16:13:48.013Z</time>
      </trkpt>
      <trkpt lat="41.07196" lon="20.54376">
        <ele>593.943089</ele>
        <time>2022-02-24T16:13:48.052Z</time>
      </trkpt>
      <trkpt lat="41.07196" lon="20.54374">
        <ele>593.97006</ele>
        <time>2022-02-24T16:13:48.337Z</time>
      </trkpt>
      <trkpt lat="41.07188" lon="20.54328">
        <ele>594.597794</ele>
        <time>2022-02-24T16:14:03.278Z</time>
      </trkpt>
      <trkpt lat="41.07166" lon="20.54287">
        <ele>595.281432</ele>
        <time>2022-02-24T16:14:18.232Z</time>
      </trkpt>
      <trkpt lat="41.07142" lon="20.54265">
        <ele>595.794832</ele>
        <time>2022-02-24T16:14:30.497Z</time>
      </trkpt>
      <trkpt lat="41.07107" lon="20.54243">
        <ele>596.488715</ele>
        <time>2022-02-24T16:14:42.632Z</time>
      </trkpt>
      <trkpt lat="41.07103" lon="20.5424">
        <ele>596.564601</ele>
        <time>2022-02-24T16:14:43.402Z</time>
      </trkpt>
      <trkpt lat="41.07072" lon="20.54215">
        <ele>596.24505</ele>
        <time>2022-02-24T16:14:51.631Z</time>
      </trkpt>
      <trkpt lat="41.0704" lon="20.54191">
        <ele>595.577374</ele>
        <time>2022-02-24T16:14:59.905Z</time>
      </trkpt>
      <trkpt lat="41.07039" lon="20.54191">
        <ele>595.560976</ele>
        <time>2022-02-24T16:15:00.153Z</time>
      </trkpt>
      <trkpt lat="41.07037" lon="20.54188">
        <ele>595.499192</ele>
        <time>2022-02-24T16:15:00.902Z</time>
      </trkpt>
      <trkpt lat="41.07008" lon="20.54154">
        <ele>594.800086</ele>
        <time>2022-02-24T16:15:09.063Z</time>
      </trkpt>
      <trkpt lat="41.0692" lon="20.54083">
        <ele>592.986917</ele>
        <time>2022-02-24T16:15:31.920Z</time>
      </trkpt>
      <trkpt lat="41.06902" lon="20.54074">
        <ele>592.691946</ele>
        <time>2022-02-24T16:15:35.866Z</time>
      </trkpt>
      <trkpt lat="41.06886" lon="20.54078">
        <ele>592.419412</ele>
        <time>2022-02-24T16:15:39.995Z</time>
      </trkpt>
      <trkpt lat="41.06884" lon="20.54081">
        <ele>592.373836</ele>
        <time>2022-02-24T16:15:40.481Z</time>
      </trkpt>
      <trkpt lat="41.06861" lon="20.5406">
        <ele>591.930406</ele>
        <time>2022-02-24T16:15:47.151Z</time>
      </trkpt>
      <trkpt lat="41.06839" lon="20.54034">
        <ele>591.460332</ele>
        <time>2022-02-24T16:15:53.919Z</time>
      </trkpt>
      <trkpt lat="41.06825" lon="20.53995">
        <ele>590.944979</ele>
        <time>2022-02-24T16:16:01.188Z</time>
      </trkpt>
      <trkpt lat="41.06796" lon="20.53947">
        <ele>590.57549</ele>
        <time>2022-02-24T16:16:11.987Z</time>
      </trkpt>
      <trkpt lat="41.06795" lon="20.53945">
        <ele>590.57497</ele>
        <time>2022-02-24T16:16:12.533Z</time>
      </trkpt>
      <trkpt lat="41.06791" lon="20.53938">
        <ele>590.573382</ele>
        <time>2022-02-24T16:16:13.878Z</time>
      </trkpt>
      <trkpt lat="41.06779" lon="20.53921">
        <ele>590.569296</ele>
        <time>2022-02-24T16:16:19.689Z</time>
      </trkpt>
      <trkpt lat="41.06774" lon="20.53914">
        <ele>590.567663</ele>
        <time>2022-02-24T16:16:21.866Z</time>
      </trkpt>
      <trkpt lat="41.06773" lon="20.53913">
        <ele>590.567365</ele>
        <time>2022-02-24T16:16:22.081Z</time>
      </trkpt>
      <trkpt lat="41.06751" lon="20.53885">
        <ele>590.560284</ele>
        <time>2022-02-24T16:16:31.764Z</time>
      </trkpt>
      <trkpt lat="41.06729" lon="20.53846">
        <ele>590.551605</ele>
        <time>2022-02-24T16:16:43.207Z</time>
      </trkpt>
      <trkpt lat="41.06701" lon="20.53778">
        <ele>590.488848</ele>
        <time>2022-02-24T16:17:00.357Z</time>
      </trkpt>
      <trkpt lat="41.06701" lon="20.53775">
        <ele>590.459014</ele>
        <time>2022-02-24T16:17:00.802Z</time>
      </trkpt>
      <trkpt lat="41.067" lon="20.5377">
        <ele>590.409165</ele>
        <time>2022-02-24T16:17:03.840Z</time>
      </trkpt>
      <trkpt lat="41.067" lon="20.53748">
        <ele>590.202049</ele>
        <time>2022-02-24T16:17:08.293Z</time>
      </trkpt>
      <trkpt lat="41.06725" lon="20.537">
        <ele>589.638104</ele>
        <time>2022-02-24T16:17:19.354Z</time>
      </trkpt>
      <trkpt lat="41.06743" lon="20.53636">
        <ele>588.99314</ele>
        <time>2022-02-24T16:17:31.433Z</time>
      </trkpt>
      <trkpt lat="41.06724" lon="20.53539">
        <ele>587.738732</ele>
        <time>2022-02-24T16:17:47.686Z</time>
      </trkpt>
      <trkpt lat="41.06724" lon="20.5353">
        <ele>587.526781</ele>
        <time>2022-02-24T16:17:49.167Z</time>
      </trkpt>
      <trkpt lat="41.06715" lon="20.53522">
        <ele>587.215611</ele>
        <time>2022-02-24T16:17:51.165Z</time>
      </trkpt>
      <trkpt lat="41.06699" lon="20.53511">
        <ele>586.673192</ele>
        <time>2022-02-24T16:17:55.114Z</time>
      </trkpt>
      <trkpt lat="41.0668" lon="20.53487">
        <ele>585.925746</ele>
        <time>2022-02-24T16:18:00.334Z</time>
      </trkpt>
      <trkpt lat="41.06677" lon="20.53488">
        <ele>585.820117</ele>
        <time>2022-02-24T16:18:00.938Z</time>
      </trkpt>
      <trkpt lat="41.0668" lon="20.5347">
        <ele>585.428834</ele>
        <time>2022-02-24T16:18:04.017Z</time>
      </trkpt>
      <trkpt lat="41.0668" lon="20.53464">
        <ele>585.288238</ele>
        <time>2022-02-24T16:18:05.003Z</time>
      </trkpt>
      <trkpt lat="41.06683" lon="20.53415">
        <ele>584.21232</ele>
        <time>2022-02-24T16:18:12.458Z</time>
      </trkpt>
      <trkpt lat="41.06682" lon="20.53412">
        <ele>584.12554</ele>
        <time>2022-02-24T16:18:13.057Z</time>
      </trkpt>
      <trkpt lat="41.0668" lon="20.53408">
        <ele>584.023033</ele>
        <time>2022-02-24T16:18:13.668Z</time>
      </trkpt>
      <trkpt lat="41.06654" lon="20.53397">
        <ele>583.230856</ele>
        <time>2022-02-24T16:18:19.450Z</time>
      </trkpt>
      <trkpt lat="41.06648" lon="20.5339">
        <ele>583.001144</ele>
        <time>2022-02-24T16:18:20.952Z</time>
      </trkpt>
      <trkpt lat="41.06633" lon="20.53392">
        <ele>582.814973</ele>
        <time>2022-02-24T16:18:24.089Z</time>
      </trkpt>
      <trkpt lat="41.0662" lon="20.5339">
        <ele>582.649815</ele>
        <time>2022-02-24T16:18:28.363Z</time>
      </trkpt>
      <trkpt lat="41.06606" lon="20.5338">
        <ele>582.449513</ele>
        <time>2022-02-24T16:18:32.219Z</time>
      </trkpt>
      <trkpt lat="41.06576" lon="20.5333">
        <ele>581.853619</ele>
        <time>2022-02-24T16:18:44.872Z</time>
      </trkpt>
      <trkpt lat="41.06566" lon="20.53297">
        <ele>581.519517</ele>
        <time>2022-02-24T16:18:50.990Z</time>
      </trkpt>
      <trkpt lat="41.06562" lon="20.53239">
        <ele>580.973751</ele>
        <time>2022-02-24T16:19:01.314Z</time>
      </trkpt>
      <trkpt lat="41.06532" lon="20.53176">
        <ele>579.84399</ele>
        <time>2022-02-24T16:19:15.758Z</time>
      </trkpt>
      <trkpt lat="41.06532" lon="20.53172">
        <ele>579.771352</ele>
        <time>2022-02-24T16:19:17.287Z</time>
      </trkpt>
      <trkpt lat="41.06483" lon="20.53181">
        <ele>578.626521</ele>
        <time>2022-02-24T16:19:28.212Z</time>
      </trkpt>
      <trkpt lat="41.06482" lon="20.53173">
        <ele>578.479189</ele>
        <time>2022-02-24T16:19:29.880Z</time>
      </trkpt>
      <trkpt lat="41.06482" lon="20.53171">
        <ele>578.436155</ele>
        <time>2022-02-24T16:19:30.541Z</time>
      </trkpt>
      <trkpt lat="41.06479" lon="20.53156">
        <ele>578.162229</ele>
        <time>2022-02-24T16:19:32.920Z</time>
      </trkpt>
      <trkpt lat="41.06479" lon="20.53147">
        <ele>578.015238</ele>
        <time>2022-02-24T16:19:34.363Z</time>
      </trkpt>
      <trkpt lat="41.06481" lon="20.53132">
        <ele>577.732106</ele>
        <time>2022-02-24T16:19:36.632Z</time>
      </trkpt>
      <trkpt lat="41.06485" lon="20.53123">
        <ele>577.55719</ele>
        <time>2022-02-24T16:19:38.809Z</time>
      </trkpt>
      <trkpt lat="41.06457" lon="20.53103">
        <ele>576.822255</ele>
        <time>2022-02-24T16:19:44.969Z</time>
      </trkpt>
      <trkpt lat="41.06445" lon="20.53093">
        <ele>576.414307</ele>
        <time>2022-02-24T16:19:47.940Z</time>
      </trkpt>
      <trkpt lat="41.06436" lon="20.53072">
        <ele>575.639891</ele>
        <time>2022-02-24T16:19:51.118Z</time>
      </trkpt>
      <trkpt lat="41.06434" lon="20.5301">
        <ele>573.604549</ele>
        <time>2022-02-24T16:20:00.230Z</time>
      </trkpt>
      <trkpt lat="41.06414" lon="20.53007">
        <ele>572.713053</ele>
        <time>2022-02-24T16:20:04.074Z</time>
      </trkpt>
      <trkpt lat="41.06362" lon="20.53013">
        <ele>570.441699</ele>
        <time>2022-02-24T16:20:14.328Z</time>
      </trkpt>
      <trkpt lat="41.06356" lon="20.5302">
        <ele>570.081868</ele>
        <time>2022-02-24T16:20:15.947Z</time>
      </trkpt>
      <trkpt lat="41.06352" lon="20.53032">
        <ele>569.649228</ele>
        <time>2022-02-24T16:20:17.689Z</time>
      </trkpt>
      <trkpt lat="41.06344" lon="20.53011">
        <ele>568.875281</ele>
        <time>2022-02-24T16:20:21.184Z</time>
      </trkpt>
      <trkpt lat="41.06319" lon="20.5294">
        <ele>567.437824</ele>
        <time>2022-02-24T16:20:31.907Z</time>
      </trkpt>
      <trkpt lat="41.06309" lon="20.52865">
        <ele>566.106866</ele>
        <time>2022-02-24T16:20:44.175Z</time>
      </trkpt>
      <trkpt lat="41.06309" lon="20.52837">
        <ele>565.625649</ele>
        <time>2022-02-24T16:20:48.292Z</time>
      </trkpt>
      <trkpt lat="41.06308" lon="20.5282">
        <ele>565.323458</ele>
        <time>2022-02-24T16:20:51.810Z</time>
      </trkpt>
      <trkpt lat="41.06312" lon="20.52752">
        <ele>564.602658</ele>
        <time>2022-02-24T16:21:04.925Z</time>
      </trkpt>
      <trkpt lat="41.06323" lon="20.52704">
        <ele>564.75926</ele>
        <time>2022-02-24T16:21:15.417Z</time>
      </trkpt>
      <trkpt lat="41.06422" lon="20.52452">
        <ele>565.768569</ele>
        <time>2022-02-24T16:22:20.157Z</time>
      </trkpt>
      <trkpt lat="41.06481" lon="20.52274">
        <ele>566.505936</ele>
        <time>2022-02-24T16:23:02.203Z</time>
      </trkpt>
      <trkpt lat="41.06563" lon="20.52129">
        <ele>567.110067</ele>
        <time>2022-02-24T16:23:40.630Z</time>
      </trkpt>
      <trkpt lat="41.06604" lon="20.51995">
        <ele>567.800735</ele>
        <time>2022-02-24T16:24:14.316Z</time>
      </trkpt>
      <trkpt lat="41.06688" lon="20.51894">
        <ele>567.963958</ele>
        <time>2022-02-24T16:24:47.281Z</time>
      </trkpt>
      <trkpt lat="41.06695" lon="20.51865">
        <ele>567.880717</ele>
        <time>2022-02-24T16:24:53.271Z</time>
      </trkpt>
      <trkpt lat="41.0669" lon="20.51824">
        <ele>567.767476</ele>
        <time>2022-02-24T16:25:01.294Z</time>
      </trkpt>
      <trkpt lat="41.06663" lon="20.51707">
        <ele>567.147673</ele>
        <time>2022-02-24T16:25:22.663Z</time>
      </trkpt>
      <trkpt lat="41.06661" lon="20.51672">
        <ele>566.710841</ele>
        <time>2022-02-24T16:25:28.263Z</time>
      </trkpt>
      <trkpt lat="41.06669" lon="20.51637">
        <ele>566.255926</ele>
        <time>2022-02-24T16:25:34.062Z</time>
      </trkpt>
      <trkpt lat="41.06684" lon="20.51604">
        <ele>565.778359</ele>
        <time>2022-02-24T16:25:40.088Z</time>
      </trkpt>
      <trkpt lat="41.0671" lon="20.51578">
        <ele>565.238347</ele>
        <time>2022-02-24T16:25:46.976Z</time>
      </trkpt>
      <trkpt lat="41.06815" lon="20.51495">
        <ele>563.982185</ele>
        <time>2022-02-24T16:26:14.636Z</time>
      </trkpt>
      <trkpt lat="41.06957" lon="20.51397">
        <ele>562.712698</ele>
        <time>2022-02-24T16:26:55.558Z</time>
      </trkpt>
      <trkpt lat="41.07118" lon="20.51343">
        <ele>560.345946</ele>
        <time>2022-02-24T16:27:33.077Z</time>
      </trkpt>
      <trkpt lat="41.07139" lon="20.51318">
        <ele>559.608969</ele>
        <time>2022-02-24T16:27:38.495Z</time>
      </trkpt>
      <trkpt lat="41.07161" lon="20.51271">
        <ele>558.532126</ele>
        <time>2022-02-24T16:27:46.343Z</time>
      </trkpt>
      <trkpt lat="41.07192" lon="20.51248">
        <ele>557.591134</ele>
        <time>2022-02-24T16:27:53.351Z</time>
      </trkpt>
      <trkpt lat="41.07229" lon="20.51236">
        <ele>556.742616</ele>
        <time>2022-02-24T16:28:00.969Z</time>
      </trkpt>
      <trkpt lat="41.07269" lon="20.51224">
        <ele>556.310744</ele>
        <time>2022-02-24T16:28:09.402Z</time>
      </trkpt>
      <trkpt lat="41.07292" lon="20.51211">
        <ele>556.039763</ele>
        <time>2022-02-24T16:28:15.433Z</time>
      </trkpt>
      <trkpt lat="41.07325" lon="20.51172">
        <ele>555.577683</ele>
        <time>2022-02-24T16:28:27.438Z</time>
      </trkpt>
      <trkpt lat="41.07337" lon="20.51139">
        <ele>555.287682</ele>
        <time>2022-02-24T16:28:34.712Z</time>
      </trkpt>
      <trkpt lat="41.07341" lon="20.51101">
        <ele>554.983215</ele>
        <time>2022-02-24T16:28:42.107Z</time>
      </trkpt>
      <trkpt lat="41.07328" lon="20.51066">
        <ele>554.905527</ele>
        <time>2022-02-24T16:28:48.489Z</time>
      </trkpt>
      <trkpt lat="41.07305" lon="20.51038">
        <ele>554.856086</ele>
        <time>2022-02-24T16:28:55.766Z</time>
      </trkpt>
      <trkpt lat="41.07293" lon="20.51019">
        <ele>554.826896</ele>
        <time>2022-02-24T16:29:02.274Z</time>
      </trkpt>
      <trkpt lat="41.0729" lon="20.51011">
        <ele>554.816202</ele>
        <time>2022-02-24T16:29:03.686Z</time>
      </trkpt>
      <trkpt lat="41.07284" lon="20.50992">
        <ele>554.791887</ele>
        <time>2022-02-24T16:29:07.802Z</time>
      </trkpt>
      <trkpt lat="41.07282" lon="20.50977">
        <ele>554.774838</ele>
        <time>2022-02-24T16:29:12.295Z</time>
      </trkpt>
      <trkpt lat="41.07282" lon="20.50963">
        <ele>554.757243</ele>
        <time>2022-02-24T16:29:14.650Z</time>
      </trkpt>
      <trkpt lat="41.07291" lon="20.50921">
        <ele>554.706772</ele>
        <time>2022-02-24T16:29:25.004Z</time>
      </trkpt>
      <trkpt lat="41.07296" lon="20.50907">
        <ele>554.687357</ele>
        <time>2022-02-24T16:29:27.696Z</time>
      </trkpt>
      <trkpt lat="41.07314" lon="20.5087">
        <ele>554.479572</ele>
        <time>2022-02-24T16:29:36.738Z</time>
      </trkpt>
      <trkpt lat="41.07323" lon="20.50849">
        <ele>554.292136</ele>
        <time>2022-02-24T16:29:42.444Z</time>
      </trkpt>
      <trkpt lat="41.07337" lon="20.50814">
        <ele>553.991068</ele>
        <time>2022-02-24T16:29:48.579Z</time>
      </trkpt>
      <trkpt lat="41.07344" lon="20.50778">
        <ele>553.705469</ele>
        <time>2022-02-24T16:29:54.246Z</time>
      </trkpt>
      <trkpt lat="41.07341" lon="20.50736">
        <ele>553.384134</ele>
        <time>2022-02-24T16:30:01.802Z</time>
      </trkpt>
      <trkpt lat="41.07315" lon="20.5066">
        <ele>552.408043</ele>
        <time>2022-02-24T16:30:18.015Z</time>
      </trkpt>
      <trkpt lat="41.07308" lon="20.50616">
        <ele>550.71527</ele>
        <time>2022-02-24T16:30:25.234Z</time>
      </trkpt>
      <trkpt lat="41.07309" lon="20.50587">
        <ele>549.616918</ele>
        <time>2022-02-24T16:30:29.435Z</time>
      </trkpt>
      <trkpt lat="41.07324" lon="20.50516">
        <ele>546.843823</ele>
        <time>2022-02-24T16:30:39.434Z</time>
      </trkpt>
      <trkpt lat="41.07313" lon="20.5034">
        <ele>537.271196</ele>
        <time>2022-02-24T16:31:01.826Z</time>
      </trkpt>
      <trkpt lat="41.07323" lon="20.50263">
        <ele>532.001822</ele>
        <time>2022-02-24T16:31:11.461Z</time>
      </trkpt>
      <trkpt lat="41.07371" lon="20.50126">
        <ele>521.791215</ele>
        <time>2022-02-24T16:31:30.107Z</time>
      </trkpt>
      <trkpt lat="41.074" lon="20.50063">
        <ele>516.802529</ele>
        <time>2022-02-24T16:31:39.299Z</time>
      </trkpt>
      <trkpt lat="41.07418" lon="20.50023">
        <ele>513.663918</ele>
        <time>2022-02-24T16:31:45.168Z</time>
      </trkpt>
      <trkpt lat="41.07431" lon="20.49994">
        <ele>511.459921</ele>
        <time>2022-02-24T16:31:49.534Z</time>
      </trkpt>
      <trkpt lat="41.07434" lon="20.49987">
        <ele>511.126988</ele>
        <time>2022-02-24T16:31:50.484Z</time>
      </trkpt>
      <trkpt lat="41.07455" lon="20.49945">
        <ele>508.905895</ele>
        <time>2022-02-24T16:31:56.964Z</time>
      </trkpt>
      <trkpt lat="41.07483" lon="20.49869">
        <ele>505.179786</ele>
        <time>2022-02-24T16:32:08.178Z</time>
      </trkpt>
      <trkpt lat="41.07492" lon="20.49823">
        <ele>503.089315</ele>
        <time>2022-02-24T16:32:14.661Z</time>
      </trkpt>
      <trkpt lat="41.07489" lon="20.49692">
        <ele>498.472882</ele>
        <time>2022-02-24T16:32:33.484Z</time>
      </trkpt>
      <trkpt lat="41.075" lon="20.49587">
        <ele>495.2517</ele>
        <time>2022-02-24T16:32:48.508Z</time>
      </trkpt>
      <trkpt lat="41.0749" lon="20.49515">
        <ele>493.099264</ele>
        <time>2022-02-24T16:32:58.790Z</time>
      </trkpt>
      <trkpt lat="41.07445" lon="20.49412">
        <ele>489.847361</ele>
        <time>2022-02-24T16:33:15.564Z</time>
      </trkpt>
      <trkpt lat="41.07442" lon="20.49355">
        <ele>488.280967</ele>
        <time>2022-02-24T16:33:23.828Z</time>
      </trkpt>
      <trkpt lat="41.07507" lon="20.49055">
        <ele>482.206485</ele>
        <time>2022-02-24T16:34:12.324Z</time>
      </trkpt>
      <trkpt lat="41.07509" lon="20.49018">
        <ele>481.512055</ele>
        <time>2022-02-24T16:34:17.942Z</time>
      </trkpt>
      <trkpt lat="41.075" lon="20.48948">
        <ele>480.190847</ele>
        <time>2022-02-24T16:34:28.650Z</time>
      </trkpt>
      <trkpt lat="41.07511" lon="20.48899">
        <ele>479.224398</ele>
        <time>2022-02-24T16:34:36.424Z</time>
      </trkpt>
      <trkpt lat="41.07533" lon="20.48853">
        <ele>478.43047</ele>
        <time>2022-02-24T16:34:45.200Z</time>
      </trkpt>
      <trkpt lat="41.07541" lon="20.48834">
        <ele>478.367948</ele>
        <time>2022-02-24T16:34:48.610Z</time>
      </trkpt>
      <trkpt lat="41.07549" lon="20.48788">
        <ele>478.234973</ele>
        <time>2022-02-24T16:34:56.584Z</time>
      </trkpt>
      <trkpt lat="41.07546" lon="20.48748">
        <ele>478.119674</ele>
        <time>2022-02-24T16:35:04.198Z</time>
      </trkpt>
      <trkpt lat="41.07542" lon="20.48732">
        <ele>478.072214</ele>
        <time>2022-02-24T16:35:06.870Z</time>
      </trkpt>
      <trkpt lat="41.07533" lon="20.4871">
        <ele>478.001576</ele>
        <time>2022-02-24T16:35:12.651Z</time>
      </trkpt>
      <trkpt lat="41.07468" lon="20.48604">
        <ele>477.403746</ele>
        <time>2022-02-24T16:35:46.935Z</time>
      </trkpt>
      <trkpt lat="41.07464" lon="20.48578">
        <ele>477.242085</ele>
        <time>2022-02-24T16:35:51.910Z</time>
      </trkpt>
      <trkpt lat="41.07475" lon="20.48517">
        <ele>476.863134</ele>
        <time>2022-02-24T16:36:04.025Z</time>
      </trkpt>
      <trkpt lat="41.07487" lon="20.48459">
        <ele>476.494251</ele>
        <time>2022-02-24T16:36:13.782Z</time>
      </trkpt>
      <trkpt lat="41.0749" lon="20.4844">
        <ele>476.374388</ele>
        <time>2022-02-24T16:36:16.513Z</time>
      </trkpt>
      <trkpt lat="41.07489" lon="20.48397">
        <ele>474.878072</ele>
        <time>2022-02-24T16:36:22.848Z</time>
      </trkpt>
      <trkpt lat="41.07487" lon="20.48382">
        <ele>474.256811</ele>
        <time>2022-02-24T16:36:24.928Z</time>
      </trkpt>
      <trkpt lat="41.07472" lon="20.48294">
        <ele>470.655634</ele>
        <time>2022-02-24T16:36:37.242Z</time>
      </trkpt>
      <trkpt lat="41.07449" lon="20.48194">
        <ele>466.38851</ele>
        <time>2022-02-24T16:36:50.893Z</time>
      </trkpt>
      <trkpt lat="41.07448" lon="20.48157">
        <ele>464.558465</ele>
        <time>2022-02-24T16:36:55.581Z</time>
      </trkpt>
      <trkpt lat="41.07454" lon="20.48126">
        <ele>462.962295</ele>
        <time>2022-02-24T16:36:59.739Z</time>
      </trkpt>
      <trkpt lat="41.07465" lon="20.48078">
        <ele>460.460777</ele>
        <time>2022-02-24T16:37:06.326Z</time>
      </trkpt>
      <trkpt lat="41.07467" lon="20.48039">
        <ele>458.481818</ele>
        <time>2022-02-24T16:37:11.567Z</time>
      </trkpt>
      <trkpt lat="41.07458" lon="20.48017">
        <ele>457.27072</ele>
        <time>2022-02-24T16:37:14.780Z</time>
      </trkpt>
      <trkpt lat="41.0745" lon="20.48007">
        <ele>456.50731</ele>
        <time>2022-02-24T16:37:16.770Z</time>
      </trkpt>
      <trkpt lat="41.07432" lon="20.47987">
        <ele>454.95106</ele>
        <time>2022-02-24T16:37:20.863Z</time>
      </trkpt>
      <trkpt lat="41.07417" lon="20.47952">
        <ele>453.042147</ele>
        <time>2022-02-24T16:37:26.080Z</time>
      </trkpt>
      <trkpt lat="41.07385" lon="20.47784">
        <ele>444.779204</ele>
        <time>2022-02-24T16:37:48.629Z</time>
      </trkpt>
      <trkpt lat="41.07354" lon="20.47679">
        <ele>440.706311</ele>
        <time>2022-02-24T16:38:04.013Z</time>
      </trkpt>
      <trkpt lat="41.07354" lon="20.47623">
        <ele>438.872483</ele>
        <time>2022-02-24T16:38:11.793Z</time>
      </trkpt>
      <trkpt lat="41.07383" lon="20.47501">
        <ele>435.072281</ele>
        <time>2022-02-24T16:38:30.692Z</time>
      </trkpt>
      <trkpt lat="41.0739" lon="20.47482">
        <ele>434.638168</ele>
        <time>2022-02-24T16:38:33.755Z</time>
      </trkpt>
      <trkpt lat="41.07434" lon="20.47388">
        <ele>432.352591</ele>
        <time>2022-02-24T16:38:51.159Z</time>
      </trkpt>
      <trkpt lat="41.07446" lon="20.47361">
        <ele>431.700134</ele>
        <time>2022-02-24T16:38:55.645Z</time>
      </trkpt>
      <trkpt lat="41.07458" lon="20.47322">
        <ele>430.815969</ele>
        <time>2022-02-24T16:39:01.949Z</time>
      </trkpt>
      <trkpt lat="41.07461" lon="20.47292">
        <ele>430.117426</ele>
        <time>2022-02-24T16:39:06.602Z</time>
      </trkpt>
      <trkpt lat="41.07454" lon="20.47255">
        <ele>429.227674</ele>
        <time>2022-02-24T16:39:12.416Z</time>
      </trkpt>
      <trkpt lat="41.07438" lon="20.4722">
        <ele>428.250874</ele>
        <time>2022-02-24T16:39:18.641Z</time>
      </trkpt>
      <trkpt lat="41.07428" lon="20.47207">
        <ele>427.834847</ele>
        <time>2022-02-24T16:39:21.207Z</time>
      </trkpt>
      <trkpt lat="41.07423" lon="20.47201">
        <ele>427.618818</ele>
        <time>2022-02-24T16:39:22.434Z</time>
      </trkpt>
      <trkpt lat="41.07394" lon="20.47163">
        <ele>426.330976</ele>
        <time>2022-02-24T16:39:30.583Z</time>
      </trkpt>
      <trkpt lat="41.07374" lon="20.47128">
        <ele>425.331536</ele>
        <time>2022-02-24T16:39:36.804Z</time>
      </trkpt>
      <trkpt lat="41.07343" lon="20.47012">
        <ele>423.279972</ele>
        <time>2022-02-24T16:39:55.533Z</time>
      </trkpt>
      <trkpt lat="41.07316" lon="20.46946">
        <ele>422.076721</ele>
        <time>2022-02-24T16:40:07.821Z</time>
      </trkpt>
      <trkpt lat="41.0729" lon="20.46875">
        <ele>421.231742</ele>
        <time>2022-02-24T16:40:21.110Z</time>
      </trkpt>
      <trkpt lat="41.0728" lon="20.46844">
        <ele>421.127904</ele>
        <time>2022-02-24T16:40:26.730Z</time>
      </trkpt>
      <trkpt lat="41.07273" lon="20.4679">
        <ele>420.959099</ele>
        <time>2022-02-24T16:40:36.169Z</time>
      </trkpt>
      <trkpt lat="41.07279" lon="20.46736">
        <ele>420.793677</ele>
        <time>2022-02-24T16:40:46.907Z</time>
      </trkpt>
      <trkpt lat="41.07286" lon="20.46707">
        <ele>420.700621</ele>
        <time>2022-02-24T16:40:53.163Z</time>
      </trkpt>
      <trkpt lat="41.07305" lon="20.4662">
        <ele>421.693856</ele>
        <time>2022-02-24T16:41:15.467Z</time>
      </trkpt>
      <trkpt lat="41.07321" lon="20.46551">
        <ele>423.018456</ele>
        <time>2022-02-24T16:41:36.220Z</time>
      </trkpt>
      <trkpt lat="41.07332" lon="20.46503">
        <ele>423.953421</ele>
        <time>2022-02-24T16:41:51.730Z</time>
      </trkpt>
      <trkpt lat="41.07349" lon="20.46451">
        <ele>424.998784</ele>
        <time>2022-02-24T16:42:10.324Z</time>
      </trkpt>
      <trkpt lat="41.07381" lon="20.46394">
        <ele>426.331193</ele>
        <time>2022-02-24T16:42:34.757Z</time>
      </trkpt>
      <trkpt lat="41.07414" lon="20.46361">
        <ele>427.352597</ele>
        <time>2022-02-24T16:42:51.789Z</time>
      </trkpt>
      <trkpt lat="41.07462" lon="20.46331">
        <ele>428.670085</ele>
        <time>2022-02-24T16:43:11.649Z</time>
      </trkpt>
      <trkpt lat="41.07504" lon="20.46262">
        <ele>429.698131</ele>
        <time>2022-02-24T16:43:31.819Z</time>
      </trkpt>
      <trkpt lat="41.07566" lon="20.46197">
        <ele>430.19102</ele>
        <time>2022-02-24T16:43:54.929Z</time>
      </trkpt>
      <trkpt lat="41.07624" lon="20.4615">
        <ele>430.589871</ele>
        <time>2022-02-24T16:44:15.040Z</time>
      </trkpt>
      <trkpt lat="41.07657" lon="20.46129">
        <ele>430.186614</ele>
        <time>2022-02-24T16:44:26.377Z</time>
      </trkpt>
      <trkpt lat="41.07809" lon="20.46051">
        <ele>427.841045</ele>
        <time>2022-02-24T16:45:02.371Z</time>
      </trkpt>
      <trkpt lat="41.07836" lon="20.46032">
        <ele>426.755916</ele>
        <time>2022-02-24T16:45:08.121Z</time>
      </trkpt>
      <trkpt lat="41.0786" lon="20.46006">
        <ele>425.653355</ele>
        <time>2022-02-24T16:45:13.888Z</time>
      </trkpt>
      <trkpt lat="41.07904" lon="20.45947">
        <ele>423.447285</ele>
        <time>2022-02-24T16:45:25.306Z</time>
      </trkpt>
      <trkpt lat="41.08014" lon="20.45797">
        <ele>419.269442</ele>
        <time>2022-02-24T16:45:56.050Z</time>
      </trkpt>
      <trkpt lat="41.08059" lon="20.45737">
        <ele>417.920473</ele>
        <time>2022-02-24T16:46:12.410Z</time>
      </trkpt>
      <trkpt lat="41.08147" lon="20.45552">
        <ele>417.681887</ele>
        <time>2022-02-24T16:46:55.595Z</time>
      </trkpt>
      <trkpt lat="41.08184" lon="20.45514">
        <ele>417.727105</ele>
        <time>2022-02-24T16:47:08.073Z</time>
      </trkpt>
      <trkpt lat="41.08242" lon="20.45475">
        <ele>417.824152</ele>
        <time>2022-02-24T16:47:25.257Z</time>
      </trkpt>
      <trkpt lat="41.08253" lon="20.45466">
        <ele>417.843162</ele>
        <time>2022-02-24T16:47:28.840Z</time>
      </trkpt>
      <trkpt lat="41.08258" lon="20.45459">
        <ele>417.854602</ele>
        <time>2022-02-24T16:47:30.573Z</time>
      </trkpt>
      <trkpt lat="41.08262" lon="20.45452">
        <ele>417.863761</ele>
        <time>2022-02-24T16:47:32.225Z</time>
      </trkpt>
      <trkpt lat="41.08282" lon="20.4541">
        <ele>417.919796</ele>
        <time>2022-02-24T16:47:42.487Z</time>
      </trkpt>
      <trkpt lat="41.0832" lon="20.4529">
        <ele>419.73608</ele>
        <time>2022-02-24T16:48:14.428Z</time>
      </trkpt>
      <trkpt lat="41.08332" lon="20.45266">
        <ele>420.187422</ele>
        <time>2022-02-24T16:48:23.456Z</time>
      </trkpt>
      <trkpt lat="41.08334" lon="20.45262">
        <ele>420.266547</ele>
        <time>2022-02-24T16:48:24.967Z</time>
      </trkpt>
      <trkpt lat="41.08352" lon="20.45238">
        <ele>420.788156</ele>
        <time>2022-02-24T16:48:35.014Z</time>
      </trkpt>
      <trkpt lat="41.08385" lon="20.45217">
        <ele>421.565056</ele>
        <time>2022-02-24T16:48:50.699Z</time>
      </trkpt>
      <trkpt lat="41.08409" lon="20.45209">
        <ele>422.151526</ele>
        <time>2022-02-24T16:49:00.522Z</time>
      </trkpt>
      <trkpt lat="41.08426" lon="20.45204">
        <ele>422.621678</ele>
        <time>2022-02-24T16:49:08.867Z</time>
      </trkpt>
      <trkpt lat="41.08485" lon="20.45192">
        <ele>424.139198</ele>
        <time>2022-02-24T16:49:32.924Z</time>
      </trkpt>
      <trkpt lat="41.08661" lon="20.4512">
        <ele>427.819152</ele>
        <time>2022-02-24T16:50:39.484Z</time>
      </trkpt>
      <trkpt lat="41.08684" lon="20.45111">
        <ele>428.189837</ele>
        <time>2022-02-24T16:50:47.488Z</time>
      </trkpt>
      <trkpt lat="41.08705" lon="20.45099">
        <ele>428.541782</ele>
        <time>2022-02-24T16:50:54.916Z</time>
      </trkpt>
      <trkpt lat="41.08756" lon="20.45059">
        <ele>429.179264</ele>
        <time>2022-02-24T16:51:13.212Z</time>
      </trkpt>
      <trkpt lat="41.08794" lon="20.4501">
        <ele>429.455232</ele>
        <time>2022-02-24T16:51:28.144Z</time>
      </trkpt>
      <trkpt lat="41.08801" lon="20.44998">
        <ele>429.514711</ele>
        <time>2022-02-24T16:51:31.985Z</time>
      </trkpt>
      <trkpt lat="41.08816" lon="20.44971">
        <ele>429.643623</ele>
        <time>2022-02-24T16:51:39.237Z</time>
      </trkpt>
      <trkpt lat="41.08861" lon="20.4487">
        <ele>430.07692</ele>
        <time>2022-02-24T16:52:04.298Z</time>
      </trkpt>
      <trkpt lat="41.08892" lon="20.44763">
        <ele>430.432319</ele>
        <time>2022-02-24T16:52:27.229Z</time>
      </trkpt>
      <trkpt lat="41.08914" lon="20.44721">
        <ele>430.592242</ele>
        <time>2022-02-24T16:52:38.628Z</time>
      </trkpt>
      <trkpt lat="41.09015" lon="20.44611">
        <ele>431.718578</ele>
        <time>2022-02-24T16:53:20.524Z</time>
      </trkpt>
      <trkpt lat="41.091" lon="20.44545">
        <ele>432.217216</ele>
        <time>2022-02-24T16:53:52.319Z</time>
      </trkpt>
      <trkpt lat="41.09139" lon="20.44524">
        <ele>431.561283</ele>
        <time>2022-02-24T16:54:04.094Z</time>
      </trkpt>
      <trkpt lat="41.09185" lon="20.4452">
        <ele>430.83205</ele>
        <time>2022-02-24T16:54:13.947Z</time>
      </trkpt>
      <trkpt lat="41.09201" lon="20.44522">
        <ele>430.592424</ele>
        <time>2022-02-24T16:54:17.287Z</time>
      </trkpt>
      <trkpt lat="41.09247" lon="20.44528">
        <ele>429.865966</ele>
        <time>2022-02-24T16:54:26.598Z</time>
      </trkpt>
      <trkpt lat="41.09253" lon="20.44529">
        <ele>429.768242</ele>
        <time>2022-02-24T16:54:27.707Z</time>
      </trkpt>
      <trkpt lat="41.09284" lon="20.44531">
        <ele>428.148799</ele>
        <time>2022-02-24T16:54:33.554Z</time>
      </trkpt>
      <trkpt lat="41.093" lon="20.44529">
        <ele>427.162215</ele>
        <time>2022-02-24T16:54:36.461Z</time>
      </trkpt>
      <trkpt lat="41.09374" lon="20.445">
        <ele>422.569819</ele>
        <time>2022-02-24T16:54:50.084Z</time>
      </trkpt>
      <trkpt lat="41.09451" lon="20.44486">
        <ele>418.051602</ele>
        <time>2022-02-24T16:55:03.074Z</time>
      </trkpt>
      <trkpt lat="41.09555" lon="20.44407">
        <ele>411.521654</ele>
        <time>2022-02-24T16:55:24.136Z</time>
      </trkpt>
      <trkpt lat="41.09566" lon="20.444">
        <ele>410.869973</ele>
        <time>2022-02-24T16:55:26.161Z</time>
      </trkpt>
      <trkpt lat="41.09578" lon="20.44394">
        <ele>410.175729</ele>
        <time>2022-02-24T16:55:29.192Z</time>
      </trkpt>
      <trkpt lat="41.09627" lon="20.4439">
        <ele>409.132953</ele>
        <time>2022-02-24T16:55:39.781Z</time>
      </trkpt>
      <trkpt lat="41.09636" lon="20.44389">
        <ele>409.108106</ele>
        <time>2022-02-24T16:55:41.479Z</time>
      </trkpt>
      <trkpt lat="41.09649" lon="20.44384">
        <ele>409.070746</ele>
        <time>2022-02-24T16:55:47.176Z</time>
      </trkpt>
      <trkpt lat="41.0969" lon="20.44363">
        <ele>408.953089</ele>
        <time>2022-02-24T16:56:03.885Z</time>
      </trkpt>
      <trkpt lat="41.09715" lon="20.44359">
        <ele>408.887113</ele>
        <time>2022-02-24T16:56:10.012Z</time>
      </trkpt>
      <trkpt lat="41.09737" lon="20.44363">
        <ele>408.827162</ele>
        <time>2022-02-24T16:56:17.948Z</time>
      </trkpt>
      <trkpt lat="41.09768" lon="20.44381">
        <ele>408.734899</ele>
        <time>2022-02-24T16:56:28.223Z</time>
      </trkpt>
      <trkpt lat="41.09816" lon="20.44423">
        <ele>405.136482</ele>
        <time>2022-02-24T16:56:40.057Z</time>
      </trkpt>
      <trkpt lat="41.09841" lon="20.44436">
        <ele>403.494564</ele>
        <time>2022-02-24T16:56:44.498Z</time>
      </trkpt>
      <trkpt lat="41.09875" lon="20.44436">
        <ele>401.345394</ele>
        <time>2022-02-24T16:56:50.333Z</time>
      </trkpt>
      <trkpt lat="41.09894" lon="20.44428">
        <ele>400.088985</ele>
        <time>2022-02-24T16:56:53.872Z</time>
      </trkpt>
      <trkpt lat="41.09901" lon="20.44423">
        <ele>399.60664</ele>
        <time>2022-02-24T16:56:55.060Z</time>
      </trkpt>
      <trkpt lat="41.09907" lon="20.44418">
        <ele>399.124897</ele>
        <time>2022-02-24T16:56:56.329Z</time>
      </trkpt>
      <trkpt lat="41.09913" lon="20.44412">
        <ele>398.67556</ele>
        <time>2022-02-24T16:56:57.523Z</time>
      </trkpt>
      <trkpt lat="41.09919" lon="20.44403">
        <ele>398.08523</ele>
        <time>2022-02-24T16:56:59.143Z</time>
      </trkpt>
      <trkpt lat="41.09924" lon="20.44395">
        <ele>397.616192</ele>
        <time>2022-02-24T16:57:00.319Z</time>
      </trkpt>
      <trkpt lat="41.09929" lon="20.44383">
        <ele>396.744038</ele>
        <time>2022-02-24T16:57:01.959Z</time>
      </trkpt>
      <trkpt lat="41.09936" lon="20.4436">
        <ele>394.982692</ele>
        <time>2022-02-24T16:57:05.074Z</time>
      </trkpt>
      <trkpt lat="41.09938" lon="20.44331">
        <ele>392.99811</ele>
        <time>2022-02-24T16:57:08.414Z</time>
      </trkpt>
      <trkpt lat="41.09929" lon="20.44279">
        <ele>389.254821</ele>
        <time>2022-02-24T16:57:14.948Z</time>
      </trkpt>
      <trkpt lat="41.09924" lon="20.44269">
        <ele>388.440621</ele>
        <time>2022-02-24T16:57:16.430Z</time>
      </trkpt>
      <trkpt lat="41.09919" lon="20.44263">
        <ele>387.814367</ele>
        <time>2022-02-24T16:57:17.527Z</time>
      </trkpt>
      <trkpt lat="41.09913" lon="20.44254">
        <ele>386.957516</ele>
        <time>2022-02-24T16:57:18.996Z</time>
      </trkpt>
      <trkpt lat="41.09905" lon="20.44246">
        <ele>386.082337</ele>
        <time>2022-02-24T16:57:20.514Z</time>
      </trkpt>
      <trkpt lat="41.09838" lon="20.44186">
        <ele>380.228696</ele>
        <time>2022-02-24T16:57:34.784Z</time>
      </trkpt>
      <trkpt lat="41.09826" lon="20.44163">
        <ele>379.725024</ele>
        <time>2022-02-24T16:57:38.866Z</time>
      </trkpt>
      <trkpt lat="41.09823" lon="20.44145">
        <ele>379.400583</ele>
        <time>2022-02-24T16:57:41.433Z</time>
      </trkpt>
      <trkpt lat="41.09826" lon="20.441">
        <ele>378.58502</ele>
        <time>2022-02-24T16:57:48.490Z</time>
      </trkpt>
      <trkpt lat="41.09851" lon="20.4402">
        <ele>377.024123</ele>
        <time>2022-02-24T16:58:03.873Z</time>
      </trkpt>
      <trkpt lat="41.09879" lon="20.43938">
        <ele>377.00955</ele>
        <time>2022-02-24T16:58:22.658Z</time>
      </trkpt>
      <trkpt lat="41.09908" lon="20.43883">
        <ele>377.556729</ele>
        <time>2022-02-24T16:58:38.769Z</time>
      </trkpt>
      <trkpt lat="41.09958" lon="20.43834">
        <ele>378.235019</ele>
        <time>2022-02-24T16:59:00.689Z</time>
      </trkpt>
      <trkpt lat="41.09973" lon="20.43823">
        <ele>378.41915</ele>
        <time>2022-02-24T16:59:07.177Z</time>
      </trkpt>
      <trkpt lat="41.09995" lon="20.43811">
        <ele>378.621105</ele>
        <time>2022-02-24T16:59:15.412Z</time>
      </trkpt>
      <trkpt lat="41.1003" lon="20.43797">
        <ele>378.908239</ele>
        <time>2022-02-24T16:59:27.844Z</time>
      </trkpt>
      <trkpt lat="41.10106" lon="20.43779">
        <ele>379.524858</ele>
        <time>2022-02-24T16:59:52.871Z</time>
      </trkpt>
      <trkpt lat="41.10209" lon="20.43755">
        <ele>378.865726</ele>
        <time>2022-02-24T17:00:17.970Z</time>
      </trkpt>
      <trkpt lat="41.1026" lon="20.43731">
        <ele>377.912392</ele>
        <time>2022-02-24T17:00:29.167Z</time>
      </trkpt>
      <trkpt lat="41.10287" lon="20.43693">
        <ele>377.214094</ele>
        <time>2022-02-24T17:00:37.031Z</time>
      </trkpt>
      <trkpt lat="41.10296" lon="20.43671">
        <ele>376.883631</ele>
        <time>2022-02-24T17:00:40.810Z</time>
      </trkpt>
      <trkpt lat="41.10302" lon="20.43619">
        <ele>376.476469</ele>
        <time>2022-02-24T17:00:48.947Z</time>
      </trkpt>
      <trkpt lat="41.10292" lon="20.43508">
        <ele>375.814401</ele>
        <time>2022-02-24T17:01:07.821Z</time>
      </trkpt>
      <trkpt lat="41.10301" lon="20.43472">
        <ele>375.590723</ele>
        <time>2022-02-24T17:01:15.765Z</time>
      </trkpt>
      <trkpt lat="41.10322" lon="20.43442">
        <ele>375.346825</ele>
        <time>2022-02-24T17:01:25.432Z</time>
      </trkpt>
      <trkpt lat="41.1035" lon="20.43425">
        <ele>375.525797</ele>
        <time>2022-02-24T17:01:35.516Z</time>
      </trkpt>
      <trkpt lat="41.10368" lon="20.4342">
        <ele>375.694836</ele>
        <time>2022-02-24T17:01:41.735Z</time>
      </trkpt>
      <trkpt lat="41.10452" lon="20.43413">
        <ele>376.458153</ele>
        <time>2022-02-24T17:02:12.513Z</time>
      </trkpt>
      <trkpt lat="41.10596" lon="20.43378">
        <ele>374.692377</ele>
        <time>2022-02-24T17:02:47.587Z</time>
      </trkpt>
      <trkpt lat="41.10629" lon="20.43359">
        <ele>373.811774</ele>
        <time>2022-02-24T17:02:54.577Z</time>
      </trkpt>
      <trkpt lat="41.107" lon="20.43294">
        <ele>370.986389</ele>
        <time>2022-02-24T17:03:10.203Z</time>
      </trkpt>
      <trkpt lat="41.108" lon="20.43112">
        <ele>363.86593</ele>
        <time>2022-02-24T17:03:41.249Z</time>
      </trkpt>
      <trkpt lat="41.10829" lon="20.43008">
        <ele>361.988652</ele>
        <time>2022-02-24T17:03:58.337Z</time>
      </trkpt>
      <trkpt lat="41.1084" lon="20.4298">
        <ele>361.438948</ele>
        <time>2022-02-24T17:04:03.662Z</time>
      </trkpt>
      <trkpt lat="41.10917" lon="20.42835">
        <ele>360.230708</ele>
        <time>2022-02-24T17:04:37.014Z</time>
      </trkpt>
      <trkpt lat="41.10978" lon="20.42649">
        <ele>359.852434</ele>
        <time>2022-02-24T17:05:18.573Z</time>
      </trkpt>
      <trkpt lat="41.11077" lon="20.42452">
        <ele>358.81337</ele>
        <time>2022-02-24T17:06:02.313Z</time>
      </trkpt>
      <trkpt lat="41.11102" lon="20.42367">
        <ele>358.038605</ele>
        <time>2022-02-24T17:06:17.459Z</time>
      </trkpt>
      <trkpt lat="41.11112" lon="20.4229">
        <ele>357.396443</ele>
        <time>2022-02-24T17:06:30.480Z</time>
      </trkpt>
      <trkpt lat="41.1113" lon="20.42244">
        <ele>357.12569</ele>
        <time>2022-02-24T17:06:39.073Z</time>
      </trkpt>
      <trkpt lat="41.11161" lon="20.42209">
        <ele>356.838345</ele>
        <time>2022-02-24T17:06:48.399Z</time>
      </trkpt>
      <trkpt lat="41.11185" lon="20.42191">
        <ele>356.646702</ele>
        <time>2022-02-24T17:06:54.836Z</time>
      </trkpt>
      <trkpt lat="41.11361" lon="20.42075">
        <ele>356.668044</ele>
        <time>2022-02-24T17:07:48.704Z</time>
      </trkpt>
      <trkpt lat="41.11422" lon="20.42035">
        <ele>356.869933</ele>
        <time>2022-02-24T17:08:10.463Z</time>
      </trkpt>
      <trkpt lat="41.11448" lon="20.42017">
        <ele>356.897838</ele>
        <time>2022-02-24T17:08:19.623Z</time>
      </trkpt>
      <trkpt lat="41.11518" lon="20.4196">
        <ele>356.976972</ele>
        <time>2022-02-24T17:08:41.472Z</time>
      </trkpt>
      <trkpt lat="41.11526" lon="20.41952">
        <ele>356.986341</ele>
        <time>2022-02-24T17:08:44.767Z</time>
      </trkpt>
      <trkpt lat="41.11609" lon="20.41873">
        <ele>356.344372</ele>
        <time>2022-02-24T17:09:08.606Z</time>
      </trkpt>
      <trkpt lat="41.11627" lon="20.41851">
        <ele>356.074574</ele>
        <time>2022-02-24T17:09:13.931Z</time>
      </trkpt>
      <trkpt lat="41.11641" lon="20.41824">
        <ele>355.802445</ele>
        <time>2022-02-24T17:09:19.596Z</time>
      </trkpt>
      <trkpt lat="41.11683" lon="20.41682">
        <ele>354.726069</ele>
        <time>2022-02-24T17:09:45.327Z</time>
      </trkpt>
      <trkpt lat="41.11709" lon="20.41633">
        <ele>354.411663</ele>
        <time>2022-02-24T17:09:56.578Z</time>
      </trkpt>
      <trkpt lat="41.11734" lon="20.41596">
        <ele>354.153464</ele>
        <time>2022-02-24T17:10:05.965Z</time>
      </trkpt>
      <trkpt lat="41.11837" lon="20.41504">
        <ele>353.08712</ele>
        <time>2022-02-24T17:10:36.429Z</time>
      </trkpt>
      <trkpt lat="41.11856" lon="20.41475">
        <ele>352.804773</ele>
        <time>2022-02-24T17:10:43.316Z</time>
      </trkpt>
      <trkpt lat="41.11873" lon="20.4144">
        <ele>352.500751</ele>
        <time>2022-02-24T17:10:50.433Z</time>
      </trkpt>
      <trkpt lat="41.11894" lon="20.41381">
        <ele>352.002005</ele>
        <time>2022-02-24T17:11:01.493Z</time>
      </trkpt>
      <trkpt lat="41.11911" lon="20.41354">
        <ele>351.595475</ele>
        <time>2022-02-24T17:11:07.118Z</time>
      </trkpt>
      <trkpt lat="41.11929" lon="20.41335">
        <ele>351.232396</ele>
        <time>2022-02-24T17:11:12.054Z</time>
      </trkpt>
      <trkpt lat="41.11952" lon="20.41322">
        <ele>350.839791</ele>
        <time>2022-02-24T17:11:17.371Z</time>
      </trkpt>
      <trkpt lat="41.12005" lon="20.41319">
        <ele>350.01303</ele>
        <time>2022-02-24T17:11:28.742Z</time>
      </trkpt>
      <trkpt lat="41.12029" lon="20.41309">
        <ele>349.614693</ele>
        <time>2022-02-24T17:11:34.289Z</time>
      </trkpt>
      <trkpt lat="41.1205" lon="20.41291">
        <ele>349.22397</ele>
        <time>2022-02-24T17:11:39.735Z</time>
      </trkpt>
      <trkpt lat="41.12067" lon="20.41267">
        <ele>349.142681</ele>
        <time>2022-02-24T17:11:45.222Z</time>
      </trkpt>
      <trkpt lat="41.12114" lon="20.41119">
        <ele>348.747313</ele>
        <time>2022-02-24T17:12:14.901Z</time>
      </trkpt>
      <trkpt lat="41.12133" lon="20.41088">
        <ele>348.650312</ele>
        <time>2022-02-24T17:12:24.215Z</time>
      </trkpt>
      <trkpt lat="41.12151" lon="20.41072">
        <ele>348.924393</ele>
        <time>2022-02-24T17:12:31.647Z</time>
      </trkpt>
      <trkpt lat="41.12176" lon="20.41062">
        <ele>349.343773</ele>
        <time>2022-02-24T17:12:40.703Z</time>
      </trkpt>
      <trkpt lat="41.12264" lon="20.41078">
        <ele>350.742419</ele>
        <time>2022-02-24T17:13:12.207Z</time>
      </trkpt>
      <trkpt lat="41.12289" lon="20.41075">
        <ele>351.144541</ele>
        <time>2022-02-24T17:13:21.449Z</time>
      </trkpt>
      <trkpt lat="41.12383" lon="20.41018">
        <ele>352.155029</ele>
        <time>2022-02-24T17:13:56.594Z</time>
      </trkpt>
      <trkpt lat="41.12398" lon="20.41001">
        <ele>352.323337</ele>
        <time>2022-02-24T17:14:02.324Z</time>
      </trkpt>
      <trkpt lat="41.1241" lon="20.40981">
        <ele>352.47544</ele>
        <time>2022-02-24T17:14:08.673Z</time>
      </trkpt>
      <trkpt lat="41.12457" lon="20.40912">
        <ele>352.778285</ele>
        <time>2022-02-24T17:14:27.329Z</time>
      </trkpt>
      <trkpt lat="41.12537" lon="20.40863">
        <ele>351.178361</ele>
        <time>2022-02-24T17:14:47.543Z</time>
      </trkpt>
      <trkpt lat="41.12646" lon="20.40712">
        <ele>346.872877</ele>
        <time>2022-02-24T17:15:18.542Z</time>
      </trkpt>
      <trkpt lat="41.1266" lon="20.40681">
        <ele>345.838</ele>
        <time>2022-02-24T17:15:23.664Z</time>
      </trkpt>
      <trkpt lat="41.12671" lon="20.406">
        <ele>343.534979</ele>
        <time>2022-02-24T17:15:35.065Z</time>
      </trkpt>
      <trkpt lat="41.12683" lon="20.40549">
        <ele>342.360273</ele>
        <time>2022-02-24T17:15:42.585Z</time>
      </trkpt>
      <trkpt lat="41.12728" lon="20.40413">
        <ele>339.615156</ele>
        <time>2022-02-24T17:16:04.877Z</time>
      </trkpt>
      <trkpt lat="41.1273" lon="20.40381">
        <ele>339.027418</ele>
        <time>2022-02-24T17:16:10.492Z</time>
      </trkpt>
      <trkpt lat="41.12725" lon="20.40312">
        <ele>338.968015</ele>
        <time>2022-02-24T17:16:24.075Z</time>
      </trkpt>
      <trkpt lat="41.1273" lon="20.40267">
        <ele>339.353818</ele>
        <time>2022-02-24T17:16:34.337Z</time>
      </trkpt>
      <trkpt lat="41.12745" lon="20.40236">
        <ele>339.670938</ele>
        <time>2022-02-24T17:16:43.602Z</time>
      </trkpt>
      <trkpt lat="41.12769" lon="20.40203">
        <ele>340.070258</ele>
        <time>2022-02-24T17:16:56.062Z</time>
      </trkpt>
      <trkpt lat="41.12861" lon="20.40158">
        <ele>341.340094</ele>
        <time>2022-02-24T17:17:33.297Z</time>
      </trkpt>
      <trkpt lat="41.12989" lon="20.40077">
        <ele>343.21782</ele>
        <time>2022-02-24T17:18:21.021Z</time>
      </trkpt>
      <trkpt lat="41.13212" lon="20.39987">
        <ele>341.443428</ele>
        <time>2022-02-24T17:19:16.182Z</time>
      </trkpt>
      <trkpt lat="41.13315" lon="20.39846">
        <ele>339.018013</ele>
        <time>2022-02-24T17:19:47.089Z</time>
      </trkpt>
      <trkpt lat="41.13351" lon="20.39722">
        <ele>337.22276</ele>
        <time>2022-02-24T17:20:08.534Z</time>
      </trkpt>
      <trkpt lat="41.1337" lon="20.39689">
        <ele>336.661546</ele>
        <time>2022-02-24T17:20:15.489Z</time>
      </trkpt>
      <trkpt lat="41.13397" lon="20.39668">
        <ele>335.964374</ele>
        <time>2022-02-24T17:20:22.539Z</time>
      </trkpt>
      <trkpt lat="41.1347" lon="20.39653">
        <ele>333.956758</ele>
        <time>2022-02-24T17:20:38.815Z</time>
      </trkpt>
      <trkpt lat="41.13484" lon="20.39643">
        <ele>333.537093</ele>
        <time>2022-02-24T17:20:41.717Z</time>
      </trkpt>
      <trkpt lat="41.13573" lon="20.39528">
        <ele>329.864333</ele>
        <time>2022-02-24T17:21:05.291Z</time>
      </trkpt>
      <trkpt lat="41.13581" lon="20.39516">
        <ele>329.441665</ele>
        <time>2022-02-24T17:21:07.497Z</time>
      </trkpt>
      <trkpt lat="41.13597" lon="20.39487">
        <ele>328.527257</ele>
        <time>2022-02-24T17:21:12.803Z</time>
      </trkpt>
      <trkpt lat="41.13619" lon="20.3941">
        <ele>326.452384</ele>
        <time>2022-02-24T17:21:24.596Z</time>
      </trkpt>
      <trkpt lat="41.13677" lon="20.39084">
        <ele>320.974949</ele>
        <time>2022-02-24T17:22:18.593Z</time>
      </trkpt>
      <trkpt lat="41.13726" lon="20.38892">
        <ele>317.447756</ele>
        <time>2022-02-24T17:22:49.947Z</time>
      </trkpt>
      <trkpt lat="41.13731" lon="20.38787">
        <ele>315.329731</ele>
        <time>2022-02-24T17:23:05.576Z</time>
      </trkpt>
      <trkpt lat="41.13732" lon="20.38774">
        <ele>315.056287</ele>
        <time>2022-02-24T17:23:07.513Z</time>
      </trkpt>
      <trkpt lat="41.13738" lon="20.38706">
        <ele>313.672933</ele>
        <time>2022-02-24T17:23:18.089Z</time>
      </trkpt>
      <trkpt lat="41.13738" lon="20.38688">
        <ele>313.322539</ele>
        <time>2022-02-24T17:23:20.715Z</time>
      </trkpt>
      <trkpt lat="41.1373" lon="20.38649">
        <ele>312.642272</ele>
        <time>2022-02-24T17:23:27.203Z</time>
      </trkpt>
      <trkpt lat="41.13688" lon="20.38572">
        <ele>311.230566</ele>
        <time>2022-02-24T17:23:42.412Z</time>
      </trkpt>
      <trkpt lat="41.13681" lon="20.38561">
        <ele>311.027653</ele>
        <time>2022-02-24T17:23:44.618Z</time>
      </trkpt>
      <trkpt lat="41.13674" lon="20.38557">
        <ele>310.872985</ele>
        <time>2022-02-24T17:23:46.293Z</time>
      </trkpt>
      <trkpt lat="41.13587" lon="20.38514">
        <ele>309.295935</ele>
        <time>2022-02-24T17:24:05.992Z</time>
      </trkpt>
      <trkpt lat="41.13562" lon="20.38487">
        <ele>309.002666</ele>
        <time>2022-02-24T17:24:13.044Z</time>
      </trkpt>
      <trkpt lat="41.13554" lon="20.38475">
        <ele>308.890518</ele>
        <time>2022-02-24T17:24:15.655Z</time>
      </trkpt>
      <trkpt lat="41.13549" lon="20.38466">
        <ele>308.814016</ele>
        <time>2022-02-24T17:24:17.631Z</time>
      </trkpt>
      <trkpt lat="41.13544" lon="20.38456">
        <ele>308.731742</ele>
        <time>2022-02-24T17:24:19.775Z</time>
      </trkpt>
      <trkpt lat="41.1354" lon="20.38444">
        <ele>308.645748</ele>
        <time>2022-02-24T17:24:21.758Z</time>
      </trkpt>
      <trkpt lat="41.13534" lon="20.38413">
        <ele>308.423682</ele>
        <time>2022-02-24T17:24:27.802Z</time>
      </trkpt>
      <trkpt lat="41.13538" lon="20.38358">
        <ele>308.046185</ele>
        <time>2022-02-24T17:24:38.151Z</time>
      </trkpt>
      <trkpt lat="41.13541" lon="20.38344">
        <ele>307.946437</ele>
        <time>2022-02-24T17:24:40.647Z</time>
      </trkpt>
      <trkpt lat="41.13567" lon="20.38249">
        <ele>309.676827</ele>
        <time>2022-02-24T17:25:04.051Z</time>
      </trkpt>
      <trkpt lat="41.13583" lon="20.38217">
        <ele>310.449887</ele>
        <time>2022-02-24T17:25:15.913Z</time>
      </trkpt>
      <trkpt lat="41.13603" lon="20.38196">
        <ele>311.112545</ele>
        <time>2022-02-24T17:25:27.126Z</time>
      </trkpt>
      <trkpt lat="41.13637" lon="20.38179">
        <ele>312.081251</ele>
        <time>2022-02-24T17:25:44.208Z</time>
      </trkpt>
      <trkpt lat="41.13663" lon="20.38178">
        <ele>312.862642</ele>
        <time>2022-02-24T17:25:57.200Z</time>
      </trkpt>
      <trkpt lat="41.13706" lon="20.38197">
        <ele>314.999373</ele>
        <time>2022-02-24T17:26:21.174Z</time>
      </trkpt>
      <trkpt lat="41.13835" lon="20.3831">
        <ele>321.675275</ele>
        <time>2022-02-24T17:27:36.437Z</time>
      </trkpt>
      <trkpt lat="41.13847" lon="20.38321">
        <ele>322.071102</ele>
        <time>2022-02-24T17:27:43.847Z</time>
      </trkpt>
      <trkpt lat="41.13859" lon="20.38328">
        <ele>322.406703</ele>
        <time>2022-02-24T17:27:49.230Z</time>
      </trkpt>
      <trkpt lat="41.13898" lon="20.38344">
        <ele>323.506524</ele>
        <time>2022-02-24T17:28:06.480Z</time>
      </trkpt>
      <trkpt lat="41.13913" lon="20.38348">
        <ele>323.93641</ele>
        <time>2022-02-24T17:28:15.529Z</time>
      </trkpt>
      <trkpt lat="41.13918" lon="20.38343">
        <ele>324.093393</ele>
        <time>2022-02-24T17:28:17.335Z</time>
      </trkpt>
      <trkpt lat="41.13967" lon="20.38348">
        <ele>325.399095</ele>
        <time>2022-02-24T17:28:38.672Z</time>
      </trkpt>
      <trkpt lat="41.13972" lon="20.38349">
        <ele>325.541898</ele>
        <time>2022-02-24T17:28:40.096Z</time>
      </trkpt>
      <trkpt lat="41.13987" lon="20.38353">
        <ele>325.63284</ele>
        <time>2022-02-24T17:28:45.176Z</time>
      </trkpt>
      <trkpt lat="41.14003" lon="20.38357">
        <ele>325.057654</ele>
        <time>2022-02-24T17:28:50.353Z</time>
      </trkpt>
      <trkpt lat="41.14038" lon="20.38372">
        <ele>323.80529</ele>
        <time>2022-02-24T17:29:00.496Z</time>
      </trkpt>
      <trkpt lat="41.14042" lon="20.3838">
        <ele>323.5432</ele>
        <time>2022-02-24T17:29:02.701Z</time>
      </trkpt>
      <trkpt lat="41.14049" lon="20.38381">
        <ele>323.306187</ele>
        <time>2022-02-24T17:29:03.980Z</time>
      </trkpt>
      <trkpt lat="41.14066" lon="20.38384">
        <ele>322.698402</ele>
        <time>2022-02-24T17:29:07.474Z</time>
      </trkpt>
      <trkpt lat="41.14082" lon="20.38386">
        <ele>322.147402</ele>
        <time>2022-02-24T17:29:10.448Z</time>
      </trkpt>
      <trkpt lat="41.14122" lon="20.38379">
        <ele>320.754719</ele>
        <time>2022-02-24T17:29:17.669Z</time>
      </trkpt>
      <trkpt lat="41.14145" lon="20.38364">
        <ele>319.863722</ele>
        <time>2022-02-24T17:29:22.262Z</time>
      </trkpt>
      <trkpt lat="41.14177" lon="20.38327">
        <ele>317.687766</ele>
        <time>2022-02-24T17:29:29.696Z</time>
      </trkpt>
      <trkpt lat="41.14198" lon="20.38283">
        <ele>315.555457</ele>
        <time>2022-02-24T17:29:36.213Z</time>
      </trkpt>
      <trkpt lat="41.1421" lon="20.38259">
        <ele>314.360403</ele>
        <time>2022-02-24T17:29:39.850Z</time>
      </trkpt>
      <trkpt lat="41.14224" lon="20.38231">
        <ele>312.978165</ele>
        <time>2022-02-24T17:29:44.251Z</time>
      </trkpt>
      <trkpt lat="41.14371" lon="20.37986">
        <ele>306.437162</ele>
        <time>2022-02-24T17:30:32.883Z</time>
      </trkpt>
      <trkpt lat="41.14445" lon="20.37881">
        <ele>307.392406</ele>
        <time>2022-02-24T17:31:10.049Z</time>
      </trkpt>
      <trkpt lat="41.14509" lon="20.37816">
        <ele>308.122387</ele>
        <time>2022-02-24T17:31:37.177Z</time>
      </trkpt>
      <trkpt lat="41.14532" lon="20.378">
        <ele>308.04407</ele>
        <time>2022-02-24T17:31:45.612Z</time>
      </trkpt>
      <trkpt lat="41.14552" lon="20.37786">
        <ele>307.976909</ele>
        <time>2022-02-24T17:31:52.111Z</time>
      </trkpt>
      <trkpt lat="41.14771" lon="20.37652">
        <ele>306.288329</ele>
        <time>2022-02-24T17:32:48.206Z</time>
      </trkpt>
      <trkpt lat="41.14791" lon="20.37639">
        <ele>306.036518</ele>
        <time>2022-02-24T17:32:52.895Z</time>
      </trkpt>
      <trkpt lat="41.14816" lon="20.37617">
        <ele>305.693146</ele>
        <time>2022-02-24T17:32:59.499Z</time>
      </trkpt>
      <trkpt lat="41.14875" lon="20.37562">
        <ele>305.225329</ele>
        <time>2022-02-24T17:33:16.111Z</time>
      </trkpt>
      <trkpt lat="41.14929" lon="20.37512">
        <ele>304.858528</ele>
        <time>2022-02-24T17:33:32.419Z</time>
      </trkpt>
      <trkpt lat="41.14959" lon="20.37484">
        <ele>304.652574</ele>
        <time>2022-02-24T17:33:42.418Z</time>
      </trkpt>
      <trkpt lat="41.14996" lon="20.37468">
        <ele>304.326017</ele>
        <time>2022-02-24T17:33:52.950Z</time>
      </trkpt>
      <trkpt lat="41.15067" lon="20.37454">
        <ele>303.553305</ele>
        <time>2022-02-24T17:34:11.319Z</time>
      </trkpt>
      <trkpt lat="41.15133" lon="20.37423">
        <ele>302.79314</ele>
        <time>2022-02-24T17:34:26.907Z</time>
      </trkpt>
      <trkpt lat="41.15173" lon="20.37393">
        <ele>301.369773</ele>
        <time>2022-02-24T17:34:36.060Z</time>
      </trkpt>
      <trkpt lat="41.15216" lon="20.37343">
        <ele>298.971625</ele>
        <time>2022-02-24T17:34:46.829Z</time>
      </trkpt>
      <trkpt lat="41.1526" lon="20.37266">
        <ele>295.896234</ele>
        <time>2022-02-24T17:34:59.956Z</time>
      </trkpt>
      <trkpt lat="41.15299" lon="20.37165">
        <ele>292.604145</ele>
        <time>2022-02-24T17:35:15.312Z</time>
      </trkpt>
      <trkpt lat="41.15312" lon="20.37111">
        <ele>290.989748</ele>
        <time>2022-02-24T17:35:23.401Z</time>
      </trkpt>
      <trkpt lat="41.15315" lon="20.37099">
        <ele>290.64633</ele>
        <time>2022-02-24T17:35:25.195Z</time>
      </trkpt>
      <trkpt lat="41.15321" lon="20.37079">
        <ele>290.04601</ele>
        <time>2022-02-24T17:35:28.406Z</time>
      </trkpt>
      <trkpt lat="41.15322" lon="20.37073">
        <ele>289.863905</ele>
        <time>2022-02-24T17:35:29.383Z</time>
      </trkpt>
      <trkpt lat="41.1534" lon="20.37042">
        <ele>288.764835</ele>
        <time>2022-02-24T17:35:35.355Z</time>
      </trkpt>
      <trkpt lat="41.15357" lon="20.37011">
        <ele>288.182381</ele>
        <time>2022-02-24T17:35:41.528Z</time>
      </trkpt>
      <trkpt lat="41.15364" lon="20.36992">
        <ele>288.086391</ele>
        <time>2022-02-24T17:35:45.000Z</time>
      </trkpt>
      <trkpt lat="41.15371" lon="20.3696">
        <ele>287.930716</ele>
        <time>2022-02-24T17:35:50.736Z</time>
      </trkpt>
      <trkpt lat="41.1537" lon="20.36924">
        <ele>287.765292</ele>
        <time>2022-02-24T17:35:57.495Z</time>
      </trkpt>
      <trkpt lat="41.15314" lon="20.36768">
        <ele>287.033277</ele>
        <time>2022-02-24T17:36:33.131Z</time>
      </trkpt>
      <trkpt lat="41.15263" lon="20.36523">
        <ele>286.188655</ele>
        <time>2022-02-24T17:37:19.649Z</time>
      </trkpt>
      <trkpt lat="41.15261" lon="20.36507">
        <ele>286.129639</ele>
        <time>2022-02-24T17:37:22.490Z</time>
      </trkpt>
      <trkpt lat="41.15261" lon="20.36487">
        <ele>286.057125</ele>
        <time>2022-02-24T17:37:26.734Z</time>
      </trkpt>
      <trkpt lat="41.15268" lon="20.36444">
        <ele>285.893952</ele>
        <time>2022-02-24T17:37:35.247Z</time>
      </trkpt>
      <trkpt lat="41.15279" lon="20.36417">
        <ele>285.782273</ele>
        <time>2022-02-24T17:37:40.776Z</time>
      </trkpt>
      <trkpt lat="41.15305" lon="20.36376">
        <ele>285.585839</ele>
        <time>2022-02-24T17:37:50.837Z</time>
      </trkpt>
      <trkpt lat="41.15341" lon="20.3634">
        <ele>285.15662</ele>
        <time>2022-02-24T17:38:02.094Z</time>
      </trkpt>
      <trkpt lat="41.15418" lon="20.3626">
        <ele>284.104429</ele>
        <time>2022-02-24T17:38:24.839Z</time>
      </trkpt>
      <trkpt lat="41.15461" lon="20.36198">
        <ele>283.331228</ele>
        <time>2022-02-24T17:38:38.578Z</time>
      </trkpt>
      <trkpt lat="41.155" lon="20.36109">
        <ele>282.113021</ele>
        <time>2022-02-24T17:38:54.799Z</time>
      </trkpt>
      <trkpt lat="41.15512" lon="20.36055">
        <ele>281.441266</ele>
        <time>2022-02-24T17:39:03.779Z</time>
      </trkpt>
      <trkpt lat="41.1552" lon="20.3598">
        <ele>280.939227</ele>
        <time>2022-02-24T17:39:17.039Z</time>
      </trkpt>
      <trkpt lat="41.15539" lon="20.35921">
        <ele>281.577328</ele>
        <time>2022-02-24T17:39:30.122Z</time>
      </trkpt>
      <trkpt lat="41.15554" lon="20.35902">
        <ele>281.847907</ele>
        <time>2022-02-24T17:39:36.428Z</time>
      </trkpt>
      <trkpt lat="41.15569" lon="20.35886">
        <ele>282.099199</ele>
        <time>2022-02-24T17:39:42.534Z</time>
      </trkpt>
      <trkpt lat="41.15576" lon="20.3588">
        <ele>282.213683</ele>
        <time>2022-02-24T17:39:45.434Z</time>
      </trkpt>
      <trkpt lat="41.15585" lon="20.35873">
        <ele>282.344703</ele>
        <time>2022-02-24T17:39:49.197Z</time>
      </trkpt>
      <trkpt lat="41.15601" lon="20.35861">
        <ele>282.59421</ele>
        <time>2022-02-24T17:39:55.800Z</time>
      </trkpt>
      <trkpt lat="41.15605" lon="20.35859">
        <ele>282.642135</ele>
        <time>2022-02-24T17:39:57.042Z</time>
      </trkpt>
      <trkpt lat="41.15619" lon="20.3585">
        <ele>282.846311</ele>
        <time>2022-02-24T17:40:03.280Z</time>
      </trkpt>
      <trkpt lat="41.15644" lon="20.3584">
        <ele>283.369694</ele>
        <time>2022-02-24T17:40:13.723Z</time>
      </trkpt>
      <trkpt lat="41.15772" lon="20.35798">
        <ele>290.061321</ele>
        <time>2022-02-24T17:41:21.873Z</time>
      </trkpt>
      <trkpt lat="41.15822" lon="20.35782">
        <ele>292.721387</ele>
        <time>2022-02-24T17:41:50.823Z</time>
      </trkpt>
      <trkpt lat="41.15999" lon="20.3577">
        <ele>302.996105</ele>
        <time>2022-02-24T17:43:30.177Z</time>
      </trkpt>
      <trkpt lat="41.16026" lon="20.35762">
        <ele>303.826913</ele>
        <time>2022-02-24T17:43:43.444Z</time>
      </trkpt>
      <trkpt lat="41.16061" lon="20.35743">
        <ele>304.971723</ele>
        <time>2022-02-24T17:44:00.581Z</time>
      </trkpt>
      <trkpt lat="41.16176" lon="20.35651">
        <ele>307.654459</ele>
        <time>2022-02-24T17:44:50.412Z</time>
      </trkpt>
      <trkpt lat="41.1619" lon="20.35642">
        <ele>307.294958</ele>
        <time>2022-02-24T17:44:54.122Z</time>
      </trkpt>
      <trkpt lat="41.16197" lon="20.35646">
        <ele>307.115528</ele>
        <time>2022-02-24T17:44:56.278Z</time>
      </trkpt>
      <trkpt lat="41.16208" lon="20.35647">
        <ele>306.848589</ele>
        <time>2022-02-24T17:44:58.586Z</time>
      </trkpt>
      <trkpt lat="41.16212" lon="20.35646">
        <ele>306.752031</ele>
        <time>2022-02-24T17:45:00.867Z</time>
      </trkpt>
      <trkpt lat="41.16246" lon="20.35619">
        <ele>305.822457</ele>
        <time>2022-02-24T17:45:09.571Z</time>
      </trkpt>
      <trkpt lat="41.16253" lon="20.35609">
        <ele>305.582497</ele>
        <time>2022-02-24T17:45:11.747Z</time>
      </trkpt>
      <trkpt lat="41.16258" lon="20.35594">
        <ele>305.300371</ele>
        <time>2022-02-24T17:45:14.137Z</time>
      </trkpt>
      <trkpt lat="41.163" lon="20.35564">
        <ele>304.193422</ele>
        <time>2022-02-24T17:45:22.902Z</time>
      </trkpt>
      <trkpt lat="41.16338" lon="20.35529">
        <ele>300.973932</ele>
        <time>2022-02-24T17:45:30.913Z</time>
      </trkpt>
      <trkpt lat="41.1635" lon="20.35511">
        <ele>299.560218</ele>
        <time>2022-02-24T17:45:33.951Z</time>
      </trkpt>
      <trkpt lat="41.16367" lon="20.3547">
        <ele>296.890559</ele>
        <time>2022-02-24T17:45:39.797Z</time>
      </trkpt>
      <trkpt lat="41.16376" lon="20.35424">
        <ele>294.192901</ele>
        <time>2022-02-24T17:45:45.783Z</time>
      </trkpt>
      <trkpt lat="41.16381" lon="20.35393">
        <ele>292.368201</ele>
        <time>2022-02-24T17:45:49.816Z</time>
      </trkpt>
      <trkpt lat="41.16395" lon="20.35351">
        <ele>289.779291</ele>
        <time>2022-02-24T17:45:55.669Z</time>
      </trkpt>
      <trkpt lat="41.16422" lon="20.353">
        <ele>286.52025</ele>
        <time>2022-02-24T17:46:03.594Z</time>
      </trkpt>
      <trkpt lat="41.16428" lon="20.35269">
        <ele>284.868904</ele>
        <time>2022-02-24T17:46:07.577Z</time>
      </trkpt>
      <trkpt lat="41.16426" lon="20.35236">
        <ele>283.133837</ele>
        <time>2022-02-24T17:46:11.843Z</time>
      </trkpt>
      <trkpt lat="41.16408" lon="20.35142">
        <ele>278.046191</ele>
        <time>2022-02-24T17:46:24.701Z</time>
      </trkpt>
      <trkpt lat="41.16417" lon="20.35051">
        <ele>275.243511</ele>
        <time>2022-02-24T17:46:37.160Z</time>
      </trkpt>
      <trkpt lat="41.16422" lon="20.35004">
        <ele>273.849544</ele>
        <time>2022-02-24T17:46:43.866Z</time>
      </trkpt>
      <trkpt lat="41.16424" lon="20.34983">
        <ele>273.224466</ele>
        <time>2022-02-24T17:46:47.014Z</time>
      </trkpt>
      <trkpt lat="41.16422" lon="20.34935">
        <ele>271.830305</ele>
        <time>2022-02-24T17:46:54.122Z</time>
      </trkpt>
      <trkpt lat="41.16418" lon="20.34899">
        <ele>270.809109</ele>
        <time>2022-02-24T17:46:59.796Z</time>
      </trkpt>
      <trkpt lat="41.16417" lon="20.34891">
        <ele>270.790165</ele>
        <time>2022-02-24T17:47:01.250Z</time>
      </trkpt>
      <trkpt lat="41.16421" lon="20.34866">
        <ele>270.722745</ele>
        <time>2022-02-24T17:47:05.444Z</time>
      </trkpt>
      <trkpt lat="41.16451" lon="20.34815">
        <ele>270.558205</ele>
        <time>2022-02-24T17:47:16.797Z</time>
      </trkpt>
      <trkpt lat="41.16528" lon="20.34737">
        <ele>270.22538</ele>
        <time>2022-02-24T17:47:45.723Z</time>
      </trkpt>
      <trkpt lat="41.16571" lon="20.34699">
        <ele>269.939811</ele>
        <time>2022-02-24T17:48:00.266Z</time>
      </trkpt>
      <trkpt lat="41.16601" lon="20.3467">
        <ele>269.722919</ele>
        <time>2022-02-24T17:48:09.862Z</time>
      </trkpt>
      <trkpt lat="41.16634" lon="20.34629">
        <ele>269.453069</ele>
        <time>2022-02-24T17:48:20.963Z</time>
      </trkpt>
      <trkpt lat="41.16667" lon="20.34566">
        <ele>269.027558</ele>
        <time>2022-02-24T17:48:33.914Z</time>
      </trkpt>
      <trkpt lat="41.16685" lon="20.34513">
        <ele>268.036734</ele>
        <time>2022-02-24T17:48:42.900Z</time>
      </trkpt>
      <trkpt lat="41.16697" lon="20.34428">
        <ele>266.554407</ele>
        <time>2022-02-24T17:48:56.026Z</time>
      </trkpt>
      <trkpt lat="41.16697" lon="20.34361">
        <ele>265.393083</ele>
        <time>2022-02-24T17:49:06.386Z</time>
      </trkpt>
      <trkpt lat="41.16689" lon="20.34326">
        <ele>264.854633</ele>
        <time>2022-02-24T17:49:12.049Z</time>
      </trkpt>
      <trkpt lat="41.16669" lon="20.34284">
        <ele>264.28046</ele>
        <time>2022-02-24T17:49:19.796Z</time>
      </trkpt>
      <trkpt lat="41.16593" lon="20.34181">
        <ele>262.621123</ele>
        <time>2022-02-24T17:49:43.289Z</time>
      </trkpt>
      <trkpt lat="41.16578" lon="20.34137">
        <ele>262.292637</ele>
        <time>2022-02-24T17:49:52.468Z</time>
      </trkpt>
      <trkpt lat="41.16578" lon="20.34108">
        <ele>262.302823</ele>
        <time>2022-02-24T17:49:58.969Z</time>
      </trkpt>
      <trkpt lat="41.16584" lon="20.3408">
        <ele>262.312899</ele>
        <time>2022-02-24T17:50:05.690Z</time>
      </trkpt>
      <trkpt lat="41.16626" lon="20.34014">
        <ele>262.343276</ele>
        <time>2022-02-24T17:50:23.789Z</time>
      </trkpt>
      <trkpt lat="41.16661" lon="20.33967">
        <ele>262.366465</ele>
        <time>2022-02-24T17:50:37.183Z</time>
      </trkpt>
      <trkpt lat="41.16672" lon="20.3395">
        <ele>262.305179</ele>
        <time>2022-02-24T17:50:41.696Z</time>
      </trkpt>
      <trkpt lat="41.16679" lon="20.33938">
        <ele>262.220339</ele>
        <time>2022-02-24T17:50:45.275Z</time>
      </trkpt>
      <trkpt lat="41.16684" lon="20.33927">
        <ele>262.155219</ele>
        <time>2022-02-24T17:50:47.299Z</time>
      </trkpt>
      <trkpt lat="41.16698" lon="20.33875">
        <ele>261.860865</ele>
        <time>2022-02-24T17:50:58.009Z</time>
      </trkpt>
      <trkpt lat="41.16721" lon="20.33716">
        <ele>261.022654</ele>
        <time>2022-02-24T17:51:25.808Z</time>
      </trkpt>
      <trkpt lat="41.16753" lon="20.33608">
        <ele>260.546334</ele>
        <time>2022-02-24T17:51:46.342Z</time>
      </trkpt>
      <trkpt lat="41.16762" lon="20.3358">
        <ele>260.419649</ele>
        <time>2022-02-24T17:51:52.132Z</time>
      </trkpt>
      <trkpt lat="41.16775" lon="20.33548">
        <ele>260.269971</ele>
        <time>2022-02-24T17:51:59.366Z</time>
      </trkpt>
      <trkpt lat="41.16809" lon="20.33479">
        <ele>260.190471</ele>
        <time>2022-02-24T17:52:16.457Z</time>
      </trkpt>
      <trkpt lat="41.16845" lon="20.33437">
        <ele>260.291904</ele>
        <time>2022-02-24T17:52:30.569Z</time>
      </trkpt>
      <trkpt lat="41.16984" lon="20.33351">
        <ele>260.221764</ele>
        <time>2022-02-24T17:53:12.120Z</time>
      </trkpt>
      <trkpt lat="41.1704" lon="20.33294">
        <ele>259.867228</ele>
        <time>2022-02-24T17:53:29.145Z</time>
      </trkpt>
      <trkpt lat="41.17094" lon="20.33213">
        <ele>259.422171</ele>
        <time>2022-02-24T17:53:48.187Z</time>
      </trkpt>
      <trkpt lat="41.17166" lon="20.33035">
        <ele>258.46706</ele>
        <time>2022-02-24T17:54:24.839Z</time>
      </trkpt>
      <trkpt lat="41.17192" lon="20.32992">
        <ele>258.549939</ele>
        <time>2022-02-24T17:54:36.075Z</time>
      </trkpt>
      <trkpt lat="41.17248" lon="20.32939">
        <ele>258.686679</ele>
        <time>2022-02-24T17:54:55.226Z</time>
      </trkpt>
      <trkpt lat="41.17329" lon="20.32888">
        <ele>258.695007</ele>
        <time>2022-02-24T17:55:21.713Z</time>
      </trkpt>
      <trkpt lat="41.17367" lon="20.32849">
        <ele>258.381354</ele>
        <time>2022-02-24T17:55:34.705Z</time>
      </trkpt>
      <trkpt lat="41.17398" lon="20.32784">
        <ele>258.001255</ele>
        <time>2022-02-24T17:55:48.214Z</time>
      </trkpt>
      <trkpt lat="41.17414" lon="20.3269">
        <ele>257.316093</ele>
        <time>2022-02-24T17:56:04.295Z</time>
      </trkpt>
      <trkpt lat="41.17416" lon="20.32659">
        <ele>256.906685</ele>
        <time>2022-02-24T17:56:09.384Z</time>
      </trkpt>
      <trkpt lat="41.17414" lon="20.32635">
        <ele>256.6011</ele>
        <time>2022-02-24T17:56:12.991Z</time>
      </trkpt>
      <trkpt lat="41.17408" lon="20.32587">
        <ele>255.959083</ele>
        <time>2022-02-24T17:56:20.789Z</time>
      </trkpt>
      <trkpt lat="41.17412" lon="20.32554">
        <ele>255.519259</ele>
        <time>2022-02-24T17:56:26.278Z</time>
      </trkpt>
      <trkpt lat="41.17417" lon="20.32541">
        <ele>255.327115</ele>
        <time>2022-02-24T17:56:28.449Z</time>
      </trkpt>
      <trkpt lat="41.17423" lon="20.3253">
        <ele>255.150453</ele>
        <time>2022-02-24T17:56:30.767Z</time>
      </trkpt>
      <trkpt lat="41.17566" lon="20.32364">
        <ele>251.777352</ele>
        <time>2022-02-24T17:57:12.137Z</time>
      </trkpt>
      <trkpt lat="41.17679" lon="20.32155">
        <ele>247.874602</ele>
        <time>2022-02-24T17:57:52.686Z</time>
      </trkpt>
      <trkpt lat="41.17721" lon="20.31992">
        <ele>245.428405</ele>
        <time>2022-02-24T17:58:19.805Z</time>
      </trkpt>
      <trkpt lat="41.17725" lon="20.31942">
        <ele>244.733799</ele>
        <time>2022-02-24T17:58:27.920Z</time>
      </trkpt>
      <trkpt lat="41.17725" lon="20.3185">
        <ele>243.640689</ele>
        <time>2022-02-24T17:58:43.656Z</time>
      </trkpt>
      <trkpt lat="41.17735" lon="20.31802">
        <ele>243.112647</ele>
        <time>2022-02-24T17:58:52.217Z</time>
      </trkpt>
      <trkpt lat="41.1776" lon="20.31719">
        <ele>242.162346</ele>
        <time>2022-02-24T17:59:07.075Z</time>
      </trkpt>
      <trkpt lat="41.17763" lon="20.31709">
        <ele>242.046491</ele>
        <time>2022-02-24T17:59:08.901Z</time>
      </trkpt>
      <trkpt lat="41.17779" lon="20.31661">
        <ele>241.489842</ele>
        <time>2022-02-24T17:59:17.457Z</time>
      </trkpt>
      <trkpt lat="41.1778" lon="20.31656">
        <ele>241.440556</ele>
        <time>2022-02-24T17:59:18.208Z</time>
      </trkpt>
      <trkpt lat="41.17788" lon="20.31629">
        <ele>241.115355</ele>
        <time>2022-02-24T17:59:23.173Z</time>
      </trkpt>
      <trkpt lat="41.17795" lon="20.31609">
        <ele>240.879051</ele>
        <time>2022-02-24T17:59:26.781Z</time>
      </trkpt>
      <trkpt lat="41.17798" lon="20.31598">
        <ele>240.759667</ele>
        <time>2022-02-24T17:59:28.653Z</time>
      </trkpt>
      <trkpt lat="41.178" lon="20.31587">
        <ele>240.6335</ele>
        <time>2022-02-24T17:59:30.548Z</time>
      </trkpt>
      <trkpt lat="41.17802" lon="20.3158">
        <ele>240.549506</ele>
        <time>2022-02-24T17:59:31.802Z</time>
      </trkpt>
      <trkpt lat="41.17802" lon="20.31572">
        <ele>240.465628</ele>
        <time>2022-02-24T17:59:32.995Z</time>
      </trkpt>
      <trkpt lat="41.17802" lon="20.31558">
        <ele>240.310323</ele>
        <time>2022-02-24T17:59:35.386Z</time>
      </trkpt>
      <trkpt lat="41.17793" lon="20.3152">
        <ele>239.879252</ele>
        <time>2022-02-24T17:59:41.974Z</time>
      </trkpt>
      <trkpt lat="41.17786" lon="20.31499">
        <ele>239.635532</ele>
        <time>2022-02-24T17:59:45.751Z</time>
      </trkpt>
      <trkpt lat="41.17783" lon="20.31488">
        <ele>239.502449</ele>
        <time>2022-02-24T17:59:47.844Z</time>
      </trkpt>
      <trkpt lat="41.17778" lon="20.3146">
        <ele>239.196461</ele>
        <time>2022-02-24T17:59:52.603Z</time>
      </trkpt>
      <trkpt lat="41.17784" lon="20.31405">
        <ele>238.935358</ele>
        <time>2022-02-24T18:00:02.210Z</time>
      </trkpt>
      <trkpt lat="41.17785" lon="20.31399">
        <ele>238.911731</ele>
        <time>2022-02-24T18:00:03.218Z</time>
      </trkpt>
      <trkpt lat="41.17788" lon="20.31385">
        <ele>238.853372</ele>
        <time>2022-02-24T18:00:05.770Z</time>
      </trkpt>
      <trkpt lat="41.17795" lon="20.31388">
        <ele>238.818786</ele>
        <time>2022-02-24T18:00:07.688Z</time>
      </trkpt>
      <trkpt lat="41.17802" lon="20.31388">
        <ele>238.781471</ele>
        <time>2022-02-24T18:00:09.428Z</time>
      </trkpt>
      <trkpt lat="41.17826" lon="20.31376">
        <ele>238.642995</ele>
        <time>2022-02-24T18:00:16.617Z</time>
      </trkpt>
      <trkpt lat="41.17827" lon="20.31369">
        <ele>238.613738</ele>
        <time>2022-02-24T18:00:18.237Z</time>
      </trkpt>
      <trkpt lat="41.1783" lon="20.31358">
        <ele>238.569034</ele>
        <time>2022-02-24T18:00:20.477Z</time>
      </trkpt>
      <trkpt lat="41.17832" lon="20.3135">
        <ele>238.5338</ele>
        <time>2022-02-24T18:00:22.298Z</time>
      </trkpt>
      <trkpt lat="41.17835" lon="20.31345">
        <ele>238.507699</ele>
        <time>2022-02-24T18:00:23.671Z</time>
      </trkpt>
      <trkpt lat="41.17838" lon="20.31343">
        <ele>238.489732</ele>
        <time>2022-02-24T18:00:24.585Z</time>
      </trkpt>
      <trkpt lat="41.17848" lon="20.31339">
        <ele>238.433818</ele>
        <time>2022-02-24T18:00:27.601Z</time>
      </trkpt>
      <trkpt lat="41.17846" lon="20.31324">
        <ele>238.374187</ele>
        <time>2022-02-24T18:00:31.225Z</time>
      </trkpt>
      <trkpt lat="41.17847" lon="20.31321">
        <ele>238.360877</ele>
        <time>2022-02-24T18:00:32.060Z</time>
      </trkpt>
      <trkpt lat="41.1785" lon="20.31312">
        <ele>238.320168</ele>
        <time>2022-02-24T18:00:34.399Z</time>
      </trkpt>
      <trkpt lat="41.17853" lon="20.31313">
        <ele>238.306629</ele>
        <time>2022-02-24T18:00:35.050Z</time>
      </trkpt>
      <trkpt lat="41.17863" lon="20.31307">
        <ele>238.242739</ele>
        <time>2022-02-24T18:00:38.625Z</time>
      </trkpt>
      <trkpt lat="41.17867" lon="20.31305">
        <ele>238.224407</ele>
        <time>2022-02-24T18:00:39.503Z</time>
      </trkpt>
      <trkpt lat="41.1787" lon="20.31302">
        <ele>238.202193</ele>
        <time>2022-02-24T18:00:40.600Z</time>
      </trkpt>
      <trkpt lat="41.17896" lon="20.31295">
        <ele>237.996848</ele>
        <time>2022-02-24T18:00:47.666Z</time>
      </trkpt>
      <trkpt lat="41.17932" lon="20.31296">
        <ele>237.708383</ele>
        <time>2022-02-24T18:00:56.898Z</time>
      </trkpt>
      <trkpt lat="41.17959" lon="20.3131">
        <ele>237.473491</ele>
        <time>2022-02-24T18:01:03.752Z</time>
      </trkpt>
      <trkpt lat="41.17971" lon="20.31269">
        <ele>237.199779</ele>
        <time>2022-02-24T18:01:11.487Z</time>
      </trkpt>
      <trkpt lat="41.17986" lon="20.31277">
        <ele>237.070991</ele>
        <time>2022-02-24T18:01:15.245Z</time>
      </trkpt>
      <trkpt lat="41.18017" lon="20.31297">
        <ele>236.788841</ele>
        <time>2022-02-24T18:01:23.507Z</time>
      </trkpt>
      <trkpt lat="41.18024" lon="20.31275">
        <ele>236.81911</ele>
        <time>2022-02-24T18:01:27.929Z</time>
      </trkpt>
      <trkpt lat="41.18063" lon="20.31158">
        <ele>237.753187</ele>
        <time>2022-02-24T18:01:55.635Z</time>
      </trkpt>
      <trkpt lat="41.18067" lon="20.31148">
        <ele>237.832484</ele>
        <time>2022-02-24T18:01:58.445Z</time>
      </trkpt>
      <trkpt lat="41.18067" lon="20.31142">
        <ele>237.878399</ele>
        <time>2022-02-24T18:01:59.946Z</time>
      </trkpt>
      <trkpt lat="41.18067" lon="20.31134">
        <ele>237.93633</ele>
        <time>2022-02-24T18:02:01.938Z</time>
      </trkpt>
      <trkpt lat="41.18093" lon="20.31128">
        <ele>238.192948</ele>
        <time>2022-02-24T18:02:11.201Z</time>
      </trkpt>
      <trkpt lat="41.18218" lon="20.31088">
        <ele>242.466307</ele>
        <time>2022-02-24T18:03:06.747Z</time>
      </trkpt>
      <trkpt lat="41.18252" lon="20.31071">
        <ele>243.922081</ele>
        <time>2022-02-24T18:03:25.474Z</time>
      </trkpt>
      <trkpt lat="41.183" lon="20.31023">
        <ele>246.56701</ele>
        <time>2022-02-24T18:03:54.852Z</time>
      </trkpt>
      <trkpt lat="41.18331" lon="20.30964">
        <ele>249.612646</ele>
        <time>2022-02-24T18:04:23.522Z</time>
      </trkpt>
      <trkpt lat="41.18345" lon="20.30931">
        <ele>251.179077</ele>
        <time>2022-02-24T18:04:39.466Z</time>
      </trkpt>
      <trkpt lat="41.18364" lon="20.30889">
        <ele>253.236371</ele>
        <time>2022-02-24T18:04:59.434Z</time>
      </trkpt>
      <trkpt lat="41.18387" lon="20.30854">
        <ele>255.194736</ele>
        <time>2022-02-24T18:05:18.478Z</time>
      </trkpt>
      <trkpt lat="41.18398" lon="20.30841">
        <ele>255.91929</ele>
        <time>2022-02-24T18:05:26.844Z</time>
      </trkpt>
      <trkpt lat="41.18402" lon="20.30837">
        <ele>256.117857</ele>
        <time>2022-02-24T18:05:32.103Z</time>
      </trkpt>
      <trkpt lat="41.18425" lon="20.30813">
        <ele>257.182941</ele>
        <time>2022-02-24T18:05:45.450Z</time>
      </trkpt>
      <trkpt lat="41.18439" lon="20.3079">
        <ele>258.011746</ele>
        <time>2022-02-24T18:05:57.650Z</time>
      </trkpt>
      <trkpt lat="41.18474" lon="20.30698">
        <ele>260.8397</ele>
        <time>2022-02-24T18:06:30.748Z</time>
      </trkpt>
      <trkpt lat="41.1848" lon="20.30676">
        <ele>261.490347</ele>
        <time>2022-02-24T18:06:40.235Z</time>
      </trkpt>
      <trkpt lat="41.18489" lon="20.30641">
        <ele>262.322859</ele>
        <time>2022-02-24T18:06:47.752Z</time>
      </trkpt>
      <trkpt lat="41.18504" lon="20.306">
        <ele>262.467017</ele>
        <time>2022-02-24T18:06:56.431Z</time>
      </trkpt>
      <trkpt lat="41.1856" lon="20.30499">
        <ele>262.863506</ele>
        <time>2022-02-24T18:07:21.440Z</time>
      </trkpt>
      <trkpt lat="41.18594" lon="20.30439">
        <ele>263.329402</ele>
        <time>2022-02-24T18:07:36.161Z</time>
      </trkpt>
      <trkpt lat="41.18627" lon="20.30377">
        <ele>264.749766</ele>
        <time>2022-02-24T18:07:56.206Z</time>
      </trkpt>
      <trkpt lat="41.18641" lon="20.30342">
        <ele>265.481984</ele>
        <time>2022-02-24T18:08:07.870Z</time>
      </trkpt>
      <trkpt lat="41.18644" lon="20.30315">
        <ele>265.994102</ele>
        <time>2022-02-24T18:08:16.297Z</time>
      </trkpt>
      <trkpt lat="41.18641" lon="20.30287">
        <ele>266.531346</ele>
        <time>2022-02-24T18:08:26.682Z</time>
      </trkpt>
      <trkpt lat="41.18617" lon="20.30208">
        <ele>267.905072</ele>
        <time>2022-02-24T18:08:55.728Z</time>
      </trkpt>
      <trkpt lat="41.18613" lon="20.30181">
        <ele>268.243446</ele>
        <time>2022-02-24T18:09:04.668Z</time>
      </trkpt>
      <trkpt lat="41.18616" lon="20.3014">
        <ele>268.744867</ele>
        <time>2022-02-24T18:09:16.483Z</time>
      </trkpt>
      <trkpt lat="41.18625" lon="20.30112">
        <ele>269.121598</ele>
        <time>2022-02-24T18:09:24.347Z</time>
      </trkpt>
      <trkpt lat="41.18633" lon="20.30095">
        <ele>269.363145</ele>
        <time>2022-02-24T18:09:29.858Z</time>
      </trkpt>
      <trkpt lat="41.18641" lon="20.30083">
        <ele>269.556425</ele>
        <time>2022-02-24T18:09:33.141Z</time>
      </trkpt>
      <trkpt lat="41.18648" lon="20.30072">
        <ele>269.736745</ele>
        <time>2022-02-24T18:09:36.723Z</time>
      </trkpt>
      <trkpt lat="41.18661" lon="20.30054">
        <ele>270.036677</ele>
        <time>2022-02-24T18:09:41.570Z</time>
      </trkpt>
      <trkpt lat="41.18668" lon="20.30043">
        <ele>270.220631</ele>
        <time>2022-02-24T18:09:44.262Z</time>
      </trkpt>
      <trkpt lat="41.18674" lon="20.30033">
        <ele>270.372816</ele>
        <time>2022-02-24T18:09:47.107Z</time>
      </trkpt>
      <trkpt lat="41.18679" lon="20.30021">
        <ele>270.399807</ele>
        <time>2022-02-24T18:09:49.593Z</time>
      </trkpt>
      <trkpt lat="41.18681" lon="20.30015">
        <ele>270.368387</ele>
        <time>2022-02-24T18:09:50.716Z</time>
      </trkpt>
      <trkpt lat="41.18683" lon="20.30006">
        <ele>270.329683</ele>
        <time>2022-02-24T18:09:52.122Z</time>
      </trkpt>
      <trkpt lat="41.18688" lon="20.29985">
        <ele>270.232802</ele>
        <time>2022-02-24T18:09:56.414Z</time>
      </trkpt>
      <trkpt lat="41.18706" lon="20.29918">
        <ele>269.923715</ele>
        <time>2022-02-24T18:10:07.685Z</time>
      </trkpt>
      <trkpt lat="41.18714" lon="20.29896">
        <ele>269.815814</ele>
        <time>2022-02-24T18:10:11.643Z</time>
      </trkpt>
      <trkpt lat="41.18724" lon="20.29876">
        <ele>269.712379</ele>
        <time>2022-02-24T18:10:16.164Z</time>
      </trkpt>
      <trkpt lat="41.18784" lon="20.29793">
        <ele>269.614187</ele>
        <time>2022-02-24T18:10:41.880Z</time>
      </trkpt>
      <trkpt lat="41.18792" lon="20.2975">
        <ele>269.850701</ele>
        <time>2022-02-24T18:10:52.655Z</time>
      </trkpt>
      <trkpt lat="41.18792" lon="20.29733">
        <ele>269.94234</ele>
        <time>2022-02-24T18:10:55.759Z</time>
      </trkpt>
      <trkpt lat="41.18788" lon="20.2971">
        <ele>270.068169</ele>
        <time>2022-02-24T18:11:02.879Z</time>
      </trkpt>
      <trkpt lat="41.1877" lon="20.29645">
        <ele>270.432295</ele>
        <time>2022-02-24T18:11:18.890Z</time>
      </trkpt>
      <trkpt lat="41.18769" lon="20.29565">
        <ele>269.471474</ele>
        <time>2022-02-24T18:11:37.224Z</time>
      </trkpt>
      <trkpt lat="41.18777" lon="20.29521">
        <ele>268.069634</ele>
        <time>2022-02-24T18:11:44.514Z</time>
      </trkpt>
      <trkpt lat="41.18813" lon="20.29427">
        <ele>264.72117</ele>
        <time>2022-02-24T18:11:58.654Z</time>
      </trkpt>
      <trkpt lat="41.1884" lon="20.29357">
        <ele>261.817408</ele>
        <time>2022-02-24T18:12:08.774Z</time>
      </trkpt>
      <trkpt lat="41.1885" lon="20.29332">
        <ele>260.483541</ele>
        <time>2022-02-24T18:12:12.373Z</time>
      </trkpt>
      <trkpt lat="41.18887" lon="20.29251">
        <ele>256.033401</ele>
        <time>2022-02-24T18:12:24.567Z</time>
      </trkpt>
      <trkpt lat="41.18896" lon="20.29222">
        <ele>254.564684</ele>
        <time>2022-02-24T18:12:28.656Z</time>
      </trkpt>
      <trkpt lat="41.18897" lon="20.29165">
        <ele>251.932774</ele>
        <time>2022-02-24T18:12:36.307Z</time>
      </trkpt>
      <trkpt lat="41.18884" lon="20.29116">
        <ele>251.973262</ele>
        <time>2022-02-24T18:12:44.468Z</time>
      </trkpt>
      <trkpt lat="41.18873" lon="20.29091">
        <ele>251.996264</ele>
        <time>2022-02-24T18:12:49.769Z</time>
      </trkpt>
      <trkpt lat="41.18842" lon="20.29046">
        <ele>252.042971</ele>
        <time>2022-02-24T18:13:02.625Z</time>
      </trkpt>
      <trkpt lat="41.18644" lon="20.28835">
        <ele>256.127587</ele>
        <time>2022-02-24T18:14:42.418Z</time>
      </trkpt>
      <trkpt lat="41.18631" lon="20.28805">
        <ele>255.328717</ele>
        <time>2022-02-24T18:14:49.999Z</time>
      </trkpt>
      <trkpt lat="41.18627" lon="20.28765">
        <ele>254.391179</ele>
        <time>2022-02-24T18:14:57.550Z</time>
      </trkpt>
      <trkpt lat="41.18633" lon="20.28698">
        <ele>252.804443</ele>
        <time>2022-02-24T18:15:07.600Z</time>
      </trkpt>
      <trkpt lat="41.18655" lon="20.28619">
        <ele>250.854575</ele>
        <time>2022-02-24T18:15:18.879Z</time>
      </trkpt>
      <trkpt lat="41.18675" lon="20.28568">
        <ele>247.769301</ele>
        <time>2022-02-24T18:15:26.175Z</time>
      </trkpt>
      <trkpt lat="41.18691" lon="20.28539">
        <ele>245.563704</ele>
        <time>2022-02-24T18:15:30.647Z</time>
      </trkpt>
      <trkpt lat="41.18719" lon="20.28487">
        <ele>241.645323</ele>
        <time>2022-02-24T18:15:38.611Z</time>
      </trkpt>
      <trkpt lat="41.18732" lon="20.28464">
        <ele>239.87868</ele>
        <time>2022-02-24T18:15:42.187Z</time>
      </trkpt>
      <trkpt lat="41.18747" lon="20.28438">
        <ele>237.896804</ele>
        <time>2022-02-24T18:15:46.207Z</time>
      </trkpt>
      <trkpt lat="41.18765" lon="20.28411">
        <ele>236.033317</ele>
        <time>2022-02-24T18:15:50.704Z</time>
      </trkpt>
      <trkpt lat="41.18782" lon="20.28381">
        <ele>236.168449</ele>
        <time>2022-02-24T18:15:55.647Z</time>
      </trkpt>
      <trkpt lat="41.1879" lon="20.28353">
        <ele>236.281448</ele>
        <time>2022-02-24T18:16:00.225Z</time>
      </trkpt>
      <trkpt lat="41.18791" lon="20.28322">
        <ele>236.392135</ele>
        <time>2022-02-24T18:16:04.508Z</time>
      </trkpt>
      <trkpt lat="41.18784" lon="20.28292">
        <ele>236.507573</ele>
        <time>2022-02-24T18:16:13.243Z</time>
      </trkpt>
      <trkpt lat="41.18778" lon="20.28276">
        <ele>236.572234</ele>
        <time>2022-02-24T18:16:16.334Z</time>
      </trkpt>
      <trkpt lat="41.18778" lon="20.28263">
        <ele>236.620818</ele>
        <time>2022-02-24T18:16:23.037Z</time>
      </trkpt>
      <trkpt lat="41.18773" lon="20.28243">
        <ele>236.696372</ele>
        <time>2022-02-24T18:16:29.339Z</time>
      </trkpt>
      <trkpt lat="41.18748" lon="20.28212">
        <ele>236.86445</ele>
        <time>2022-02-24T18:16:50.818Z</time>
      </trkpt>
      <trkpt lat="41.18719" lon="20.28187">
        <ele>240.261045</ele>
        <time>2022-02-24T18:17:16.248Z</time>
      </trkpt>
      <trkpt lat="41.18676" lon="20.28185">
        <ele>245.160071</ele>
        <time>2022-02-24T18:17:51.446Z</time>
      </trkpt>
      <trkpt lat="41.18639" lon="20.28154">
        <ele>250.090054</ele>
        <time>2022-02-24T18:18:32.444Z</time>
      </trkpt>
      <trkpt lat="41.18575" lon="20.28078">
        <ele>258.286617</ele>
        <time>2022-02-24T18:19:48.880Z</time>
      </trkpt>
      <trkpt lat="41.18528" lon="20.28004">
        <ele>261.777056</ele>
        <time>2022-02-24T18:20:35.517Z</time>
      </trkpt>
      <trkpt lat="41.18493" lon="20.27913">
        <ele>265.50772</ele>
        <time>2022-02-24T18:20:59.878Z</time>
      </trkpt>
      <trkpt lat="41.18482" lon="20.27855">
        <ele>263.051453</ele>
        <time>2022-02-24T18:21:08.338Z</time>
      </trkpt>
      <trkpt lat="41.18483" lon="20.2779">
        <ele>259.377176</ele>
        <time>2022-02-24T18:21:16.778Z</time>
      </trkpt>
      <trkpt lat="41.185" lon="20.27654">
        <ele>251.27652</ele>
        <time>2022-02-24T18:21:33.695Z</time>
      </trkpt>
      <trkpt lat="41.18539" lon="20.27458">
        <ele>235.835769</ele>
        <time>2022-02-24T18:21:58.280Z</time>
      </trkpt>
      <trkpt lat="41.18547" lon="20.27299">
        <ele>227.07552</ele>
        <time>2022-02-24T18:22:18.669Z</time>
      </trkpt>
      <trkpt lat="41.18543" lon="20.27254">
        <ele>224.72133</ele>
        <time>2022-02-24T18:22:24.784Z</time>
      </trkpt>
      <trkpt lat="41.18519" lon="20.27201">
        <ele>221.669604</ele>
        <time>2022-02-24T18:22:33.004Z</time>
      </trkpt>
      <trkpt lat="41.18488" lon="20.27181">
        <ele>220.179064</ele>
        <time>2022-02-24T18:22:39.310Z</time>
      </trkpt>
      <trkpt lat="41.18462" lon="20.2718">
        <ele>219.065656</ele>
        <time>2022-02-24T18:22:44.178Z</time>
      </trkpt>
      <trkpt lat="41.18438" lon="20.27187">
        <ele>217.972863</ele>
        <time>2022-02-24T18:22:49.082Z</time>
      </trkpt>
      <trkpt lat="41.18408" lon="20.27215">
        <ele>216.401001</ele>
        <time>2022-02-24T18:22:56.048Z</time>
      </trkpt>
      <trkpt lat="41.18391" lon="20.27242">
        <ele>215.258072</ele>
        <time>2022-02-24T18:23:00.929Z</time>
      </trkpt>
      <trkpt lat="41.18374" lon="20.2727">
        <ele>214.094393</ele>
        <time>2022-02-24T18:23:05.814Z</time>
      </trkpt>
      <trkpt lat="41.18341" lon="20.27318">
        <ele>212.438521</ele>
        <time>2022-02-24T18:23:15.001Z</time>
      </trkpt>
      <trkpt lat="41.18318" lon="20.27354">
        <ele>211.259534</ele>
        <time>2022-02-24T18:23:21.727Z</time>
      </trkpt>
      <trkpt lat="41.18312" lon="20.27366">
        <ele>210.897159</ele>
        <time>2022-02-24T18:23:23.718Z</time>
      </trkpt>
      <trkpt lat="41.18306" lon="20.27373">
        <ele>210.63458</ele>
        <time>2022-02-24T18:23:25.151Z</time>
      </trkpt>
      <trkpt lat="41.18293" lon="20.27381">
        <ele>210.140793</ele>
        <time>2022-02-24T18:23:28.429Z</time>
      </trkpt>
      <trkpt lat="41.18287" lon="20.27381">
        <ele>209.94986</ele>
        <time>2022-02-24T18:23:29.472Z</time>
      </trkpt>
      <trkpt lat="41.18279" lon="20.27381">
        <ele>209.68543</ele>
        <time>2022-02-24T18:23:31.061Z</time>
      </trkpt>
      <trkpt lat="41.18242" lon="20.27376">
        <ele>208.450092</ele>
        <time>2022-02-24T18:23:38.794Z</time>
      </trkpt>
      <trkpt lat="41.18202" lon="20.27369">
        <ele>208.104836</ele>
        <time>2022-02-24T18:23:47.140Z</time>
      </trkpt>
      <trkpt lat="41.18187" lon="20.27366">
        <ele>208.136274</ele>
        <time>2022-02-24T18:23:51.196Z</time>
      </trkpt>
      <trkpt lat="41.18167" lon="20.27357">
        <ele>208.177168</ele>
        <time>2022-02-24T18:23:55.341Z</time>
      </trkpt>
      <trkpt lat="41.18143" lon="20.27337">
        <ele>208.232297</ele>
        <time>2022-02-24T18:24:02.288Z</time>
      </trkpt>
      <trkpt lat="41.18032" lon="20.27169">
        <ele>211.296897</ele>
        <time>2022-02-24T18:25:05.166Z</time>
      </trkpt>
      <trkpt lat="41.18019" lon="20.27152">
        <ele>211.917627</ele>
        <time>2022-02-24T18:25:13.197Z</time>
      </trkpt>
      <trkpt lat="41.17985" lon="20.27111">
        <ele>213.550862</ele>
        <time>2022-02-24T18:25:34.525Z</time>
      </trkpt>
      <trkpt lat="41.17973" lon="20.27095">
        <ele>214.14905</ele>
        <time>2022-02-24T18:25:43.528Z</time>
      </trkpt>
      <trkpt lat="41.17929" lon="20.27019">
        <ele>217.800748</ele>
        <time>2022-02-24T18:26:21.565Z</time>
      </trkpt>
      <trkpt lat="41.17887" lon="20.26884">
        <ele>223.877125</ele>
        <time>2022-02-24T18:27:21.507Z</time>
      </trkpt>
      <trkpt lat="41.17872" lon="20.26803">
        <ele>226.09322</ele>
        <time>2022-02-24T18:27:55.485Z</time>
      </trkpt>
      <trkpt lat="41.17865" lon="20.26684">
        <ele>228.7136</ele>
        <time>2022-02-24T18:28:31.443Z</time>
      </trkpt>
      <trkpt lat="41.17863" lon="20.2666">
        <ele>229.261966</ele>
        <time>2022-02-24T18:28:38.564Z</time>
      </trkpt>
      <trkpt lat="41.17859" lon="20.26635">
        <ele>229.815736</ele>
        <time>2022-02-24T18:28:42.891Z</time>
      </trkpt>
      <trkpt lat="41.17845" lon="20.26565">
        <ele>228.515284</ele>
        <time>2022-02-24T18:28:57.000Z</time>
      </trkpt>
      <trkpt lat="41.17835" lon="20.26526">
        <ele>227.621398</ele>
        <time>2022-02-24T18:29:03.610Z</time>
      </trkpt>
      <trkpt lat="41.17826" lon="20.26492">
        <ele>226.839976</ele>
        <time>2022-02-24T18:29:08.765Z</time>
      </trkpt>
      <trkpt lat="41.17804" lon="20.26428">
        <ele>225.312297</ele>
        <time>2022-02-24T18:29:18.385Z</time>
      </trkpt>
      <trkpt lat="41.17766" lon="20.26336">
        <ele>221.977505</ele>
        <time>2022-02-24T18:29:32.376Z</time>
      </trkpt>
      <trkpt lat="41.17756" lon="20.26317">
        <ele>221.165566</ele>
        <time>2022-02-24T18:29:35.429Z</time>
      </trkpt>
      <trkpt lat="41.17736" lon="20.26281">
        <ele>219.604237</ele>
        <time>2022-02-24T18:29:41.575Z</time>
      </trkpt>
      <trkpt lat="41.17635" lon="20.26126">
        <ele>215.330413</ele>
        <time>2022-02-24T18:30:11.347Z</time>
      </trkpt>
      <trkpt lat="41.17478" lon="20.25952">
        <ele>214.827761</ele>
        <time>2022-02-24T18:31:13.493Z</time>
      </trkpt>
      <trkpt lat="41.1747" lon="20.25943">
        <ele>214.893789</ele>
        <time>2022-02-24T18:31:17.463Z</time>
      </trkpt>
      <trkpt lat="41.17463" lon="20.25935">
        <ele>214.955073</ele>
        <time>2022-02-24T18:31:20.452Z</time>
      </trkpt>
      <trkpt lat="41.17453" lon="20.25926">
        <ele>215.029232</ele>
        <time>2022-02-24T18:31:23.900Z</time>
      </trkpt>
      <trkpt lat="41.17442" lon="20.25919">
        <ele>215.106884</ele>
        <time>2022-02-24T18:31:27.386Z</time>
      </trkpt>
      <trkpt lat="41.174" lon="20.25899">
        <ele>214.950463</ele>
        <time>2022-02-24T18:31:39.419Z</time>
      </trkpt>
      <trkpt lat="41.17387" lon="20.25891">
        <ele>214.726032</ele>
        <time>2022-02-24T18:31:43.061Z</time>
      </trkpt>
      <trkpt lat="41.17373" lon="20.2588">
        <ele>214.459246</ele>
        <time>2022-02-24T18:31:47.132Z</time>
      </trkpt>
      <trkpt lat="41.17355" lon="20.25865">
        <ele>214.112133</ele>
        <time>2022-02-24T18:31:52.310Z</time>
      </trkpt>
      <trkpt lat="41.17328" lon="20.25842">
        <ele>213.594425</ele>
        <time>2022-02-24T18:31:59.917Z</time>
      </trkpt>
      <trkpt lat="41.17311" lon="20.25827">
        <ele>213.261482</ele>
        <time>2022-02-24T18:32:04.006Z</time>
      </trkpt>
      <trkpt lat="41.17275" lon="20.25793">
        <ele>212.560086</ele>
        <time>2022-02-24T18:32:12.509Z</time>
      </trkpt>
      <trkpt lat="41.1725" lon="20.25758">
        <ele>211.366667</ele>
        <time>2022-02-24T18:32:19.646Z</time>
      </trkpt>
      <trkpt lat="41.1722" lon="20.25692">
        <ele>209.048837</ele>
        <time>2022-02-24T18:32:30.382Z</time>
      </trkpt>
      <trkpt lat="41.1721" lon="20.25658">
        <ele>207.944683</ele>
        <time>2022-02-24T18:32:35.482Z</time>
      </trkpt>
      <trkpt lat="41.17198" lon="20.25618">
        <ele>206.636941</ele>
        <time>2022-02-24T18:32:41.619Z</time>
      </trkpt>
      <trkpt lat="41.1719" lon="20.25591">
        <ele>205.777224</ele>
        <time>2022-02-24T18:32:45.713Z</time>
      </trkpt>
      <trkpt lat="41.17181" lon="20.25568">
        <ele>204.985609</ele>
        <time>2022-02-24T18:32:49.387Z</time>
      </trkpt>
      <trkpt lat="41.17172" lon="20.25547">
        <ele>204.341442</ele>
        <time>2022-02-24T18:32:52.767Z</time>
      </trkpt>
      <trkpt lat="41.17162" lon="20.25525">
        <ele>203.655781</ele>
        <time>2022-02-24T18:32:56.232Z</time>
      </trkpt>
      <trkpt lat="41.17121" lon="20.25441">
        <ele>200.923503</ele>
        <time>2022-02-24T18:33:10.467Z</time>
      </trkpt>
      <trkpt lat="41.17102" lon="20.25413">
        <ele>199.89208</ele>
        <time>2022-02-24T18:33:15.978Z</time>
      </trkpt>
      <trkpt lat="41.1708" lon="20.25394">
        <ele>198.937197</ele>
        <time>2022-02-24T18:33:21.186Z</time>
      </trkpt>
      <trkpt lat="41.17001" lon="20.25346">
        <ele>197.281574</ele>
        <time>2022-02-24T18:33:39.389Z</time>
      </trkpt>
      <trkpt lat="41.1698" lon="20.25321">
        <ele>196.796137</ele>
        <time>2022-02-24T18:33:45.322Z</time>
      </trkpt>
      <trkpt lat="41.16965" lon="20.25277">
        <ele>196.172316</ele>
        <time>2022-02-24T18:33:53.387Z</time>
      </trkpt>
      <trkpt lat="41.16948" lon="20.25182">
        <ele>195.537177</ele>
        <time>2022-02-24T18:34:10.891Z</time>
      </trkpt>
      <trkpt lat="41.16944" lon="20.25169">
        <ele>195.539421</ele>
        <time>2022-02-24T18:34:14.751Z</time>
      </trkpt>
      <trkpt lat="41.1694" lon="20.25159">
        <ele>195.541173</ele>
        <time>2022-02-24T18:34:16.478Z</time>
      </trkpt>
      <trkpt lat="41.16917" lon="20.25126">
        <ele>195.54819</ele>
        <time>2022-02-24T18:34:25.655Z</time>
      </trkpt>
      <trkpt lat="41.16895" lon="20.25109">
        <ele>195.553347</ele>
        <time>2022-02-24T18:34:32.675Z</time>
      </trkpt>
      <trkpt lat="41.16811" lon="20.25083">
        <ele>195.677196</ele>
        <time>2022-02-24T18:34:57.818Z</time>
      </trkpt>
      <trkpt lat="41.16794" lon="20.25061">
        <ele>195.802091</ele>
        <time>2022-02-24T18:35:04.735Z</time>
      </trkpt>
      <trkpt lat="41.16773" lon="20.24935">
        <ele>196.316428</ele>
        <time>2022-02-24T18:35:35.270Z</time>
      </trkpt>
      <trkpt lat="41.1673" lon="20.24782">
        <ele>195.520276</ele>
        <time>2022-02-24T18:36:06.418Z</time>
      </trkpt>
      <trkpt lat="41.16714" lon="20.24657">
        <ele>194.388709</ele>
        <time>2022-02-24T18:36:26.705Z</time>
      </trkpt>
      <trkpt lat="41.16701" lon="20.24601">
        <ele>193.436202</ele>
        <time>2022-02-24T18:36:35.691Z</time>
      </trkpt>
      <trkpt lat="41.16674" lon="20.24493">
        <ele>191.598039</ele>
        <time>2022-02-24T18:36:53.169Z</time>
      </trkpt>
      <trkpt lat="41.16669" lon="20.24474">
        <ele>191.268172</ele>
        <time>2022-02-24T18:36:56.424Z</time>
      </trkpt>
      <trkpt lat="41.16663" lon="20.24456">
        <ele>190.940614</ele>
        <time>2022-02-24T18:36:59.456Z</time>
      </trkpt>
      <trkpt lat="41.16657" lon="20.24441">
        <ele>190.669626</ele>
        <time>2022-02-24T18:37:02.255Z</time>
      </trkpt>
      <trkpt lat="41.16644" lon="20.24421">
        <ele>190.381797</ele>
        <time>2022-02-24T18:37:06.444Z</time>
      </trkpt>
      <trkpt lat="41.16626" lon="20.24407">
        <ele>190.156594</ele>
        <time>2022-02-24T18:37:11.561Z</time>
      </trkpt>
      <trkpt lat="41.16564" lon="20.24383">
        <ele>189.475976</ele>
        <time>2022-02-24T18:37:26.422Z</time>
      </trkpt>
      <trkpt lat="41.1654" lon="20.24367">
        <ele>189.201068</ele>
        <time>2022-02-24T18:37:32.387Z</time>
      </trkpt>
      <trkpt lat="41.165" lon="20.24315">
        <ele>188.619742</ele>
        <time>2022-02-24T18:37:45.946Z</time>
      </trkpt>
      <trkpt lat="41.16479" lon="20.24258">
        <ele>188.569928</ele>
        <time>2022-02-24T18:37:57.639Z</time>
      </trkpt>
      <trkpt lat="41.16473" lon="20.2422">
        <ele>188.539371</ele>
        <time>2022-02-24T18:38:05.316Z</time>
      </trkpt>
      <trkpt lat="41.16485" lon="20.24068">
        <ele>188.482385</ele>
        <time>2022-02-24T18:38:36.291Z</time>
      </trkpt>
      <trkpt lat="41.16486" lon="20.24049">
        <ele>188.536128</ele>
        <time>2022-02-24T18:38:40.696Z</time>
      </trkpt>
      <trkpt lat="41.16485" lon="20.24016">
        <ele>188.627919</ele>
        <time>2022-02-24T18:38:48.522Z</time>
      </trkpt>
      <trkpt lat="41.16487" lon="20.23976">
        <ele>188.740239</ele>
        <time>2022-02-24T18:38:57.985Z</time>
      </trkpt>
      <trkpt lat="41.16496" lon="20.23933">
        <ele>188.862238</ele>
        <time>2022-02-24T18:39:07.857Z</time>
      </trkpt>
      <trkpt lat="41.16504" lon="20.23909">
        <ele>188.934922</ele>
        <time>2022-02-24T18:39:12.968Z</time>
      </trkpt>
      <trkpt lat="41.1651" lon="20.23893">
        <ele>188.987783</ele>
        <time>2022-02-24T18:39:17.534Z</time>
      </trkpt>
      <trkpt lat="41.1653" lon="20.23841">
        <ele>188.954729</ele>
        <time>2022-02-24T18:39:28.789Z</time>
      </trkpt>
      <trkpt lat="41.16584" lon="20.23743">
        <ele>187.987676</ele>
        <time>2022-02-24T18:39:50.881Z</time>
      </trkpt>
      <trkpt lat="41.16611" lon="20.23617">
        <ele>186.742585</ele>
        <time>2022-02-24T18:40:11.860Z</time>
      </trkpt>
      <trkpt lat="41.16638" lon="20.23454">
        <ele>184.33346</ele>
        <time>2022-02-24T18:40:38.316Z</time>
      </trkpt>
      <trkpt lat="41.16645" lon="20.23333">
        <ele>183.113591</ele>
        <time>2022-02-24T18:40:58.174Z</time>
      </trkpt>
      <trkpt lat="41.16641" lon="20.23265">
        <ele>182.57644</ele>
        <time>2022-02-24T18:41:09.744Z</time>
      </trkpt>
      <trkpt lat="41.16625" lon="20.232">
        <ele>182.030678</ele>
        <time>2022-02-24T18:41:22.549Z</time>
      </trkpt>
      <trkpt lat="41.16587" lon="20.23132">
        <ele>181.664495</ele>
        <time>2022-02-24T18:41:38.680Z</time>
      </trkpt>
      <trkpt lat="41.16575" lon="20.23115">
        <ele>181.591916</ele>
        <time>2022-02-24T18:41:43.153Z</time>
      </trkpt>
      <trkpt lat="41.16499" lon="20.23008">
        <ele>181.136165</ele>
        <time>2022-02-24T18:42:10.485Z</time>
      </trkpt>
      <trkpt lat="41.1649" lon="20.23007">
        <ele>181.105189</ele>
        <time>2022-02-24T18:42:12.599Z</time>
      </trkpt>
      <trkpt lat="41.16478" lon="20.23002">
        <ele>181.068475</ele>
        <time>2022-02-24T18:42:16.003Z</time>
      </trkpt>
      <trkpt lat="41.16463" lon="20.22984">
        <ele>181.009125</ele>
        <time>2022-02-24T18:42:21.977Z</time>
      </trkpt>
      <trkpt lat="41.16454" lon="20.22978">
        <ele>180.981227</ele>
        <time>2022-02-24T18:42:24.322Z</time>
      </trkpt>
      <trkpt lat="41.1644" lon="20.22943">
        <ele>180.894562</ele>
        <time>2022-02-24T18:42:32.924Z</time>
      </trkpt>
      <trkpt lat="41.16436" lon="20.22919">
        <ele>180.842594</ele>
        <time>2022-02-24T18:42:38.025Z</time>
      </trkpt>
      <trkpt lat="41.16436" lon="20.22884">
        <ele>180.767433</ele>
        <time>2022-02-24T18:42:44.610Z</time>
      </trkpt>
      <trkpt lat="41.1643" lon="20.22859">
        <ele>180.710885</ele>
        <time>2022-02-24T18:42:49.957Z</time>
      </trkpt>
      <trkpt lat="41.16418" lon="20.22778">
        <ele>180.547833</ele>
        <time>2022-02-24T18:43:05.152Z</time>
      </trkpt>
      <trkpt lat="41.16418" lon="20.22724">
        <ele>180.457522</ele>
        <time>2022-02-24T18:43:15.984Z</time>
      </trkpt>
      <trkpt lat="41.16426" lon="20.22662">
        <ele>180.352042</ele>
        <time>2022-02-24T18:43:28.240Z</time>
      </trkpt>
      <trkpt lat="41.16501" lon="20.22408">
        <ele>180.032463</ele>
        <time>2022-02-24T18:44:21.244Z</time>
      </trkpt>
      <trkpt lat="41.16551" lon="20.22301">
        <ele>179.605982</ele>
        <time>2022-02-24T18:44:46.826Z</time>
      </trkpt>
      <trkpt lat="41.16582" lon="20.22204">
        <ele>179.044559</ele>
        <time>2022-02-24T18:45:05.675Z</time>
      </trkpt>
      <trkpt lat="41.16587" lon="20.22181">
        <ele>178.914989</ele>
        <time>2022-02-24T18:45:09.832Z</time>
      </trkpt>
      <trkpt lat="41.16592" lon="20.22159">
        <ele>178.796343</ele>
        <time>2022-02-24T18:45:13.460Z</time>
      </trkpt>
      <trkpt lat="41.16639" lon="20.21967">
        <ele>177.484484</ele>
        <time>2022-02-24T18:45:47.523Z</time>
      </trkpt>
      <trkpt lat="41.16662" lon="20.2187">
        <ele>177.632173</ele>
        <time>2022-02-24T18:46:08.534Z</time>
      </trkpt>
      <trkpt lat="41.16688" lon="20.21774">
        <ele>178.687267</ele>
        <time>2022-02-24T18:46:35.304Z</time>
      </trkpt>
      <trkpt lat="41.16724" lon="20.21642">
        <ele>179.816407</ele>
        <time>2022-02-24T18:47:14.072Z</time>
      </trkpt>
      <trkpt lat="41.16738" lon="20.2157">
        <ele>180.106618</ele>
        <time>2022-02-24T18:47:31.468Z</time>
      </trkpt>
      <trkpt lat="41.16744" lon="20.21501">
        <ele>180.381902</ele>
        <time>2022-02-24T18:47:45.728Z</time>
      </trkpt>
      <trkpt lat="41.16741" lon="20.21195">
        <ele>178.466737</ele>
        <time>2022-02-24T18:48:37.675Z</time>
      </trkpt>
      <trkpt lat="41.16728" lon="20.21057">
        <ele>178.057076</ele>
        <time>2022-02-24T18:49:03.827Z</time>
      </trkpt>
      <trkpt lat="41.16716" lon="20.20995">
        <ele>177.871685</ele>
        <time>2022-02-24T18:49:16.641Z</time>
      </trkpt>
      <trkpt lat="41.16702" lon="20.20937">
        <ele>177.883645</ele>
        <time>2022-02-24T18:49:29.517Z</time>
      </trkpt>
      <trkpt lat="41.16641" lon="20.20736">
        <ele>178.125439</ele>
        <time>2022-02-24T18:50:14.099Z</time>
      </trkpt>
      <trkpt lat="41.16635" lon="20.20699">
        <ele>178.196673</ele>
        <time>2022-02-24T18:50:21.824Z</time>
      </trkpt>
      <trkpt lat="41.16634" lon="20.20661">
        <ele>178.268894</ele>
        <time>2022-02-24T18:50:29.842Z</time>
      </trkpt>
      <trkpt lat="41.16639" lon="20.2058">
        <ele>178.422244</ele>
        <time>2022-02-24T18:50:46.958Z</time>
      </trkpt>
      <trkpt lat="41.16638" lon="20.20551">
        <ele>178.478494</ele>
        <time>2022-02-24T18:50:52.985Z</time>
      </trkpt>
      <trkpt lat="41.16636" lon="20.20541">
        <ele>178.497556</ele>
        <time>2022-02-24T18:50:54.993Z</time>
      </trkpt>
      <trkpt lat="41.16635" lon="20.20535">
        <ele>178.509471</ele>
        <time>2022-02-24T18:50:56.745Z</time>
      </trkpt>
      <trkpt lat="41.16606" lon="20.20456">
        <ele>178.965269</ele>
        <time>2022-02-24T18:51:15.387Z</time>
      </trkpt>
      <trkpt lat="41.16596" lon="20.20408">
        <ele>179.242748</ele>
        <time>2022-02-24T18:51:26.754Z</time>
      </trkpt>
      <trkpt lat="41.16595" lon="20.20378">
        <ele>179.414553</ele>
        <time>2022-02-24T18:51:34.256Z</time>
      </trkpt>
      <trkpt lat="41.16608" lon="20.20271">
        <ele>180.082843</ele>
        <time>2022-02-24T18:51:59.636Z</time>
      </trkpt>
      <trkpt lat="41.16611" lon="20.20244">
        <ele>180.294108</ele>
        <time>2022-02-24T18:52:06.256Z</time>
      </trkpt>
      <trkpt lat="41.16614" lon="20.20096">
        <ele>181.454219</ele>
        <time>2022-02-24T18:52:42.044Z</time>
      </trkpt>
      <trkpt lat="41.16614" lon="20.2007">
        <ele>181.655979</ele>
        <time>2022-02-24T18:52:48.332Z</time>
      </trkpt>
      <trkpt lat="41.16613" lon="20.20058">
        <ele>181.739759</ele>
        <time>2022-02-24T18:52:51.206Z</time>
      </trkpt>
      <trkpt lat="41.16611" lon="20.20045">
        <ele>181.760879</ele>
        <time>2022-02-24T18:52:54.272Z</time>
      </trkpt>
      <trkpt lat="41.166" lon="20.1996">
        <ele>181.902437</ele>
        <time>2022-02-24T18:53:13.594Z</time>
      </trkpt>
      <trkpt lat="41.16598" lon="20.19949">
        <ele>181.920383</ele>
        <time>2022-02-24T18:53:16.066Z</time>
      </trkpt>
      <trkpt lat="41.16573" lon="20.19861">
        <ele>182.073464</ele>
        <time>2022-02-24T18:53:35.188Z</time>
      </trkpt>
      <trkpt lat="41.16558" lon="20.19829">
        <ele>182.054261</ele>
        <time>2022-02-24T18:53:42.248Z</time>
      </trkpt>
      <trkpt lat="41.16537" lon="20.19795">
        <ele>181.507409</ele>
        <time>2022-02-24T18:53:49.808Z</time>
      </trkpt>
      <trkpt lat="41.16491" lon="20.19742">
        <ele>180.482232</ele>
        <time>2022-02-24T18:54:03.151Z</time>
      </trkpt>
      <trkpt lat="41.16474" lon="20.19727">
        <ele>180.133158</ele>
        <time>2022-02-24T18:54:07.456Z</time>
      </trkpt>
      <trkpt lat="41.16439" lon="20.19697">
        <ele>179.433626</ele>
        <time>2022-02-24T18:54:16.145Z</time>
      </trkpt>
      <trkpt lat="41.16349" lon="20.19623">
        <ele>176.798579</ele>
        <time>2022-02-24T18:54:37.452Z</time>
      </trkpt>
      <trkpt lat="41.16278" lon="20.19563">
        <ele>174.523287</ele>
        <time>2022-02-24T18:54:54.522Z</time>
      </trkpt>
      <trkpt lat="41.16181" lon="20.19428">
        <ele>169.824502</ele>
        <time>2022-02-24T18:55:21.923Z</time>
      </trkpt>
      <trkpt lat="41.16154" lon="20.19401">
        <ele>168.655904</ele>
        <time>2022-02-24T18:55:28.390Z</time>
      </trkpt>
      <trkpt lat="41.16133" lon="20.19381">
        <ele>167.848052</ele>
        <time>2022-02-24T18:55:33.074Z</time>
      </trkpt>
      <trkpt lat="41.161" lon="20.19349">
        <ele>166.621392</ele>
        <time>2022-02-24T18:55:40.996Z</time>
      </trkpt>
      <trkpt lat="41.16075" lon="20.19324">
        <ele>165.695003</ele>
        <time>2022-02-24T18:55:47.012Z</time>
      </trkpt>
      <trkpt lat="41.1605" lon="20.19298">
        <ele>164.752384</ele>
        <time>2022-02-24T18:55:53.297Z</time>
      </trkpt>
      <trkpt lat="41.16043" lon="20.1929">
        <ele>164.46527</ele>
        <time>2022-02-24T18:55:55.195Z</time>
      </trkpt>
      <trkpt lat="41.16034" lon="20.19246">
        <ele>163.450076</ele>
        <time>2022-02-24T18:56:02.063Z</time>
      </trkpt>
      <trkpt lat="41.16036" lon="20.19196">
        <ele>162.742787</ele>
        <time>2022-02-24T18:56:10.199Z</time>
      </trkpt>
      <trkpt lat="41.16037" lon="20.19149">
        <ele>162.590415</ele>
        <time>2022-02-24T18:56:18.039Z</time>
      </trkpt>
      <trkpt lat="41.16035" lon="20.19119">
        <ele>162.492095</ele>
        <time>2022-02-24T18:56:23.935Z</time>
      </trkpt>
      <trkpt lat="41.16034" lon="20.19104">
        <ele>162.442447</ele>
        <time>2022-02-24T18:56:26.556Z</time>
      </trkpt>
      <trkpt lat="41.16018" lon="20.18982">
        <ele>162.040891</ele>
        <time>2022-02-24T18:56:53.403Z</time>
      </trkpt>
      <trkpt lat="41.16013" lon="20.18879">
        <ele>162.03192</ele>
        <time>2022-02-24T18:57:14.966Z</time>
      </trkpt>
      <trkpt lat="41.16004" lon="20.1881">
        <ele>162.02927</ele>
        <time>2022-02-24T18:57:29.451Z</time>
      </trkpt>
      <trkpt lat="41.15909" lon="20.18445">
        <ele>160.559019</ele>
        <time>2022-02-24T18:58:41.205Z</time>
      </trkpt>
      <trkpt lat="41.15896" lon="20.18357">
        <ele>159.873983</ele>
        <time>2022-02-24T18:58:56.294Z</time>
      </trkpt>
      <trkpt lat="41.159" lon="20.18279">
        <ele>159.266926</ele>
        <time>2022-02-24T18:59:09.552Z</time>
      </trkpt>
      <trkpt lat="41.15908" lon="20.18231">
        <ele>158.844658</ele>
        <time>2022-02-24T18:59:17.916Z</time>
      </trkpt>
      <trkpt lat="41.15917" lon="20.18195">
        <ele>158.517806</ele>
        <time>2022-02-24T18:59:24.360Z</time>
      </trkpt>
      <trkpt lat="41.1597" lon="20.18054">
        <ele>157.142116</ele>
        <time>2022-02-24T18:59:51.762Z</time>
      </trkpt>
      <trkpt lat="41.16028" lon="20.17782">
        <ele>154.48813</ele>
        <time>2022-02-24T19:00:39.538Z</time>
      </trkpt>
      <trkpt lat="41.16038" lon="20.17652">
        <ele>153.38548</ele>
        <time>2022-02-24T19:01:01.699Z</time>
      </trkpt>
      <trkpt lat="41.16033" lon="20.1756">
        <ele>152.929106</ele>
        <time>2022-02-24T19:01:18.056Z</time>
      </trkpt>
      <trkpt lat="41.16027" lon="20.1751">
        <ele>152.88923</ele>
        <time>2022-02-24T19:01:27.538Z</time>
      </trkpt>
      <trkpt lat="41.16008" lon="20.17428">
        <ele>152.821916</ele>
        <time>2022-02-24T19:01:44.762Z</time>
      </trkpt>
      <trkpt lat="41.15954" lon="20.17272">
        <ele>153.42558</ele>
        <time>2022-02-24T19:02:23.026Z</time>
      </trkpt>
      <trkpt lat="41.15856" lon="20.17074">
        <ele>154.440914</ele>
        <time>2022-02-24T19:03:18.958Z</time>
      </trkpt>
      <trkpt lat="41.15785" lon="20.16971">
        <ele>154.690608</ele>
        <time>2022-02-24T19:03:46.612Z</time>
      </trkpt>
      <trkpt lat="41.15746" lon="20.16926">
        <ele>154.195063</ele>
        <time>2022-02-24T19:03:58.800Z</time>
      </trkpt>
      <trkpt lat="41.15636" lon="20.16819">
        <ele>152.866033</ele>
        <time>2022-02-24T19:04:29.597Z</time>
      </trkpt>
      <trkpt lat="41.15508" lon="20.16691">
        <ele>151.265822</ele>
        <time>2022-02-24T19:05:06.330Z</time>
      </trkpt>
      <trkpt lat="41.15316" lon="20.16501">
        <ele>150.613168</ele>
        <time>2022-02-24T19:06:06.648Z</time>
      </trkpt>
      <trkpt lat="41.15233" lon="20.16422">
        <ele>150.92542</ele>
        <time>2022-02-24T19:06:36.726Z</time>
      </trkpt>
      <trkpt lat="41.15137" lon="20.16334">
        <ele>151.532971</ele>
        <time>2022-02-24T19:07:12.340Z</time>
      </trkpt>
      <trkpt lat="41.15108" lon="20.16307">
        <ele>151.732014</ele>
        <time>2022-02-24T19:07:22.746Z</time>
      </trkpt>
      <trkpt lat="41.15075" lon="20.16277">
        <ele>151.963595</ele>
        <time>2022-02-24T19:07:34.581Z</time>
      </trkpt>
      <trkpt lat="41.14995" lon="20.16204">
        <ele>151.283535</ele>
        <time>2022-02-24T19:07:59.854Z</time>
      </trkpt>
      <trkpt lat="41.14983" lon="20.16195">
        <ele>151.169825</ele>
        <time>2022-02-24T19:08:02.987Z</time>
      </trkpt>
      <trkpt lat="41.14965" lon="20.16178">
        <ele>150.985775</ele>
        <time>2022-02-24T19:08:08.228Z</time>
      </trkpt>
      <trkpt lat="41.14953" lon="20.16167">
        <ele>150.857037</ele>
        <time>2022-02-24T19:08:11.626Z</time>
      </trkpt>
      <trkpt lat="41.14914" lon="20.16133">
        <ele>150.418848</ele>
        <time>2022-02-24T19:08:21.242Z</time>
      </trkpt>
      <trkpt lat="41.14892" lon="20.16113">
        <ele>149.889605</ele>
        <time>2022-02-24T19:08:26.735Z</time>
      </trkpt>
      <trkpt lat="41.14834" lon="20.16064">
        <ele>148.542147</ele>
        <time>2022-02-24T19:08:41.191Z</time>
      </trkpt>
      <trkpt lat="41.14809" lon="20.16044">
        <ele>147.956033</ele>
        <time>2022-02-24T19:08:47.494Z</time>
      </trkpt>
      <trkpt lat="41.14783" lon="20.16022">
        <ele>147.359311</ele>
        <time>2022-02-24T19:08:53.909Z</time>
      </trkpt>
      <trkpt lat="41.14718" lon="20.15969">
        <ele>146.267938</ele>
        <time>2022-02-24T19:09:10.305Z</time>
      </trkpt>
      <trkpt lat="41.14698" lon="20.15947">
        <ele>145.94879</ele>
        <time>2022-02-24T19:09:15.966Z</time>
      </trkpt>
      <trkpt lat="41.14683" lon="20.15926">
        <ele>145.683485</ele>
        <time>2022-02-24T19:09:20.844Z</time>
      </trkpt>
      <trkpt lat="41.14678" lon="20.15916">
        <ele>145.563177</ele>
        <time>2022-02-24T19:09:23.256Z</time>
      </trkpt>
      <trkpt lat="41.14674" lon="20.15909">
        <ele>145.483723</ele>
        <time>2022-02-24T19:09:24.713Z</time>
      </trkpt>
      <trkpt lat="41.1466" lon="20.1588">
        <ele>145.163764</ele>
        <time>2022-02-24T19:09:31.322Z</time>
      </trkpt>
      <trkpt lat="41.14639" lon="20.15839">
        <ele>144.713512</ele>
        <time>2022-02-24T19:09:40.393Z</time>
      </trkpt>
      <trkpt lat="41.14605" lon="20.1579">
        <ele>144.247154</ele>
        <time>2022-02-24T19:09:51.677Z</time>
      </trkpt>
      <trkpt lat="41.145" lon="20.15672">
        <ele>143.063084</ele>
        <time>2022-02-24T19:10:23.466Z</time>
      </trkpt>
      <trkpt lat="41.14497" lon="20.15668">
        <ele>143.062271</ele>
        <time>2022-02-24T19:10:24.398Z</time>
      </trkpt>
      <trkpt lat="41.14485" lon="20.15653">
        <ele>143.059037</ele>
        <time>2022-02-24T19:10:28.780Z</time>
      </trkpt>
      <trkpt lat="41.14402" lon="20.15505">
        <ele>143.03255</ele>
        <time>2022-02-24T19:11:06.757Z</time>
      </trkpt>
      <trkpt lat="41.14373" lon="20.15464">
        <ele>143.204307</ele>
        <time>2022-02-24T19:11:19.135Z</time>
      </trkpt>
      <trkpt lat="41.14326" lon="20.15402">
        <ele>143.550356</ele>
        <time>2022-02-24T19:11:38.020Z</time>
      </trkpt>
      <trkpt lat="41.14247" lon="20.15263">
        <ele>144.590362</ele>
        <time>2022-02-24T19:12:17.284Z</time>
      </trkpt>
      <trkpt lat="41.14221" lon="20.15217">
        <ele>145.120322</ele>
        <time>2022-02-24T19:12:31.251Z</time>
      </trkpt>
      <trkpt lat="41.14201" lon="20.15186">
        <ele>145.491026</ele>
        <time>2022-02-24T19:12:41.593Z</time>
      </trkpt>
      <trkpt lat="41.14182" lon="20.15157">
        <ele>145.840448</ele>
        <time>2022-02-24T19:12:51.354Z</time>
      </trkpt>
      <trkpt lat="41.14102" lon="20.15049">
        <ele>147.431676</ele>
        <time>2022-02-24T19:13:31.148Z</time>
      </trkpt>
      <trkpt lat="41.14074" lon="20.1501">
        <ele>148.023096</ele>
        <time>2022-02-24T19:13:44.778Z</time>
      </trkpt>
      <trkpt lat="41.14038" lon="20.14952">
        <ele>148.79602</ele>
        <time>2022-02-24T19:14:03.216Z</time>
      </trkpt>
      <trkpt lat="41.14019" lon="20.14927">
        <ele>148.950935</ele>
        <time>2022-02-24T19:14:11.664Z</time>
      </trkpt>
      <trkpt lat="41.14013" lon="20.1492">
        <ele>148.998664</ele>
        <time>2022-02-24T19:14:14.087Z</time>
      </trkpt>
      <trkpt lat="41.13901" lon="20.14783">
        <ele>149.653133</ele>
        <time>2022-02-24T19:14:59.047Z</time>
      </trkpt>
      <trkpt lat="41.13856" lon="20.14712">
        <ele>148.658869</ele>
        <time>2022-02-24T19:15:15.701Z</time>
      </trkpt>
      <trkpt lat="41.13831" lon="20.14675">
        <ele>148.136417</ele>
        <time>2022-02-24T19:15:23.718Z</time>
      </trkpt>
      <trkpt lat="41.13769" lon="20.1458">
        <ele>146.09742</ele>
        <time>2022-02-24T19:15:42.840Z</time>
      </trkpt>
      <trkpt lat="41.13678" lon="20.14458">
        <ele>141.618702</ele>
        <time>2022-02-24T19:16:07.487Z</time>
      </trkpt>
      <trkpt lat="41.13588" lon="20.14346">
        <ele>137.493101</ele>
        <time>2022-02-24T19:16:31.249Z</time>
      </trkpt>
      <trkpt lat="41.1356" lon="20.14311">
        <ele>136.221797</ele>
        <time>2022-02-24T19:16:38.706Z</time>
      </trkpt>
      <trkpt lat="41.13466" lon="20.14195">
        <ele>133.09427</ele>
        <time>2022-02-24T19:17:04.542Z</time>
      </trkpt>
      <trkpt lat="41.13409" lon="20.14105">
        <ele>131.231375</ele>
        <time>2022-02-24T19:17:23.930Z</time>
      </trkpt>
      <trkpt lat="41.1336" lon="20.14024">
        <ele>130.372972</ele>
        <time>2022-02-24T19:17:41.696Z</time>
      </trkpt>
      <trkpt lat="41.13302" lon="20.13929">
        <ele>129.365192</ele>
        <time>2022-02-24T19:18:03.064Z</time>
      </trkpt>
      <trkpt lat="41.13254" lon="20.13847">
        <ele>128.914032</ele>
        <time>2022-02-24T19:18:21.640Z</time>
      </trkpt>
      <trkpt lat="41.13231" lon="20.13807">
        <ele>128.711891</ele>
        <time>2022-02-24T19:18:30.916Z</time>
      </trkpt>
      <trkpt lat="41.13199" lon="20.13754">
        <ele>128.445345</ele>
        <time>2022-02-24T19:18:43.610Z</time>
      </trkpt>
      <trkpt lat="41.13177" lon="20.13718">
        <ele>128.360336</ele>
        <time>2022-02-24T19:18:52.762Z</time>
      </trkpt>
      <trkpt lat="41.13074" lon="20.13475">
        <ele>128.443246</ele>
        <time>2022-02-24T19:19:51.006Z</time>
      </trkpt>
      <trkpt lat="41.13053" lon="20.13438">
        <ele>128.353326</ele>
        <time>2022-02-24T19:20:00.114Z</time>
      </trkpt>
      <trkpt lat="41.12971" lon="20.13327">
        <ele>127.95729</ele>
        <time>2022-02-24T19:20:29.131Z</time>
      </trkpt>
      <trkpt lat="41.12905" lon="20.13192">
        <ele>127.017954</ele>
        <time>2022-02-24T19:20:57.423Z</time>
      </trkpt>
      <trkpt lat="41.12882" lon="20.13156">
        <ele>126.744883</ele>
        <time>2022-02-24T19:21:05.868Z</time>
      </trkpt>
      <trkpt lat="41.12863" lon="20.13121">
        <ele>126.724523</ele>
        <time>2022-02-24T19:21:13.805Z</time>
      </trkpt>
      <trkpt lat="41.12833" lon="20.13042">
        <ele>126.767452</ele>
        <time>2022-02-24T19:21:30.569Z</time>
      </trkpt>
      <trkpt lat="41.1281" lon="20.12973">
        <ele>126.804583</ele>
        <time>2022-02-24T19:21:47.093Z</time>
      </trkpt>
      <trkpt lat="41.12789" lon="20.12906">
        <ele>127.047966</ele>
        <time>2022-02-24T19:22:04.511Z</time>
      </trkpt>
      <trkpt lat="41.12762" lon="20.12832">
        <ele>127.578264</ele>
        <time>2022-02-24T19:22:23.056Z</time>
      </trkpt>
      <trkpt lat="41.12737" lon="20.12757">
        <ele>128.107184</ele>
        <time>2022-02-24T19:22:42.027Z</time>
      </trkpt>
      <trkpt lat="41.12697" lon="20.1264">
        <ele>128.783152</ele>
        <time>2022-02-24T19:23:12.262Z</time>
      </trkpt>
      <trkpt lat="41.12683" lon="20.12599">
        <ele>128.996159</ele>
        <time>2022-02-24T19:23:21.971Z</time>
      </trkpt>
      <trkpt lat="41.1267" lon="20.12564">
        <ele>129.178877</ele>
        <time>2022-02-24T19:23:30.195Z</time>
      </trkpt>
      <trkpt lat="41.12655" lon="20.12524">
        <ele>129.38723</ele>
        <time>2022-02-24T19:23:39.716Z</time>
      </trkpt>
      <trkpt lat="41.1265" lon="20.12512">
        <ele>129.453796</ele>
        <time>2022-02-24T19:23:42.462Z</time>
      </trkpt>
      <trkpt lat="41.12632" lon="20.12471">
        <ele>129.766371</ele>
        <time>2022-02-24T19:23:53.096Z</time>
      </trkpt>
      <trkpt lat="41.12606" lon="20.12419">
        <ele>130.218069</ele>
        <time>2022-02-24T19:24:08.776Z</time>
      </trkpt>
      <trkpt lat="41.12601" lon="20.12412">
        <ele>130.279598</ele>
        <time>2022-02-24T19:24:11.012Z</time>
      </trkpt>
      <trkpt lat="41.12582" lon="20.12372">
        <ele>130.620701</ele>
        <time>2022-02-24T19:24:22.762Z</time>
      </trkpt>
      <trkpt lat="41.12568" lon="20.12339">
        <ele>130.887504</ele>
        <time>2022-02-24T19:24:31.379Z</time>
      </trkpt>
      <trkpt lat="41.12555" lon="20.12304">
        <ele>131.167101</ele>
        <time>2022-02-24T19:24:40.469Z</time>
      </trkpt>
      <trkpt lat="41.1254" lon="20.12259">
        <ele>131.325234</ele>
        <time>2022-02-24T19:24:51.737Z</time>
      </trkpt>
      <trkpt lat="41.12525" lon="20.12212">
        <ele>131.474318</ele>
        <time>2022-02-24T19:25:03.637Z</time>
      </trkpt>
      <trkpt lat="41.12502" lon="20.12165">
        <ele>131.639946</ele>
        <time>2022-02-24T19:25:16.099Z</time>
      </trkpt>
      <trkpt lat="41.12467" lon="20.1209">
        <ele>131.873683</ele>
        <time>2022-02-24T19:25:34.083Z</time>
      </trkpt>
      <trkpt lat="41.1246" lon="20.12077">
        <ele>131.730763</ele>
        <time>2022-02-24T19:25:37.026Z</time>
      </trkpt>
      <trkpt lat="41.12451" lon="20.12055">
        <ele>131.508503</ele>
        <time>2022-02-24T19:25:41.673Z</time>
      </trkpt>
      <trkpt lat="41.12447" lon="20.12043">
        <ele>131.386913</ele>
        <time>2022-02-24T19:25:43.999Z</time>
      </trkpt>
      <trkpt lat="41.12437" lon="20.12005">
        <ele>131.029409</ele>
        <time>2022-02-24T19:25:50.862Z</time>
      </trkpt>
      <trkpt lat="41.1243" lon="20.11966">
        <ele>130.677213</ele>
        <time>2022-02-24T19:25:57.501Z</time>
      </trkpt>
      <trkpt lat="41.12425" lon="20.11918">
        <ele>130.246111</ele>
        <time>2022-02-24T19:26:05.485Z</time>
      </trkpt>
      <trkpt lat="41.12412" lon="20.11748">
        <ele>128.431487</ele>
        <time>2022-02-24T19:26:33.233Z</time>
      </trkpt>
      <trkpt lat="41.12409" lon="20.11701">
        <ele>127.905906</ele>
        <time>2022-02-24T19:26:40.860Z</time>
      </trkpt>
      <trkpt lat="41.12402" lon="20.11635">
        <ele>127.138641</ele>
        <time>2022-02-24T19:26:52.284Z</time>
      </trkpt>
      <trkpt lat="41.12397" lon="20.11596">
        <ele>127.024861</ele>
        <time>2022-02-24T19:26:59.034Z</time>
      </trkpt>
      <trkpt lat="41.12379" lon="20.11491">
        <ele>126.915419</ele>
        <time>2022-02-24T19:27:19.485Z</time>
      </trkpt>
      <trkpt lat="41.12366" lon="20.11399">
        <ele>126.820968</ele>
        <time>2022-02-24T19:27:39.509Z</time>
      </trkpt>
      <trkpt lat="41.12349" lon="20.1129">
        <ele>128.279229</ele>
        <time>2022-02-24T19:28:06.629Z</time>
      </trkpt>
      <trkpt lat="41.12328" lon="20.11213">
        <ele>129.415703</ele>
        <time>2022-02-24T19:28:29.249Z</time>
      </trkpt>
      <trkpt lat="41.12313" lon="20.11173">
        <ele>130.03468</ele>
        <time>2022-02-24T19:28:42.545Z</time>
      </trkpt>
      <trkpt lat="41.12265" lon="20.11042">
        <ele>133.697528</ele>
        <time>2022-02-24T19:29:29.011Z</time>
      </trkpt>
      <trkpt lat="41.12246" lon="20.10982">
        <ele>135.378619</ele>
        <time>2022-02-24T19:29:52.142Z</time>
      </trkpt>
      <trkpt lat="41.12228" lon="20.10873">
        <ele>137.989958</ele>
        <time>2022-02-24T19:30:29.066Z</time>
      </trkpt>
      <trkpt lat="41.12219" lon="20.10807">
        <ele>139.483976</ele>
        <time>2022-02-24T19:30:50.139Z</time>
      </trkpt>
      <trkpt lat="41.1221" lon="20.10735">
        <ele>141.103225</ele>
        <time>2022-02-24T19:31:12.554Z</time>
      </trkpt>
      <trkpt lat="41.12196" lon="20.10626">
        <ele>140.94393</ele>
        <time>2022-02-24T19:31:40.185Z</time>
      </trkpt>
      <trkpt lat="41.12184" lon="20.10519">
        <ele>140.154948</ele>
        <time>2022-02-24T19:31:57.003Z</time>
      </trkpt>
      <trkpt lat="41.12174" lon="20.10409">
        <ele>138.111449</ele>
        <time>2022-02-24T19:32:13.474Z</time>
      </trkpt>
      <trkpt lat="41.12172" lon="20.10387">
        <ele>137.540841</ele>
        <time>2022-02-24T19:32:16.610Z</time>
      </trkpt>
      <trkpt lat="41.12166" lon="20.10358">
        <ele>136.803908</ele>
        <time>2022-02-24T19:32:20.977Z</time>
      </trkpt>
      <trkpt lat="41.12162" lon="20.10347">
        <ele>136.48451</ele>
        <time>2022-02-24T19:32:22.662Z</time>
      </trkpt>
      <trkpt lat="41.1216" lon="20.10338">
        <ele>136.243807</ele>
        <time>2022-02-24T19:32:24.030Z</time>
      </trkpt>
      <trkpt lat="41.12155" lon="20.103">
        <ele>135.290906</ele>
        <time>2022-02-24T19:32:29.273Z</time>
      </trkpt>
      <trkpt lat="41.12155" lon="20.10296">
        <ele>135.177128</ele>
        <time>2022-02-24T19:32:29.873Z</time>
      </trkpt>
      <trkpt lat="41.12156" lon="20.10292">
        <ele>135.080178</ele>
        <time>2022-02-24T19:32:30.456Z</time>
      </trkpt>
      <trkpt lat="41.12158" lon="20.10266">
        <ele>134.415848</ele>
        <time>2022-02-24T19:32:34.457Z</time>
      </trkpt>
      <trkpt lat="41.12158" lon="20.1026">
        <ele>134.266652</ele>
        <time>2022-02-24T19:32:35.280Z</time>
      </trkpt>
      <trkpt lat="41.12158" lon="20.10253">
        <ele>134.100292</ele>
        <time>2022-02-24T19:32:36.175Z</time>
      </trkpt>
      <trkpt lat="41.12153" lon="20.1023">
        <ele>133.766264</ele>
        <time>2022-02-24T19:32:40.077Z</time>
      </trkpt>
      <trkpt lat="41.1215" lon="20.10221">
        <ele>133.722495</ele>
        <time>2022-02-24T19:32:41.582Z</time>
      </trkpt>
      <trkpt lat="41.12143" lon="20.10202">
        <ele>133.618514</ele>
        <time>2022-02-24T19:32:44.799Z</time>
      </trkpt>
      <trkpt lat="41.12126" lon="20.10163">
        <ele>133.399538</ele>
        <time>2022-02-24T19:32:52.982Z</time>
      </trkpt>
      <trkpt lat="41.12112" lon="20.10126">
        <ele>133.196917</ele>
        <time>2022-02-24T19:33:01.580Z</time>
      </trkpt>
      <trkpt lat="41.12097" lon="20.10085">
        <ele>132.980859</ele>
        <time>2022-02-24T19:33:10.793Z</time>
      </trkpt>
      <trkpt lat="41.12086" lon="20.1005">
        <ele>132.793076</ele>
        <time>2022-02-24T19:33:18.980Z</time>
      </trkpt>
      <trkpt lat="41.12073" lon="20.10008">
        <ele>132.766208</ele>
        <time>2022-02-24T19:33:28.768Z</time>
      </trkpt>
      <trkpt lat="41.12064" lon="20.09976">
        <ele>132.908416</ele>
        <time>2022-02-24T19:33:36.581Z</time>
      </trkpt>
      <trkpt lat="41.12046" lon="20.09919">
        <ele>133.159606</ele>
        <time>2022-02-24T19:33:50.605Z</time>
      </trkpt>
      <trkpt lat="41.11999" lon="20.09757">
        <ele>133.596076</ele>
        <time>2022-02-24T19:34:28.811Z</time>
      </trkpt>
      <trkpt lat="41.11999" lon="20.09752">
        <ele>133.589569</ele>
        <time>2022-02-24T19:34:29.860Z</time>
      </trkpt>
      <trkpt lat="41.11991" lon="20.09723">
        <ele>133.550706</ele>
        <time>2022-02-24T19:34:36.152Z</time>
      </trkpt>
      <trkpt lat="41.11989" lon="20.09714">
        <ele>133.537679</ele>
        <time>2022-02-24T19:34:38.289Z</time>
      </trkpt>
      <trkpt lat="41.11976" lon="20.09682">
        <ele>133.49236</ele>
        <time>2022-02-24T19:34:45.266Z</time>
      </trkpt>
      <trkpt lat="41.11952" lon="20.09631">
        <ele>133.416592</ele>
        <time>2022-02-24T19:34:56.493Z</time>
      </trkpt>
      <trkpt lat="41.11945" lon="20.09619">
        <ele>133.396985</ele>
        <time>2022-02-24T19:34:59.275Z</time>
      </trkpt>
      <trkpt lat="41.11891" lon="20.09506">
        <ele>132.66573</ele>
        <time>2022-02-24T19:35:22.851Z</time>
      </trkpt>
      <trkpt lat="41.11881" lon="20.09486">
        <ele>132.503984</ele>
        <time>2022-02-24T19:35:27.056Z</time>
      </trkpt>
      <trkpt lat="41.11861" lon="20.09444">
        <ele>132.169232</ele>
        <time>2022-02-24T19:35:35.664Z</time>
      </trkpt>
      <trkpt lat="41.11801" lon="20.09318">
        <ele>131.38529</ele>
        <time>2022-02-24T19:36:01.985Z</time>
      </trkpt>
      <trkpt lat="41.11792" lon="20.093">
        <ele>131.287202</ele>
        <time>2022-02-24T19:36:06.218Z</time>
      </trkpt>
      <trkpt lat="41.11759" lon="20.09246">
        <ele>130.990051</ele>
        <time>2022-02-24T19:36:19.246Z</time>
      </trkpt>
      <trkpt lat="41.11677" lon="20.09105">
        <ele>130.366659</ele>
        <time>2022-02-24T19:36:52.988Z</time>
      </trkpt>
      <trkpt lat="41.11662" lon="20.0907">
        <ele>130.241115</ele>
        <time>2022-02-24T19:37:00.526Z</time>
      </trkpt>
      <trkpt lat="41.11649" lon="20.09031">
        <ele>130.109929</ele>
        <time>2022-02-24T19:37:08.496Z</time>
      </trkpt>
      <trkpt lat="41.11647" lon="20.09025">
        <ele>130.089457</ele>
        <time>2022-02-24T19:37:09.701Z</time>
      </trkpt>
      <trkpt lat="41.11635" lon="20.08991">
        <ele>129.961476</ele>
        <time>2022-02-24T19:37:16.711Z</time>
      </trkpt>
      <trkpt lat="41.11622" lon="20.08954">
        <ele>129.763576</ele>
        <time>2022-02-24T19:37:24.305Z</time>
      </trkpt>
      <trkpt lat="41.11611" lon="20.08922">
        <ele>129.593182</ele>
        <time>2022-02-24T19:37:30.831Z</time>
      </trkpt>
      <trkpt lat="41.11608" lon="20.08914">
        <ele>129.550187</ele>
        <time>2022-02-24T19:37:32.482Z</time>
      </trkpt>
      <trkpt lat="41.11583" lon="20.08837">
        <ele>129.143943</ele>
        <time>2022-02-24T19:37:47.624Z</time>
      </trkpt>
      <trkpt lat="41.11577" lon="20.08838">
        <ele>129.104613</ele>
        <time>2022-02-24T19:37:49.080Z</time>
      </trkpt>
      <trkpt lat="41.11568" lon="20.08842">
        <ele>129.040496</ele>
        <time>2022-02-24T19:37:51.469Z</time>
      </trkpt>
      <trkpt lat="41.11545" lon="20.08771">
        <ele>128.761215</ele>
        <time>2022-02-24T19:38:05.943Z</time>
      </trkpt>
      <trkpt lat="41.11544" lon="20.08761">
        <ele>128.739928</ele>
        <time>2022-02-24T19:38:07.804Z</time>
      </trkpt>
      <trkpt lat="41.11541" lon="20.08756">
        <ele>128.725216</ele>
        <time>2022-02-24T19:38:09.010Z</time>
      </trkpt>
      <trkpt lat="41.11529" lon="20.08741">
        <ele>128.680443</ele>
        <time>2022-02-24T19:38:13.137Z</time>
      </trkpt>
      <trkpt lat="41.11524" lon="20.08733">
        <ele>128.657752</ele>
        <time>2022-02-24T19:38:15.142Z</time>
      </trkpt>
      <trkpt lat="41.11467" lon="20.08682">
        <ele>128.462606</ele>
        <time>2022-02-24T19:38:32.718Z</time>
      </trkpt>
      <trkpt lat="41.11451" lon="20.08669">
        <ele>128.409789</ele>
        <time>2022-02-24T19:38:37.787Z</time>
      </trkpt>
      <trkpt lat="41.11437" lon="20.08655">
        <ele>128.360023</ele>
        <time>2022-02-24T19:38:42.588Z</time>
      </trkpt>
      <trkpt lat="41.11423" lon="20.08644">
        <ele>128.339542</ele>
        <time>2022-02-24T19:38:46.858Z</time>
      </trkpt>
      <trkpt lat="41.11405" lon="20.08587">
        <ele>128.470159</ele>
        <time>2022-02-24T19:38:59.903Z</time>
      </trkpt>
      <trkpt lat="41.11386" lon="20.08528">
        <ele>128.606893</ele>
        <time>2022-02-24T19:39:13.675Z</time>
      </trkpt>
      <trkpt lat="41.11383" lon="20.08519">
        <ele>128.627348</ele>
        <time>2022-02-24T19:39:15.922Z</time>
      </trkpt>
      <trkpt lat="41.1138" lon="20.08509">
        <ele>128.648671</ele>
        <time>2022-02-24T19:39:17.979Z</time>
      </trkpt>
      <trkpt lat="41.11346" lon="20.08398">
        <ele>128.907905</ele>
        <time>2022-02-24T19:39:43.612Z</time>
      </trkpt>
      <trkpt lat="41.11343" lon="20.08387">
        <ele>128.934999</ele>
        <time>2022-02-24T19:39:46.348Z</time>
      </trkpt>
      <trkpt lat="41.1134" lon="20.08376">
        <ele>128.962088</ele>
        <time>2022-02-24T19:39:48.706Z</time>
      </trkpt>
      <trkpt lat="41.11325" lon="20.08328">
        <ele>129.08063</ele>
        <time>2022-02-24T19:39:59.615Z</time>
      </trkpt>
      <trkpt lat="41.11286" lon="20.08199">
        <ele>129.42166</ele>
        <time>2022-02-24T19:40:28.367Z</time>
      </trkpt>
      <trkpt lat="41.11284" lon="20.0819">
        <ele>129.47174</ele>
        <time>2022-02-24T19:40:30.620Z</time>
      </trkpt>
      <trkpt lat="41.11281" lon="20.0818">
        <ele>129.522534</ele>
        <time>2022-02-24T19:40:32.974Z</time>
      </trkpt>
      <trkpt lat="41.1123" lon="20.08017">
        <ele>130.405488</ele>
        <time>2022-02-24T19:41:12.677Z</time>
      </trkpt>
      <trkpt lat="41.11225" lon="20.08">
        <ele>130.495849</ele>
        <time>2022-02-24T19:41:17.434Z</time>
      </trkpt>
      <trkpt lat="41.11226" lon="20.08">
        <ele>130.502533</ele>
        <time>2022-02-24T19:41:17.723Z</time>
      </trkpt>
      <trkpt lat="41.11229" lon="20.07995">
        <ele>130.535936</ele>
        <time>2022-02-24T19:41:19.336Z</time>
      </trkpt>
      <trkpt lat="41.1123" lon="20.07994">
        <ele>130.542794</ele>
        <time>2022-02-24T19:41:19.626Z</time>
      </trkpt>
      <trkpt lat="41.1123" lon="20.07992">
        <ele>130.549593</ele>
        <time>2022-02-24T19:41:19.889Z</time>
      </trkpt>
      <trkpt lat="41.1123" lon="20.07986">
        <ele>130.579379</ele>
        <time>2022-02-24T19:41:21.490Z</time>
      </trkpt>
      <trkpt lat="41.1123" lon="20.07984">
        <ele>130.583871</ele>
        <time>2022-02-24T19:41:21.756Z</time>
      </trkpt>
      <trkpt lat="41.11229" lon="20.07983">
        <ele>130.588207</ele>
        <time>2022-02-24T19:41:22.053Z</time>
      </trkpt>
      <trkpt lat="41.11229" lon="20.07982">
        <ele>130.592965</ele>
        <time>2022-02-24T19:41:22.352Z</time>
      </trkpt>
      <trkpt lat="41.11228" lon="20.07981">
        <ele>130.597189</ele>
        <time>2022-02-24T19:41:22.593Z</time>
      </trkpt>
      <trkpt lat="41.11222" lon="20.07977">
        <ele>130.628255</ele>
        <time>2022-02-24T19:41:24.827Z</time>
      </trkpt>
      <trkpt lat="41.11221" lon="20.07977">
        <ele>130.632641</ele>
        <time>2022-02-24T19:41:25.070Z</time>
      </trkpt>
      <trkpt lat="41.11221" lon="20.0797">
        <ele>130.653827</ele>
        <time>2022-02-24T19:41:27.237Z</time>
      </trkpt>
      <trkpt lat="41.11221" lon="20.07965">
        <ele>130.672843</ele>
        <time>2022-02-24T19:41:28.995Z</time>
      </trkpt>
      <trkpt lat="41.11208" lon="20.07894">
        <ele>130.91288</ele>
        <time>2022-02-24T19:41:49.972Z</time>
      </trkpt>
      <trkpt lat="41.11202" lon="20.07838">
        <ele>131.098334</ele>
        <time>2022-02-24T19:42:05.985Z</time>
      </trkpt>
      <trkpt lat="41.11199" lon="20.07779">
        <ele>131.295884</ele>
        <time>2022-02-24T19:42:21.925Z</time>
      </trkpt>
      <trkpt lat="41.1119" lon="20.07768">
        <ele>131.346682</ele>
        <time>2022-02-24T19:42:25.147Z</time>
      </trkpt>
      <trkpt lat="41.11185" lon="20.07755">
        <ele>131.280473</ele>
        <time>2022-02-24T19:42:28.233Z</time>
      </trkpt>
      <trkpt lat="41.11182" lon="20.07739">
        <ele>131.157531</ele>
        <time>2022-02-24T19:42:31.652Z</time>
      </trkpt>
      <trkpt lat="41.11181" lon="20.07716">
        <ele>130.997671</ele>
        <time>2022-02-24T19:42:35.893Z</time>
      </trkpt>
      <trkpt lat="41.11181" lon="20.07707">
        <ele>130.932738</ele>
        <time>2022-02-24T19:42:37.583Z</time>
      </trkpt>
      <trkpt lat="41.11167" lon="20.077">
        <ele>130.796964</ele>
        <time>2022-02-24T19:42:41.124Z</time>
      </trkpt>
      <trkpt lat="41.11146" lon="20.07695">
        <ele>130.590647</ele>
        <time>2022-02-24T19:42:46.327Z</time>
      </trkpt>
      <trkpt lat="41.11127" lon="20.07694">
        <ele>130.406471</ele>
        <time>2022-02-24T19:42:51.021Z</time>
      </trkpt>
      <trkpt lat="41.11097" lon="20.077">
        <ele>130.115842</ele>
        <time>2022-02-24T19:42:58.121Z</time>
      </trkpt>
      <trkpt lat="41.11082" lon="20.07698">
        <ele>129.972695</ele>
        <time>2022-02-24T19:43:01.555Z</time>
      </trkpt>
      <trkpt lat="41.11059" lon="20.07685">
        <ele>129.732749</ele>
        <time>2022-02-24T19:43:07.559Z</time>
      </trkpt>
      <trkpt lat="41.11039" lon="20.07668">
        <ele>129.390364</ele>
        <time>2022-02-24T19:43:13.079Z</time>
      </trkpt>
      <trkpt lat="41.1102" lon="20.07647">
        <ele>128.971415</ele>
        <time>2022-02-24T19:43:18.607Z</time>
      </trkpt>
      <trkpt lat="41.10979" lon="20.07602">
        <ele>128.046587</ele>
        <time>2022-02-24T19:43:30.569Z</time>
      </trkpt>
      <trkpt lat="41.10973" lon="20.07598">
        <ele>127.92937</ele>
        <time>2022-02-24T19:43:32.131Z</time>
      </trkpt>
      <trkpt lat="41.10965" lon="20.07595">
        <ele>127.791428</ele>
        <time>2022-02-24T19:43:33.847Z</time>
      </trkpt>
      <trkpt lat="41.10959" lon="20.07573">
        <ele>127.481234</ele>
        <time>2022-02-24T19:43:37.715Z</time>
      </trkpt>
      <trkpt lat="41.1095" lon="20.07543">
        <ele>127.060407</ele>
        <time>2022-02-24T19:43:42.905Z</time>
      </trkpt>
      <trkpt lat="41.10939" lon="20.07508">
        <ele>126.56878</ele>
        <time>2022-02-24T19:43:48.947Z</time>
      </trkpt>
      <trkpt lat="41.10908" lon="20.07405">
        <ele>125.339185</ele>
        <time>2022-02-24T19:44:07.257Z</time>
      </trkpt>
      <trkpt lat="41.10882" lon="20.07318">
        <ele>124.312264</ele>
        <time>2022-02-24T19:44:22.757Z</time>
      </trkpt>
      <trkpt lat="41.10845" lon="20.07194">
        <ele>123.234257</ele>
        <time>2022-02-24T19:44:45.873Z</time>
      </trkpt>
      <trkpt lat="41.10842" lon="20.07185">
        <ele>123.168923</ele>
        <time>2022-02-24T19:44:47.543Z</time>
      </trkpt>
      <trkpt lat="41.10839" lon="20.07165">
        <ele>123.033371</ele>
        <time>2022-02-24T19:44:51.107Z</time>
      </trkpt>
      <trkpt lat="41.10839" lon="20.07155">
        <ele>122.963551</ele>
        <time>2022-02-24T19:44:52.909Z</time>
      </trkpt>
      <trkpt lat="41.10841" lon="20.07153">
        <ele>122.94194</ele>
        <time>2022-02-24T19:44:53.472Z</time>
      </trkpt>
      <trkpt lat="41.10843" lon="20.07151">
        <ele>122.920514</ele>
        <time>2022-02-24T19:44:54.039Z</time>
      </trkpt>
      <trkpt lat="41.10845" lon="20.07146">
        <ele>122.883114</ele>
        <time>2022-02-24T19:44:55.021Z</time>
      </trkpt>
      <trkpt lat="41.10846" lon="20.07135">
        <ele>122.808156</ele>
        <time>2022-02-24T19:44:57.007Z</time>
      </trkpt>
      <trkpt lat="41.10844" lon="20.0713">
        <ele>122.770361</ele>
        <time>2022-02-24T19:44:58.018Z</time>
      </trkpt>
      <trkpt lat="41.10842" lon="20.07127">
        <ele>122.741859</ele>
        <time>2022-02-24T19:44:58.777Z</time>
      </trkpt>
      <trkpt lat="41.10837" lon="20.07121">
        <ele>122.684574</ele>
        <time>2022-02-24T19:45:00.287Z</time>
      </trkpt>
      <trkpt lat="41.10835" lon="20.0712">
        <ele>122.656542</ele>
        <time>2022-02-24T19:45:01.022Z</time>
      </trkpt>
      <trkpt lat="41.10818" lon="20.07078">
        <ele>122.329494</ele>
        <time>2022-02-24T19:45:09.614Z</time>
      </trkpt>
      <trkpt lat="41.10812" lon="20.07061">
        <ele>122.217829</ele>
        <time>2022-02-24T19:45:12.838Z</time>
      </trkpt>
      <trkpt lat="41.10796" lon="20.07005">
        <ele>121.904421</ele>
        <time>2022-02-24T19:45:23.781Z</time>
      </trkpt>
      <trkpt lat="41.10781" lon="20.06955">
        <ele>121.624658</ele>
        <time>2022-02-24T19:45:33.640Z</time>
      </trkpt>
      <trkpt lat="41.10773" lon="20.06924">
        <ele>121.451572</ele>
        <time>2022-02-24T19:45:39.713Z</time>
      </trkpt>
      <trkpt lat="41.10759" lon="20.06871">
        <ele>121.163183</ele>
        <time>2022-02-24T19:45:49.667Z</time>
      </trkpt>
      <trkpt lat="41.10748" lon="20.0683">
        <ele>120.91982</ele>
        <time>2022-02-24T19:45:57.592Z</time>
      </trkpt>
      <trkpt lat="41.10738" lon="20.06793">
        <ele>120.682849</ele>
        <time>2022-02-24T19:46:04.608Z</time>
      </trkpt>
      <trkpt lat="41.10737" lon="20.06789">
        <ele>120.656465</ele>
        <time>2022-02-24T19:46:05.384Z</time>
      </trkpt>
      <trkpt lat="41.10708" lon="20.06675">
        <ele>119.924016</ele>
        <time>2022-02-24T19:46:27.086Z</time>
      </trkpt>
      <trkpt lat="41.10705" lon="20.06663">
        <ele>119.851647</ele>
        <time>2022-02-24T19:46:29.275Z</time>
      </trkpt>
      <trkpt lat="41.1068" lon="20.06579">
        <ele>119.238767</ele>
        <time>2022-02-24T19:46:45.194Z</time>
      </trkpt>
      <trkpt lat="41.10677" lon="20.06567">
        <ele>119.142661</ele>
        <time>2022-02-24T19:46:47.369Z</time>
      </trkpt>
      <trkpt lat="41.10669" lon="20.06543">
        <ele>118.944872</ele>
        <time>2022-02-24T19:46:51.912Z</time>
      </trkpt>
      <trkpt lat="41.1066" lon="20.06516">
        <ele>118.721527</ele>
        <time>2022-02-24T19:46:56.956Z</time>
      </trkpt>
      <trkpt lat="41.10642" lon="20.06469">
        <ele>118.321005</ele>
        <time>2022-02-24T19:47:06.153Z</time>
      </trkpt>
      <trkpt lat="41.10617" lon="20.0641">
        <ele>117.806033</ele>
        <time>2022-02-24T19:47:17.980Z</time>
      </trkpt>
      <trkpt lat="41.10599" lon="20.06373">
        <ele>117.45713</ele>
        <time>2022-02-24T19:47:25.568Z</time>
      </trkpt>
      <trkpt lat="41.10589" lon="20.06351">
        <ele>117.247534</ele>
        <time>2022-02-24T19:47:30.132Z</time>
      </trkpt>
      <trkpt lat="41.10519" lon="20.06228">
        <ele>116.002808</ele>
        <time>2022-02-24T19:47:56.999Z</time>
      </trkpt>
      <trkpt lat="41.10503" lon="20.06193">
        <ele>115.584312</ele>
        <time>2022-02-24T19:48:03.929Z</time>
      </trkpt>
      <trkpt lat="41.10492" lon="20.06175">
        <ele>115.291546</ele>
        <time>2022-02-24T19:48:07.909Z</time>
      </trkpt>
      <trkpt lat="41.1044" lon="20.06084">
        <ele>113.854202</ele>
        <time>2022-02-24T19:48:26.560Z</time>
      </trkpt>
      <trkpt lat="41.10389" lon="20.05989">
        <ele>112.301953</ele>
        <time>2022-02-24T19:48:45.069Z</time>
      </trkpt>
      <trkpt lat="41.10358" lon="20.05932">
        <ele>111.238174</ele>
        <time>2022-02-24T19:48:56.224Z</time>
      </trkpt>
      <trkpt lat="41.10352" lon="20.05922">
        <ele>111.041839</ele>
        <time>2022-02-24T19:48:58.230Z</time>
      </trkpt>
      <trkpt lat="41.10329" lon="20.05882">
        <ele>110.286409</ele>
        <time>2022-02-24T19:49:06.131Z</time>
      </trkpt>
      <trkpt lat="41.10297" lon="20.05826">
        <ele>109.224518</ele>
        <time>2022-02-24T19:49:17.343Z</time>
      </trkpt>
      <trkpt lat="41.10231" lon="20.05707">
        <ele>107.654322</ele>
        <time>2022-02-24T19:49:41.738Z</time>
      </trkpt>
      <trkpt lat="41.10167" lon="20.05586">
        <ele>106.349574</ele>
        <time>2022-02-24T19:50:07.283Z</time>
      </trkpt>
      <trkpt lat="41.10123" lon="20.05477">
        <ele>105.615163</ele>
        <time>2022-02-24T19:50:29.615Z</time>
      </trkpt>
      <trkpt lat="41.10107" lon="20.05425">
        <ele>105.283412</ele>
        <time>2022-02-24T19:50:39.880Z</time>
      </trkpt>
      <trkpt lat="41.10097" lon="20.05383">
        <ele>105.038246</ele>
        <time>2022-02-24T19:50:47.920Z</time>
      </trkpt>
      <trkpt lat="41.10065" lon="20.05256">
        <ele>104.294607</ele>
        <time>2022-02-24T19:51:12.043Z</time>
      </trkpt>
      <trkpt lat="41.10056" lon="20.05192">
        <ele>103.926076</ele>
        <time>2022-02-24T19:51:23.629Z</time>
      </trkpt>
      <trkpt lat="41.10001" lon="20.04749">
        <ele>101.181779</ele>
        <time>2022-02-24T19:52:43.445Z</time>
      </trkpt>
      <trkpt lat="41.09973" lon="20.04511">
        <ele>100.084886</ele>
        <time>2022-02-24T19:53:28.042Z</time>
      </trkpt>
      <trkpt lat="41.09947" lon="20.04299">
        <ele>99.194095</ele>
        <time>2022-02-24T19:54:07.348Z</time>
      </trkpt>
      <trkpt lat="41.09941" lon="20.04244">
        <ele>98.969426</ele>
        <time>2022-02-24T19:54:17.717Z</time>
      </trkpt>
      <trkpt lat="41.09933" lon="20.04163">
        <ele>98.663713</ele>
        <time>2022-02-24T19:54:33.245Z</time>
      </trkpt>
      <trkpt lat="41.09917" lon="20.04054">
        <ele>98.252158</ele>
        <time>2022-02-24T19:54:54.199Z</time>
      </trkpt>
      <trkpt lat="41.09898" lon="20.03897">
        <ele>97.186137</ele>
        <time>2022-02-24T19:55:22.417Z</time>
      </trkpt>
      <trkpt lat="41.09878" lon="20.03732">
        <ele>95.928112</ele>
        <time>2022-02-24T19:55:50.838Z</time>
      </trkpt>
      <trkpt lat="41.09876" lon="20.0371">
        <ele>95.766328</ele>
        <time>2022-02-24T19:55:54.750Z</time>
      </trkpt>
      <trkpt lat="41.09871" lon="20.03661">
        <ele>95.412387</ele>
        <time>2022-02-24T19:56:03.291Z</time>
      </trkpt>
      <trkpt lat="41.09872" lon="20.03635">
        <ele>95.226834</ele>
        <time>2022-02-24T19:56:07.887Z</time>
      </trkpt>
      <trkpt lat="41.09873" lon="20.03558">
        <ele>94.676387</ele>
        <time>2022-02-24T19:56:21.457Z</time>
      </trkpt>
      <trkpt lat="41.09875" lon="20.03516">
        <ele>94.502989</ele>
        <time>2022-02-24T19:56:29.215Z</time>
      </trkpt>
      <trkpt lat="41.09878" lon="20.03486">
        <ele>94.431601</ele>
        <time>2022-02-24T19:56:34.857Z</time>
      </trkpt>
      <trkpt lat="41.0988" lon="20.03463">
        <ele>94.375062</ele>
        <time>2022-02-24T19:56:39.195Z</time>
      </trkpt>
      <trkpt lat="41.09883" lon="20.03446">
        <ele>94.33507</ele>
        <time>2022-02-24T19:56:42.474Z</time>
      </trkpt>
      <trkpt lat="41.09884" lon="20.03439">
        <ele>94.317706</ele>
        <time>2022-02-24T19:56:43.805Z</time>
      </trkpt>
      <trkpt lat="41.09885" lon="20.03437">
        <ele>94.312537</ele>
        <time>2022-02-24T19:56:44.189Z</time>
      </trkpt>
      <trkpt lat="41.09877" lon="20.03435">
        <ele>94.288106</ele>
        <time>2022-02-24T19:56:46.240Z</time>
      </trkpt>
      <trkpt lat="41.09875" lon="20.03434">
        <ele>94.279598</ele>
        <time>2022-02-24T19:56:46.865Z</time>
      </trkpt>
      <trkpt lat="41.09858" lon="20.03429">
        <ele>94.226256</ele>
        <time>2022-02-24T19:56:51.556Z</time>
      </trkpt>
      <trkpt lat="41.09854" lon="20.0343">
        <ele>94.213569</ele>
        <time>2022-02-24T19:56:52.559Z</time>
      </trkpt>
      <trkpt lat="41.09849" lon="20.03431">
        <ele>94.198808</ele>
        <time>2022-02-24T19:56:53.784Z</time>
      </trkpt>
      <trkpt lat="41.09847" lon="20.03429">
        <ele>94.189036</ele>
        <time>2022-02-24T19:56:54.597Z</time>
      </trkpt>
      <trkpt lat="41.09842" lon="20.03426">
        <ele>94.171414</ele>
        <time>2022-02-24T19:56:56.188Z</time>
      </trkpt>
      <trkpt lat="41.09838" lon="20.03422">
        <ele>94.155157</ele>
        <time>2022-02-24T19:56:57.498Z</time>
      </trkpt>
      <trkpt lat="41.09834" lon="20.03416">
        <ele>94.137351</ele>
        <time>2022-02-24T19:56:59.131Z</time>
      </trkpt>
      <trkpt lat="41.0981" lon="20.03355">
        <ele>94.005565</ele>
        <time>2022-02-24T19:57:13.819Z</time>
      </trkpt>
      <trkpt lat="41.09778" lon="20.03271">
        <ele>94.059968</ele>
        <time>2022-02-24T19:57:33.514Z</time>
      </trkpt>
      <trkpt lat="41.09772" lon="20.03252">
        <ele>94.072425</ele>
        <time>2022-02-24T19:57:38.169Z</time>
      </trkpt>
      <trkpt lat="41.09757" lon="20.0321">
        <ele>94.099456</ele>
        <time>2022-02-24T19:57:48.362Z</time>
      </trkpt>
      <trkpt lat="41.09752" lon="20.03195">
        <ele>94.108892</ele>
        <time>2022-02-24T19:57:51.811Z</time>
      </trkpt>
      <trkpt lat="41.09742" lon="20.03169">
        <ele>94.125472</ele>
        <time>2022-02-24T19:57:57.905Z</time>
      </trkpt>
      <trkpt lat="41.09709" lon="20.03077">
        <ele>93.842765</ele>
        <time>2022-02-24T19:58:18.984Z</time>
      </trkpt>
      <trkpt lat="41.09684" lon="20.03006">
        <ele>93.560956</ele>
        <time>2022-02-24T19:58:33.999Z</time>
      </trkpt>
      <trkpt lat="41.09679" lon="20.0299">
        <ele>93.494778</ele>
        <time>2022-02-24T19:58:37.351Z</time>
      </trkpt>
      <trkpt lat="41.09621" lon="20.02829">
        <ele>92.496136</ele>
        <time>2022-02-24T19:59:10.246Z</time>
      </trkpt>
      <trkpt lat="41.09558" lon="20.02655">
        <ele>91.268148</ele>
        <time>2022-02-24T19:59:46.066Z</time>
      </trkpt>
      <trkpt lat="41.09506" lon="20.02504">
        <ele>90.299133</ele>
        <time>2022-02-24T20:00:17.076Z</time>
      </trkpt>
      <trkpt lat="41.0944" lon="20.02325">
        <ele>89.14107</ele>
        <time>2022-02-24T20:00:54.818Z</time>
      </trkpt>
      <trkpt lat="41.09367" lon="20.02127">
        <ele>87.762555</ele>
        <time>2022-02-24T20:01:35.381Z</time>
      </trkpt>
      <trkpt lat="41.09348" lon="20.02074">
        <ele>87.389677</ele>
        <time>2022-02-24T20:01:46.353Z</time>
      </trkpt>
      <trkpt lat="41.09324" lon="20.02008">
        <ele>87.16811</ele>
        <time>2022-02-24T20:02:00.422Z</time>
      </trkpt>
      <trkpt lat="41.09286" lon="20.01899">
        <ele>86.806461</ele>
        <time>2022-02-24T20:02:24.391Z</time>
      </trkpt>
      <trkpt lat="41.09221" lon="20.01724">
        <ele>86.564744</ele>
        <time>2022-02-24T20:03:04.472Z</time>
      </trkpt>
      <trkpt lat="41.09119" lon="20.01444">
        <ele>86.886319</ele>
        <time>2022-02-24T20:04:09.759Z</time>
      </trkpt>
      <trkpt lat="41.09121" lon="20.01431">
        <ele>86.908606</ele>
        <time>2022-02-24T20:04:13.362Z</time>
      </trkpt>
      <trkpt lat="41.09127" lon="20.01406">
        <ele>87.183945</ele>
        <time>2022-02-24T20:04:19.533Z</time>
      </trkpt>
      <trkpt lat="41.09133" lon="20.01392">
        <ele>87.375871</ele>
        <time>2022-02-24T20:04:23.952Z</time>
      </trkpt>
      <trkpt lat="41.092" lon="20.01351">
        <ele>88.556061</ele>
        <time>2022-02-24T20:04:49.619Z</time>
      </trkpt>
      <trkpt lat="41.0922" lon="20.0133">
        <ele>88.951353</ele>
        <time>2022-02-24T20:04:57.968Z</time>
      </trkpt>
      <trkpt lat="41.09229" lon="20.01321">
        <ele>89.141919</ele>
        <time>2022-02-24T20:05:03.160Z</time>
      </trkpt>
      <trkpt lat="41.09217" lon="20.01296">
        <ele>89.51001</ele>
        <time>2022-02-24T20:05:11.071Z</time>
      </trkpt>
      <trkpt lat="41.09193" lon="20.01244">
        <ele>90.65822</ele>
        <time>2022-02-24T20:05:29.062Z</time>
      </trkpt>
      <trkpt lat="41.09169" lon="20.01167">
        <ele>92.607287</ele>
        <time>2022-02-24T20:05:54.274Z</time>
      </trkpt>
      <trkpt lat="41.09165" lon="20.01148">
        <ele>93.071548</ele>
        <time>2022-02-24T20:06:00.998Z</time>
      </trkpt>
      <trkpt lat="41.09161" lon="20.0113">
        <ele>93.503054</ele>
        <time>2022-02-24T20:06:06.562Z</time>
      </trkpt>
      <trkpt lat="41.0916" lon="20.01121">
        <ele>93.708354</ele>
        <time>2022-02-24T20:06:09.165Z</time>
      </trkpt>
      <trkpt lat="41.09151" lon="20.01067">
        <ele>94.999519</ele>
        <time>2022-02-24T20:06:27.353Z</time>
      </trkpt>
      <trkpt lat="41.09142" lon="20.00988">
        <ele>97.447523</ele>
        <time>2022-02-24T20:06:55.117Z</time>
      </trkpt>
      <trkpt lat="41.09132" lon="20.00905">
        <ele>100.14915</ele>
        <time>2022-02-24T20:07:24.784Z</time>
      </trkpt>
      <trkpt lat="41.09131" lon="20.00882">
        <ele>100.905989</ele>
        <time>2022-02-24T20:07:33.789Z</time>
      </trkpt>
      <trkpt lat="41.09133" lon="20.00839">
        <ele>102.291952</ele>
        <time>2022-02-24T20:07:49.605Z</time>
      </trkpt>
      <trkpt lat="41.09147" lon="20.00744">
        <ele>105.153158</ele>
        <time>2022-02-24T20:08:25.398Z</time>
      </trkpt>
      <trkpt lat="41.09155" lon="20.00691">
        <ele>106.718955</ele>
        <time>2022-02-24T20:08:45.735Z</time>
      </trkpt>
      <trkpt lat="41.09164" lon="20.00621">
        <ele>108.741833</ele>
        <time>2022-02-24T20:09:08.809Z</time>
      </trkpt>
      <trkpt lat="41.09169" lon="20.00563">
        <ele>109.983411</ele>
        <time>2022-02-24T20:09:25.025Z</time>
      </trkpt>
      <trkpt lat="41.09168" lon="20.0051">
        <ele>110.194579</ele>
        <time>2022-02-24T20:09:39.005Z</time>
      </trkpt>
      <trkpt lat="41.09166" lon="20.00485">
        <ele>110.291915</ele>
        <time>2022-02-24T20:09:46.204Z</time>
      </trkpt>
      <trkpt lat="41.09151" lon="20.00486">
        <ele>110.370148</ele>
        <time>2022-02-24T20:09:49.992Z</time>
      </trkpt>
      <trkpt lat="41.09133" lon="20.00495">
        <ele>110.470605</ele>
        <time>2022-02-24T20:09:56.618Z</time>
      </trkpt>
      <trkpt lat="41.09063" lon="20.00553">
        <ele>110.696867</ele>
        <time>2022-02-24T20:10:16.778Z</time>
      </trkpt>
      <trkpt lat="41.09054" lon="20.00554">
        <ele>110.553752</ele>
        <time>2022-02-24T20:10:18.567Z</time>
      </trkpt>
      <trkpt lat="41.09038" lon="20.00543">
        <ele>110.249367</ele>
        <time>2022-02-24T20:10:23.389Z</time>
      </trkpt>
      <trkpt lat="41.08996" lon="20.00461">
        <ele>108.996308</ele>
        <time>2022-02-24T20:10:39.848Z</time>
      </trkpt>
      <trkpt lat="41.08971" lon="20.00439">
        <ele>108.492451</ele>
        <time>2022-02-24T20:10:46.750Z</time>
      </trkpt>
      <trkpt lat="41.08961" lon="20.00433">
        <ele>108.319084</ele>
        <time>2022-02-24T20:10:49.044Z</time>
      </trkpt>
      <trkpt lat="41.08954" lon="20.00431">
        <ele>108.188974</ele>
        <time>2022-02-24T20:10:50.722Z</time>
      </trkpt>
      <trkpt lat="41.08925" lon="20.00413">
        <ele>107.655749</ele>
        <time>2022-02-24T20:10:57.961Z</time>
      </trkpt>
      <trkpt lat="41.0891" lon="20.00387">
        <ele>107.218512</ele>
        <time>2022-02-24T20:11:03.473Z</time>
      </trkpt>
      <trkpt lat="41.08901" lon="20.00371">
        <ele>106.95749</ele>
        <time>2022-02-24T20:11:06.773Z</time>
      </trkpt>
      <trkpt lat="41.08895" lon="20.00362">
        <ele>106.794613</ele>
        <time>2022-02-24T20:11:08.873Z</time>
      </trkpt>
      <trkpt lat="41.08889" lon="20.00353">
        <ele>106.631641</ele>
        <time>2022-02-24T20:11:10.916Z</time>
      </trkpt>
      <trkpt lat="41.08885" lon="20.00348">
        <ele>106.543597</ele>
        <time>2022-02-24T20:11:12.055Z</time>
      </trkpt>
      <trkpt lat="41.08864" lon="20.00327">
        <ele>106.073595</ele>
        <time>2022-02-24T20:11:18.094Z</time>
      </trkpt>
      <trkpt lat="41.08857" lon="20.00321">
        <ele>105.936783</ele>
        <time>2022-02-24T20:11:19.839Z</time>
      </trkpt>
      <trkpt lat="41.08852" lon="20.00321">
        <ele>105.843676</ele>
        <time>2022-02-24T20:11:21.043Z</time>
      </trkpt>
      <trkpt lat="41.08845" lon="20.00321">
        <ele>105.713779</ele>
        <time>2022-02-24T20:11:22.693Z</time>
      </trkpt>
      <trkpt lat="41.08843" lon="20.00309">
        <ele>105.546726</ele>
        <time>2022-02-24T20:11:24.845Z</time>
      </trkpt>
      <trkpt lat="41.08829" lon="20.00275">
        <ele>105.037736</ele>
        <time>2022-02-24T20:11:31.456Z</time>
      </trkpt>
      <trkpt lat="41.08826" lon="20.0027">
        <ele>104.941037</ele>
        <time>2022-02-24T20:11:32.696Z</time>
      </trkpt>
      <trkpt lat="41.08817" lon="20.0026">
        <ele>104.742206</ele>
        <time>2022-02-24T20:11:35.167Z</time>
      </trkpt>
      <trkpt lat="41.08762" lon="20.00178">
        <ele>103.832377</ele>
        <time>2022-02-24T20:11:54.362Z</time>
      </trkpt>
      <trkpt lat="41.08699" lon="20.00091">
        <ele>102.851048</ele>
        <time>2022-02-24T20:12:16.601Z</time>
      </trkpt>
      <trkpt lat="41.08689" lon="20.00074">
        <ele>102.744962</ele>
        <time>2022-02-24T20:12:21.177Z</time>
      </trkpt>
      <trkpt lat="41.08639" lon="20.00001">
        <ele>102.6389</ele>
        <time>2022-02-24T20:12:41.413Z</time>
      </trkpt>
      <trkpt lat="41.08598" lon="19.99932">
        <ele>102.5447</ele>
        <time>2022-02-24T20:12:59.861Z</time>
      </trkpt>
      <trkpt lat="41.08621" lon="19.99903">
        <ele>102.498934</ele>
        <time>2022-02-24T20:13:09.072Z</time>
      </trkpt>
      <trkpt lat="41.08617" lon="19.999">
        <ele>102.481915</ele>
        <time>2022-02-24T20:13:10.197Z</time>
      </trkpt>
      <trkpt lat="41.08572" lon="19.99848">
        <ele>102.277561</ele>
        <time>2022-02-24T20:13:26.403Z</time>
      </trkpt>
      <trkpt lat="41.0848" lon="19.99759">
        <ele>101.887435</ele>
        <time>2022-02-24T20:13:55.786Z</time>
      </trkpt>
      <trkpt lat="41.08372" lon="19.99681">
        <ele>101.140732</ele>
        <time>2022-02-24T20:14:27.550Z</time>
      </trkpt>
      <trkpt lat="41.08273" lon="19.99574">
        <ele>99.863594</ele>
        <time>2022-02-24T20:14:59.013Z</time>
      </trkpt>
      <trkpt lat="41.08256" lon="19.99555">
        <ele>99.566011</ele>
        <time>2022-02-24T20:15:04.387Z</time>
      </trkpt>
      <trkpt lat="41.08234" lon="19.99526">
        <ele>99.152133</ele>
        <time>2022-02-24T20:15:11.676Z</time>
      </trkpt>
      <trkpt lat="41.08214" lon="19.99491">
        <ele>98.708695</ele>
        <time>2022-02-24T20:15:19.293Z</time>
      </trkpt>
      <trkpt lat="41.0821" lon="19.9948">
        <ele>98.591889</ele>
        <time>2022-02-24T20:15:21.040Z</time>
      </trkpt>
      <trkpt lat="41.08207" lon="19.99468">
        <ele>98.460048</ele>
        <time>2022-02-24T20:15:23.281Z</time>
      </trkpt>
      <trkpt lat="41.08192" lon="19.99423">
        <ele>97.564262</ele>
        <time>2022-02-24T20:15:31.424Z</time>
      </trkpt>
      <trkpt lat="41.08177" lon="19.99412">
        <ele>97.138153</ele>
        <time>2022-02-24T20:15:35.067Z</time>
      </trkpt>
      <trkpt lat="41.08155" lon="19.99403">
        <ele>96.533466</ele>
        <time>2022-02-24T20:15:40.076Z</time>
      </trkpt>
      <trkpt lat="41.08148" lon="19.99397">
        <ele>96.317022</ele>
        <time>2022-02-24T20:15:41.972Z</time>
      </trkpt>
      <trkpt lat="41.08119" lon="19.9937">
        <ele>95.418512</ele>
        <time>2022-02-24T20:15:49.245Z</time>
      </trkpt>
      <trkpt lat="41.08116" lon="19.99369">
        <ele>95.333896</ele>
        <time>2022-02-24T20:15:49.971Z</time>
      </trkpt>
      <trkpt lat="41.08108" lon="19.99365">
        <ele>95.101767</ele>
        <time>2022-02-24T20:15:51.746Z</time>
      </trkpt>
      <trkpt lat="41.08064" lon="19.9934">
        <ele>93.877662</ele>
        <time>2022-02-24T20:16:01.854Z</time>
      </trkpt>
      <trkpt lat="41.07985" lon="19.99321">
        <ele>91.634879</ele>
        <time>2022-02-24T20:16:18.605Z</time>
      </trkpt>
      <trkpt lat="41.07982" lon="19.99318">
        <ele>91.546821</ele>
        <time>2022-02-24T20:16:19.156Z</time>
      </trkpt>
      <trkpt lat="41.07981" lon="19.99313">
        <ele>91.44092</ele>
        <time>2022-02-24T20:16:19.957Z</time>
      </trkpt>
      <trkpt lat="41.0798" lon="19.99303">
        <ele>91.226249</ele>
        <time>2022-02-24T20:16:21.470Z</time>
      </trkpt>
      <trkpt lat="41.07982" lon="19.99296">
        <ele>91.063765</ele>
        <time>2022-02-24T20:16:22.764Z</time>
      </trkpt>
      <trkpt lat="41.07987" lon="19.99281">
        <ele>90.728899</ele>
        <time>2022-02-24T20:16:25.564Z</time>
      </trkpt>
      <trkpt lat="41.07989" lon="19.99274">
        <ele>90.579252</ele>
        <time>2022-02-24T20:16:26.544Z</time>
      </trkpt>
      <trkpt lat="41.07985" lon="19.99265">
        <ele>90.364052</ele>
        <time>2022-02-24T20:16:28.197Z</time>
      </trkpt>
      <trkpt lat="41.07962" lon="19.99264">
        <ele>89.724306</ele>
        <time>2022-02-24T20:16:33.473Z</time>
      </trkpt>
      <trkpt lat="41.07946" lon="19.99256">
        <ele>89.256383</ele>
        <time>2022-02-24T20:16:36.861Z</time>
      </trkpt>
      <trkpt lat="41.07826" lon="19.9913">
        <ele>85.640869</ele>
        <time>2022-02-24T20:17:10.097Z</time>
      </trkpt>
      <trkpt lat="41.07813" lon="19.99103">
        <ele>85.087008</ele>
        <time>2022-02-24T20:17:15.172Z</time>
      </trkpt>
      <trkpt lat="41.07807" lon="19.99066">
        <ele>84.449008</ele>
        <time>2022-02-24T20:17:21.495Z</time>
      </trkpt>
      <trkpt lat="41.07806" lon="19.99057">
        <ele>84.322172</ele>
        <time>2022-02-24T20:17:22.805Z</time>
      </trkpt>
      <trkpt lat="41.07802" lon="19.99055">
        <ele>84.23009</ele>
        <time>2022-02-24T20:17:23.865Z</time>
      </trkpt>
      <trkpt lat="41.07798" lon="19.99051">
        <ele>84.132615</ele>
        <time>2022-02-24T20:17:25.007Z</time>
      </trkpt>
      <trkpt lat="41.07793" lon="19.99049">
        <ele>84.025302</ele>
        <time>2022-02-24T20:17:26.248Z</time>
      </trkpt>
      <trkpt lat="41.07785" lon="19.99048">
        <ele>83.874783</ele>
        <time>2022-02-24T20:17:27.874Z</time>
      </trkpt>
      <trkpt lat="41.07726" lon="19.98989">
        <ele>82.395081</ele>
        <time>2022-02-24T20:17:44.236Z</time>
      </trkpt>
      <trkpt lat="41.07724" lon="19.98988">
        <ele>82.338681</ele>
        <time>2022-02-24T20:17:44.814Z</time>
      </trkpt>
      <trkpt lat="41.07718" lon="19.98985">
        <ele>82.223968</ele>
        <time>2022-02-24T20:17:45.989Z</time>
      </trkpt>
      <trkpt lat="41.07694" lon="19.98969">
        <ele>81.671059</ele>
        <time>2022-02-24T20:17:52.152Z</time>
      </trkpt>
      <trkpt lat="41.07639" lon="19.989">
        <ele>80.906029</ele>
        <time>2022-02-24T20:18:09.212Z</time>
      </trkpt>
      <trkpt lat="41.07625" lon="19.98897">
        <ele>80.870651</ele>
        <time>2022-02-24T20:18:12.769Z</time>
      </trkpt>
      <trkpt lat="41.07602" lon="19.98912">
        <ele>80.807131</ele>
        <time>2022-02-24T20:18:18.977Z</time>
      </trkpt>
      <trkpt lat="41.07591" lon="19.98913">
        <ele>80.779627</ele>
        <time>2022-02-24T20:18:22.020Z</time>
      </trkpt>
      <trkpt lat="41.07582" lon="19.98904">
        <ele>80.751754</ele>
        <time>2022-02-24T20:18:24.783Z</time>
      </trkpt>
      <trkpt lat="41.07553" lon="19.98877">
        <ele>80.665101</ele>
        <time>2022-02-24T20:18:40.649Z</time>
      </trkpt>
      <trkpt lat="41.07568" lon="19.98855">
        <ele>80.608982</ele>
        <time>2022-02-24T20:18:47.856Z</time>
      </trkpt>
      <trkpt lat="41.07646" lon="19.98717">
        <ele>82.808732</ele>
        <time>2022-02-24T20:19:36.409Z</time>
      </trkpt>
      <trkpt lat="41.07639" lon="19.98663">
        <ele>83.634675</ele>
        <time>2022-02-24T20:19:52.875Z</time>
      </trkpt>
      <trkpt lat="41.0764" lon="19.98649">
        <ele>83.838815</ele>
        <time>2022-02-24T20:19:58.104Z</time>
      </trkpt>
      <trkpt lat="41.07629" lon="19.98638">
        <ele>84.114424</ele>
        <time>2022-02-24T20:20:02.110Z</time>
      </trkpt>
      <trkpt lat="41.07615" lon="19.98624">
        <ele>84.302183</ele>
        <time>2022-02-24T20:20:09.213Z</time>
      </trkpt>
      <trkpt lat="41.07584" lon="19.98604">
        <ele>84.621608</ele>
        <time>2022-02-24T20:20:21.304Z</time>
      </trkpt>
      <trkpt lat="41.07552" lon="19.98595">
        <ele>84.923406</ele>
        <time>2022-02-24T20:20:31.849Z</time>
      </trkpt>
      <trkpt lat="41.07512" lon="19.98598">
        <ele>85.290968</ele>
        <time>2022-02-24T20:20:45.026Z</time>
      </trkpt>
      <trkpt lat="41.07451" lon="19.98622">
        <ele>85.795076</ele>
        <time>2022-02-24T20:21:01.029Z</time>
      </trkpt>
      <trkpt lat="41.07402" lon="19.98617">
        <ele>85.649335</ele>
        <time>2022-02-24T20:21:12.736Z</time>
      </trkpt>
      <trkpt lat="41.07374" lon="19.98605">
        <ele>85.560896</ele>
        <time>2022-02-24T20:21:20.104Z</time>
      </trkpt>
      <trkpt lat="41.07341" lon="19.98578">
        <ele>85.447694</ele>
        <time>2022-02-24T20:21:29.762Z</time>
      </trkpt>
      <trkpt lat="41.07323" lon="19.98555">
        <ele>85.373244</ele>
        <time>2022-02-24T20:21:36.269Z</time>
      </trkpt>
      <trkpt lat="41.07309" lon="19.98533">
        <ele>85.310079</ele>
        <time>2022-02-24T20:21:41.734Z</time>
      </trkpt>
      <trkpt lat="41.07299" lon="19.9851">
        <ele>85.220561</ele>
        <time>2022-02-24T20:21:47.789Z</time>
      </trkpt>
      <trkpt lat="41.07273" lon="19.98437">
        <ele>84.866265</ele>
        <time>2022-02-24T20:22:04.152Z</time>
      </trkpt>
      <trkpt lat="41.07252" lon="19.98393">
        <ele>84.642014</ele>
        <time>2022-02-24T20:22:14.122Z</time>
      </trkpt>
      <trkpt lat="41.07233" lon="19.98369">
        <ele>84.493964</ele>
        <time>2022-02-24T20:22:19.840Z</time>
      </trkpt>
      <trkpt lat="41.07222" lon="19.98358">
        <ele>84.411013</ele>
        <time>2022-02-24T20:22:23.413Z</time>
      </trkpt>
      <trkpt lat="41.07209" lon="19.9835">
        <ele>84.331474</ele>
        <time>2022-02-24T20:22:26.338Z</time>
      </trkpt>
      <trkpt lat="41.072" lon="19.98343">
        <ele>84.268239</ele>
        <time>2022-02-24T20:22:28.870Z</time>
      </trkpt>
      <trkpt lat="41.07153" lon="19.98337">
        <ele>83.555547</ele>
        <time>2022-02-24T20:22:39.578Z</time>
      </trkpt>
      <trkpt lat="41.07114" lon="19.98336">
        <ele>82.929627</ele>
        <time>2022-02-24T20:22:48.233Z</time>
      </trkpt>
      <trkpt lat="41.07102" lon="19.98335">
        <ele>82.72464</ele>
        <time>2022-02-24T20:22:50.868Z</time>
      </trkpt>
      <trkpt lat="41.07078" lon="19.98333">
        <ele>82.343191</ele>
        <time>2022-02-24T20:22:56.202Z</time>
      </trkpt>
      <trkpt lat="41.0706" lon="19.98328">
        <ele>82.052137</ele>
        <time>2022-02-24T20:23:00.005Z</time>
      </trkpt>
      <trkpt lat="41.07021" lon="19.98283">
        <ele>81.388317</ele>
        <time>2022-02-24T20:23:12.152Z</time>
      </trkpt>
      <trkpt lat="41.06995" lon="19.98279">
        <ele>81.532974</ele>
        <time>2022-02-24T20:23:18.384Z</time>
      </trkpt>
      <trkpt lat="41.06941" lon="19.98227">
        <ele>81.903217</ele>
        <time>2022-02-24T20:23:39.483Z</time>
      </trkpt>
      <trkpt lat="41.06939" lon="19.98223">
        <ele>81.924131</ele>
        <time>2022-02-24T20:23:40.404Z</time>
      </trkpt>
      <trkpt lat="41.06948" lon="19.98207">
        <ele>82.008452</ele>
        <time>2022-02-24T20:23:46.183Z</time>
      </trkpt>
      <trkpt lat="41.06953" lon="19.9817">
        <ele>82.161762</ele>
        <time>2022-02-24T20:23:55.740Z</time>
      </trkpt>
      <trkpt lat="41.06948" lon="19.98087">
        <ele>82.630925</ele>
        <time>2022-02-24T20:24:17.996Z</time>
      </trkpt>
      <trkpt lat="41.06935" lon="19.9806">
        <ele>82.855513</ele>
        <time>2022-02-24T20:24:26.258Z</time>
      </trkpt>
      <trkpt lat="41.0693" lon="19.9805">
        <ele>82.942774</ele>
        <time>2022-02-24T20:24:30.074Z</time>
      </trkpt>
      <trkpt lat="41.06899" lon="19.98023">
        <ele>83.300445</ele>
        <time>2022-02-24T20:24:43.034Z</time>
      </trkpt>
      <trkpt lat="41.06744" lon="19.97911">
        <ele>83.916429</ele>
        <time>2022-02-24T20:25:30.139Z</time>
      </trkpt>
      <trkpt lat="41.06614" lon="19.9776">
        <ele>83.181981</ele>
        <time>2022-02-24T20:26:13.947Z</time>
      </trkpt>
      <trkpt lat="41.06569" lon="19.97721">
        <ele>82.801867</ele>
        <time>2022-02-24T20:26:27.222Z</time>
      </trkpt>
      <trkpt lat="41.06494" lon="19.97682">
        <ele>81.604748</ele>
        <time>2022-02-24T20:26:44.802Z</time>
      </trkpt>
      <trkpt lat="41.0645" lon="19.9767">
        <ele>80.643994</ele>
        <time>2022-02-24T20:26:54.312Z</time>
      </trkpt>
      <trkpt lat="41.06403" lon="19.97666">
        <ele>79.656133</ele>
        <time>2022-02-24T20:27:03.888Z</time>
      </trkpt>
      <trkpt lat="41.06389" lon="19.97665">
        <ele>79.35171</ele>
        <time>2022-02-24T20:27:06.700Z</time>
      </trkpt>
      <trkpt lat="41.06294" lon="19.97659">
        <ele>77.439959</ele>
        <time>2022-02-24T20:27:26.083Z</time>
      </trkpt>
      <trkpt lat="41.06251" lon="19.97654">
        <ele>76.585876</ele>
        <time>2022-02-24T20:27:34.905Z</time>
      </trkpt>
      <trkpt lat="41.06212" lon="19.97641">
        <ele>75.800357</ele>
        <time>2022-02-24T20:27:43.468Z</time>
      </trkpt>
      <trkpt lat="41.06171" lon="19.97617">
        <ele>75.102511</ele>
        <time>2022-02-24T20:27:54.043Z</time>
      </trkpt>
      <trkpt lat="41.06093" lon="19.97551">
        <ele>74.460637</ele>
        <time>2022-02-24T20:28:16.423Z</time>
      </trkpt>
      <trkpt lat="41.06082" lon="19.97542">
        <ele>74.369933</ele>
        <time>2022-02-24T20:28:19.936Z</time>
      </trkpt>
      <trkpt lat="41.06058" lon="19.97523">
        <ele>74.177273</ele>
        <time>2022-02-24T20:28:26.619Z</time>
      </trkpt>
      <trkpt lat="41.06023" lon="19.97506">
        <ele>73.884196</ele>
        <time>2022-02-24T20:28:35.752Z</time>
      </trkpt>
      <trkpt lat="41.06003" lon="19.97501">
        <ele>73.610827</ele>
        <time>2022-02-24T20:28:40.812Z</time>
      </trkpt>
      <trkpt lat="41.05989" lon="19.97497">
        <ele>73.421249</ele>
        <time>2022-02-24T20:28:44.199Z</time>
      </trkpt>
      <trkpt lat="41.05827" lon="19.97512">
        <ele>71.267006</ele>
        <time>2022-02-24T20:29:19.765Z</time>
      </trkpt>
      <trkpt lat="41.05809" lon="19.97508">
        <ele>71.018955</ele>
        <time>2022-02-24T20:29:23.759Z</time>
      </trkpt>
      <trkpt lat="41.05795" lon="19.97503">
        <ele>70.831164</ele>
        <time>2022-02-24T20:29:26.890Z</time>
      </trkpt>
      <trkpt lat="41.05763" lon="19.97485">
        <ele>70.375692</ele>
        <time>2022-02-24T20:29:34.418Z</time>
      </trkpt>
      <trkpt lat="41.05642" lon="19.97389">
        <ele>69.087562</ele>
        <time>2022-02-24T20:30:06.942Z</time>
      </trkpt>
      <trkpt lat="41.05631" lon="19.9738">
        <ele>69.060228</ele>
        <time>2022-02-24T20:30:10.226Z</time>
      </trkpt>
      <trkpt lat="41.05448" lon="19.97234">
        <ele>68.899964</ele>
        <time>2022-02-24T20:31:09.385Z</time>
      </trkpt>
      <trkpt lat="41.0539" lon="19.9719">
        <ele>68.956956</ele>
        <time>2022-02-24T20:31:27.401Z</time>
      </trkpt>
      <trkpt lat="41.05218" lon="19.97057">
        <ele>68.46749</ele>
        <time>2022-02-24T20:32:17.608Z</time>
      </trkpt>
      <trkpt lat="41.05177" lon="19.97013">
        <ele>68.592957</ele>
        <time>2022-02-24T20:32:31.205Z</time>
      </trkpt>
      <trkpt lat="41.0516" lon="19.96988">
        <ele>68.651312</ele>
        <time>2022-02-24T20:32:37.804Z</time>
      </trkpt>
      <trkpt lat="41.05126" lon="19.96917">
        <ele>68.803341</ele>
        <time>2022-02-24T20:32:56.055Z</time>
      </trkpt>
      <trkpt lat="41.05111" lon="19.96852">
        <ele>69.089831</ele>
        <time>2022-02-24T20:33:11.600Z</time>
      </trkpt>
      <trkpt lat="41.05072" lon="19.96617">
        <ele>71.140401</ele>
        <time>2022-02-24T20:34:11.518Z</time>
      </trkpt>
      <trkpt lat="41.05063" lon="19.96527">
        <ele>71.621162</ele>
        <time>2022-02-24T20:34:33.163Z</time>
      </trkpt>
      <trkpt lat="41.0506" lon="19.96474">
        <ele>71.904909</ele>
        <time>2022-02-24T20:34:45.284Z</time>
      </trkpt>
      <trkpt lat="41.05057" lon="19.96431">
        <ele>72.133666</ele>
        <time>2022-02-24T20:34:54.574Z</time>
      </trkpt>
      <trkpt lat="41.05051" lon="19.96235">
        <ele>71.887999</ele>
        <time>2022-02-24T20:35:32.434Z</time>
      </trkpt>
      <trkpt lat="41.05067" lon="19.9602">
        <ele>71.35299</ele>
        <time>2022-02-24T20:36:11.811Z</time>
      </trkpt>
      <trkpt lat="41.05072" lon="19.95983">
        <ele>71.256574</ele>
        <time>2022-02-24T20:36:18.940Z</time>
      </trkpt>
      <trkpt lat="41.05074" lon="19.95967">
        <ele>71.215687</ele>
        <time>2022-02-24T20:36:22.464Z</time>
      </trkpt>
      <trkpt lat="41.05088" lon="19.95905">
        <ele>71.24885</ele>
        <time>2022-02-24T20:36:36.387Z</time>
      </trkpt>
      <trkpt lat="41.05104" lon="19.9586">
        <ele>71.475451</ele>
        <time>2022-02-24T20:36:47.298Z</time>
      </trkpt>
      <trkpt lat="41.05133" lon="19.95804">
        <ele>71.786366</ele>
        <time>2022-02-24T20:37:02.445Z</time>
      </trkpt>
      <trkpt lat="41.05136" lon="19.958">
        <ele>71.811224</ele>
        <time>2022-02-24T20:37:03.936Z</time>
      </trkpt>
      <trkpt lat="41.05141" lon="19.95793">
        <ele>71.853912</ele>
        <time>2022-02-24T20:37:06.441Z</time>
      </trkpt>
      <trkpt lat="41.05163" lon="19.95761">
        <ele>72.051046</ele>
        <time>2022-02-24T20:37:16.405Z</time>
      </trkpt>
      <trkpt lat="41.05306" lon="19.95572">
        <ele>73.242775</ele>
        <time>2022-02-24T20:38:16.227Z</time>
      </trkpt>
      <trkpt lat="41.05322" lon="19.95551">
        <ele>73.273052</ele>
        <time>2022-02-24T20:38:22.555Z</time>
      </trkpt>
      <trkpt lat="41.05339" lon="19.95532">
        <ele>73.282779</ele>
        <time>2022-02-24T20:38:28.734Z</time>
      </trkpt>
      <trkpt lat="41.05357" lon="19.95512">
        <ele>73.293024</ele>
        <time>2022-02-24T20:38:35.501Z</time>
      </trkpt>
      <trkpt lat="41.05411" lon="19.9545">
        <ele>73.324677</ele>
        <time>2022-02-24T20:38:54.834Z</time>
      </trkpt>
      <trkpt lat="41.05457" lon="19.95405">
        <ele>73.174795</ele>
        <time>2022-02-24T20:39:09.277Z</time>
      </trkpt>
      <trkpt lat="41.05464" lon="19.95399">
        <ele>73.070652</ele>
        <time>2022-02-24T20:39:11.381Z</time>
      </trkpt>
      <trkpt lat="41.05505" lon="19.95364">
        <ele>72.453684</ele>
        <time>2022-02-24T20:39:22.686Z</time>
      </trkpt>
      <trkpt lat="41.05519" lon="19.95348">
        <ele>72.222154</ele>
        <time>2022-02-24T20:39:26.826Z</time>
      </trkpt>
      <trkpt lat="41.0553" lon="19.95351">
        <ele>72.084942</ele>
        <time>2022-02-24T20:39:29.162Z</time>
      </trkpt>
      <trkpt lat="41.05541" lon="19.95349">
        <ele>71.950461</ele>
        <time>2022-02-24T20:39:31.527Z</time>
      </trkpt>
      <trkpt lat="41.0557" lon="19.95309">
        <ele>71.413257</ele>
        <time>2022-02-24T20:39:40.802Z</time>
      </trkpt>
      <trkpt lat="41.05588" lon="19.95282">
        <ele>71.071731</ele>
        <time>2022-02-24T20:39:46.592Z</time>
      </trkpt>
      <trkpt lat="41.05616" lon="19.95207">
        <ele>70.256632</ele>
        <time>2022-02-24T20:40:00.523Z</time>
      </trkpt>
      <trkpt lat="41.05662" lon="19.95073">
        <ele>68.803471</ele>
        <time>2022-02-24T20:40:26.994Z</time>
      </trkpt>
      <trkpt lat="41.0567" lon="19.9505">
        <ele>68.685281</ele>
        <time>2022-02-24T20:40:31.894Z</time>
      </trkpt>
      <trkpt lat="41.05681" lon="19.94992">
        <ele>68.543791</ele>
        <time>2022-02-24T20:40:43.315Z</time>
      </trkpt>
      <trkpt lat="41.05682" lon="19.94931">
        <ele>68.397502</ele>
        <time>2022-02-24T20:40:55.702Z</time>
      </trkpt>
      <trkpt lat="41.05682" lon="19.94925">
        <ele>68.384409</ele>
        <time>2022-02-24T20:40:57.237Z</time>
      </trkpt>
      <trkpt lat="41.05669" lon="19.94926">
        <ele>68.344102</ele>
        <time>2022-02-24T20:41:00.636Z</time>
      </trkpt>
      <trkpt lat="41.05669" lon="19.94906">
        <ele>68.295963</ele>
        <time>2022-02-24T20:41:04.411Z</time>
      </trkpt>
      <trkpt lat="41.05658" lon="19.94844">
        <ele>68.158103</ele>
        <time>2022-02-24T20:41:17.647Z</time>
      </trkpt>
      <trkpt lat="41.05548" lon="19.94523">
        <ele>67.517046</ele>
        <time>2022-02-24T20:42:27.617Z</time>
      </trkpt>
      <trkpt lat="41.05522" lon="19.94464">
        <ele>67.20592</ele>
        <time>2022-02-24T20:42:39.404Z</time>
      </trkpt>
      <trkpt lat="41.05508" lon="19.94441">
        <ele>67.069329</ele>
        <time>2022-02-24T20:42:44.627Z</time>
      </trkpt>
      <trkpt lat="41.05468" lon="19.94388">
        <ele>66.604963</ele>
        <time>2022-02-24T20:42:57.412Z</time>
      </trkpt>
      <trkpt lat="41.0544" lon="19.94354">
        <ele>66.260262</ele>
        <time>2022-02-24T20:43:06.074Z</time>
      </trkpt>
      <trkpt lat="41.05432" lon="19.94337">
        <ele>66.130071</ele>
        <time>2022-02-24T20:43:09.468Z</time>
      </trkpt>
      <trkpt lat="41.05401" lon="19.94253">
        <ele>65.4936</ele>
        <time>2022-02-24T20:43:25.700Z</time>
      </trkpt>
      <trkpt lat="41.05395" lon="19.94236">
        <ele>65.368709</ele>
        <time>2022-02-24T20:43:29.181Z</time>
      </trkpt>
      <trkpt lat="41.05392" lon="19.9422">
        <ele>65.405701</ele>
        <time>2022-02-24T20:43:32.578Z</time>
      </trkpt>
      <trkpt lat="41.05384" lon="19.94139">
        <ele>65.627426</ele>
        <time>2022-02-24T20:43:50.730Z</time>
      </trkpt>
      <trkpt lat="41.05384" lon="19.94125">
        <ele>65.66403</ele>
        <time>2022-02-24T20:43:53.722Z</time>
      </trkpt>
      <trkpt lat="41.05384" lon="19.94113">
        <ele>65.696543</ele>
        <time>2022-02-24T20:43:56.466Z</time>
      </trkpt>
      <trkpt lat="41.05387" lon="19.9409">
        <ele>65.761058</ele>
        <time>2022-02-24T20:44:01.748Z</time>
      </trkpt>
      <trkpt lat="41.05391" lon="19.94064">
        <ele>65.832676</ele>
        <time>2022-02-24T20:44:07.578Z</time>
      </trkpt>
      <trkpt lat="41.05397" lon="19.94031">
        <ele>65.923327</ele>
        <time>2022-02-24T20:44:15.037Z</time>
      </trkpt>
      <trkpt lat="41.05419" lon="19.93902">
        <ele>66.161314</ele>
        <time>2022-02-24T20:44:44.255Z</time>
      </trkpt>
      <trkpt lat="41.05425" lon="19.93876">
        <ele>66.20232</ele>
        <time>2022-02-24T20:44:49.943Z</time>
      </trkpt>
      <trkpt lat="41.05436" lon="19.93846">
        <ele>66.253321</ele>
        <time>2022-02-24T20:44:57.110Z</time>
      </trkpt>
      <trkpt lat="41.05464" lon="19.93785">
        <ele>66.360865</ele>
        <time>2022-02-24T20:45:10.880Z</time>
      </trkpt>
      <trkpt lat="41.05507" lon="19.93722">
        <ele>66.077104</ele>
        <time>2022-02-24T20:45:26.739Z</time>
      </trkpt>
      <trkpt lat="41.05605" lon="19.93553">
        <ele>65.457182</ele>
        <time>2022-02-24T20:46:05.877Z</time>
      </trkpt>
      <trkpt lat="41.05682" lon="19.93371">
        <ele>65.601074</ele>
        <time>2022-02-24T20:46:47.080Z</time>
      </trkpt>
      <trkpt lat="41.05728" lon="19.93289">
        <ele>66.630198</ele>
        <time>2022-02-24T20:47:15.750Z</time>
      </trkpt>
      <trkpt lat="41.05745" lon="19.93263">
        <ele>66.97296</ele>
        <time>2022-02-24T20:47:22.053Z</time>
      </trkpt>
      <trkpt lat="41.05754" lon="19.9327">
        <ele>67.104262</ele>
        <time>2022-02-24T20:47:28.137Z</time>
      </trkpt>
      <trkpt lat="41.05781" lon="19.93278">
        <ele>67.473996</ele>
        <time>2022-02-24T20:47:35.487Z</time>
      </trkpt>
      <trkpt lat="41.058" lon="19.93308">
        <ele>67.865314</ele>
        <time>2022-02-24T20:47:45.906Z</time>
      </trkpt>
      <trkpt lat="41.0581" lon="19.93315">
        <ele>68.012347</ele>
        <time>2022-02-24T20:47:50.755Z</time>
      </trkpt>
      <trkpt lat="41.05815" lon="19.93314">
        <ele>68.065097</ele>
        <time>2022-02-24T20:47:54.278Z</time>
      </trkpt>
      <trkpt lat="41.05815" lon="19.93311">
        <ele>68.095121</ele>
        <time>2022-02-24T20:47:54.691Z</time>
      </trkpt>
      <trkpt lat="41.05807" lon="19.93268">
        <ele>68.517339</ele>
        <time>2022-02-24T20:48:07.859Z</time>
      </trkpt>
      <trkpt lat="41.05821" lon="19.93243">
        <ele>68.806633</ele>
        <time>2022-02-24T20:48:13.606Z</time>
      </trkpt>
      <trkpt lat="41.0587" lon="19.93187">
        <ele>69.621666</ele>
        <time>2022-02-24T20:48:37.151Z</time>
      </trkpt>
      <trkpt lat="41.05928" lon="19.93124">
        <ele>70.040316</ele>
        <time>2022-02-24T20:48:59.796Z</time>
      </trkpt>
      <trkpt lat="41.05936" lon="19.93118">
        <ele>70.046532</ele>
        <time>2022-02-24T20:49:02.774Z</time>
      </trkpt>
      <trkpt lat="41.05945" lon="19.93108">
        <ele>70.054028</ele>
        <time>2022-02-24T20:49:05.996Z</time>
      </trkpt>
      <trkpt lat="41.05953" lon="19.931">
        <ele>70.060887</ele>
        <time>2022-02-24T20:49:08.718Z</time>
      </trkpt>
      <trkpt lat="41.05963" lon="19.93093">
        <ele>70.068536</ele>
        <time>2022-02-24T20:49:12.391Z</time>
      </trkpt>
      <trkpt lat="41.06026" lon="19.93045">
        <ele>70.117219</ele>
        <time>2022-02-24T20:49:32.460Z</time>
      </trkpt>
      <trkpt lat="41.06071" lon="19.93012">
        <ele>69.745431</ele>
        <time>2022-02-24T20:49:44.614Z</time>
      </trkpt>
      <trkpt lat="41.06091" lon="19.92997">
        <ele>69.440304</ele>
        <time>2022-02-24T20:49:51.180Z</time>
      </trkpt>
      <trkpt lat="41.06098" lon="19.92993">
        <ele>69.343346</ele>
        <time>2022-02-24T20:49:52.851Z</time>
      </trkpt>
      <trkpt lat="41.06097" lon="19.92989">
        <ele>69.29961</ele>
        <time>2022-02-24T20:49:53.449Z</time>
      </trkpt>
      <trkpt lat="41.06098" lon="19.92962">
        <ele>69.034847</ele>
        <time>2022-02-24T20:49:58.886Z</time>
      </trkpt>
      <trkpt lat="41.06075" lon="19.92913">
        <ele>68.469971</ele>
        <time>2022-02-24T20:50:09.106Z</time>
      </trkpt>
      <trkpt lat="41.06071" lon="19.92905">
        <ele>68.374112</ele>
        <time>2022-02-24T20:50:10.475Z</time>
      </trkpt>
      <trkpt lat="41.06224" lon="19.92803">
        <ele>66.238388</ele>
        <time>2022-02-24T20:50:48.745Z</time>
      </trkpt>
      <trkpt lat="41.06313" lon="19.92743">
        <ele>65.254189</ele>
        <time>2022-02-24T20:51:12.510Z</time>
      </trkpt>
      <trkpt lat="41.06404" lon="19.92682">
        <ele>64.515285</ele>
        <time>2022-02-24T20:51:36.475Z</time>
      </trkpt>
      <trkpt lat="41.0644" lon="19.92657">
        <ele>64.274582</ele>
        <time>2022-02-24T20:51:46.746Z</time>
      </trkpt>
      <trkpt lat="41.0648" lon="19.92627">
        <ele>64.185694</ele>
        <time>2022-02-24T20:51:58.464Z</time>
      </trkpt>
      <trkpt lat="41.0653" lon="19.92586">
        <ele>64.069983</ele>
        <time>2022-02-24T20:52:13.754Z</time>
      </trkpt>
      <trkpt lat="41.06543" lon="19.92575">
        <ele>64.040596</ele>
        <time>2022-02-24T20:52:17.951Z</time>
      </trkpt>
      <trkpt lat="41.06694" lon="19.92436">
        <ele>63.714813</ele>
        <time>2022-02-24T20:53:06.181Z</time>
      </trkpt>
      <trkpt lat="41.06738" lon="19.92394">
        <ele>63.666914</ele>
        <time>2022-02-24T20:53:19.860Z</time>
      </trkpt>
      <trkpt lat="41.06793" lon="19.92333">
        <ele>63.872968</ele>
        <time>2022-02-24T20:53:38.071Z</time>
      </trkpt>
      <trkpt lat="41.06912" lon="19.92169">
        <ele>65.090493</ele>
        <time>2022-02-24T20:54:30.055Z</time>
      </trkpt>
      <trkpt lat="41.06957" lon="19.92114">
        <ele>65.871646</ele>
        <time>2022-02-24T20:54:51.821Z</time>
      </trkpt>
      <trkpt lat="41.07016" lon="19.92053">
        <ele>66.431099</ele>
        <time>2022-02-24T20:55:17.467Z</time>
      </trkpt>
      <trkpt lat="41.07058" lon="19.92019">
        <ele>66.370467</ele>
        <time>2022-02-24T20:55:31.779Z</time>
      </trkpt>
      <trkpt lat="41.07065" lon="19.92015">
        <ele>66.361468</ele>
        <time>2022-02-24T20:55:35.028Z</time>
      </trkpt>
      <trkpt lat="41.07066" lon="19.92008">
        <ele>66.355167</ele>
        <time>2022-02-24T20:55:35.956Z</time>
      </trkpt>
      <trkpt lat="41.07129" lon="19.91952">
        <ele>66.261611</ele>
        <time>2022-02-24T20:55:53.819Z</time>
      </trkpt>
      <trkpt lat="41.07159" lon="19.91918">
        <ele>65.739996</ele>
        <time>2022-02-24T20:56:02.443Z</time>
      </trkpt>
      <trkpt lat="41.07163" lon="19.91918">
        <ele>65.644077</ele>
        <time>2022-02-24T20:56:03.472Z</time>
      </trkpt>
      <trkpt lat="41.07172" lon="19.91901">
        <ele>65.347294</ele>
        <time>2022-02-24T20:56:06.691Z</time>
      </trkpt>
      <trkpt lat="41.07185" lon="19.91864">
        <ele>64.743306</ele>
        <time>2022-02-24T20:56:12.918Z</time>
      </trkpt>
      <trkpt lat="41.07199" lon="19.91801">
        <ele>63.764714</ele>
        <time>2022-02-24T20:56:23.308Z</time>
      </trkpt>
      <trkpt lat="41.07205" lon="19.91733">
        <ele>62.763168</ele>
        <time>2022-02-24T20:56:33.948Z</time>
      </trkpt>
      <trkpt lat="41.07154" lon="19.91407">
        <ele>59.771482</ele>
        <time>2022-02-24T20:57:31.040Z</time>
      </trkpt>
      <trkpt lat="41.07152" lon="19.91324">
        <ele>59.198192</ele>
        <time>2022-02-24T20:57:45.717Z</time>
      </trkpt>
      <trkpt lat="41.07173" lon="19.91105">
        <ele>58.202346</ele>
        <time>2022-02-24T20:58:25.661Z</time>
      </trkpt>
      <trkpt lat="41.07219" lon="19.90887">
        <ele>58.529846</ele>
        <time>2022-02-24T20:59:11.085Z</time>
      </trkpt>
      <trkpt lat="41.0722" lon="19.90852">
        <ele>58.679972</ele>
        <time>2022-02-24T20:59:19.739Z</time>
      </trkpt>
      <trkpt lat="41.07237" lon="19.90852">
        <ele>58.775841</ele>
        <time>2022-02-24T20:59:25.185Z</time>
      </trkpt>
      <trkpt lat="41.07245" lon="19.90851">
        <ele>58.822497</ele>
        <time>2022-02-24T20:59:28.027Z</time>
      </trkpt>
      <trkpt lat="41.07252" lon="19.90851">
        <ele>58.861201</ele>
        <time>2022-02-24T20:59:30.817Z</time>
      </trkpt>
      <trkpt lat="41.07303" lon="19.90873">
        <ele>60.065466</ele>
        <time>2022-02-24T20:59:49.830Z</time>
      </trkpt>
      <trkpt lat="41.07316" lon="19.90895">
        <ele>60.641193</ele>
        <time>2022-02-24T20:59:58.256Z</time>
      </trkpt>
      <trkpt lat="41.0732" lon="19.90895">
        <ele>60.734195</ele>
        <time>2022-02-24T20:59:59.645Z</time>
      </trkpt>
      <trkpt lat="41.07336" lon="19.90893">
        <ele>61.178259</ele>
        <time>2022-02-24T21:00:05.833Z</time>
      </trkpt>
      <trkpt lat="41.07352" lon="19.90861">
        <ele>61.970049</ele>
        <time>2022-02-24T21:00:18.066Z</time>
      </trkpt>
      <trkpt lat="41.07354" lon="19.90725">
        <ele>64.918213</ele>
        <time>2022-02-24T21:01:04.492Z</time>
      </trkpt>
      <trkpt lat="41.07363" lon="19.90582">
        <ele>68.384318</ele>
        <time>2022-02-24T21:01:52.793Z</time>
      </trkpt>
      <trkpt lat="41.07375" lon="19.90481">
        <ele>69.625541</ele>
        <time>2022-02-24T21:02:23.326Z</time>
      </trkpt>
      <trkpt lat="41.07362" lon="19.90435">
        <ele>69.65938</ele>
        <time>2022-02-24T21:02:34.534Z</time>
      </trkpt>
      <trkpt lat="41.07358" lon="19.90383">
        <ele>69.695168</ele>
        <time>2022-02-24T21:02:44.623Z</time>
      </trkpt>
      <trkpt lat="41.07338" lon="19.90373">
        <ele>69.714754</ele>
        <time>2022-02-24T21:02:50.181Z</time>
      </trkpt>
      <trkpt lat="41.07333" lon="19.90358">
        <ele>69.726369</ele>
        <time>2022-02-24T21:02:53.120Z</time>
      </trkpt>
      <trkpt lat="41.0733" lon="19.90315">
        <ele>69.702825</ele>
        <time>2022-02-24T21:03:00.740Z</time>
      </trkpt>
      <trkpt lat="41.0733" lon="19.90308">
        <ele>69.595258</ele>
        <time>2022-02-24T21:03:01.759Z</time>
      </trkpt>
      <trkpt lat="41.07321" lon="19.90025">
        <ele>65.764317</ele>
        <time>2022-02-24T21:03:48.508Z</time>
      </trkpt>
      <trkpt lat="41.07323" lon="19.90013">
        <ele>65.688874</ele>
        <time>2022-02-24T21:03:50.704Z</time>
      </trkpt>
      <trkpt lat="41.07349" lon="19.8999">
        <ele>65.432571</ele>
        <time>2022-02-24T21:03:58.344Z</time>
      </trkpt>
      <trkpt lat="41.07351" lon="19.89979">
        <ele>65.360794</ele>
        <time>2022-02-24T21:04:00.517Z</time>
      </trkpt>
      <trkpt lat="41.07314" lon="19.8996">
        <ele>65.035976</ele>
        <time>2022-02-24T21:04:10.688Z</time>
      </trkpt>
      <trkpt lat="41.07302" lon="19.8993">
        <ele>64.824001</ele>
        <time>2022-02-24T21:04:17.622Z</time>
      </trkpt>
      <trkpt lat="41.0726" lon="19.89756">
        <ele>64.86045</ele>
        <time>2022-02-24T21:04:58.248Z</time>
      </trkpt>
      <trkpt lat="41.07262" lon="19.89745">
        <ele>64.878004</ele>
        <time>2022-02-24T21:05:00.866Z</time>
      </trkpt>
      <trkpt lat="41.07282" lon="19.89728">
        <ele>64.926691</ele>
        <time>2022-02-24T21:05:08.053Z</time>
      </trkpt>
      <trkpt lat="41.07283" lon="19.89719">
        <ele>64.94159</ele>
        <time>2022-02-24T21:05:10.277Z</time>
      </trkpt>
      <trkpt lat="41.07261" lon="19.89678">
        <ele>64.945779</ele>
        <time>2022-02-24T21:05:20.459Z</time>
      </trkpt>
      <trkpt lat="41.07243" lon="19.89687">
        <ele>64.858405</ele>
        <time>2022-02-24T21:05:25.432Z</time>
      </trkpt>
      <trkpt lat="41.07233" lon="19.89684">
        <ele>64.813463</ele>
        <time>2022-02-24T21:05:28.238Z</time>
      </trkpt>
      <trkpt lat="41.07196" lon="19.89591">
        <ele>64.461889</ele>
        <time>2022-02-24T21:05:48.854Z</time>
      </trkpt>
      <trkpt lat="41.07195" lon="19.89581">
        <ele>64.427537</ele>
        <time>2022-02-24T21:05:50.710Z</time>
      </trkpt>
      <trkpt lat="41.07186" lon="19.89582">
        <ele>64.385164</ele>
        <time>2022-02-24T21:05:54.552Z</time>
      </trkpt>
      <trkpt lat="41.07183" lon="19.89573">
        <ele>64.353647</ele>
        <time>2022-02-24T21:05:56.370Z</time>
      </trkpt>
      <trkpt lat="41.07083" lon="19.89376">
        <ele>63.475356</ele>
        <time>2022-02-24T21:06:41.555Z</time>
      </trkpt>
      <trkpt lat="41.06986" lon="19.89213">
        <ele>63.378401</ele>
        <time>2022-02-24T21:07:24.575Z</time>
      </trkpt>
      <trkpt lat="41.06955" lon="19.89141">
        <ele>63.44797</ele>
        <time>2022-02-24T21:07:42.626Z</time>
      </trkpt>
      <trkpt lat="41.06954" lon="19.89138">
        <ele>63.478044</ele>
        <time>2022-02-24T21:07:43.622Z</time>
      </trkpt>
      <trkpt lat="41.06948" lon="19.89132">
        <ele>63.544781</ele>
        <time>2022-02-24T21:07:45.570Z</time>
      </trkpt>
      <trkpt lat="41.06772" lon="19.88933">
        <ele>65.929751</ele>
        <time>2022-02-24T21:09:02.343Z</time>
      </trkpt>
      <trkpt lat="41.06721" lon="19.88859">
        <ele>66.800896</ele>
        <time>2022-02-24T21:09:28.549Z</time>
      </trkpt>
      <trkpt lat="41.06718" lon="19.88853">
        <ele>66.863876</ele>
        <time>2022-02-24T21:09:31.271Z</time>
      </trkpt>
      <trkpt lat="41.06738" lon="19.88824">
        <ele>67.199636</ele>
        <time>2022-02-24T21:09:40.139Z</time>
      </trkpt>
      <trkpt lat="41.06739" lon="19.88811">
        <ele>67.251246</ele>
        <time>2022-02-24T21:09:43.755Z</time>
      </trkpt>
      <trkpt lat="41.06719" lon="19.88782">
        <ele>67.177363</ele>
        <time>2022-02-24T21:09:52.202Z</time>
      </trkpt>
      <trkpt lat="41.0671" lon="19.88703">
        <ele>67.031008</ele>
        <time>2022-02-24T21:10:09.014Z</time>
      </trkpt>
      <trkpt lat="41.06702" lon="19.88695">
        <ele>67.008558</ele>
        <time>2022-02-24T21:10:11.307Z</time>
      </trkpt>
      <trkpt lat="41.0667" lon="19.88705">
        <ele>66.927174</ele>
        <time>2022-02-24T21:10:20.237Z</time>
      </trkpt>
      <trkpt lat="41.06639" lon="19.88735">
        <ele>66.833441</ele>
        <time>2022-02-24T21:10:29.231Z</time>
      </trkpt>
      <trkpt lat="41.06619" lon="19.88665">
        <ele>66.326992</ele>
        <time>2022-02-24T21:10:42.572Z</time>
      </trkpt>
      <trkpt lat="41.06552" lon="19.88394">
        <ele>64.308891</ele>
        <time>2022-02-24T21:11:35.599Z</time>
      </trkpt>
      <trkpt lat="41.06508" lon="19.88287">
        <ele>63.434667</ele>
        <time>2022-02-24T21:11:58.514Z</time>
      </trkpt>
      <trkpt lat="41.06508" lon="19.88279">
        <ele>63.328837</ele>
        <time>2022-02-24T21:11:59.715Z</time>
      </trkpt>
      <trkpt lat="41.06501" lon="19.88263">
        <ele>63.068174</ele>
        <time>2022-02-24T21:12:03.001Z</time>
      </trkpt>
      <trkpt lat="41.06489" lon="19.88236">
        <ele>62.628992</ele>
        <time>2022-02-24T21:12:08.180Z</time>
      </trkpt>
      <trkpt lat="41.06478" lon="19.88207">
        <ele>62.167651</ele>
        <time>2022-02-24T21:12:13.778Z</time>
      </trkpt>
      <trkpt lat="41.06468" lon="19.88178">
        <ele>61.723698</ele>
        <time>2022-02-24T21:12:19.159Z</time>
      </trkpt>
      <trkpt lat="41.06454" lon="19.88135">
        <ele>61.064039</ele>
        <time>2022-02-24T21:12:26.839Z</time>
      </trkpt>
      <trkpt lat="41.06449" lon="19.88128">
        <ele>60.929979</ele>
        <time>2022-02-24T21:12:28.360Z</time>
      </trkpt>
      <trkpt lat="41.06447" lon="19.88127">
        <ele>60.88554</ele>
        <time>2022-02-24T21:12:28.837Z</time>
      </trkpt>
      <trkpt lat="41.06444" lon="19.88126">
        <ele>60.839615</ele>
        <time>2022-02-24T21:12:29.375Z</time>
      </trkpt>
      <trkpt lat="41.06441" lon="19.88128">
        <ele>60.772929</ele>
        <time>2022-02-24T21:12:30.115Z</time>
      </trkpt>
      <trkpt lat="41.06433" lon="19.88134">
        <ele>60.608807</ele>
        <time>2022-02-24T21:12:32.005Z</time>
      </trkpt>
      <trkpt lat="41.06423" lon="19.88141">
        <ele>60.384282</ele>
        <time>2022-02-24T21:12:34.811Z</time>
      </trkpt>
      <trkpt lat="41.06419" lon="19.88136">
        <ele>60.288934</ele>
        <time>2022-02-24T21:12:35.853Z</time>
      </trkpt>
      <trkpt lat="41.06381" lon="19.88081">
        <ele>59.404809</ele>
        <time>2022-02-24T21:12:48.192Z</time>
      </trkpt>
      <trkpt lat="41.06364" lon="19.88073">
        <ele>59.13556</ele>
        <time>2022-02-24T21:12:52.116Z</time>
      </trkpt>
      <trkpt lat="41.06356" lon="19.88074">
        <ele>59.011985</ele>
        <time>2022-02-24T21:12:53.805Z</time>
      </trkpt>
      <trkpt lat="41.06287" lon="19.87966">
        <ele>57.411615</ele>
        <time>2022-02-24T21:13:17.965Z</time>
      </trkpt>
      <trkpt lat="41.06265" lon="19.87928">
        <ele>57.281025</ele>
        <time>2022-02-24T21:13:26.931Z</time>
      </trkpt>
      <trkpt lat="41.0625" lon="19.87891">
        <ele>57.185719</ele>
        <time>2022-02-24T21:13:35.323Z</time>
      </trkpt>
      <trkpt lat="41.06234" lon="19.87803">
        <ele>56.979645</ele>
        <time>2022-02-24T21:13:53.796Z</time>
      </trkpt>
      <trkpt lat="41.06252" lon="19.87505">
        <ele>55.749252</ele>
        <time>2022-02-24T21:14:49.294Z</time>
      </trkpt>
      <trkpt lat="41.06252" lon="19.87389">
        <ele>54.485709</ele>
        <time>2022-02-24T21:15:08.562Z</time>
      </trkpt>
      <trkpt lat="41.06244" lon="19.87334">
        <ele>53.88113</ele>
        <time>2022-02-24T21:15:17.531Z</time>
      </trkpt>
      <trkpt lat="41.06203" lon="19.87051">
        <ele>51.183452</ele>
        <time>2022-02-24T21:16:06.082Z</time>
      </trkpt>
      <trkpt lat="41.06207" lon="19.87044">
        <ele>51.105942</ele>
        <time>2022-02-24T21:16:07.920Z</time>
      </trkpt>
      <trkpt lat="41.06208" lon="19.8704">
        <ele>51.067139</ele>
        <time>2022-02-24T21:16:08.767Z</time>
      </trkpt>
      <trkpt lat="41.062" lon="19.86974">
        <ele>51.00681</ele>
        <time>2022-02-24T21:16:22.111Z</time>
      </trkpt>
      <trkpt lat="41.06196" lon="19.86943">
        <ele>50.993494</ele>
        <time>2022-02-24T21:16:28.720Z</time>
      </trkpt>
      <trkpt lat="41.06195" lon="19.86901">
        <ele>50.97526</ele>
        <time>2022-02-24T21:16:37.888Z</time>
      </trkpt>
      <trkpt lat="41.06181" lon="19.86857">
        <ele>50.954801</ele>
        <time>2022-02-24T21:16:48.408Z</time>
      </trkpt>
      <trkpt lat="41.06174" lon="19.86851">
        <ele>50.950216</ele>
        <time>2022-02-24T21:16:50.732Z</time>
      </trkpt>
      <trkpt lat="41.06163" lon="19.86765">
        <ele>50.866128</ele>
        <time>2022-02-24T21:17:08.867Z</time>
      </trkpt>
      <trkpt lat="41.06154" lon="19.86701">
        <ele>50.766937</ele>
        <time>2022-02-24T21:17:21.668Z</time>
      </trkpt>
      <trkpt lat="41.06144" lon="19.86633">
        <ele>50.663289</ele>
        <time>2022-02-24T21:17:35.083Z</time>
      </trkpt>
      <trkpt lat="41.06142" lon="19.86619">
        <ele>50.641357</ele>
        <time>2022-02-24T21:17:37.943Z</time>
      </trkpt>
      <trkpt lat="41.06141" lon="19.86614">
        <ele>50.632445</ele>
        <time>2022-02-24T21:17:38.931Z</time>
      </trkpt>
      <trkpt lat="41.06124" lon="19.86539">
        <ele>50.429609</ele>
        <time>2022-02-24T21:17:53.219Z</time>
      </trkpt>
      <trkpt lat="41.0609" lon="19.86439">
        <ele>50.016148</ele>
        <time>2022-02-24T21:18:13.098Z</time>
      </trkpt>
      <trkpt lat="41.06078" lon="19.86388">
        <ele>49.816184</ele>
        <time>2022-02-24T21:18:22.969Z</time>
      </trkpt>
      <trkpt lat="41.06074" lon="19.86366">
        <ele>49.731227</ele>
        <time>2022-02-24T21:18:27.136Z</time>
      </trkpt>
      <trkpt lat="41.06071" lon="19.8634">
        <ele>49.685279</ele>
        <time>2022-02-24T21:18:32.467Z</time>
      </trkpt>
      <trkpt lat="41.0607" lon="19.86316">
        <ele>49.719318</ele>
        <time>2022-02-24T21:18:37.143Z</time>
      </trkpt>
      <trkpt lat="41.06069" lon="19.86293">
        <ele>49.751417</ele>
        <time>2022-02-24T21:18:41.852Z</time>
      </trkpt>
      <trkpt lat="41.06071" lon="19.86272">
        <ele>49.781096</ele>
        <time>2022-02-24T21:18:45.992Z</time>
      </trkpt>
      <trkpt lat="41.06071" lon="19.86206">
        <ele>49.87452</ele>
        <time>2022-02-24T21:18:59.935Z</time>
      </trkpt>
      <trkpt lat="41.06065" lon="19.86134">
        <ele>49.976244</ele>
        <time>2022-02-24T21:19:15.672Z</time>
      </trkpt>
      <trkpt lat="41.06043" lon="19.86042">
        <ele>50.089704</ele>
        <time>2022-02-24T21:19:36.933Z</time>
      </trkpt>
      <trkpt lat="41.06001" lon="19.85943">
        <ele>50.215991</ele>
        <time>2022-02-24T21:20:00.439Z</time>
      </trkpt>
      <trkpt lat="41.05942" lon="19.85847">
        <ele>50.070917</ele>
        <time>2022-02-24T21:20:23.747Z</time>
      </trkpt>
      <trkpt lat="41.05922" lon="19.85812">
        <ele>49.950966</ele>
        <time>2022-02-24T21:20:31.710Z</time>
      </trkpt>
      <trkpt lat="41.05897" lon="19.85767">
        <ele>49.797864</ele>
        <time>2022-02-24T21:20:42.069Z</time>
      </trkpt>
      <trkpt lat="41.05867" lon="19.85707">
        <ele>49.657258</ele>
        <time>2022-02-24T21:20:56.415Z</time>
      </trkpt>
      <trkpt lat="41.05862" lon="19.85696">
        <ele>49.726104</ele>
        <time>2022-02-24T21:20:58.705Z</time>
      </trkpt>
      <trkpt lat="41.05843" lon="19.85656">
        <ele>49.984215</ele>
        <time>2022-02-24T21:21:08.591Z</time>
      </trkpt>
      <trkpt lat="41.05824" lon="19.85613">
        <ele>50.249383</ele>
        <time>2022-02-24T21:21:19.489Z</time>
      </trkpt>
      <trkpt lat="41.05814" lon="19.8559">
        <ele>50.392587</ele>
        <time>2022-02-24T21:21:26.104Z</time>
      </trkpt>
      <trkpt lat="41.05779" lon="19.85496">
        <ele>51.013537</ele>
        <time>2022-02-24T21:21:51.404Z</time>
      </trkpt>
      <trkpt lat="41.05746" lon="19.85408">
        <ele>52.064576</ele>
        <time>2022-02-24T21:22:17.029Z</time>
      </trkpt>
      <trkpt lat="41.05732" lon="19.85311">
        <ele>53.14185</ele>
        <time>2022-02-24T21:22:42.269Z</time>
      </trkpt>
      <trkpt lat="41.05732" lon="19.85305">
        <ele>53.204555</ele>
        <time>2022-02-24T21:22:43.901Z</time>
      </trkpt>
      <trkpt lat="41.05731" lon="19.8528">
        <ele>53.473873</ele>
        <time>2022-02-24T21:22:50.006Z</time>
      </trkpt>
      <trkpt lat="41.05734" lon="19.85244">
        <ele>53.748867</ele>
        <time>2022-02-24T21:22:58.959Z</time>
      </trkpt>
      <trkpt lat="41.05745" lon="19.85169">
        <ele>54.325446</ele>
        <time>2022-02-24T21:23:17.240Z</time>
      </trkpt>
      <trkpt lat="41.05756" lon="19.85094">
        <ele>54.907881</ele>
        <time>2022-02-24T21:23:35.492Z</time>
      </trkpt>
      <trkpt lat="41.05775" lon="19.8496">
        <ele>55.630143</ele>
        <time>2022-02-24T21:24:05.779Z</time>
      </trkpt>
      <trkpt lat="41.05776" lon="19.84901">
        <ele>55.869491</ele>
        <time>2022-02-24T21:24:18.708Z</time>
      </trkpt>
      <trkpt lat="41.05769" lon="19.8485">
        <ele>56.078661</ele>
        <time>2022-02-24T21:24:30.002Z</time>
      </trkpt>
      <trkpt lat="41.05745" lon="19.8477">
        <ele>56.41542</ele>
        <time>2022-02-24T21:24:48.939Z</time>
      </trkpt>
      <trkpt lat="41.05671" lon="19.84627">
        <ele>57.070789</ele>
        <time>2022-02-24T21:25:26.949Z</time>
      </trkpt>
      <trkpt lat="41.05655" lon="19.8459">
        <ele>57.229246</ele>
        <time>2022-02-24T21:25:36.377Z</time>
      </trkpt>
      <trkpt lat="41.05641" lon="19.84546">
        <ele>57.402843</ele>
        <time>2022-02-24T21:25:46.859Z</time>
      </trkpt>
      <trkpt lat="41.05581" lon="19.84352">
        <ele>58.140808</ele>
        <time>2022-02-24T21:26:32.442Z</time>
      </trkpt>
      <trkpt lat="41.05551" lon="19.8424">
        <ele>58.505478</ele>
        <time>2022-02-24T21:26:57.597Z</time>
      </trkpt>
      <trkpt lat="41.05541" lon="19.8418">
        <ele>58.693731</ele>
        <time>2022-02-24T21:27:11.267Z</time>
      </trkpt>
      <trkpt lat="41.05534" lon="19.84118">
        <ele>58.937977</ele>
        <time>2022-02-24T21:27:25.015Z</time>
      </trkpt>
      <trkpt lat="41.05528" lon="19.84033">
        <ele>59.295856</ele>
        <time>2022-02-24T21:27:43.837Z</time>
      </trkpt>
      <trkpt lat="41.05524" lon="19.83997">
        <ele>59.449057</ele>
        <time>2022-02-24T21:27:51.996Z</time>
      </trkpt>
      <trkpt lat="41.05519" lon="19.83932">
        <ele>59.724127</ele>
        <time>2022-02-24T21:28:06.436Z</time>
      </trkpt>
      <trkpt lat="41.05516" lon="19.83908">
        <ele>59.807042</ele>
        <time>2022-02-24T21:28:12.068Z</time>
      </trkpt>
      <trkpt lat="41.05513" lon="19.83879">
        <ele>59.899102</ele>
        <time>2022-02-24T21:28:18.708Z</time>
      </trkpt>
      <trkpt lat="41.05506" lon="19.83833">
        <ele>60.04647</ele>
        <time>2022-02-24T21:28:28.982Z</time>
      </trkpt>
      <trkpt lat="41.05495" lon="19.83774">
        <ele>60.238739</ele>
        <time>2022-02-24T21:28:42.233Z</time>
      </trkpt>
      <trkpt lat="41.05493" lon="19.83765">
        <ele>60.268836</ele>
        <time>2022-02-24T21:28:44.290Z</time>
      </trkpt>
      <trkpt lat="41.0547" lon="19.83667">
        <ele>60.463444</ele>
        <time>2022-02-24T21:29:05.882Z</time>
      </trkpt>
      <trkpt lat="41.05463" lon="19.8365">
        <ele>60.438418</ele>
        <time>2022-02-24T21:29:09.769Z</time>
      </trkpt>
      <trkpt lat="41.05451" lon="19.83629">
        <ele>60.406353</ele>
        <time>2022-02-24T21:29:14.958Z</time>
      </trkpt>
      <trkpt lat="41.0543" lon="19.83598">
        <ele>60.352864</ele>
        <time>2022-02-24T21:29:23.101Z</time>
      </trkpt>
      <trkpt lat="41.05426" lon="19.83594">
        <ele>60.34492</ele>
        <time>2022-02-24T21:29:24.566Z</time>
      </trkpt>
      <trkpt lat="41.05421" lon="19.83588">
        <ele>60.333254</ele>
        <time>2022-02-24T21:29:26.330Z</time>
      </trkpt>
      <trkpt lat="41.05416" lon="19.83583">
        <ele>60.323426</ele>
        <time>2022-02-24T21:29:27.793Z</time>
      </trkpt>
      <trkpt lat="41.05399" lon="19.83567">
        <ele>60.289098</ele>
        <time>2022-02-24T21:29:32.941Z</time>
      </trkpt>
      <trkpt lat="41.05323" lon="19.83513">
        <ele>59.944477</ele>
        <time>2022-02-24T21:29:54.784Z</time>
      </trkpt>
      <trkpt lat="41.05293" lon="19.83479">
        <ele>59.637015</ele>
        <time>2022-02-24T21:30:04.402Z</time>
      </trkpt>
      <trkpt lat="41.05267" lon="19.83435">
        <ele>59.315457</ele>
        <time>2022-02-24T21:30:14.055Z</time>
      </trkpt>
      <trkpt lat="41.05238" lon="19.83347">
        <ele>58.755091</ele>
        <time>2022-02-24T21:30:30.809Z</time>
      </trkpt>
      <trkpt lat="41.05226" lon="19.83306">
        <ele>58.472064</ele>
        <time>2022-02-24T21:30:38.631Z</time>
      </trkpt>
      <trkpt lat="41.05205" lon="19.83239">
        <ele>58.014513</ele>
        <time>2022-02-24T21:30:51.291Z</time>
      </trkpt>
      <trkpt lat="41.05197" lon="19.83209">
        <ele>57.808515</ele>
        <time>2022-02-24T21:30:57.137Z</time>
      </trkpt>
      <trkpt lat="41.0519" lon="19.83177">
        <ele>57.599569</ele>
        <time>2022-02-24T21:31:03.051Z</time>
      </trkpt>
      <trkpt lat="41.05185" lon="19.83152">
        <ele>57.433605</ele>
        <time>2022-02-24T21:31:07.765Z</time>
      </trkpt>
      <trkpt lat="41.05181" lon="19.83125">
        <ele>57.263842</ele>
        <time>2022-02-24T21:31:12.746Z</time>
      </trkpt>
      <trkpt lat="41.05169" lon="19.83044">
        <ele>56.805869</ele>
        <time>2022-02-24T21:31:27.598Z</time>
      </trkpt>
      <trkpt lat="41.05169" lon="19.83044">
        <ele>56.803534</ele>
        <time>2022-02-24T21:31:27.715Z</time>
      </trkpt>
      <trkpt lat="41.05154" lon="19.82971">
        <ele>56.384488</ele>
        <time>2022-02-24T21:31:41.189Z</time>
      </trkpt>
      <trkpt lat="41.05149" lon="19.82955">
        <ele>56.290383</ele>
        <time>2022-02-24T21:31:44.320Z</time>
      </trkpt>
      <trkpt lat="41.05144" lon="19.82943">
        <ele>56.217385</ele>
        <time>2022-02-24T21:31:46.675Z</time>
      </trkpt>
      <trkpt lat="41.05126" lon="19.82894">
        <ele>55.925975</ele>
        <time>2022-02-24T21:31:56.643Z</time>
      </trkpt>
      <trkpt lat="41.05111" lon="19.82854">
        <ele>55.740559</ele>
        <time>2022-02-24T21:32:04.599Z</time>
      </trkpt>
      <trkpt lat="41.0509" lon="19.82797">
        <ele>55.469748</ele>
        <time>2022-02-24T21:32:16.267Z</time>
      </trkpt>
      <trkpt lat="41.05058" lon="19.82692">
        <ele>54.990676</ele>
        <time>2022-02-24T21:32:37.180Z</time>
      </trkpt>
      <trkpt lat="41.05032" lon="19.8239">
        <ele>54.18581</ele>
        <time>2022-02-24T21:33:35.993Z</time>
      </trkpt>
      <trkpt lat="41.05029" lon="19.82373">
        <ele>54.099303</ele>
        <time>2022-02-24T21:33:39.508Z</time>
      </trkpt>
      <trkpt lat="41.05027" lon="19.82367">
        <ele>54.064859</ele>
        <time>2022-02-24T21:33:40.609Z</time>
      </trkpt>
      <trkpt lat="41.05003" lon="19.8229">
        <ele>53.652323</ele>
        <time>2022-02-24T21:33:55.809Z</time>
      </trkpt>
      <trkpt lat="41.04967" lon="19.82223">
        <ele>53.24132</ele>
        <time>2022-02-24T21:34:10.211Z</time>
      </trkpt>
      <trkpt lat="41.04918" lon="19.82151">
        <ele>52.711688</ele>
        <time>2022-02-24T21:34:27.244Z</time>
      </trkpt>
      <trkpt lat="41.04794" lon="19.82013">
        <ele>51.811891</ele>
        <time>2022-02-24T21:35:06.708Z</time>
      </trkpt>
      <trkpt lat="41.04776" lon="19.81987">
        <ele>51.735117</ele>
        <time>2022-02-24T21:35:13.290Z</time>
      </trkpt>
      <trkpt lat="41.04723" lon="19.81884">
        <ele>51.482765</ele>
        <time>2022-02-24T21:35:38.018Z</time>
      </trkpt>
      <trkpt lat="41.04696" lon="19.81827">
        <ele>51.594266</ele>
        <time>2022-02-24T21:35:52.085Z</time>
      </trkpt>
      <trkpt lat="41.04686" lon="19.81805">
        <ele>51.636821</ele>
        <time>2022-02-24T21:35:57.463Z</time>
      </trkpt>
      <trkpt lat="41.04695" lon="19.81795">
        <ele>51.662198</ele>
        <time>2022-02-24T21:36:00.954Z</time>
      </trkpt>
      <trkpt lat="41.04699" lon="19.8178">
        <ele>51.687752</ele>
        <time>2022-02-24T21:36:04.381Z</time>
      </trkpt>
      <trkpt lat="41.047" lon="19.81748">
        <ele>51.741092</ele>
        <time>2022-02-24T21:36:11.599Z</time>
      </trkpt>
      <trkpt lat="41.04641" lon="19.816">
        <ele>51.364609</ele>
        <time>2022-02-24T21:36:48.071Z</time>
      </trkpt>
      <trkpt lat="41.04638" lon="19.81533">
        <ele>50.985623</ele>
        <time>2022-02-24T21:37:00.246Z</time>
      </trkpt>
      <trkpt lat="41.0463" lon="19.81504">
        <ele>50.810412</ele>
        <time>2022-02-24T21:37:05.968Z</time>
      </trkpt>
      <trkpt lat="41.04625" lon="19.81503">
        <ele>50.776562</ele>
        <time>2022-02-24T21:37:06.852Z</time>
      </trkpt>
      <trkpt lat="41.04555" lon="19.81456">
        <ele>49.740021</ele>
        <time>2022-02-24T21:37:24.809Z</time>
      </trkpt>
      <trkpt lat="41.04544" lon="19.81456">
        <ele>49.545442</ele>
        <time>2022-02-24T21:37:27.542Z</time>
      </trkpt>
      <trkpt lat="41.04536" lon="19.81457">
        <ele>49.394682</ele>
        <time>2022-02-24T21:37:29.357Z</time>
      </trkpt>
      <trkpt lat="41.0451" lon="19.81395">
        <ele>48.464832</ele>
        <time>2022-02-24T21:37:40.427Z</time>
      </trkpt>
      <trkpt lat="41.04451" lon="19.8125">
        <ele>46.63188</ele>
        <time>2022-02-24T21:38:07.370Z</time>
      </trkpt>
      <trkpt lat="41.04356" lon="19.81021">
        <ele>44.67716</ele>
        <time>2022-02-24T21:38:53.490Z</time>
      </trkpt>
      <trkpt lat="41.04337" lon="19.8095">
        <ele>44.286655</ele>
        <time>2022-02-24T21:39:06.900Z</time>
      </trkpt>
      <trkpt lat="41.0433" lon="19.80876">
        <ele>44.047171</ele>
        <time>2022-02-24T21:39:21.217Z</time>
      </trkpt>
      <trkpt lat="41.0433" lon="19.8086">
        <ele>44.104393</ele>
        <time>2022-02-24T21:39:24.067Z</time>
      </trkpt>
      <trkpt lat="41.04331" lon="19.80827">
        <ele>44.22817</ele>
        <time>2022-02-24T21:39:31.181Z</time>
      </trkpt>
      <trkpt lat="41.04333" lon="19.80736">
        <ele>44.567313</ele>
        <time>2022-02-24T21:39:51.392Z</time>
      </trkpt>
      <trkpt lat="41.04337" lon="19.80671">
        <ele>44.807183</ele>
        <time>2022-02-24T21:40:06.272Z</time>
      </trkpt>
      <trkpt lat="41.04339" lon="19.8064">
        <ele>44.985747</ele>
        <time>2022-02-24T21:40:13.863Z</time>
      </trkpt>
      <trkpt lat="41.04342" lon="19.80615">
        <ele>45.196762</ele>
        <time>2022-02-24T21:40:20.589Z</time>
      </trkpt>
      <trkpt lat="41.0436" lon="19.80475">
        <ele>46.345178</ele>
        <time>2022-02-24T21:40:55.738Z</time>
      </trkpt>
      <trkpt lat="41.04372" lon="19.80373">
        <ele>46.964565</ele>
        <time>2022-02-24T21:41:19.062Z</time>
      </trkpt>
      <trkpt lat="41.04376" lon="19.80337">
        <ele>47.085261</ele>
        <time>2022-02-24T21:41:26.862Z</time>
      </trkpt>
      <trkpt lat="41.0438" lon="19.80289">
        <ele>47.243713</ele>
        <time>2022-02-24T21:41:37.016Z</time>
      </trkpt>
      <trkpt lat="41.04381" lon="19.80276">
        <ele>47.290052</ele>
        <time>2022-02-24T21:41:39.937Z</time>
      </trkpt>
      <trkpt lat="41.04381" lon="19.80272">
        <ele>47.302383</ele>
        <time>2022-02-24T21:41:40.706Z</time>
      </trkpt>
      <trkpt lat="41.04382" lon="19.80249">
        <ele>47.378058</ele>
        <time>2022-02-24T21:41:45.512Z</time>
      </trkpt>
      <trkpt lat="41.04385" lon="19.80156">
        <ele>47.785924</ele>
        <time>2022-02-24T21:42:05.037Z</time>
      </trkpt>
      <trkpt lat="41.04385" lon="19.80111">
        <ele>48.103633</ele>
        <time>2022-02-24T21:42:14.983Z</time>
      </trkpt>
      <trkpt lat="41.04383" lon="19.80039">
        <ele>48.611217</ele>
        <time>2022-02-24T21:42:31.924Z</time>
      </trkpt>
      <trkpt lat="41.0437" lon="19.80033">
        <ele>48.740217</ele>
        <time>2022-02-24T21:42:36.149Z</time>
      </trkpt>
      <trkpt lat="41.04352" lon="19.80006">
        <ele>48.993217</ele>
        <time>2022-02-24T21:42:45.758Z</time>
      </trkpt>
      <trkpt lat="41.0434" lon="19.79944">
        <ele>49.520384</ele>
        <time>2022-02-24T21:43:02.606Z</time>
      </trkpt>
      <trkpt lat="41.04341" lon="19.79928">
        <ele>49.693407</ele>
        <time>2022-02-24T21:43:06.892Z</time>
      </trkpt>
      <trkpt lat="41.04368" lon="19.79837">
        <ele>50.740483</ele>
        <time>2022-02-24T21:43:33.207Z</time>
      </trkpt>
      <trkpt lat="41.04384" lon="19.79815">
        <ele>51.054828</ele>
        <time>2022-02-24T21:43:41.449Z</time>
      </trkpt>
      <trkpt lat="41.0439" lon="19.79732">
        <ele>51.794831</ele>
        <time>2022-02-24T21:44:02.210Z</time>
      </trkpt>
      <trkpt lat="41.04397" lon="19.79677">
        <ele>51.709717</ele>
        <time>2022-02-24T21:44:14.689Z</time>
      </trkpt>
      <trkpt lat="41.04413" lon="19.79544">
        <ele>51.504069</ele>
        <time>2022-02-24T21:44:39.905Z</time>
      </trkpt>
      <trkpt lat="41.04424" lon="19.79468">
        <ele>50.982516</ele>
        <time>2022-02-24T21:44:53.153Z</time>
      </trkpt>
      <trkpt lat="41.04443" lon="19.79324">
        <ele>49.341333</ele>
        <time>2022-02-24T21:45:16.989Z</time>
      </trkpt>
      <trkpt lat="41.04446" lon="19.79248">
        <ele>48.581192</ele>
        <time>2022-02-24T21:45:29.498Z</time>
      </trkpt>
      <trkpt lat="41.04444" lon="19.79206">
        <ele>48.259141</ele>
        <time>2022-02-24T21:45:36.607Z</time>
      </trkpt>
      <trkpt lat="41.04419" lon="19.78815">
        <ele>45.733192</ele>
        <time>2022-02-24T21:46:46.694Z</time>
      </trkpt>
      <trkpt lat="41.04413" lon="19.78725">
        <ele>45.426755</ele>
        <time>2022-02-24T21:47:03.949Z</time>
      </trkpt>
      <trkpt lat="41.04411" lon="19.78703">
        <ele>45.362416</ele>
        <time>2022-02-24T21:47:08.238Z</time>
      </trkpt>
      <trkpt lat="41.04406" lon="19.78626">
        <ele>45.137972</ele>
        <time>2022-02-24T21:47:22.807Z</time>
      </trkpt>
      <trkpt lat="41.04393" lon="19.78499">
        <ele>44.71636</ele>
        <time>2022-02-24T21:47:47.303Z</time>
      </trkpt>
      <trkpt lat="41.04389" lon="19.78461">
        <ele>44.571367</ele>
        <time>2022-02-24T21:47:54.607Z</time>
      </trkpt>
      <trkpt lat="41.04394" lon="19.78453">
        <ele>44.533703</ele>
        <time>2022-02-24T21:47:57.937Z</time>
      </trkpt>
      <trkpt lat="41.04395" lon="19.78438">
        <ele>44.477368</ele>
        <time>2022-02-24T21:48:02.766Z</time>
      </trkpt>
      <trkpt lat="41.04396" lon="19.78432">
        <ele>44.456221</ele>
        <time>2022-02-24T21:48:04.586Z</time>
      </trkpt>
      <trkpt lat="41.04395" lon="19.78413">
        <ele>44.386295</ele>
        <time>2022-02-24T21:48:08.162Z</time>
      </trkpt>
      <trkpt lat="41.0439" lon="19.78342">
        <ele>44.120287</ele>
        <time>2022-02-24T21:48:21.914Z</time>
      </trkpt>
      <trkpt lat="41.04386" lon="19.78305">
        <ele>43.906059</ele>
        <time>2022-02-24T21:48:28.967Z</time>
      </trkpt>
      <trkpt lat="41.0438" lon="19.78246">
        <ele>43.463146</ele>
        <time>2022-02-24T21:48:40.120Z</time>
      </trkpt>
      <trkpt lat="41.0437" lon="19.78146">
        <ele>42.713554</ele>
        <time>2022-02-24T21:48:58.696Z</time>
      </trkpt>
      <trkpt lat="41.04365" lon="19.78129">
        <ele>42.584838</ele>
        <time>2022-02-24T21:49:01.783Z</time>
      </trkpt>
      <trkpt lat="41.04353" lon="19.78115">
        <ele>42.426133</ele>
        <time>2022-02-24T21:49:05.606Z</time>
      </trkpt>
      <trkpt lat="41.04345" lon="19.78114">
        <ele>42.344296</ele>
        <time>2022-02-24T21:49:07.520Z</time>
      </trkpt>
      <trkpt lat="41.04343" lon="19.78095">
        <ele>42.16277</ele>
        <time>2022-02-24T21:49:10.668Z</time>
      </trkpt>
      <trkpt lat="41.04329" lon="19.78038">
        <ele>41.524357</ele>
        <time>2022-02-24T21:49:20.716Z</time>
      </trkpt>
      <trkpt lat="41.04321" lon="19.78011">
        <ele>41.202531</ele>
        <time>2022-02-24T21:49:25.709Z</time>
      </trkpt>
      <trkpt lat="41.0432" lon="19.77997">
        <ele>41.057621</ele>
        <time>2022-02-24T21:49:27.965Z</time>
      </trkpt>
      <trkpt lat="41.0432" lon="19.77963">
        <ele>40.689547</ele>
        <time>2022-02-24T21:49:33.661Z</time>
      </trkpt>
      <trkpt lat="41.04325" lon="19.77946">
        <ele>40.496194</ele>
        <time>2022-02-24T21:49:36.656Z</time>
      </trkpt>
      <trkpt lat="41.04328" lon="19.77934">
        <ele>40.355154</ele>
        <time>2022-02-24T21:49:38.771Z</time>
      </trkpt>
      <trkpt lat="41.04328" lon="19.77916">
        <ele>40.164667</ele>
        <time>2022-02-24T21:49:41.650Z</time>
      </trkpt>
      <trkpt lat="41.04291" lon="19.77801">
        <ele>39.534593</ele>
        <time>2022-02-24T21:50:02.613Z</time>
      </trkpt>
      <trkpt lat="41.04271" lon="19.7772">
        <ele>39.335633</ele>
        <time>2022-02-24T21:50:18.714Z</time>
      </trkpt>
      <trkpt lat="41.0427" lon="19.77713">
        <ele>39.319535</ele>
        <time>2022-02-24T21:50:20.322Z</time>
      </trkpt>
      <trkpt lat="41.04246" lon="19.77611">
        <ele>40.217053</ele>
        <time>2022-02-24T21:50:44.810Z</time>
      </trkpt>
      <trkpt lat="41.04239" lon="19.77585">
        <ele>40.863349</ele>
        <time>2022-02-24T21:50:52.158Z</time>
      </trkpt>
      <trkpt lat="41.04257" lon="19.7757">
        <ele>41.499785</ele>
        <time>2022-02-24T21:51:00.932Z</time>
      </trkpt>
      <trkpt lat="41.04356" lon="19.77509">
        <ele>44.955972</ele>
        <time>2022-02-24T21:51:50.377Z</time>
      </trkpt>
      <trkpt lat="41.04372" lon="19.77497">
        <ele>45.996977</ele>
        <time>2022-02-24T21:52:00.246Z</time>
      </trkpt>
      <trkpt lat="41.04382" lon="19.77488">
        <ele>46.709841</ele>
        <time>2022-02-24T21:52:06.862Z</time>
      </trkpt>
      <trkpt lat="41.04425" lon="19.77463">
        <ele>49.415167</ele>
        <time>2022-02-24T21:52:32.047Z</time>
      </trkpt>
      <trkpt lat="41.04445" lon="19.77457">
        <ele>50.557459</ele>
        <time>2022-02-24T21:52:43.702Z</time>
      </trkpt>
      <trkpt lat="41.04466" lon="19.77456">
        <ele>51.795535</ele>
        <time>2022-02-24T21:52:55.585Z</time>
      </trkpt>
      <trkpt lat="41.04486" lon="19.77458">
        <ele>52.928486</ele>
        <time>2022-02-24T21:53:06.722Z</time>
      </trkpt>
      <trkpt lat="41.04497" lon="19.7746">
        <ele>53.526481</ele>
        <time>2022-02-24T21:53:12.739Z</time>
      </trkpt>
      <trkpt lat="41.045" lon="19.77461">
        <ele>53.741673</ele>
        <time>2022-02-24T21:53:15.854Z</time>
      </trkpt>
      <trkpt lat="41.04537" lon="19.77464">
        <ele>55.735901</ele>
        <time>2022-02-24T21:53:37.136Z</time>
      </trkpt>
      <trkpt lat="41.04546" lon="19.77464">
        <ele>56.152514</ele>
        <time>2022-02-24T21:53:41.579Z</time>
      </trkpt>
      <trkpt lat="41.04555" lon="19.77464">
        <ele>56.643579</ele>
        <time>2022-02-24T21:53:46.369Z</time>
      </trkpt>
      <trkpt lat="41.04578" lon="19.77457">
        <ele>57.767127</ele>
        <time>2022-02-24T21:53:59.162Z</time>
      </trkpt>
      <trkpt lat="41.04604" lon="19.77441">
        <ele>59.211771</ele>
        <time>2022-02-24T21:54:14.528Z</time>
      </trkpt>
      <trkpt lat="41.04609" lon="19.77436">
        <ele>59.519938</ele>
        <time>2022-02-24T21:54:17.810Z</time>
      </trkpt>
      <trkpt lat="41.04628" lon="19.77426">
        <ele>60.539415</ele>
        <time>2022-02-24T21:54:27.487Z</time>
      </trkpt>
      <trkpt lat="41.04638" lon="19.77421">
        <ele>61.041018</ele>
        <time>2022-02-24T21:54:33.863Z</time>
      </trkpt>
      <trkpt lat="41.04699" lon="19.77408">
        <ele>63.953446</ele>
        <time>2022-02-24T21:55:01.883Z</time>
      </trkpt>
      <trkpt lat="41.04764" lon="19.77412">
        <ele>65.051856</ele>
        <time>2022-02-24T21:55:26.959Z</time>
      </trkpt>
      <trkpt lat="41.04774" lon="19.77411">
        <ele>65.231793</ele>
        <time>2022-02-24T21:55:31.575Z</time>
      </trkpt>
      <trkpt lat="41.04774" lon="19.77404">
        <ele>65.316684</ele>
        <time>2022-02-24T21:55:33.587Z</time>
      </trkpt>
      <trkpt lat="41.04787" lon="19.77382">
        <ele>65.669488</ele>
        <time>2022-02-24T21:55:39.893Z</time>
      </trkpt>
      <trkpt lat="41.04844" lon="19.77329">
        <ele>66.865164</ele>
        <time>2022-02-24T21:56:01.439Z</time>
      </trkpt>
      <trkpt lat="41.04895" lon="19.77307">
        <ele>66.637659</ele>
        <time>2022-02-24T21:56:16.836Z</time>
      </trkpt>
      <trkpt lat="41.04897" lon="19.77267">
        <ele>66.471171</ele>
        <time>2022-02-24T21:56:24.346Z</time>
      </trkpt>
      <trkpt lat="41.04909" lon="19.7725">
        <ele>66.378627</ele>
        <time>2022-02-24T21:56:28.520Z</time>
      </trkpt>
      <trkpt lat="41.04926" lon="19.7724">
        <ele>66.279315</ele>
        <time>2022-02-24T21:56:33.042Z</time>
      </trkpt>
      <trkpt lat="41.04904" lon="19.77164">
        <ele>65.947227</ele>
        <time>2022-02-24T21:56:47.924Z</time>
      </trkpt>
      <trkpt lat="41.04879" lon="19.7705">
        <ele>64.528885</ele>
        <time>2022-02-24T21:57:09.282Z</time>
      </trkpt>
      <trkpt lat="41.04843" lon="19.76773">
        <ele>60.205622</ele>
        <time>2022-02-24T21:57:55.787Z</time>
      </trkpt>
      <trkpt lat="41.04832" lon="19.76652">
        <ele>58.07073</ele>
        <time>2022-02-24T21:58:14.903Z</time>
      </trkpt>
      <trkpt lat="41.04815" lon="19.7659">
        <ele>56.947582</ele>
        <time>2022-02-24T21:58:25.531Z</time>
      </trkpt>
      <trkpt lat="41.04812" lon="19.76549">
        <ele>56.247759</ele>
        <time>2022-02-24T21:58:32.299Z</time>
      </trkpt>
      <trkpt lat="41.04814" lon="19.76509">
        <ele>55.571548</ele>
        <time>2022-02-24T21:58:38.943Z</time>
      </trkpt>
      <trkpt lat="41.04806" lon="19.76493">
        <ele>55.263052</ele>
        <time>2022-02-24T21:58:42.063Z</time>
      </trkpt>
      <trkpt lat="41.04812" lon="19.76468">
        <ele>54.827289</ele>
        <time>2022-02-24T21:58:46.527Z</time>
      </trkpt>
      <trkpt lat="41.0482" lon="19.76452">
        <ele>54.656812</ele>
        <time>2022-02-24T21:58:49.874Z</time>
      </trkpt>
      <trkpt lat="41.0482" lon="19.76438">
        <ele>54.585704</ele>
        <time>2022-02-24T21:58:52.379Z</time>
      </trkpt>
      <trkpt lat="41.04821" lon="19.76369">
        <ele>54.231638</ele>
        <time>2022-02-24T21:59:04.987Z</time>
      </trkpt>
      <trkpt lat="41.04838" lon="19.76271">
        <ele>53.715116</ele>
        <time>2022-02-24T21:59:24.916Z</time>
      </trkpt>
      <trkpt lat="41.04878" lon="19.76121">
        <ele>53.541856</ele>
        <time>2022-02-24T21:59:57.911Z</time>
      </trkpt>
      <trkpt lat="41.04882" lon="19.76067">
        <ele>53.559698</ele>
        <time>2022-02-24T22:00:09.544Z</time>
      </trkpt>
      <trkpt lat="41.04885" lon="19.76042">
        <ele>53.56766</ele>
        <time>2022-02-24T22:00:14.604Z</time>
      </trkpt>
      <trkpt lat="41.0489" lon="19.76004">
        <ele>53.580428</ele>
        <time>2022-02-24T22:00:23.087Z</time>
      </trkpt>
      <trkpt lat="41.04914" lon="19.75872">
        <ele>53.953062</ele>
        <time>2022-02-24T22:00:53.682Z</time>
      </trkpt>
      <trkpt lat="41.04916" lon="19.7576">
        <ele>54.225315</ele>
        <time>2022-02-24T22:01:19.034Z</time>
      </trkpt>
      <trkpt lat="41.04919" lon="19.7575">
        <ele>54.18071</ele>
        <time>2022-02-24T22:01:21.443Z</time>
      </trkpt>
      <trkpt lat="41.04924" lon="19.75737">
        <ele>54.122688</ele>
        <time>2022-02-24T22:01:24.746Z</time>
      </trkpt>
      <trkpt lat="41.04928" lon="19.75724">
        <ele>54.066911</ele>
        <time>2022-02-24T22:01:27.755Z</time>
      </trkpt>
      <trkpt lat="41.04932" lon="19.75681">
        <ele>53.894907</ele>
        <time>2022-02-24T22:01:36.855Z</time>
      </trkpt>
      <trkpt lat="41.04931" lon="19.75646">
        <ele>53.754761</ele>
        <time>2022-02-24T22:01:43.798Z</time>
      </trkpt>
      <trkpt lat="41.04928" lon="19.75611">
        <ele>53.616792</ele>
        <time>2022-02-24T22:01:50.099Z</time>
      </trkpt>
      <trkpt lat="41.04915" lon="19.75537">
        <ele>53.31596</ele>
        <time>2022-02-24T22:02:04.022Z</time>
      </trkpt>
      <trkpt lat="41.04914" lon="19.75483">
        <ele>52.856412</ele>
        <time>2022-02-24T22:02:13.319Z</time>
      </trkpt>
      <trkpt lat="41.04911" lon="19.75455">
        <ele>52.617483</ele>
        <time>2022-02-24T22:02:18.119Z</time>
      </trkpt>
      <trkpt lat="41.04907" lon="19.75431">
        <ele>52.401777</ele>
        <time>2022-02-24T22:02:22.124Z</time>
      </trkpt>
      <trkpt lat="41.04894" lon="19.75381">
        <ele>51.934107</ele>
        <time>2022-02-24T22:02:31.603Z</time>
      </trkpt>
      <trkpt lat="41.0487" lon="19.75323">
        <ele>51.365507</ele>
        <time>2022-02-24T22:02:44.115Z</time>
      </trkpt>
      <trkpt lat="41.04859" lon="19.75295">
        <ele>51.237634</ele>
        <time>2022-02-24T22:02:50.178Z</time>
      </trkpt>
      <trkpt lat="41.04851" lon="19.75278">
        <ele>51.25297</ele>
        <time>2022-02-24T22:02:54.365Z</time>
      </trkpt>
      <trkpt lat="41.04839" lon="19.75257">
        <ele>51.273292</ele>
        <time>2022-02-24T22:02:59.421Z</time>
      </trkpt>
      <trkpt lat="41.04834" lon="19.75252">
        <ele>51.280518</ele>
        <time>2022-02-24T22:03:01.660Z</time>
      </trkpt>
      <trkpt lat="41.04821" lon="19.75239">
        <ele>51.296739</ele>
        <time>2022-02-24T22:03:06.389Z</time>
      </trkpt>
      <trkpt lat="41.04816" lon="19.75241">
        <ele>51.302488</ele>
        <time>2022-02-24T22:03:08.015Z</time>
      </trkpt>
      <trkpt lat="41.04802" lon="19.75242">
        <ele>51.31647</ele>
        <time>2022-02-24T22:03:11.917Z</time>
      </trkpt>
      <trkpt lat="41.04793" lon="19.7524">
        <ele>51.326134</ele>
        <time>2022-02-24T22:03:14.798Z</time>
      </trkpt>
      <trkpt lat="41.04788" lon="19.75226">
        <ele>51.338114</ele>
        <time>2022-02-24T22:03:18.357Z</time>
      </trkpt>
      <trkpt lat="41.04778" lon="19.75191">
        <ele>51.36697</ele>
        <time>2022-02-24T22:03:26.355Z</time>
      </trkpt>
      <trkpt lat="41.04771" lon="19.7517">
        <ele>51.385235</ele>
        <time>2022-02-24T22:03:31.423Z</time>
      </trkpt>
      <trkpt lat="41.04768" lon="19.75165">
        <ele>51.390668</ele>
        <time>2022-02-24T22:03:33.099Z</time>
      </trkpt>
      <trkpt lat="41.04697" lon="19.75081">
        <ele>50.973124</ele>
        <time>2022-02-24T22:04:00.721Z</time>
      </trkpt>
      <trkpt lat="41.04688" lon="19.75069">
        <ele>50.901621</ele>
        <time>2022-02-24T22:04:03.854Z</time>
      </trkpt>
      <trkpt lat="41.0468" lon="19.75062">
        <ele>50.84372</ele>
        <time>2022-02-24T22:04:06.212Z</time>
      </trkpt>
      <trkpt lat="41.04638" lon="19.75024">
        <ele>50.549884</ele>
        <time>2022-02-24T22:04:18.421Z</time>
      </trkpt>
      <trkpt lat="41.04633" lon="19.75001">
        <ele>50.444279</ele>
        <time>2022-02-24T22:04:22.621Z</time>
      </trkpt>
      <trkpt lat="41.04629" lon="19.74997">
        <ele>50.415705</ele>
        <time>2022-02-24T22:04:23.676Z</time>
      </trkpt>
      <trkpt lat="41.04625" lon="19.74996">
        <ele>50.389208</ele>
        <time>2022-02-24T22:04:24.747Z</time>
      </trkpt>
      <trkpt lat="41.04616" lon="19.74995">
        <ele>50.25859</ele>
        <time>2022-02-24T22:04:26.937Z</time>
      </trkpt>
      <trkpt lat="41.04604" lon="19.74995">
        <ele>49.977263</ele>
        <time>2022-02-24T22:04:29.688Z</time>
      </trkpt>
      <trkpt lat="41.04583" lon="19.74995">
        <ele>49.496609</ele>
        <time>2022-02-24T22:04:34.351Z</time>
      </trkpt>
      <trkpt lat="41.04595" lon="19.74942">
        <ele>48.515979</ele>
        <time>2022-02-24T22:04:43.254Z</time>
      </trkpt>
      <trkpt lat="41.04599" lon="19.74921">
        <ele>48.133073</ele>
        <time>2022-02-24T22:04:46.622Z</time>
      </trkpt>
      <trkpt lat="41.04605" lon="19.74898">
        <ele>47.70853</ele>
        <time>2022-02-24T22:04:50.413Z</time>
      </trkpt>
      <trkpt lat="41.0461" lon="19.74875">
        <ele>47.284563</ele>
        <time>2022-02-24T22:04:53.839Z</time>
      </trkpt>
      <trkpt lat="41.04627" lon="19.74825">
        <ele>46.318693</ele>
        <time>2022-02-24T22:05:01.966Z</time>
      </trkpt>
      <trkpt lat="41.04637" lon="19.748">
        <ele>45.622626</ele>
        <time>2022-02-24T22:05:06.380Z</time>
      </trkpt>
      <trkpt lat="41.04655" lon="19.74753">
        <ele>44.157719</ele>
        <time>2022-02-24T22:05:14.020Z</time>
      </trkpt>
      <trkpt lat="41.04656" lon="19.74752">
        <ele>44.117027</ele>
        <time>2022-02-24T22:05:14.193Z</time>
      </trkpt>
      <trkpt lat="41.04659" lon="19.74742">
        <ele>43.805578</ele>
        <time>2022-02-24T22:05:15.791Z</time>
      </trkpt>
      <trkpt lat="41.04672" lon="19.74715">
        <ele>42.930772</ele>
        <time>2022-02-24T22:05:20.487Z</time>
      </trkpt>
      <trkpt lat="41.04674" lon="19.74706">
        <ele>42.671016</ele>
        <time>2022-02-24T22:05:21.682Z</time>
      </trkpt>
      <trkpt lat="41.04693" lon="19.74581">
        <ele>39.192325</ele>
        <time>2022-02-24T22:05:40.051Z</time>
      </trkpt>
      <trkpt lat="41.04703" lon="19.74515">
        <ele>37.787798</ele>
        <time>2022-02-24T22:05:49.497Z</time>
      </trkpt>
      <trkpt lat="41.04706" lon="19.74485">
        <ele>37.148354</ele>
        <time>2022-02-24T22:05:54.202Z</time>
      </trkpt>
      <trkpt lat="41.04708" lon="19.74468">
        <ele>36.790136</ele>
        <time>2022-02-24T22:05:56.735Z</time>
      </trkpt>
      <trkpt lat="41.04709" lon="19.74432">
        <ele>36.045767</ele>
        <time>2022-02-24T22:06:02.283Z</time>
      </trkpt>
      <trkpt lat="41.04708" lon="19.74411">
        <ele>35.603565</ele>
        <time>2022-02-24T22:06:05.494Z</time>
      </trkpt>
      <trkpt lat="41.04708" lon="19.74399">
        <ele>35.352062</ele>
        <time>2022-02-24T22:06:07.407Z</time>
      </trkpt>
      <trkpt lat="41.04705" lon="19.74237">
        <ele>33.470609</ele>
        <time>2022-02-24T22:06:34.817Z</time>
      </trkpt>
      <trkpt lat="41.04705" lon="19.74226">
        <ele>33.373038</ele>
        <time>2022-02-24T22:06:36.818Z</time>
      </trkpt>
      <trkpt lat="41.04706" lon="19.74216">
        <ele>33.292666</ele>
        <time>2022-02-24T22:06:38.564Z</time>
      </trkpt>
      <trkpt lat="41.04742" lon="19.74103">
        <ele>32.202102</ele>
        <time>2022-02-24T22:07:00.537Z</time>
      </trkpt>
      <trkpt lat="41.04745" lon="19.74085">
        <ele>32.014767</ele>
        <time>2022-02-24T22:07:03.742Z</time>
      </trkpt>
      <trkpt lat="41.04751" lon="19.74062">
        <ele>31.768804</ele>
        <time>2022-02-24T22:07:07.829Z</time>
      </trkpt>
      <trkpt lat="41.04764" lon="19.73994">
        <ele>31.036083</ele>
        <time>2022-02-24T22:07:19.945Z</time>
      </trkpt>
      <trkpt lat="41.0477" lon="19.73966">
        <ele>30.73794</ele>
        <time>2022-02-24T22:07:24.724Z</time>
      </trkpt>
      <trkpt lat="41.04776" lon="19.73932">
        <ele>30.378239</ele>
        <time>2022-02-24T22:07:30.430Z</time>
      </trkpt>
      <trkpt lat="41.04787" lon="19.73863">
        <ele>29.776116</ele>
        <time>2022-02-24T22:07:41.540Z</time>
      </trkpt>
      <trkpt lat="41.04798" lon="19.7379">
        <ele>29.264716</ele>
        <time>2022-02-24T22:07:53.644Z</time>
      </trkpt>
      <trkpt lat="41.04811" lon="19.73715">
        <ele>28.7291</ele>
        <time>2022-02-24T22:08:07.972Z</time>
      </trkpt>
      <trkpt lat="41.04814" lon="19.73701">
        <ele>28.628989</ele>
        <time>2022-02-24T22:08:11.350Z</time>
      </trkpt>
      <trkpt lat="41.04818" lon="19.73687">
        <ele>28.530084</ele>
        <time>2022-02-24T22:08:13.857Z</time>
      </trkpt>
      <trkpt lat="41.04822" lon="19.73677">
        <ele>28.451161</ele>
        <time>2022-02-24T22:08:16.139Z</time>
      </trkpt>
      <trkpt lat="41.04835" lon="19.73648">
        <ele>28.486148</ele>
        <time>2022-02-24T22:08:23.596Z</time>
      </trkpt>
      <trkpt lat="41.04841" lon="19.73636">
        <ele>28.55312</ele>
        <time>2022-02-24T22:08:26.452Z</time>
      </trkpt>
      <trkpt lat="41.04847" lon="19.73624">
        <ele>28.616706</ele>
        <time>2022-02-24T22:08:30.066Z</time>
      </trkpt>
      <trkpt lat="41.0486" lon="19.73602">
        <ele>28.753122</ele>
        <time>2022-02-24T22:08:35.818Z</time>
      </trkpt>
      <trkpt lat="41.04872" lon="19.73583">
        <ele>28.867826</ele>
        <time>2022-02-24T22:08:41.964Z</time>
      </trkpt>
      <trkpt lat="41.04877" lon="19.73576">
        <ele>28.913727</ele>
        <time>2022-02-24T22:08:43.931Z</time>
      </trkpt>
      <trkpt lat="41.04884" lon="19.73565">
        <ele>28.979632</ele>
        <time>2022-02-24T22:08:46.733Z</time>
      </trkpt>
      <trkpt lat="41.049" lon="19.7354">
        <ele>29.132622</ele>
        <time>2022-02-24T22:08:54.682Z</time>
      </trkpt>
      <trkpt lat="41.04924" lon="19.73502">
        <ele>29.367954</ele>
        <time>2022-02-24T22:09:06.519Z</time>
      </trkpt>
      <trkpt lat="41.04947" lon="19.73449">
        <ele>29.536654</ele>
        <time>2022-02-24T22:09:20.741Z</time>
      </trkpt>
      <trkpt lat="41.04964" lon="19.73404">
        <ele>29.59674</ele>
        <time>2022-02-24T22:09:31.894Z</time>
      </trkpt>
      <trkpt lat="41.04982" lon="19.73358">
        <ele>29.657742</ele>
        <time>2022-02-24T22:09:42.097Z</time>
      </trkpt>
      <trkpt lat="41.04993" lon="19.73331">
        <ele>29.693364</ele>
        <time>2022-02-24T22:09:48.011Z</time>
      </trkpt>
      <trkpt lat="41.05009" lon="19.7329">
        <ele>29.747517</ele>
        <time>2022-02-24T22:09:56.964Z</time>
      </trkpt>
      <trkpt lat="41.05019" lon="19.73256">
        <ele>29.762805</ele>
        <time>2022-02-24T22:10:04.098Z</time>
      </trkpt>
      <trkpt lat="41.05022" lon="19.73244">
        <ele>29.745391</ele>
        <time>2022-02-24T22:10:06.607Z</time>
      </trkpt>
      <trkpt lat="41.05027" lon="19.73219">
        <ele>29.710496</ele>
        <time>2022-02-24T22:10:11.620Z</time>
      </trkpt>
      <trkpt lat="41.05031" lon="19.73188">
        <ele>29.666963</ele>
        <time>2022-02-24T22:10:18.154Z</time>
      </trkpt>
      <trkpt lat="41.05049" lon="19.73069">
        <ele>29.500576</ele>
        <time>2022-02-24T22:10:42.286Z</time>
      </trkpt>
      <trkpt lat="41.05058" lon="19.73002">
        <ele>29.235129</ele>
        <time>2022-02-24T22:10:54.869Z</time>
      </trkpt>
      <trkpt lat="41.05063" lon="19.72971">
        <ele>29.015619</ele>
        <time>2022-02-24T22:11:00.605Z</time>
      </trkpt>
      <trkpt lat="41.05063" lon="19.72967">
        <ele>28.989025</ele>
        <time>2022-02-24T22:11:01.215Z</time>
      </trkpt>
      <trkpt lat="41.05066" lon="19.72948">
        <ele>28.853842</ele>
        <time>2022-02-24T22:11:04.728Z</time>
      </trkpt>
      <trkpt lat="41.05074" lon="19.72912">
        <ele>28.594776</ele>
        <time>2022-02-24T22:11:11.399Z</time>
      </trkpt>
      <trkpt lat="41.05077" lon="19.72896">
        <ele>28.485311</ele>
        <time>2022-02-24T22:11:14.148Z</time>
      </trkpt>
      <trkpt lat="41.05081" lon="19.72878">
        <ele>28.355355</ele>
        <time>2022-02-24T22:11:17.534Z</time>
      </trkpt>
      <trkpt lat="41.05088" lon="19.7285">
        <ele>28.152103</ele>
        <time>2022-02-24T22:11:22.535Z</time>
      </trkpt>
      <trkpt lat="41.05095" lon="19.72827">
        <ele>27.976954</ele>
        <time>2022-02-24T22:11:26.882Z</time>
      </trkpt>
      <trkpt lat="41.05108" lon="19.72782">
        <ele>27.595058</ele>
        <time>2022-02-24T22:11:34.893Z</time>
      </trkpt>
      <trkpt lat="41.05123" lon="19.72739">
        <ele>27.158994</ele>
        <time>2022-02-24T22:11:42.827Z</time>
      </trkpt>
      <trkpt lat="41.05215" lon="19.72524">
        <ele>24.954957</ele>
        <time>2022-02-24T22:12:25.362Z</time>
      </trkpt>
      <trkpt lat="41.05271" lon="19.72317">
        <ele>23.499548</ele>
        <time>2022-02-24T22:13:03.359Z</time>
      </trkpt>
      <trkpt lat="41.05309" lon="19.72142">
        <ele>23.08683</ele>
        <time>2022-02-24T22:13:38.946Z</time>
      </trkpt>
      <trkpt lat="41.05308" lon="19.72133">
        <ele>23.132185</ele>
        <time>2022-02-24T22:13:40.932Z</time>
      </trkpt>
      <trkpt lat="41.05307" lon="19.72125">
        <ele>23.171686</ele>
        <time>2022-02-24T22:13:42.592Z</time>
      </trkpt>
      <trkpt lat="41.05308" lon="19.72098">
        <ele>23.311204</ele>
        <time>2022-02-24T22:13:48.813Z</time>
      </trkpt>
      <trkpt lat="41.05321" lon="19.72063">
        <ele>23.511368</ele>
        <time>2022-02-24T22:13:57.809Z</time>
      </trkpt>
      <trkpt lat="41.05323" lon="19.72052">
        <ele>23.568251</ele>
        <time>2022-02-24T22:14:00.465Z</time>
      </trkpt>
      <trkpt lat="41.0533" lon="19.72042">
        <ele>23.635674</ele>
        <time>2022-02-24T22:14:03.502Z</time>
      </trkpt>
      <trkpt lat="41.05334" lon="19.72036">
        <ele>23.673859</ele>
        <time>2022-02-24T22:14:05.252Z</time>
      </trkpt>
      <trkpt lat="41.05349" lon="19.72014">
        <ele>23.82278</ele>
        <time>2022-02-24T22:14:11.996Z</time>
      </trkpt>
      <trkpt lat="41.05373" lon="19.71977">
        <ele>24.073388</ele>
        <time>2022-02-24T22:14:23.519Z</time>
      </trkpt>
      <trkpt lat="41.05384" lon="19.71957">
        <ele>24.198448</ele>
        <time>2022-02-24T22:14:29.263Z</time>
      </trkpt>
      <trkpt lat="41.05403" lon="19.71915">
        <ele>24.410209</ele>
        <time>2022-02-24T22:14:40.774Z</time>
      </trkpt>
      <trkpt lat="41.05437" lon="19.7185">
        <ele>24.725603</ele>
        <time>2022-02-24T22:14:58.883Z</time>
      </trkpt>
      <trkpt lat="41.05585" lon="19.71579">
        <ele>25.40807</ele>
        <time>2022-02-24T22:16:09.475Z</time>
      </trkpt>
      <trkpt lat="41.05594" lon="19.71565">
        <ele>25.424046</ele>
        <time>2022-02-24T22:16:13.533Z</time>
      </trkpt>
      <trkpt lat="41.05607" lon="19.71546">
        <ele>25.371751</ele>
        <time>2022-02-24T22:16:18.026Z</time>
      </trkpt>
      <trkpt lat="41.05692" lon="19.71423">
        <ele>24.672715</ele>
        <time>2022-02-24T22:16:48.714Z</time>
      </trkpt>
      <trkpt lat="41.05775" lon="19.71304">
        <ele>24.142164</ele>
        <time>2022-02-24T22:17:17.660Z</time>
      </trkpt>
      <trkpt lat="41.05786" lon="19.71287">
        <ele>24.080887</ele>
        <time>2022-02-24T22:17:21.859Z</time>
      </trkpt>
      <trkpt lat="41.05812" lon="19.71242">
        <ele>23.924937</ele>
        <time>2022-02-24T22:17:32.766Z</time>
      </trkpt>
      <trkpt lat="41.05831" lon="19.71194">
        <ele>23.777498</ele>
        <time>2022-02-24T22:17:44.093Z</time>
      </trkpt>
      <trkpt lat="41.05848" lon="19.71127">
        <ele>24.104411</ele>
        <time>2022-02-24T22:17:58.977Z</time>
      </trkpt>
      <trkpt lat="41.05856" lon="19.71072">
        <ele>24.367919</ele>
        <time>2022-02-24T22:18:11.706Z</time>
      </trkpt>
      <trkpt lat="41.05865" lon="19.71014">
        <ele>24.643743</ele>
        <time>2022-02-24T22:18:25.277Z</time>
      </trkpt>
      <trkpt lat="41.05868" lon="19.70988">
        <ele>24.768423</ele>
        <time>2022-02-24T22:18:31.302Z</time>
      </trkpt>
      <trkpt lat="41.05877" lon="19.70922">
        <ele>25.022181</ele>
        <time>2022-02-24T22:18:47.486Z</time>
      </trkpt>
      <trkpt lat="41.05887" lon="19.70852">
        <ele>25.248265</ele>
        <time>2022-02-24T22:19:03.716Z</time>
      </trkpt>
      <trkpt lat="41.05905" lon="19.70724">
        <ele>25.630499</ele>
        <time>2022-02-24T22:19:30.710Z</time>
      </trkpt>
      <trkpt lat="41.05924" lon="19.70592">
        <ele>24.996819</ele>
        <time>2022-02-24T22:19:55.747Z</time>
      </trkpt>
      <trkpt lat="41.05943" lon="19.70456">
        <ele>24.275277</ele>
        <time>2022-02-24T22:20:19.695Z</time>
      </trkpt>
      <trkpt lat="41.05969" lon="19.70273">
        <ele>23.027071</ele>
        <time>2022-02-24T22:20:53.152Z</time>
      </trkpt>
      <trkpt lat="41.05972" lon="19.70254">
        <ele>22.88302</ele>
        <time>2022-02-24T22:20:56.563Z</time>
      </trkpt>
      <trkpt lat="41.05979" lon="19.70207">
        <ele>22.411034</ele>
        <time>2022-02-24T22:21:04.920Z</time>
      </trkpt>
      <trkpt lat="41.05986" lon="19.70153">
        <ele>21.862732</ele>
        <time>2022-02-24T22:21:14.280Z</time>
      </trkpt>
      <trkpt lat="41.05996" lon="19.70088">
        <ele>21.20895</ele>
        <time>2022-02-24T22:21:25.362Z</time>
      </trkpt>
      <trkpt lat="41.05999" lon="19.7006">
        <ele>20.928704</ele>
        <time>2022-02-24T22:21:30.050Z</time>
      </trkpt>
      <trkpt lat="41.06004" lon="19.70032">
        <ele>20.646531</ele>
        <time>2022-02-24T22:21:34.780Z</time>
      </trkpt>
      <trkpt lat="41.06008" lon="19.70002">
        <ele>20.347657</ele>
        <time>2022-02-24T22:21:39.667Z</time>
      </trkpt>
      <trkpt lat="41.06031" lon="19.69866">
        <ele>18.989358</ele>
        <time>2022-02-24T22:22:02.666Z</time>
      </trkpt>
      <trkpt lat="41.06046" lon="19.69797">
        <ele>18.291492</ele>
        <time>2022-02-24T22:22:15.218Z</time>
      </trkpt>
      <trkpt lat="41.06052" lon="19.69769">
        <ele>18.270359</ele>
        <time>2022-02-24T22:22:20.843Z</time>
      </trkpt>
      <trkpt lat="41.06065" lon="19.69717">
        <ele>18.319329</ele>
        <time>2022-02-24T22:22:31.363Z</time>
      </trkpt>
      <trkpt lat="41.06075" lon="19.69679">
        <ele>18.355819</ele>
        <time>2022-02-24T22:22:39.660Z</time>
      </trkpt>
      <trkpt lat="41.06124" lon="19.69516">
        <ele>18.594221</ele>
        <time>2022-02-24T22:23:18.222Z</time>
      </trkpt>
      <trkpt lat="41.06137" lon="19.69481">
        <ele>18.684734</ele>
        <time>2022-02-24T22:23:26.795Z</time>
      </trkpt>
      <trkpt lat="41.06157" lon="19.69428">
        <ele>18.82257</ele>
        <time>2022-02-24T22:23:39.511Z</time>
      </trkpt>
      <trkpt lat="41.06166" lon="19.69402">
        <ele>18.889036</ele>
        <time>2022-02-24T22:23:45.568Z</time>
      </trkpt>
      <trkpt lat="41.06196" lon="19.6933">
        <ele>18.980655</ele>
        <time>2022-02-24T22:24:02.424Z</time>
      </trkpt>
      <trkpt lat="41.06239" lon="19.69229">
        <ele>18.82748</ele>
        <time>2022-02-24T22:24:25.173Z</time>
      </trkpt>
      <trkpt lat="41.0625" lon="19.69205">
        <ele>18.790694</ele>
        <time>2022-02-24T22:24:30.513Z</time>
      </trkpt>
      <trkpt lat="41.06564" lon="19.68477">
        <ele>16.734993</ele>
        <time>2022-02-24T22:27:09.354Z</time>
      </trkpt>
      <trkpt lat="41.06665" lon="19.68238">
        <ele>16.594225</ele>
        <time>2022-02-24T22:28:04.880Z</time>
      </trkpt>
      <trkpt lat="41.06686" lon="19.68188">
        <ele>16.590586</ele>
        <time>2022-02-24T22:28:16.305Z</time>
      </trkpt>
      <trkpt lat="41.06696" lon="19.68162">
        <ele>16.588783</ele>
        <time>2022-02-24T22:28:21.725Z</time>
      </trkpt>
      <trkpt lat="41.06725" lon="19.6808">
        <ele>16.614307</ele>
        <time>2022-02-24T22:28:40.433Z</time>
      </trkpt>
      <trkpt lat="41.0674" lon="19.68033">
        <ele>16.665219</ele>
        <time>2022-02-24T22:28:50.810Z</time>
      </trkpt>
      <trkpt lat="41.06756" lon="19.68042">
        <ele>16.686972</ele>
        <time>2022-02-24T22:28:55.622Z</time>
      </trkpt>
      <trkpt lat="41.06783" lon="19.68048">
        <ele>16.723076</ele>
        <time>2022-02-24T22:29:02.595Z</time>
      </trkpt>
      <trkpt lat="41.06793" lon="19.68039">
        <ele>16.739531</ele>
        <time>2022-02-24T22:29:06.280Z</time>
      </trkpt>
      <trkpt lat="41.06922" lon="19.67842">
        <ele>17.169492</ele>
        <time>2022-02-24T22:30:00.526Z</time>
      </trkpt>
      <trkpt lat="41.06976" lon="19.67758">
        <ele>17.475738</ele>
        <time>2022-02-24T22:30:24.037Z</time>
      </trkpt>
      <trkpt lat="41.06988" lon="19.6774">
        <ele>17.56902</ele>
        <time>2022-02-24T22:30:29.334Z</time>
      </trkpt>
      <trkpt lat="41.07048" lon="19.67646">
        <ele>18.039459</ele>
        <time>2022-02-24T22:30:56.662Z</time>
      </trkpt>
      <trkpt lat="41.07097" lon="19.67576">
        <ele>18.528545</ele>
        <time>2022-02-24T22:31:17.924Z</time>
      </trkpt>
      <trkpt lat="41.07109" lon="19.67556">
        <ele>18.683069</ele>
        <time>2022-02-24T22:31:23.755Z</time>
      </trkpt>
      <trkpt lat="41.07118" lon="19.67544">
        <ele>18.792465</ele>
        <time>2022-02-24T22:31:27.835Z</time>
      </trkpt>
      <trkpt lat="41.07124" lon="19.67535">
        <ele>18.868683</ele>
        <time>2022-02-24T22:31:30.575Z</time>
      </trkpt>
      <trkpt lat="41.07149" lon="19.67505">
        <ele>19.141303</ele>
        <time>2022-02-24T22:31:40.984Z</time>
      </trkpt>
      <trkpt lat="41.07182" lon="19.67467">
        <ele>19.498258</ele>
        <time>2022-02-24T22:31:54.685Z</time>
      </trkpt>
      <trkpt lat="41.07209" lon="19.67437">
        <ele>19.746725</ele>
        <time>2022-02-24T22:32:06.049Z</time>
      </trkpt>
      <trkpt lat="41.0722" lon="19.67424">
        <ele>19.823191</ele>
        <time>2022-02-24T22:32:10.595Z</time>
      </trkpt>
      <trkpt lat="41.07244" lon="19.67393">
        <ele>19.995887</ele>
        <time>2022-02-24T22:32:20.405Z</time>
      </trkpt>
      <trkpt lat="41.07253" lon="19.67379">
        <ele>20.072282</ele>
        <time>2022-02-24T22:32:24.905Z</time>
      </trkpt>
      <trkpt lat="41.07261" lon="19.67367">
        <ele>20.133433</ele>
        <time>2022-02-24T22:32:28.139Z</time>
      </trkpt>
      <trkpt lat="41.07267" lon="19.67355">
        <ele>20.194136</ele>
        <time>2022-02-24T22:32:31.452Z</time>
      </trkpt>
      <trkpt lat="41.07274" lon="19.67341">
        <ele>20.258329</ele>
        <time>2022-02-24T22:32:35.116Z</time>
      </trkpt>
      <trkpt lat="41.07281" lon="19.67322">
        <ele>20.343713</ele>
        <time>2022-02-24T22:32:39.562Z</time>
      </trkpt>
      <trkpt lat="41.07291" lon="19.67296">
        <ele>20.459386</ele>
        <time>2022-02-24T22:32:45.901Z</time>
      </trkpt>
      <trkpt lat="41.0736" lon="19.67117">
        <ele>20.536402</ele>
        <time>2022-02-24T22:33:26.961Z</time>
      </trkpt>
      <trkpt lat="41.07363" lon="19.67109">
        <ele>20.531755</ele>
        <time>2022-02-24T22:33:28.722Z</time>
      </trkpt>
      <trkpt lat="41.07387" lon="19.67048">
        <ele>20.497762</ele>
        <time>2022-02-24T22:33:41.320Z</time>
      </trkpt>
      <trkpt lat="41.07431" lon="19.6693">
        <ele>20.293986</ele>
        <time>2022-02-24T22:34:06.556Z</time>
      </trkpt>
      <trkpt lat="41.07459" lon="19.66858">
        <ele>20.170261</ele>
        <time>2022-02-24T22:34:22.625Z</time>
      </trkpt>
      <trkpt lat="41.07473" lon="19.66821">
        <ele>20.157068</ele>
        <time>2022-02-24T22:34:30.844Z</time>
      </trkpt>
      <trkpt lat="41.075" lon="19.66753">
        <ele>20.280544</ele>
        <time>2022-02-24T22:34:46.997Z</time>
      </trkpt>
      <trkpt lat="41.07575" lon="19.66551">
        <ele>20.307342</ele>
        <time>2022-02-24T22:35:34.669Z</time>
      </trkpt>
      <trkpt lat="41.07584" lon="19.66533">
        <ele>20.25042</ele>
        <time>2022-02-24T22:35:38.890Z</time>
      </trkpt>
      <trkpt lat="41.0759" lon="19.66514">
        <ele>20.198698</ele>
        <time>2022-02-24T22:35:42.720Z</time>
      </trkpt>
      <trkpt lat="41.07592" lon="19.66505">
        <ele>20.173136</ele>
        <time>2022-02-24T22:35:44.542Z</time>
      </trkpt>
      <trkpt lat="41.07594" lon="19.66504">
        <ele>20.166857</ele>
        <time>2022-02-24T22:35:45.014Z</time>
      </trkpt>
      <trkpt lat="41.07595" lon="19.66502">
        <ele>20.160439</ele>
        <time>2022-02-24T22:35:45.479Z</time>
      </trkpt>
      <trkpt lat="41.07597" lon="19.665">
        <ele>20.154056</ele>
        <time>2022-02-24T22:35:45.931Z</time>
      </trkpt>
      <trkpt lat="41.07598" lon="19.66493">
        <ele>20.135008</ele>
        <time>2022-02-24T22:35:47.295Z</time>
      </trkpt>
      <trkpt lat="41.07598" lon="19.66491">
        <ele>20.12856</ele>
        <time>2022-02-24T22:35:47.732Z</time>
      </trkpt>
      <trkpt lat="41.07605" lon="19.66479">
        <ele>20.089878</ele>
        <time>2022-02-24T22:35:50.445Z</time>
      </trkpt>
      <trkpt lat="41.07615" lon="19.66455">
        <ele>20.020451</ele>
        <time>2022-02-24T22:35:55.273Z</time>
      </trkpt>
      <trkpt lat="41.07617" lon="19.66446">
        <ele>19.995488</ele>
        <time>2022-02-24T22:35:56.962Z</time>
      </trkpt>
      <trkpt lat="41.07682" lon="19.66278">
        <ele>18.963421</ele>
        <time>2022-02-24T22:36:29.898Z</time>
      </trkpt>
      <trkpt lat="41.07744" lon="19.6612">
        <ele>18.349165</ele>
        <time>2022-02-24T22:37:02.583Z</time>
      </trkpt>
      <trkpt lat="41.0776" lon="19.6608">
        <ele>18.313755</ele>
        <time>2022-02-24T22:37:11.701Z</time>
      </trkpt>
      <trkpt lat="41.07776" lon="19.66038">
        <ele>18.276879</ele>
        <time>2022-02-24T22:37:21.561Z</time>
      </trkpt>
      <trkpt lat="41.07817" lon="19.6593">
        <ele>18.466769</ele>
        <time>2022-02-24T22:37:47.357Z</time>
      </trkpt>
      <trkpt lat="41.07826" lon="19.65908">
        <ele>18.555633</ele>
        <time>2022-02-24T22:37:52.661Z</time>
      </trkpt>
      <trkpt lat="41.07847" lon="19.65854">
        <ele>18.773904</ele>
        <time>2022-02-24T22:38:05.915Z</time>
      </trkpt>
      <trkpt lat="41.07868" lon="19.65799">
        <ele>18.992174</ele>
        <time>2022-02-24T22:38:19.711Z</time>
      </trkpt>
      <trkpt lat="41.07899" lon="19.6569">
        <ele>19.431818</ele>
        <time>2022-02-24T22:38:46.199Z</time>
      </trkpt>
      <trkpt lat="41.07901" lon="19.65682">
        <ele>19.463216</ele>
        <time>2022-02-24T22:38:48.099Z</time>
      </trkpt>
      <trkpt lat="41.07903" lon="19.65668">
        <ele>19.514264</ele>
        <time>2022-02-24T22:38:51.134Z</time>
      </trkpt>
      <trkpt lat="41.07905" lon="19.65647">
        <ele>19.597276</ele>
        <time>2022-02-24T22:38:55.861Z</time>
      </trkpt>
      <trkpt lat="41.07908" lon="19.65626">
        <ele>19.676823</ele>
        <time>2022-02-24T22:39:00.557Z</time>
      </trkpt>
      <trkpt lat="41.07912" lon="19.656">
        <ele>19.777992</ele>
        <time>2022-02-24T22:39:06.335Z</time>
      </trkpt>
      <trkpt lat="41.0793" lon="19.65467">
        <ele>19.866928</ele>
        <time>2022-02-24T22:39:34.729Z</time>
      </trkpt>
      <trkpt lat="41.07932" lon="19.65444">
        <ele>19.830235</ele>
        <time>2022-02-24T22:39:39.196Z</time>
      </trkpt>
      <trkpt lat="41.07934" lon="19.65416">
        <ele>19.785393</ele>
        <time>2022-02-24T22:39:44.568Z</time>
      </trkpt>
      <trkpt lat="41.07934" lon="19.65395">
        <ele>19.751093</ele>
        <time>2022-02-24T22:39:48.576Z</time>
      </trkpt>
      <trkpt lat="41.07928" lon="19.6534">
        <ele>19.661305</ele>
        <time>2022-02-24T22:39:59.020Z</time>
      </trkpt>
      <trkpt lat="41.07926" lon="19.65331">
        <ele>19.647526</ele>
        <time>2022-02-24T22:40:00.619Z</time>
      </trkpt>
      <trkpt lat="41.07921" lon="19.65317">
        <ele>19.622093</ele>
        <time>2022-02-24T22:40:03.389Z</time>
      </trkpt>
      <trkpt lat="41.07878" lon="19.65208">
        <ele>19.004993</ele>
        <time>2022-02-24T22:40:25.666Z</time>
      </trkpt>
      <trkpt lat="41.07857" lon="19.65137">
        <ele>18.601585</ele>
        <time>2022-02-24T22:40:39.309Z</time>
      </trkpt>
      <trkpt lat="41.0785" lon="19.65056">
        <ele>18.227451</ele>
        <time>2022-02-24T22:40:54.271Z</time>
      </trkpt>
      <trkpt lat="41.0785" lon="19.6504">
        <ele>18.166881</ele>
        <time>2022-02-24T22:40:57.260Z</time>
      </trkpt>
      <trkpt lat="41.07849" lon="19.65027">
        <ele>18.116799</ele>
        <time>2022-02-24T22:40:59.692Z</time>
      </trkpt>
      <trkpt lat="41.07823" lon="19.64825">
        <ele>17.370254</ele>
        <time>2022-02-24T22:41:37.832Z</time>
      </trkpt>
      <trkpt lat="41.07804" lon="19.64753">
        <ele>17.139146</ele>
        <time>2022-02-24T22:41:52.520Z</time>
      </trkpt>
      <trkpt lat="41.07792" lon="19.6472">
        <ele>17.02991</ele>
        <time>2022-02-24T22:41:59.502Z</time>
      </trkpt>
      <trkpt lat="41.07775" lon="19.64675">
        <ele>16.877356</ele>
        <time>2022-02-24T22:42:09.031Z</time>
      </trkpt>
      <trkpt lat="41.07766" lon="19.64651">
        <ele>16.798798</ele>
        <time>2022-02-24T22:42:13.872Z</time>
      </trkpt>
      <trkpt lat="41.07761" lon="19.64637">
        <ele>16.751934</ele>
        <time>2022-02-24T22:42:16.852Z</time>
      </trkpt>
      <trkpt lat="41.07759" lon="19.64633">
        <ele>16.7341</ele>
        <time>2022-02-24T22:42:17.753Z</time>
      </trkpt>
      <trkpt lat="41.07751" lon="19.64614">
        <ele>16.631971</ele>
        <time>2022-02-24T22:42:21.682Z</time>
      </trkpt>
      <trkpt lat="41.07741" lon="19.64593">
        <ele>16.509992</ele>
        <time>2022-02-24T22:42:26.527Z</time>
      </trkpt>
      <trkpt lat="41.07737" lon="19.64585">
        <ele>16.46996</ele>
        <time>2022-02-24T22:42:27.985Z</time>
      </trkpt>
      <trkpt lat="41.07676" lon="19.64485">
        <ele>15.854002</ele>
        <time>2022-02-24T22:42:51.760Z</time>
      </trkpt>
      <trkpt lat="41.07616" lon="19.64423">
        <ele>15.277456</ele>
        <time>2022-02-24T22:43:09.612Z</time>
      </trkpt>
      <trkpt lat="41.07599" lon="19.64391">
        <ele>15.015785</ele>
        <time>2022-02-24T22:43:16.532Z</time>
      </trkpt>
      <trkpt lat="41.07548" lon="19.64254">
        <ele>14.003105</ele>
        <time>2022-02-24T22:43:43.470Z</time>
      </trkpt>
      <trkpt lat="41.0752" lon="19.64172">
        <ele>13.541868</ele>
        <time>2022-02-24T22:43:59.507Z</time>
      </trkpt>
      <trkpt lat="41.07493" lon="19.64095">
        <ele>13.105661</ele>
        <time>2022-02-24T22:44:14.880Z</time>
      </trkpt>
      <trkpt lat="41.07475" lon="19.64034">
        <ele>12.776402</ele>
        <time>2022-02-24T22:44:26.921Z</time>
      </trkpt>
      <trkpt lat="41.07389" lon="19.63878">
        <ele>12.168427</ele>
        <time>2022-02-24T22:45:03.995Z</time>
      </trkpt>
      <trkpt lat="41.07347" lon="19.63782">
        <ele>11.670654</ele>
        <time>2022-02-24T22:45:24.164Z</time>
      </trkpt>
      <trkpt lat="41.0732" lon="19.63703">
        <ele>11.214007</ele>
        <time>2022-02-24T22:45:39.890Z</time>
      </trkpt>
      <trkpt lat="41.07264" lon="19.63734">
        <ele>10.789586</ele>
        <time>2022-02-24T22:45:54.285Z</time>
      </trkpt>
      <trkpt lat="41.07263" lon="19.63728">
        <ele>10.760693</ele>
        <time>2022-02-24T22:45:55.380Z</time>
      </trkpt>
      <trkpt lat="41.07256" lon="19.63715">
        <ele>10.674689</ele>
        <time>2022-02-24T22:45:58.214Z</time>
      </trkpt>
      <trkpt lat="41.07253" lon="19.63711">
        <ele>10.646011</ele>
        <time>2022-02-24T22:45:59.152Z</time>
      </trkpt>
      <trkpt lat="41.07249" lon="19.63708">
        <ele>10.608903</ele>
        <time>2022-02-24T22:46:00.328Z</time>
      </trkpt>
      <trkpt lat="41.07239" lon="19.63704">
        <ele>10.534666</ele>
        <time>2022-02-24T22:46:02.724Z</time>
      </trkpt>
      <trkpt lat="41.07234" lon="19.63704">
        <ele>10.497324</ele>
        <time>2022-02-24T22:46:04.092Z</time>
      </trkpt>
      <trkpt lat="41.07228" lon="19.63706">
        <ele>10.457486</ele>
        <time>2022-02-24T22:46:05.467Z</time>
      </trkpt>
      <trkpt lat="41.07223" lon="19.63709">
        <ele>10.417637</ele>
        <time>2022-02-24T22:46:06.726Z</time>
      </trkpt>
      <trkpt lat="41.07219" lon="19.63714">
        <ele>10.377185</ele>
        <time>2022-02-24T22:46:08.004Z</time>
      </trkpt>
      <trkpt lat="41.07211" lon="19.637">
        <ele>10.28337</ele>
        <time>2022-02-24T22:46:10.995Z</time>
      </trkpt>
      <trkpt lat="41.07194" lon="19.6366">
        <ele>10.034517</ele>
        <time>2022-02-24T22:46:19.034Z</time>
      </trkpt>
      <trkpt lat="41.0719" lon="19.63643">
        <ele>9.936456</ele>
        <time>2022-02-24T22:46:22.350Z</time>
      </trkpt>
      <trkpt lat="41.07188" lon="19.63622">
        <ele>9.82554</ele>
        <time>2022-02-24T22:46:25.988Z</time>
      </trkpt>
      <trkpt lat="41.07201" lon="19.6354">
        <ele>9.458631</ele>
        <time>2022-02-24T22:46:42.067Z</time>
      </trkpt>
      <trkpt lat="41.07211" lon="19.63512">
        <ele>9.409752</ele>
        <time>2022-02-24T22:46:48.176Z</time>
      </trkpt>
      <trkpt lat="41.07226" lon="19.63497">
        <ele>9.371842</ele>
        <time>2022-02-24T22:46:52.856Z</time>
      </trkpt>
      <trkpt lat="41.07263" lon="19.63488">
        <ele>9.295583</ele>
        <time>2022-02-24T22:47:02.341Z</time>
      </trkpt>
      <trkpt lat="41.07275" lon="19.63476">
        <ele>9.264322</ele>
        <time>2022-02-24T22:47:06.264Z</time>
      </trkpt>
      <trkpt lat="41.07278" lon="19.63469">
        <ele>9.25148</ele>
        <time>2022-02-24T22:47:07.875Z</time>
      </trkpt>
      <trkpt lat="41.07286" lon="19.63449">
        <ele>9.217815</ele>
        <time>2022-02-24T22:47:12.230Z</time>
      </trkpt>
      <trkpt lat="41.07322" lon="19.63345">
        <ele>9.274964</ele>
        <time>2022-02-24T22:47:35.333Z</time>
      </trkpt>
      <trkpt lat="41.0735" lon="19.63279">
        <ele>9.480391</ele>
        <time>2022-02-24T22:47:51.128Z</time>
      </trkpt>
      <trkpt lat="41.07432" lon="19.63122">
        <ele>10.333748</ele>
        <time>2022-02-24T22:48:34.314Z</time>
      </trkpt>
      <trkpt lat="41.07465" lon="19.63059">
        <ele>10.849903</ele>
        <time>2022-02-24T22:48:52.522Z</time>
      </trkpt>
      <trkpt lat="41.07535" lon="19.62929">
        <ele>11.780874</ele>
        <time>2022-02-24T22:49:30.017Z</time>
      </trkpt>
      <trkpt lat="41.07613" lon="19.62779">
        <ele>12.630042</ele>
        <time>2022-02-24T22:50:10.384Z</time>
      </trkpt>
      <trkpt lat="41.07641" lon="19.62735">
        <ele>12.773553</ele>
        <time>2022-02-24T22:50:22.446Z</time>
      </trkpt>
      <trkpt lat="41.07688" lon="19.62675">
        <ele>12.98945</ele>
        <time>2022-02-24T22:50:40.696Z</time>
      </trkpt>
      <trkpt lat="41.07735" lon="19.62625">
        <ele>13.183681</ele>
        <time>2022-02-24T22:50:57.724Z</time>
      </trkpt>
      <trkpt lat="41.07858" lon="19.62521">
        <ele>13.536259</ele>
        <time>2022-02-24T22:51:38.778Z</time>
      </trkpt>
      <trkpt lat="41.07896" lon="19.6248">
        <ele>13.529689</ele>
        <time>2022-02-24T22:51:52.213Z</time>
      </trkpt>
      <trkpt lat="41.07919" lon="19.62453">
        <ele>13.432303</ele>
        <time>2022-02-24T22:52:00.302Z</time>
      </trkpt>
      <trkpt lat="41.08056" lon="19.62279">
        <ele>12.636629</ele>
        <time>2022-02-24T22:52:47.100Z</time>
      </trkpt>
      <trkpt lat="41.08092" lon="19.62232">
        <ele>12.319211</ele>
        <time>2022-02-24T22:52:59.254Z</time>
      </trkpt>
      <trkpt lat="41.08127" lon="19.62186">
        <ele>12.011863</ele>
        <time>2022-02-24T22:53:10.914Z</time>
      </trkpt>
      <trkpt lat="41.08384" lon="19.61849">
        <ele>9.653692</ele>
        <time>2022-02-24T22:54:38.027Z</time>
      </trkpt>
      <trkpt lat="41.08455" lon="19.61746">
        <ele>9.300621</ele>
        <time>2022-02-24T22:55:04.080Z</time>
      </trkpt>
      <trkpt lat="41.08811" lon="19.61201">
        <ele>7.928614</ele>
        <time>2022-02-24T22:57:23.192Z</time>
      </trkpt>
      <trkpt lat="41.08822" lon="19.61176">
        <ele>7.906122</ele>
        <time>2022-02-24T22:57:29.160Z</time>
      </trkpt>
      <trkpt lat="41.08821" lon="19.6116">
        <ele>7.8938</ele>
        <time>2022-02-24T22:57:32.396Z</time>
      </trkpt>
      <trkpt lat="41.08812" lon="19.61129">
        <ele>7.868471</ele>
        <time>2022-02-24T22:57:39.177Z</time>
      </trkpt>
      <trkpt lat="41.08812" lon="19.61121">
        <ele>7.861873</ele>
        <time>2022-02-24T22:57:40.918Z</time>
      </trkpt>
      <trkpt lat="41.08813" lon="19.61114">
        <ele>7.857023</ele>
        <time>2022-02-24T22:57:42.202Z</time>
      </trkpt>
      <trkpt lat="41.08817" lon="19.61101">
        <ele>7.845636</ele>
        <time>2022-02-24T22:57:45.239Z</time>
      </trkpt>
      <trkpt lat="41.0882" lon="19.61101">
        <ele>7.843095</ele>
        <time>2022-02-24T22:57:45.922Z</time>
      </trkpt>
      <trkpt lat="41.08822" lon="19.611">
        <ele>7.842292</ele>
        <time>2022-02-24T22:57:46.620Z</time>
      </trkpt>
      <trkpt lat="41.08826" lon="19.61098">
        <ele>7.858273</ele>
        <time>2022-02-24T22:57:47.777Z</time>
      </trkpt>
      <trkpt lat="41.0883" lon="19.61095">
        <ele>7.874374</ele>
        <time>2022-02-24T22:57:48.926Z</time>
      </trkpt>
      <trkpt lat="41.08832" lon="19.61091">
        <ele>7.890479</ele>
        <time>2022-02-24T22:57:50.066Z</time>
      </trkpt>
      <trkpt lat="41.08834" lon="19.61085">
        <ele>7.906518</ele>
        <time>2022-02-24T22:57:51.201Z</time>
      </trkpt>
      <trkpt lat="41.08834" lon="19.61083">
        <ele>7.913188</ele>
        <time>2022-02-24T22:57:51.671Z</time>
      </trkpt>
      <trkpt lat="41.08839" lon="19.61076">
        <ele>7.941502</ele>
        <time>2022-02-24T22:57:53.729Z</time>
      </trkpt>
      <trkpt lat="41.08845" lon="19.61069">
        <ele>7.971085</ele>
        <time>2022-02-24T22:57:55.815Z</time>
      </trkpt>
      <trkpt lat="41.08853" lon="19.61061">
        <ele>8.011064</ele>
        <time>2022-02-24T22:57:58.701Z</time>
      </trkpt>
      <trkpt lat="41.08863" lon="19.61059">
        <ele>8.048514</ele>
        <time>2022-02-24T22:58:01.379Z</time>
      </trkpt>
      <trkpt lat="41.0887" lon="19.61058">
        <ele>8.075529</ele>
        <time>2022-02-24T22:58:03.350Z</time>
      </trkpt>
      <trkpt lat="41.0888" lon="19.61057">
        <ele>8.113778</ele>
        <time>2022-02-24T22:58:06.072Z</time>
      </trkpt>
      <trkpt lat="41.08907" lon="19.61066">
        <ele>8.221462</ele>
        <time>2022-02-24T22:58:14.037Z</time>
      </trkpt>
      <trkpt lat="41.0894" lon="19.61113">
        <ele>8.407254</ele>
        <time>2022-02-24T22:58:28.205Z</time>
      </trkpt>
      <trkpt lat="41.08955" lon="19.61156">
        <ele>8.582831</ele>
        <time>2022-02-24T22:58:38.681Z</time>
      </trkpt>
      <trkpt lat="41.08955" lon="19.612">
        <ele>9.114716</ele>
        <time>2022-02-24T22:58:48.674Z</time>
      </trkpt>
      <trkpt lat="41.08951" lon="19.61217">
        <ele>9.334096</ele>
        <time>2022-02-24T22:58:52.702Z</time>
      </trkpt>
      <trkpt lat="41.08941" lon="19.61236">
        <ele>9.612518</ele>
        <time>2022-02-24T22:58:58.964Z</time>
      </trkpt>
      <trkpt lat="41.08922" lon="19.61262">
        <ele>10.046575</ele>
        <time>2022-02-24T22:59:07.568Z</time>
      </trkpt>
      <trkpt lat="41.08916" lon="19.61263">
        <ele>10.152428</ele>
        <time>2022-02-24T22:59:10.265Z</time>
      </trkpt>
      <trkpt lat="41.08908" lon="19.61264">
        <ele>10.277705</ele>
        <time>2022-02-24T22:59:13.196Z</time>
      </trkpt>
      <trkpt lat="41.08902" lon="19.61265">
        <ele>10.375785</ele>
        <time>2022-02-24T22:59:15.166Z</time>
      </trkpt>
      <trkpt lat="41.089" lon="19.61263">
        <ele>10.407495</ele>
        <time>2022-02-24T22:59:15.814Z</time>
      </trkpt>
      <trkpt lat="41.08896" lon="19.61263">
        <ele>10.467479</ele>
        <time>2022-02-24T22:59:16.980Z</time>
      </trkpt>
      <trkpt lat="41.08893" lon="19.61263">
        <ele>10.526988</ele>
        <time>2022-02-24T22:59:18.218Z</time>
      </trkpt>
      <trkpt lat="41.08889" lon="19.61265">
        <ele>10.58813</ele>
        <time>2022-02-24T22:59:19.494Z</time>
      </trkpt>
      <trkpt lat="41.08886" lon="19.61268">
        <ele>10.647522</ele>
        <time>2022-02-24T22:59:20.755Z</time>
      </trkpt>
      <trkpt lat="41.08884" lon="19.61272">
        <ele>10.710188</ele>
        <time>2022-02-24T22:59:22.497Z</time>
      </trkpt>
      <trkpt lat="41.08882" lon="19.61276">
        <ele>10.770192</ele>
        <time>2022-02-24T22:59:24.274Z</time>
      </trkpt>
      <trkpt lat="41.08882" lon="19.61276">
        <ele>10.771398</ele>
        <time>2022-02-24T22:59:24.369Z</time>
      </trkpt>
      <trkpt lat="41.08883" lon="19.61291">
        <ele>10.952478</ele>
        <time>2022-02-24T22:59:28.323Z</time>
      </trkpt>
      <trkpt lat="41.08889" lon="19.61298">
        <ele>11.074973</ele>
        <time>2022-02-24T22:59:30.934Z</time>
      </trkpt>
      <trkpt lat="41.08892" lon="19.613">
        <ele>11.136966</ele>
        <time>2022-02-24T22:59:32.352Z</time>
      </trkpt>
      <trkpt lat="41.08903" lon="19.61315">
        <ele>11.383648</ele>
        <time>2022-02-24T22:59:39.000Z</time>
      </trkpt>
      <trkpt lat="41.08913" lon="19.61337">
        <ele>11.798598</ele>
        <time>2022-02-24T22:59:45.929Z</time>
      </trkpt>
      <trkpt lat="41.08919" lon="19.61343">
        <ele>11.972867</ele>
        <time>2022-02-24T22:59:48.905Z</time>
      </trkpt>
      <trkpt lat="41.08924" lon="19.61351">
        <ele>12.153917</ele>
        <time>2022-02-24T22:59:53.101Z</time>
      </trkpt>
      <trkpt lat="41.08964" lon="19.6142">
        <ele>13.62615</ele>
        <time>2022-02-24T23:00:18.444Z</time>
      </trkpt>
      <trkpt lat="41.09013" lon="19.61516">
        <ele>15.471382</ele>
        <time>2022-02-24T23:00:51.242Z</time>
      </trkpt>
      <trkpt lat="41.09039" lon="19.61494">
        <ele>15.484121</ele>
        <time>2022-02-24T23:01:00.740Z</time>
      </trkpt>
      <trkpt lat="41.09086" lon="19.61452">
        <ele>15.507335</ele>
        <time>2022-02-24T23:01:16.268Z</time>
      </trkpt>
      <trkpt lat="41.09122" lon="19.61419">
        <ele>15.525458</ele>
        <time>2022-02-24T23:01:27.187Z</time>
      </trkpt>
      <trkpt lat="41.09131" lon="19.61411">
        <ele>15.530002</ele>
        <time>2022-02-24T23:01:29.828Z</time>
      </trkpt>
      <trkpt lat="41.09185" lon="19.61366">
        <ele>15.272155</ele>
        <time>2022-02-24T23:01:43.866Z</time>
      </trkpt>
      <trkpt lat="41.09348" lon="19.61251">
        <ele>14.018559</ele>
        <time>2022-02-24T23:02:28.066Z</time>
      </trkpt>
      <trkpt lat="41.09378" lon="19.61235">
        <ele>13.997936</ele>
        <time>2022-02-24T23:02:36.721Z</time>
      </trkpt>
      <trkpt lat="41.09394" lon="19.61226">
        <ele>13.987486</ele>
        <time>2022-02-24T23:02:41.156Z</time>
      </trkpt>
      <trkpt lat="41.09419" lon="19.61252">
        <ele>13.967309</ele>
        <time>2022-02-24T23:02:49.850Z</time>
      </trkpt>
      <trkpt lat="41.09463" lon="19.61303">
        <ele>13.930146</ele>
        <time>2022-02-24T23:03:06.857Z</time>
      </trkpt>
      <trkpt lat="41.09419" lon="19.61252">
        <ele>14.149796</ele>
        <time>2022-02-24T23:03:24.901Z</time>
      </trkpt>
      <trkpt lat="41.09394" lon="19.61226">
        <ele>14.275618</ele>
        <time>2022-02-24T23:03:34.537Z</time>
      </trkpt>
      <trkpt lat="41.09454" lon="19.61195">
        <ele>14.533201</ele>
        <time>2022-02-24T23:03:52.897Z</time>
      </trkpt>
      <trkpt lat="41.09488" lon="19.6118">
        <ele>14.677282</ele>
        <time>2022-02-24T23:04:02.785Z</time>
      </trkpt>
      <trkpt lat="41.09513" lon="19.6117">
        <ele>14.786176</ele>
        <time>2022-02-24T23:04:09.901Z</time>
      </trkpt>
      <trkpt lat="41.0965" lon="19.6111">
        <ele>15.398124</ele>
        <time>2022-02-24T23:04:51.436Z</time>
      </trkpt>
      <trkpt lat="41.10033" lon="19.60944">
        <ele>18.496338</ele>
        <time>2022-02-24T23:06:55.224Z</time>
      </trkpt>
      <trkpt lat="41.10076" lon="19.60941">
        <ele>18.660006</ele>
        <time>2022-02-24T23:07:08.088Z</time>
      </trkpt>
      <trkpt lat="41.10137" lon="19.60936">
        <ele>18.897031</ele>
        <time>2022-02-24T23:07:26.434Z</time>
      </trkpt>
      <trkpt lat="41.10246" lon="19.60923">
        <ele>18.447165</ele>
        <time>2022-02-24T23:07:54.435Z</time>
      </trkpt>
      <trkpt lat="41.10351" lon="19.60912">
        <ele>17.662979</ele>
        <time>2022-02-24T23:08:19.868Z</time>
      </trkpt>
      <trkpt lat="41.10371" lon="19.6091">
        <ele>17.601144</ele>
        <time>2022-02-24T23:08:24.664Z</time>
      </trkpt>
      <trkpt lat="41.10444" lon="19.60902">
        <ele>17.378402</ele>
        <time>2022-02-24T23:08:42.986Z</time>
      </trkpt>
      <trkpt lat="41.1057" lon="19.6088">
        <ele>17.360742</ele>
        <time>2022-02-24T23:09:19.749Z</time>
      </trkpt>
      <trkpt lat="41.10633" lon="19.6086">
        <ele>17.733994</ele>
        <time>2022-02-24T23:09:39.485Z</time>
      </trkpt>
      <trkpt lat="41.10793" lon="19.60794">
        <ele>19.171238</ele>
        <time>2022-02-24T23:10:33.202Z</time>
      </trkpt>
      <trkpt lat="41.10883" lon="19.60755">
        <ele>20.21188</ele>
        <time>2022-02-24T23:11:05.518Z</time>
      </trkpt>
      <trkpt lat="41.11085" lon="19.60666">
        <ele>22.720754</ele>
        <time>2022-02-24T23:12:18.111Z</time>
      </trkpt>
      <trkpt lat="41.11242" lon="19.60597">
        <ele>23.742439</ele>
        <time>2022-02-24T23:13:08.399Z</time>
      </trkpt>
      <trkpt lat="41.11301" lon="19.60572">
        <ele>23.68417</ele>
        <time>2022-02-24T23:13:25.646Z</time>
      </trkpt>
      <trkpt lat="41.1143" lon="19.60515">
        <ele>23.394144</ele>
        <time>2022-02-24T23:14:01.171Z</time>
      </trkpt>
      <trkpt lat="41.11585" lon="19.60447">
        <ele>22.788358</ele>
        <time>2022-02-24T23:14:43.408Z</time>
      </trkpt>
      <trkpt lat="41.11689" lon="19.60402">
        <ele>22.76677</ele>
        <time>2022-02-24T23:15:13.445Z</time>
      </trkpt>
      <trkpt lat="41.11806" lon="19.60361">
        <ele>23.121625</ele>
        <time>2022-02-24T23:15:49.184Z</time>
      </trkpt>
      <trkpt lat="41.11868" lon="19.60328">
        <ele>23.424657</ele>
        <time>2022-02-24T23:16:09.604Z</time>
      </trkpt>
      <trkpt lat="41.11925" lon="19.60294">
        <ele>23.638067</ele>
        <time>2022-02-24T23:16:28.746Z</time>
      </trkpt>
      <trkpt lat="41.1204" lon="19.60223">
        <ele>23.912718</ele>
        <time>2022-02-24T23:17:05.592Z</time>
      </trkpt>
      <trkpt lat="41.12082" lon="19.60199">
        <ele>23.890899</ele>
        <time>2022-02-24T23:17:18.153Z</time>
      </trkpt>
      <trkpt lat="41.12211" lon="19.60135">
        <ele>23.430444</ele>
        <time>2022-02-24T23:17:53.539Z</time>
      </trkpt>
      <trkpt lat="41.12472" lon="19.60003">
        <ele>22.91637</ele>
        <time>2022-02-24T23:19:08.005Z</time>
      </trkpt>
      <trkpt lat="41.1256" lon="19.5996">
        <ele>23.018666</ele>
        <time>2022-02-24T23:19:34.875Z</time>
      </trkpt>
      <trkpt lat="41.12623" lon="19.5993">
        <ele>23.155046</ele>
        <time>2022-02-24T23:19:54.200Z</time>
      </trkpt>
      <trkpt lat="41.12823" lon="19.59835">
        <ele>23.53756</ele>
        <time>2022-02-24T23:20:51.492Z</time>
      </trkpt>
      <trkpt lat="41.13034" lon="19.59734">
        <ele>24.022855</ele>
        <time>2022-02-24T23:21:53.763Z</time>
      </trkpt>
      <trkpt lat="41.13146" lon="19.59677">
        <ele>24.772756</ele>
        <time>2022-02-24T23:22:28.419Z</time>
      </trkpt>
      <trkpt lat="41.13272" lon="19.59619">
        <ele>25.972148</ele>
        <time>2022-02-24T23:23:10.662Z</time>
      </trkpt>
      <trkpt lat="41.13283" lon="19.59619">
        <ele>26.090371</ele>
        <time>2022-02-24T23:23:14.323Z</time>
      </trkpt>
      <trkpt lat="41.13294" lon="19.59631">
        <ele>26.247858</ele>
        <time>2022-02-24T23:23:19.360Z</time>
      </trkpt>
      <trkpt lat="41.13329" lon="19.59756">
        <ele>27.385113</ele>
        <time>2022-02-24T23:23:52.605Z</time>
      </trkpt>
      <trkpt lat="41.13335" lon="19.59764">
        <ele>27.481897</ele>
        <time>2022-02-24T23:23:55.305Z</time>
      </trkpt>
      <trkpt lat="41.13346" lon="19.59764">
        <ele>27.598065</ele>
        <time>2022-02-24T23:23:58.299Z</time>
      </trkpt>
      <trkpt lat="41.13367" lon="19.59749">
        <ele>27.645392</ele>
        <time>2022-02-24T23:24:05.572Z</time>
      </trkpt>
      <trkpt lat="41.13377" lon="19.59741">
        <ele>27.641791</ele>
        <time>2022-02-24T23:24:08.933Z</time>
      </trkpt>
      <trkpt lat="41.13466" lon="19.59685">
        <ele>27.612808</ele>
        <time>2022-02-24T23:24:35.544Z</time>
      </trkpt>
      <trkpt lat="41.13472" lon="19.59677">
        <ele>27.610486</ele>
        <time>2022-02-24T23:24:37.448Z</time>
      </trkpt>
      <trkpt lat="41.13472" lon="19.59667">
        <ele>27.608427</ele>
        <time>2022-02-24T23:24:39.193Z</time>
      </trkpt>
      <trkpt lat="41.13435" lon="19.59547">
        <ele>27.170273</ele>
        <time>2022-02-24T23:25:02.143Z</time>
      </trkpt>
      <trkpt lat="41.13437" lon="19.59539">
        <ele>27.126598</ele>
        <time>2022-02-24T23:25:03.637Z</time>
      </trkpt>
      <trkpt lat="41.13544" lon="19.5949">
        <ele>26.372733</ele>
        <time>2022-02-24T23:25:30.703Z</time>
      </trkpt>
      <trkpt lat="41.1387" lon="19.59335">
        <ele>26.441336</ele>
        <time>2022-02-24T23:27:03.811Z</time>
      </trkpt>
      <trkpt lat="41.13904" lon="19.59319">
        <ele>26.65118</ele>
        <time>2022-02-24T23:27:14.226Z</time>
      </trkpt>
      <trkpt lat="41.13914" lon="19.59315">
        <ele>26.733773</ele>
        <time>2022-02-24T23:27:17.345Z</time>
      </trkpt>
      <trkpt lat="41.14318" lon="19.59124">
        <ele>30.065109</ele>
        <time>2022-02-24T23:29:28.653Z</time>
      </trkpt>
      <trkpt lat="41.14386" lon="19.59094">
        <ele>30.648725</ele>
        <time>2022-02-24T23:29:50.884Z</time>
      </trkpt>
      <trkpt lat="41.14413" lon="19.59079">
        <ele>30.7467</ele>
        <time>2022-02-24T23:29:59.744Z</time>
      </trkpt>
      <trkpt lat="41.14446" lon="19.59069">
        <ele>30.844584</ele>
        <time>2022-02-24T23:30:09.735Z</time>
      </trkpt>
      <trkpt lat="41.14474" lon="19.59089">
        <ele>30.935549</ele>
        <time>2022-02-24T23:30:18.781Z</time>
      </trkpt>
      <trkpt lat="41.14491" lon="19.59084">
        <ele>30.985866</ele>
        <time>2022-02-24T23:30:23.672Z</time>
      </trkpt>
      <trkpt lat="41.14551" lon="19.59054">
        <ele>31.171831</ele>
        <time>2022-02-24T23:30:41.200Z</time>
      </trkpt>
      <trkpt lat="41.14567" lon="19.59008">
        <ele>30.911177</ele>
        <time>2022-02-24T23:30:50.534Z</time>
      </trkpt>
      <trkpt lat="41.14686" lon="19.5895">
        <ele>29.785393</ele>
        <time>2022-02-24T23:31:20.116Z</time>
      </trkpt>
      <trkpt lat="41.14705" lon="19.58939">
        <ele>29.601782</ele>
        <time>2022-02-24T23:31:24.680Z</time>
      </trkpt>
      <trkpt lat="41.14754" lon="19.58907">
        <ele>28.636315</ele>
        <time>2022-02-24T23:31:36.788Z</time>
      </trkpt>
      <trkpt lat="41.14858" lon="19.5885">
        <ele>26.645608</ele>
        <time>2022-02-24T23:32:00.310Z</time>
      </trkpt>
      <trkpt lat="41.14885" lon="19.58824">
        <ele>26.321557</ele>
        <time>2022-02-24T23:32:07.551Z</time>
      </trkpt>
      <trkpt lat="41.14904" lon="19.5879">
        <ele>26.17182</ele>
        <time>2022-02-24T23:32:14.828Z</time>
      </trkpt>
      <trkpt lat="41.14926" lon="19.5874">
        <ele>25.964496</ele>
        <time>2022-02-24T23:32:25.607Z</time>
      </trkpt>
      <trkpt lat="41.14941" lon="19.58707">
        <ele>25.826727</ele>
        <time>2022-02-24T23:32:32.885Z</time>
      </trkpt>
      <trkpt lat="41.1495" lon="19.58689">
        <ele>25.748699</ele>
        <time>2022-02-24T23:32:37.539Z</time>
      </trkpt>
      <trkpt lat="41.14961" lon="19.58673">
        <ele>25.670451</ele>
        <time>2022-02-24T23:32:41.715Z</time>
      </trkpt>
      <trkpt lat="41.14966" lon="19.58667">
        <ele>25.638192</ele>
        <time>2022-02-24T23:32:43.705Z</time>
      </trkpt>
      <trkpt lat="41.14981" lon="19.58651">
        <ele>25.594453</ele>
        <time>2022-02-24T23:32:49.385Z</time>
      </trkpt>
      <trkpt lat="41.15007" lon="19.58627">
        <ele>25.861925</ele>
        <time>2022-02-24T23:32:58.964Z</time>
      </trkpt>
      <trkpt lat="41.15227" lon="19.58472">
        <ele>27.726517</ele>
        <time>2022-02-24T23:34:17.258Z</time>
      </trkpt>
      <trkpt lat="41.15279" lon="19.58434">
        <ele>28.081972</ele>
        <time>2022-02-24T23:34:33.452Z</time>
      </trkpt>
      <trkpt lat="41.15306" lon="19.58414">
        <ele>28.211515</ele>
        <time>2022-02-24T23:34:41.862Z</time>
      </trkpt>
      <trkpt lat="41.15408" lon="19.58345">
        <ele>28.428693</ele>
        <time>2022-02-24T23:35:12.634Z</time>
      </trkpt>
      <trkpt lat="41.15516" lon="19.58261">
        <ele>28.856345</ele>
        <time>2022-02-24T23:35:48.576Z</time>
      </trkpt>
      <trkpt lat="41.15522" lon="19.58255">
        <ele>28.890608</ele>
        <time>2022-02-24T23:35:51.078Z</time>
      </trkpt>
      <trkpt lat="41.15524" lon="19.58258">
        <ele>28.901359</ele>
        <time>2022-02-24T23:35:51.853Z</time>
      </trkpt>
      <trkpt lat="41.15531" lon="19.5826">
        <ele>28.933885</ele>
        <time>2022-02-24T23:35:53.891Z</time>
      </trkpt>
      <trkpt lat="41.15539" lon="19.58254">
        <ele>28.975967</ele>
        <time>2022-02-24T23:35:56.497Z</time>
      </trkpt>
      <trkpt lat="41.1554" lon="19.58251">
        <ele>28.987241</ele>
        <time>2022-02-24T23:35:57.258Z</time>
      </trkpt>
      <trkpt lat="41.15552" lon="19.58238">
        <ele>29.054696</ele>
        <time>2022-02-24T23:36:01.882Z</time>
      </trkpt>
      <trkpt lat="41.15553" lon="19.58227">
        <ele>29.092522</ele>
        <time>2022-02-24T23:36:04.424Z</time>
      </trkpt>
      <trkpt lat="41.15678" lon="19.58139">
        <ele>29.381013</ele>
        <time>2022-02-24T23:36:45.851Z</time>
      </trkpt>
      <trkpt lat="41.15733" lon="19.58101">
        <ele>29.415881</ele>
        <time>2022-02-24T23:37:02.744Z</time>
      </trkpt>
      <trkpt lat="41.15736" lon="19.58099">
        <ele>29.417833</ele>
        <time>2022-02-24T23:37:03.644Z</time>
      </trkpt>
      <trkpt lat="41.1574" lon="19.58096">
        <ele>29.42025</ele>
        <time>2022-02-24T23:37:04.807Z</time>
      </trkpt>
      <trkpt lat="41.15812" lon="19.58045">
        <ele>29.305887</ele>
        <time>2022-02-24T23:37:26.647Z</time>
      </trkpt>
      <trkpt lat="41.16109" lon="19.57827">
        <ele>28.58442</ele>
        <time>2022-02-24T23:38:57.431Z</time>
      </trkpt>
      <trkpt lat="41.16201" lon="19.57761">
        <ele>28.340266</ele>
        <time>2022-02-24T23:39:25.737Z</time>
      </trkpt>
      <trkpt lat="41.16212" lon="19.57753">
        <ele>28.311919</ele>
        <time>2022-02-24T23:39:29.041Z</time>
      </trkpt>
      <trkpt lat="41.16271" lon="19.57715">
        <ele>28.110232</ele>
        <time>2022-02-24T23:39:46.806Z</time>
      </trkpt>
      <trkpt lat="41.16297" lon="19.57697">
        <ele>28.009314</ele>
        <time>2022-02-24T23:39:54.601Z</time>
      </trkpt>
      <trkpt lat="41.16361" lon="19.57651">
        <ele>27.754018</ele>
        <time>2022-02-24T23:40:13.989Z</time>
      </trkpt>
      <trkpt lat="41.1648" lon="19.57566">
        <ele>26.943574</ele>
        <time>2022-02-24T23:40:47.888Z</time>
      </trkpt>
      <trkpt lat="41.16482" lon="19.57564">
        <ele>26.925192</ele>
        <time>2022-02-24T23:40:48.550Z</time>
      </trkpt>
      <trkpt lat="41.16572" lon="19.57501">
        <ele>26.212685</ele>
        <time>2022-02-24T23:41:13.637Z</time>
      </trkpt>
      <trkpt lat="41.16684" lon="19.57422">
        <ele>25.286661</ele>
        <time>2022-02-24T23:41:45.312Z</time>
      </trkpt>
      <trkpt lat="41.16714" lon="19.57401">
        <ele>25.061699</ele>
        <time>2022-02-24T23:41:53.916Z</time>
      </trkpt>
      <trkpt lat="41.16792" lon="19.57347">
        <ele>24.780785</ele>
        <time>2022-02-24T23:42:16.933Z</time>
      </trkpt>
      <trkpt lat="41.16809" lon="19.57335">
        <ele>24.721425</ele>
        <time>2022-02-24T23:42:21.836Z</time>
      </trkpt>
      <trkpt lat="41.16862" lon="19.57297">
        <ele>24.529134</ele>
        <time>2022-02-24T23:42:38.140Z</time>
      </trkpt>
      <trkpt lat="41.16868" lon="19.57293">
        <ele>24.508354</ele>
        <time>2022-02-24T23:42:39.893Z</time>
      </trkpt>
      <trkpt lat="41.16951" lon="19.57234">
        <ele>24.321333</ele>
        <time>2022-02-24T23:43:05.765Z</time>
      </trkpt>
      <trkpt lat="41.16969" lon="19.57221">
        <ele>24.280231</ele>
        <time>2022-02-24T23:43:11.498Z</time>
      </trkpt>
      <trkpt lat="41.17058" lon="19.57157">
        <ele>23.929591</ele>
        <time>2022-02-24T23:43:38.319Z</time>
      </trkpt>
      <trkpt lat="41.17086" lon="19.57137">
        <ele>23.735187</ele>
        <time>2022-02-24T23:43:46.165Z</time>
      </trkpt>
      <trkpt lat="41.17114" lon="19.57116">
        <ele>23.53242</ele>
        <time>2022-02-24T23:43:54.320Z</time>
      </trkpt>
      <trkpt lat="41.1716" lon="19.57082">
        <ele>23.204469</ele>
        <time>2022-02-24T23:44:07.463Z</time>
      </trkpt>
      <trkpt lat="41.17214" lon="19.57043">
        <ele>22.933342</ele>
        <time>2022-02-24T23:44:22.810Z</time>
      </trkpt>
      <trkpt lat="41.17269" lon="19.57003">
        <ele>22.751501</ele>
        <time>2022-02-24T23:44:38.892Z</time>
      </trkpt>
      <trkpt lat="41.1736" lon="19.56934">
        <ele>22.557005</ele>
        <time>2022-02-24T23:45:08.104Z</time>
      </trkpt>
      <trkpt lat="41.17382" lon="19.56903">
        <ele>22.631961</ele>
        <time>2022-02-24T23:45:17.617Z</time>
      </trkpt>
      <trkpt lat="41.17388" lon="19.56899">
        <ele>22.646196</ele>
        <time>2022-02-24T23:45:19.444Z</time>
      </trkpt>
      <trkpt lat="41.17387" lon="19.56901">
        <ele>22.650019</ele>
        <time>2022-02-24T23:45:19.886Z</time>
      </trkpt>
      <trkpt lat="41.17387" lon="19.56903">
        <ele>22.653553</ele>
        <time>2022-02-24T23:45:20.324Z</time>
      </trkpt>
      <trkpt lat="41.17387" lon="19.56905">
        <ele>22.6572</ele>
        <time>2022-02-24T23:45:20.829Z</time>
      </trkpt>
      <trkpt lat="41.17392" lon="19.56915">
        <ele>22.677694</ele>
        <time>2022-02-24T23:45:23.329Z</time>
      </trkpt>
      <trkpt lat="41.17394" lon="19.56915">
        <ele>22.681254</ele>
        <time>2022-02-24T23:45:23.836Z</time>
      </trkpt>
      <trkpt lat="41.17395" lon="19.56915">
        <ele>22.684942</ele>
        <time>2022-02-24T23:45:24.276Z</time>
      </trkpt>
      <trkpt lat="41.17402" lon="19.5691">
        <ele>22.702216</ele>
        <time>2022-02-24T23:45:26.344Z</time>
      </trkpt>
      <trkpt lat="41.17402" lon="19.56908">
        <ele>22.705882</ele>
        <time>2022-02-24T23:45:26.785Z</time>
      </trkpt>
      <trkpt lat="41.17405" lon="19.56906">
        <ele>22.714129</ele>
        <time>2022-02-24T23:45:27.770Z</time>
      </trkpt>
      <trkpt lat="41.17415" lon="19.56897">
        <ele>22.741383</ele>
        <time>2022-02-24T23:45:31.167Z</time>
      </trkpt>
      <trkpt lat="41.17418" lon="19.56895">
        <ele>22.748987</ele>
        <time>2022-02-24T23:45:32.113Z</time>
      </trkpt>
      <trkpt lat="41.17508" lon="19.56829">
        <ele>22.983863</ele>
        <time>2022-02-24T23:46:00.623Z</time>
      </trkpt>
      <trkpt lat="41.17513" lon="19.56825">
        <ele>22.995526</ele>
        <time>2022-02-24T23:46:02.110Z</time>
      </trkpt>
      <trkpt lat="41.17517" lon="19.56822">
        <ele>23.006698</ele>
        <time>2022-02-24T23:46:03.501Z</time>
      </trkpt>
      <trkpt lat="41.17549" lon="19.56798">
        <ele>23.088828</ele>
        <time>2022-02-24T23:46:13.629Z</time>
      </trkpt>
      <trkpt lat="41.17566" lon="19.56785">
        <ele>23.130471</ele>
        <time>2022-02-24T23:46:18.980Z</time>
      </trkpt>
      <trkpt lat="41.17626" lon="19.56741">
        <ele>23.283152</ele>
        <time>2022-02-24T23:46:38.545Z</time>
      </trkpt>
      <trkpt lat="41.17646" lon="19.56726">
        <ele>23.308166</ele>
        <time>2022-02-24T23:46:44.618Z</time>
      </trkpt>
      <trkpt lat="41.17686" lon="19.56696">
        <ele>23.178147</ele>
        <time>2022-02-24T23:46:56.932Z</time>
      </trkpt>
      <trkpt lat="41.1769" lon="19.56693">
        <ele>23.16404</ele>
        <time>2022-02-24T23:46:58.310Z</time>
      </trkpt>
      <trkpt lat="41.17695" lon="19.56689">
        <ele>23.148293</ele>
        <time>2022-02-24T23:46:59.826Z</time>
      </trkpt>
      <trkpt lat="41.17748" lon="19.5665">
        <ele>22.978212</ele>
        <time>2022-02-24T23:47:14.400Z</time>
      </trkpt>
      <trkpt lat="41.17767" lon="19.56636">
        <ele>22.916761</ele>
        <time>2022-02-24T23:47:19.718Z</time>
      </trkpt>
      <trkpt lat="41.17826" lon="19.56591">
        <ele>22.821156</ele>
        <time>2022-02-24T23:47:37.332Z</time>
      </trkpt>
      <trkpt lat="41.17831" lon="19.56587">
        <ele>22.822091</ele>
        <time>2022-02-24T23:47:38.759Z</time>
      </trkpt>
      <trkpt lat="41.17873" lon="19.56558">
        <ele>22.829069</ele>
        <time>2022-02-24T23:47:51.475Z</time>
      </trkpt>
      <trkpt lat="41.1788" lon="19.56553">
        <ele>22.830197</ele>
        <time>2022-02-24T23:47:53.370Z</time>
      </trkpt>
      <trkpt lat="41.17902" lon="19.56536">
        <ele>22.833991</ele>
        <time>2022-02-24T23:47:59.988Z</time>
      </trkpt>
      <trkpt lat="41.17909" lon="19.56531">
        <ele>22.835166</ele>
        <time>2022-02-24T23:48:02.364Z</time>
      </trkpt>
      <trkpt lat="41.17925" lon="19.5652">
        <ele>22.837817</ele>
        <time>2022-02-24T23:48:07.074Z</time>
      </trkpt>
      <trkpt lat="41.17927" lon="19.56518">
        <ele>22.838219</ele>
        <time>2022-02-24T23:48:07.833Z</time>
      </trkpt>
      <trkpt lat="41.17956" lon="19.56498">
        <ele>22.842992</ele>
        <time>2022-02-24T23:48:16.953Z</time>
      </trkpt>
      <trkpt lat="41.17961" lon="19.56495">
        <ele>22.850651</ele>
        <time>2022-02-24T23:48:18.515Z</time>
      </trkpt>
      <trkpt lat="41.17963" lon="19.56493">
        <ele>22.855196</ele>
        <time>2022-02-24T23:48:19.401Z</time>
      </trkpt>
      <trkpt lat="41.17968" lon="19.5649">
        <ele>22.862473</ele>
        <time>2022-02-24T23:48:20.891Z</time>
      </trkpt>
      <trkpt lat="41.17968" lon="19.5649">
        <ele>22.863472</ele>
        <time>2022-02-24T23:48:21.258Z</time>
      </trkpt>
      <trkpt lat="41.17996" lon="19.5647">
        <ele>22.910602</ele>
        <time>2022-02-24T23:48:30.233Z</time>
      </trkpt>
      <trkpt lat="41.18002" lon="19.56466">
        <ele>22.919456</ele>
        <time>2022-02-24T23:48:32.132Z</time>
      </trkpt>
      <trkpt lat="41.18007" lon="19.56463">
        <ele>22.928443</ele>
        <time>2022-02-24T23:48:33.639Z</time>
      </trkpt>
      <trkpt lat="41.18029" lon="19.56448">
        <ele>22.964974</ele>
        <time>2022-02-24T23:48:40.896Z</time>
      </trkpt>
      <trkpt lat="41.18074" lon="19.56419">
        <ele>23.038851</ele>
        <time>2022-02-24T23:48:54.812Z</time>
      </trkpt>
      <trkpt lat="41.18093" lon="19.56406">
        <ele>23.071022</ele>
        <time>2022-02-24T23:49:00.382Z</time>
      </trkpt>
      <trkpt lat="41.18097" lon="19.56403">
        <ele>23.078778</ele>
        <time>2022-02-24T23:49:01.944Z</time>
      </trkpt>
      <trkpt lat="41.18102" lon="19.56399">
        <ele>23.086977</ele>
        <time>2022-02-24T23:49:03.283Z</time>
      </trkpt>
      <trkpt lat="41.18114" lon="19.5639">
        <ele>23.106646</ele>
        <time>2022-02-24T23:49:06.545Z</time>
      </trkpt>
      <trkpt lat="41.18135" lon="19.56373">
        <ele>23.010012</ele>
        <time>2022-02-24T23:49:12.808Z</time>
      </trkpt>
      <trkpt lat="41.18141" lon="19.56369">
        <ele>22.981245</ele>
        <time>2022-02-24T23:49:14.406Z</time>
      </trkpt>
      <trkpt lat="41.18167" lon="19.56349">
        <ele>22.846905</ele>
        <time>2022-02-24T23:49:21.723Z</time>
      </trkpt>
      <trkpt lat="41.18181" lon="19.56339">
        <ele>22.778325</ele>
        <time>2022-02-24T23:49:25.460Z</time>
      </trkpt>
      <trkpt lat="41.18207" lon="19.56318">
        <ele>22.640957</ele>
        <time>2022-02-24T23:49:32.867Z</time>
      </trkpt>
      <trkpt lat="41.18217" lon="19.5631">
        <ele>22.590873</ele>
        <time>2022-02-24T23:49:35.542Z</time>
      </trkpt>
      <trkpt lat="41.18255" lon="19.56281">
        <ele>22.39573</ele>
        <time>2022-02-24T23:49:46.201Z</time>
      </trkpt>
      <trkpt lat="41.18297" lon="19.56247">
        <ele>22.33871</ele>
        <time>2022-02-24T23:49:59.125Z</time>
      </trkpt>
      <trkpt lat="41.18336" lon="19.56215">
        <ele>22.381987</ele>
        <time>2022-02-24T23:50:16.123Z</time>
      </trkpt>
      <trkpt lat="41.18388" lon="19.56174">
        <ele>22.439252</ele>
        <time>2022-02-24T23:50:38.078Z</time>
      </trkpt>
      <trkpt lat="41.18395" lon="19.56169">
        <ele>22.446996</ele>
        <time>2022-02-24T23:50:41.153Z</time>
      </trkpt>
      <trkpt lat="41.18427" lon="19.56144">
        <ele>22.475114</ele>
        <time>2022-02-24T23:50:54.069Z</time>
      </trkpt>
      <trkpt lat="41.18449" lon="19.56125">
        <ele>22.372184</ele>
        <time>2022-02-24T23:51:03.358Z</time>
      </trkpt>
      <trkpt lat="41.18459" lon="19.56116">
        <ele>22.327498</ele>
        <time>2022-02-24T23:51:07.620Z</time>
      </trkpt>
      <trkpt lat="41.18497" lon="19.56078">
        <ele>22.143733</ele>
        <time>2022-02-24T23:51:24.048Z</time>
      </trkpt>
      <trkpt lat="41.18518" lon="19.56058">
        <ele>22.043853</ele>
        <time>2022-02-24T23:51:32.797Z</time>
      </trkpt>
      <trkpt lat="41.18548" lon="19.56029">
        <ele>21.903555</ele>
        <time>2022-02-24T23:51:44.581Z</time>
      </trkpt>
      <trkpt lat="41.18568" lon="19.56007">
        <ele>21.803185</ele>
        <time>2022-02-24T23:51:52.776Z</time>
      </trkpt>
      <trkpt lat="41.18591" lon="19.55983">
        <ele>21.643993</ele>
        <time>2022-02-24T23:52:01.872Z</time>
      </trkpt>
      <trkpt lat="41.18613" lon="19.55961">
        <ele>21.489136</ele>
        <time>2022-02-24T23:52:08.365Z</time>
      </trkpt>
      <trkpt lat="41.18626" lon="19.55947">
        <ele>21.394984</ele>
        <time>2022-02-24T23:52:12.518Z</time>
      </trkpt>
      <trkpt lat="41.18641" lon="19.55931">
        <ele>21.286939</ele>
        <time>2022-02-24T23:52:17.217Z</time>
      </trkpt>
      <trkpt lat="41.18687" lon="19.55882">
        <ele>20.949446</ele>
        <time>2022-02-24T23:52:32.268Z</time>
      </trkpt>
      <trkpt lat="41.18701" lon="19.55867">
        <ele>20.849896</ele>
        <time>2022-02-24T23:52:36.503Z</time>
      </trkpt>
      <trkpt lat="41.1871" lon="19.55859">
        <ele>20.790078</ele>
        <time>2022-02-24T23:52:39.213Z</time>
      </trkpt>
      <trkpt lat="41.18711" lon="19.55857">
        <ele>20.778486</ele>
        <time>2022-02-24T23:52:39.887Z</time>
      </trkpt>
      <trkpt lat="41.18733" lon="19.55835">
        <ele>20.701937</ele>
        <time>2022-02-24T23:52:46.410Z</time>
      </trkpt>
      <trkpt lat="41.18735" lon="19.55833">
        <ele>20.693966</ele>
        <time>2022-02-24T23:52:47.316Z</time>
      </trkpt>
      <trkpt lat="41.18771" lon="19.55797">
        <ele>20.570925</ele>
        <time>2022-02-24T23:52:58.847Z</time>
      </trkpt>
      <trkpt lat="41.18791" lon="19.55775">
        <ele>20.501199</ele>
        <time>2022-02-24T23:53:05.310Z</time>
      </trkpt>
      <trkpt lat="41.18812" lon="19.55754">
        <ele>20.430653</ele>
        <time>2022-02-24T23:53:12.052Z</time>
      </trkpt>
      <trkpt lat="41.18832" lon="19.55733">
        <ele>20.360373</ele>
        <time>2022-02-24T23:53:19.026Z</time>
      </trkpt>
      <trkpt lat="41.18883" lon="19.5568">
        <ele>20.142542</ele>
        <time>2022-02-24T23:53:35.450Z</time>
      </trkpt>
      <trkpt lat="41.18912" lon="19.5565">
        <ele>20.000168</ele>
        <time>2022-02-24T23:53:44.748Z</time>
      </trkpt>
      <trkpt lat="41.18917" lon="19.55645">
        <ele>19.978861</ele>
        <time>2022-02-24T23:53:46.126Z</time>
      </trkpt>
      <trkpt lat="41.18924" lon="19.55638">
        <ele>19.942436</ele>
        <time>2022-02-24T23:53:48.496Z</time>
      </trkpt>
      <trkpt lat="41.18925" lon="19.55637">
        <ele>19.937633</ele>
        <time>2022-02-24T23:53:48.796Z</time>
      </trkpt>
      <trkpt lat="41.18942" lon="19.55619">
        <ele>19.854401</ele>
        <time>2022-02-24T23:53:54.131Z</time>
      </trkpt>
      <trkpt lat="41.19003" lon="19.55551">
        <ele>19.51492</ele>
        <time>2022-02-24T23:54:13.842Z</time>
      </trkpt>
      <trkpt lat="41.19016" lon="19.55539">
        <ele>19.400699</ele>
        <time>2022-02-24T23:54:17.933Z</time>
      </trkpt>
      <trkpt lat="41.19021" lon="19.55534">
        <ele>19.361066</ele>
        <time>2022-02-24T23:54:19.307Z</time>
      </trkpt>
      <trkpt lat="41.19065" lon="19.55491">
        <ele>18.976367</ele>
        <time>2022-02-24T23:54:32.663Z</time>
      </trkpt>
      <trkpt lat="41.19104" lon="19.55451">
        <ele>18.627899</ele>
        <time>2022-02-24T23:54:44.559Z</time>
      </trkpt>
      <trkpt lat="41.19118" lon="19.55436">
        <ele>18.501536</ele>
        <time>2022-02-24T23:54:48.733Z</time>
      </trkpt>
      <trkpt lat="41.1917" lon="19.55387">
        <ele>17.919002</ele>
        <time>2022-02-24T23:55:03.411Z</time>
      </trkpt>
      <trkpt lat="41.19191" lon="19.55368">
        <ele>17.658961</ele>
        <time>2022-02-24T23:55:09.138Z</time>
      </trkpt>
      <trkpt lat="41.19205" lon="19.55355">
        <ele>17.483241</ele>
        <time>2022-02-24T23:55:13.033Z</time>
      </trkpt>
      <trkpt lat="41.19221" lon="19.5534">
        <ele>17.272488</ele>
        <time>2022-02-24T23:55:17.677Z</time>
      </trkpt>
      <trkpt lat="41.19255" lon="19.55308">
        <ele>16.848783</ele>
        <time>2022-02-24T23:55:27.022Z</time>
      </trkpt>
      <trkpt lat="41.19279" lon="19.55284">
        <ele>16.532752</ele>
        <time>2022-02-24T23:55:34.051Z</time>
      </trkpt>
      <trkpt lat="41.19283" lon="19.55281">
        <ele>16.486462</ele>
        <time>2022-02-24T23:55:35.087Z</time>
      </trkpt>
      <trkpt lat="41.19312" lon="19.55254">
        <ele>16.107125</ele>
        <time>2022-02-24T23:55:43.493Z</time>
      </trkpt>
      <trkpt lat="41.1934" lon="19.55227">
        <ele>15.74291</ele>
        <time>2022-02-24T23:55:51.523Z</time>
      </trkpt>
      <trkpt lat="41.19347" lon="19.55219">
        <ele>15.645083</ele>
        <time>2022-02-24T23:55:53.635Z</time>
      </trkpt>
      <trkpt lat="41.19437" lon="19.55138">
        <ele>14.495862</ele>
        <time>2022-02-24T23:56:18.486Z</time>
      </trkpt>
      <trkpt lat="41.19444" lon="19.55132">
        <ele>14.41312</ele>
        <time>2022-02-24T23:56:20.283Z</time>
      </trkpt>
      <trkpt lat="41.19459" lon="19.55116">
        <ele>14.203778</ele>
        <time>2022-02-24T23:56:24.800Z</time>
      </trkpt>
      <trkpt lat="41.19503" lon="19.55064">
        <ele>13.581499</ele>
        <time>2022-02-24T23:56:38.294Z</time>
      </trkpt>
      <trkpt lat="41.19516" lon="19.55042">
        <ele>13.357169</ele>
        <time>2022-02-24T23:56:43.193Z</time>
      </trkpt>
      <trkpt lat="41.1953" lon="19.5502">
        <ele>13.132128</ele>
        <time>2022-02-24T23:56:48.176Z</time>
      </trkpt>
      <trkpt lat="41.1954" lon="19.55003">
        <ele>12.955943</ele>
        <time>2022-02-24T23:56:51.975Z</time>
      </trkpt>
      <trkpt lat="41.19573" lon="19.54948">
        <ele>12.537741</ele>
        <time>2022-02-24T23:57:04.184Z</time>
      </trkpt>
      <trkpt lat="41.19583" lon="19.5493">
        <ele>12.457872</ele>
        <time>2022-02-24T23:57:07.967Z</time>
      </trkpt>
      <trkpt lat="41.19593" lon="19.54915">
        <ele>12.381384</ele>
        <time>2022-02-24T23:57:11.764Z</time>
      </trkpt>
      <trkpt lat="41.19595" lon="19.54915">
        <ele>12.37064</ele>
        <time>2022-02-24T23:57:12.337Z</time>
      </trkpt>
      <trkpt lat="41.19601" lon="19.54911">
        <ele>12.33878</ele>
        <time>2022-02-24T23:57:13.876Z</time>
      </trkpt>
      <trkpt lat="41.19603" lon="19.54909">
        <ele>12.328192</ele>
        <time>2022-02-24T23:57:14.424Z</time>
      </trkpt>
      <trkpt lat="41.19604" lon="19.54907">
        <ele>12.317231</ele>
        <time>2022-02-24T23:57:14.958Z</time>
      </trkpt>
      <trkpt lat="41.19604" lon="19.54904">
        <ele>12.306533</ele>
        <time>2022-02-24T23:57:15.470Z</time>
      </trkpt>
      <trkpt lat="41.19605" lon="19.54901">
        <ele>12.295831</ele>
        <time>2022-02-24T23:57:16.001Z</time>
      </trkpt>
      <trkpt lat="41.19619" lon="19.54876">
        <ele>12.182195</ele>
        <time>2022-02-24T23:57:21.844Z</time>
      </trkpt>
      <trkpt lat="41.19655" lon="19.54818">
        <ele>11.905001</ele>
        <time>2022-02-24T23:57:36.341Z</time>
      </trkpt>
      <trkpt lat="41.19711" lon="19.54726">
        <ele>11.656137</ele>
        <time>2022-02-24T23:57:59.786Z</time>
      </trkpt>
      <trkpt lat="41.19777" lon="19.54618">
        <ele>11.457373</ele>
        <time>2022-02-24T23:58:26.736Z</time>
      </trkpt>
      <trkpt lat="41.20018" lon="19.5422">
        <ele>10.152955</ele>
        <time>2022-02-25T00:00:03.558Z</time>
      </trkpt>
      <trkpt lat="41.20053" lon="19.54164">
        <ele>9.890896</ele>
        <time>2022-02-25T00:00:17.351Z</time>
      </trkpt>
      <trkpt lat="41.20055" lon="19.5416">
        <ele>9.873389</ele>
        <time>2022-02-25T00:00:18.273Z</time>
      </trkpt>
      <trkpt lat="41.20078" lon="19.54123">
        <ele>9.702337</ele>
        <time>2022-02-25T00:00:27.225Z</time>
      </trkpt>
      <trkpt lat="41.20083" lon="19.54114">
        <ele>9.66329</ele>
        <time>2022-02-25T00:00:29.293Z</time>
      </trkpt>
      <trkpt lat="41.20091" lon="19.54101">
        <ele>9.602766</ele>
        <time>2022-02-25T00:00:32.438Z</time>
      </trkpt>
      <trkpt lat="41.20106" lon="19.54071">
        <ele>9.472197</ele>
        <time>2022-02-25T00:00:39.205Z</time>
      </trkpt>
      <trkpt lat="41.20234" lon="19.53868">
        <ele>7.99969</ele>
        <time>2022-02-25T00:01:26.409Z</time>
      </trkpt>
      <trkpt lat="41.20293" lon="19.53761">
        <ele>7.575285</ele>
        <time>2022-02-25T00:01:49.969Z</time>
      </trkpt>
      <trkpt lat="41.20299" lon="19.5375">
        <ele>7.533162</ele>
        <time>2022-02-25T00:01:52.637Z</time>
      </trkpt>
      <trkpt lat="41.20319" lon="19.53712">
        <ele>7.392447</ele>
        <time>2022-02-25T00:02:01.716Z</time>
      </trkpt>
      <trkpt lat="41.20331" lon="19.5369">
        <ele>7.309132</ele>
        <time>2022-02-25T00:02:07.192Z</time>
      </trkpt>
      <trkpt lat="41.20375" lon="19.53615">
        <ele>7.341764</ele>
        <time>2022-02-25T00:02:27.517Z</time>
      </trkpt>
      <trkpt lat="41.20382" lon="19.53603">
        <ele>7.367148</ele>
        <time>2022-02-25T00:02:30.821Z</time>
      </trkpt>
      <trkpt lat="41.20386" lon="19.53605">
        <ele>7.377117</ele>
        <time>2022-02-25T00:02:32.162Z</time>
      </trkpt>
      <trkpt lat="41.20395" lon="19.53603">
        <ele>7.397161</ele>
        <time>2022-02-25T00:02:34.535Z</time>
      </trkpt>
      <trkpt lat="41.20402" lon="19.53594">
        <ele>7.417139</ele>
        <time>2022-02-25T00:02:37.018Z</time>
      </trkpt>
      <trkpt lat="41.20403" lon="19.53588">
        <ele>7.427145</ele>
        <time>2022-02-25T00:02:38.530Z</time>
      </trkpt>
      <trkpt lat="41.2041" lon="19.53581">
        <ele>7.446828</ele>
        <time>2022-02-25T00:02:41.071Z</time>
      </trkpt>
      <trkpt lat="41.20416" lon="19.53575">
        <ele>7.462952</ele>
        <time>2022-02-25T00:02:43.078Z</time>
      </trkpt>
      <trkpt lat="41.20426" lon="19.53563">
        <ele>7.492558</ele>
        <time>2022-02-25T00:02:46.731Z</time>
      </trkpt>
      <trkpt lat="41.20464" lon="19.53538">
        <ele>7.584431</ele>
        <time>2022-02-25T00:02:58.711Z</time>
      </trkpt>
      <trkpt lat="41.20493" lon="19.53522">
        <ele>7.540833</ele>
        <time>2022-02-25T00:03:07.249Z</time>
      </trkpt>
      <trkpt lat="41.20515" lon="19.53511">
        <ele>7.412377</ele>
        <time>2022-02-25T00:03:13.557Z</time>
      </trkpt>
      <trkpt lat="41.20523" lon="19.53508">
        <ele>7.369306</ele>
        <time>2022-02-25T00:03:15.550Z</time>
      </trkpt>
      <trkpt lat="41.20551" lon="19.53498">
        <ele>7.209013</ele>
        <time>2022-02-25T00:03:23.000Z</time>
      </trkpt>
      <trkpt lat="41.20592" lon="19.53506">
        <ele>6.979894</ele>
        <time>2022-02-25T00:03:32.943Z</time>
      </trkpt>
      <trkpt lat="41.20608" lon="19.53489">
        <ele>6.870339</ele>
        <time>2022-02-25T00:03:37.334Z</time>
      </trkpt>
      <trkpt lat="41.20613" lon="19.53465">
        <ele>6.765054</ele>
        <time>2022-02-25T00:03:41.636Z</time>
      </trkpt>
      <trkpt lat="41.20612" lon="19.53455">
        <ele>6.724681</ele>
        <time>2022-02-25T00:03:43.346Z</time>
      </trkpt>
      <trkpt lat="41.20601" lon="19.53409">
        <ele>6.56169</ele>
        <time>2022-02-25T00:03:51.916Z</time>
      </trkpt>
      <trkpt lat="41.20599" lon="19.534">
        <ele>6.535936</ele>
        <time>2022-02-25T00:03:53.537Z</time>
      </trkpt>
      <trkpt lat="41.20591" lon="19.53382">
        <ele>6.479935</ele>
        <time>2022-02-25T00:03:57.496Z</time>
      </trkpt>
      <trkpt lat="41.2058" lon="19.53372">
        <ele>6.43082</ele>
        <time>2022-02-25T00:04:00.886Z</time>
      </trkpt>
      <trkpt lat="41.20576" lon="19.53371">
        <ele>6.415689</ele>
        <time>2022-02-25T00:04:01.812Z</time>
      </trkpt>
      <trkpt lat="41.20565" lon="19.53367">
        <ele>6.373864</ele>
        <time>2022-02-25T00:04:04.714Z</time>
      </trkpt>
      <trkpt lat="41.20555" lon="19.53362">
        <ele>6.3384</ele>
        <time>2022-02-25T00:04:07.275Z</time>
      </trkpt>
      <trkpt lat="41.20551" lon="19.5336">
        <ele>6.320757</ele>
        <time>2022-02-25T00:04:08.427Z</time>
      </trkpt>
      <trkpt lat="41.2055" lon="19.53357">
        <ele>6.312705</ele>
        <time>2022-02-25T00:04:08.930Z</time>
      </trkpt>
      <trkpt lat="41.20548" lon="19.53355">
        <ele>6.304492</ele>
        <time>2022-02-25T00:04:09.635Z</time>
      </trkpt>
      <trkpt lat="41.20546" lon="19.53354">
        <ele>6.296504</ele>
        <time>2022-02-25T00:04:10.286Z</time>
      </trkpt>
      <trkpt lat="41.20545" lon="19.53347">
        <ele>6.277554</ele>
        <time>2022-02-25T00:04:11.465Z</time>
      </trkpt>
      <trkpt lat="41.20548" lon="19.53324">
        <ele>6.215754</ele>
        <time>2022-02-25T00:04:16.036Z</time>
      </trkpt>
      <trkpt lat="41.20552" lon="19.53313">
        <ele>6.180559</ele>
        <time>2022-02-25T00:04:18.363Z</time>
      </trkpt>
      <trkpt lat="41.20554" lon="19.5331">
        <ele>6.168906</ele>
        <time>2022-02-25T00:04:19.454Z</time>
      </trkpt>
      <trkpt lat="41.20572" lon="19.53304">
        <ele>6.101639</ele>
        <time>2022-02-25T00:04:24.184Z</time>
      </trkpt>
      <trkpt lat="41.20587" lon="19.53311">
        <ele>6.044038</ele>
        <time>2022-02-25T00:04:28.451Z</time>
      </trkpt>
      <trkpt lat="41.20595" lon="19.53327">
        <ele>5.991495</ele>
        <time>2022-02-25T00:04:32.310Z</time>
      </trkpt>
      <trkpt lat="41.20612" lon="19.53395">
        <ele>6.211408</ele>
        <time>2022-02-25T00:04:47.242Z</time>
      </trkpt>
      <trkpt lat="41.20621" lon="19.53411">
        <ele>6.280052</ele>
        <time>2022-02-25T00:04:51.747Z</time>
      </trkpt>
      <trkpt lat="41.20634" lon="19.53417">
        <ele>6.342921</ele>
        <time>2022-02-25T00:04:55.885Z</time>
      </trkpt>
      <trkpt lat="41.20769" lon="19.53391">
        <ele>6.90071</ele>
        <time>2022-02-25T00:05:36.133Z</time>
      </trkpt>
      <trkpt lat="41.20813" lon="19.53378">
        <ele>7.035633</ele>
        <time>2022-02-25T00:05:49.187Z</time>
      </trkpt>
      <trkpt lat="41.20825" lon="19.53374">
        <ele>7.0746</ele>
        <time>2022-02-25T00:05:52.837Z</time>
      </trkpt>
      <trkpt lat="41.20918" lon="19.5334">
        <ele>7.319706</ele>
        <time>2022-02-25T00:06:18.798Z</time>
      </trkpt>
      <trkpt lat="41.20925" lon="19.53337">
        <ele>7.30967</ele>
        <time>2022-02-25T00:06:20.871Z</time>
      </trkpt>
      <trkpt lat="41.20967" lon="19.5332">
        <ele>7.256301</ele>
        <time>2022-02-25T00:06:32.023Z</time>
      </trkpt>
      <trkpt lat="41.20983" lon="19.53314">
        <ele>7.234973</ele>
        <time>2022-02-25T00:06:36.407Z</time>
      </trkpt>
      <trkpt lat="41.21" lon="19.53306">
        <ele>7.212728</ele>
        <time>2022-02-25T00:06:41.119Z</time>
      </trkpt>
      <trkpt lat="41.21058" lon="19.53282">
        <ele>7.137918</ele>
        <time>2022-02-25T00:06:56.839Z</time>
      </trkpt>
      <trkpt lat="41.21368" lon="19.53154">
        <ele>6.742843</ele>
        <time>2022-02-25T00:08:22.867Z</time>
      </trkpt>
      <trkpt lat="41.21378" lon="19.5315">
        <ele>6.716682</ele>
        <time>2022-02-25T00:08:25.553Z</time>
      </trkpt>
      <trkpt lat="41.21375" lon="19.53136">
        <ele>6.690762</ele>
        <time>2022-02-25T00:08:28.159Z</time>
      </trkpt>
      <trkpt lat="41.21369" lon="19.53113">
        <ele>6.645326</ele>
        <time>2022-02-25T00:08:32.708Z</time>
      </trkpt>
      <trkpt lat="41.21365" lon="19.531">
        <ele>6.619429</ele>
        <time>2022-02-25T00:08:35.279Z</time>
      </trkpt>
      <trkpt lat="41.21377" lon="19.5309">
        <ele>6.554051</ele>
        <time>2022-02-25T00:08:38.725Z</time>
      </trkpt>
      <trkpt lat="41.21412" lon="19.53061">
        <ele>6.293967</ele>
        <time>2022-02-25T00:08:48.456Z</time>
      </trkpt>
      <trkpt lat="41.21458" lon="19.53022">
        <ele>5.943089</ele>
        <time>2022-02-25T00:09:01.454Z</time>
      </trkpt>
      <trkpt lat="41.21492" lon="19.52993">
        <ele>5.68647</ele>
        <time>2022-02-25T00:09:10.928Z</time>
      </trkpt>
      <trkpt lat="41.21952" lon="19.52613">
        <ele>4.207923</ele>
        <time>2022-02-25T00:11:29.889Z</time>
      </trkpt>
      <trkpt lat="41.21959" lon="19.52608">
        <ele>4.189946</ele>
        <time>2022-02-25T00:11:32.009Z</time>
      </trkpt>
      <trkpt lat="41.22032" lon="19.52545">
        <ele>3.875276</ele>
        <time>2022-02-25T00:11:54.214Z</time>
      </trkpt>
      <trkpt lat="41.22128" lon="19.52459">
        <ele>3.397543</ele>
        <time>2022-02-25T00:12:22.901Z</time>
      </trkpt>
      <trkpt lat="41.22288" lon="19.52365">
        <ele>2.506396</ele>
        <time>2022-02-25T00:13:05.816Z</time>
      </trkpt>
      <trkpt lat="41.22346" lon="19.52329">
        <ele>2.153736</ele>
        <time>2022-02-25T00:13:21.663Z</time>
      </trkpt>
      <trkpt lat="41.2236" lon="19.52321">
        <ele>2.072097</ele>
        <time>2022-02-25T00:13:25.275Z</time>
      </trkpt>
      <trkpt lat="41.22513" lon="19.52216">
        <ele>1.020566</ele>
        <time>2022-02-25T00:14:07.234Z</time>
      </trkpt>
      <trkpt lat="41.22527" lon="19.52207">
        <ele>0.904268</ele>
        <time>2022-02-25T00:14:11.231Z</time>
      </trkpt>
      <trkpt lat="41.22527" lon="19.52204">
        <ele>0.885674</ele>
        <time>2022-02-25T00:14:11.797Z</time>
      </trkpt>
      <trkpt lat="41.22509" lon="19.52143">
        <ele>0.537021</ele>
        <time>2022-02-25T00:14:23.570Z</time>
      </trkpt>
      <trkpt lat="41.22507" lon="19.51998">
        <ele>-0.165803</ele>
        <time>2022-02-25T00:14:49.171Z</time>
      </trkpt>
      <trkpt lat="41.22504" lon="19.51982">
        <ele>-0.239691</ele>
        <time>2022-02-25T00:14:52.032Z</time>
      </trkpt>
      <trkpt lat="41.22509" lon="19.5198">
        <ele>-0.268112</ele>
        <time>2022-02-25T00:14:53.200Z</time>
      </trkpt>
      <trkpt lat="41.22533" lon="19.51967">
        <ele>-0.422706</ele>
        <time>2022-02-25T00:14:59.445Z</time>
      </trkpt>
      <trkpt lat="41.22613" lon="19.51847">
        <ele>-0.880178</ele>
        <time>2022-02-25T00:15:29.557Z</time>
      </trkpt>
      <trkpt lat="41.22651" lon="19.5179">
        <ele>-0.873742</ele>
        <time>2022-02-25T00:15:45.275Z</time>
      </trkpt>
      <trkpt lat="41.22655" lon="19.51795">
        <ele>-0.873088</ele>
        <time>2022-02-25T00:15:46.992Z</time>
      </trkpt>
      <trkpt lat="41.2266" lon="19.51798">
        <ele>-0.872491</ele>
        <time>2022-02-25T00:15:48.415Z</time>
      </trkpt>
      <trkpt lat="41.22683" lon="19.5181">
        <ele>-0.869756</ele>
        <time>2022-02-25T00:15:55.123Z</time>
      </trkpt>
      <trkpt lat="41.22717" lon="19.51829">
        <ele>-0.865565</ele>
        <time>2022-02-25T00:16:05.520Z</time>
      </trkpt>
      <trkpt lat="41.22753" lon="19.51843">
        <ele>-0.79851</ele>
        <time>2022-02-25T00:16:16.001Z</time>
      </trkpt>
      <trkpt lat="41.2285" lon="19.5189">
        <ele>-0.576925</ele>
        <time>2022-02-25T00:16:44.674Z</time>
      </trkpt>
      <trkpt lat="41.22979" lon="19.51943">
        <ele>-0.303164</ele>
        <time>2022-02-25T00:17:21.108Z</time>
      </trkpt>
      <trkpt lat="41.2301" lon="19.51966">
        <ele>-0.232769</ele>
        <time>2022-02-25T00:17:31.064Z</time>
      </trkpt>
      <trkpt lat="41.23023" lon="19.51973">
        <ele>-0.206353</ele>
        <time>2022-02-25T00:17:34.757Z</time>
      </trkpt>
      <trkpt lat="41.2305" lon="19.51973">
        <ele>-0.153215</ele>
        <time>2022-02-25T00:17:42.710Z</time>
      </trkpt>
      <trkpt lat="41.23102" lon="19.51971">
        <ele>0.005354</ele>
        <time>2022-02-25T00:17:57.405Z</time>
      </trkpt>
      <trkpt lat="41.23173" lon="19.51959">
        <ele>0.254135</ele>
        <time>2022-02-25T00:18:17.832Z</time>
      </trkpt>
      <trkpt lat="41.23188" lon="19.51955">
        <ele>0.308076</ele>
        <time>2022-02-25T00:18:22.536Z</time>
      </trkpt>
      <trkpt lat="41.23198" lon="19.51966">
        <ele>0.352519</ele>
        <time>2022-02-25T00:18:26.074Z</time>
      </trkpt>
      <trkpt lat="41.23198" lon="19.5197">
        <ele>0.36294</ele>
        <time>2022-02-25T00:18:26.842Z</time>
      </trkpt>
      <trkpt lat="41.23199" lon="19.51974">
        <ele>0.373128</ele>
        <time>2022-02-25T00:18:27.652Z</time>
      </trkpt>
      <trkpt lat="41.232" lon="19.51977">
        <ele>0.383451</ele>
        <time>2022-02-25T00:18:28.458Z</time>
      </trkpt>
      <trkpt lat="41.23203" lon="19.51981">
        <ele>0.395466</ele>
        <time>2022-02-25T00:18:29.473Z</time>
      </trkpt>
      <trkpt lat="41.23216" lon="19.5198">
        <ele>0.440554</ele>
        <time>2022-02-25T00:18:33.134Z</time>
      </trkpt>
      <trkpt lat="41.23218" lon="19.51976">
        <ele>0.452432</ele>
        <time>2022-02-25T00:18:34.058Z</time>
      </trkpt>
      <trkpt lat="41.23219" lon="19.51972">
        <ele>0.46255</ele>
        <time>2022-02-25T00:18:34.838Z</time>
      </trkpt>
      <trkpt lat="41.2322" lon="19.51969">
        <ele>0.472542</ele>
        <time>2022-02-25T00:18:35.639Z</time>
      </trkpt>
      <trkpt lat="41.23222" lon="19.5196">
        <ele>0.497079</ele>
        <time>2022-02-25T00:18:37.474Z</time>
      </trkpt>
      <trkpt lat="41.23224" lon="19.51949">
        <ele>0.532129</ele>
        <time>2022-02-25T00:18:39.709Z</time>
      </trkpt>
      <trkpt lat="41.23226" lon="19.51936">
        <ele>0.577273</ele>
        <time>2022-02-25T00:18:42.572Z</time>
      </trkpt>
      <trkpt lat="41.23228" lon="19.51927">
        <ele>0.608409</ele>
        <time>2022-02-25T00:18:44.423Z</time>
      </trkpt>
      <trkpt lat="41.23269" lon="19.51641">
        <ele>1.960906</ele>
        <time>2022-02-25T00:19:48.100Z</time>
      </trkpt>
      <trkpt lat="41.23297" lon="19.51647">
        <ele>2.247619</ele>
        <time>2022-02-25T00:19:57.582Z</time>
      </trkpt>
      <trkpt lat="41.23417" lon="19.51697">
        <ele>3.334565</ele>
        <time>2022-02-25T00:20:39.384Z</time>
      </trkpt>
      <trkpt lat="41.23435" lon="19.51705">
        <ele>3.420252</ele>
        <time>2022-02-25T00:20:45.897Z</time>
      </trkpt>
      <trkpt lat="41.23441" lon="19.51708">
        <ele>3.449833</ele>
        <time>2022-02-25T00:20:47.626Z</time>
      </trkpt>
      <trkpt lat="41.23465" lon="19.51616">
        <ele>3.787687</ele>
        <time>2022-02-25T00:21:08.463Z</time>
      </trkpt>
      <trkpt lat="41.23482" lon="19.51621">
        <ele>3.865062</ele>
        <time>2022-02-25T00:21:12.827Z</time>
      </trkpt>
      <trkpt lat="41.23485" lon="19.51623">
        <ele>3.883509</ele>
        <time>2022-02-25T00:21:13.923Z</time>
      </trkpt>
      <trkpt lat="41.23526" lon="19.51641">
        <ele>3.877264</ele>
        <time>2022-02-25T00:21:25.088Z</time>
      </trkpt>
      <trkpt lat="41.23554" lon="19.51652">
        <ele>3.720861</ele>
        <time>2022-02-25T00:21:32.361Z</time>
      </trkpt>
      <trkpt lat="41.23608" lon="19.51676">
        <ele>3.417727</ele>
        <time>2022-02-25T00:21:46.376Z</time>
      </trkpt>
      <trkpt lat="41.23713" lon="19.51719">
        <ele>2.895298</ele>
        <time>2022-02-25T00:22:12.174Z</time>
      </trkpt>
      <trkpt lat="41.23755" lon="19.51737">
        <ele>2.734374</ele>
        <time>2022-02-25T00:22:23.283Z</time>
      </trkpt>
      <trkpt lat="41.23797" lon="19.5175">
        <ele>2.57935</ele>
        <time>2022-02-25T00:22:34.430Z</time>
      </trkpt>
      <trkpt lat="41.23828" lon="19.51754">
        <ele>2.466477</ele>
        <time>2022-02-25T00:22:42.717Z</time>
      </trkpt>
      <trkpt lat="41.23832" lon="19.51755">
        <ele>2.452013</ele>
        <time>2022-02-25T00:22:43.673Z</time>
      </trkpt>
      <trkpt lat="41.23855" lon="19.51755">
        <ele>2.381247</ele>
        <time>2022-02-25T00:22:49.708Z</time>
      </trkpt>
      <trkpt lat="41.23864" lon="19.51753">
        <ele>2.392798</ele>
        <time>2022-02-25T00:22:52.006Z</time>
      </trkpt>
      <trkpt lat="41.23875" lon="19.51752">
        <ele>2.407686</ele>
        <time>2022-02-25T00:22:54.721Z</time>
      </trkpt>
      <trkpt lat="41.23889" lon="19.51753">
        <ele>2.427054</ele>
        <time>2022-02-25T00:22:58.367Z</time>
      </trkpt>
      <trkpt lat="41.23895" lon="19.51754">
        <ele>2.434694</ele>
        <time>2022-02-25T00:23:00.158Z</time>
      </trkpt>
      <trkpt lat="41.23951" lon="19.51763">
        <ele>2.512105</ele>
        <time>2022-02-25T00:23:15.709Z</time>
      </trkpt>
      <trkpt lat="41.24004" lon="19.51775">
        <ele>2.585841</ele>
        <time>2022-02-25T00:23:31.379Z</time>
      </trkpt>
      <trkpt lat="41.24061" lon="19.51792">
        <ele>2.487103</ele>
        <time>2022-02-25T00:23:47.117Z</time>
      </trkpt>
      <trkpt lat="41.24094" lon="19.51803">
        <ele>2.33766</ele>
        <time>2022-02-25T00:23:55.925Z</time>
      </trkpt>
      <trkpt lat="41.241" lon="19.51806">
        <ele>2.30711</ele>
        <time>2022-02-25T00:23:57.538Z</time>
      </trkpt>
      <trkpt lat="41.24117" lon="19.51812">
        <ele>2.229229</ele>
        <time>2022-02-25T00:24:01.914Z</time>
      </trkpt>
      <trkpt lat="41.24153" lon="19.51826">
        <ele>2.064812</ele>
        <time>2022-02-25T00:24:10.982Z</time>
      </trkpt>
      <trkpt lat="41.24172" lon="19.51832">
        <ele>1.979286</ele>
        <time>2022-02-25T00:24:15.556Z</time>
      </trkpt>
      <trkpt lat="41.24233" lon="19.5185">
        <ele>1.574676</ele>
        <time>2022-02-25T00:24:30.470Z</time>
      </trkpt>
      <trkpt lat="41.24252" lon="19.5186">
        <ele>1.387506</ele>
        <time>2022-02-25T00:24:34.987Z</time>
      </trkpt>
      <trkpt lat="41.24353" lon="19.51888">
        <ele>0.457264</ele>
        <time>2022-02-25T00:24:58.776Z</time>
      </trkpt>
      <trkpt lat="41.2436" lon="19.51889">
        <ele>0.389003</ele>
        <time>2022-02-25T00:25:00.598Z</time>
      </trkpt>
      <trkpt lat="41.24374" lon="19.51893">
        <ele>0.262301</ele>
        <time>2022-02-25T00:25:04.245Z</time>
      </trkpt>
      <trkpt lat="41.24394" lon="19.51896">
        <ele>0.144029</ele>
        <time>2022-02-25T00:25:08.779Z</time>
      </trkpt>
      <trkpt lat="41.2448" lon="19.5191">
        <ele>-0.243483</ele>
        <time>2022-02-25T00:25:30.592Z</time>
      </trkpt>
      <trkpt lat="41.24486" lon="19.51911">
        <ele>-0.271447</ele>
        <time>2022-02-25T00:25:31.957Z</time>
      </trkpt>
      <trkpt lat="41.24516" lon="19.51917">
        <ele>-0.403221</ele>
        <time>2022-02-25T00:25:39.529Z</time>
      </trkpt>
      <trkpt lat="41.24541" lon="19.51924">
        <ele>-0.517987</ele>
        <time>2022-02-25T00:25:45.738Z</time>
      </trkpt>
      <trkpt lat="41.24553" lon="19.51927">
        <ele>-0.572484</ele>
        <time>2022-02-25T00:25:48.918Z</time>
      </trkpt>
      <trkpt lat="41.24582" lon="19.51937">
        <ele>-0.552705</ele>
        <time>2022-02-25T00:25:57.061Z</time>
      </trkpt>
      <trkpt lat="41.24591" lon="19.51941">
        <ele>-0.535774</ele>
        <time>2022-02-25T00:25:59.410Z</time>
      </trkpt>
      <trkpt lat="41.24601" lon="19.51945">
        <ele>-0.517874</ele>
        <time>2022-02-25T00:26:02.211Z</time>
      </trkpt>
      <trkpt lat="41.24608" lon="19.51948">
        <ele>-0.505114</ele>
        <time>2022-02-25T00:26:04.255Z</time>
      </trkpt>
      <trkpt lat="41.24645" lon="19.51962">
        <ele>-0.435911</ele>
        <time>2022-02-25T00:26:15.033Z</time>
      </trkpt>
      <trkpt lat="41.24685" lon="19.51979">
        <ele>-0.361535</ele>
        <time>2022-02-25T00:26:26.845Z</time>
      </trkpt>
      <trkpt lat="41.2471" lon="19.51992">
        <ele>-0.314299</ele>
        <time>2022-02-25T00:26:34.283Z</time>
      </trkpt>
      <trkpt lat="41.24736" lon="19.52005">
        <ele>-0.246359</ele>
        <time>2022-02-25T00:26:42.116Z</time>
      </trkpt>
      <trkpt lat="41.24744" lon="19.52012">
        <ele>-0.20155</ele>
        <time>2022-02-25T00:26:44.917Z</time>
      </trkpt>
      <trkpt lat="41.24742" lon="19.52015">
        <ele>-0.189282</ele>
        <time>2022-02-25T00:26:45.727Z</time>
      </trkpt>
      <trkpt lat="41.2474" lon="19.52033">
        <ele>-0.127339</ele>
        <time>2022-02-25T00:26:49.582Z</time>
      </trkpt>
      <trkpt lat="41.24743" lon="19.5205">
        <ele>-0.065446</ele>
        <time>2022-02-25T00:26:53.500Z</time>
      </trkpt>
      <trkpt lat="41.24759" lon="19.5207">
        <ele>0.036521</ele>
        <time>2022-02-25T00:27:00.007Z</time>
      </trkpt>
      <trkpt lat="41.24761" lon="19.52071">
        <ele>0.046987</ele>
        <time>2022-02-25T00:27:00.698Z</time>
      </trkpt>
      <trkpt lat="41.24764" lon="19.52072">
        <ele>0.057331</ele>
        <time>2022-02-25T00:27:01.322Z</time>
      </trkpt>
      <trkpt lat="41.24772" lon="19.52074">
        <ele>0.098979</ele>
        <time>2022-02-25T00:27:03.974Z</time>
      </trkpt>
      <trkpt lat="41.24775" lon="19.52074">
        <ele>0.110131</ele>
        <time>2022-02-25T00:27:04.660Z</time>
      </trkpt>
      <trkpt lat="41.24777" lon="19.52073">
        <ele>0.119925</ele>
        <time>2022-02-25T00:27:05.256Z</time>
      </trkpt>
      <trkpt lat="41.24789" lon="19.52067">
        <ele>0.181671</ele>
        <time>2022-02-25T00:27:09.279Z</time>
      </trkpt>
      <trkpt lat="41.24799" lon="19.52055">
        <ele>0.243729</ele>
        <time>2022-02-25T00:27:13.156Z</time>
      </trkpt>
      <trkpt lat="41.248" lon="19.52053">
        <ele>0.249653</ele>
        <time>2022-02-25T00:27:13.521Z</time>
      </trkpt>
      <trkpt lat="41.24802" lon="19.52055">
        <ele>0.262534</ele>
        <time>2022-02-25T00:27:14.384Z</time>
      </trkpt>
      <trkpt lat="41.24823" lon="19.52058">
        <ele>0.361323</ele>
        <time>2022-02-25T00:27:20.549Z</time>
      </trkpt>
      <trkpt lat="41.24837" lon="19.5206">
        <ele>0.42378</ele>
        <time>2022-02-25T00:27:24.278Z</time>
      </trkpt>
      <trkpt lat="41.24887" lon="19.52065">
        <ele>0.725466</ele>
        <time>2022-02-25T00:27:38.341Z</time>
      </trkpt>
      <trkpt lat="41.2489" lon="19.52065">
        <ele>0.75136</ele>
        <time>2022-02-25T00:27:39.376Z</time>
      </trkpt>
      <trkpt lat="41.24931" lon="19.52069">
        <ele>1.069784</ele>
        <time>2022-02-25T00:27:51.059Z</time>
      </trkpt>
      <trkpt lat="41.24965" lon="19.52073">
        <ele>1.33631</ele>
        <time>2022-02-25T00:28:01.649Z</time>
      </trkpt>
      <trkpt lat="41.24969" lon="19.52073">
        <ele>1.372445</ele>
        <time>2022-02-25T00:28:03.005Z</time>
      </trkpt>
      <trkpt lat="41.2501" lon="19.52078">
        <ele>1.690383</ele>
        <time>2022-02-25T00:28:15.967Z</time>
      </trkpt>
      <trkpt lat="41.25016" lon="19.52078">
        <ele>1.743844</ele>
        <time>2022-02-25T00:28:18.122Z</time>
      </trkpt>
      <trkpt lat="41.2502" lon="19.52079">
        <ele>1.773776</ele>
        <time>2022-02-25T00:28:19.312Z</time>
      </trkpt>
      <trkpt lat="41.25031" lon="19.5208">
        <ele>1.857217</ele>
        <time>2022-02-25T00:28:22.760Z</time>
      </trkpt>
      <trkpt lat="41.25064" lon="19.52086">
        <ele>2.113198</ele>
        <time>2022-02-25T00:28:33.371Z</time>
      </trkpt>
      <trkpt lat="41.25086" lon="19.5209">
        <ele>2.282473</ele>
        <time>2022-02-25T00:28:40.524Z</time>
      </trkpt>
      <trkpt lat="41.25127" lon="19.52093">
        <ele>2.593327</ele>
        <time>2022-02-25T00:28:53.181Z</time>
      </trkpt>
      <trkpt lat="41.25142" lon="19.52094">
        <ele>2.713662</ele>
        <time>2022-02-25T00:28:58.025Z</time>
      </trkpt>
      <trkpt lat="41.25155" lon="19.52095">
        <ele>2.806538</ele>
        <time>2022-02-25T00:29:01.816Z</time>
      </trkpt>
      <trkpt lat="41.25193" lon="19.52099">
        <ele>3.101101</ele>
        <time>2022-02-25T00:29:13.478Z</time>
      </trkpt>
      <trkpt lat="41.25227" lon="19.52101">
        <ele>3.329102</ele>
        <time>2022-02-25T00:29:23.121Z</time>
      </trkpt>
      <trkpt lat="41.25241" lon="19.52101">
        <ele>3.303313</ele>
        <time>2022-02-25T00:29:26.957Z</time>
      </trkpt>
      <trkpt lat="41.25256" lon="19.52098">
        <ele>3.273103</ele>
        <time>2022-02-25T00:29:31.077Z</time>
      </trkpt>
      <trkpt lat="41.25302" lon="19.52086">
        <ele>3.185093</ele>
        <time>2022-02-25T00:29:43.336Z</time>
      </trkpt>
      <trkpt lat="41.25309" lon="19.52084">
        <ele>3.171375</ele>
        <time>2022-02-25T00:29:45.090Z</time>
      </trkpt>
      <trkpt lat="41.25317" lon="19.52084">
        <ele>3.157231</ele>
        <time>2022-02-25T00:29:47.621Z</time>
      </trkpt>
      <trkpt lat="41.25337" lon="19.52081">
        <ele>3.119842</ele>
        <time>2022-02-25T00:29:54.321Z</time>
      </trkpt>
      <trkpt lat="41.25365" lon="19.52077">
        <ele>3.066699</ele>
        <time>2022-02-25T00:30:03.569Z</time>
      </trkpt>
      <trkpt lat="41.25396" lon="19.52074">
        <ele>3.007252</ele>
        <time>2022-02-25T00:30:13.990Z</time>
      </trkpt>
      <trkpt lat="41.25445" lon="19.52073">
        <ele>2.940666</ele>
        <time>2022-02-25T00:30:34.807Z</time>
      </trkpt>
      <trkpt lat="41.25555" lon="19.52077">
        <ele>2.797275</ele>
        <time>2022-02-25T00:31:23.532Z</time>
      </trkpt>
      <trkpt lat="41.2558" lon="19.52065">
        <ele>2.762569</ele>
        <time>2022-02-25T00:31:35.608Z</time>
      </trkpt>
      <trkpt lat="41.25632" lon="19.52056">
        <ele>2.686185</ele>
        <time>2022-02-25T00:31:59.132Z</time>
      </trkpt>
      <trkpt lat="41.25709" lon="19.52056">
        <ele>2.575119</ele>
        <time>2022-02-25T00:32:32.726Z</time>
      </trkpt>
      <trkpt lat="41.25718" lon="19.52059">
        <ele>2.56193</ele>
        <time>2022-02-25T00:32:36.517Z</time>
      </trkpt>
      <trkpt lat="41.25736" lon="19.5208">
        <ele>2.527613</ele>
        <time>2022-02-25T00:32:46.865Z</time>
      </trkpt>
      <trkpt lat="41.25738" lon="19.5208">
        <ele>2.52354</ele>
        <time>2022-02-25T00:32:48.149Z</time>
      </trkpt>
      <trkpt lat="41.25743" lon="19.5208">
        <ele>2.516848</ele>
        <time>2022-02-25T00:32:50.000Z</time>
      </trkpt>
      <trkpt lat="41.2594" lon="19.52077">
        <ele>1.999755</ele>
        <time>2022-02-25T00:34:15.029Z</time>
      </trkpt>
      <trkpt lat="41.25993" lon="19.52075">
        <ele>1.755448</ele>
        <time>2022-02-25T00:34:38.372Z</time>
      </trkpt>
      <trkpt lat="41.25991" lon="19.52004">
        <ele>1.511922</ele>
        <time>2022-02-25T00:34:56.651Z</time>
      </trkpt>
      <trkpt lat="41.26022" lon="19.52002">
        <ele>1.373113</ele>
        <time>2022-02-25T00:35:06.625Z</time>
      </trkpt>
      <trkpt lat="41.26133" lon="19.52017">
        <ele>0.511007</ele>
        <time>2022-02-25T00:35:41.681Z</time>
      </trkpt>
      <trkpt lat="41.26162" lon="19.51995">
        <ele>0.199325</ele>
        <time>2022-02-25T00:35:52.083Z</time>
      </trkpt>
      <trkpt lat="41.26196" lon="19.51994">
        <ele>-0.111943</ele>
        <time>2022-02-25T00:36:02.480Z</time>
      </trkpt>
      <trkpt lat="41.26241" lon="19.51984">
        <ele>-0.479335</ele>
        <time>2022-02-25T00:36:17.075Z</time>
      </trkpt>
      <trkpt lat="41.26334" lon="19.51963">
        <ele>-0.70263</ele>
        <time>2022-02-25T00:36:48.028Z</time>
      </trkpt>
      <trkpt lat="41.26341" lon="19.51962">
        <ele>-0.719</ele>
        <time>2022-02-25T00:36:50.463Z</time>
      </trkpt>
      <trkpt lat="41.26446" lon="19.51938">
        <ele>-0.667286</ele>
        <time>2022-02-25T00:37:29.495Z</time>
      </trkpt>
      <trkpt lat="41.26477" lon="19.51932">
        <ele>-0.483402</ele>
        <time>2022-02-25T00:37:41.101Z</time>
      </trkpt>
      <trkpt lat="41.26511" lon="19.51923">
        <ele>-0.27371</ele>
        <time>2022-02-25T00:37:54.594Z</time>
      </trkpt>
      <trkpt lat="41.26551" lon="19.51912">
        <ele>-0.032474</ele>
        <time>2022-02-25T00:38:10.186Z</time>
      </trkpt>
      <trkpt lat="41.26703" lon="19.51873">
        <ele>1.033373</ele>
        <time>2022-02-25T00:39:10.360Z</time>
      </trkpt>
      <trkpt lat="41.26714" lon="19.51931">
        <ele>1.358496</ele>
        <time>2022-02-25T00:39:27.765Z</time>
      </trkpt>
      <trkpt lat="41.26726" lon="19.51971">
        <ele>1.554629</ele>
        <time>2022-02-25T00:39:37.296Z</time>
      </trkpt>
      <trkpt lat="41.26727" lon="19.51976">
        <ele>1.574052</ele>
        <time>2022-02-25T00:39:38.416Z</time>
      </trkpt>
      <trkpt lat="41.26743" lon="19.52029">
        <ele>1.791295</ele>
        <time>2022-02-25T00:39:51.161Z</time>
      </trkpt>
      <trkpt lat="41.26744" lon="19.52032">
        <ele>1.803897</ele>
        <time>2022-02-25T00:39:51.742Z</time>
      </trkpt>
      <trkpt lat="41.26768" lon="19.52093">
        <ele>2.066682</ele>
        <time>2022-02-25T00:40:06.806Z</time>
      </trkpt>
      <trkpt lat="41.26776" lon="19.52104">
        <ele>2.125934</ele>
        <time>2022-02-25T00:40:10.111Z</time>
      </trkpt>
      <trkpt lat="41.26782" lon="19.52095">
        <ele>2.175356</ele>
        <time>2022-02-25T00:40:12.730Z</time>
      </trkpt>
      <trkpt lat="41.26802" lon="19.52077">
        <ele>2.29493</ele>
        <time>2022-02-25T00:40:19.367Z</time>
      </trkpt>
      <trkpt lat="41.2686" lon="19.52044">
        <ele>2.769679</ele>
        <time>2022-02-25T00:40:37.820Z</time>
      </trkpt>
      <trkpt lat="41.2691" lon="19.52014">
        <ele>3.241115</ele>
        <time>2022-02-25T00:40:55.896Z</time>
      </trkpt>
      <trkpt lat="41.26921" lon="19.52005">
        <ele>3.353813</ele>
        <time>2022-02-25T00:41:00.072Z</time>
      </trkpt>
      <trkpt lat="41.26956" lon="19.51977">
        <ele>3.704648</ele>
        <time>2022-02-25T00:41:13.029Z</time>
      </trkpt>
      <trkpt lat="41.26989" lon="19.51948">
        <ele>3.949891</ele>
        <time>2022-02-25T00:41:25.020Z</time>
      </trkpt>
      <trkpt lat="41.27002" lon="19.51936">
        <ele>3.981804</ele>
        <time>2022-02-25T00:41:29.838Z</time>
      </trkpt>
      <trkpt lat="41.27059" lon="19.51885">
        <ele>4.122396</ele>
        <time>2022-02-25T00:41:49.306Z</time>
      </trkpt>
      <trkpt lat="41.27112" lon="19.51838">
        <ele>4.251581</ele>
        <time>2022-02-25T00:42:05.838Z</time>
      </trkpt>
      <trkpt lat="41.27143" lon="19.51811">
        <ele>4.19948</ele>
        <time>2022-02-25T00:42:15.239Z</time>
      </trkpt>
      <trkpt lat="41.27173" lon="19.51786">
        <ele>4.034083</ele>
        <time>2022-02-25T00:42:23.852Z</time>
      </trkpt>
      <trkpt lat="41.27237" lon="19.51743">
        <ele>3.700571</ele>
        <time>2022-02-25T00:42:41.154Z</time>
      </trkpt>
      <trkpt lat="41.2731" lon="19.5171">
        <ele>3.427183</ele>
        <time>2022-02-25T00:43:00.461Z</time>
      </trkpt>
      <trkpt lat="41.27359" lon="19.51695">
        <ele>3.377386</ele>
        <time>2022-02-25T00:43:13.964Z</time>
      </trkpt>
      <trkpt lat="41.27436" lon="19.51672">
        <ele>3.300612</ele>
        <time>2022-02-25T00:43:34.964Z</time>
      </trkpt>
      <trkpt lat="41.27495" lon="19.5166">
        <ele>3.228437</ele>
        <time>2022-02-25T00:43:50.663Z</time>
      </trkpt>
      <trkpt lat="41.27594" lon="19.51612">
        <ele>3.080042</ele>
        <time>2022-02-25T00:44:17.661Z</time>
      </trkpt>
      <trkpt lat="41.2761" lon="19.51604">
        <ele>3.056507</ele>
        <time>2022-02-25T00:44:21.754Z</time>
      </trkpt>
      <trkpt lat="41.27661" lon="19.51574">
        <ele>3.211561</ele>
        <time>2022-02-25T00:44:37.344Z</time>
      </trkpt>
      <trkpt lat="41.27672" lon="19.51568">
        <ele>3.287655</ele>
        <time>2022-02-25T00:44:40.460Z</time>
      </trkpt>
      <trkpt lat="41.27677" lon="19.51564">
        <ele>3.324687</ele>
        <time>2022-02-25T00:44:42.068Z</time>
      </trkpt>
      <trkpt lat="41.27685" lon="19.5156">
        <ele>3.379233</ele>
        <time>2022-02-25T00:44:44.638Z</time>
      </trkpt>
      <trkpt lat="41.27693" lon="19.51553">
        <ele>3.435276</ele>
        <time>2022-02-25T00:44:47.327Z</time>
      </trkpt>
      <trkpt lat="41.27701" lon="19.51545">
        <ele>3.498768</ele>
        <time>2022-02-25T00:44:49.940Z</time>
      </trkpt>
      <trkpt lat="41.27705" lon="19.51542">
        <ele>3.531702</ele>
        <time>2022-02-25T00:44:51.338Z</time>
      </trkpt>
      <trkpt lat="41.27713" lon="19.51538">
        <ele>3.5821</ele>
        <time>2022-02-25T00:44:53.781Z</time>
      </trkpt>
      <trkpt lat="41.27725" lon="19.51532">
        <ele>3.660355</ele>
        <time>2022-02-25T00:44:57.561Z</time>
      </trkpt>
      <trkpt lat="41.2774" lon="19.51524">
        <ele>3.763072</ele>
        <time>2022-02-25T00:45:01.906Z</time>
      </trkpt>
      <trkpt lat="41.27744" lon="19.51522">
        <ele>3.792766</ele>
        <time>2022-02-25T00:45:03.475Z</time>
      </trkpt>
      <trkpt lat="41.27771" lon="19.51506">
        <ele>3.975861</ele>
        <time>2022-02-25T00:45:12.158Z</time>
      </trkpt>
      <trkpt lat="41.27882" lon="19.51448">
        <ele>6.746248</ele>
        <time>2022-02-25T00:45:54.626Z</time>
      </trkpt>
      <trkpt lat="41.27927" lon="19.51436">
        <ele>8.031599</ele>
        <time>2022-02-25T00:46:13.809Z</time>
      </trkpt>
      <trkpt lat="41.27939" lon="19.51432">
        <ele>8.389515</ele>
        <time>2022-02-25T00:46:19.683Z</time>
      </trkpt>
      <trkpt lat="41.27959" lon="19.51427">
        <ele>8.942453</ele>
        <time>2022-02-25T00:46:29.189Z</time>
      </trkpt>
      <trkpt lat="41.28002" lon="19.51421">
        <ele>10.321603</ele>
        <time>2022-02-25T00:46:50.921Z</time>
      </trkpt>
      <trkpt lat="41.28035" lon="19.51421">
        <ele>11.42876</ele>
        <time>2022-02-25T00:47:07.765Z</time>
      </trkpt>
      <trkpt lat="41.28043" lon="19.51421">
        <ele>11.681742</ele>
        <time>2022-02-25T00:47:11.613Z</time>
      </trkpt>
      <trkpt lat="41.28086" lon="19.51423">
        <ele>13.108514</ele>
        <time>2022-02-25T00:47:31.664Z</time>
      </trkpt>
      <trkpt lat="41.2815" lon="19.51426">
        <ele>15.090212</ele>
        <time>2022-02-25T00:47:54.144Z</time>
      </trkpt>
      <trkpt lat="41.282" lon="19.51427">
        <ele>13.999646</ele>
        <time>2022-02-25T00:48:08.195Z</time>
      </trkpt>
      <trkpt lat="41.28218" lon="19.51428">
        <ele>13.609505</ele>
        <time>2022-02-25T00:48:12.434Z</time>
      </trkpt>
      <trkpt lat="41.28267" lon="19.51428">
        <ele>12.562251</ele>
        <time>2022-02-25T00:48:22.133Z</time>
      </trkpt>
      <trkpt lat="41.28296" lon="19.51427">
        <ele>11.937148</ele>
        <time>2022-02-25T00:48:27.561Z</time>
      </trkpt>
      <trkpt lat="41.28371" lon="19.51419">
        <ele>9.543748</ele>
        <time>2022-02-25T00:48:41.141Z</time>
      </trkpt>
      <trkpt lat="41.28395" lon="19.51415">
        <ele>8.59802</ele>
        <time>2022-02-25T00:48:45.406Z</time>
      </trkpt>
      <trkpt lat="41.28425" lon="19.51407">
        <ele>7.372802</ele>
        <time>2022-02-25T00:48:51.185Z</time>
      </trkpt>
      <trkpt lat="41.28461" lon="19.514">
        <ele>5.938635</ele>
        <time>2022-02-25T00:48:58.215Z</time>
      </trkpt>
      <trkpt lat="41.28477" lon="19.51397">
        <ele>5.314792</ele>
        <time>2022-02-25T00:49:01.450Z</time>
      </trkpt>
      <trkpt lat="41.28519" lon="19.51386">
        <ele>3.978677</ele>
        <time>2022-02-25T00:49:10.111Z</time>
      </trkpt>
      <trkpt lat="41.28535" lon="19.5138">
        <ele>3.756153</ele>
        <time>2022-02-25T00:49:13.439Z</time>
      </trkpt>
      <trkpt lat="41.28568" lon="19.5137">
        <ele>3.311477</ele>
        <time>2022-02-25T00:49:20.669Z</time>
      </trkpt>
      <trkpt lat="41.28592" lon="19.51362">
        <ele>2.98279</ele>
        <time>2022-02-25T00:49:26.179Z</time>
      </trkpt>
      <trkpt lat="41.28636" lon="19.5135">
        <ele>2.381554</ele>
        <time>2022-02-25T00:49:36.576Z</time>
      </trkpt>
      <trkpt lat="41.28689" lon="19.51338">
        <ele>1.799491</ele>
        <time>2022-02-25T00:49:50.447Z</time>
      </trkpt>
      <trkpt lat="41.28709" lon="19.51335">
        <ele>1.847992</ele>
        <time>2022-02-25T00:49:56.102Z</time>
      </trkpt>
      <trkpt lat="41.2874" lon="19.51328">
        <ele>1.922921</ele>
        <time>2022-02-25T00:50:04.916Z</time>
      </trkpt>
      <trkpt lat="41.28749" lon="19.51326">
        <ele>1.94589</ele>
        <time>2022-02-25T00:50:07.669Z</time>
      </trkpt>
      <trkpt lat="41.2877" lon="19.51321">
        <ele>1.995447</ele>
        <time>2022-02-25T00:50:13.439Z</time>
      </trkpt>
      <trkpt lat="41.28795" lon="19.51316">
        <ele>2.057294</ele>
        <time>2022-02-25T00:50:20.718Z</time>
      </trkpt>
      <trkpt lat="41.28878" lon="19.51288">
        <ele>2.202768</ele>
        <time>2022-02-25T00:50:45.100Z</time>
      </trkpt>
      <trkpt lat="41.28896" lon="19.51281">
        <ele>2.193922</ele>
        <time>2022-02-25T00:50:50.462Z</time>
      </trkpt>
      <trkpt lat="41.28913" lon="19.51268">
        <ele>2.184386</ele>
        <time>2022-02-25T00:50:55.839Z</time>
      </trkpt>
      <trkpt lat="41.28959" lon="19.51221">
        <ele>2.156443</ele>
        <time>2022-02-25T00:51:11.159Z</time>
      </trkpt>
      <trkpt lat="41.29016" lon="19.51145">
        <ele>2.024396</ele>
        <time>2022-02-25T00:51:31.350Z</time>
      </trkpt>
      <trkpt lat="41.29066" lon="19.51056">
        <ele>1.544947</ele>
        <time>2022-02-25T00:51:51.675Z</time>
      </trkpt>
      <trkpt lat="41.2912" lon="19.50999">
        <ele>1.149431</ele>
        <time>2022-02-25T00:52:08.381Z</time>
      </trkpt>
      <trkpt lat="41.29132" lon="19.50979">
        <ele>1.069601</ele>
        <time>2022-02-25T00:52:13.132Z</time>
      </trkpt>
      <trkpt lat="41.2914" lon="19.50971">
        <ele>1.044161</ele>
        <time>2022-02-25T00:52:15.483Z</time>
      </trkpt>
      <trkpt lat="41.29146" lon="19.50963">
        <ele>1.020848</ele>
        <time>2022-02-25T00:52:17.474Z</time>
      </trkpt>
      <trkpt lat="41.29172" lon="19.5088">
        <ele>0.839202</ele>
        <time>2022-02-25T00:52:34.225Z</time>
      </trkpt>
      <trkpt lat="41.29185" lon="19.50858">
        <ele>0.781497</ele>
        <time>2022-02-25T00:52:39.722Z</time>
      </trkpt>
      <trkpt lat="41.29197" lon="19.50842">
        <ele>0.736067</ele>
        <time>2022-02-25T00:52:43.954Z</time>
      </trkpt>
      <trkpt lat="41.29199" lon="19.50846">
        <ele>0.727721</ele>
        <time>2022-02-25T00:52:44.727Z</time>
      </trkpt>
      <trkpt lat="41.29201" lon="19.5085">
        <ele>0.717117</ele>
        <time>2022-02-25T00:52:45.778Z</time>
      </trkpt>
      <trkpt lat="41.29205" lon="19.50852">
        <ele>0.706557</ele>
        <time>2022-02-25T00:52:46.851Z</time>
      </trkpt>
      <trkpt lat="41.29208" lon="19.50854">
        <ele>0.696059</ele>
        <time>2022-02-25T00:52:47.923Z</time>
      </trkpt>
      <trkpt lat="41.2921" lon="19.50854">
        <ele>0.690628</ele>
        <time>2022-02-25T00:52:48.480Z</time>
      </trkpt>
      <trkpt lat="41.29212" lon="19.50854">
        <ele>0.685227</ele>
        <time>2022-02-25T00:52:49.010Z</time>
      </trkpt>
      <trkpt lat="41.29214" lon="19.50854">
        <ele>0.67977</ele>
        <time>2022-02-25T00:52:49.540Z</time>
      </trkpt>
      <trkpt lat="41.29218" lon="19.50852">
        <ele>0.669969</ele>
        <time>2022-02-25T00:52:50.531Z</time>
      </trkpt>
      <trkpt lat="41.29223" lon="19.50846">
        <ele>0.649919</ele>
        <time>2022-02-25T00:52:52.423Z</time>
      </trkpt>
      <trkpt lat="41.29225" lon="19.50841">
        <ele>0.639707</ele>
        <time>2022-02-25T00:52:53.367Z</time>
      </trkpt>
      <trkpt lat="41.29226" lon="19.50839">
        <ele>0.634461</ele>
        <time>2022-02-25T00:52:53.883Z</time>
      </trkpt>
      <trkpt lat="41.29226" lon="19.50836">
        <ele>0.628928</ele>
        <time>2022-02-25T00:52:54.442Z</time>
      </trkpt>
      <trkpt lat="41.29226" lon="19.50833">
        <ele>0.623244</ele>
        <time>2022-02-25T00:52:55.018Z</time>
      </trkpt>
      <trkpt lat="41.29229" lon="19.50817">
        <ele>0.663393</ele>
        <time>2022-02-25T00:52:58.538Z</time>
      </trkpt>
      <trkpt lat="41.29239" lon="19.50785">
        <ele>0.835232</ele>
        <time>2022-02-25T00:53:05.720Z</time>
      </trkpt>
      <trkpt lat="41.29242" lon="19.50777">
        <ele>0.88346</ele>
        <time>2022-02-25T00:53:07.855Z</time>
      </trkpt>
      <trkpt lat="41.29253" lon="19.50764">
        <ele>0.978162</ele>
        <time>2022-02-25T00:53:11.817Z</time>
      </trkpt>
      <trkpt lat="41.29545" lon="19.50606">
        <ele>3.356708</ele>
        <time>2022-02-25T00:54:49.721Z</time>
      </trkpt>
      <trkpt lat="41.29591" lon="19.5058">
        <ele>3.441617</ele>
        <time>2022-02-25T00:55:04.180Z</time>
      </trkpt>
      <trkpt lat="41.29633" lon="19.50554">
        <ele>3.520228</ele>
        <time>2022-02-25T00:55:16.810Z</time>
      </trkpt>
      <trkpt lat="41.29722" lon="19.50483">
        <ele>3.567086</ele>
        <time>2022-02-25T00:55:43.555Z</time>
      </trkpt>
      <trkpt lat="41.29752" lon="19.50456">
        <ele>3.475877</ele>
        <time>2022-02-25T00:55:52.783Z</time>
      </trkpt>
      <trkpt lat="41.2976" lon="19.50447">
        <ele>3.450426</ele>
        <time>2022-02-25T00:55:55.315Z</time>
      </trkpt>
      <trkpt lat="41.29798" lon="19.50409">
        <ele>3.332658</ele>
        <time>2022-02-25T00:56:07.539Z</time>
      </trkpt>
      <trkpt lat="41.29863" lon="19.50328">
        <ele>3.27646</ele>
        <time>2022-02-25T00:56:29.987Z</time>
      </trkpt>
      <trkpt lat="41.29896" lon="19.50281">
        <ele>3.388166</ele>
        <time>2022-02-25T00:56:43.293Z</time>
      </trkpt>
      <trkpt lat="41.2992" lon="19.50247">
        <ele>3.468511</ele>
        <time>2022-02-25T00:56:53.287Z</time>
      </trkpt>
      <trkpt lat="41.29985" lon="19.50152">
        <ele>3.704419</ele>
        <time>2022-02-25T00:57:21.607Z</time>
      </trkpt>
      <trkpt lat="41.30033" lon="19.50085">
        <ele>3.889723</ele>
        <time>2022-02-25T00:57:41.602Z</time>
      </trkpt>
      <trkpt lat="41.30056" lon="19.50051">
        <ele>3.97962</ele>
        <time>2022-02-25T00:57:51.358Z</time>
      </trkpt>
      <trkpt lat="41.30073" lon="19.50023">
        <ele>4.052038</ele>
        <time>2022-02-25T00:57:59.025Z</time>
      </trkpt>
      <trkpt lat="41.30074" lon="19.50021">
        <ele>4.056662</ele>
        <time>2022-02-25T00:57:59.493Z</time>
      </trkpt>
      <trkpt lat="41.30093" lon="19.49995">
        <ele>3.943395</ele>
        <time>2022-02-25T00:58:06.596Z</time>
      </trkpt>
      <trkpt lat="41.30095" lon="19.49995">
        <ele>3.920731</ele>
        <time>2022-02-25T00:58:07.135Z</time>
      </trkpt>
      <trkpt lat="41.301" lon="19.49986">
        <ele>3.835159</ele>
        <time>2022-02-25T00:58:09.127Z</time>
      </trkpt>
      <trkpt lat="41.30099" lon="19.49983">
        <ele>3.812001</ele>
        <time>2022-02-25T00:58:09.673Z</time>
      </trkpt>
      <trkpt lat="41.30105" lon="19.49963">
        <ele>3.645104</ele>
        <time>2022-02-25T00:58:13.692Z</time>
      </trkpt>
      <trkpt lat="41.30119" lon="19.49944">
        <ele>3.439821</ele>
        <time>2022-02-25T00:58:18.105Z</time>
      </trkpt>
      <trkpt lat="41.30145" lon="19.49907">
        <ele>3.05286</ele>
        <time>2022-02-25T00:58:26.496Z</time>
      </trkpt>
      <trkpt lat="41.30174" lon="19.49866">
        <ele>2.61511</ele>
        <time>2022-02-25T00:58:36.025Z</time>
      </trkpt>
      <trkpt lat="41.3021" lon="19.49814">
        <ele>2.122333</ele>
        <time>2022-02-25T00:58:47.729Z</time>
      </trkpt>
      <trkpt lat="41.30227" lon="19.49788">
        <ele>1.928835</ele>
        <time>2022-02-25T00:58:53.558Z</time>
      </trkpt>
      <trkpt lat="41.30235" lon="19.49776">
        <ele>1.839554</ele>
        <time>2022-02-25T00:58:56.357Z</time>
      </trkpt>
      <trkpt lat="41.30248" lon="19.49759">
        <ele>1.698539</ele>
        <time>2022-02-25T00:59:00.800Z</time>
      </trkpt>
      <trkpt lat="41.30269" lon="19.49729">
        <ele>1.468114</ele>
        <time>2022-02-25T00:59:08.098Z</time>
      </trkpt>
      <trkpt lat="41.3029" lon="19.497">
        <ele>1.242088</ele>
        <time>2022-02-25T00:59:15.388Z</time>
      </trkpt>
      <trkpt lat="41.30295" lon="19.49693">
        <ele>1.191008</ele>
        <time>2022-02-25T00:59:17.110Z</time>
      </trkpt>
      <trkpt lat="41.30314" lon="19.49666">
        <ele>0.981464</ele>
        <time>2022-02-25T00:59:24.241Z</time>
      </trkpt>
      <trkpt lat="41.30323" lon="19.49653">
        <ele>0.903163</ele>
        <time>2022-02-25T00:59:27.670Z</time>
      </trkpt>
      <trkpt lat="41.30333" lon="19.49638">
        <ele>0.91149</ele>
        <time>2022-02-25T00:59:31.754Z</time>
      </trkpt>
      <trkpt lat="41.30364" lon="19.49593">
        <ele>0.937629</ele>
        <time>2022-02-25T00:59:44.340Z</time>
      </trkpt>
      <trkpt lat="41.30378" lon="19.49573">
        <ele>0.949269</ele>
        <time>2022-02-25T00:59:49.963Z</time>
      </trkpt>
      <trkpt lat="41.30394" lon="19.49549">
        <ele>0.962705</ele>
        <time>2022-02-25T00:59:56.611Z</time>
      </trkpt>
      <trkpt lat="41.30445" lon="19.49476">
        <ele>0.996851</ele>
        <time>2022-02-25T01:00:17.156Z</time>
      </trkpt>
      <trkpt lat="41.30453" lon="19.49464">
        <ele>0.970698</ele>
        <time>2022-02-25T01:00:20.332Z</time>
      </trkpt>
      <trkpt lat="41.30459" lon="19.49455">
        <ele>0.952045</ele>
        <time>2022-02-25T01:00:22.721Z</time>
      </trkpt>
      <trkpt lat="41.30467" lon="19.49444">
        <ele>0.927613</ele>
        <time>2022-02-25T01:00:25.854Z</time>
      </trkpt>
      <trkpt lat="41.3052" lon="19.49385">
        <ele>0.780797</ele>
        <time>2022-02-25T01:00:43.241Z</time>
      </trkpt>
      <trkpt lat="41.30556" lon="19.49345">
        <ele>0.682949</ele>
        <time>2022-02-25T01:00:54.926Z</time>
      </trkpt>
      <trkpt lat="41.3057" lon="19.4933">
        <ele>0.644207</ele>
        <time>2022-02-25T01:00:59.503Z</time>
      </trkpt>
      <trkpt lat="41.30594" lon="19.49304">
        <ele>0.57031</ele>
        <time>2022-02-25T01:01:07.631Z</time>
      </trkpt>
      <trkpt lat="41.3061" lon="19.49279">
        <ele>0.506693</ele>
        <time>2022-02-25T01:01:14.281Z</time>
      </trkpt>
      <trkpt lat="41.30622" lon="19.49262">
        <ele>0.461892</ele>
        <time>2022-02-25T01:01:18.741Z</time>
      </trkpt>
      <trkpt lat="41.30628" lon="19.49253">
        <ele>0.43717</ele>
        <time>2022-02-25T01:01:21.244Z</time>
      </trkpt>
      <trkpt lat="41.30649" lon="19.49208">
        <ele>0.335882</ele>
        <time>2022-02-25T01:01:31.218Z</time>
      </trkpt>
      <trkpt lat="41.30642" lon="19.49203">
        <ele>0.316945</ele>
        <time>2022-02-25T01:01:33.072Z</time>
      </trkpt>
      <trkpt lat="41.30598" lon="19.4915">
        <ele>0.162404</ele>
        <time>2022-02-25T01:01:47.978Z</time>
      </trkpt>
      <trkpt lat="41.30584" lon="19.49113">
        <ele>0.137976</ele>
        <time>2022-02-25T01:01:55.799Z</time>
      </trkpt>
      <trkpt lat="41.30569" lon="19.49091">
        <ele>0.121919</ele>
        <time>2022-02-25T01:02:01.697Z</time>
      </trkpt>
      <trkpt lat="41.30548" lon="19.49063">
        <ele>0.100868</ele>
        <time>2022-02-25T01:02:09.595Z</time>
      </trkpt>
      <trkpt lat="41.3063" lon="19.48959">
        <ele>0.076774</ele>
        <time>2022-02-25T01:02:39.633Z</time>
      </trkpt>
      <trkpt lat="41.30666" lon="19.48908">
        <ele>0.23504</ele>
        <time>2022-02-25T01:02:54.339Z</time>
      </trkpt>
      <trkpt lat="41.30738" lon="19.4881">
        <ele>0.540039</ele>
        <time>2022-02-25T01:03:23.563Z</time>
      </trkpt>
      <trkpt lat="41.30791" lon="19.48734">
        <ele>0.842206</ele>
        <time>2022-02-25T01:03:46.653Z</time>
      </trkpt>
      <trkpt lat="41.30838" lon="19.48669">
        <ele>1.110295</ele>
        <time>2022-02-25T01:04:06.048Z</time>
      </trkpt>
      <trkpt lat="41.30883" lon="19.48609">
        <ele>1.320729</ele>
        <time>2022-02-25T01:04:23.727Z</time>
      </trkpt>
      <trkpt lat="41.30955" lon="19.48507">
        <ele>1.527397</ele>
        <time>2022-02-25T01:04:53.285Z</time>
      </trkpt>
      <trkpt lat="41.30984" lon="19.48463">
        <ele>1.614226</ele>
        <time>2022-02-25T01:05:04.909Z</time>
      </trkpt>
      <trkpt lat="41.30998" lon="19.48454">
        <ele>1.62771</ele>
        <time>2022-02-25T01:05:09.051Z</time>
      </trkpt>
      <trkpt lat="41.31007" lon="19.4845">
        <ele>1.613896</ele>
        <time>2022-02-25T01:05:11.376Z</time>
      </trkpt>
      <trkpt lat="41.31017" lon="19.48448">
        <ele>1.600211</ele>
        <time>2022-02-25T01:05:13.992Z</time>
      </trkpt>
      <trkpt lat="41.31017" lon="19.48451">
        <ele>1.596679</ele>
        <time>2022-02-25T01:05:14.644Z</time>
      </trkpt>
      <trkpt lat="41.31018" lon="19.48454">
        <ele>1.593201</ele>
        <time>2022-02-25T01:05:15.312Z</time>
      </trkpt>
      <trkpt lat="41.3102" lon="19.48456">
        <ele>1.590624</ele>
        <time>2022-02-25T01:05:15.831Z</time>
      </trkpt>
      <trkpt lat="41.31022" lon="19.48456">
        <ele>1.587986</ele>
        <time>2022-02-25T01:05:16.312Z</time>
      </trkpt>
      <trkpt lat="41.31024" lon="19.48456">
        <ele>1.585452</ele>
        <time>2022-02-25T01:05:16.835Z</time>
      </trkpt>
      <trkpt lat="41.31025" lon="19.48455">
        <ele>1.583009</ele>
        <time>2022-02-25T01:05:17.350Z</time>
      </trkpt>
      <trkpt lat="41.31027" lon="19.48454">
        <ele>1.580546</ele>
        <time>2022-02-25T01:05:17.821Z</time>
      </trkpt>
      <trkpt lat="41.31028" lon="19.48452">
        <ele>1.578007</ele>
        <time>2022-02-25T01:05:18.341Z</time>
      </trkpt>
      <trkpt lat="41.31028" lon="19.48449">
        <ele>1.574966</ele>
        <time>2022-02-25T01:05:18.905Z</time>
      </trkpt>
      <trkpt lat="41.31028" lon="19.48446">
        <ele>1.571873</ele>
        <time>2022-02-25T01:05:19.465Z</time>
      </trkpt>
      <trkpt lat="41.31088" lon="19.48314">
        <ele>1.40869</ele>
        <time>2022-02-25T01:05:50.464Z</time>
      </trkpt>
      <trkpt lat="41.31157" lon="19.48375">
        <ele>0.945796</ele>
        <time>2022-02-25T01:06:10.477Z</time>
      </trkpt>
      <trkpt lat="41.31161" lon="19.48367">
        <ele>0.893663</ele>
        <time>2022-02-25T01:06:12.080Z</time>
      </trkpt>
      <trkpt lat="41.31207" lon="19.48273">
        <ele>0.31973</ele>
        <time>2022-02-25T01:06:32.458Z</time>
      </trkpt>
      <trkpt lat="41.31243" lon="19.48293">
        <ele>0.076085</ele>
        <time>2022-02-25T01:06:41.924Z</time>
      </trkpt>
      <trkpt lat="41.31271" lon="19.48305">
        <ele>-0.071065</ele>
        <time>2022-02-25T01:06:48.599Z</time>
      </trkpt>
      <trkpt lat="41.31348" lon="19.48143">
        <ele>-0.701292</ele>
        <time>2022-02-25T01:07:25.645Z</time>
      </trkpt>
      <trkpt lat="41.31379" lon="19.48073">
        <ele>-0.390474</ele>
        <time>2022-02-25T01:07:44.329Z</time>
      </trkpt>
      <trkpt lat="41.31402" lon="19.4809">
        <ele>-0.25409</ele>
        <time>2022-02-25T01:07:52.348Z</time>
      </trkpt>
      <trkpt lat="41.31428" lon="19.48009">
        <ele>0.083926</ele>
        <time>2022-02-25T01:08:11.996Z</time>
      </trkpt>
      <trkpt lat="41.31444" lon="19.47961">
        <ele>0.239734</ele>
        <time>2022-02-25T01:08:23.940Z</time>
      </trkpt>
      <trkpt lat="41.31467" lon="19.47889">
        <ele>0.409221</ele>
        <time>2022-02-25T01:08:41.463Z</time>
      </trkpt>
      <trkpt lat="41.3154" lon="19.47656">
        <ele>0.412385</ele>
        <time>2022-02-25T01:09:32.141Z</time>
      </trkpt>
      <trkpt lat="41.31569" lon="19.47552">
        <ele>0.146047</ele>
        <time>2022-02-25T01:09:52.591Z</time>
      </trkpt>
      <trkpt lat="41.31584" lon="19.47499">
        <ele>-0.132533</ele>
        <time>2022-02-25T01:10:02.433Z</time>
      </trkpt>
      <trkpt lat="41.31597" lon="19.47446">
        <ele>-0.428481</ele>
        <time>2022-02-25T01:10:12.285Z</time>
      </trkpt>
      <trkpt lat="41.31601" lon="19.47429">
        <ele>-0.523782</ele>
        <time>2022-02-25T01:10:15.469Z</time>
      </trkpt>
      <trkpt lat="41.31614" lon="19.47371">
        <ele>-0.846362</ele>
        <time>2022-02-25T01:10:26.350Z</time>
      </trkpt>
      <trkpt lat="41.31628" lon="19.47319">
        <ele>-1.143495</ele>
        <time>2022-02-25T01:10:36.389Z</time>
      </trkpt>
      <trkpt lat="41.3164" lon="19.47267">
        <ele>-1.179037</ele>
        <time>2022-02-25T01:10:46.423Z</time>
      </trkpt>
      <trkpt lat="41.31663" lon="19.47172">
        <ele>-1.220492</ele>
        <time>2022-02-25T01:11:05.331Z</time>
      </trkpt>
      <trkpt lat="41.31656" lon="19.47072">
        <ele>-1.19599</ele>
        <time>2022-02-25T01:11:27.663Z</time>
      </trkpt>
      <trkpt lat="41.31655" lon="19.47069">
        <ele>-1.181759</ele>
        <time>2022-02-25T01:11:28.228Z</time>
      </trkpt>
      <trkpt lat="41.31654" lon="19.47067">
        <ele>-1.168648</ele>
        <time>2022-02-25T01:11:28.816Z</time>
      </trkpt>
      <trkpt lat="41.31653" lon="19.47065">
        <ele>-1.155893</ele>
        <time>2022-02-25T01:11:29.386Z</time>
      </trkpt>
      <trkpt lat="41.31646" lon="19.47063">
        <ele>-1.115046</ele>
        <time>2022-02-25T01:11:31.313Z</time>
      </trkpt>
      <trkpt lat="41.31637" lon="19.47059">
        <ele>-1.049028</ele>
        <time>2022-02-25T01:11:34.522Z</time>
      </trkpt>
      <trkpt lat="41.31627" lon="19.47055">
        <ele>-0.982918</ele>
        <time>2022-02-25T01:11:37.587Z</time>
      </trkpt>
      <trkpt lat="41.31623" lon="19.4705">
        <ele>-0.94736</ele>
        <time>2022-02-25T01:11:39.115Z</time>
      </trkpt>
      <trkpt lat="41.31624" lon="19.47042">
        <ele>-0.907193</ele>
        <time>2022-02-25T01:11:41.007Z</time>
      </trkpt>
      <trkpt lat="41.31624" lon="19.47018">
        <ele>-0.791453</ele>
        <time>2022-02-25T01:11:46.521Z</time>
      </trkpt>
      <trkpt lat="41.31625" lon="19.47008">
        <ele>-0.744888</ele>
        <time>2022-02-25T01:11:48.703Z</time>
      </trkpt>
      <trkpt lat="41.31626" lon="19.46996">
        <ele>-0.687625</ele>
        <time>2022-02-25T01:11:51.237Z</time>
      </trkpt>
      <trkpt lat="41.31627" lon="19.46986">
        <ele>-0.639817</ele>
        <time>2022-02-25T01:11:53.631Z</time>
      </trkpt>
      <trkpt lat="41.31627" lon="19.46971">
        <ele>-0.565992</ele>
        <time>2022-02-25T01:11:57.219Z</time>
      </trkpt>
      <trkpt lat="41.31625" lon="19.46912">
        <ele>-0.28074</ele>
        <time>2022-02-25T01:12:10.379Z</time>
      </trkpt>
      <trkpt lat="41.31624" lon="19.46891">
        <ele>-0.178338</ele>
        <time>2022-02-25T01:12:15.022Z</time>
      </trkpt>
      <trkpt lat="41.31624" lon="19.46847">
        <ele>-0.050324</ele>
        <time>2022-02-25T01:12:24.765Z</time>
      </trkpt>
      <trkpt lat="41.31627" lon="19.46808">
        <ele>0.021762</ele>
        <time>2022-02-25T01:12:33.396Z</time>
      </trkpt>
      <trkpt lat="41.31631" lon="19.46783">
        <ele>0.069348</ele>
        <time>2022-02-25T01:12:39.183Z</time>
      </trkpt>
      <trkpt lat="41.31634" lon="19.4677">
        <ele>0.094356</ele>
        <time>2022-02-25T01:12:41.883Z</time>
      </trkpt>
      <trkpt lat="41.31642" lon="19.46738">
        <ele>0.156243</ele>
        <time>2022-02-25T01:12:48.951Z</time>
      </trkpt>
      <trkpt lat="41.31646" lon="19.46731">
        <ele>0.17206</ele>
        <time>2022-02-25T01:12:50.644Z</time>
      </trkpt>
      <trkpt lat="41.31648" lon="19.46729">
        <ele>0.177961</ele>
        <time>2022-02-25T01:12:51.268Z</time>
      </trkpt>
      <trkpt lat="41.31655" lon="19.46721">
        <ele>0.20137</ele>
        <time>2022-02-25T01:12:53.895Z</time>
      </trkpt>
      <trkpt lat="41.31656" lon="19.46718">
        <ele>0.207189</ele>
        <time>2022-02-25T01:12:54.547Z</time>
      </trkpt>
      <trkpt lat="41.31657" lon="19.46715">
        <ele>0.213138</ele>
        <time>2022-02-25T01:12:55.229Z</time>
      </trkpt>
      <trkpt lat="41.31658" lon="19.46712">
        <ele>0.219032</ele>
        <time>2022-02-25T01:12:55.909Z</time>
      </trkpt>
      <trkpt lat="41.31658" lon="19.46709">
        <ele>0.224945</ele>
        <time>2022-02-25T01:12:56.573Z</time>
      </trkpt>
      <trkpt lat="41.31654" lon="19.46694">
        <ele>0.253869</ele>
        <time>2022-02-25T01:12:59.817Z</time>
      </trkpt>
      <trkpt lat="41.31653" lon="19.46691">
        <ele>0.259917</ele>
        <time>2022-02-25T01:13:00.431Z</time>
      </trkpt>
      <trkpt lat="41.31651" lon="19.46689">
        <ele>0.265602</ele>
        <time>2022-02-25T01:13:01.047Z</time>
      </trkpt>
      <trkpt lat="41.31651" lon="19.46679">
        <ele>0.283847</ele>
        <time>2022-02-25T01:13:03.031Z</time>
      </trkpt>
      <trkpt lat="41.31651" lon="19.46675">
        <ele>0.291217</ele>
        <time>2022-02-25T01:13:03.843Z</time>
      </trkpt>
      <trkpt lat="41.31655" lon="19.46676">
        <ele>0.301528</ele>
        <time>2022-02-25T01:13:04.978Z</time>
      </trkpt>
      <trkpt lat="41.31661" lon="19.46676">
        <ele>0.316512</ele>
        <time>2022-02-25T01:13:06.654Z</time>
      </trkpt>
      <trkpt lat="41.31663" lon="19.46675">
        <ele>0.321969</ele>
        <time>2022-02-25T01:13:07.244Z</time>
      </trkpt>
      <trkpt lat="41.31665" lon="19.46672">
        <ele>0.327711</ele>
        <time>2022-02-25T01:13:07.861Z</time>
      </trkpt>
      <trkpt lat="41.31697" lon="19.46509">
        <ele>0.161968</ele>
        <time>2022-02-25T01:13:40.314Z</time>
      </trkpt>
      <trkpt lat="41.31736" lon="19.46229">
        <ele>0.109494</ele>
        <time>2022-02-25T01:14:36.806Z</time>
      </trkpt>
      <trkpt lat="41.31742" lon="19.46096">
        <ele>0.42144</ele>
        <time>2022-02-25T01:15:05.165Z</time>
      </trkpt>
      <trkpt lat="41.31732" lon="19.45788">
        <ele>1.266845</ele>
        <time>2022-02-25T01:16:12.492Z</time>
      </trkpt>
      <trkpt lat="41.31718" lon="19.45593">
        <ele>1.232021</ele>
        <time>2022-02-25T01:16:51.100Z</time>
      </trkpt>
      <trkpt lat="41.31696" lon="19.45473">
        <ele>1.042527</ele>
        <time>2022-02-25T01:17:14.230Z</time>
      </trkpt>
      <trkpt lat="41.3168" lon="19.45425">
        <ele>1.025572</ele>
        <time>2022-02-25T01:17:24.213Z</time>
      </trkpt>
      <trkpt lat="41.31655" lon="19.45372">
        <ele>1.005287</ele>
        <time>2022-02-25T01:17:36.504Z</time>
      </trkpt>
      <trkpt lat="41.31599" lon="19.45294">
        <ele>0.970237</ele>
        <time>2022-02-25T01:17:58.750Z</time>
      </trkpt>
      <trkpt lat="41.31589" lon="19.45284">
        <ele>1.01448</ele>
        <time>2022-02-25T01:18:02.403Z</time>
      </trkpt>
      <trkpt lat="41.31595" lon="19.45274">
        <ele>1.06295</ele>
        <time>2022-02-25T01:18:09.001Z</time>
      </trkpt>
      <trkpt lat="41.31609" lon="19.45291">
        <ele>1.158503</ele>
        <time>2022-02-25T01:18:14.315Z</time>
      </trkpt>
      <trkpt lat="41.31629" lon="19.45258">
        <ele>1.318684</ele>
        <time>2022-02-25T01:18:23.529Z</time>
      </trkpt>
      <trkpt lat="41.31635" lon="19.45247">
        <ele>1.370749</ele>
        <time>2022-02-25T01:18:26.629Z</time>
      </trkpt>
      <trkpt lat="41.3165" lon="19.45223">
        <ele>1.491136</ele>
        <time>2022-02-25T01:18:33.591Z</time>
      </trkpt>
      <trkpt lat="41.31669" lon="19.45191">
        <ele>1.648866</ele>
        <time>2022-02-25T01:18:42.682Z</time>
      </trkpt>
      <trkpt lat="41.31687" lon="19.45161">
        <ele>1.796776</ele>
        <time>2022-02-25T01:18:51.369Z</time>
      </trkpt>
      <trkpt lat="41.31691" lon="19.45154">
        <ele>1.829541</ele>
        <time>2022-02-25T01:18:53.229Z</time>
      </trkpt>
      <trkpt lat="41.31645" lon="19.45103">
        <ele>2.331911</ele>
        <time>2022-02-25T01:19:11.188Z</time>
      </trkpt>
      <trkpt lat="41.31627" lon="19.45083">
        <ele>2.541996</ele>
        <time>2022-02-25T01:19:18.047Z</time>
      </trkpt>
      <trkpt lat="41.31615" lon="19.45069">
        <ele>2.686562</ele>
        <time>2022-02-25T01:19:23.029Z</time>
      </trkpt>
      <trkpt lat="41.31616" lon="19.45067">
        <ele>2.710145</ele>
        <time>2022-02-25T01:19:23.873Z</time>
      </trkpt>
      <trkpt lat="41.31617" lon="19.45053">
        <ele>2.800546</ele>
        <time>2022-02-25T01:19:27.058Z</time>
      </trkpt>
      <trkpt lat="41.31616" lon="19.4505">
        <ele>2.82436</ele>
        <time>2022-02-25T01:19:27.824Z</time>
      </trkpt>
      <trkpt lat="41.31627" lon="19.45046">
        <ele>2.929245</ele>
        <time>2022-02-25T01:19:31.693Z</time>
      </trkpt>
      <trkpt lat="41.31648" lon="19.45026">
        <ele>3.15976</ele>
        <time>2022-02-25T01:19:40.003Z</time>
      </trkpt>
      <trkpt lat="41.31681" lon="19.44988">
        <ele>3.545447</ele>
        <time>2022-02-25T01:19:54.223Z</time>
      </trkpt>
      <trkpt lat="41.31719" lon="19.44952">
        <ele>3.88463</ele>
        <time>2022-02-25T01:20:08.611Z</time>
      </trkpt>
      <trkpt lat="41.31725" lon="19.44945">
        <ele>3.942657</ele>
        <time>2022-02-25T01:20:11.196Z</time>
      </trkpt>
      <trkpt lat="41.31727" lon="19.44947">
        <ele>3.958577</ele>
        <time>2022-02-25T01:20:11.855Z</time>
      </trkpt>
      <trkpt lat="41.31731" lon="19.44945">
        <ele>3.989751</ele>
        <time>2022-02-25T01:20:13.073Z</time>
      </trkpt>
      <trkpt lat="41.31732" lon="19.44943">
        <ele>4.005705</ele>
        <time>2022-02-25T01:20:13.700Z</time>
      </trkpt>
      <trkpt lat="41.31732" lon="19.44941">
        <ele>4.013552</ele>
        <time>2022-02-25T01:20:14.057Z</time>
      </trkpt>
      <trkpt lat="41.31732" lon="19.44938">
        <ele>4.029788</ele>
        <time>2022-02-25T01:20:14.721Z</time>
      </trkpt>
      <trkpt lat="41.31731" lon="19.44937">
        <ele>4.037726</ele>
        <time>2022-02-25T01:20:15.083Z</time>
      </trkpt>
      <trkpt lat="41.3174" lon="19.44929">
        <ele>4.113724</ele>
        <time>2022-02-25T01:20:18.232Z</time>
      </trkpt>
      <trkpt lat="41.31762" lon="19.44907">
        <ele>4.318119</ele>
        <time>2022-02-25T01:20:26.544Z</time>
      </trkpt>
      <trkpt lat="41.31836" lon="19.44823">
        <ele>4.936989</ele>
        <time>2022-02-25T01:20:54.900Z</time>
      </trkpt>
      <trkpt lat="41.31843" lon="19.44814">
        <ele>4.975667</ele>
        <time>2022-02-25T01:20:57.699Z</time>
      </trkpt>
      <trkpt lat="41.3185" lon="19.44806">
        <ele>5.009979</ele>
        <time>2022-02-25T01:21:00.120Z</time>
      </trkpt>
      <trkpt lat="41.31852" lon="19.44809">
        <ele>5.02157</ele>
        <time>2022-02-25T01:21:00.900Z</time>
      </trkpt>
      <trkpt lat="41.31855" lon="19.4481">
        <ele>5.033174</ele>
        <time>2022-02-25T01:21:01.735Z</time>
      </trkpt>
      <trkpt lat="41.31858" lon="19.44811">
        <ele>5.045133</ele>
        <time>2022-02-25T01:21:02.506Z</time>
      </trkpt>
      <trkpt lat="41.31861" lon="19.4481">
        <ele>5.05817</ele>
        <time>2022-02-25T01:21:03.366Z</time>
      </trkpt>
      <trkpt lat="41.31864" lon="19.44807">
        <ele>5.07122</ele>
        <time>2022-02-25T01:21:04.252Z</time>
      </trkpt>
      <trkpt lat="41.31866" lon="19.44804">
        <ele>5.085528</ele>
        <time>2022-02-25T01:21:05.224Z</time>
      </trkpt>
      <trkpt lat="41.31867" lon="19.44799">
        <ele>5.099625</ele>
        <time>2022-02-25T01:21:06.253Z</time>
      </trkpt>
      <trkpt lat="41.31867" lon="19.44794">
        <ele>5.113924</ele>
        <time>2022-02-25T01:21:07.223Z</time>
      </trkpt>
      <trkpt lat="41.31866" lon="19.4479">
        <ele>5.128487</ele>
        <time>2022-02-25T01:21:08.233Z</time>
      </trkpt>
      <trkpt lat="41.31863" lon="19.44786">
        <ele>5.142567</ele>
        <time>2022-02-25T01:21:09.160Z</time>
      </trkpt>
      <trkpt lat="41.31865" lon="19.44775">
        <ele>5.175579</ele>
        <time>2022-02-25T01:21:11.393Z</time>
      </trkpt>
      <trkpt lat="41.31874" lon="19.44672">
        <ele>5.48617</ele>
        <time>2022-02-25T01:21:33.729Z</time>
      </trkpt>
      <trkpt lat="41.31874" lon="19.4466">
        <ele>5.520278</ele>
        <time>2022-02-25T01:21:36.178Z</time>
      </trkpt>
      <trkpt lat="41.31882" lon="19.44545">
        <ele>6.018771</ele>
        <time>2022-02-25T01:22:02.770Z</time>
      </trkpt>
      <trkpt lat="41.3189" lon="19.44532">
        <ele>6.093553</ele>
        <time>2022-02-25T01:22:06.737Z</time>
      </trkpt>
      <trkpt lat="41.31896" lon="19.44522">
        <ele>6.150829</ele>
        <time>2022-02-25T01:22:09.603Z</time>
      </trkpt>
      <trkpt lat="41.31902" lon="19.44515">
        <ele>6.20026</ele>
        <time>2022-02-25T01:22:12.314Z</time>
      </trkpt>
      <trkpt lat="41.31909" lon="19.44515">
        <ele>6.236549</ele>
        <time>2022-02-25T01:22:14.135Z</time>
      </trkpt>
      <trkpt lat="41.31915" lon="19.44515">
        <ele>6.274613</ele>
        <time>2022-02-25T01:22:16.111Z</time>
      </trkpt>
      <trkpt lat="41.31932" lon="19.44517">
        <ele>6.372365</ele>
        <time>2022-02-25T01:22:20.967Z</time>
      </trkpt>
      <trkpt lat="41.32023" lon="19.44523">
        <ele>6.441848</ele>
        <time>2022-02-25T01:22:46.098Z</time>
      </trkpt>
      <trkpt lat="41.3205" lon="19.44524">
        <ele>6.367962</ele>
        <time>2022-02-25T01:22:53.066Z</time>
      </trkpt>
      <trkpt lat="41.32088" lon="19.44527">
        <ele>6.266641</ele>
        <time>2022-02-25T01:23:02.194Z</time>
      </trkpt>
      <trkpt lat="41.32111" lon="19.44528">
        <ele>6.203557</ele>
        <time>2022-02-25T01:23:07.883Z</time>
      </trkpt>
      <trkpt lat="41.32128" lon="19.44529">
        <ele>6.156419</ele>
        <time>2022-02-25T01:23:12.097Z</time>
      </trkpt>
      <trkpt lat="41.32154" lon="19.44531">
        <ele>6.080092</ele>
        <time>2022-02-25T01:23:18.479Z</time>
      </trkpt>
      <trkpt lat="41.32159" lon="19.44531">
        <ele>6.061418</ele>
        <time>2022-02-25T01:23:19.584Z</time>
      </trkpt>
      <trkpt lat="41.32204" lon="19.44533">
        <ele>5.88304</ele>
        <time>2022-02-25T01:23:30.435Z</time>
      </trkpt>
      <trkpt lat="41.32231" lon="19.44534">
        <ele>5.775379</ele>
        <time>2022-02-25T01:23:37.183Z</time>
      </trkpt>
      <trkpt lat="41.3229" lon="19.44536">
        <ele>5.538976</ele>
        <time>2022-02-25T01:23:52.250Z</time>
      </trkpt>
      <trkpt lat="41.32299" lon="19.44536">
        <ele>5.504819</ele>
        <time>2022-02-25T01:23:54.599Z</time>
      </trkpt>
      <trkpt lat="41.32309" lon="19.44537">
        <ele>5.46312</ele>
        <time>2022-02-25T01:23:57.212Z</time>
      </trkpt>
      <trkpt lat="41.32351" lon="19.44538">
        <ele>5.341933</ele>
        <time>2022-02-25T01:24:08.094Z</time>
      </trkpt>
      <trkpt lat="41.32452" lon="19.44539">
        <ele>5.140037</ele>
        <time>2022-02-25T01:24:34.274Z</time>
      </trkpt>
      <trkpt lat="41.32461" lon="19.44539">
        <ele>5.121791</ele>
        <time>2022-02-25T01:24:36.528Z</time>
      </trkpt>
      <trkpt lat="41.32474" lon="19.44539">
        <ele>5.094924</ele>
        <time>2022-02-25T01:24:39.942Z</time>
      </trkpt>
      <trkpt lat="41.32519" lon="19.4454">
        <ele>5.015791</ele>
        <time>2022-02-25T01:24:51.201Z</time>
      </trkpt>
      <trkpt lat="41.32558" lon="19.4454">
        <ele>4.973024</ele>
        <time>2022-02-25T01:25:01.309Z</time>
      </trkpt>
      <trkpt lat="41.32588" lon="19.44541">
        <ele>4.940733</ele>
        <time>2022-02-25T01:25:09.068Z</time>
      </trkpt>
      <trkpt lat="41.32596" lon="19.44541">
        <ele>4.932632</ele>
        <time>2022-02-25T01:25:11.074Z</time>
      </trkpt>
      <trkpt lat="41.32685" lon="19.4454">
        <ele>4.836085</ele>
        <time>2022-02-25T01:25:35.429Z</time>
      </trkpt>
      <trkpt lat="41.32741" lon="19.44542">
        <ele>4.769022</ele>
        <time>2022-02-25T01:25:49.835Z</time>
      </trkpt>
      <trkpt lat="41.32789" lon="19.44544">
        <ele>4.711896</ele>
        <time>2022-02-25T01:26:02.084Z</time>
      </trkpt>
      <trkpt lat="41.3283" lon="19.44544">
        <ele>4.663726</ele>
        <time>2022-02-25T01:26:12.577Z</time>
      </trkpt>
      <trkpt lat="41.32873" lon="19.44545">
        <ele>4.620471</ele>
        <time>2022-02-25T01:26:24.321Z</time>
      </trkpt>
      <trkpt lat="41.32949" lon="19.44545">
        <ele>4.647922</ele>
        <time>2022-02-25T01:26:44.457Z</time>
      </trkpt>
      <trkpt lat="41.33045" lon="19.44544">
        <ele>4.682525</ele>
        <time>2022-02-25T01:27:10.249Z</time>
      </trkpt>
      <trkpt lat="41.33092" lon="19.44544">
        <ele>4.747102</ele>
        <time>2022-02-25T01:27:23.533Z</time>
      </trkpt>
      <trkpt lat="41.33254" lon="19.44545">
        <ele>4.906925</ele>
        <time>2022-02-25T01:28:07.876Z</time>
      </trkpt>
      <trkpt lat="41.3341" lon="19.44545">
        <ele>4.712634</ele>
        <time>2022-02-25T01:28:48.250Z</time>
      </trkpt>
      <trkpt lat="41.33489" lon="19.44548">
        <ele>4.429142</ele>
        <time>2022-02-25T01:29:07.710Z</time>
      </trkpt>
      <trkpt lat="41.335" lon="19.44547">
        <ele>4.389825</ele>
        <time>2022-02-25T01:29:10.483Z</time>
      </trkpt>
      <trkpt lat="41.33508" lon="19.44545">
        <ele>4.357021</ele>
        <time>2022-02-25T01:29:12.699Z</time>
      </trkpt>
      <trkpt lat="41.33547" lon="19.44532">
        <ele>4.213206</ele>
        <time>2022-02-25T01:29:22.716Z</time>
      </trkpt>
      <trkpt lat="41.33585" lon="19.44518">
        <ele>4.07517</ele>
        <time>2022-02-25T01:29:32.606Z</time>
      </trkpt>
      <trkpt lat="41.33707" lon="19.44466">
        <ele>4.250027</ele>
        <time>2022-02-25T01:30:06.797Z</time>
      </trkpt>
      <trkpt lat="41.33737" lon="19.44455">
        <ele>4.293863</ele>
        <time>2022-02-25T01:30:16.004Z</time>
      </trkpt>
      <trkpt lat="41.33826" lon="19.44421">
        <ele>4.583101</ele>
        <time>2022-02-25T01:30:42.790Z</time>
      </trkpt>
      <trkpt lat="41.33884" lon="19.444">
        <ele>4.804372</ele>
        <time>2022-02-25T01:31:00.598Z</time>
      </trkpt>
      <trkpt lat="41.33898" lon="19.44395">
        <ele>4.854268</ele>
        <time>2022-02-25T01:31:04.566Z</time>
      </trkpt>
      <trkpt lat="41.34067" lon="19.44329">
        <ele>4.683796</ele>
        <time>2022-02-25T01:31:51.397Z</time>
      </trkpt>
      <trkpt lat="41.34067" lon="19.44329">
        <ele>4.683796</ele>
        <time>2022-02-25T01:31:51.405Z</time>
      </trkpt>
      <trkpt lat="41.34067" lon="19.44329">
        <ele>4.683796</ele>
        <time>2022-02-25T01:31:51.437Z</time>
      </trkpt>
      <trkpt lat="41.34086" lon="19.44415">
        <ele>4.224248</ele>
        <time>2022-02-25T01:32:07.258Z</time>
      </trkpt>
      <trkpt lat="41.34109" lon="19.44522">
        <ele>3.13704</ele>
        <time>2022-02-25T01:32:26.088Z</time>
      </trkpt>
      <trkpt lat="41.34124" lon="19.44596">
        <ele>2.398928</ele>
        <time>2022-02-25T01:32:38.310Z</time>
      </trkpt>
      <trkpt lat="41.34143" lon="19.44703">
        <ele>1.544207</ele>
        <time>2022-02-25T01:32:56.766Z</time>
      </trkpt>
      <trkpt lat="41.34151" lon="19.44733">
        <ele>1.309323</ele>
        <time>2022-02-25T01:33:02.250Z</time>
      </trkpt>
      <trkpt lat="41.3416" lon="19.44756">
        <ele>1.109412</ele>
        <time>2022-02-25T01:33:07.061Z</time>
      </trkpt>
      <trkpt lat="41.34162" lon="19.4476">
        <ele>1.074131</ele>
        <time>2022-02-25T01:33:07.877Z</time>
      </trkpt>
      <trkpt lat="41.3424" lon="19.44951">
        <ele>-0.195351</ele>
        <time>2022-02-25T01:33:47.891Z</time>
      </trkpt>
      <trkpt lat="41.34283" lon="19.45049">
        <ele>-0.751536</ele>
        <time>2022-02-25T01:34:08.080Z</time>
      </trkpt>
      <trkpt lat="41.34303" lon="19.45097">
        <ele>-1.066459</ele>
        <time>2022-02-25T01:34:17.807Z</time>
      </trkpt>
      <trkpt lat="41.34333" lon="19.45169">
        <ele>-1.537412</ele>
        <time>2022-02-25T01:34:32.194Z</time>
      </trkpt>
      <trkpt lat="41.34416" lon="19.45368">
        <ele>-2.30423</ele>
        <time>2022-02-25T01:35:14.365Z</time>
      </trkpt>
      <trkpt lat="41.3442" lon="19.45377">
        <ele>-2.32268</ele>
        <time>2022-02-25T01:35:16.322Z</time>
      </trkpt>
      <trkpt lat="41.34442" lon="19.45432">
        <ele>-2.439535</ele>
        <time>2022-02-25T01:35:28.877Z</time>
      </trkpt>
      <trkpt lat="41.34478" lon="19.45517">
        <ele>-2.290861</ele>
        <time>2022-02-25T01:35:49.389Z</time>
      </trkpt>
      <trkpt lat="41.34505" lon="19.45583">
        <ele>-2.074291</ele>
        <time>2022-02-25T01:36:05.524Z</time>
      </trkpt>
      <trkpt lat="41.34522" lon="19.45624">
        <ele>-1.936331</ele>
        <time>2022-02-25T01:36:15.909Z</time>
      </trkpt>
      <trkpt lat="41.34548" lon="19.45689">
        <ele>-1.780085</ele>
        <time>2022-02-25T01:36:31.706Z</time>
      </trkpt>
      <trkpt lat="41.34581" lon="19.45772">
        <ele>-1.725251</ele>
        <time>2022-02-25T01:36:51.855Z</time>
      </trkpt>
      <trkpt lat="41.34584" lon="19.4578">
        <ele>-1.719889</ele>
        <time>2022-02-25T01:36:53.800Z</time>
      </trkpt>
      <trkpt lat="41.34591" lon="19.45797">
        <ele>-1.709116</ele>
        <time>2022-02-25T01:36:57.644Z</time>
      </trkpt>
      <trkpt lat="41.34593" lon="19.45803">
        <ele>-1.705213</ele>
        <time>2022-02-25T01:36:58.937Z</time>
      </trkpt>
      <trkpt lat="41.34756" lon="19.46198">
        <ele>-2.271527</ele>
        <time>2022-02-25T01:38:23.925Z</time>
      </trkpt>
      <trkpt lat="41.34807" lon="19.46321">
        <ele>-2.118604</ele>
        <time>2022-02-25T01:38:54.630Z</time>
      </trkpt>
      <trkpt lat="41.34822" lon="19.46363">
        <ele>-1.954517</ele>
        <time>2022-02-25T01:39:04.912Z</time>
      </trkpt>
      <trkpt lat="41.34837" lon="19.46404">
        <ele>-1.794317</ele>
        <time>2022-02-25T01:39:15.024Z</time>
      </trkpt>
      <trkpt lat="41.34847" lon="19.46431">
        <ele>-1.686188</ele>
        <time>2022-02-25T01:39:21.938Z</time>
      </trkpt>
      <trkpt lat="41.34845" lon="19.46434">
        <ele>-1.673248</ele>
        <time>2022-02-25T01:39:22.698Z</time>
      </trkpt>
      <trkpt lat="41.34843" lon="19.46441">
        <ele>-1.64739</ele>
        <time>2022-02-25T01:39:24.256Z</time>
      </trkpt>
      <trkpt lat="41.34843" lon="19.46445">
        <ele>-1.634302</ele>
        <time>2022-02-25T01:39:25.013Z</time>
      </trkpt>
      <trkpt lat="41.34843" lon="19.46448">
        <ele>-1.62339</ele>
        <time>2022-02-25T01:39:25.695Z</time>
      </trkpt>
      <trkpt lat="41.34847" lon="19.46459">
        <ele>-1.581354</ele>
        <time>2022-02-25T01:39:28.321Z</time>
      </trkpt>
      <trkpt lat="41.34856" lon="19.46465">
        <ele>-1.534363</ele>
        <time>2022-02-25T01:39:31.279Z</time>
      </trkpt>
      <trkpt lat="41.34858" lon="19.46465">
        <ele>-1.525456</ele>
        <time>2022-02-25T01:39:31.868Z</time>
      </trkpt>
      <trkpt lat="41.34879" lon="19.46504">
        <ele>-1.365524</ele>
        <time>2022-02-25T01:39:42.220Z</time>
      </trkpt>
      <trkpt lat="41.34891" lon="19.4653">
        <ele>-1.344557</ele>
        <time>2022-02-25T01:39:48.354Z</time>
      </trkpt>
      <trkpt lat="41.34912" lon="19.4657">
        <ele>-1.309962</ele>
        <time>2022-02-25T01:39:58.323Z</time>
      </trkpt>
      <trkpt lat="41.35077" lon="19.46968">
        <ele>-1.084309</ele>
        <time>2022-02-25T01:41:29.453Z</time>
      </trkpt>
      <trkpt lat="41.35253" lon="19.47382">
        <ele>-0.101635</ele>
        <time>2022-02-25T01:43:09.768Z</time>
      </trkpt>
      <trkpt lat="41.35259" lon="19.4741">
        <ele>-0.039289</ele>
        <time>2022-02-25T01:43:16.323Z</time>
      </trkpt>
      <trkpt lat="41.35261" lon="19.47441">
        <ele>0.027293</ele>
        <time>2022-02-25T01:43:23.098Z</time>
      </trkpt>
      <trkpt lat="41.3526" lon="19.47479">
        <ele>0.106878</ele>
        <time>2022-02-25T01:43:31.217Z</time>
      </trkpt>
      <trkpt lat="41.3526" lon="19.475">
        <ele>0.15152</ele>
        <time>2022-02-25T01:43:35.552Z</time>
      </trkpt>
      <trkpt lat="41.3526" lon="19.4752">
        <ele>0.194889</ele>
        <time>2022-02-25T01:43:39.771Z</time>
      </trkpt>
      <trkpt lat="41.35263" lon="19.47529">
        <ele>0.216087</ele>
        <time>2022-02-25T01:43:41.837Z</time>
      </trkpt>
      <trkpt lat="41.3528" lon="19.47545">
        <ele>0.274737</ele>
        <time>2022-02-25T01:43:47.443Z</time>
      </trkpt>
      <trkpt lat="41.35304" lon="19.47566">
        <ele>0.322292</ele>
        <time>2022-02-25T01:43:55.415Z</time>
      </trkpt>
      <trkpt lat="41.35345" lon="19.47601">
        <ele>0.387417</ele>
        <time>2022-02-25T01:44:08.738Z</time>
      </trkpt>
      <trkpt lat="41.35398" lon="19.47647">
        <ele>0.473284</ele>
        <time>2022-02-25T01:44:25.597Z</time>
      </trkpt>
      <trkpt lat="41.35466" lon="19.47706">
        <ele>0.833227</ele>
        <time>2022-02-25T01:44:47.779Z</time>
      </trkpt>
      <trkpt lat="41.35557" lon="19.47786">
        <ele>1.734599</ele>
        <time>2022-02-25T01:45:22.262Z</time>
      </trkpt>
      <trkpt lat="41.35566" lon="19.47794">
        <ele>1.829833</ele>
        <time>2022-02-25T01:45:26.015Z</time>
      </trkpt>
      <trkpt lat="41.3558" lon="19.47807">
        <ele>1.966722</ele>
        <time>2022-02-25T01:45:31.256Z</time>
      </trkpt>
      <trkpt lat="41.35612" lon="19.47835">
        <ele>2.254233</ele>
        <time>2022-02-25T01:45:43.292Z</time>
      </trkpt>
      <trkpt lat="41.3562" lon="19.47842">
        <ele>2.332406</ele>
        <time>2022-02-25T01:45:46.690Z</time>
      </trkpt>
      <trkpt lat="41.3565" lon="19.47867">
        <ele>2.592238</ele>
        <time>2022-02-25T01:45:57.506Z</time>
      </trkpt>
      <trkpt lat="41.35657" lon="19.47873">
        <ele>2.654652</ele>
        <time>2022-02-25T01:46:00.075Z</time>
      </trkpt>
      <trkpt lat="41.35691" lon="19.47905">
        <ele>2.961458</ele>
        <time>2022-02-25T01:46:12.445Z</time>
      </trkpt>
      <trkpt lat="41.35728" lon="19.47939">
        <ele>3.295112</ele>
        <time>2022-02-25T01:46:25.646Z</time>
      </trkpt>
      <trkpt lat="41.35811" lon="19.48032">
        <ele>3.789618</ele>
        <time>2022-02-25T01:46:56.325Z</time>
      </trkpt>
      <trkpt lat="41.35836" lon="19.48067">
        <ele>3.942745</ele>
        <time>2022-02-25T01:47:06.323Z</time>
      </trkpt>
      <trkpt lat="41.3584" lon="19.4808">
        <ele>3.990714</ele>
        <time>2022-02-25T01:47:09.514Z</time>
      </trkpt>
      <trkpt lat="41.35844" lon="19.4809">
        <ele>4.025091</ele>
        <time>2022-02-25T01:47:11.787Z</time>
      </trkpt>
      <trkpt lat="41.35847" lon="19.48104">
        <ele>4.073342</ele>
        <time>2022-02-25T01:47:14.859Z</time>
      </trkpt>
      <trkpt lat="41.35876" lon="19.48216">
        <ele>5.87491</ele>
        <time>2022-02-25T01:47:42.353Z</time>
      </trkpt>
      <trkpt lat="41.35892" lon="19.48275">
        <ele>6.963501</ele>
        <time>2022-02-25T01:48:00.545Z</time>
      </trkpt>
      <trkpt lat="41.35895" lon="19.48285">
        <ele>7.14519</ele>
        <time>2022-02-25T01:48:03.811Z</time>
      </trkpt>
      <trkpt lat="41.35898" lon="19.48301">
        <ele>7.42371</ele>
        <time>2022-02-25T01:48:08.895Z</time>
      </trkpt>
      <trkpt lat="41.35909" lon="19.48338">
        <ele>8.120484</ele>
        <time>2022-02-25T01:48:22.801Z</time>
      </trkpt>
      <trkpt lat="41.35916" lon="19.48351">
        <ele>8.452156</ele>
        <time>2022-02-25T01:48:28.405Z</time>
      </trkpt>
      <trkpt lat="41.35925" lon="19.4837">
        <ele>9.050867</ele>
        <time>2022-02-25T01:48:36.943Z</time>
      </trkpt>
      <trkpt lat="41.35942" lon="19.48417">
        <ele>10.451012</ele>
        <time>2022-02-25T01:48:56.516Z</time>
      </trkpt>
      <trkpt lat="41.35954" lon="19.48453">
        <ele>11.500122</ele>
        <time>2022-02-25T01:49:10.682Z</time>
      </trkpt>
      <trkpt lat="41.35956" lon="19.48461">
        <ele>11.726682</ele>
        <time>2022-02-25T01:49:13.584Z</time>
      </trkpt>
      <trkpt lat="41.35976" lon="19.48527">
        <ele>13.628865</ele>
        <time>2022-02-25T01:49:37.390Z</time>
      </trkpt>
      <trkpt lat="41.35978" lon="19.48535">
        <ele>13.860373</ele>
        <time>2022-02-25T01:49:39.779Z</time>
      </trkpt>
      <trkpt lat="41.35982" lon="19.4855">
        <ele>14.270937</ele>
        <time>2022-02-25T01:49:44.315Z</time>
      </trkpt>
      <trkpt lat="41.35984" lon="19.48559">
        <ele>14.534693</ele>
        <time>2022-02-25T01:49:47.484Z</time>
      </trkpt>
      <trkpt lat="41.35987" lon="19.48596">
        <ele>14.254064</ele>
        <time>2022-02-25T01:49:56.384Z</time>
      </trkpt>
      <trkpt lat="41.35992" lon="19.48607">
        <ele>14.073189</ele>
        <time>2022-02-25T01:49:59.753Z</time>
      </trkpt>
      <trkpt lat="41.35995" lon="19.48613">
        <ele>13.958963</ele>
        <time>2022-02-25T01:50:01.991Z</time>
      </trkpt>
      <trkpt lat="41.36" lon="19.4862">
        <ele>13.822576</ele>
        <time>2022-02-25T01:50:03.559Z</time>
      </trkpt>
      <trkpt lat="41.36031" lon="19.48655">
        <ele>13.05996</ele>
        <time>2022-02-25T01:50:13.045Z</time>
      </trkpt>
      <trkpt lat="41.36149" lon="19.48783">
        <ele>9.419174</ele>
        <time>2022-02-25T01:50:41.331Z</time>
      </trkpt>
      <trkpt lat="41.36163" lon="19.488">
        <ele>8.829252</ele>
        <time>2022-02-25T01:50:44.684Z</time>
      </trkpt>
      <trkpt lat="41.36166" lon="19.48805">
        <ele>8.663877</ele>
        <time>2022-02-25T01:50:45.695Z</time>
      </trkpt>
      <trkpt lat="41.36172" lon="19.48811">
        <ele>8.425937</ele>
        <time>2022-02-25T01:50:47.147Z</time>
      </trkpt>
      <trkpt lat="41.36224" lon="19.48889">
        <ele>5.912782</ele>
        <time>2022-02-25T01:51:02.669Z</time>
      </trkpt>
      <trkpt lat="41.36514" lon="19.49243">
        <ele>4.062473</ele>
        <time>2022-02-25T01:52:42.892Z</time>
      </trkpt>
      <trkpt lat="41.36539" lon="19.49273">
        <ele>4.015583</ele>
        <time>2022-02-25T01:52:51.847Z</time>
      </trkpt>
      <trkpt lat="41.36712" lon="19.49487">
        <ele>3.540439</ele>
        <time>2022-02-25T01:53:53.248Z</time>
      </trkpt>
      <trkpt lat="41.36741" lon="19.49525">
        <ele>3.430688</ele>
        <time>2022-02-25T01:54:03.455Z</time>
      </trkpt>
      <trkpt lat="41.36745" lon="19.49534">
        <ele>3.409944</ele>
        <time>2022-02-25T01:54:05.309Z</time>
      </trkpt>
      <trkpt lat="41.36749" lon="19.49542">
        <ele>3.390832</ele>
        <time>2022-02-25T01:54:07.009Z</time>
      </trkpt>
      <trkpt lat="41.36755" lon="19.4956">
        <ele>3.352373</ele>
        <time>2022-02-25T01:54:10.770Z</time>
      </trkpt>
      <trkpt lat="41.36772" lon="19.49635">
        <ele>3.254775</ele>
        <time>2022-02-25T01:54:24.956Z</time>
      </trkpt>
      <trkpt lat="41.36792" lon="19.49721">
        <ele>3.141777</ele>
        <time>2022-02-25T01:54:42.473Z</time>
      </trkpt>
      <trkpt lat="41.36804" lon="19.49772">
        <ele>3.075514</ele>
        <time>2022-02-25T01:54:53.692Z</time>
      </trkpt>
      <trkpt lat="41.36808" lon="19.49789">
        <ele>3.065082</ele>
        <time>2022-02-25T01:54:57.381Z</time>
      </trkpt>
      <trkpt lat="41.36812" lon="19.49806">
        <ele>3.115308</ele>
        <time>2022-02-25T01:55:01.365Z</time>
      </trkpt>
      <trkpt lat="41.36818" lon="19.49831">
        <ele>3.187867</ele>
        <time>2022-02-25T01:55:06.785Z</time>
      </trkpt>
      <trkpt lat="41.36824" lon="19.49856">
        <ele>3.261823</ele>
        <time>2022-02-25T01:55:12.563Z</time>
      </trkpt>
      <trkpt lat="41.36846" lon="19.49951">
        <ele>3.538844</ele>
        <time>2022-02-25T01:55:33.875Z</time>
      </trkpt>
      <trkpt lat="41.36869" lon="19.50045">
        <ele>3.747148</ele>
        <time>2022-02-25T01:55:55.453Z</time>
      </trkpt>
      <trkpt lat="41.36875" lon="19.50073">
        <ele>3.768697</ele>
        <time>2022-02-25T01:56:01.535Z</time>
      </trkpt>
      <trkpt lat="41.36887" lon="19.50127">
        <ele>3.809958</ele>
        <time>2022-02-25T01:56:12.873Z</time>
      </trkpt>
      <trkpt lat="41.36924" lon="19.50281">
        <ele>3.922185</ele>
        <time>2022-02-25T01:56:44.640Z</time>
      </trkpt>
      <trkpt lat="41.36928" lon="19.50299">
        <ele>3.932739</ele>
        <time>2022-02-25T01:56:48.437Z</time>
      </trkpt>
      <trkpt lat="41.36963" lon="19.50445">
        <ele>4.019104</ele>
        <time>2022-02-25T01:57:19.640Z</time>
      </trkpt>
      <trkpt lat="41.37001" lon="19.50636">
        <ele>4.359695</ele>
        <time>2022-02-25T01:58:00.443Z</time>
      </trkpt>
      <trkpt lat="41.37037" lon="19.50883">
        <ele>5.233593</ele>
        <time>2022-02-25T01:58:55.478Z</time>
      </trkpt>
      <trkpt lat="41.37054" lon="19.5101">
        <ele>5.723519</ele>
        <time>2022-02-25T01:59:24.143Z</time>
      </trkpt>
      <trkpt lat="41.37077" lon="19.51186">
        <ele>6.351253</ele>
        <time>2022-02-25T02:00:03.162Z</time>
      </trkpt>
      <trkpt lat="41.37082" lon="19.5123">
        <ele>6.43496</ele>
        <time>2022-02-25T02:00:12.171Z</time>
      </trkpt>
      <trkpt lat="41.37118" lon="19.51491">
        <ele>6.961037</ele>
        <time>2022-02-25T02:01:07.385Z</time>
      </trkpt>
      <trkpt lat="41.37159" lon="19.51793">
        <ele>7.587803</ele>
        <time>2022-02-25T02:02:12.846Z</time>
      </trkpt>
      <trkpt lat="41.372" lon="19.52089">
        <ele>7.967332</ele>
        <time>2022-02-25T02:03:13.819Z</time>
      </trkpt>
      <trkpt lat="41.37283" lon="19.52689">
        <ele>9.584376</ele>
        <time>2022-02-25T02:05:22.799Z</time>
      </trkpt>
      <trkpt lat="41.37315" lon="19.52923">
        <ele>10.932803</ele>
        <time>2022-02-25T02:06:18.780Z</time>
      </trkpt>
      <trkpt lat="41.37332" lon="19.53043">
        <ele>11.717017</ele>
        <time>2022-02-25T02:06:47.035Z</time>
      </trkpt>
      <trkpt lat="41.37335" lon="19.53077">
        <ele>11.89941</ele>
        <time>2022-02-25T02:06:54.810Z</time>
      </trkpt>
      <trkpt lat="41.37337" lon="19.53099">
        <ele>11.977213</ele>
        <time>2022-02-25T02:06:59.813Z</time>
      </trkpt>
      <trkpt lat="41.37353" lon="19.53369">
        <ele>12.88947</ele>
        <time>2022-02-25T02:07:57.995Z</time>
      </trkpt>
      <trkpt lat="41.37356" lon="19.53458">
        <ele>13.142413</ele>
        <time>2022-02-25T02:08:16.786Z</time>
      </trkpt>
      <trkpt lat="41.37317" lon="19.53471">
        <ele>13.295317</ele>
        <time>2022-02-25T02:08:28.257Z</time>
      </trkpt>
      <trkpt lat="41.37297" lon="19.53476">
        <ele>13.37441</ele>
        <time>2022-02-25T02:08:34.242Z</time>
      </trkpt>
      <trkpt lat="41.36991" lon="19.53546">
        <ele>14.206313</ele>
        <time>2022-02-25T02:10:02.595Z</time>
      </trkpt>
      <trkpt lat="41.36908" lon="19.53565">
        <ele>14.141543</ele>
        <time>2022-02-25T02:10:23.886Z</time>
      </trkpt>
      <trkpt lat="41.36821" lon="19.53589">
        <ele>13.800115</ele>
        <time>2022-02-25T02:10:45.488Z</time>
      </trkpt>
      <trkpt lat="41.36818" lon="19.5359">
        <ele>13.788351</ele>
        <time>2022-02-25T02:10:46.095Z</time>
      </trkpt>
      <trkpt lat="41.36736" lon="19.53629">
        <ele>13.584841</ele>
        <time>2022-02-25T02:11:08.644Z</time>
      </trkpt>
      <trkpt lat="41.3665" lon="19.53695">
        <ele>13.600836</ele>
        <time>2022-02-25T02:11:35.271Z</time>
      </trkpt>
      <trkpt lat="41.36595" lon="19.5374">
        <ele>13.60921</ele>
        <time>2022-02-25T02:11:53.450Z</time>
      </trkpt>
      <trkpt lat="41.36448" lon="19.53855">
        <ele>13.614774</ele>
        <time>2022-02-25T02:12:38.554Z</time>
      </trkpt>
      <trkpt lat="41.36405" lon="19.5389">
        <ele>13.610544</ele>
        <time>2022-02-25T02:12:51.718Z</time>
      </trkpt>
      <trkpt lat="41.36378" lon="19.53912">
        <ele>13.607821</ele>
        <time>2022-02-25T02:13:00.336Z</time>
      </trkpt>
      <trkpt lat="41.36334" lon="19.53949">
        <ele>13.603391</ele>
        <time>2022-02-25T02:13:14.272Z</time>
      </trkpt>
      <trkpt lat="41.36285" lon="19.53988">
        <ele>13.616904</ele>
        <time>2022-02-25T02:13:29.357Z</time>
      </trkpt>
      <trkpt lat="41.36227" lon="19.54028">
        <ele>13.67598</ele>
        <time>2022-02-25T02:13:46.880Z</time>
      </trkpt>
      <trkpt lat="41.36115" lon="19.541">
        <ele>13.872454</ele>
        <time>2022-02-25T02:14:20.848Z</time>
      </trkpt>
      <trkpt lat="41.361" lon="19.5411">
        <ele>13.940467</ele>
        <time>2022-02-25T02:14:25.739Z</time>
      </trkpt>
      <trkpt lat="41.3608" lon="19.54122">
        <ele>14.025942</ele>
        <time>2022-02-25T02:14:31.827Z</time>
      </trkpt>
      <trkpt lat="41.36015" lon="19.54162">
        <ele>14.307841</ele>
        <time>2022-02-25T02:14:52.617Z</time>
      </trkpt>
      <trkpt lat="41.36059" lon="19.54368">
        <ele>14.912086</ele>
        <time>2022-02-25T02:15:39.936Z</time>
      </trkpt>
      <trkpt lat="41.36076" lon="19.54446">
        <ele>15.134495</ele>
        <time>2022-02-25T02:15:56.560Z</time>
      </trkpt>
      <trkpt lat="41.36079" lon="19.54491">
        <ele>15.098822</ele>
        <time>2022-02-25T02:16:05.118Z</time>
      </trkpt>
      <trkpt lat="41.3608" lon="19.54499">
        <ele>15.09183</ele>
        <time>2022-02-25T02:16:06.886Z</time>
      </trkpt>
      <trkpt lat="41.36081" lon="19.54519">
        <ele>15.076242</ele>
        <time>2022-02-25T02:16:10.533Z</time>
      </trkpt>
      <trkpt lat="41.36089" lon="19.54614">
        <ele>14.999293</ele>
        <time>2022-02-25T02:16:29.110Z</time>
      </trkpt>
      <trkpt lat="41.3609" lon="19.54664">
        <ele>14.959897</ele>
        <time>2022-02-25T02:16:38.964Z</time>
      </trkpt>
      <trkpt lat="41.3609" lon="19.5468">
        <ele>14.946365</ele>
        <time>2022-02-25T02:16:42.147Z</time>
      </trkpt>
      <trkpt lat="41.36087" lon="19.54706">
        <ele>14.93589</ele>
        <time>2022-02-25T02:16:47.744Z</time>
      </trkpt>
      <trkpt lat="41.3608" lon="19.54737">
        <ele>14.924879</ele>
        <time>2022-02-25T02:16:54.227Z</time>
      </trkpt>
      <trkpt lat="41.36078" lon="19.5475">
        <ele>14.920525</ele>
        <time>2022-02-25T02:16:56.651Z</time>
      </trkpt>
      <trkpt lat="41.36073" lon="19.54775">
        <ele>14.911402</ele>
        <time>2022-02-25T02:17:02.340Z</time>
      </trkpt>
      <trkpt lat="41.36068" lon="19.54795">
        <ele>14.904339</ele>
        <time>2022-02-25T02:17:06.013Z</time>
      </trkpt>
      <trkpt lat="41.36068" lon="19.54799">
        <ele>14.90317</ele>
        <time>2022-02-25T02:17:07.150Z</time>
      </trkpt>
      <trkpt lat="41.36049" lon="19.54869">
        <ele>14.877692</ele>
        <time>2022-02-25T02:17:21.207Z</time>
      </trkpt>
      <trkpt lat="41.36046" lon="19.54897">
        <ele>14.868312</ele>
        <time>2022-02-25T02:17:26.724Z</time>
      </trkpt>
      <trkpt lat="41.36048" lon="19.54913">
        <ele>14.862658</ele>
        <time>2022-02-25T02:17:30.220Z</time>
      </trkpt>
      <trkpt lat="41.36072" lon="19.54913">
        <ele>14.953488</ele>
        <time>2022-02-25T02:17:36.781Z</time>
      </trkpt>
      <trkpt lat="41.36133" lon="19.54912">
        <ele>15.202387</ele>
        <time>2022-02-25T02:17:54.402Z</time>
      </trkpt>
      <trkpt lat="41.36157" lon="19.54913">
        <ele>15.30078</ele>
        <time>2022-02-25T02:18:01.508Z</time>
      </trkpt>
      <trkpt lat="41.36178" lon="19.54915">
        <ele>15.385552</ele>
        <time>2022-02-25T02:18:07.084Z</time>
      </trkpt>
      <trkpt lat="41.36197" lon="19.54918">
        <ele>15.466009</ele>
        <time>2022-02-25T02:18:13.040Z</time>
      </trkpt>
      <trkpt lat="41.3621" lon="19.5492">
        <ele>15.519436</ele>
        <time>2022-02-25T02:18:16.620Z</time>
      </trkpt>
      <trkpt lat="41.36229" lon="19.54925">
        <ele>15.600933</ele>
        <time>2022-02-25T02:18:22.199Z</time>
      </trkpt>
      <trkpt lat="41.36255" lon="19.54932">
        <ele>15.820247</ele>
        <time>2022-02-25T02:18:30.017Z</time>
      </trkpt>
      <trkpt lat="41.36293" lon="19.54946">
        <ele>16.154873</ele>
        <time>2022-02-25T02:18:42.385Z</time>
      </trkpt>
      <trkpt lat="41.3632" lon="19.54963">
        <ele>16.408634</ele>
        <time>2022-02-25T02:18:51.784Z</time>
      </trkpt>
      <trkpt lat="41.36329" lon="19.54971">
        <ele>16.501685</ele>
        <time>2022-02-25T02:18:55.331Z</time>
      </trkpt>
      <trkpt lat="41.36348" lon="19.5499">
        <ele>16.701164</ele>
        <time>2022-02-25T02:19:02.605Z</time>
      </trkpt>
      <trkpt lat="41.36356" lon="19.55">
        <ele>16.798485</ele>
        <time>2022-02-25T02:19:06.305Z</time>
      </trkpt>
      <trkpt lat="41.36371" lon="19.55017">
        <ele>16.962937</ele>
        <time>2022-02-25T02:19:12.209Z</time>
      </trkpt>
      <trkpt lat="41.36389" lon="19.55038">
        <ele>17.189275</ele>
        <time>2022-02-25T02:19:19.631Z</time>
      </trkpt>
      <trkpt lat="41.36425" lon="19.55076">
        <ele>17.740774</ele>
        <time>2022-02-25T02:19:33.307Z</time>
      </trkpt>
      <trkpt lat="41.36447" lon="19.55101">
        <ele>18.088276</ele>
        <time>2022-02-25T02:19:42.355Z</time>
      </trkpt>
      <trkpt lat="41.3649" lon="19.5515">
        <ele>18.78109</ele>
        <time>2022-02-25T02:20:00.511Z</time>
      </trkpt>
      <trkpt lat="41.36525" lon="19.55199">
        <ele>19.513146</ele>
        <time>2022-02-25T02:20:17.378Z</time>
      </trkpt>
      <trkpt lat="41.36559" lon="19.55263">
        <ele>21.191068</ele>
        <time>2022-02-25T02:20:41.368Z</time>
      </trkpt>
      <trkpt lat="41.36605" lon="19.55364">
        <ele>23.701359</ele>
        <time>2022-02-25T02:21:18.309Z</time>
      </trkpt>
      <trkpt lat="41.36622" lon="19.55402">
        <ele>24.597631</ele>
        <time>2022-02-25T02:21:32.060Z</time>
      </trkpt>
      <trkpt lat="41.36633" lon="19.55427">
        <ele>25.148984</ele>
        <time>2022-02-25T02:21:41.771Z</time>
      </trkpt>
      <trkpt lat="41.36651" lon="19.55465">
        <ele>25.975859</ele>
        <time>2022-02-25T02:21:55.991Z</time>
      </trkpt>
      <trkpt lat="41.36678" lon="19.55532">
        <ele>27.393699</ele>
        <time>2022-02-25T02:22:19.042Z</time>
      </trkpt>
      <trkpt lat="41.36696" lon="19.55578">
        <ele>28.350647</ele>
        <time>2022-02-25T02:22:33.578Z</time>
      </trkpt>
      <trkpt lat="41.36706" lon="19.55604">
        <ele>28.822876</ele>
        <time>2022-02-25T02:22:40.770Z</time>
      </trkpt>
      <trkpt lat="41.36712" lon="19.55618">
        <ele>28.765132</ele>
        <time>2022-02-25T02:22:44.384Z</time>
      </trkpt>
      <trkpt lat="41.36757" lon="19.55763">
        <ele>28.20176</ele>
        <time>2022-02-25T02:23:15.445Z</time>
      </trkpt>
      <trkpt lat="41.36786" lon="19.55934">
        <ele>26.133449</ele>
        <time>2022-02-25T02:23:42.220Z</time>
      </trkpt>
      <trkpt lat="41.36791" lon="19.55977">
        <ele>25.413622</ele>
        <time>2022-02-25T02:23:48.875Z</time>
      </trkpt>
      <trkpt lat="41.36793" lon="19.55998">
        <ele>25.058656</ele>
        <time>2022-02-25T02:23:52.112Z</time>
      </trkpt>
      <trkpt lat="41.36793" lon="19.56047">
        <ele>24.238972</ele>
        <time>2022-02-25T02:23:59.942Z</time>
      </trkpt>
      <trkpt lat="41.36786" lon="19.56097">
        <ele>23.911171</ele>
        <time>2022-02-25T02:24:08.134Z</time>
      </trkpt>
      <trkpt lat="41.36771" lon="19.56169">
        <ele>23.71703</ele>
        <time>2022-02-25T02:24:21.011Z</time>
      </trkpt>
      <trkpt lat="41.36639" lon="19.56597">
        <ele>24.580894</ele>
        <time>2022-02-25T02:26:04.038Z</time>
      </trkpt>
      <trkpt lat="41.36627" lon="19.56635">
        <ele>24.630986</ele>
        <time>2022-02-25T02:26:12.380Z</time>
      </trkpt>
      <trkpt lat="41.36593" lon="19.56748">
        <ele>24.658156</ele>
        <time>2022-02-25T02:26:36.490Z</time>
      </trkpt>
      <trkpt lat="41.36575" lon="19.56804">
        <ele>24.315968</ele>
        <time>2022-02-25T02:26:47.379Z</time>
      </trkpt>
      <trkpt lat="41.36556" lon="19.56864">
        <ele>23.956753</ele>
        <time>2022-02-25T02:26:58.668Z</time>
      </trkpt>
      <trkpt lat="41.36526" lon="19.56975">
        <ele>23.281619</ele>
        <time>2022-02-25T02:27:19.508Z</time>
      </trkpt>
      <trkpt lat="41.3652" lon="19.56994">
        <ele>23.150339</ele>
        <time>2022-02-25T02:27:23.254Z</time>
      </trkpt>
      <trkpt lat="41.3649" lon="19.57132">
        <ele>22.272171</ele>
        <time>2022-02-25T02:27:48.030Z</time>
      </trkpt>
      <trkpt lat="41.36463" lon="19.57328">
        <ele>21.806427</ele>
        <time>2022-02-25T02:28:26.035Z</time>
      </trkpt>
      <trkpt lat="41.36457" lon="19.57407">
        <ele>21.730727</ele>
        <time>2022-02-25T02:28:42.101Z</time>
      </trkpt>
      <trkpt lat="41.36455" lon="19.57434">
        <ele>21.756021</ele>
        <time>2022-02-25T02:28:47.584Z</time>
      </trkpt>
      <trkpt lat="41.36454" lon="19.57621">
        <ele>22.340219</ele>
        <time>2022-02-25T02:29:28.025Z</time>
      </trkpt>
      <trkpt lat="41.36462" lon="19.5776">
        <ele>22.654857</ele>
        <time>2022-02-25T02:29:59.337Z</time>
      </trkpt>
      <trkpt lat="41.36464" lon="19.57779">
        <ele>22.690043</ele>
        <time>2022-02-25T02:30:03.246Z</time>
      </trkpt>
      <trkpt lat="41.36465" lon="19.57789">
        <ele>22.709781</ele>
        <time>2022-02-25T02:30:05.507Z</time>
      </trkpt>
      <trkpt lat="41.36484" lon="19.5791">
        <ele>22.886284</ele>
        <time>2022-02-25T02:30:29.995Z</time>
      </trkpt>
      <trkpt lat="41.36503" lon="19.58031">
        <ele>22.537219</ele>
        <time>2022-02-25T02:30:53.270Z</time>
      </trkpt>
      <trkpt lat="41.36516" lon="19.5811">
        <ele>22.31004</ele>
        <time>2022-02-25T02:31:07.974Z</time>
      </trkpt>
      <trkpt lat="41.36545" lon="19.58272">
        <ele>21.936999</ele>
        <time>2022-02-25T02:31:39.364Z</time>
      </trkpt>
      <trkpt lat="41.36551" lon="19.58304">
        <ele>21.86458</ele>
        <time>2022-02-25T02:31:45.954Z</time>
      </trkpt>
      <trkpt lat="41.36571" lon="19.58414">
        <ele>21.590729</ele>
        <time>2022-02-25T02:32:08.094Z</time>
      </trkpt>
      <trkpt lat="41.36581" lon="19.58466">
        <ele>21.440694</ele>
        <time>2022-02-25T02:32:18.409Z</time>
      </trkpt>
      <trkpt lat="41.36593" lon="19.58531">
        <ele>21.253886</ele>
        <time>2022-02-25T02:32:30.962Z</time>
      </trkpt>
      <trkpt lat="41.36613" lon="19.58645">
        <ele>20.906664</ele>
        <time>2022-02-25T02:32:52.478Z</time>
      </trkpt>
      <trkpt lat="41.36624" lon="19.58714">
        <ele>20.679533</ele>
        <time>2022-02-25T02:33:05.542Z</time>
      </trkpt>
      <trkpt lat="41.36636" lon="19.58785">
        <ele>20.446244</ele>
        <time>2022-02-25T02:33:19.123Z</time>
      </trkpt>
      <trkpt lat="41.36646" lon="19.58837">
        <ele>20.278089</ele>
        <time>2022-02-25T02:33:29.410Z</time>
      </trkpt>
      <trkpt lat="41.36649" lon="19.58849">
        <ele>20.251066</ele>
        <time>2022-02-25T02:33:31.807Z</time>
      </trkpt>
      <trkpt lat="41.3666" lon="19.58914">
        <ele>20.108042</ele>
        <time>2022-02-25T02:33:44.328Z</time>
      </trkpt>
      <trkpt lat="41.36683" lon="19.5903">
        <ele>19.848485</ele>
        <time>2022-02-25T02:34:07.102Z</time>
      </trkpt>
      <trkpt lat="41.36696" lon="19.59096">
        <ele>19.777548</ele>
        <time>2022-02-25T02:34:20.398Z</time>
      </trkpt>
      <trkpt lat="41.36718" lon="19.59209">
        <ele>19.786597</ele>
        <time>2022-02-25T02:34:43.492Z</time>
      </trkpt>
      <trkpt lat="41.36729" lon="19.5926">
        <ele>19.790687</ele>
        <time>2022-02-25T02:34:54.198Z</time>
      </trkpt>
      <trkpt lat="41.36752" lon="19.59363">
        <ele>20.120262</ele>
        <time>2022-02-25T02:35:17.258Z</time>
      </trkpt>
      <trkpt lat="41.36763" lon="19.59407">
        <ele>20.333934</ele>
        <time>2022-02-25T02:35:27.846Z</time>
      </trkpt>
      <trkpt lat="41.36818" lon="19.59605">
        <ele>21.364962</ele>
        <time>2022-02-25T02:36:15.744Z</time>
      </trkpt>
      <trkpt lat="41.36835" lon="19.59661">
        <ele>21.692257</ele>
        <time>2022-02-25T02:36:29.534Z</time>
      </trkpt>
      <trkpt lat="41.3688" lon="19.59809">
        <ele>22.634832</ele>
        <time>2022-02-25T02:37:05.185Z</time>
      </trkpt>
      <trkpt lat="41.36886" lon="19.59827">
        <ele>22.766657</ele>
        <time>2022-02-25T02:37:09.749Z</time>
      </trkpt>
      <trkpt lat="41.36908" lon="19.59896">
        <ele>23.274396</ele>
        <time>2022-02-25T02:37:27.219Z</time>
      </trkpt>
      <trkpt lat="41.3691" lon="19.59906">
        <ele>23.340738</ele>
        <time>2022-02-25T02:37:29.621Z</time>
      </trkpt>
      <trkpt lat="41.36933" lon="19.59982">
        <ele>23.946542</ele>
        <time>2022-02-25T02:37:49.085Z</time>
      </trkpt>
      <trkpt lat="41.36977" lon="19.60126">
        <ele>25.521064</ele>
        <time>2022-02-25T02:38:26.987Z</time>
      </trkpt>
      <trkpt lat="41.37029" lon="19.60304">
        <ele>28.237588</ele>
        <time>2022-02-25T02:39:17.457Z</time>
      </trkpt>
      <trkpt lat="41.37048" lon="19.60362">
        <ele>29.275143</ele>
        <time>2022-02-25T02:39:36.602Z</time>
      </trkpt>
      <trkpt lat="41.3706" lon="19.60404">
        <ele>30.011333</ele>
        <time>2022-02-25T02:39:50.169Z</time>
      </trkpt>
      <trkpt lat="41.37066" lon="19.60423">
        <ele>30.285796</ele>
        <time>2022-02-25T02:39:56.652Z</time>
      </trkpt>
      <trkpt lat="41.37073" lon="19.60444">
        <ele>30.535261</ele>
        <time>2022-02-25T02:40:02.461Z</time>
      </trkpt>
      <trkpt lat="41.37088" lon="19.60494">
        <ele>31.138395</ele>
        <time>2022-02-25T02:40:17.024Z</time>
      </trkpt>
      <trkpt lat="41.37092" lon="19.60506">
        <ele>31.291871</ele>
        <time>2022-02-25T02:40:21.170Z</time>
      </trkpt>
      <trkpt lat="41.37095" lon="19.60519">
        <ele>31.440844</ele>
        <time>2022-02-25T02:40:24.417Z</time>
      </trkpt>
      <trkpt lat="41.37096" lon="19.60528">
        <ele>31.539269</ele>
        <time>2022-02-25T02:40:26.551Z</time>
      </trkpt>
      <trkpt lat="41.37099" lon="19.60543">
        <ele>31.713703</ele>
        <time>2022-02-25T02:40:30.438Z</time>
      </trkpt>
      <trkpt lat="41.371" lon="19.60555">
        <ele>31.852734</ele>
        <time>2022-02-25T02:40:33.944Z</time>
      </trkpt>
      <trkpt lat="41.371" lon="19.60571">
        <ele>32.026265</ele>
        <time>2022-02-25T02:40:37.457Z</time>
      </trkpt>
      <trkpt lat="41.37101" lon="19.60604">
        <ele>32.40124</ele>
        <time>2022-02-25T02:40:45.647Z</time>
      </trkpt>
      <trkpt lat="41.37101" lon="19.60638">
        <ele>32.778319</ele>
        <time>2022-02-25T02:40:52.712Z</time>
      </trkpt>
      <trkpt lat="41.37111" lon="19.60729">
        <ele>32.731406</ele>
        <time>2022-02-25T02:41:11.126Z</time>
      </trkpt>
      <trkpt lat="41.37197" lon="19.6122">
        <ele>31.947631</ele>
        <time>2022-02-25T02:42:46.478Z</time>
      </trkpt>
      <trkpt lat="41.37208" lon="19.6128">
        <ele>31.964986</ele>
        <time>2022-02-25T02:42:59.376Z</time>
      </trkpt>
      <trkpt lat="41.37226" lon="19.61365">
        <ele>32.007984</ele>
        <time>2022-02-25T02:43:18.503Z</time>
      </trkpt>
      <trkpt lat="41.37252" lon="19.61425">
        <ele>32.080486</ele>
        <time>2022-02-25T02:43:33.145Z</time>
      </trkpt>
      <trkpt lat="41.37276" lon="19.61475">
        <ele>32.142288</ele>
        <time>2022-02-25T02:43:45.437Z</time>
      </trkpt>
      <trkpt lat="41.37388" lon="19.61717">
        <ele>32.344311</ele>
        <time>2022-02-25T02:44:41.542Z</time>
      </trkpt>
      <trkpt lat="41.37404" lon="19.61752">
        <ele>32.367655</ele>
        <time>2022-02-25T02:44:50.331Z</time>
      </trkpt>
      <trkpt lat="41.37452" lon="19.61857">
        <ele>33.430874</ele>
        <time>2022-02-25T02:45:18.759Z</time>
      </trkpt>
      <trkpt lat="41.37618" lon="19.62213">
        <ele>37.683501</ele>
        <time>2022-02-25T02:47:07.477Z</time>
      </trkpt>
      <trkpt lat="41.37631" lon="19.62241">
        <ele>37.837545</ele>
        <time>2022-02-25T02:47:14.945Z</time>
      </trkpt>
      <trkpt lat="41.3766" lon="19.62306">
        <ele>38.198834</ele>
        <time>2022-02-25T02:47:31.521Z</time>
      </trkpt>
      <trkpt lat="41.3769" lon="19.62371">
        <ele>38.508456</ele>
        <time>2022-02-25T02:47:46.572Z</time>
      </trkpt>
      <trkpt lat="41.37707" lon="19.62398">
        <ele>38.368356</ele>
        <time>2022-02-25T02:47:53.216Z</time>
      </trkpt>
      <trkpt lat="41.37831" lon="19.62523">
        <ele>37.596387</ele>
        <time>2022-02-25T02:48:30.470Z</time>
      </trkpt>
      <trkpt lat="41.37931" lon="19.6262">
        <ele>37.82856</ele>
        <time>2022-02-25T02:49:03.194Z</time>
      </trkpt>
      <trkpt lat="41.38006" lon="19.62694">
        <ele>38.81795</ele>
        <time>2022-02-25T02:49:32.376Z</time>
      </trkpt>
      <trkpt lat="41.38041" lon="19.62728">
        <ele>39.714213</ele>
        <time>2022-02-25T02:49:47.493Z</time>
      </trkpt>
      <trkpt lat="41.38142" lon="19.62828">
        <ele>42.420613</ele>
        <time>2022-02-25T02:50:38.417Z</time>
      </trkpt>
      <trkpt lat="41.38172" lon="19.62858">
        <ele>43.319772</ele>
        <time>2022-02-25T02:50:52.864Z</time>
      </trkpt>
      <trkpt lat="41.38244" lon="19.62928">
        <ele>45.511497</ele>
        <time>2022-02-25T02:51:27.346Z</time>
      </trkpt>
      <trkpt lat="41.38293" lon="19.62976">
        <ele>46.347927</ele>
        <time>2022-02-25T02:51:49.207Z</time>
      </trkpt>
      <trkpt lat="41.38363" lon="19.63041">
        <ele>47.100821</ele>
        <time>2022-02-25T02:52:17.742Z</time>
      </trkpt>
      <trkpt lat="41.38409" lon="19.63083">
        <ele>47.550859</ele>
        <time>2022-02-25T02:52:31.362Z</time>
      </trkpt>
      <trkpt lat="41.38481" lon="19.63144">
        <ele>46.314044</ele>
        <time>2022-02-25T02:52:50.682Z</time>
      </trkpt>
      <trkpt lat="41.38518" lon="19.63177">
        <ele>45.666462</ele>
        <time>2022-02-25T02:53:00.199Z</time>
      </trkpt>
      <trkpt lat="41.38553" lon="19.63208">
        <ele>45.055056</ele>
        <time>2022-02-25T02:53:09.139Z</time>
      </trkpt>
      <trkpt lat="41.38622" lon="19.63267">
        <ele>44.029601</ele>
        <time>2022-02-25T02:53:26.459Z</time>
      </trkpt>
      <trkpt lat="41.3866" lon="19.633">
        <ele>43.46111</ele>
        <time>2022-02-25T02:53:36.688Z</time>
      </trkpt>
      <trkpt lat="41.38692" lon="19.63328">
        <ele>42.983482</ele>
        <time>2022-02-25T02:53:46.011Z</time>
      </trkpt>
      <trkpt lat="41.38705" lon="19.63338">
        <ele>42.801433</ele>
        <time>2022-02-25T02:53:49.727Z</time>
      </trkpt>
      <trkpt lat="41.38773" lon="19.63397">
        <ele>42.610391</ele>
        <time>2022-02-25T02:54:10.551Z</time>
      </trkpt>
      <trkpt lat="41.38784" lon="19.63406">
        <ele>42.588771</ele>
        <time>2022-02-25T02:54:14.001Z</time>
      </trkpt>
      <trkpt lat="41.38919" lon="19.63522">
        <ele>42.255183</ele>
        <time>2022-02-25T02:54:56.412Z</time>
      </trkpt>
      <trkpt lat="41.38929" lon="19.63531">
        <ele>42.222824</ele>
        <time>2022-02-25T02:54:59.726Z</time>
      </trkpt>
      <trkpt lat="41.38956" lon="19.63554">
        <ele>42.13432</ele>
        <time>2022-02-25T02:55:07.912Z</time>
      </trkpt>
      <trkpt lat="41.3899" lon="19.63582">
        <ele>42.026236</ele>
        <time>2022-02-25T02:55:17.524Z</time>
      </trkpt>
      <trkpt lat="41.38991" lon="19.63583">
        <ele>42.021479</ele>
        <time>2022-02-25T02:55:17.942Z</time>
      </trkpt>
      <trkpt lat="41.3906" lon="19.63642">
        <ele>41.926944</ele>
        <time>2022-02-25T02:55:38.311Z</time>
      </trkpt>
      <trkpt lat="41.39071" lon="19.63651">
        <ele>41.920695</ele>
        <time>2022-02-25T02:55:41.641Z</time>
      </trkpt>
      <trkpt lat="41.39104" lon="19.63679">
        <ele>41.902073</ele>
        <time>2022-02-25T02:55:52.196Z</time>
      </trkpt>
      <trkpt lat="41.39138" lon="19.63709">
        <ele>41.882174</ele>
        <time>2022-02-25T02:56:03.694Z</time>
      </trkpt>
      <trkpt lat="41.3925" lon="19.63806">
        <ele>42.354827</ele>
        <time>2022-02-25T02:56:40.624Z</time>
      </trkpt>
      <trkpt lat="41.39307" lon="19.63855">
        <ele>42.675035</ele>
        <time>2022-02-25T02:57:01.841Z</time>
      </trkpt>
      <trkpt lat="41.39461" lon="19.63916">
        <ele>43.412333</ele>
        <time>2022-02-25T02:57:47.657Z</time>
      </trkpt>
      <trkpt lat="41.39487" lon="19.63928">
        <ele>43.53984</ele>
        <time>2022-02-25T02:57:55.617Z</time>
      </trkpt>
      <trkpt lat="41.39501" lon="19.63938">
        <ele>43.704847</ele>
        <time>2022-02-25T02:57:59.987Z</time>
      </trkpt>
      <trkpt lat="41.39623" lon="19.64053">
        <ele>45.247678</ele>
        <time>2022-02-25T02:58:45.602Z</time>
      </trkpt>
      <trkpt lat="41.39675" lon="19.64101">
        <ele>47.521505</ele>
        <time>2022-02-25T02:59:10.376Z</time>
      </trkpt>
      <trkpt lat="41.39683" lon="19.64108">
        <ele>47.917609</ele>
        <time>2022-02-25T02:59:14.011Z</time>
      </trkpt>
      <trkpt lat="41.39706" lon="19.64131">
        <ele>49.186766</ele>
        <time>2022-02-25T02:59:27.513Z</time>
      </trkpt>
      <trkpt lat="41.39727" lon="19.64158">
        <ele>50.453578</ele>
        <time>2022-02-25T02:59:42.188Z</time>
      </trkpt>
      <trkpt lat="41.39763" lon="19.64209">
        <ele>52.715591</ele>
        <time>2022-02-25T03:00:09.998Z</time>
      </trkpt>
      <trkpt lat="41.3979" lon="19.64248">
        <ele>54.83768</ele>
        <time>2022-02-25T03:00:34.073Z</time>
      </trkpt>
      <trkpt lat="41.39828" lon="19.64301">
        <ele>57.901322</ele>
        <time>2022-02-25T03:01:08.384Z</time>
      </trkpt>
      <trkpt lat="41.39891" lon="19.6437">
        <ele>62.538112</ele>
        <time>2022-02-25T03:01:49.897Z</time>
      </trkpt>
      <trkpt lat="41.39903" lon="19.64391">
        <ele>63.414458</ele>
        <time>2022-02-25T03:02:00.865Z</time>
      </trkpt>
      <trkpt lat="41.39926" lon="19.64426">
        <ele>63.6053</ele>
        <time>2022-02-25T03:02:15.350Z</time>
      </trkpt>
      <trkpt lat="41.39935" lon="19.64441">
        <ele>63.686326</ele>
        <time>2022-02-25T03:02:19.009Z</time>
      </trkpt>
      <trkpt lat="41.3996" lon="19.64502">
        <ele>63.972852</ele>
        <time>2022-02-25T03:02:35.851Z</time>
      </trkpt>
      <trkpt lat="41.3997" lon="19.6455">
        <ele>64.175701</ele>
        <time>2022-02-25T03:02:45.153Z</time>
      </trkpt>
      <trkpt lat="41.39951" lon="19.6465">
        <ele>63.02598</ele>
        <time>2022-02-25T03:03:00.264Z</time>
      </trkpt>
      <trkpt lat="41.39948" lon="19.64667">
        <ele>62.579554</ele>
        <time>2022-02-25T03:03:02.810Z</time>
      </trkpt>
      <trkpt lat="41.3994" lon="19.64706">
        <ele>61.580386</ele>
        <time>2022-02-25T03:03:08.915Z</time>
      </trkpt>
      <trkpt lat="41.39933" lon="19.64739">
        <ele>60.734961</ele>
        <time>2022-02-25T03:03:13.672Z</time>
      </trkpt>
      <trkpt lat="41.39927" lon="19.64771">
        <ele>59.916102</ele>
        <time>2022-02-25T03:03:18.299Z</time>
      </trkpt>
      <trkpt lat="41.39914" lon="19.64833">
        <ele>58.341137</ele>
        <time>2022-02-25T03:03:27.563Z</time>
      </trkpt>
      <trkpt lat="41.39911" lon="19.64849">
        <ele>58.035572</ele>
        <time>2022-02-25T03:03:30.057Z</time>
      </trkpt>
      <trkpt lat="41.39909" lon="19.64863">
        <ele>57.782502</ele>
        <time>2022-02-25T03:03:31.954Z</time>
      </trkpt>
      <trkpt lat="41.39906" lon="19.64862">
        <ele>57.699249</ele>
        <time>2022-02-25T03:03:33.060Z</time>
      </trkpt>
      <trkpt lat="41.39891" lon="19.64873">
        <ele>57.305413</ele>
        <time>2022-02-25T03:03:36.244Z</time>
      </trkpt>
      <trkpt lat="41.3989" lon="19.64877">
        <ele>57.221984</ele>
        <time>2022-02-25T03:03:37.316Z</time>
      </trkpt>
      <trkpt lat="41.39889" lon="19.64882">
        <ele>57.133221</ele>
        <time>2022-02-25T03:03:37.951Z</time>
      </trkpt>
      <trkpt lat="41.39895" lon="19.64899">
        <ele>56.79047</ele>
        <time>2022-02-25T03:03:40.878Z</time>
      </trkpt>
      <trkpt lat="41.39898" lon="19.64902">
        <ele>56.702876</ele>
        <time>2022-02-25T03:03:41.531Z</time>
      </trkpt>
      <trkpt lat="41.39894" lon="19.64917">
        <ele>56.406242</ele>
        <time>2022-02-25T03:03:44.180Z</time>
      </trkpt>
      <trkpt lat="41.39879" lon="19.64959">
        <ele>55.569624</ele>
        <time>2022-02-25T03:03:51.197Z</time>
      </trkpt>
      <trkpt lat="41.39869" lon="19.64987">
        <ele>54.998094</ele>
        <time>2022-02-25T03:03:56.137Z</time>
      </trkpt>
      <trkpt lat="41.39858" lon="19.6501">
        <ele>54.505593</ele>
        <time>2022-02-25T03:04:00.597Z</time>
      </trkpt>
      <trkpt lat="41.39831" lon="19.65067">
        <ele>53.993517</ele>
        <time>2022-02-25T03:04:12.023Z</time>
      </trkpt>
      <trkpt lat="41.39789" lon="19.65135">
        <ele>53.858126</ele>
        <time>2022-02-25T03:04:28.295Z</time>
      </trkpt>
      <trkpt lat="41.39743" lon="19.65207">
        <ele>53.713396</ele>
        <time>2022-02-25T03:04:48.705Z</time>
      </trkpt>
      <trkpt lat="41.39711" lon="19.65254">
        <ele>54.249283</ele>
        <time>2022-02-25T03:05:03.175Z</time>
      </trkpt>
      <trkpt lat="41.39703" lon="19.65268">
        <ele>54.455309</ele>
        <time>2022-02-25T03:05:07.452Z</time>
      </trkpt>
      <trkpt lat="41.39668" lon="19.65323">
        <ele>55.280181</ele>
        <time>2022-02-25T03:05:25.802Z</time>
      </trkpt>
      <trkpt lat="41.39636" lon="19.65366">
        <ele>55.970282</ele>
        <time>2022-02-25T03:05:41.999Z</time>
      </trkpt>
      <trkpt lat="41.39603" lon="19.65407">
        <ele>56.734812</ele>
        <time>2022-02-25T03:05:59.728Z</time>
      </trkpt>
      <trkpt lat="41.39595" lon="19.65408">
        <ele>56.900405</ele>
        <time>2022-02-25T03:06:03.290Z</time>
      </trkpt>
      <trkpt lat="41.39584" lon="19.65393">
        <ele>57.216922</ele>
        <time>2022-02-25T03:06:09.633Z</time>
      </trkpt>
      <trkpt lat="41.39521" lon="19.6547">
        <ele>58.916493</ele>
        <time>2022-02-25T03:06:42.937Z</time>
      </trkpt>
      <trkpt lat="41.39498" lon="19.65438">
        <ele>59.584238</ele>
        <time>2022-02-25T03:06:55.027Z</time>
      </trkpt>
      <trkpt lat="41.39467" lon="19.65476">
        <ele>60.131763</ele>
        <time>2022-02-25T03:07:09.051Z</time>
      </trkpt>
      <trkpt lat="41.39435" lon="19.65517">
        <ele>60.359153</ele>
        <time>2022-02-25T03:07:22.864Z</time>
      </trkpt>
      <trkpt lat="41.39404" lon="19.65557">
        <ele>60.581558</ele>
        <time>2022-02-25T03:07:36.210Z</time>
      </trkpt>
      <trkpt lat="41.39399" lon="19.65564">
        <ele>60.618702</ele>
        <time>2022-02-25T03:07:38.377Z</time>
      </trkpt>
      <trkpt lat="41.39414" lon="19.65586">
        <ele>60.729611</ele>
        <time>2022-02-25T03:07:44.445Z</time>
      </trkpt>
      <trkpt lat="41.3942" lon="19.65596">
        <ele>60.782155</ele>
        <time>2022-02-25T03:07:47.171Z</time>
      </trkpt>
      <trkpt lat="41.39378" lon="19.65652">
        <ele>61.041941</ele>
        <time>2022-02-25T03:08:03.237Z</time>
      </trkpt>
      <trkpt lat="41.39345" lon="19.65695">
        <ele>61.190746</ele>
        <time>2022-02-25T03:08:15.692Z</time>
      </trkpt>
      <trkpt lat="41.39349" lon="19.65699">
        <ele>61.206972</ele>
        <time>2022-02-25T03:08:16.999Z</time>
      </trkpt>
      <trkpt lat="41.39351" lon="19.65704">
        <ele>61.220516</ele>
        <time>2022-02-25T03:08:18.055Z</time>
      </trkpt>
      <trkpt lat="41.39351" lon="19.65709">
        <ele>61.23308</ele>
        <time>2022-02-25T03:08:19.044Z</time>
      </trkpt>
      <trkpt lat="41.3935" lon="19.65715">
        <ele>61.247911</ele>
        <time>2022-02-25T03:08:20.344Z</time>
      </trkpt>
      <trkpt lat="41.39349" lon="19.65721">
        <ele>61.261455</ele>
        <time>2022-02-25T03:08:21.609Z</time>
      </trkpt>
      <trkpt lat="41.39326" lon="19.65749">
        <ele>61.36367</ele>
        <time>2022-02-25T03:08:30.293Z</time>
      </trkpt>
      <trkpt lat="41.3931" lon="19.65767">
        <ele>61.4304</ele>
        <time>2022-02-25T03:08:36.633Z</time>
      </trkpt>
      <trkpt lat="41.39259" lon="19.65828">
        <ele>61.985214</ele>
        <time>2022-02-25T03:08:58.040Z</time>
      </trkpt>
      <trkpt lat="41.39248" lon="19.65841">
        <ele>62.174479</ele>
        <time>2022-02-25T03:09:02.936Z</time>
      </trkpt>
      <trkpt lat="41.39241" lon="19.65845">
        <ele>62.266808</ele>
        <time>2022-02-25T03:09:05.260Z</time>
      </trkpt>
      <trkpt lat="41.39241" lon="19.65842">
        <ele>62.293432</ele>
        <time>2022-02-25T03:09:05.942Z</time>
      </trkpt>
      <trkpt lat="41.39237" lon="19.65836">
        <ele>62.371233</ele>
        <time>2022-02-25T03:09:07.766Z</time>
      </trkpt>
      <trkpt lat="41.39235" lon="19.65835">
        <ele>62.397897</ele>
        <time>2022-02-25T03:09:08.439Z</time>
      </trkpt>
      <trkpt lat="41.39232" lon="19.65836">
        <ele>62.432768</ele>
        <time>2022-02-25T03:09:09.219Z</time>
      </trkpt>
      <trkpt lat="41.39227" lon="19.65849">
        <ele>62.580467</ele>
        <time>2022-02-25T03:09:13.034Z</time>
      </trkpt>
      <trkpt lat="41.39229" lon="19.65852">
        <ele>62.614543</ele>
        <time>2022-02-25T03:09:14.038Z</time>
      </trkpt>
      <trkpt lat="41.39207" lon="19.65881">
        <ele>63.009217</ele>
        <time>2022-02-25T03:09:24.522Z</time>
      </trkpt>
      <trkpt lat="41.39185" lon="19.65908">
        <ele>63.394389</ele>
        <time>2022-02-25T03:09:34.915Z</time>
      </trkpt>
      <trkpt lat="41.3918" lon="19.65914">
        <ele>63.485042</ele>
        <time>2022-02-25T03:09:37.286Z</time>
      </trkpt>
      <trkpt lat="41.39175" lon="19.65919">
        <ele>63.56668</ele>
        <time>2022-02-25T03:09:39.738Z</time>
      </trkpt>
      <trkpt lat="41.39104" lon="19.6597">
        <ele>64.05073</ele>
        <time>2022-02-25T03:10:06.490Z</time>
      </trkpt>
      <trkpt lat="41.39089" lon="19.65979">
        <ele>64.10222</ele>
        <time>2022-02-25T03:10:11.096Z</time>
      </trkpt>
      <trkpt lat="41.39048" lon="19.66005">
        <ele>64.251407</ele>
        <time>2022-02-25T03:10:24.535Z</time>
      </trkpt>
      <trkpt lat="41.39036" lon="19.66016">
        <ele>64.300934</ele>
        <time>2022-02-25T03:10:28.136Z</time>
      </trkpt>
      <trkpt lat="41.39027" lon="19.66034">
        <ele>64.352643</ele>
        <time>2022-02-25T03:10:31.943Z</time>
      </trkpt>
      <trkpt lat="41.39026" lon="19.66041">
        <ele>64.37104</ele>
        <time>2022-02-25T03:10:33.458Z</time>
      </trkpt>
      <trkpt lat="41.39023" lon="19.66041">
        <ele>64.377928</ele>
        <time>2022-02-25T03:10:33.965Z</time>
      </trkpt>
      <trkpt lat="41.39013" lon="19.66045">
        <ele>64.412153</ele>
        <time>2022-02-25T03:10:36.197Z</time>
      </trkpt>
      <trkpt lat="41.39012" lon="19.66046">
        <ele>64.418826</ele>
        <time>2022-02-25T03:10:36.738Z</time>
      </trkpt>
      <trkpt lat="41.3901" lon="19.66048">
        <ele>64.426149</ele>
        <time>2022-02-25T03:10:37.246Z</time>
      </trkpt>
      <trkpt lat="41.39006" lon="19.66062">
        <ele>64.405612</ele>
        <time>2022-02-25T03:10:39.778Z</time>
      </trkpt>
      <trkpt lat="41.39008" lon="19.66073">
        <ele>64.298621</ele>
        <time>2022-02-25T03:10:41.977Z</time>
      </trkpt>
      <trkpt lat="41.39009" lon="19.66076">
        <ele>64.270348</ele>
        <time>2022-02-25T03:10:42.460Z</time>
      </trkpt>
      <trkpt lat="41.3901" lon="19.66078">
        <ele>64.246629</ele>
        <time>2022-02-25T03:10:42.886Z</time>
      </trkpt>
      <trkpt lat="41.39015" lon="19.66083">
        <ele>64.175076</ele>
        <time>2022-02-25T03:10:44.129Z</time>
      </trkpt>
      <trkpt lat="41.39017" lon="19.66084">
        <ele>64.150631</ele>
        <time>2022-02-25T03:10:44.511Z</time>
      </trkpt>
      <trkpt lat="41.39019" lon="19.66084">
        <ele>64.124852</ele>
        <time>2022-02-25T03:10:45.028Z</time>
      </trkpt>
      <trkpt lat="41.39025" lon="19.66085">
        <ele>64.046989</ele>
        <time>2022-02-25T03:10:46.739Z</time>
      </trkpt>
      <trkpt lat="41.39027" lon="19.66084">
        <ele>64.020475</ele>
        <time>2022-02-25T03:10:47.313Z</time>
      </trkpt>
      <trkpt lat="41.39032" lon="19.66085">
        <ele>63.96382</ele>
        <time>2022-02-25T03:10:48.217Z</time>
      </trkpt>
      <trkpt lat="41.39068" lon="19.66136">
        <ele>63.317952</ele>
        <time>2022-02-25T03:10:59.915Z</time>
      </trkpt>
      <trkpt lat="41.39069" lon="19.66141">
        <ele>63.27033</ele>
        <time>2022-02-25T03:11:00.626Z</time>
      </trkpt>
      <trkpt lat="41.39068" lon="19.66144">
        <ele>63.24381</ele>
        <time>2022-02-25T03:11:01.085Z</time>
      </trkpt>
      <trkpt lat="41.39067" lon="19.66155">
        <ele>63.137507</ele>
        <time>2022-02-25T03:11:03.142Z</time>
      </trkpt>
      <trkpt lat="41.39067" lon="19.66158">
        <ele>63.110198</ele>
        <time>2022-02-25T03:11:03.561Z</time>
      </trkpt>
      <trkpt lat="41.39065" lon="19.66167">
        <ele>63.021821</ele>
        <time>2022-02-25T03:11:05.100Z</time>
      </trkpt>
      <trkpt lat="41.39063" lon="19.66176">
        <ele>62.939676</ele>
        <time>2022-02-25T03:11:06.713Z</time>
      </trkpt>
      <trkpt lat="41.3906" lon="19.66185">
        <ele>62.846609</ele>
        <time>2022-02-25T03:11:08.348Z</time>
      </trkpt>
      <trkpt lat="41.39057" lon="19.66191">
        <ele>62.781809</ele>
        <time>2022-02-25T03:11:09.428Z</time>
      </trkpt>
      <trkpt lat="41.3905" lon="19.66201">
        <ele>62.651421</ele>
        <time>2022-02-25T03:11:11.775Z</time>
      </trkpt>
      <trkpt lat="41.3904" lon="19.66211">
        <ele>62.49653</ele>
        <time>2022-02-25T03:11:14.670Z</time>
      </trkpt>
      <trkpt lat="41.39017" lon="19.66229">
        <ele>62.219209</ele>
        <time>2022-02-25T03:11:20.475Z</time>
      </trkpt>
      <trkpt lat="41.3895" lon="19.66279">
        <ele>62.051192</ele>
        <time>2022-02-25T03:11:39.577Z</time>
      </trkpt>
      <trkpt lat="41.38939" lon="19.66292">
        <ele>62.019124</ele>
        <time>2022-02-25T03:11:43.628Z</time>
      </trkpt>
      <trkpt lat="41.38896" lon="19.66344">
        <ele>61.891969</ele>
        <time>2022-02-25T03:11:59.874Z</time>
      </trkpt>
      <trkpt lat="41.38876" lon="19.66367">
        <ele>61.840507</ele>
        <time>2022-02-25T03:12:07.305Z</time>
      </trkpt>
      <trkpt lat="41.38836" lon="19.66416">
        <ele>61.965418</ele>
        <time>2022-02-25T03:12:22.576Z</time>
      </trkpt>
      <trkpt lat="41.38808" lon="19.6645">
        <ele>62.050505</ele>
        <time>2022-02-25T03:12:33.046Z</time>
      </trkpt>
      <trkpt lat="41.38768" lon="19.66499">
        <ele>62.175534</ele>
        <time>2022-02-25T03:12:48.322Z</time>
      </trkpt>
      <trkpt lat="41.3873" lon="19.66546">
        <ele>62.217992</ele>
        <time>2022-02-25T03:13:02.470Z</time>
      </trkpt>
      <trkpt lat="41.38726" lon="19.66551">
        <ele>62.208284</ele>
        <time>2022-02-25T03:13:03.975Z</time>
      </trkpt>
      <trkpt lat="41.38716" lon="19.66563">
        <ele>62.186514</ele>
        <time>2022-02-25T03:13:07.309Z</time>
      </trkpt>
      <trkpt lat="41.38682" lon="19.66604">
        <ele>62.110839</ele>
        <time>2022-02-25T03:13:19.014Z</time>
      </trkpt>
      <trkpt lat="41.3865" lon="19.66643">
        <ele>62.038005</ele>
        <time>2022-02-25T03:13:30.331Z</time>
      </trkpt>
      <trkpt lat="41.38597" lon="19.66708">
        <ele>61.958387</ele>
        <time>2022-02-25T03:13:48.691Z</time>
      </trkpt>
      <trkpt lat="41.3852" lon="19.66801">
        <ele>61.991236</ele>
        <time>2022-02-25T03:14:15.082Z</time>
      </trkpt>
      <trkpt lat="41.38508" lon="19.66816">
        <ele>61.996444</ele>
        <time>2022-02-25T03:14:19.569Z</time>
      </trkpt>
      <trkpt lat="41.38499" lon="19.66827">
        <ele>62.000182</ele>
        <time>2022-02-25T03:14:22.979Z</time>
      </trkpt>
      <trkpt lat="41.38429" lon="19.66913">
        <ele>62.870242</ele>
        <time>2022-02-25T03:14:52.594Z</time>
      </trkpt>
      <trkpt lat="41.38408" lon="19.66939">
        <ele>63.234448</ele>
        <time>2022-02-25T03:15:02.164Z</time>
      </trkpt>
      <trkpt lat="41.38333" lon="19.67029">
        <ele>64.535617</ele>
        <time>2022-02-25T03:15:37.165Z</time>
      </trkpt>
      <trkpt lat="41.38255" lon="19.67113">
        <ele>65.944444</ele>
        <time>2022-02-25T03:16:11.595Z</time>
      </trkpt>
      <trkpt lat="41.38224" lon="19.67143">
        <ele>66.475221</ele>
        <time>2022-02-25T03:16:23.877Z</time>
      </trkpt>
      <trkpt lat="41.3822" lon="19.67148">
        <ele>66.55565</ele>
        <time>2022-02-25T03:16:25.896Z</time>
      </trkpt>
      <trkpt lat="41.38091" lon="19.67254">
        <ele>67.443806</ele>
        <time>2022-02-25T03:17:11.407Z</time>
      </trkpt>
      <trkpt lat="41.37905" lon="19.67374">
        <ele>67.075373</ele>
        <time>2022-02-25T03:18:04.554Z</time>
      </trkpt>
      <trkpt lat="41.37723" lon="19.67502">
        <ele>64.74398</ele>
        <time>2022-02-25T03:18:50.965Z</time>
      </trkpt>
      <trkpt lat="41.37708" lon="19.67512">
        <ele>64.543112</ele>
        <time>2022-02-25T03:18:54.470Z</time>
      </trkpt>
      <trkpt lat="41.37685" lon="19.67531">
        <ele>64.211068</ele>
        <time>2022-02-25T03:19:00.551Z</time>
      </trkpt>
      <trkpt lat="41.37641" lon="19.67574">
        <ele>63.543884</ele>
        <time>2022-02-25T03:19:12.775Z</time>
      </trkpt>
      <trkpt lat="41.37597" lon="19.67622">
        <ele>62.842164</ele>
        <time>2022-02-25T03:19:25.683Z</time>
      </trkpt>
      <trkpt lat="41.37561" lon="19.67661">
        <ele>62.411019</ele>
        <time>2022-02-25T03:19:36.701Z</time>
      </trkpt>
      <trkpt lat="41.37358" lon="19.67878">
        <ele>60.485431</ele>
        <time>2022-02-25T03:20:39.571Z</time>
      </trkpt>
      <trkpt lat="41.37354" lon="19.67883">
        <ele>60.443216</ele>
        <time>2022-02-25T03:20:40.737Z</time>
      </trkpt>
      <trkpt lat="41.3735" lon="19.67888">
        <ele>60.401435</ele>
        <time>2022-02-25T03:20:42.096Z</time>
      </trkpt>
      <trkpt lat="41.37343" lon="19.679">
        <ele>60.31242</ele>
        <time>2022-02-25T03:20:44.884Z</time>
      </trkpt>
      <trkpt lat="41.37341" lon="19.67904">
        <ele>60.287344</ele>
        <time>2022-02-25T03:20:45.708Z</time>
      </trkpt>
      <trkpt lat="41.37331" lon="19.67921">
        <ele>60.167431</ele>
        <time>2022-02-25T03:20:49.309Z</time>
      </trkpt>
      <trkpt lat="41.37246" lon="19.68079">
        <ele>58.875571</ele>
        <time>2022-02-25T03:21:23.467Z</time>
      </trkpt>
      <trkpt lat="41.37217" lon="19.68134">
        <ele>58.418817</ele>
        <time>2022-02-25T03:21:35.102Z</time>
      </trkpt>
      <trkpt lat="41.37121" lon="19.68317">
        <ele>56.795601</ele>
        <time>2022-02-25T03:22:14.586Z</time>
      </trkpt>
      <trkpt lat="41.37111" lon="19.68336">
        <ele>56.629629</ele>
        <time>2022-02-25T03:22:18.385Z</time>
      </trkpt>
      <trkpt lat="41.37102" lon="19.68356">
        <ele>56.41626</ele>
        <time>2022-02-25T03:22:22.594Z</time>
      </trkpt>
      <trkpt lat="41.37096" lon="19.68372">
        <ele>56.226704</ele>
        <time>2022-02-25T03:22:25.477Z</time>
      </trkpt>
      <trkpt lat="41.3707" lon="19.68452">
        <ele>55.305993</ele>
        <time>2022-02-25T03:22:40.128Z</time>
      </trkpt>
      <trkpt lat="41.37067" lon="19.68483">
        <ele>54.976067</ele>
        <time>2022-02-25T03:22:45.326Z</time>
      </trkpt>
      <trkpt lat="41.37098" lon="19.6859">
        <ele>53.757012</ele>
        <time>2022-02-25T03:23:04.108Z</time>
      </trkpt>
      <trkpt lat="41.37117" lon="19.68765">
        <ele>51.910247</ele>
        <time>2022-02-25T03:23:33.197Z</time>
      </trkpt>
      <trkpt lat="41.37122" lon="19.68812">
        <ele>51.486018</ele>
        <time>2022-02-25T03:23:41.392Z</time>
      </trkpt>
      <trkpt lat="41.37129" lon="19.68867">
        <ele>51.387059</ele>
        <time>2022-02-25T03:23:51.349Z</time>
      </trkpt>
      <trkpt lat="41.37132" lon="19.68921">
        <ele>51.290552</ele>
        <time>2022-02-25T03:24:01.648Z</time>
      </trkpt>
      <trkpt lat="41.37127" lon="19.68966">
        <ele>51.209519</ele>
        <time>2022-02-25T03:24:10.633Z</time>
      </trkpt>
      <trkpt lat="41.37119" lon="19.69008">
        <ele>51.131958</ele>
        <time>2022-02-25T03:24:19.601Z</time>
      </trkpt>
      <trkpt lat="41.37108" lon="19.69063">
        <ele>51.192709</ele>
        <time>2022-02-25T03:24:32.014Z</time>
      </trkpt>
      <trkpt lat="41.37102" lon="19.69095">
        <ele>51.352625</ele>
        <time>2022-02-25T03:24:39.828Z</time>
      </trkpt>
      <trkpt lat="41.37084" lon="19.69191">
        <ele>51.818575</ele>
        <time>2022-02-25T03:25:02.878Z</time>
      </trkpt>
      <trkpt lat="41.37072" lon="19.69255">
        <ele>52.133504</ele>
        <time>2022-02-25T03:25:17.717Z</time>
      </trkpt>
      <trkpt lat="41.3707" lon="19.69265">
        <ele>52.180881</ele>
        <time>2022-02-25T03:25:19.836Z</time>
      </trkpt>
      <trkpt lat="41.37065" lon="19.69291">
        <ele>52.180244</ele>
        <time>2022-02-25T03:25:25.374Z</time>
      </trkpt>
      <trkpt lat="41.37054" lon="19.69354">
        <ele>52.079993</ele>
        <time>2022-02-25T03:25:38.010Z</time>
      </trkpt>
      <trkpt lat="41.37047" lon="19.6939">
        <ele>52.02283</ele>
        <time>2022-02-25T03:25:45.010Z</time>
      </trkpt>
      <trkpt lat="41.37031" lon="19.69473">
        <ele>51.889596</ele>
        <time>2022-02-25T03:26:01.162Z</time>
      </trkpt>
      <trkpt lat="41.37028" lon="19.69487">
        <ele>51.867273</ele>
        <time>2022-02-25T03:26:03.776Z</time>
      </trkpt>
      <trkpt lat="41.37017" lon="19.69545">
        <ele>51.7695</ele>
        <time>2022-02-25T03:26:14.878Z</time>
      </trkpt>
      <trkpt lat="41.37003" lon="19.69621">
        <ele>51.642393</ele>
        <time>2022-02-25T03:26:29.233Z</time>
      </trkpt>
      <trkpt lat="41.36986" lon="19.6971">
        <ele>51.49124</ele>
        <time>2022-02-25T03:26:47.551Z</time>
      </trkpt>
      <trkpt lat="41.3698" lon="19.69739">
        <ele>51.452914</ele>
        <time>2022-02-25T03:26:53.784Z</time>
      </trkpt>
      <trkpt lat="41.36921" lon="19.70045">
        <ele>52.080411</ele>
        <time>2022-02-25T03:28:00.940Z</time>
      </trkpt>
      <trkpt lat="41.36918" lon="19.7007">
        <ele>52.107686</ele>
        <time>2022-02-25T03:28:06.295Z</time>
      </trkpt>
      <trkpt lat="41.3692" lon="19.70084">
        <ele>52.123167</ele>
        <time>2022-02-25T03:28:09.389Z</time>
      </trkpt>
      <trkpt lat="41.36925" lon="19.70093">
        <ele>52.134925</ele>
        <time>2022-02-25T03:28:11.704Z</time>
      </trkpt>
      <trkpt lat="41.36939" lon="19.70102">
        <ele>52.157656</ele>
        <time>2022-02-25T03:28:16.279Z</time>
      </trkpt>
      <trkpt lat="41.37007" lon="19.70115">
        <ele>52.233697</ele>
        <time>2022-02-25T03:28:34.741Z</time>
      </trkpt>
      <trkpt lat="41.37026" lon="19.70133">
        <ele>51.939103</ele>
        <time>2022-02-25T03:28:40.561Z</time>
      </trkpt>
      <trkpt lat="41.3704" lon="19.70164">
        <ele>51.594548</ele>
        <time>2022-02-25T03:28:46.786Z</time>
      </trkpt>
      <trkpt lat="41.37057" lon="19.70222">
        <ele>50.999648</ele>
        <time>2022-02-25T03:28:57.410Z</time>
      </trkpt>
      <trkpt lat="41.37064" lon="19.70247">
        <ele>50.74788</ele>
        <time>2022-02-25T03:29:01.729Z</time>
      </trkpt>
      <trkpt lat="41.37066" lon="19.70255">
        <ele>50.673013</ele>
        <time>2022-02-25T03:29:03.111Z</time>
      </trkpt>
      <trkpt lat="41.37072" lon="19.70279">
        <ele>50.429674</ele>
        <time>2022-02-25T03:29:07.372Z</time>
      </trkpt>
      <trkpt lat="41.37074" lon="19.70285">
        <ele>50.367267</ele>
        <time>2022-02-25T03:29:08.344Z</time>
      </trkpt>
      <trkpt lat="41.37076" lon="19.70309">
        <ele>50.134744</ele>
        <time>2022-02-25T03:29:12.410Z</time>
      </trkpt>
      <trkpt lat="41.37076" lon="19.70339">
        <ele>49.746025</ele>
        <time>2022-02-25T03:29:16.969Z</time>
      </trkpt>
      <trkpt lat="41.37076" lon="19.70354">
        <ele>49.472132</ele>
        <time>2022-02-25T03:29:19.382Z</time>
      </trkpt>
      <trkpt lat="41.37076" lon="19.70361">
        <ele>49.34696</ele>
        <time>2022-02-25T03:29:20.433Z</time>
      </trkpt>
      <trkpt lat="41.37072" lon="19.70408">
        <ele>48.4885</ele>
        <time>2022-02-25T03:29:27.586Z</time>
      </trkpt>
      <trkpt lat="41.37064" lon="19.7043">
        <ele>48.044528</ele>
        <time>2022-02-25T03:29:31.163Z</time>
      </trkpt>
      <trkpt lat="41.37043" lon="19.70466">
        <ele>47.210594</ele>
        <time>2022-02-25T03:29:37.984Z</time>
      </trkpt>
      <trkpt lat="41.37031" lon="19.70488">
        <ele>46.723396</ele>
        <time>2022-02-25T03:29:42.057Z</time>
      </trkpt>
      <trkpt lat="41.37027" lon="19.70496">
        <ele>46.542134</ele>
        <time>2022-02-25T03:29:43.624Z</time>
      </trkpt>
      <trkpt lat="41.37015" lon="19.70516">
        <ele>46.079581</ele>
        <time>2022-02-25T03:29:47.615Z</time>
      </trkpt>
      <trkpt lat="41.36991" lon="19.70559">
        <ele>45.387989</ele>
        <time>2022-02-25T03:29:56.216Z</time>
      </trkpt>
      <trkpt lat="41.36969" lon="19.706">
        <ele>44.963939</ele>
        <time>2022-02-25T03:30:04.552Z</time>
      </trkpt>
      <trkpt lat="41.36952" lon="19.70635">
        <ele>44.626299</ele>
        <time>2022-02-25T03:30:11.269Z</time>
      </trkpt>
      <trkpt lat="41.36945" lon="19.7065">
        <ele>44.47296</ele>
        <time>2022-02-25T03:30:14.313Z</time>
      </trkpt>
      <trkpt lat="41.36937" lon="19.70668">
        <ele>44.296761</ele>
        <time>2022-02-25T03:30:17.943Z</time>
      </trkpt>
      <trkpt lat="41.36828" lon="19.70908">
        <ele>43.473639</ele>
        <time>2022-02-25T03:31:12.763Z</time>
      </trkpt>
      <trkpt lat="41.36647" lon="19.71197">
        <ele>43.855362</ele>
        <time>2022-02-25T03:32:29.339Z</time>
      </trkpt>
      <trkpt lat="41.36637" lon="19.71216">
        <ele>43.925981</ele>
        <time>2022-02-25T03:32:34.111Z</time>
      </trkpt>
      <trkpt lat="41.36603" lon="19.71276">
        <ele>44.160469</ele>
        <time>2022-02-25T03:32:50.540Z</time>
      </trkpt>
      <trkpt lat="41.36533" lon="19.71387">
        <ele>44.928627</ele>
        <time>2022-02-25T03:33:24.053Z</time>
      </trkpt>
      <trkpt lat="41.36509" lon="19.71411">
        <ele>45.177373</ele>
        <time>2022-02-25T03:33:32.689Z</time>
      </trkpt>
      <trkpt lat="41.36508" lon="19.71411">
        <ele>45.185731</ele>
        <time>2022-02-25T03:33:33.425Z</time>
      </trkpt>
      <trkpt lat="41.36503" lon="19.71411">
        <ele>45.230011</ele>
        <time>2022-02-25T03:33:35.289Z</time>
      </trkpt>
      <trkpt lat="41.36396" lon="19.71391">
        <ele>45.987003</ele>
        <time>2022-02-25T03:34:08.973Z</time>
      </trkpt>
      <trkpt lat="41.36374" lon="19.71402">
        <ele>46.099049</ele>
        <time>2022-02-25T03:34:15.689Z</time>
      </trkpt>
      <trkpt lat="41.3636" lon="19.71436">
        <ele>46.238462</ele>
        <time>2022-02-25T03:34:24.707Z</time>
      </trkpt>
      <trkpt lat="41.36344" lon="19.71495">
        <ele>46.462462</ele>
        <time>2022-02-25T03:34:37.741Z</time>
      </trkpt>
      <trkpt lat="41.36299" lon="19.71675">
        <ele>46.727774</ele>
        <time>2022-02-25T03:35:15.497Z</time>
      </trkpt>
      <trkpt lat="41.36274" lon="19.71772">
        <ele>46.784924</ele>
        <time>2022-02-25T03:35:36.260Z</time>
      </trkpt>
      <trkpt lat="41.36268" lon="19.71794">
        <ele>46.934073</ele>
        <time>2022-02-25T03:35:41.266Z</time>
      </trkpt>
      <trkpt lat="41.36218" lon="19.71991">
        <ele>48.276443</ele>
        <time>2022-02-25T03:36:28.439Z</time>
      </trkpt>
      <trkpt lat="41.36177" lon="19.72148">
        <ele>50.987197</ele>
        <time>2022-02-25T03:37:15.217Z</time>
      </trkpt>
      <trkpt lat="41.36171" lon="19.72175">
        <ele>51.45433</ele>
        <time>2022-02-25T03:37:24.251Z</time>
      </trkpt>
      <trkpt lat="41.36085" lon="19.72507">
        <ele>56.634786</ele>
        <time>2022-02-25T03:39:05.765Z</time>
      </trkpt>
      <trkpt lat="41.36027" lon="19.72685">
        <ele>56.572797</ele>
        <time>2022-02-25T03:39:40.237Z</time>
      </trkpt>
      <trkpt lat="41.36018" lon="19.7271">
        <ele>56.436412</ele>
        <time>2022-02-25T03:39:44.538Z</time>
      </trkpt>
      <trkpt lat="41.35982" lon="19.72812">
        <ele>55.879398</ele>
        <time>2022-02-25T03:40:03.932Z</time>
      </trkpt>
      <trkpt lat="41.35879" lon="19.73111">
        <ele>55.437314</ele>
        <time>2022-02-25T03:41:10.633Z</time>
      </trkpt>
      <trkpt lat="41.35869" lon="19.73141">
        <ele>55.363341</ele>
        <time>2022-02-25T03:41:17.021Z</time>
      </trkpt>
      <trkpt lat="41.3581" lon="19.73309">
        <ele>54.945436</ele>
        <time>2022-02-25T03:41:51.790Z</time>
      </trkpt>
      <trkpt lat="41.35733" lon="19.7353">
        <ele>54.713888</ele>
        <time>2022-02-25T03:42:38.618Z</time>
      </trkpt>
      <trkpt lat="41.35645" lon="19.73785">
        <ele>55.636883</ele>
        <time>2022-02-25T03:43:40.678Z</time>
      </trkpt>
      <trkpt lat="41.35614" lon="19.73874">
        <ele>55.826744</ele>
        <time>2022-02-25T03:44:02.094Z</time>
      </trkpt>
      <trkpt lat="41.35539" lon="19.7409">
        <ele>56.120163</ele>
        <time>2022-02-25T03:44:49.755Z</time>
      </trkpt>
      <trkpt lat="41.3548" lon="19.74261">
        <ele>56.468108</ele>
        <time>2022-02-25T03:45:28.607Z</time>
      </trkpt>
      <trkpt lat="41.35473" lon="19.74279">
        <ele>56.549027</ele>
        <time>2022-02-25T03:45:32.728Z</time>
      </trkpt>
      <trkpt lat="41.35442" lon="19.74369">
        <ele>56.945316</ele>
        <time>2022-02-25T03:45:54.427Z</time>
      </trkpt>
      <trkpt lat="41.3543" lon="19.74404">
        <ele>57.099658</ele>
        <time>2022-02-25T03:46:03.377Z</time>
      </trkpt>
      <trkpt lat="41.35393" lon="19.74512">
        <ele>57.983655</ele>
        <time>2022-02-25T03:46:32.752Z</time>
      </trkpt>
      <trkpt lat="41.35334" lon="19.74683">
        <ele>59.32001</ele>
        <time>2022-02-25T03:47:16.815Z</time>
      </trkpt>
      <trkpt lat="41.35324" lon="19.74711">
        <ele>59.489318</ele>
        <time>2022-02-25T03:47:23.919Z</time>
      </trkpt>
      <trkpt lat="41.35309" lon="19.74753">
        <ele>59.743681</ele>
        <time>2022-02-25T03:47:34.824Z</time>
      </trkpt>
      <trkpt lat="41.35308" lon="19.74757">
        <ele>59.767841</ele>
        <time>2022-02-25T03:47:35.919Z</time>
      </trkpt>
      <trkpt lat="41.35295" lon="19.74794">
        <ele>59.993955</ele>
        <time>2022-02-25T03:47:45.187Z</time>
      </trkpt>
      <trkpt lat="41.35286" lon="19.7482">
        <ele>60.15019</ele>
        <time>2022-02-25T03:47:51.355Z</time>
      </trkpt>
      <trkpt lat="41.35277" lon="19.74846">
        <ele>60.303329</ele>
        <time>2022-02-25T03:47:57.546Z</time>
      </trkpt>
      <trkpt lat="41.35271" lon="19.74863">
        <ele>60.352659</ele>
        <time>2022-02-25T03:48:01.272Z</time>
      </trkpt>
      <trkpt lat="41.35267" lon="19.74875">
        <ele>60.378854</ele>
        <time>2022-02-25T03:48:04.058Z</time>
      </trkpt>
      <trkpt lat="41.35264" lon="19.74883">
        <ele>60.395774</ele>
        <time>2022-02-25T03:48:06.029Z</time>
      </trkpt>
      <trkpt lat="41.35259" lon="19.74897">
        <ele>60.42418</ele>
        <time>2022-02-25T03:48:09.045Z</time>
      </trkpt>
      <trkpt lat="41.35258" lon="19.74901">
        <ele>60.432383</ele>
        <time>2022-02-25T03:48:09.876Z</time>
      </trkpt>
      <trkpt lat="41.3525" lon="19.74925">
        <ele>60.482068</ele>
        <time>2022-02-25T03:48:15.267Z</time>
      </trkpt>
      <trkpt lat="41.35248" lon="19.7493">
        <ele>60.493383</ele>
        <time>2022-02-25T03:48:16.557Z</time>
      </trkpt>
      <trkpt lat="41.35224" lon="19.74999">
        <ele>60.637843</ele>
        <time>2022-02-25T03:48:31.343Z</time>
      </trkpt>
      <trkpt lat="41.35193" lon="19.75087">
        <ele>60.864952</ele>
        <time>2022-02-25T03:48:53.031Z</time>
      </trkpt>
      <trkpt lat="41.35186" lon="19.75108">
        <ele>60.95151</ele>
        <time>2022-02-25T03:48:58.241Z</time>
      </trkpt>
      <trkpt lat="41.35165" lon="19.7517">
        <ele>61.206779</ele>
        <time>2022-02-25T03:49:12.913Z</time>
      </trkpt>
      <trkpt lat="41.35163" lon="19.75174">
        <ele>61.226836</ele>
        <time>2022-02-25T03:49:14.071Z</time>
      </trkpt>
      <trkpt lat="41.35133" lon="19.75261">
        <ele>61.585897</ele>
        <time>2022-02-25T03:49:34.669Z</time>
      </trkpt>
      <trkpt lat="41.3509" lon="19.75385">
        <ele>62.019268</ele>
        <time>2022-02-25T03:50:04.641Z</time>
      </trkpt>
      <trkpt lat="41.35053" lon="19.75493">
        <ele>62.378659</ele>
        <time>2022-02-25T03:50:29.415Z</time>
      </trkpt>
      <trkpt lat="41.35016" lon="19.756">
        <ele>63.039696</ele>
        <time>2022-02-25T03:50:55.204Z</time>
      </trkpt>
      <trkpt lat="41.34977" lon="19.75712">
        <ele>63.766445</ele>
        <time>2022-02-25T03:51:24.499Z</time>
      </trkpt>
      <trkpt lat="41.3496" lon="19.75761">
        <ele>64.142219</ele>
        <time>2022-02-25T03:51:37.570Z</time>
      </trkpt>
      <trkpt lat="41.34955" lon="19.75776">
        <ele>64.256293</ele>
        <time>2022-02-25T03:51:41.614Z</time>
      </trkpt>
      <trkpt lat="41.34941" lon="19.75812">
        <ele>64.544128</ele>
        <time>2022-02-25T03:51:51.391Z</time>
      </trkpt>
      <trkpt lat="41.34868" lon="19.76025">
        <ele>65.991978</ele>
        <time>2022-02-25T03:52:45.347Z</time>
      </trkpt>
      <trkpt lat="41.34834" lon="19.76124">
        <ele>66.522899</ele>
        <time>2022-02-25T03:53:09.277Z</time>
      </trkpt>
      <trkpt lat="41.348" lon="19.76219">
        <ele>66.989644</ele>
        <time>2022-02-25T03:53:31.994Z</time>
      </trkpt>
      <trkpt lat="41.34793" lon="19.76243">
        <ele>67.101037</ele>
        <time>2022-02-25T03:53:37.718Z</time>
      </trkpt>
      <trkpt lat="41.34796" lon="19.76245">
        <ele>67.125868</ele>
        <time>2022-02-25T03:53:38.940Z</time>
      </trkpt>
      <trkpt lat="41.34801" lon="19.76248">
        <ele>67.154845</ele>
        <time>2022-02-25T03:53:40.379Z</time>
      </trkpt>
      <trkpt lat="41.34975" lon="19.76357">
        <ele>68.263231</ele>
        <time>2022-02-25T03:54:37.607Z</time>
      </trkpt>
      <trkpt lat="41.35029" lon="19.76391">
        <ele>68.617265</ele>
        <time>2022-02-25T03:54:56.098Z</time>
      </trkpt>
      <trkpt lat="41.35049" lon="19.76403">
        <ele>68.74537</ele>
        <time>2022-02-25T03:55:02.716Z</time>
      </trkpt>
      <trkpt lat="41.35081" lon="19.76423">
        <ele>68.759648</ele>
        <time>2022-02-25T03:55:13.300Z</time>
      </trkpt>
      <trkpt lat="41.35109" lon="19.7644">
        <ele>68.755353</ele>
        <time>2022-02-25T03:55:22.236Z</time>
      </trkpt>
      <trkpt lat="41.35146" lon="19.76462">
        <ele>68.749788</ele>
        <time>2022-02-25T03:55:33.348Z</time>
      </trkpt>
      <trkpt lat="41.3517" lon="19.76476">
        <ele>68.746107</ele>
        <time>2022-02-25T03:55:40.181Z</time>
      </trkpt>
      <trkpt lat="41.35185" lon="19.76485">
        <ele>68.743895</ele>
        <time>2022-02-25T03:55:44.312Z</time>
      </trkpt>
      <trkpt lat="41.35207" lon="19.76494">
        <ele>68.740736</ele>
        <time>2022-02-25T03:55:50.173Z</time>
      </trkpt>
      <trkpt lat="41.35263" lon="19.7652">
        <ele>68.849574</ele>
        <time>2022-02-25T03:56:06.167Z</time>
      </trkpt>
      <trkpt lat="41.35301" lon="19.7654">
        <ele>68.942059</ele>
        <time>2022-02-25T03:56:17.513Z</time>
      </trkpt>
      <trkpt lat="41.35312" lon="19.76545">
        <ele>68.96924</ele>
        <time>2022-02-25T03:56:20.978Z</time>
      </trkpt>
      <trkpt lat="41.35325" lon="19.76551">
        <ele>69.000536</ele>
        <time>2022-02-25T03:56:24.890Z</time>
      </trkpt>
      <trkpt lat="41.35332" lon="19.76555">
        <ele>69.017791</ele>
        <time>2022-02-25T03:56:28.304Z</time>
      </trkpt>
      <trkpt lat="41.35305" lon="19.76683">
        <ele>69.548355</ele>
        <time>2022-02-25T03:56:58.433Z</time>
      </trkpt>
      <trkpt lat="41.35293" lon="19.7673">
        <ele>69.90511</ele>
        <time>2022-02-25T03:57:10.648Z</time>
      </trkpt>
      <trkpt lat="41.35275" lon="19.76775">
        <ele>70.273965</ele>
        <time>2022-02-25T03:57:23.149Z</time>
      </trkpt>
      <trkpt lat="41.35297" lon="19.76787">
        <ele>70.503355</ele>
        <time>2022-02-25T03:57:30.798Z</time>
      </trkpt>
      <trkpt lat="41.35334" lon="19.7682">
        <ele>70.892334</ele>
        <time>2022-02-25T03:57:44.545Z</time>
      </trkpt>
      <trkpt lat="41.35276" lon="19.76926">
        <ele>71.353108</ele>
        <time>2022-02-25T03:58:14.158Z</time>
      </trkpt>
      <trkpt lat="41.35256" lon="19.76981">
        <ele>71.564718</ele>
        <time>2022-02-25T03:58:26.618Z</time>
      </trkpt>
      <trkpt lat="41.35257" lon="19.7699">
        <ele>71.598065</ele>
        <time>2022-02-25T03:58:28.642Z</time>
      </trkpt>
      <trkpt lat="41.35221" lon="19.77015">
        <ele>71.716335</ele>
        <time>2022-02-25T03:58:39.663Z</time>
      </trkpt>
      <trkpt lat="41.35207" lon="19.77026">
        <ele>71.730681</ele>
        <time>2022-02-25T03:58:43.936Z</time>
      </trkpt>
      <trkpt lat="41.352" lon="19.77031">
        <ele>71.737305</ele>
        <time>2022-02-25T03:58:45.862Z</time>
      </trkpt>
      <trkpt lat="41.35195" lon="19.77037">
        <ele>71.743706</ele>
        <time>2022-02-25T03:58:47.888Z</time>
      </trkpt>
      <trkpt lat="41.35193" lon="19.7704">
        <ele>71.74604</ele>
        <time>2022-02-25T03:58:48.595Z</time>
      </trkpt>
      <trkpt lat="41.35192" lon="19.77042">
        <ele>71.747778</ele>
        <time>2022-02-25T03:58:49.092Z</time>
      </trkpt>
      <trkpt lat="41.35191" lon="19.77045">
        <ele>71.75055</ele>
        <time>2022-02-25T03:58:49.964Z</time>
      </trkpt>
      <trkpt lat="41.3519" lon="19.77049">
        <ele>71.752933</ele>
        <time>2022-02-25T03:58:50.678Z</time>
      </trkpt>
      <trkpt lat="41.35188" lon="19.77049">
        <ele>71.754652</ele>
        <time>2022-02-25T03:58:51.203Z</time>
      </trkpt>
      <trkpt lat="41.35183" lon="19.77052">
        <ele>71.759802</ele>
        <time>2022-02-25T03:58:52.758Z</time>
      </trkpt>
      <trkpt lat="41.35182" lon="19.77054">
        <ele>71.761609</ele>
        <time>2022-02-25T03:58:53.271Z</time>
      </trkpt>
      <trkpt lat="41.3518" lon="19.77058">
        <ele>71.764788</ele>
        <time>2022-02-25T03:58:54.202Z</time>
      </trkpt>
      <trkpt lat="41.35179" lon="19.77063">
        <ele>71.768009</ele>
        <time>2022-02-25T03:58:55.140Z</time>
      </trkpt>
      <trkpt lat="41.3518" lon="19.77067">
        <ele>71.771194</ele>
        <time>2022-02-25T03:58:56.118Z</time>
      </trkpt>
      <trkpt lat="41.35182" lon="19.77071">
        <ele>71.774359</ele>
        <time>2022-02-25T03:58:57.129Z</time>
      </trkpt>
      <trkpt lat="41.35185" lon="19.77074">
        <ele>71.777495</ele>
        <time>2022-02-25T03:58:58.101Z</time>
      </trkpt>
      <trkpt lat="41.35191" lon="19.77076">
        <ele>71.783726</ele>
        <time>2022-02-25T03:59:00.002Z</time>
      </trkpt>
      <trkpt lat="41.35195" lon="19.77074">
        <ele>71.786901</ele>
        <time>2022-02-25T03:59:00.953Z</time>
      </trkpt>
      <trkpt lat="41.35199" lon="19.77076">
        <ele>71.790956</ele>
        <time>2022-02-25T03:59:02.171Z</time>
      </trkpt>
      <trkpt lat="41.35204" lon="19.77079">
        <ele>71.796127</ele>
        <time>2022-02-25T03:59:03.785Z</time>
      </trkpt>
      <trkpt lat="41.35208" lon="19.77083">
        <ele>71.801056</ele>
        <time>2022-02-25T03:59:05.246Z</time>
      </trkpt>
      <trkpt lat="41.35217" lon="19.77093">
        <ele>71.811</ele>
        <time>2022-02-25T03:59:08.332Z</time>
      </trkpt>
      <trkpt lat="41.35236" lon="19.77114">
        <ele>71.833312</ele>
        <time>2022-02-25T03:59:15.044Z</time>
      </trkpt>
      <trkpt lat="41.35246" lon="19.77125">
        <ele>71.845222</ele>
        <time>2022-02-25T03:59:18.595Z</time>
      </trkpt>
      <trkpt lat="41.35254" lon="19.77133">
        <ele>71.854451</ele>
        <time>2022-02-25T03:59:21.365Z</time>
      </trkpt>
      <trkpt lat="41.35286" lon="19.77167">
        <ele>71.854177</ele>
        <time>2022-02-25T03:59:32.232Z</time>
      </trkpt>
      <trkpt lat="41.35311" lon="19.77195">
        <ele>71.847182</ele>
        <time>2022-02-25T03:59:40.421Z</time>
      </trkpt>
      <trkpt lat="41.35313" lon="19.77197">
        <ele>71.846638</ele>
        <time>2022-02-25T03:59:41.115Z</time>
      </trkpt>
      <trkpt lat="41.35324" lon="19.7721">
        <ele>71.843416</ele>
        <time>2022-02-25T03:59:44.840Z</time>
      </trkpt>
      <trkpt lat="41.35336" lon="19.77225">
        <ele>71.840006</ele>
        <time>2022-02-25T03:59:48.762Z</time>
      </trkpt>
      <trkpt lat="41.35347" lon="19.77242">
        <ele>71.836252</ele>
        <time>2022-02-25T03:59:53.221Z</time>
      </trkpt>
      <trkpt lat="41.35361" lon="19.77267">
        <ele>71.831248</ele>
        <time>2022-02-25T03:59:59.433Z</time>
      </trkpt>
      <trkpt lat="41.35373" lon="19.77286">
        <ele>71.827139</ele>
        <time>2022-02-25T04:00:04.721Z</time>
      </trkpt>
      <trkpt lat="41.35433" lon="19.77386">
        <ele>72.329237</ele>
        <time>2022-02-25T04:00:32.498Z</time>
      </trkpt>
      <trkpt lat="41.35467" lon="19.77443">
        <ele>72.702822</ele>
        <time>2022-02-25T04:00:48.820Z</time>
      </trkpt>
      <trkpt lat="41.35476" lon="19.77452">
        <ele>72.776773</ele>
        <time>2022-02-25T04:00:52.436Z</time>
      </trkpt>
      <trkpt lat="41.355" lon="19.77465">
        <ele>72.951445</ele>
        <time>2022-02-25T04:01:00.088Z</time>
      </trkpt>
      <trkpt lat="41.35508" lon="19.77466">
        <ele>73.008055</ele>
        <time>2022-02-25T04:01:03.061Z</time>
      </trkpt>
      <trkpt lat="41.35513" lon="19.77474">
        <ele>73.069105</ele>
        <time>2022-02-25T04:01:05.308Z</time>
      </trkpt>
      <trkpt lat="41.35517" lon="19.77479">
        <ele>73.12684</ele>
        <time>2022-02-25T04:01:07.024Z</time>
      </trkpt>
      <trkpt lat="41.35537" lon="19.77494">
        <ele>73.375759</ele>
        <time>2022-02-25T04:01:14.790Z</time>
      </trkpt>
      <trkpt lat="41.35549" lon="19.77503">
        <ele>73.527021</ele>
        <time>2022-02-25T04:01:19.270Z</time>
      </trkpt>
      <trkpt lat="41.35555" lon="19.77508">
        <ele>73.597041</ele>
        <time>2022-02-25T04:01:21.466Z</time>
      </trkpt>
      <trkpt lat="41.35701" lon="19.77647">
        <ele>76.001176</ele>
        <time>2022-02-25T04:02:18.604Z</time>
      </trkpt>
      <trkpt lat="41.35707" lon="19.77653">
        <ele>76.137437</ele>
        <time>2022-02-25T04:02:20.943Z</time>
      </trkpt>
      <trkpt lat="41.35713" lon="19.77674">
        <ele>76.468556</ele>
        <time>2022-02-25T04:02:26.852Z</time>
      </trkpt>
      <trkpt lat="41.35711" lon="19.77693">
        <ele>76.751894</ele>
        <time>2022-02-25T04:02:32.049Z</time>
      </trkpt>
      <trkpt lat="41.35688" lon="19.77737">
        <ele>77.544377</ele>
        <time>2022-02-25T04:02:46.811Z</time>
      </trkpt>
      <trkpt lat="41.35687" lon="19.77742">
        <ele>77.616654</ele>
        <time>2022-02-25T04:02:48.108Z</time>
      </trkpt>
      <trkpt lat="41.35687" lon="19.77746">
        <ele>77.67613</ele>
        <time>2022-02-25T04:02:49.563Z</time>
      </trkpt>
      <trkpt lat="41.35722" lon="19.77804">
        <ele>78.880717</ele>
        <time>2022-02-25T04:03:11.376Z</time>
      </trkpt>
      <trkpt lat="41.35733" lon="19.77819">
        <ele>79.313717</ele>
        <time>2022-02-25T04:03:18.990Z</time>
      </trkpt>
      <trkpt lat="41.35739" lon="19.77826">
        <ele>79.551728</ele>
        <time>2022-02-25T04:03:22.131Z</time>
      </trkpt>
      <trkpt lat="41.35755" lon="19.77843">
        <ele>80.124594</ele>
        <time>2022-02-25T04:03:30.420Z</time>
      </trkpt>
      <trkpt lat="41.35777" lon="19.77863">
        <ele>80.886381</ele>
        <time>2022-02-25T04:03:41.704Z</time>
      </trkpt>
      <trkpt lat="41.35813" lon="19.77882">
        <ele>81.993467</ele>
        <time>2022-02-25T04:03:58.156Z</time>
      </trkpt>
      <trkpt lat="41.35827" lon="19.77892">
        <ele>82.440688</ele>
        <time>2022-02-25T04:04:05.373Z</time>
      </trkpt>
      <trkpt lat="41.35835" lon="19.77903">
        <ele>82.771093</ele>
        <time>2022-02-25T04:04:09.398Z</time>
      </trkpt>
      <trkpt lat="41.35841" lon="19.7791">
        <ele>82.989101</ele>
        <time>2022-02-25T04:04:12.398Z</time>
      </trkpt>
      <trkpt lat="41.35847" lon="19.77916">
        <ele>83.198155</ele>
        <time>2022-02-25T04:04:15.654Z</time>
      </trkpt>
      <trkpt lat="41.35851" lon="19.77919">
        <ele>83.331973</ele>
        <time>2022-02-25T04:04:17.809Z</time>
      </trkpt>
      <trkpt lat="41.35852" lon="19.7792">
        <ele>83.379505</ele>
        <time>2022-02-25T04:04:18.754Z</time>
      </trkpt>
      <trkpt lat="41.35885" lon="19.77934">
        <ele>83.668738</ele>
        <time>2022-02-25T04:04:30.830Z</time>
      </trkpt>
      <trkpt lat="41.35887" lon="19.77985">
        <ele>83.735073</ele>
        <time>2022-02-25T04:04:42.319Z</time>
      </trkpt>
      <trkpt lat="41.35895" lon="19.7803">
        <ele>83.793026</ele>
        <time>2022-02-25T04:04:51.147Z</time>
      </trkpt>
      <trkpt lat="41.35916" lon="19.78071">
        <ele>83.857015</ele>
        <time>2022-02-25T04:05:00.312Z</time>
      </trkpt>
      <trkpt lat="41.3593" lon="19.78087">
        <ele>83.888482</ele>
        <time>2022-02-25T04:05:04.680Z</time>
      </trkpt>
      <trkpt lat="41.3593" lon="19.78092">
        <ele>83.895337</ele>
        <time>2022-02-25T04:05:05.515Z</time>
      </trkpt>
      <trkpt lat="41.35932" lon="19.78098">
        <ele>83.902886</ele>
        <time>2022-02-25T04:05:06.505Z</time>
      </trkpt>
      <trkpt lat="41.35936" lon="19.78109">
        <ele>83.918937</ele>
        <time>2022-02-25T04:05:08.555Z</time>
      </trkpt>
      <trkpt lat="41.35946" lon="19.78132">
        <ele>83.870572</ele>
        <time>2022-02-25T04:05:13.211Z</time>
      </trkpt>
      <trkpt lat="41.35951" lon="19.78146">
        <ele>83.814825</ele>
        <time>2022-02-25T04:05:15.663Z</time>
      </trkpt>
      <trkpt lat="41.35964" lon="19.78177">
        <ele>83.683214</ele>
        <time>2022-02-25T04:05:22.008Z</time>
      </trkpt>
      <trkpt lat="41.35972" lon="19.7819">
        <ele>83.622643</ele>
        <time>2022-02-25T04:05:24.759Z</time>
      </trkpt>
      <trkpt lat="41.36032" lon="19.78192">
        <ele>83.327532</ele>
        <time>2022-02-25T04:05:39.766Z</time>
      </trkpt>
      <trkpt lat="41.36211" lon="19.78206">
        <ele>83.238158</ele>
        <time>2022-02-25T04:06:33.271Z</time>
      </trkpt>
      <trkpt lat="41.36219" lon="19.78204">
        <ele>83.25055</ele>
        <time>2022-02-25T04:06:35.641Z</time>
      </trkpt>
      <trkpt lat="41.36243" lon="19.78196">
        <ele>83.287212</ele>
        <time>2022-02-25T04:06:41.979Z</time>
      </trkpt>
      <trkpt lat="41.36313" lon="19.78181">
        <ele>83.286784</ele>
        <time>2022-02-25T04:07:00.705Z</time>
      </trkpt>
      <trkpt lat="41.36319" lon="19.78178">
        <ele>83.281482</ele>
        <time>2022-02-25T04:07:02.563Z</time>
      </trkpt>
      <trkpt lat="41.36335" lon="19.78253">
        <ele>83.235094</ele>
        <time>2022-02-25T04:07:28.083Z</time>
      </trkpt>
      <trkpt lat="41.36343" lon="19.78289">
        <ele>83.21278</ele>
        <time>2022-02-25T04:07:40.306Z</time>
      </trkpt>
      <trkpt lat="41.36364" lon="19.78281">
        <ele>83.195306</ele>
        <time>2022-02-25T04:07:46.318Z</time>
      </trkpt>
      <trkpt lat="41.36376" lon="19.78276">
        <ele>83.185175</ele>
        <time>2022-02-25T04:07:49.482Z</time>
      </trkpt>
      <trkpt lat="41.36381" lon="19.78275">
        <ele>83.18256</ele>
        <time>2022-02-25T04:07:50.922Z</time>
      </trkpt>
      <trkpt lat="41.36386" lon="19.78275">
        <ele>83.254601</ele>
        <time>2022-02-25T04:07:52.100Z</time>
      </trkpt>
      <trkpt lat="41.36391" lon="19.78277">
        <ele>83.348222</ele>
        <time>2022-02-25T04:07:53.897Z</time>
      </trkpt>
      <trkpt lat="41.36396" lon="19.78281">
        <ele>83.434111</ele>
        <time>2022-02-25T04:07:55.385Z</time>
      </trkpt>
      <trkpt lat="41.36408" lon="19.78291">
        <ele>83.676645</ele>
        <time>2022-02-25T04:07:59.216Z</time>
      </trkpt>
      <trkpt lat="41.36425" lon="19.78304">
        <ele>83.988278</ele>
        <time>2022-02-25T04:08:05.033Z</time>
      </trkpt>
      <trkpt lat="41.36482" lon="19.78326">
        <ele>84.964733</ele>
        <time>2022-02-25T04:08:24.581Z</time>
      </trkpt>
      <trkpt lat="41.36548" lon="19.78347">
        <ele>86.073671</ele>
        <time>2022-02-25T04:08:51.881Z</time>
      </trkpt>
      <trkpt lat="41.36557" lon="19.78349">
        <ele>86.124088</ele>
        <time>2022-02-25T04:08:56.237Z</time>
      </trkpt>
      <trkpt lat="41.36588" lon="19.78359">
        <ele>86.124088</ele>
        <time>2022-02-25T04:09:09.364Z</time>
      </trkpt>
      <trkpt lat="41.36641" lon="19.78375">
        <ele>86.124088</ele>
        <time>2022-02-25T04:09:31.875Z</time>
      </trkpt>
      <trkpt lat="41.36645" lon="19.78397">
        <ele>86.124088</ele>
        <time>2022-02-25T04:09:39.023Z</time>
      </trkpt>
      <trkpt lat="41.36646" lon="19.784">
        <ele>86.124088</ele>
        <time>2022-02-25T04:09:40.280Z</time>
      </trkpt>
      <trkpt lat="41.36652" lon="19.78423">
        <ele>86.124088</ele>
        <time>2022-02-25T04:09:47.509Z</time>
      </trkpt>
      <trkpt lat="41.36659" lon="19.7845">
        <ele>86.124088</ele>
        <time>2022-02-25T04:09:56.580Z</time>
      </trkpt>
      <trkpt lat="41.36659" lon="19.7845">
        <ele>86.124088</ele>
        <time>2022-02-25T04:09:56.626Z</time>
      </trkpt>
    </trkseg>
  </trk>
</gpx>